<?xml version="1.0" encoding="UTF-8" standalone="no" ?>
<gpx xmlns="http://www.topografix.com/GPX/1/1" xmlns:xsi="http://www.w3.org/2001/XMLSchema-instance" xsi:schemaLocation="http://www.topografix.com/GPX/1/1 http://www.topografix.com/GPX/1/1/gpx.xsd" version="1.1" creator="VisuGPX - https://www.visugpx.com">
  <metadata>
    <name>Pass\'porte du soleil 2014</name>
    <desc><![CDATA[Parcours de la pass\'porte du soleil 2014 au départ des Gets. sans la variante vers Torgon.]]></desc>
  </metadata>
  <trk>
    <name><![CDATA[27-JUIN-14 19:17:06]]></name>
    <trkseg>
      <trkpt lat="46.15601" lon="6.66673">
        <ele>1170.06</ele>
        <time>2014-06-27T06:16:43Z</time>
      </trkpt>
      <trkpt lat="46.15601" lon="6.66673">
        <ele>1170.54</ele>
        <time>2014-06-27T06:17:08Z</time>
      </trkpt>
      <trkpt lat="46.15603" lon="6.66675">
        <ele>1170.54</ele>
        <time>2014-06-27T06:17:24Z</time>
      </trkpt>
      <trkpt lat="46.15603" lon="6.66675">
        <ele>1170.54</ele>
        <time>2014-06-27T06:17:51Z</time>
      </trkpt>
      <trkpt lat="46.15603" lon="6.66676">
        <ele>1170.54</ele>
        <time>2014-06-27T06:18:01Z</time>
      </trkpt>
      <trkpt lat="46.15624" lon="6.66711">
        <ele>1170.54</ele>
        <time>2014-06-27T06:18:13Z</time>
      </trkpt>
      <trkpt lat="46.15642" lon="6.66742">
        <ele>1170.54</ele>
        <time>2014-06-27T06:18:21Z</time>
      </trkpt>
      <trkpt lat="46.15648" lon="6.66751">
        <ele>1170.54</ele>
        <time>2014-06-27T06:18:23Z</time>
      </trkpt>
      <trkpt lat="46.15674" lon="6.66791">
        <ele>1169.1</ele>
        <time>2014-06-27T06:18:30Z</time>
      </trkpt>
      <trkpt lat="46.15685" lon="6.66809">
        <ele>1168.62</ele>
        <time>2014-06-27T06:18:38Z</time>
      </trkpt>
      <trkpt lat="46.1568" lon="6.66806">
        <ele>1168.14</ele>
        <time>2014-06-27T06:18:47Z</time>
      </trkpt>
      <trkpt lat="46.15663" lon="6.66781">
        <ele>1168.14</ele>
        <time>2014-06-27T06:18:58Z</time>
      </trkpt>
      <trkpt lat="46.15649" lon="6.66759">
        <ele>1168.14</ele>
        <time>2014-06-27T06:19:02Z</time>
      </trkpt>
      <trkpt lat="46.15643" lon="6.66751">
        <ele>1168.14</ele>
        <time>2014-06-27T06:19:04Z</time>
      </trkpt>
      <trkpt lat="46.15639" lon="6.66759">
        <ele>1168.14</ele>
        <time>2014-06-27T06:19:09Z</time>
      </trkpt>
      <trkpt lat="46.15671" lon="6.66814">
        <ele>1170.06</ele>
        <time>2014-06-27T06:19:20Z</time>
      </trkpt>
      <trkpt lat="46.15684" lon="6.6682">
        <ele>1170.54</ele>
        <time>2014-06-27T06:19:25Z</time>
      </trkpt>
      <trkpt lat="46.15691" lon="6.66828">
        <ele>1170.54</ele>
        <time>2014-06-27T06:19:32Z</time>
      </trkpt>
      <trkpt lat="46.15696" lon="6.66834">
        <ele>1170.54</ele>
        <time>2014-06-27T06:19:41Z</time>
      </trkpt>
      <trkpt lat="46.15694" lon="6.66834">
        <ele>1170.54</ele>
        <time>2014-06-27T06:19:56Z</time>
      </trkpt>
      <trkpt lat="46.1569" lon="6.66832">
        <ele>1171.5</ele>
        <time>2014-06-27T06:20:09Z</time>
      </trkpt>
      <trkpt lat="46.1569" lon="6.66831">
        <ele>1171.5</ele>
        <time>2014-06-27T06:20:29Z</time>
      </trkpt>
      <trkpt lat="46.15689" lon="6.66831">
        <ele>1171.5</ele>
        <time>2014-06-27T06:20:50Z</time>
      </trkpt>
      <trkpt lat="46.15689" lon="6.66831">
        <ele>1171.5</ele>
        <time>2014-06-27T06:21:06Z</time>
      </trkpt>
      <trkpt lat="46.15685" lon="6.66826">
        <ele>1171.5</ele>
        <time>2014-06-27T06:21:25Z</time>
      </trkpt>
      <trkpt lat="46.15679" lon="6.66825">
        <ele>1171.5</ele>
        <time>2014-06-27T06:21:32Z</time>
      </trkpt>
      <trkpt lat="46.15669" lon="6.66839">
        <ele>1171.5</ele>
        <time>2014-06-27T06:21:38Z</time>
      </trkpt>
      <trkpt lat="46.15657" lon="6.6686">
        <ele>1175.83</ele>
        <time>2014-06-27T06:21:45Z</time>
      </trkpt>
      <trkpt lat="46.15654" lon="6.66866">
        <ele>1179.19</ele>
        <time>2014-06-27T06:21:47Z</time>
      </trkpt>
      <trkpt lat="46.15651" lon="6.66871">
        <ele>1183.04</ele>
        <time>2014-06-27T06:21:49Z</time>
      </trkpt>
      <trkpt lat="46.15648" lon="6.66877">
        <ele>1187.37</ele>
        <time>2014-06-27T06:21:51Z</time>
      </trkpt>
      <trkpt lat="46.15645" lon="6.66883">
        <ele>1190.73</ele>
        <time>2014-06-27T06:21:53Z</time>
      </trkpt>
      <trkpt lat="46.15643" lon="6.66886">
        <ele>1190.73</ele>
        <time>2014-06-27T06:21:54Z</time>
      </trkpt>
      <trkpt lat="46.15624" lon="6.66926">
        <ele>1193.61</ele>
        <time>2014-06-27T06:22:06Z</time>
      </trkpt>
      <trkpt lat="46.15616" lon="6.66943">
        <ele>1196.5</ele>
        <time>2014-06-27T06:22:11Z</time>
      </trkpt>
      <trkpt lat="46.15611" lon="6.66953">
        <ele>1200.82</ele>
        <time>2014-06-27T06:22:14Z</time>
      </trkpt>
      <trkpt lat="46.15608" lon="6.66959">
        <ele>1204.19</ele>
        <time>2014-06-27T06:22:16Z</time>
      </trkpt>
      <trkpt lat="46.15604" lon="6.66969">
        <ele>1207.07</ele>
        <time>2014-06-27T06:22:19Z</time>
      </trkpt>
      <trkpt lat="46.15599" lon="6.66982">
        <ele>1210.92</ele>
        <time>2014-06-27T06:22:23Z</time>
      </trkpt>
      <trkpt lat="46.15591" lon="6.67001">
        <ele>1214.28</ele>
        <time>2014-06-27T06:22:29Z</time>
      </trkpt>
      <trkpt lat="46.15587" lon="6.67015">
        <ele>1218.61</ele>
        <time>2014-06-27T06:22:33Z</time>
      </trkpt>
      <trkpt lat="46.15583" lon="6.67024">
        <ele>1222.45</ele>
        <time>2014-06-27T06:22:36Z</time>
      </trkpt>
      <trkpt lat="46.1558" lon="6.67034">
        <ele>1226.3</ele>
        <time>2014-06-27T06:22:39Z</time>
      </trkpt>
      <trkpt lat="46.15576" lon="6.67043">
        <ele>1230.14</ele>
        <time>2014-06-27T06:22:42Z</time>
      </trkpt>
      <trkpt lat="46.15571" lon="6.67055">
        <ele>1232.55</ele>
        <time>2014-06-27T06:22:46Z</time>
      </trkpt>
      <trkpt lat="46.15558" lon="6.67084">
        <ele>1229.66</ele>
        <time>2014-06-27T06:22:55Z</time>
      </trkpt>
      <trkpt lat="46.15546" lon="6.67107">
        <ele>1231.11</ele>
        <time>2014-06-27T06:23:02Z</time>
      </trkpt>
      <trkpt lat="46.1554" lon="6.6712">
        <ele>1234.95</ele>
        <time>2014-06-27T06:23:06Z</time>
      </trkpt>
      <trkpt lat="46.15535" lon="6.67129">
        <ele>1238.32</ele>
        <time>2014-06-27T06:23:09Z</time>
      </trkpt>
      <trkpt lat="46.15531" lon="6.67139">
        <ele>1239.76</ele>
        <time>2014-06-27T06:23:12Z</time>
      </trkpt>
      <trkpt lat="46.15516" lon="6.67167">
        <ele>1243.6</ele>
        <time>2014-06-27T06:23:22Z</time>
      </trkpt>
      <trkpt lat="46.1549" lon="6.6722">
        <ele>1244.08</ele>
        <time>2014-06-27T06:23:39Z</time>
      </trkpt>
      <trkpt lat="46.1546" lon="6.67283">
        <ele>1246.97</ele>
        <time>2014-06-27T06:23:58Z</time>
      </trkpt>
      <trkpt lat="46.15455" lon="6.67296">
        <ele>1250.81</ele>
        <time>2014-06-27T06:24:02Z</time>
      </trkpt>
      <trkpt lat="46.1545" lon="6.67305">
        <ele>1252.74</ele>
        <time>2014-06-27T06:24:05Z</time>
      </trkpt>
      <trkpt lat="46.15415" lon="6.67386">
        <ele>1253.22</ele>
        <time>2014-06-27T06:24:29Z</time>
      </trkpt>
      <trkpt lat="46.15398" lon="6.67423">
        <ele>1256.58</ele>
        <time>2014-06-27T06:24:40Z</time>
      </trkpt>
      <trkpt lat="46.15392" lon="6.67436">
        <ele>1260.43</ele>
        <time>2014-06-27T06:24:44Z</time>
      </trkpt>
      <trkpt lat="46.15385" lon="6.67451">
        <ele>1263.79</ele>
        <time>2014-06-27T06:24:49Z</time>
      </trkpt>
      <trkpt lat="46.15355" lon="6.6752">
        <ele>1264.75</ele>
        <time>2014-06-27T06:25:10Z</time>
      </trkpt>
      <trkpt lat="46.15336" lon="6.67558">
        <ele>1268.12</ele>
        <time>2014-06-27T06:25:22Z</time>
      </trkpt>
      <trkpt lat="46.1533" lon="6.67571">
        <ele>1271.96</ele>
        <time>2014-06-27T06:25:26Z</time>
      </trkpt>
      <trkpt lat="46.15325" lon="6.67582">
        <ele>1275.33</ele>
        <time>2014-06-27T06:25:30Z</time>
      </trkpt>
      <trkpt lat="46.15307" lon="6.67615">
        <ele>1276.29</ele>
        <time>2014-06-27T06:25:42Z</time>
      </trkpt>
      <trkpt lat="46.15294" lon="6.67637">
        <ele>1279.65</ele>
        <time>2014-06-27T06:25:49Z</time>
      </trkpt>
      <trkpt lat="46.1529" lon="6.67647">
        <ele>1282.54</ele>
        <time>2014-06-27T06:25:52Z</time>
      </trkpt>
      <trkpt lat="46.15286" lon="6.67656">
        <ele>1285.9</ele>
        <time>2014-06-27T06:25:55Z</time>
      </trkpt>
      <trkpt lat="46.15281" lon="6.67668">
        <ele>1289.27</ele>
        <time>2014-06-27T06:25:59Z</time>
      </trkpt>
      <trkpt lat="46.15269" lon="6.67692">
        <ele>1293.11</ele>
        <time>2014-06-27T06:26:08Z</time>
      </trkpt>
      <trkpt lat="46.15264" lon="6.67704">
        <ele>1296.48</ele>
        <time>2014-06-27T06:26:12Z</time>
      </trkpt>
      <trkpt lat="46.15259" lon="6.67713">
        <ele>1298.4</ele>
        <time>2014-06-27T06:26:15Z</time>
      </trkpt>
      <trkpt lat="46.15255" lon="6.67719">
        <ele>1299.84</ele>
        <time>2014-06-27T06:26:17Z</time>
      </trkpt>
      <trkpt lat="46.15246" lon="6.67736">
        <ele>1303.2</ele>
        <time>2014-06-27T06:26:22Z</time>
      </trkpt>
      <trkpt lat="46.15238" lon="6.67753">
        <ele>1306.57</ele>
        <time>2014-06-27T06:26:27Z</time>
      </trkpt>
      <trkpt lat="46.15232" lon="6.67767">
        <ele>1309.93</ele>
        <time>2014-06-27T06:26:31Z</time>
      </trkpt>
      <trkpt lat="46.15227" lon="6.67781">
        <ele>1313.78</ele>
        <time>2014-06-27T06:26:35Z</time>
      </trkpt>
      <trkpt lat="46.15222" lon="6.67794">
        <ele>1317.62</ele>
        <time>2014-06-27T06:26:39Z</time>
      </trkpt>
      <trkpt lat="46.15217" lon="6.67804">
        <ele>1319.55</ele>
        <time>2014-06-27T06:26:42Z</time>
      </trkpt>
      <trkpt lat="46.15212" lon="6.67816">
        <ele>1323.39</ele>
        <time>2014-06-27T06:26:46Z</time>
      </trkpt>
      <trkpt lat="46.15204" lon="6.67836">
        <ele>1326.76</ele>
        <time>2014-06-27T06:26:52Z</time>
      </trkpt>
      <trkpt lat="46.15194" lon="6.67858">
        <ele>1329.64</ele>
        <time>2014-06-27T06:26:59Z</time>
      </trkpt>
      <trkpt lat="46.15188" lon="6.67868">
        <ele>1333.01</ele>
        <time>2014-06-27T06:27:03Z</time>
      </trkpt>
      <trkpt lat="46.15181" lon="6.67881">
        <ele>1336.37</ele>
        <time>2014-06-27T06:27:07Z</time>
      </trkpt>
      <trkpt lat="46.1518" lon="6.67885">
        <ele>1336.85</ele>
        <time>2014-06-27T06:27:08Z</time>
      </trkpt>
      <trkpt lat="46.15175" lon="6.67897">
        <ele>1339.73</ele>
        <time>2014-06-27T06:27:12Z</time>
      </trkpt>
      <trkpt lat="46.1517" lon="6.67909">
        <ele>1343.1</ele>
        <time>2014-06-27T06:27:16Z</time>
      </trkpt>
      <trkpt lat="46.15163" lon="6.67922">
        <ele>1345.98</ele>
        <time>2014-06-27T06:27:20Z</time>
      </trkpt>
      <trkpt lat="46.15157" lon="6.67934">
        <ele>1349.83</ele>
        <time>2014-06-27T06:27:24Z</time>
      </trkpt>
      <trkpt lat="46.15152" lon="6.67946">
        <ele>1353.67</ele>
        <time>2014-06-27T06:27:28Z</time>
      </trkpt>
      <trkpt lat="46.15146" lon="6.67959">
        <ele>1357.52</ele>
        <time>2014-06-27T06:27:32Z</time>
      </trkpt>
      <trkpt lat="46.15142" lon="6.67969">
        <ele>1359.44</ele>
        <time>2014-06-27T06:27:35Z</time>
      </trkpt>
      <trkpt lat="46.15137" lon="6.67982">
        <ele>1363.29</ele>
        <time>2014-06-27T06:27:39Z</time>
      </trkpt>
      <trkpt lat="46.15133" lon="6.67994">
        <ele>1366.65</ele>
        <time>2014-06-27T06:27:42Z</time>
      </trkpt>
      <trkpt lat="46.15129" lon="6.68003">
        <ele>1370.02</ele>
        <time>2014-06-27T06:27:45Z</time>
      </trkpt>
      <trkpt lat="46.15124" lon="6.68013">
        <ele>1373.38</ele>
        <time>2014-06-27T06:27:48Z</time>
      </trkpt>
      <trkpt lat="46.15119" lon="6.68022">
        <ele>1376.75</ele>
        <time>2014-06-27T06:27:51Z</time>
      </trkpt>
      <trkpt lat="46.15114" lon="6.68031">
        <ele>1380.11</ele>
        <time>2014-06-27T06:27:54Z</time>
      </trkpt>
      <trkpt lat="46.15109" lon="6.6804">
        <ele>1383.96</ele>
        <time>2014-06-27T06:27:57Z</time>
      </trkpt>
      <trkpt lat="46.15105" lon="6.68048">
        <ele>1387.32</ele>
        <time>2014-06-27T06:28:00Z</time>
      </trkpt>
      <trkpt lat="46.15102" lon="6.68055">
        <ele>1387.8</ele>
        <time>2014-06-27T06:28:02Z</time>
      </trkpt>
      <trkpt lat="46.15094" lon="6.6807">
        <ele>1391.17</ele>
        <time>2014-06-27T06:28:07Z</time>
      </trkpt>
      <trkpt lat="46.15087" lon="6.68086">
        <ele>1394.05</ele>
        <time>2014-06-27T06:28:12Z</time>
      </trkpt>
      <trkpt lat="46.15081" lon="6.68099">
        <ele>1397.89</ele>
        <time>2014-06-27T06:28:16Z</time>
      </trkpt>
      <trkpt lat="46.15077" lon="6.68108">
        <ele>1401.26</ele>
        <time>2014-06-27T06:28:19Z</time>
      </trkpt>
      <trkpt lat="46.15072" lon="6.68117">
        <ele>1404.62</ele>
        <time>2014-06-27T06:28:22Z</time>
      </trkpt>
      <trkpt lat="46.15068" lon="6.68126">
        <ele>1407.51</ele>
        <time>2014-06-27T06:28:25Z</time>
      </trkpt>
      <trkpt lat="46.15064" lon="6.68135">
        <ele>1409.43</ele>
        <time>2014-06-27T06:28:28Z</time>
      </trkpt>
      <trkpt lat="46.15059" lon="6.68147">
        <ele>1413.28</ele>
        <time>2014-06-27T06:28:32Z</time>
      </trkpt>
      <trkpt lat="46.15054" lon="6.68156">
        <ele>1416.16</ele>
        <time>2014-06-27T06:28:35Z</time>
      </trkpt>
      <trkpt lat="46.1505" lon="6.68165">
        <ele>1419.52</ele>
        <time>2014-06-27T06:28:38Z</time>
      </trkpt>
      <trkpt lat="46.15046" lon="6.68174">
        <ele>1423.37</ele>
        <time>2014-06-27T06:28:41Z</time>
      </trkpt>
      <trkpt lat="46.15042" lon="6.68183">
        <ele>1427.21</ele>
        <time>2014-06-27T06:28:44Z</time>
      </trkpt>
      <trkpt lat="46.15038" lon="6.68193">
        <ele>1430.58</ele>
        <time>2014-06-27T06:28:47Z</time>
      </trkpt>
      <trkpt lat="46.15033" lon="6.68202">
        <ele>1433.94</ele>
        <time>2014-06-27T06:28:50Z</time>
      </trkpt>
      <trkpt lat="46.15029" lon="6.6821">
        <ele>1437.79</ele>
        <time>2014-06-27T06:28:53Z</time>
      </trkpt>
      <trkpt lat="46.15027" lon="6.68217">
        <ele>1438.75</ele>
        <time>2014-06-27T06:28:55Z</time>
      </trkpt>
      <trkpt lat="46.15007" lon="6.68264">
        <ele>1442.11</ele>
        <time>2014-06-27T06:29:09Z</time>
      </trkpt>
      <trkpt lat="46.14999" lon="6.68281">
        <ele>1446.44</ele>
        <time>2014-06-27T06:29:14Z</time>
      </trkpt>
      <trkpt lat="46.14994" lon="6.68289">
        <ele>1450.77</ele>
        <time>2014-06-27T06:29:17Z</time>
      </trkpt>
      <trkpt lat="46.1499" lon="6.68299">
        <ele>1454.13</ele>
        <time>2014-06-27T06:29:20Z</time>
      </trkpt>
      <trkpt lat="46.14989" lon="6.68302">
        <ele>1454.13</ele>
        <time>2014-06-27T06:29:21Z</time>
      </trkpt>
      <trkpt lat="46.1498" lon="6.68321">
        <ele>1457.5</ele>
        <time>2014-06-27T06:29:27Z</time>
      </trkpt>
      <trkpt lat="46.14971" lon="6.68341">
        <ele>1460.86</ele>
        <time>2014-06-27T06:29:33Z</time>
      </trkpt>
      <trkpt lat="46.14966" lon="6.68353">
        <ele>1465.19</ele>
        <time>2014-06-27T06:29:37Z</time>
      </trkpt>
      <trkpt lat="46.14961" lon="6.68366">
        <ele>1468.55</ele>
        <time>2014-06-27T06:29:41Z</time>
      </trkpt>
      <trkpt lat="46.14935" lon="6.68428">
        <ele>1471.44</ele>
        <time>2014-06-27T06:30:00Z</time>
      </trkpt>
      <trkpt lat="46.14931" lon="6.68438">
        <ele>1474.8</ele>
        <time>2014-06-27T06:30:03Z</time>
      </trkpt>
      <trkpt lat="46.14927" lon="6.68448">
        <ele>1478.16</ele>
        <time>2014-06-27T06:30:06Z</time>
      </trkpt>
      <trkpt lat="46.1492" lon="6.68464">
        <ele>1481.53</ele>
        <time>2014-06-27T06:30:11Z</time>
      </trkpt>
      <trkpt lat="46.14906" lon="6.68496">
        <ele>1484.89</ele>
        <time>2014-06-27T06:30:21Z</time>
      </trkpt>
      <trkpt lat="46.149" lon="6.68509">
        <ele>1488.26</ele>
        <time>2014-06-27T06:30:25Z</time>
      </trkpt>
      <trkpt lat="46.14895" lon="6.68521">
        <ele>1491.62</ele>
        <time>2014-06-27T06:30:29Z</time>
      </trkpt>
      <trkpt lat="46.14867" lon="6.68582">
        <ele>1494.51</ele>
        <time>2014-06-27T06:30:48Z</time>
      </trkpt>
      <trkpt lat="46.14861" lon="6.68596">
        <ele>1498.35</ele>
        <time>2014-06-27T06:30:52Z</time>
      </trkpt>
      <trkpt lat="46.14857" lon="6.68606">
        <ele>1501.24</ele>
        <time>2014-06-27T06:30:55Z</time>
      </trkpt>
      <trkpt lat="46.1485" lon="6.68622">
        <ele>1504.6</ele>
        <time>2014-06-27T06:31:00Z</time>
      </trkpt>
      <trkpt lat="46.14835" lon="6.68651">
        <ele>1507.97</ele>
        <time>2014-06-27T06:31:09Z</time>
      </trkpt>
      <trkpt lat="46.14827" lon="6.68667">
        <ele>1511.81</ele>
        <time>2014-06-27T06:31:14Z</time>
      </trkpt>
      <trkpt lat="46.14822" lon="6.6868">
        <ele>1515.66</ele>
        <time>2014-06-27T06:31:18Z</time>
      </trkpt>
      <trkpt lat="46.14816" lon="6.68693">
        <ele>1518.54</ele>
        <time>2014-06-27T06:31:22Z</time>
      </trkpt>
      <trkpt lat="46.14811" lon="6.68708">
        <ele>1521.9</ele>
        <time>2014-06-27T06:31:27Z</time>
      </trkpt>
      <trkpt lat="46.14789" lon="6.6876">
        <ele>1525.75</ele>
        <time>2014-06-27T06:31:43Z</time>
      </trkpt>
      <trkpt lat="46.14783" lon="6.68773">
        <ele>1529.59</ele>
        <time>2014-06-27T06:31:47Z</time>
      </trkpt>
      <trkpt lat="46.14779" lon="6.68783">
        <ele>1532.48</ele>
        <time>2014-06-27T06:31:50Z</time>
      </trkpt>
      <trkpt lat="46.14772" lon="6.68798">
        <ele>1535.84</ele>
        <time>2014-06-27T06:31:55Z</time>
      </trkpt>
      <trkpt lat="46.14759" lon="6.68824">
        <ele>1538.73</ele>
        <time>2014-06-27T06:32:03Z</time>
      </trkpt>
      <trkpt lat="46.14752" lon="6.68839">
        <ele>1543.05</ele>
        <time>2014-06-27T06:32:08Z</time>
      </trkpt>
      <trkpt lat="46.14747" lon="6.68852">
        <ele>1546.42</ele>
        <time>2014-06-27T06:32:12Z</time>
      </trkpt>
      <trkpt lat="46.14721" lon="6.6891">
        <ele>1548.82</ele>
        <time>2014-06-27T06:32:30Z</time>
      </trkpt>
      <trkpt lat="46.14712" lon="6.68929">
        <ele>1552.19</ele>
        <time>2014-06-27T06:32:36Z</time>
      </trkpt>
      <trkpt lat="46.14707" lon="6.68939">
        <ele>1555.07</ele>
        <time>2014-06-27T06:32:39Z</time>
      </trkpt>
      <trkpt lat="46.147" lon="6.68952">
        <ele>1558.43</ele>
        <time>2014-06-27T06:32:43Z</time>
      </trkpt>
      <trkpt lat="46.14671" lon="6.69017">
        <ele>1561.8</ele>
        <time>2014-06-27T06:33:03Z</time>
      </trkpt>
      <trkpt lat="46.1465" lon="6.69066">
        <ele>1565.16</ele>
        <time>2014-06-27T06:33:18Z</time>
      </trkpt>
      <trkpt lat="46.14645" lon="6.69079">
        <ele>1569.49</ele>
        <time>2014-06-27T06:33:22Z</time>
      </trkpt>
      <trkpt lat="46.14637" lon="6.69096">
        <ele>1572.37</ele>
        <time>2014-06-27T06:33:27Z</time>
      </trkpt>
      <trkpt lat="46.14614" lon="6.69143">
        <ele>1576.22</ele>
        <time>2014-06-27T06:33:42Z</time>
      </trkpt>
      <trkpt lat="46.1461" lon="6.69153">
        <ele>1579.58</ele>
        <time>2014-06-27T06:33:45Z</time>
      </trkpt>
      <trkpt lat="46.14605" lon="6.69162">
        <ele>1582.95</ele>
        <time>2014-06-27T06:33:48Z</time>
      </trkpt>
      <trkpt lat="46.14573" lon="6.6923">
        <ele>1586.79</ele>
        <time>2014-06-27T06:34:09Z</time>
      </trkpt>
      <trkpt lat="46.14569" lon="6.69239">
        <ele>1589.68</ele>
        <time>2014-06-27T06:34:12Z</time>
      </trkpt>
      <trkpt lat="46.14565" lon="6.69249">
        <ele>1593.04</ele>
        <time>2014-06-27T06:34:15Z</time>
      </trkpt>
      <trkpt lat="46.14561" lon="6.69258">
        <ele>1594.48</ele>
        <time>2014-06-27T06:34:18Z</time>
      </trkpt>
      <trkpt lat="46.14549" lon="6.69286">
        <ele>1597.85</ele>
        <time>2014-06-27T06:34:27Z</time>
      </trkpt>
      <trkpt lat="46.14541" lon="6.69305">
        <ele>1601.69</ele>
        <time>2014-06-27T06:34:33Z</time>
      </trkpt>
      <trkpt lat="46.14536" lon="6.69317">
        <ele>1605.06</ele>
        <time>2014-06-27T06:34:37Z</time>
      </trkpt>
      <trkpt lat="46.14504" lon="6.69388">
        <ele>1607.46</ele>
        <time>2014-06-27T06:34:59Z</time>
      </trkpt>
      <trkpt lat="46.14497" lon="6.69398">
        <ele>1607.46</ele>
        <time>2014-06-27T06:35:10Z</time>
      </trkpt>
      <trkpt lat="46.14494" lon="6.69404">
        <ele>1607.46</ele>
        <time>2014-06-27T06:35:34Z</time>
      </trkpt>
      <trkpt lat="46.14494" lon="6.69405">
        <ele>1606.02</ele>
        <time>2014-06-27T06:35:45Z</time>
      </trkpt>
      <trkpt lat="46.14492" lon="6.69412">
        <ele>1605.54</ele>
        <time>2014-06-27T06:35:59Z</time>
      </trkpt>
      <trkpt lat="46.14492" lon="6.69412">
        <ele>1605.06</ele>
        <time>2014-06-27T06:36:22Z</time>
      </trkpt>
      <trkpt lat="46.14492" lon="6.69413">
        <ele>1605.06</ele>
        <time>2014-06-27T06:36:40Z</time>
      </trkpt>
      <trkpt lat="46.14489" lon="6.69428">
        <ele>1604.58</ele>
        <time>2014-06-27T06:36:46Z</time>
      </trkpt>
      <trkpt lat="46.14492" lon="6.69442">
        <ele>1604.58</ele>
        <time>2014-06-27T06:36:53Z</time>
      </trkpt>
      <trkpt lat="46.14494" lon="6.69444">
        <ele>1603.62</ele>
        <time>2014-06-27T06:37:06Z</time>
      </trkpt>
      <trkpt lat="46.14494" lon="6.69444">
        <ele>1603.62</ele>
        <time>2014-06-27T06:37:24Z</time>
      </trkpt>
      <trkpt lat="46.14494" lon="6.69444">
        <ele>1603.62</ele>
        <time>2014-06-27T06:37:46Z</time>
      </trkpt>
      <trkpt lat="46.14511" lon="6.6944">
        <ele>1603.14</ele>
        <time>2014-06-27T06:37:53Z</time>
      </trkpt>
      <trkpt lat="46.14533" lon="6.69435">
        <ele>1602.66</ele>
        <time>2014-06-27T06:37:57Z</time>
      </trkpt>
      <trkpt lat="46.14547" lon="6.69431">
        <ele>1602.17</ele>
        <time>2014-06-27T06:37:59Z</time>
      </trkpt>
      <trkpt lat="46.14589" lon="6.69406">
        <ele>1601.21</ele>
        <time>2014-06-27T06:38:06Z</time>
      </trkpt>
      <trkpt lat="46.14609" lon="6.69372">
        <ele>1596.89</ele>
        <time>2014-06-27T06:38:11Z</time>
      </trkpt>
      <trkpt lat="46.14617" lon="6.69358">
        <ele>1594.48</ele>
        <time>2014-06-27T06:38:13Z</time>
      </trkpt>
      <trkpt lat="46.14637" lon="6.69331">
        <ele>1590.16</ele>
        <time>2014-06-27T06:38:17Z</time>
      </trkpt>
      <trkpt lat="46.14683" lon="6.69313">
        <ele>1589.68</ele>
        <time>2014-06-27T06:38:25Z</time>
      </trkpt>
      <trkpt lat="46.14715" lon="6.69313">
        <ele>1589.68</ele>
        <time>2014-06-27T06:38:31Z</time>
      </trkpt>
      <trkpt lat="46.14759" lon="6.69308">
        <ele>1589.68</ele>
        <time>2014-06-27T06:38:40Z</time>
      </trkpt>
      <trkpt lat="46.14766" lon="6.69308">
        <ele>1589.68</ele>
        <time>2014-06-27T06:38:41Z</time>
      </trkpt>
      <trkpt lat="46.14792" lon="6.69302">
        <ele>1586.31</ele>
        <time>2014-06-27T06:38:45Z</time>
      </trkpt>
      <trkpt lat="46.14812" lon="6.69299">
        <ele>1582.47</ele>
        <time>2014-06-27T06:38:48Z</time>
      </trkpt>
      <trkpt lat="46.14822" lon="6.69298">
        <ele>1581.03</ele>
        <time>2014-06-27T06:38:50Z</time>
      </trkpt>
      <trkpt lat="46.14826" lon="6.69297">
        <ele>1579.58</ele>
        <time>2014-06-27T06:38:51Z</time>
      </trkpt>
      <trkpt lat="46.1485" lon="6.69285">
        <ele>1575.74</ele>
        <time>2014-06-27T06:38:56Z</time>
      </trkpt>
      <trkpt lat="46.14876" lon="6.69306">
        <ele>1571.89</ele>
        <time>2014-06-27T06:39:01Z</time>
      </trkpt>
      <trkpt lat="46.14881" lon="6.69312">
        <ele>1570.93</ele>
        <time>2014-06-27T06:39:02Z</time>
      </trkpt>
      <trkpt lat="46.14894" lon="6.69329">
        <ele>1568.05</ele>
        <time>2014-06-27T06:39:05Z</time>
      </trkpt>
      <trkpt lat="46.14906" lon="6.69354">
        <ele>1563.72</ele>
        <time>2014-06-27T06:39:08Z</time>
      </trkpt>
      <trkpt lat="46.14914" lon="6.69371">
        <ele>1559.88</ele>
        <time>2014-06-27T06:39:10Z</time>
      </trkpt>
      <trkpt lat="46.14919" lon="6.69384">
        <ele>1556.03</ele>
        <time>2014-06-27T06:39:12Z</time>
      </trkpt>
      <trkpt lat="46.14925" lon="6.69398">
        <ele>1552.67</ele>
        <time>2014-06-27T06:39:14Z</time>
      </trkpt>
      <trkpt lat="46.14928" lon="6.69406">
        <ele>1550.74</ele>
        <time>2014-06-27T06:39:15Z</time>
      </trkpt>
      <trkpt lat="46.14954" lon="6.6943">
        <ele>1548.82</ele>
        <time>2014-06-27T06:39:21Z</time>
      </trkpt>
      <trkpt lat="46.14981" lon="6.69428">
        <ele>1550.74</ele>
        <time>2014-06-27T06:39:27Z</time>
      </trkpt>
      <trkpt lat="46.14986" lon="6.69432">
        <ele>1550.74</ele>
        <time>2014-06-27T06:39:31Z</time>
      </trkpt>
      <trkpt lat="46.1499" lon="6.69434">
        <ele>1549.3</ele>
        <time>2014-06-27T06:39:34Z</time>
      </trkpt>
      <trkpt lat="46.14997" lon="6.69438">
        <ele>1548.34</ele>
        <time>2014-06-27T06:39:38Z</time>
      </trkpt>
      <trkpt lat="46.15025" lon="6.69453">
        <ele>1544.98</ele>
        <time>2014-06-27T06:39:45Z</time>
      </trkpt>
      <trkpt lat="46.15055" lon="6.69457">
        <ele>1540.65</ele>
        <time>2014-06-27T06:39:50Z</time>
      </trkpt>
      <trkpt lat="46.15061" lon="6.69457">
        <ele>1539.69</ele>
        <time>2014-06-27T06:39:51Z</time>
      </trkpt>
      <trkpt lat="46.15109" lon="6.69447">
        <ele>1538.25</ele>
        <time>2014-06-27T06:40:00Z</time>
      </trkpt>
      <trkpt lat="46.15121" lon="6.69431">
        <ele>1535.84</ele>
        <time>2014-06-27T06:40:03Z</time>
      </trkpt>
      <trkpt lat="46.1513" lon="6.69417">
        <ele>1533.44</ele>
        <time>2014-06-27T06:40:05Z</time>
      </trkpt>
      <trkpt lat="46.15145" lon="6.69402">
        <ele>1528.15</ele>
        <time>2014-06-27T06:40:08Z</time>
      </trkpt>
      <trkpt lat="46.15154" lon="6.69395">
        <ele>1524.31</ele>
        <time>2014-06-27T06:40:10Z</time>
      </trkpt>
      <trkpt lat="46.15171" lon="6.69388">
        <ele>1521.42</ele>
        <time>2014-06-27T06:40:13Z</time>
      </trkpt>
      <trkpt lat="46.15183" lon="6.69383">
        <ele>1518.54</ele>
        <time>2014-06-27T06:40:15Z</time>
      </trkpt>
      <trkpt lat="46.15199" lon="6.69374">
        <ele>1514.69</ele>
        <time>2014-06-27T06:40:18Z</time>
      </trkpt>
      <trkpt lat="46.1523" lon="6.69383">
        <ele>1510.85</ele>
        <time>2014-06-27T06:40:23Z</time>
      </trkpt>
      <trkpt lat="46.15249" lon="6.69401">
        <ele>1511.33</ele>
        <time>2014-06-27T06:40:28Z</time>
      </trkpt>
      <trkpt lat="46.15269" lon="6.6941">
        <ele>1511.33</ele>
        <time>2014-06-27T06:40:32Z</time>
      </trkpt>
      <trkpt lat="46.15299" lon="6.69416">
        <ele>1507.48</ele>
        <time>2014-06-27T06:40:37Z</time>
      </trkpt>
      <trkpt lat="46.1533" lon="6.69425">
        <ele>1508.45</ele>
        <time>2014-06-27T06:40:47Z</time>
      </trkpt>
      <trkpt lat="46.15349" lon="6.69433">
        <ele>1511.81</ele>
        <time>2014-06-27T06:40:54Z</time>
      </trkpt>
      <trkpt lat="46.15361" lon="6.69435">
        <ele>1515.18</ele>
        <time>2014-06-27T06:40:59Z</time>
      </trkpt>
      <trkpt lat="46.15369" lon="6.69438">
        <ele>1515.66</ele>
        <time>2014-06-27T06:41:03Z</time>
      </trkpt>
      <trkpt lat="46.15411" lon="6.69433">
        <ele>1515.66</ele>
        <time>2014-06-27T06:41:18Z</time>
      </trkpt>
      <trkpt lat="46.15436" lon="6.69428">
        <ele>1515.66</ele>
        <time>2014-06-27T06:41:24Z</time>
      </trkpt>
      <trkpt lat="46.15456" lon="6.69423">
        <ele>1515.66</ele>
        <time>2014-06-27T06:41:29Z</time>
      </trkpt>
      <trkpt lat="46.15468" lon="6.69422">
        <ele>1515.66</ele>
        <time>2014-06-27T06:41:32Z</time>
      </trkpt>
      <trkpt lat="46.15485" lon="6.69424">
        <ele>1515.66</ele>
        <time>2014-06-27T06:41:35Z</time>
      </trkpt>
      <trkpt lat="46.15499" lon="6.69425">
        <ele>1515.66</ele>
        <time>2014-06-27T06:41:37Z</time>
      </trkpt>
      <trkpt lat="46.15527" lon="6.69417">
        <ele>1515.66</ele>
        <time>2014-06-27T06:41:41Z</time>
      </trkpt>
      <trkpt lat="46.15567" lon="6.69388">
        <ele>1514.69</ele>
        <time>2014-06-27T06:41:50Z</time>
      </trkpt>
      <trkpt lat="46.15596" lon="6.69364">
        <ele>1516.14</ele>
        <time>2014-06-27T06:42:03Z</time>
      </trkpt>
      <trkpt lat="46.15625" lon="6.69357">
        <ele>1517.1</ele>
        <time>2014-06-27T06:42:15Z</time>
      </trkpt>
      <trkpt lat="46.15627" lon="6.69356">
        <ele>1518.06</ele>
        <time>2014-06-27T06:42:17Z</time>
      </trkpt>
      <trkpt lat="46.15634" lon="6.69357">
        <ele>1518.54</ele>
        <time>2014-06-27T06:42:21Z</time>
      </trkpt>
      <trkpt lat="46.15643" lon="6.69354">
        <ele>1523.35</ele>
        <time>2014-06-27T06:42:27Z</time>
      </trkpt>
      <trkpt lat="46.15656" lon="6.69353">
        <ele>1523.83</ele>
        <time>2014-06-27T06:42:32Z</time>
      </trkpt>
      <trkpt lat="46.1567" lon="6.69354">
        <ele>1521.9</ele>
        <time>2014-06-27T06:42:35Z</time>
      </trkpt>
      <trkpt lat="46.15687" lon="6.69355">
        <ele>1517.1</ele>
        <time>2014-06-27T06:42:38Z</time>
      </trkpt>
      <trkpt lat="46.15695" lon="6.6935">
        <ele>1512.77</ele>
        <time>2014-06-27T06:42:40Z</time>
      </trkpt>
      <trkpt lat="46.157" lon="6.6934">
        <ele>1508.45</ele>
        <time>2014-06-27T06:42:42Z</time>
      </trkpt>
      <trkpt lat="46.15704" lon="6.69327">
        <ele>1505.08</ele>
        <time>2014-06-27T06:42:44Z</time>
      </trkpt>
      <trkpt lat="46.15719" lon="6.69297">
        <ele>1500.76</ele>
        <time>2014-06-27T06:42:49Z</time>
      </trkpt>
      <trkpt lat="46.15742" lon="6.69288">
        <ele>1498.35</ele>
        <time>2014-06-27T06:42:52Z</time>
      </trkpt>
      <trkpt lat="46.15766" lon="6.69278">
        <ele>1497.39</ele>
        <time>2014-06-27T06:42:55Z</time>
      </trkpt>
      <trkpt lat="46.15793" lon="6.69263">
        <ele>1493.55</ele>
        <time>2014-06-27T06:43:00Z</time>
      </trkpt>
      <trkpt lat="46.15811" lon="6.69261">
        <ele>1489.22</ele>
        <time>2014-06-27T06:43:03Z</time>
      </trkpt>
      <trkpt lat="46.15825" lon="6.69266">
        <ele>1485.85</ele>
        <time>2014-06-27T06:43:05Z</time>
      </trkpt>
      <trkpt lat="46.15831" lon="6.69266">
        <ele>1483.93</ele>
        <time>2014-06-27T06:43:06Z</time>
      </trkpt>
      <trkpt lat="46.15851" lon="6.69264">
        <ele>1481.53</ele>
        <time>2014-06-27T06:43:10Z</time>
      </trkpt>
      <trkpt lat="46.15886" lon="6.69281">
        <ele>1485.37</ele>
        <time>2014-06-27T06:43:16Z</time>
      </trkpt>
      <trkpt lat="46.15891" lon="6.69283">
        <ele>1485.85</ele>
        <time>2014-06-27T06:43:17Z</time>
      </trkpt>
      <trkpt lat="46.15913" lon="6.69305">
        <ele>1487.3</ele>
        <time>2014-06-27T06:43:23Z</time>
      </trkpt>
      <trkpt lat="46.1592" lon="6.69313">
        <ele>1487.3</ele>
        <time>2014-06-27T06:43:28Z</time>
      </trkpt>
      <trkpt lat="46.15929" lon="6.69326">
        <ele>1490.18</ele>
        <time>2014-06-27T06:43:35Z</time>
      </trkpt>
      <trkpt lat="46.15935" lon="6.69334">
        <ele>1495.47</ele>
        <time>2014-06-27T06:43:39Z</time>
      </trkpt>
      <trkpt lat="46.15938" lon="6.69339">
        <ele>1497.87</ele>
        <time>2014-06-27T06:43:41Z</time>
      </trkpt>
      <trkpt lat="46.15973" lon="6.6935">
        <ele>1499.79</ele>
        <time>2014-06-27T06:43:53Z</time>
      </trkpt>
      <trkpt lat="46.15999" lon="6.69357">
        <ele>1498.35</ele>
        <time>2014-06-27T06:44:04Z</time>
      </trkpt>
      <trkpt lat="46.16001" lon="6.69358">
        <ele>1498.35</ele>
        <time>2014-06-27T06:44:06Z</time>
      </trkpt>
      <trkpt lat="46.1601" lon="6.69369">
        <ele>1498.35</ele>
        <time>2014-06-27T06:44:15Z</time>
      </trkpt>
      <trkpt lat="46.16013" lon="6.6938">
        <ele>1499.31</ele>
        <time>2014-06-27T06:44:20Z</time>
      </trkpt>
      <trkpt lat="46.16027" lon="6.69403">
        <ele>1502.68</ele>
        <time>2014-06-27T06:44:34Z</time>
      </trkpt>
      <trkpt lat="46.16028" lon="6.69404">
        <ele>1502.68</ele>
        <time>2014-06-27T06:44:35Z</time>
      </trkpt>
      <trkpt lat="46.16036" lon="6.69414">
        <ele>1505.56</ele>
        <time>2014-06-27T06:44:42Z</time>
      </trkpt>
      <trkpt lat="46.1604" lon="6.6942">
        <ele>1508.45</ele>
        <time>2014-06-27T06:44:46Z</time>
      </trkpt>
      <trkpt lat="46.16044" lon="6.6943">
        <ele>1509.89</ele>
        <time>2014-06-27T06:44:52Z</time>
      </trkpt>
      <trkpt lat="46.16052" lon="6.69451">
        <ele>1510.85</ele>
        <time>2014-06-27T06:45:05Z</time>
      </trkpt>
      <trkpt lat="46.16055" lon="6.69455">
        <ele>1511.33</ele>
        <time>2014-06-27T06:45:08Z</time>
      </trkpt>
      <trkpt lat="46.16057" lon="6.69458">
        <ele>1512.29</ele>
        <time>2014-06-27T06:45:10Z</time>
      </trkpt>
      <trkpt lat="46.16064" lon="6.69475">
        <ele>1515.18</ele>
        <time>2014-06-27T06:45:23Z</time>
      </trkpt>
      <trkpt lat="46.16066" lon="6.69477">
        <ele>1515.66</ele>
        <time>2014-06-27T06:45:26Z</time>
      </trkpt>
      <trkpt lat="46.1607" lon="6.69476">
        <ele>1517.58</ele>
        <time>2014-06-27T06:45:33Z</time>
      </trkpt>
      <trkpt lat="46.16071" lon="6.69471">
        <ele>1518.06</ele>
        <time>2014-06-27T06:45:36Z</time>
      </trkpt>
      <trkpt lat="46.16074" lon="6.69461">
        <ele>1522.39</ele>
        <time>2014-06-27T06:45:43Z</time>
      </trkpt>
      <trkpt lat="46.16074" lon="6.6946">
        <ele>1523.35</ele>
        <time>2014-06-27T06:45:44Z</time>
      </trkpt>
      <trkpt lat="46.16073" lon="6.69452">
        <ele>1525.75</ele>
        <time>2014-06-27T06:45:49Z</time>
      </trkpt>
      <trkpt lat="46.16075" lon="6.69451">
        <ele>1525.75</ele>
        <time>2014-06-27T06:45:51Z</time>
      </trkpt>
      <trkpt lat="46.16089" lon="6.69457">
        <ele>1526.23</ele>
        <time>2014-06-27T06:46:05Z</time>
      </trkpt>
      <trkpt lat="46.16092" lon="6.6946">
        <ele>1526.23</ele>
        <time>2014-06-27T06:46:08Z</time>
      </trkpt>
      <trkpt lat="46.16097" lon="6.6946">
        <ele>1526.71</ele>
        <time>2014-06-27T06:46:12Z</time>
      </trkpt>
      <trkpt lat="46.16115" lon="6.69462">
        <ele>1530.08</ele>
        <time>2014-06-27T06:46:27Z</time>
      </trkpt>
      <trkpt lat="46.16119" lon="6.69463">
        <ele>1530.56</ele>
        <time>2014-06-27T06:46:30Z</time>
      </trkpt>
      <trkpt lat="46.16132" lon="6.69469">
        <ele>1532.96</ele>
        <time>2014-06-27T06:46:41Z</time>
      </trkpt>
      <trkpt lat="46.16136" lon="6.69468">
        <ele>1533.92</ele>
        <time>2014-06-27T06:46:45Z</time>
      </trkpt>
      <trkpt lat="46.16151" lon="6.69471">
        <ele>1536.8</ele>
        <time>2014-06-27T06:46:57Z</time>
      </trkpt>
      <trkpt lat="46.16158" lon="6.69475">
        <ele>1537.77</ele>
        <time>2014-06-27T06:47:02Z</time>
      </trkpt>
      <trkpt lat="46.16165" lon="6.69481">
        <ele>1541.61</ele>
        <time>2014-06-27T06:47:07Z</time>
      </trkpt>
      <trkpt lat="46.16167" lon="6.69484">
        <ele>1543.53</ele>
        <time>2014-06-27T06:47:09Z</time>
      </trkpt>
      <trkpt lat="46.16184" lon="6.69494">
        <ele>1544.01</ele>
        <time>2014-06-27T06:47:24Z</time>
      </trkpt>
      <trkpt lat="46.16203" lon="6.69491">
        <ele>1544.01</ele>
        <time>2014-06-27T06:47:35Z</time>
      </trkpt>
      <trkpt lat="46.16233" lon="6.69471">
        <ele>1544.5</ele>
        <time>2014-06-27T06:47:48Z</time>
      </trkpt>
      <trkpt lat="46.16266" lon="6.6945">
        <ele>1543.05</ele>
        <time>2014-06-27T06:48:00Z</time>
      </trkpt>
      <trkpt lat="46.16266" lon="6.69449">
        <ele>1543.05</ele>
        <time>2014-06-27T06:48:14Z</time>
      </trkpt>
      <trkpt lat="46.16266" lon="6.69449">
        <ele>1543.05</ele>
        <time>2014-06-27T06:48:38Z</time>
      </trkpt>
      <trkpt lat="46.16267" lon="6.6945">
        <ele>1543.05</ele>
        <time>2014-06-27T06:49:11Z</time>
      </trkpt>
      <trkpt lat="46.16266" lon="6.6945">
        <ele>1543.05</ele>
        <time>2014-06-27T06:49:31Z</time>
      </trkpt>
      <trkpt lat="46.16276" lon="6.69436">
        <ele>1542.57</ele>
        <time>2014-06-27T06:49:44Z</time>
      </trkpt>
      <trkpt lat="46.16295" lon="6.6941">
        <ele>1541.61</ele>
        <time>2014-06-27T06:49:50Z</time>
      </trkpt>
      <trkpt lat="46.16307" lon="6.6939">
        <ele>1542.09</ele>
        <time>2014-06-27T06:49:54Z</time>
      </trkpt>
      <trkpt lat="46.16319" lon="6.69378">
        <ele>1541.61</ele>
        <time>2014-06-27T06:49:57Z</time>
      </trkpt>
      <trkpt lat="46.16366" lon="6.69348">
        <ele>1539.69</ele>
        <time>2014-06-27T06:50:05Z</time>
      </trkpt>
      <trkpt lat="46.1641" lon="6.6932">
        <ele>1536.8</ele>
        <time>2014-06-27T06:50:12Z</time>
      </trkpt>
      <trkpt lat="46.1642" lon="6.69315">
        <ele>1534.4</ele>
        <time>2014-06-27T06:50:14Z</time>
      </trkpt>
      <trkpt lat="46.16423" lon="6.69312">
        <ele>1531.52</ele>
        <time>2014-06-27T06:50:17Z</time>
      </trkpt>
      <trkpt lat="46.16416" lon="6.69318">
        <ele>1530.56</ele>
        <time>2014-06-27T06:50:22Z</time>
      </trkpt>
      <trkpt lat="46.1643" lon="6.69324">
        <ele>1530.56</ele>
        <time>2014-06-27T06:50:27Z</time>
      </trkpt>
      <trkpt lat="46.16443" lon="6.69326">
        <ele>1530.56</ele>
        <time>2014-06-27T06:50:29Z</time>
      </trkpt>
      <trkpt lat="46.16473" lon="6.69329">
        <ele>1525.75</ele>
        <time>2014-06-27T06:50:33Z</time>
      </trkpt>
      <trkpt lat="46.16491" lon="6.69332">
        <ele>1521.42</ele>
        <time>2014-06-27T06:50:35Z</time>
      </trkpt>
      <trkpt lat="46.16509" lon="6.69336">
        <ele>1516.62</ele>
        <time>2014-06-27T06:50:37Z</time>
      </trkpt>
      <trkpt lat="46.16526" lon="6.6934">
        <ele>1511.81</ele>
        <time>2014-06-27T06:50:39Z</time>
      </trkpt>
      <trkpt lat="46.16542" lon="6.69346">
        <ele>1507.48</ele>
        <time>2014-06-27T06:50:41Z</time>
      </trkpt>
      <trkpt lat="46.16557" lon="6.69348">
        <ele>1506.52</ele>
        <time>2014-06-27T06:50:43Z</time>
      </trkpt>
      <trkpt lat="46.16619" lon="6.69353">
        <ele>1505.56</ele>
        <time>2014-06-27T06:50:52Z</time>
      </trkpt>
      <trkpt lat="46.16648" lon="6.69354">
        <ele>1500.76</ele>
        <time>2014-06-27T06:50:56Z</time>
      </trkpt>
      <trkpt lat="46.1666" lon="6.69355">
        <ele>1496.91</ele>
        <time>2014-06-27T06:50:58Z</time>
      </trkpt>
      <trkpt lat="46.16673" lon="6.69356">
        <ele>1493.06</ele>
        <time>2014-06-27T06:51:00Z</time>
      </trkpt>
      <trkpt lat="46.16685" lon="6.69356">
        <ele>1488.74</ele>
        <time>2014-06-27T06:51:02Z</time>
      </trkpt>
      <trkpt lat="46.16707" lon="6.69355">
        <ele>1483.45</ele>
        <time>2014-06-27T06:51:05Z</time>
      </trkpt>
      <trkpt lat="46.16729" lon="6.69359">
        <ele>1480.57</ele>
        <time>2014-06-27T06:51:08Z</time>
      </trkpt>
      <trkpt lat="46.16798" lon="6.69367">
        <ele>1478.65</ele>
        <time>2014-06-27T06:51:18Z</time>
      </trkpt>
      <trkpt lat="46.16827" lon="6.69372">
        <ele>1475.28</ele>
        <time>2014-06-27T06:51:22Z</time>
      </trkpt>
      <trkpt lat="46.16842" lon="6.69375">
        <ele>1471.92</ele>
        <time>2014-06-27T06:51:24Z</time>
      </trkpt>
      <trkpt lat="46.16858" lon="6.69377">
        <ele>1468.07</ele>
        <time>2014-06-27T06:51:26Z</time>
      </trkpt>
      <trkpt lat="46.16874" lon="6.69379">
        <ele>1464.71</ele>
        <time>2014-06-27T06:51:28Z</time>
      </trkpt>
      <trkpt lat="46.16896" lon="6.69382">
        <ele>1460.38</ele>
        <time>2014-06-27T06:51:31Z</time>
      </trkpt>
      <trkpt lat="46.16909" lon="6.69381">
        <ele>1458.46</ele>
        <time>2014-06-27T06:51:33Z</time>
      </trkpt>
      <trkpt lat="46.16954" lon="6.69398">
        <ele>1454.61</ele>
        <time>2014-06-27T06:51:41Z</time>
      </trkpt>
      <trkpt lat="46.1697" lon="6.69405">
        <ele>1451.25</ele>
        <time>2014-06-27T06:51:44Z</time>
      </trkpt>
      <trkpt lat="46.16982" lon="6.69412">
        <ele>1446.44</ele>
        <time>2014-06-27T06:51:47Z</time>
      </trkpt>
      <trkpt lat="46.16987" lon="6.69415">
        <ele>1443.56</ele>
        <time>2014-06-27T06:51:49Z</time>
      </trkpt>
      <trkpt lat="46.16988" lon="6.69416">
        <ele>1442.11</ele>
        <time>2014-06-27T06:51:50Z</time>
      </trkpt>
      <trkpt lat="46.16989" lon="6.69417">
        <ele>1444.52</ele>
        <time>2014-06-27T06:52:00Z</time>
      </trkpt>
      <trkpt lat="46.16989" lon="6.69417">
        <ele>1446.44</ele>
        <time>2014-06-27T06:52:03Z</time>
      </trkpt>
      <trkpt lat="46.16989" lon="6.69417">
        <ele>1446.92</ele>
        <time>2014-06-27T06:52:05Z</time>
      </trkpt>
      <trkpt lat="46.16974" lon="6.69429">
        <ele>1445</ele>
        <time>2014-06-27T06:52:11Z</time>
      </trkpt>
      <trkpt lat="46.16942" lon="6.69444">
        <ele>1440.67</ele>
        <time>2014-06-27T06:52:16Z</time>
      </trkpt>
      <trkpt lat="46.16919" lon="6.69452">
        <ele>1437.31</ele>
        <time>2014-06-27T06:52:19Z</time>
      </trkpt>
      <trkpt lat="46.16896" lon="6.69457">
        <ele>1433.94</ele>
        <time>2014-06-27T06:52:22Z</time>
      </trkpt>
      <trkpt lat="46.16888" lon="6.69458">
        <ele>1432.98</ele>
        <time>2014-06-27T06:52:23Z</time>
      </trkpt>
      <trkpt lat="46.16855" lon="6.6947">
        <ele>1427.7</ele>
        <time>2014-06-27T06:52:27Z</time>
      </trkpt>
      <trkpt lat="46.16839" lon="6.69475">
        <ele>1424.81</ele>
        <time>2014-06-27T06:52:29Z</time>
      </trkpt>
      <trkpt lat="46.16824" lon="6.69479">
        <ele>1421.93</ele>
        <time>2014-06-27T06:52:31Z</time>
      </trkpt>
      <trkpt lat="46.16793" lon="6.69489">
        <ele>1417.12</ele>
        <time>2014-06-27T06:52:35Z</time>
      </trkpt>
      <trkpt lat="46.16782" lon="6.69494">
        <ele>1414.72</ele>
        <time>2014-06-27T06:52:37Z</time>
      </trkpt>
      <trkpt lat="46.1675" lon="6.6951">
        <ele>1410.39</ele>
        <time>2014-06-27T06:52:42Z</time>
      </trkpt>
      <trkpt lat="46.16718" lon="6.69525">
        <ele>1407.03</ele>
        <time>2014-06-27T06:52:47Z</time>
      </trkpt>
      <trkpt lat="46.16683" lon="6.69544">
        <ele>1403.66</ele>
        <time>2014-06-27T06:52:52Z</time>
      </trkpt>
      <trkpt lat="46.16653" lon="6.69557">
        <ele>1400.3</ele>
        <time>2014-06-27T06:52:56Z</time>
      </trkpt>
      <trkpt lat="46.16626" lon="6.69566">
        <ele>1398.37</ele>
        <time>2014-06-27T06:52:59Z</time>
      </trkpt>
      <trkpt lat="46.16605" lon="6.69572">
        <ele>1395.49</ele>
        <time>2014-06-27T06:53:02Z</time>
      </trkpt>
      <trkpt lat="46.16599" lon="6.69588">
        <ele>1390.2</ele>
        <time>2014-06-27T06:53:06Z</time>
      </trkpt>
      <trkpt lat="46.16608" lon="6.69593">
        <ele>1387.8</ele>
        <time>2014-06-27T06:53:08Z</time>
      </trkpt>
      <trkpt lat="46.16629" lon="6.69602">
        <ele>1383.96</ele>
        <time>2014-06-27T06:53:11Z</time>
      </trkpt>
      <trkpt lat="46.16656" lon="6.69617">
        <ele>1378.19</ele>
        <time>2014-06-27T06:53:15Z</time>
      </trkpt>
      <trkpt lat="46.1667" lon="6.69622">
        <ele>1373.86</ele>
        <time>2014-06-27T06:53:18Z</time>
      </trkpt>
      <trkpt lat="46.16682" lon="6.69628">
        <ele>1371.46</ele>
        <time>2014-06-27T06:53:20Z</time>
      </trkpt>
      <trkpt lat="46.16701" lon="6.69635">
        <ele>1368.57</ele>
        <time>2014-06-27T06:53:23Z</time>
      </trkpt>
      <trkpt lat="46.1672" lon="6.69637">
        <ele>1365.21</ele>
        <time>2014-06-27T06:53:26Z</time>
      </trkpt>
      <trkpt lat="46.16739" lon="6.69642">
        <ele>1360.4</ele>
        <time>2014-06-27T06:53:29Z</time>
      </trkpt>
      <trkpt lat="46.16746" lon="6.69644">
        <ele>1358.48</ele>
        <time>2014-06-27T06:53:30Z</time>
      </trkpt>
      <trkpt lat="46.16764" lon="6.69648">
        <ele>1353.19</ele>
        <time>2014-06-27T06:53:33Z</time>
      </trkpt>
      <trkpt lat="46.16776" lon="6.69647">
        <ele>1350.31</ele>
        <time>2014-06-27T06:53:35Z</time>
      </trkpt>
      <trkpt lat="46.16788" lon="6.69644">
        <ele>1348.87</ele>
        <time>2014-06-27T06:53:37Z</time>
      </trkpt>
      <trkpt lat="46.16815" lon="6.69652">
        <ele>1348.87</ele>
        <time>2014-06-27T06:53:42Z</time>
      </trkpt>
      <trkpt lat="46.16835" lon="6.69672">
        <ele>1347.91</ele>
        <time>2014-06-27T06:53:46Z</time>
      </trkpt>
      <trkpt lat="46.16848" lon="6.69697">
        <ele>1344.06</ele>
        <time>2014-06-27T06:53:50Z</time>
      </trkpt>
      <trkpt lat="46.16862" lon="6.69715">
        <ele>1338.29</ele>
        <time>2014-06-27T06:53:54Z</time>
      </trkpt>
      <trkpt lat="46.16878" lon="6.69717">
        <ele>1334.93</ele>
        <time>2014-06-27T06:53:57Z</time>
      </trkpt>
      <trkpt lat="46.16888" lon="6.6972">
        <ele>1333.49</ele>
        <time>2014-06-27T06:53:59Z</time>
      </trkpt>
      <trkpt lat="46.16953" lon="6.69754">
        <ele>1331.08</ele>
        <time>2014-06-27T06:54:10Z</time>
      </trkpt>
      <trkpt lat="46.16993" lon="6.69771">
        <ele>1326.76</ele>
        <time>2014-06-27T06:54:16Z</time>
      </trkpt>
      <trkpt lat="46.17014" lon="6.69782">
        <ele>1323.39</ele>
        <time>2014-06-27T06:54:19Z</time>
      </trkpt>
      <trkpt lat="46.17027" lon="6.69791">
        <ele>1320.03</ele>
        <time>2014-06-27T06:54:21Z</time>
      </trkpt>
      <trkpt lat="46.17043" lon="6.69797">
        <ele>1314.74</ele>
        <time>2014-06-27T06:54:24Z</time>
      </trkpt>
      <trkpt lat="46.17057" lon="6.69795">
        <ele>1311.38</ele>
        <time>2014-06-27T06:54:27Z</time>
      </trkpt>
      <trkpt lat="46.17108" lon="6.69787">
        <ele>1309.45</ele>
        <time>2014-06-27T06:54:34Z</time>
      </trkpt>
      <trkpt lat="46.17136" lon="6.69774">
        <ele>1304.65</ele>
        <time>2014-06-27T06:54:38Z</time>
      </trkpt>
      <trkpt lat="46.17168" lon="6.69742">
        <ele>1302.24</ele>
        <time>2014-06-27T06:54:44Z</time>
      </trkpt>
      <trkpt lat="46.17192" lon="6.69727">
        <ele>1305.61</ele>
        <time>2014-06-27T06:54:49Z</time>
      </trkpt>
      <trkpt lat="46.17209" lon="6.69719">
        <ele>1308.97</ele>
        <time>2014-06-27T06:54:53Z</time>
      </trkpt>
      <trkpt lat="46.17252" lon="6.69697">
        <ele>1308.49</ele>
        <time>2014-06-27T06:55:05Z</time>
      </trkpt>
      <trkpt lat="46.1727" lon="6.69674">
        <ele>1308.49</ele>
        <time>2014-06-27T06:55:11Z</time>
      </trkpt>
      <trkpt lat="46.173" lon="6.69632">
        <ele>1306.57</ele>
        <time>2014-06-27T06:55:20Z</time>
      </trkpt>
      <trkpt lat="46.17317" lon="6.69592">
        <ele>1301.28</ele>
        <time>2014-06-27T06:55:25Z</time>
      </trkpt>
      <trkpt lat="46.17321" lon="6.69584">
        <ele>1300.8</ele>
        <time>2014-06-27T06:55:26Z</time>
      </trkpt>
      <trkpt lat="46.17348" lon="6.69542">
        <ele>1299.84</ele>
        <time>2014-06-27T06:55:37Z</time>
      </trkpt>
      <trkpt lat="46.17356" lon="6.69532">
        <ele>1300.8</ele>
        <time>2014-06-27T06:55:42Z</time>
      </trkpt>
      <trkpt lat="46.17384" lon="6.69498">
        <ele>1301.76</ele>
        <time>2014-06-27T06:55:55Z</time>
      </trkpt>
      <trkpt lat="46.17411" lon="6.69449">
        <ele>1302.24</ele>
        <time>2014-06-27T06:56:08Z</time>
      </trkpt>
      <trkpt lat="46.17434" lon="6.69403">
        <ele>1302.24</ele>
        <time>2014-06-27T06:56:21Z</time>
      </trkpt>
      <trkpt lat="46.17442" lon="6.6939">
        <ele>1302.24</ele>
        <time>2014-06-27T06:56:24Z</time>
      </trkpt>
      <trkpt lat="46.17468" lon="6.69364">
        <ele>1300.8</ele>
        <time>2014-06-27T06:56:30Z</time>
      </trkpt>
      <trkpt lat="46.17487" lon="6.6936">
        <ele>1300.8</ele>
        <time>2014-06-27T06:56:33Z</time>
      </trkpt>
      <trkpt lat="46.17499" lon="6.6936">
        <ele>1299.84</ele>
        <time>2014-06-27T06:56:35Z</time>
      </trkpt>
      <trkpt lat="46.17532" lon="6.6937">
        <ele>1298.88</ele>
        <time>2014-06-27T06:56:41Z</time>
      </trkpt>
      <trkpt lat="46.17595" lon="6.69359">
        <ele>1297.44</ele>
        <time>2014-06-27T06:56:52Z</time>
      </trkpt>
      <trkpt lat="46.17614" lon="6.69347">
        <ele>1295.03</ele>
        <time>2014-06-27T06:56:55Z</time>
      </trkpt>
      <trkpt lat="46.17638" lon="6.69322">
        <ele>1291.19</ele>
        <time>2014-06-27T06:56:59Z</time>
      </trkpt>
      <trkpt lat="46.17647" lon="6.69293">
        <ele>1287.82</ele>
        <time>2014-06-27T06:57:02Z</time>
      </trkpt>
      <trkpt lat="46.17647" lon="6.69282">
        <ele>1286.86</ele>
        <time>2014-06-27T06:57:03Z</time>
      </trkpt>
      <trkpt lat="46.17671" lon="6.69233">
        <ele>1283.02</ele>
        <time>2014-06-27T06:57:10Z</time>
      </trkpt>
      <trkpt lat="46.1769" lon="6.69275">
        <ele>1281.57</ele>
        <time>2014-06-27T06:57:15Z</time>
      </trkpt>
      <trkpt lat="46.17701" lon="6.69309">
        <ele>1278.69</ele>
        <time>2014-06-27T06:57:21Z</time>
      </trkpt>
      <trkpt lat="46.17711" lon="6.69318">
        <ele>1277.73</ele>
        <time>2014-06-27T06:57:23Z</time>
      </trkpt>
      <trkpt lat="46.17731" lon="6.69321">
        <ele>1273.88</ele>
        <time>2014-06-27T06:57:27Z</time>
      </trkpt>
      <trkpt lat="46.17736" lon="6.69317">
        <ele>1272.44</ele>
        <time>2014-06-27T06:57:28Z</time>
      </trkpt>
      <trkpt lat="46.17757" lon="6.69297">
        <ele>1268.12</ele>
        <time>2014-06-27T06:57:32Z</time>
      </trkpt>
      <trkpt lat="46.17795" lon="6.69262">
        <ele>1266.19</ele>
        <time>2014-06-27T06:57:39Z</time>
      </trkpt>
      <trkpt lat="46.1783" lon="6.69221">
        <ele>1265.71</ele>
        <time>2014-06-27T06:57:49Z</time>
      </trkpt>
      <trkpt lat="46.1786" lon="6.69164">
        <ele>1262.83</ele>
        <time>2014-06-27T06:58:00Z</time>
      </trkpt>
      <trkpt lat="46.17872" lon="6.69128">
        <ele>1258.98</ele>
        <time>2014-06-27T06:58:04Z</time>
      </trkpt>
      <trkpt lat="46.17875" lon="6.69119">
        <ele>1257.54</ele>
        <time>2014-06-27T06:58:05Z</time>
      </trkpt>
      <trkpt lat="46.17876" lon="6.69079">
        <ele>1252.74</ele>
        <time>2014-06-27T06:58:09Z</time>
      </trkpt>
      <trkpt lat="46.17874" lon="6.6906">
        <ele>1251.29</ele>
        <time>2014-06-27T06:58:11Z</time>
      </trkpt>
      <trkpt lat="46.17863" lon="6.69024">
        <ele>1250.81</ele>
        <time>2014-06-27T06:58:15Z</time>
      </trkpt>
      <trkpt lat="46.17851" lon="6.69001">
        <ele>1250.33</ele>
        <time>2014-06-27T06:58:18Z</time>
      </trkpt>
      <trkpt lat="46.17858" lon="6.68979">
        <ele>1249.85</ele>
        <time>2014-06-27T06:58:23Z</time>
      </trkpt>
      <trkpt lat="46.17862" lon="6.68983">
        <ele>1249.85</ele>
        <time>2014-06-27T06:58:24Z</time>
      </trkpt>
      <trkpt lat="46.17873" lon="6.68999">
        <ele>1249.37</ele>
        <time>2014-06-27T06:58:27Z</time>
      </trkpt>
      <trkpt lat="46.17891" lon="6.69019">
        <ele>1246.49</ele>
        <time>2014-06-27T06:58:32Z</time>
      </trkpt>
      <trkpt lat="46.1791" lon="6.69039">
        <ele>1242.64</ele>
        <time>2014-06-27T06:58:36Z</time>
      </trkpt>
      <trkpt lat="46.17923" lon="6.69048">
        <ele>1238.8</ele>
        <time>2014-06-27T06:58:40Z</time>
      </trkpt>
      <trkpt lat="46.1793" lon="6.6905">
        <ele>1238.8</ele>
        <time>2014-06-27T06:58:42Z</time>
      </trkpt>
      <trkpt lat="46.17954" lon="6.69061">
        <ele>1234.95</ele>
        <time>2014-06-27T06:58:48Z</time>
      </trkpt>
      <trkpt lat="46.17966" lon="6.69069">
        <ele>1231.11</ele>
        <time>2014-06-27T06:58:52Z</time>
      </trkpt>
      <trkpt lat="46.17971" lon="6.69069">
        <ele>1230.14</ele>
        <time>2014-06-27T06:58:53Z</time>
      </trkpt>
      <trkpt lat="46.18005" lon="6.69073">
        <ele>1224.38</ele>
        <time>2014-06-27T06:58:59Z</time>
      </trkpt>
      <trkpt lat="46.18009" lon="6.69074">
        <ele>1223.42</ele>
        <time>2014-06-27T06:59:00Z</time>
      </trkpt>
      <trkpt lat="46.18059" lon="6.69035">
        <ele>1220.05</ele>
        <time>2014-06-27T06:59:10Z</time>
      </trkpt>
      <trkpt lat="46.18091" lon="6.69002">
        <ele>1216.21</ele>
        <time>2014-06-27T06:59:16Z</time>
      </trkpt>
      <trkpt lat="46.18108" lon="6.68991">
        <ele>1211.88</ele>
        <time>2014-06-27T06:59:21Z</time>
      </trkpt>
      <trkpt lat="46.18126" lon="6.68979">
        <ele>1210.44</ele>
        <time>2014-06-27T06:59:27Z</time>
      </trkpt>
      <trkpt lat="46.18134" lon="6.68969">
        <ele>1206.59</ele>
        <time>2014-06-27T06:59:30Z</time>
      </trkpt>
      <trkpt lat="46.18144" lon="6.68949">
        <ele>1201.79</ele>
        <time>2014-06-27T06:59:34Z</time>
      </trkpt>
      <trkpt lat="46.18156" lon="6.68931">
        <ele>1196.98</ele>
        <time>2014-06-27T06:59:38Z</time>
      </trkpt>
      <trkpt lat="46.18165" lon="6.68918">
        <ele>1192.65</ele>
        <time>2014-06-27T06:59:41Z</time>
      </trkpt>
      <trkpt lat="46.18168" lon="6.68915">
        <ele>1191.69</ele>
        <time>2014-06-27T06:59:42Z</time>
      </trkpt>
      <trkpt lat="46.18186" lon="6.68897">
        <ele>1186.4</ele>
        <time>2014-06-27T06:59:46Z</time>
      </trkpt>
      <trkpt lat="46.18203" lon="6.68878">
        <ele>1182.08</ele>
        <time>2014-06-27T06:59:49Z</time>
      </trkpt>
      <trkpt lat="46.18227" lon="6.6886">
        <ele>1176.79</ele>
        <time>2014-06-27T06:59:53Z</time>
      </trkpt>
      <trkpt lat="46.1825" lon="6.6883">
        <ele>1174.87</ele>
        <time>2014-06-27T06:59:58Z</time>
      </trkpt>
      <trkpt lat="46.18348" lon="6.68746">
        <ele>1174.39</ele>
        <time>2014-06-27T07:00:17Z</time>
      </trkpt>
      <trkpt lat="46.18425" lon="6.68684">
        <ele>1174.39</ele>
        <time>2014-06-27T07:00:34Z</time>
      </trkpt>
      <trkpt lat="46.18481" lon="6.68645">
        <ele>1173.91</ele>
        <time>2014-06-27T07:00:48Z</time>
      </trkpt>
      <trkpt lat="46.1854" lon="6.68609">
        <ele>1170.54</ele>
        <time>2014-06-27T07:00:59Z</time>
      </trkpt>
      <trkpt lat="46.18572" lon="6.68601">
        <ele>1166.7</ele>
        <time>2014-06-27T07:01:03Z</time>
      </trkpt>
      <trkpt lat="46.18693" lon="6.6861">
        <ele>1163.33</ele>
        <time>2014-06-27T07:01:18Z</time>
      </trkpt>
      <trkpt lat="46.18701" lon="6.68611">
        <ele>1163.33</ele>
        <time>2014-06-27T07:01:19Z</time>
      </trkpt>
      <trkpt lat="46.18718" lon="6.68592">
        <ele>1160.93</ele>
        <time>2014-06-27T07:01:24Z</time>
      </trkpt>
      <trkpt lat="46.18699" lon="6.68572">
        <ele>1157.08</ele>
        <time>2014-06-27T07:01:28Z</time>
      </trkpt>
      <trkpt lat="46.18648" lon="6.68532">
        <ele>1153.24</ele>
        <time>2014-06-27T07:01:35Z</time>
      </trkpt>
      <trkpt lat="46.18572" lon="6.68462">
        <ele>1149.39</ele>
        <time>2014-06-27T07:01:44Z</time>
      </trkpt>
      <trkpt lat="46.18556" lon="6.68446">
        <ele>1148.43</ele>
        <time>2014-06-27T07:01:46Z</time>
      </trkpt>
      <trkpt lat="46.18549" lon="6.68438">
        <ele>1147.95</ele>
        <time>2014-06-27T07:01:47Z</time>
      </trkpt>
      <trkpt lat="46.18488" lon="6.68393">
        <ele>1144.11</ele>
        <time>2014-06-27T07:01:56Z</time>
      </trkpt>
      <trkpt lat="46.18451" lon="6.68365">
        <ele>1141.7</ele>
        <time>2014-06-27T07:02:05Z</time>
      </trkpt>
      <trkpt lat="46.18448" lon="6.68358">
        <ele>1141.22</ele>
        <time>2014-06-27T07:02:10Z</time>
      </trkpt>
      <trkpt lat="46.18443" lon="6.68358">
        <ele>1141.22</ele>
        <time>2014-06-27T07:02:13Z</time>
      </trkpt>
      <trkpt lat="46.18448" lon="6.6837">
        <ele>1141.22</ele>
        <time>2014-06-27T07:02:21Z</time>
      </trkpt>
      <trkpt lat="46.18448" lon="6.6837">
        <ele>1141.22</ele>
        <time>2014-06-27T07:02:22Z</time>
      </trkpt>
      <trkpt lat="46.18451" lon="6.68369">
        <ele>1141.22</ele>
        <time>2014-06-27T07:02:26Z</time>
      </trkpt>
      <trkpt lat="46.18448" lon="6.68366">
        <ele>1141.22</ele>
        <time>2014-06-27T07:02:32Z</time>
      </trkpt>
      <trkpt lat="46.18446" lon="6.6837">
        <ele>1141.22</ele>
        <time>2014-06-27T07:02:41Z</time>
      </trkpt>
      <trkpt lat="46.18451" lon="6.68372">
        <ele>1141.22</ele>
        <time>2014-06-27T07:02:46Z</time>
      </trkpt>
      <trkpt lat="46.18458" lon="6.68373">
        <ele>1141.22</ele>
        <time>2014-06-27T07:02:57Z</time>
      </trkpt>
      <trkpt lat="46.18475" lon="6.68386">
        <ele>1142.18</ele>
        <time>2014-06-27T07:03:13Z</time>
      </trkpt>
      <trkpt lat="46.1853" lon="6.68423">
        <ele>1144.59</ele>
        <time>2014-06-27T07:03:29Z</time>
      </trkpt>
      <trkpt lat="46.1858" lon="6.6847">
        <ele>1146.51</ele>
        <time>2014-06-27T07:03:42Z</time>
      </trkpt>
      <trkpt lat="46.18635" lon="6.68519">
        <ele>1148.91</ele>
        <time>2014-06-27T07:03:57Z</time>
      </trkpt>
      <trkpt lat="46.18654" lon="6.68535">
        <ele>1151.8</ele>
        <time>2014-06-27T07:04:04Z</time>
      </trkpt>
      <trkpt lat="46.18665" lon="6.68544">
        <ele>1155.16</ele>
        <time>2014-06-27T07:04:09Z</time>
      </trkpt>
      <trkpt lat="46.18676" lon="6.68553">
        <ele>1156.12</ele>
        <time>2014-06-27T07:04:14Z</time>
      </trkpt>
      <trkpt lat="46.18693" lon="6.68567">
        <ele>1156.12</ele>
        <time>2014-06-27T07:04:22Z</time>
      </trkpt>
      <trkpt lat="46.18717" lon="6.68597">
        <ele>1157.56</ele>
        <time>2014-06-27T07:04:34Z</time>
      </trkpt>
      <trkpt lat="46.18715" lon="6.68607">
        <ele>1158.53</ele>
        <time>2014-06-27T07:04:42Z</time>
      </trkpt>
      <trkpt lat="46.18696" lon="6.68608">
        <ele>1159.97</ele>
        <time>2014-06-27T07:04:56Z</time>
      </trkpt>
      <trkpt lat="46.18691" lon="6.68606">
        <ele>1159.97</ele>
        <time>2014-06-27T07:04:59Z</time>
      </trkpt>
      <trkpt lat="46.18704" lon="6.68609">
        <ele>1160.93</ele>
        <time>2014-06-27T07:05:07Z</time>
      </trkpt>
      <trkpt lat="46.18715" lon="6.68606">
        <ele>1160.93</ele>
        <time>2014-06-27T07:05:10Z</time>
      </trkpt>
      <trkpt lat="46.18721" lon="6.68602">
        <ele>1160.93</ele>
        <time>2014-06-27T07:05:18Z</time>
      </trkpt>
      <trkpt lat="46.18714" lon="6.68606">
        <ele>1159.49</ele>
        <time>2014-06-27T07:05:23Z</time>
      </trkpt>
      <trkpt lat="46.18711" lon="6.68608">
        <ele>1159.49</ele>
        <time>2014-06-27T07:05:25Z</time>
      </trkpt>
      <trkpt lat="46.18672" lon="6.68606">
        <ele>1161.41</ele>
        <time>2014-06-27T07:05:39Z</time>
      </trkpt>
      <trkpt lat="46.18621" lon="6.68603">
        <ele>1163.33</ele>
        <time>2014-06-27T07:05:53Z</time>
      </trkpt>
      <trkpt lat="46.1856" lon="6.686">
        <ele>1164.77</ele>
        <time>2014-06-27T07:06:10Z</time>
      </trkpt>
      <trkpt lat="46.18524" lon="6.68614">
        <ele>1167.18</ele>
        <time>2014-06-27T07:06:24Z</time>
      </trkpt>
      <trkpt lat="46.18491" lon="6.68634">
        <ele>1169.58</ele>
        <time>2014-06-27T07:06:37Z</time>
      </trkpt>
      <trkpt lat="46.18438" lon="6.6867">
        <ele>1171.98</ele>
        <time>2014-06-27T07:06:55Z</time>
      </trkpt>
      <trkpt lat="46.18394" lon="6.68705">
        <ele>1172.95</ele>
        <time>2014-06-27T07:07:08Z</time>
      </trkpt>
      <trkpt lat="46.18333" lon="6.68755">
        <ele>1173.43</ele>
        <time>2014-06-27T07:07:24Z</time>
      </trkpt>
      <trkpt lat="46.18267" lon="6.68809">
        <ele>1174.87</ele>
        <time>2014-06-27T07:07:41Z</time>
      </trkpt>
      <trkpt lat="46.18239" lon="6.68847">
        <ele>1175.35</ele>
        <time>2014-06-27T07:07:53Z</time>
      </trkpt>
      <trkpt lat="46.18247" lon="6.68855">
        <ele>1175.83</ele>
        <time>2014-06-27T07:07:58Z</time>
      </trkpt>
      <trkpt lat="46.18283" lon="6.68869">
        <ele>1176.31</ele>
        <time>2014-06-27T07:08:12Z</time>
      </trkpt>
      <trkpt lat="46.18306" lon="6.6889">
        <ele>1176.31</ele>
        <time>2014-06-27T07:08:19Z</time>
      </trkpt>
      <trkpt lat="46.18326" lon="6.68889">
        <ele>1172.47</ele>
        <time>2014-06-27T07:08:25Z</time>
      </trkpt>
      <trkpt lat="46.18335" lon="6.68877">
        <ele>1170.06</ele>
        <time>2014-06-27T07:08:27Z</time>
      </trkpt>
      <trkpt lat="46.1838" lon="6.68863">
        <ele>1164.77</ele>
        <time>2014-06-27T07:08:35Z</time>
      </trkpt>
      <trkpt lat="46.18393" lon="6.6888">
        <ele>1163.33</ele>
        <time>2014-06-27T07:08:38Z</time>
      </trkpt>
      <trkpt lat="46.18413" lon="6.68904">
        <ele>1158.05</ele>
        <time>2014-06-27T07:08:42Z</time>
      </trkpt>
      <trkpt lat="46.18422" lon="6.68915">
        <ele>1154.2</ele>
        <time>2014-06-27T07:08:44Z</time>
      </trkpt>
      <trkpt lat="46.1843" lon="6.68925">
        <ele>1151.8</ele>
        <time>2014-06-27T07:08:46Z</time>
      </trkpt>
      <trkpt lat="46.18448" lon="6.68933">
        <ele>1145.55</ele>
        <time>2014-06-27T07:08:50Z</time>
      </trkpt>
      <trkpt lat="46.18459" lon="6.68933">
        <ele>1143.14</ele>
        <time>2014-06-27T07:08:52Z</time>
      </trkpt>
      <trkpt lat="46.18487" lon="6.68937">
        <ele>1137.86</ele>
        <time>2014-06-27T07:08:56Z</time>
      </trkpt>
      <trkpt lat="46.18502" lon="6.68939">
        <ele>1134.97</ele>
        <time>2014-06-27T07:08:58Z</time>
      </trkpt>
      <trkpt lat="46.1851" lon="6.68941">
        <ele>1133.05</ele>
        <time>2014-06-27T07:08:59Z</time>
      </trkpt>
      <trkpt lat="46.18534" lon="6.68953">
        <ele>1127.76</ele>
        <time>2014-06-27T07:09:02Z</time>
      </trkpt>
      <trkpt lat="46.18544" lon="6.68964">
        <ele>1123.92</ele>
        <time>2014-06-27T07:09:04Z</time>
      </trkpt>
      <trkpt lat="46.18554" lon="6.6897">
        <ele>1121.03</ele>
        <time>2014-06-27T07:09:06Z</time>
      </trkpt>
      <trkpt lat="46.18567" lon="6.68973">
        <ele>1117.67</ele>
        <time>2014-06-27T07:09:09Z</time>
      </trkpt>
      <trkpt lat="46.18593" lon="6.68987">
        <ele>1116.71</ele>
        <time>2014-06-27T07:09:17Z</time>
      </trkpt>
      <trkpt lat="46.18593" lon="6.69012">
        <ele>1112.86</ele>
        <time>2014-06-27T07:09:24Z</time>
      </trkpt>
      <trkpt lat="46.18584" lon="6.6903">
        <ele>1109.5</ele>
        <time>2014-06-27T07:09:27Z</time>
      </trkpt>
      <trkpt lat="46.1857" lon="6.6905">
        <ele>1106.13</ele>
        <time>2014-06-27T07:09:30Z</time>
      </trkpt>
      <trkpt lat="46.18567" lon="6.69061">
        <ele>1104.69</ele>
        <time>2014-06-27T07:09:31Z</time>
      </trkpt>
      <trkpt lat="46.18556" lon="6.69104">
        <ele>1098.92</ele>
        <time>2014-06-27T07:09:35Z</time>
      </trkpt>
      <trkpt lat="46.18544" lon="6.69139">
        <ele>1094.6</ele>
        <time>2014-06-27T07:09:39Z</time>
      </trkpt>
      <trkpt lat="46.18515" lon="6.69194">
        <ele>1089.79</ele>
        <time>2014-06-27T07:09:45Z</time>
      </trkpt>
      <trkpt lat="46.18493" lon="6.69232">
        <ele>1086.43</ele>
        <time>2014-06-27T07:09:49Z</time>
      </trkpt>
      <trkpt lat="46.18478" lon="6.69255">
        <ele>1083.06</ele>
        <time>2014-06-27T07:09:52Z</time>
      </trkpt>
      <trkpt lat="46.18468" lon="6.69269">
        <ele>1079.7</ele>
        <time>2014-06-27T07:09:54Z</time>
      </trkpt>
      <trkpt lat="46.18447" lon="6.69288">
        <ele>1075.37</ele>
        <time>2014-06-27T07:09:57Z</time>
      </trkpt>
      <trkpt lat="46.18423" lon="6.69306">
        <ele>1071.53</ele>
        <time>2014-06-27T07:10:00Z</time>
      </trkpt>
      <trkpt lat="46.18404" lon="6.69322">
        <ele>1067.2</ele>
        <time>2014-06-27T07:10:03Z</time>
      </trkpt>
      <trkpt lat="46.18399" lon="6.69327">
        <ele>1067.2</ele>
        <time>2014-06-27T07:10:04Z</time>
      </trkpt>
      <trkpt lat="46.18393" lon="6.69331">
        <ele>1065.76</ele>
        <time>2014-06-27T07:10:05Z</time>
      </trkpt>
      <trkpt lat="46.18359" lon="6.69353">
        <ele>1061.43</ele>
        <time>2014-06-27T07:10:10Z</time>
      </trkpt>
      <trkpt lat="46.1834" lon="6.69369">
        <ele>1059.03</ele>
        <time>2014-06-27T07:10:13Z</time>
      </trkpt>
      <trkpt lat="46.18317" lon="6.69403">
        <ele>1054.7</ele>
        <time>2014-06-27T07:10:17Z</time>
      </trkpt>
      <trkpt lat="46.18311" lon="6.69412">
        <ele>1053.74</ele>
        <time>2014-06-27T07:10:18Z</time>
      </trkpt>
      <trkpt lat="46.18285" lon="6.69445">
        <ele>1048.45</ele>
        <time>2014-06-27T07:10:22Z</time>
      </trkpt>
      <trkpt lat="46.18271" lon="6.6946">
        <ele>1046.53</ele>
        <time>2014-06-27T07:10:24Z</time>
      </trkpt>
      <trkpt lat="46.18239" lon="6.69516">
        <ele>1044.13</ele>
        <time>2014-06-27T07:10:30Z</time>
      </trkpt>
      <trkpt lat="46.18229" lon="6.69531">
        <ele>1042.69</ele>
        <time>2014-06-27T07:10:32Z</time>
      </trkpt>
      <trkpt lat="46.18194" lon="6.69593">
        <ele>1039.32</ele>
        <time>2014-06-27T07:10:39Z</time>
      </trkpt>
      <trkpt lat="46.18177" lon="6.69627">
        <ele>1035.96</ele>
        <time>2014-06-27T07:10:43Z</time>
      </trkpt>
      <trkpt lat="46.18123" lon="6.6972">
        <ele>1033.55</ele>
        <time>2014-06-27T07:10:54Z</time>
      </trkpt>
      <trkpt lat="46.18112" lon="6.69738">
        <ele>1033.07</ele>
        <time>2014-06-27T07:10:56Z</time>
      </trkpt>
      <trkpt lat="46.18071" lon="6.69788">
        <ele>1029.71</ele>
        <time>2014-06-27T07:11:02Z</time>
      </trkpt>
      <trkpt lat="46.18052" lon="6.69813">
        <ele>1026.83</ele>
        <time>2014-06-27T07:11:05Z</time>
      </trkpt>
      <trkpt lat="46.18043" lon="6.69828">
        <ele>1023.46</ele>
        <time>2014-06-27T07:11:08Z</time>
      </trkpt>
      <trkpt lat="46.18034" lon="6.69863">
        <ele>1020.1</ele>
        <time>2014-06-27T07:11:14Z</time>
      </trkpt>
      <trkpt lat="46.18013" lon="6.69936">
        <ele>1016.25</ele>
        <time>2014-06-27T07:11:21Z</time>
      </trkpt>
      <trkpt lat="46.18008" lon="6.69961">
        <ele>1012.41</ele>
        <time>2014-06-27T07:11:24Z</time>
      </trkpt>
      <trkpt lat="46.18007" lon="6.69972">
        <ele>1010</ele>
        <time>2014-06-27T07:11:26Z</time>
      </trkpt>
      <trkpt lat="46.18018" lon="6.69985">
        <ele>1004.72</ele>
        <time>2014-06-27T07:11:30Z</time>
      </trkpt>
      <trkpt lat="46.18029" lon="6.70002">
        <ele>1001.35</ele>
        <time>2014-06-27T07:11:33Z</time>
      </trkpt>
      <trkpt lat="46.18029" lon="6.70044">
        <ele>997.51</ele>
        <time>2014-06-27T07:11:39Z</time>
      </trkpt>
      <trkpt lat="46.18024" lon="6.70059">
        <ele>996.54</ele>
        <time>2014-06-27T07:11:43Z</time>
      </trkpt>
      <trkpt lat="46.18014" lon="6.70074">
        <ele>995.58</ele>
        <time>2014-06-27T07:11:48Z</time>
      </trkpt>
      <trkpt lat="46.18007" lon="6.70082">
        <ele>995.58</ele>
        <time>2014-06-27T07:11:50Z</time>
      </trkpt>
      <trkpt lat="46.17999" lon="6.70099">
        <ele>996.54</ele>
        <time>2014-06-27T07:11:53Z</time>
      </trkpt>
      <trkpt lat="46.17987" lon="6.7015">
        <ele>996.54</ele>
        <time>2014-06-27T07:12:02Z</time>
      </trkpt>
      <trkpt lat="46.17988" lon="6.70156">
        <ele>996.54</ele>
        <time>2014-06-27T07:12:13Z</time>
      </trkpt>
      <trkpt lat="46.17988" lon="6.70156">
        <ele>996.54</ele>
        <time>2014-06-27T07:12:36Z</time>
      </trkpt>
      <trkpt lat="46.18" lon="6.70174">
        <ele>995.58</ele>
        <time>2014-06-27T07:12:48Z</time>
      </trkpt>
      <trkpt lat="46.18008" lon="6.70188">
        <ele>994.14</ele>
        <time>2014-06-27T07:12:58Z</time>
      </trkpt>
      <trkpt lat="46.18026" lon="6.70204">
        <ele>992.7</ele>
        <time>2014-06-27T07:13:07Z</time>
      </trkpt>
      <trkpt lat="46.18037" lon="6.70215">
        <ele>992.22</ele>
        <time>2014-06-27T07:13:11Z</time>
      </trkpt>
      <trkpt lat="46.18042" lon="6.70221">
        <ele>991.74</ele>
        <time>2014-06-27T07:13:15Z</time>
      </trkpt>
      <trkpt lat="46.18047" lon="6.70227">
        <ele>991.26</ele>
        <time>2014-06-27T07:13:19Z</time>
      </trkpt>
      <trkpt lat="46.18071" lon="6.70261">
        <ele>989.33</ele>
        <time>2014-06-27T07:13:30Z</time>
      </trkpt>
      <trkpt lat="46.18102" lon="6.70308">
        <ele>986.93</ele>
        <time>2014-06-27T07:13:43Z</time>
      </trkpt>
      <trkpt lat="46.18132" lon="6.7035">
        <ele>985.01</ele>
        <time>2014-06-27T07:13:57Z</time>
      </trkpt>
      <trkpt lat="46.18136" lon="6.70351">
        <ele>985.01</ele>
        <time>2014-06-27T07:13:59Z</time>
      </trkpt>
      <trkpt lat="46.18151" lon="6.70346">
        <ele>984.53</ele>
        <time>2014-06-27T07:14:08Z</time>
      </trkpt>
      <trkpt lat="46.18152" lon="6.70343">
        <ele>984.53</ele>
        <time>2014-06-27T07:14:16Z</time>
      </trkpt>
      <trkpt lat="46.18153" lon="6.70342">
        <ele>984.05</ele>
        <time>2014-06-27T07:14:31Z</time>
      </trkpt>
      <trkpt lat="46.18153" lon="6.70342">
        <ele>984.05</ele>
        <time>2014-06-27T07:15:10Z</time>
      </trkpt>
      <trkpt lat="46.18153" lon="6.70342">
        <ele>984.05</ele>
        <time>2014-06-27T07:15:45Z</time>
      </trkpt>
      <trkpt lat="46.18153" lon="6.70342">
        <ele>984.05</ele>
        <time>2014-06-27T07:16:13Z</time>
      </trkpt>
      <trkpt lat="46.18153" lon="6.70341">
        <ele>984.05</ele>
        <time>2014-06-27T07:16:47Z</time>
      </trkpt>
      <trkpt lat="46.18153" lon="6.70341">
        <ele>984.05</ele>
        <time>2014-06-27T07:17:22Z</time>
      </trkpt>
      <trkpt lat="46.18154" lon="6.70342">
        <ele>984.05</ele>
        <time>2014-06-27T07:17:58Z</time>
      </trkpt>
      <trkpt lat="46.18154" lon="6.70342">
        <ele>984.05</ele>
        <time>2014-06-27T07:18:31Z</time>
      </trkpt>
      <trkpt lat="46.18154" lon="6.70343">
        <ele>984.05</ele>
        <time>2014-06-27T07:19:23Z</time>
      </trkpt>
      <trkpt lat="46.18154" lon="6.70343">
        <ele>984.05</ele>
        <time>2014-06-27T07:19:54Z</time>
      </trkpt>
      <trkpt lat="46.18154" lon="6.70343">
        <ele>984.05</ele>
        <time>2014-06-27T07:20:36Z</time>
      </trkpt>
      <trkpt lat="46.18154" lon="6.70343">
        <ele>984.05</ele>
        <time>2014-06-27T07:21:22Z</time>
      </trkpt>
      <trkpt lat="46.18155" lon="6.70343">
        <ele>984.05</ele>
        <time>2014-06-27T07:22:07Z</time>
      </trkpt>
      <trkpt lat="46.18155" lon="6.70343">
        <ele>984.05</ele>
        <time>2014-06-27T07:22:44Z</time>
      </trkpt>
      <trkpt lat="46.18154" lon="6.70343">
        <ele>984.05</ele>
        <time>2014-06-27T07:23:18Z</time>
      </trkpt>
      <trkpt lat="46.18154" lon="6.70343">
        <ele>984.05</ele>
        <time>2014-06-27T07:23:55Z</time>
      </trkpt>
      <trkpt lat="46.18154" lon="6.70343">
        <ele>984.05</ele>
        <time>2014-06-27T07:24:30Z</time>
      </trkpt>
      <trkpt lat="46.18154" lon="6.70344">
        <ele>984.05</ele>
        <time>2014-06-27T07:24:54Z</time>
      </trkpt>
      <trkpt lat="46.18153" lon="6.70342">
        <ele>984.05</ele>
        <time>2014-06-27T07:25:11Z</time>
      </trkpt>
      <trkpt lat="46.18153" lon="6.70342">
        <ele>984.05</ele>
        <time>2014-06-27T07:25:21Z</time>
      </trkpt>
      <trkpt lat="46.18155" lon="6.70339">
        <ele>984.05</ele>
        <time>2014-06-27T07:25:38Z</time>
      </trkpt>
      <trkpt lat="46.18156" lon="6.70341">
        <ele>984.05</ele>
        <time>2014-06-27T07:25:58Z</time>
      </trkpt>
      <trkpt lat="46.18156" lon="6.70341">
        <ele>984.05</ele>
        <time>2014-06-27T07:26:16Z</time>
      </trkpt>
      <trkpt lat="46.18156" lon="6.70341">
        <ele>984.05</ele>
        <time>2014-06-27T07:26:31Z</time>
      </trkpt>
      <trkpt lat="46.18156" lon="6.70341">
        <ele>984.05</ele>
        <time>2014-06-27T07:26:36Z</time>
      </trkpt>
      <trkpt lat="46.18161" lon="6.70333">
        <ele>984.05</ele>
        <time>2014-06-27T07:26:40Z</time>
      </trkpt>
      <trkpt lat="46.1817" lon="6.70323">
        <ele>984.05</ele>
        <time>2014-06-27T07:26:43Z</time>
      </trkpt>
      <trkpt lat="46.18178" lon="6.70304">
        <ele>984.05</ele>
        <time>2014-06-27T07:26:48Z</time>
      </trkpt>
      <trkpt lat="46.18184" lon="6.70293">
        <ele>984.05</ele>
        <time>2014-06-27T07:26:57Z</time>
      </trkpt>
      <trkpt lat="46.1818" lon="6.70304">
        <ele>984.05</ele>
        <time>2014-06-27T07:27:05Z</time>
      </trkpt>
      <trkpt lat="46.18174" lon="6.70317">
        <ele>984.05</ele>
        <time>2014-06-27T07:27:08Z</time>
      </trkpt>
      <trkpt lat="46.18147" lon="6.70346">
        <ele>984.05</ele>
        <time>2014-06-27T07:27:20Z</time>
      </trkpt>
      <trkpt lat="46.18143" lon="6.70356">
        <ele>984.05</ele>
        <time>2014-06-27T07:27:23Z</time>
      </trkpt>
      <trkpt lat="46.18137" lon="6.70384">
        <ele>984.05</ele>
        <time>2014-06-27T07:27:31Z</time>
      </trkpt>
      <trkpt lat="46.18144" lon="6.70408">
        <ele>984.05</ele>
        <time>2014-06-27T07:27:39Z</time>
      </trkpt>
      <trkpt lat="46.18157" lon="6.70406">
        <ele>984.05</ele>
        <time>2014-06-27T07:27:46Z</time>
      </trkpt>
      <trkpt lat="46.18197" lon="6.7035">
        <ele>984.05</ele>
        <time>2014-06-27T07:28:01Z</time>
      </trkpt>
      <trkpt lat="46.18237" lon="6.70293">
        <ele>983.09</ele>
        <time>2014-06-27T07:28:15Z</time>
      </trkpt>
      <trkpt lat="46.18272" lon="6.70244">
        <ele>982.6</ele>
        <time>2014-06-27T07:28:26Z</time>
      </trkpt>
      <trkpt lat="46.18288" lon="6.70238">
        <ele>982.12</ele>
        <time>2014-06-27T07:28:31Z</time>
      </trkpt>
      <trkpt lat="46.18296" lon="6.70247">
        <ele>981.64</ele>
        <time>2014-06-27T07:28:33Z</time>
      </trkpt>
      <trkpt lat="46.18317" lon="6.70285">
        <ele>981.16</ele>
        <time>2014-06-27T07:28:46Z</time>
      </trkpt>
      <trkpt lat="46.18317" lon="6.70285">
        <ele>981.16</ele>
        <time>2014-06-27T07:29:12Z</time>
      </trkpt>
      <trkpt lat="46.18319" lon="6.70289">
        <ele>981.16</ele>
        <time>2014-06-27T07:29:39Z</time>
      </trkpt>
      <trkpt lat="46.18319" lon="6.70289">
        <ele>981.16</ele>
        <time>2014-06-27T07:30:07Z</time>
      </trkpt>
      <trkpt lat="46.18319" lon="6.70289">
        <ele>981.16</ele>
        <time>2014-06-27T07:30:23Z</time>
      </trkpt>
      <trkpt lat="46.18322" lon="6.70296">
        <ele>981.16</ele>
        <time>2014-06-27T07:30:37Z</time>
      </trkpt>
      <trkpt lat="46.18324" lon="6.703">
        <ele>981.16</ele>
        <time>2014-06-27T07:30:49Z</time>
      </trkpt>
      <trkpt lat="46.18324" lon="6.703">
        <ele>981.16</ele>
        <time>2014-06-27T07:31:10Z</time>
      </trkpt>
      <trkpt lat="46.18324" lon="6.703">
        <ele>981.16</ele>
        <time>2014-06-27T07:31:25Z</time>
      </trkpt>
      <trkpt lat="46.18324" lon="6.703">
        <ele>981.16</ele>
        <time>2014-06-27T07:31:45Z</time>
      </trkpt>
      <trkpt lat="46.18325" lon="6.70303">
        <ele>981.16</ele>
        <time>2014-06-27T07:32:02Z</time>
      </trkpt>
      <trkpt lat="46.18326" lon="6.70303">
        <ele>981.16</ele>
        <time>2014-06-27T07:32:20Z</time>
      </trkpt>
      <trkpt lat="46.18327" lon="6.70304">
        <ele>981.16</ele>
        <time>2014-06-27T07:32:37Z</time>
      </trkpt>
      <trkpt lat="46.18327" lon="6.70304">
        <ele>981.16</ele>
        <time>2014-06-27T07:32:56Z</time>
      </trkpt>
      <trkpt lat="46.18328" lon="6.70306">
        <ele>981.16</ele>
        <time>2014-06-27T07:33:15Z</time>
      </trkpt>
      <trkpt lat="46.18332" lon="6.70311">
        <ele>981.16</ele>
        <time>2014-06-27T07:33:36Z</time>
      </trkpt>
      <trkpt lat="46.18332" lon="6.70311">
        <ele>981.16</ele>
        <time>2014-06-27T07:33:57Z</time>
      </trkpt>
      <trkpt lat="46.18333" lon="6.70315">
        <ele>981.16</ele>
        <time>2014-06-27T07:34:21Z</time>
      </trkpt>
      <trkpt lat="46.18335" lon="6.70317">
        <ele>981.16</ele>
        <time>2014-06-27T07:34:37Z</time>
      </trkpt>
      <trkpt lat="46.18335" lon="6.70318">
        <ele>981.16</ele>
        <time>2014-06-27T07:34:58Z</time>
      </trkpt>
      <trkpt lat="46.18336" lon="6.70318">
        <ele>981.16</ele>
        <time>2014-06-27T07:35:14Z</time>
      </trkpt>
      <trkpt lat="46.18336" lon="6.70319">
        <ele>981.16</ele>
        <time>2014-06-27T07:35:41Z</time>
      </trkpt>
      <trkpt lat="46.1834" lon="6.70325">
        <ele>981.16</ele>
        <time>2014-06-27T07:35:57Z</time>
      </trkpt>
      <trkpt lat="46.18341" lon="6.70325">
        <ele>981.16</ele>
        <time>2014-06-27T07:36:18Z</time>
      </trkpt>
      <trkpt lat="46.18343" lon="6.70327">
        <ele>981.16</ele>
        <time>2014-06-27T07:36:40Z</time>
      </trkpt>
      <trkpt lat="46.18346" lon="6.7033">
        <ele>981.16</ele>
        <time>2014-06-27T07:36:54Z</time>
      </trkpt>
      <trkpt lat="46.18346" lon="6.7033">
        <ele>981.16</ele>
        <time>2014-06-27T07:37:18Z</time>
      </trkpt>
      <trkpt lat="46.18347" lon="6.70331">
        <ele>981.16</ele>
        <time>2014-06-27T07:37:32Z</time>
      </trkpt>
      <trkpt lat="46.18349" lon="6.70332">
        <ele>981.16</ele>
        <time>2014-06-27T07:37:47Z</time>
      </trkpt>
      <trkpt lat="46.1835" lon="6.70334">
        <ele>981.16</ele>
        <time>2014-06-27T07:38:03Z</time>
      </trkpt>
      <trkpt lat="46.1835" lon="6.70334">
        <ele>981.16</ele>
        <time>2014-06-27T07:38:27Z</time>
      </trkpt>
      <trkpt lat="46.18351" lon="6.70334">
        <ele>981.16</ele>
        <time>2014-06-27T07:38:53Z</time>
      </trkpt>
      <trkpt lat="46.18353" lon="6.70338">
        <ele>981.16</ele>
        <time>2014-06-27T07:39:08Z</time>
      </trkpt>
      <trkpt lat="46.18353" lon="6.70338">
        <ele>981.16</ele>
        <time>2014-06-27T07:39:27Z</time>
      </trkpt>
      <trkpt lat="46.18353" lon="6.70338">
        <ele>981.16</ele>
        <time>2014-06-27T07:39:47Z</time>
      </trkpt>
      <trkpt lat="46.18365" lon="6.7036">
        <ele>981.16</ele>
        <time>2014-06-27T07:39:57Z</time>
      </trkpt>
      <trkpt lat="46.18396" lon="6.70414">
        <ele>982.6</ele>
        <time>2014-06-27T07:40:10Z</time>
      </trkpt>
      <trkpt lat="46.1842" lon="6.70462">
        <ele>985.97</ele>
        <time>2014-06-27T07:40:21Z</time>
      </trkpt>
      <trkpt lat="46.18427" lon="6.70476">
        <ele>989.33</ele>
        <time>2014-06-27T07:40:24Z</time>
      </trkpt>
      <trkpt lat="46.18434" lon="6.70491">
        <ele>993.18</ele>
        <time>2014-06-27T07:40:27Z</time>
      </trkpt>
      <trkpt lat="46.18445" lon="6.70511">
        <ele>997.02</ele>
        <time>2014-06-27T07:40:31Z</time>
      </trkpt>
      <trkpt lat="46.18459" lon="6.70539">
        <ele>999.91</ele>
        <time>2014-06-27T07:40:37Z</time>
      </trkpt>
      <trkpt lat="46.18468" lon="6.70556">
        <ele>1002.31</ele>
        <time>2014-06-27T07:40:41Z</time>
      </trkpt>
      <trkpt lat="46.18478" lon="6.70574">
        <ele>1004.72</ele>
        <time>2014-06-27T07:40:45Z</time>
      </trkpt>
      <trkpt lat="46.18508" lon="6.70635">
        <ele>1008.08</ele>
        <time>2014-06-27T07:40:59Z</time>
      </trkpt>
      <trkpt lat="46.18514" lon="6.70648">
        <ele>1012.41</ele>
        <time>2014-06-27T07:41:02Z</time>
      </trkpt>
      <trkpt lat="46.18518" lon="6.70655">
        <ele>1016.73</ele>
        <time>2014-06-27T07:41:04Z</time>
      </trkpt>
      <trkpt lat="46.18523" lon="6.70663">
        <ele>1021.06</ele>
        <time>2014-06-27T07:41:06Z</time>
      </trkpt>
      <trkpt lat="46.18527" lon="6.70671">
        <ele>1024.9</ele>
        <time>2014-06-27T07:41:08Z</time>
      </trkpt>
      <trkpt lat="46.1853" lon="6.70679">
        <ele>1029.71</ele>
        <time>2014-06-27T07:41:10Z</time>
      </trkpt>
      <trkpt lat="46.18535" lon="6.70686">
        <ele>1034.52</ele>
        <time>2014-06-27T07:41:12Z</time>
      </trkpt>
      <trkpt lat="46.18539" lon="6.70694">
        <ele>1038.36</ele>
        <time>2014-06-27T07:41:14Z</time>
      </trkpt>
      <trkpt lat="46.18543" lon="6.70701">
        <ele>1041.25</ele>
        <time>2014-06-27T07:41:16Z</time>
      </trkpt>
      <trkpt lat="46.18549" lon="6.70713">
        <ele>1044.61</ele>
        <time>2014-06-27T07:41:19Z</time>
      </trkpt>
      <trkpt lat="46.18557" lon="6.7073">
        <ele>1048.94</ele>
        <time>2014-06-27T07:41:23Z</time>
      </trkpt>
      <trkpt lat="46.18563" lon="6.70742">
        <ele>1053.74</ele>
        <time>2014-06-27T07:41:26Z</time>
      </trkpt>
      <trkpt lat="46.18567" lon="6.7075">
        <ele>1057.59</ele>
        <time>2014-06-27T07:41:28Z</time>
      </trkpt>
      <trkpt lat="46.18571" lon="6.70758">
        <ele>1060.95</ele>
        <time>2014-06-27T07:41:30Z</time>
      </trkpt>
      <trkpt lat="46.18575" lon="6.70764">
        <ele>1066.24</ele>
        <time>2014-06-27T07:41:32Z</time>
      </trkpt>
      <trkpt lat="46.1858" lon="6.70774">
        <ele>1071.53</ele>
        <time>2014-06-27T07:41:35Z</time>
      </trkpt>
      <trkpt lat="46.18584" lon="6.70781">
        <ele>1074.89</ele>
        <time>2014-06-27T07:41:37Z</time>
      </trkpt>
      <trkpt lat="46.18588" lon="6.70788">
        <ele>1078.74</ele>
        <time>2014-06-27T07:41:39Z</time>
      </trkpt>
      <trkpt lat="46.18591" lon="6.70795">
        <ele>1082.58</ele>
        <time>2014-06-27T07:41:41Z</time>
      </trkpt>
      <trkpt lat="46.18595" lon="6.70801">
        <ele>1085.95</ele>
        <time>2014-06-27T07:41:43Z</time>
      </trkpt>
      <trkpt lat="46.18599" lon="6.70808">
        <ele>1089.79</ele>
        <time>2014-06-27T07:41:45Z</time>
      </trkpt>
      <trkpt lat="46.18602" lon="6.70815">
        <ele>1093.64</ele>
        <time>2014-06-27T07:41:47Z</time>
      </trkpt>
      <trkpt lat="46.18606" lon="6.70823">
        <ele>1097.96</ele>
        <time>2014-06-27T07:41:49Z</time>
      </trkpt>
      <trkpt lat="46.1861" lon="6.70829">
        <ele>1102.29</ele>
        <time>2014-06-27T07:41:51Z</time>
      </trkpt>
      <trkpt lat="46.18614" lon="6.70836">
        <ele>1107.1</ele>
        <time>2014-06-27T07:41:53Z</time>
      </trkpt>
      <trkpt lat="46.18618" lon="6.70843">
        <ele>1111.9</ele>
        <time>2014-06-27T07:41:55Z</time>
      </trkpt>
      <trkpt lat="46.18621" lon="6.7085">
        <ele>1116.23</ele>
        <time>2014-06-27T07:41:57Z</time>
      </trkpt>
      <trkpt lat="46.18625" lon="6.70857">
        <ele>1120.55</ele>
        <time>2014-06-27T07:41:59Z</time>
      </trkpt>
      <trkpt lat="46.18631" lon="6.70867">
        <ele>1125.36</ele>
        <time>2014-06-27T07:42:02Z</time>
      </trkpt>
      <trkpt lat="46.18635" lon="6.70874">
        <ele>1129.69</ele>
        <time>2014-06-27T07:42:04Z</time>
      </trkpt>
      <trkpt lat="46.18639" lon="6.70881">
        <ele>1134.49</ele>
        <time>2014-06-27T07:42:06Z</time>
      </trkpt>
      <trkpt lat="46.18643" lon="6.70889">
        <ele>1138.82</ele>
        <time>2014-06-27T07:42:08Z</time>
      </trkpt>
      <trkpt lat="46.18647" lon="6.70896">
        <ele>1142.66</ele>
        <time>2014-06-27T07:42:10Z</time>
      </trkpt>
      <trkpt lat="46.1865" lon="6.70904">
        <ele>1145.55</ele>
        <time>2014-06-27T07:42:12Z</time>
      </trkpt>
      <trkpt lat="46.18654" lon="6.70911">
        <ele>1148.91</ele>
        <time>2014-06-27T07:42:14Z</time>
      </trkpt>
      <trkpt lat="46.1866" lon="6.70922">
        <ele>1153.24</ele>
        <time>2014-06-27T07:42:17Z</time>
      </trkpt>
      <trkpt lat="46.18664" lon="6.70929">
        <ele>1157.08</ele>
        <time>2014-06-27T07:42:19Z</time>
      </trkpt>
      <trkpt lat="46.18668" lon="6.70936">
        <ele>1160.93</ele>
        <time>2014-06-27T07:42:21Z</time>
      </trkpt>
      <trkpt lat="46.18671" lon="6.70943">
        <ele>1165.26</ele>
        <time>2014-06-27T07:42:23Z</time>
      </trkpt>
      <trkpt lat="46.18676" lon="6.70955">
        <ele>1170.54</ele>
        <time>2014-06-27T07:42:26Z</time>
      </trkpt>
      <trkpt lat="46.1868" lon="6.70962">
        <ele>1174.39</ele>
        <time>2014-06-27T07:42:28Z</time>
      </trkpt>
      <trkpt lat="46.18684" lon="6.7097">
        <ele>1178.71</ele>
        <time>2014-06-27T07:42:30Z</time>
      </trkpt>
      <trkpt lat="46.18687" lon="6.70977">
        <ele>1183.04</ele>
        <time>2014-06-27T07:42:32Z</time>
      </trkpt>
      <trkpt lat="46.18691" lon="6.70985">
        <ele>1187.37</ele>
        <time>2014-06-27T07:42:34Z</time>
      </trkpt>
      <trkpt lat="46.18695" lon="6.70993">
        <ele>1191.69</ele>
        <time>2014-06-27T07:42:36Z</time>
      </trkpt>
      <trkpt lat="46.18699" lon="6.71">
        <ele>1196.02</ele>
        <time>2014-06-27T07:42:38Z</time>
      </trkpt>
      <trkpt lat="46.18703" lon="6.71007">
        <ele>1200.34</ele>
        <time>2014-06-27T07:42:40Z</time>
      </trkpt>
      <trkpt lat="46.18707" lon="6.71015">
        <ele>1203.71</ele>
        <time>2014-06-27T07:42:42Z</time>
      </trkpt>
      <trkpt lat="46.18711" lon="6.71022">
        <ele>1207.07</ele>
        <time>2014-06-27T07:42:44Z</time>
      </trkpt>
      <trkpt lat="46.18715" lon="6.71028">
        <ele>1210.44</ele>
        <time>2014-06-27T07:42:46Z</time>
      </trkpt>
      <trkpt lat="46.18718" lon="6.71035">
        <ele>1214.28</ele>
        <time>2014-06-27T07:42:48Z</time>
      </trkpt>
      <trkpt lat="46.18722" lon="6.71042">
        <ele>1218.13</ele>
        <time>2014-06-27T07:42:50Z</time>
      </trkpt>
      <trkpt lat="46.18728" lon="6.71052">
        <ele>1222.45</ele>
        <time>2014-06-27T07:42:53Z</time>
      </trkpt>
      <trkpt lat="46.18731" lon="6.71059">
        <ele>1226.3</ele>
        <time>2014-06-27T07:42:55Z</time>
      </trkpt>
      <trkpt lat="46.18735" lon="6.71066">
        <ele>1230.62</ele>
        <time>2014-06-27T07:42:57Z</time>
      </trkpt>
      <trkpt lat="46.18739" lon="6.71073">
        <ele>1235.43</ele>
        <time>2014-06-27T07:42:59Z</time>
      </trkpt>
      <trkpt lat="46.18743" lon="6.7108">
        <ele>1239.76</ele>
        <time>2014-06-27T07:43:01Z</time>
      </trkpt>
      <trkpt lat="46.18747" lon="6.71087">
        <ele>1244.08</ele>
        <time>2014-06-27T07:43:03Z</time>
      </trkpt>
      <trkpt lat="46.1875" lon="6.71095">
        <ele>1248.41</ele>
        <time>2014-06-27T07:43:05Z</time>
      </trkpt>
      <trkpt lat="46.18754" lon="6.71103">
        <ele>1251.77</ele>
        <time>2014-06-27T07:43:07Z</time>
      </trkpt>
      <trkpt lat="46.18758" lon="6.71111">
        <ele>1255.14</ele>
        <time>2014-06-27T07:43:09Z</time>
      </trkpt>
      <trkpt lat="46.18762" lon="6.71118">
        <ele>1258.5</ele>
        <time>2014-06-27T07:43:11Z</time>
      </trkpt>
      <trkpt lat="46.18766" lon="6.71125">
        <ele>1261.87</ele>
        <time>2014-06-27T07:43:13Z</time>
      </trkpt>
      <trkpt lat="46.1877" lon="6.71132">
        <ele>1265.23</ele>
        <time>2014-06-27T07:43:15Z</time>
      </trkpt>
      <trkpt lat="46.18773" lon="6.7114">
        <ele>1269.56</ele>
        <time>2014-06-27T07:43:17Z</time>
      </trkpt>
      <trkpt lat="46.18779" lon="6.71151">
        <ele>1274.85</ele>
        <time>2014-06-27T07:43:20Z</time>
      </trkpt>
      <trkpt lat="46.18782" lon="6.71158">
        <ele>1279.17</ele>
        <time>2014-06-27T07:43:22Z</time>
      </trkpt>
      <trkpt lat="46.18786" lon="6.71165">
        <ele>1283.5</ele>
        <time>2014-06-27T07:43:24Z</time>
      </trkpt>
      <trkpt lat="46.1879" lon="6.71172">
        <ele>1287.82</ele>
        <time>2014-06-27T07:43:26Z</time>
      </trkpt>
      <trkpt lat="46.18793" lon="6.71179">
        <ele>1292.15</ele>
        <time>2014-06-27T07:43:28Z</time>
      </trkpt>
      <trkpt lat="46.18797" lon="6.71186">
        <ele>1296.48</ele>
        <time>2014-06-27T07:43:30Z</time>
      </trkpt>
      <trkpt lat="46.18801" lon="6.71193">
        <ele>1300.32</ele>
        <time>2014-06-27T07:43:32Z</time>
      </trkpt>
      <trkpt lat="46.18805" lon="6.71201">
        <ele>1304.17</ele>
        <time>2014-06-27T07:43:34Z</time>
      </trkpt>
      <trkpt lat="46.18812" lon="6.71212">
        <ele>1308.01</ele>
        <time>2014-06-27T07:43:37Z</time>
      </trkpt>
      <trkpt lat="46.18822" lon="6.71234">
        <ele>1311.38</ele>
        <time>2014-06-27T07:43:42Z</time>
      </trkpt>
      <trkpt lat="46.18831" lon="6.7125">
        <ele>1314.74</ele>
        <time>2014-06-27T07:43:46Z</time>
      </trkpt>
      <trkpt lat="46.18837" lon="6.71262">
        <ele>1319.07</ele>
        <time>2014-06-27T07:43:49Z</time>
      </trkpt>
      <trkpt lat="46.18842" lon="6.7127">
        <ele>1322.91</ele>
        <time>2014-06-27T07:43:51Z</time>
      </trkpt>
      <trkpt lat="46.18845" lon="6.71277">
        <ele>1326.28</ele>
        <time>2014-06-27T07:43:53Z</time>
      </trkpt>
      <trkpt lat="46.1885" lon="6.71285">
        <ele>1330.12</ele>
        <time>2014-06-27T07:43:55Z</time>
      </trkpt>
      <trkpt lat="46.18853" lon="6.71292">
        <ele>1333.49</ele>
        <time>2014-06-27T07:43:57Z</time>
      </trkpt>
      <trkpt lat="46.18858" lon="6.71299">
        <ele>1336.37</ele>
        <time>2014-06-27T07:43:59Z</time>
      </trkpt>
      <trkpt lat="46.18864" lon="6.7131">
        <ele>1339.73</ele>
        <time>2014-06-27T07:44:02Z</time>
      </trkpt>
      <trkpt lat="46.18877" lon="6.71333">
        <ele>1342.62</ele>
        <time>2014-06-27T07:44:08Z</time>
      </trkpt>
      <trkpt lat="46.18887" lon="6.71352">
        <ele>1346.46</ele>
        <time>2014-06-27T07:44:13Z</time>
      </trkpt>
      <trkpt lat="46.18893" lon="6.71364">
        <ele>1350.31</ele>
        <time>2014-06-27T07:44:16Z</time>
      </trkpt>
      <trkpt lat="46.18898" lon="6.71372">
        <ele>1353.19</ele>
        <time>2014-06-27T07:44:18Z</time>
      </trkpt>
      <trkpt lat="46.18904" lon="6.71384">
        <ele>1357.52</ele>
        <time>2014-06-27T07:44:21Z</time>
      </trkpt>
      <trkpt lat="46.1891" lon="6.71395">
        <ele>1361.84</ele>
        <time>2014-06-27T07:44:24Z</time>
      </trkpt>
      <trkpt lat="46.18916" lon="6.71409">
        <ele>1365.21</ele>
        <time>2014-06-27T07:44:27Z</time>
      </trkpt>
      <trkpt lat="46.18922" lon="6.71421">
        <ele>1368.57</ele>
        <time>2014-06-27T07:44:30Z</time>
      </trkpt>
      <trkpt lat="46.18929" lon="6.71434">
        <ele>1371.94</ele>
        <time>2014-06-27T07:44:33Z</time>
      </trkpt>
      <trkpt lat="46.18935" lon="6.71445">
        <ele>1375.3</ele>
        <time>2014-06-27T07:44:36Z</time>
      </trkpt>
      <trkpt lat="46.18941" lon="6.71456">
        <ele>1379.15</ele>
        <time>2014-06-27T07:44:39Z</time>
      </trkpt>
      <trkpt lat="46.18948" lon="6.71468">
        <ele>1383.47</ele>
        <time>2014-06-27T07:44:42Z</time>
      </trkpt>
      <trkpt lat="46.18956" lon="6.71484">
        <ele>1386.84</ele>
        <time>2014-06-27T07:44:46Z</time>
      </trkpt>
      <trkpt lat="46.18966" lon="6.71504">
        <ele>1390.2</ele>
        <time>2014-06-27T07:44:51Z</time>
      </trkpt>
      <trkpt lat="46.18975" lon="6.71519">
        <ele>1394.53</ele>
        <time>2014-06-27T07:44:55Z</time>
      </trkpt>
      <trkpt lat="46.18981" lon="6.7153">
        <ele>1398.37</ele>
        <time>2014-06-27T07:44:58Z</time>
      </trkpt>
      <trkpt lat="46.18987" lon="6.71542">
        <ele>1402.7</ele>
        <time>2014-06-27T07:45:01Z</time>
      </trkpt>
      <trkpt lat="46.18995" lon="6.71557">
        <ele>1406.55</ele>
        <time>2014-06-27T07:45:05Z</time>
      </trkpt>
      <trkpt lat="46.19001" lon="6.71569">
        <ele>1410.39</ele>
        <time>2014-06-27T07:45:08Z</time>
      </trkpt>
      <trkpt lat="46.19008" lon="6.7158">
        <ele>1413.76</ele>
        <time>2014-06-27T07:45:11Z</time>
      </trkpt>
      <trkpt lat="46.19014" lon="6.71592">
        <ele>1418.08</ele>
        <time>2014-06-27T07:45:14Z</time>
      </trkpt>
      <trkpt lat="46.1902" lon="6.71603">
        <ele>1421.93</ele>
        <time>2014-06-27T07:45:17Z</time>
      </trkpt>
      <trkpt lat="46.19027" lon="6.71616">
        <ele>1425.29</ele>
        <time>2014-06-27T07:45:20Z</time>
      </trkpt>
      <trkpt lat="46.19037" lon="6.71636">
        <ele>1428.66</ele>
        <time>2014-06-27T07:45:25Z</time>
      </trkpt>
      <trkpt lat="46.19048" lon="6.71656">
        <ele>1432.02</ele>
        <time>2014-06-27T07:45:30Z</time>
      </trkpt>
      <trkpt lat="46.19054" lon="6.71668">
        <ele>1435.87</ele>
        <time>2014-06-27T07:45:33Z</time>
      </trkpt>
      <trkpt lat="46.19061" lon="6.7168">
        <ele>1439.71</ele>
        <time>2014-06-27T07:45:36Z</time>
      </trkpt>
      <trkpt lat="46.19067" lon="6.71692">
        <ele>1443.56</ele>
        <time>2014-06-27T07:45:39Z</time>
      </trkpt>
      <trkpt lat="46.19073" lon="6.71704">
        <ele>1447.4</ele>
        <time>2014-06-27T07:45:42Z</time>
      </trkpt>
      <trkpt lat="46.1908" lon="6.71716">
        <ele>1450.77</ele>
        <time>2014-06-27T07:45:45Z</time>
      </trkpt>
      <trkpt lat="46.19087" lon="6.71728">
        <ele>1454.61</ele>
        <time>2014-06-27T07:45:48Z</time>
      </trkpt>
      <trkpt lat="46.19091" lon="6.71736">
        <ele>1455.57</ele>
        <time>2014-06-27T07:45:50Z</time>
      </trkpt>
      <trkpt lat="46.1911" lon="6.71771">
        <ele>1453.65</ele>
        <time>2014-06-27T07:45:59Z</time>
      </trkpt>
      <trkpt lat="46.19113" lon="6.71779">
        <ele>1453.17</ele>
        <time>2014-06-27T07:46:14Z</time>
      </trkpt>
      <trkpt lat="46.19113" lon="6.71779">
        <ele>1453.17</ele>
        <time>2014-06-27T07:46:30Z</time>
      </trkpt>
      <trkpt lat="46.19113" lon="6.71779">
        <ele>1453.17</ele>
        <time>2014-06-27T07:46:43Z</time>
      </trkpt>
      <trkpt lat="46.19113" lon="6.71784">
        <ele>1453.17</ele>
        <time>2014-06-27T07:46:52Z</time>
      </trkpt>
      <trkpt lat="46.19102" lon="6.71792">
        <ele>1453.17</ele>
        <time>2014-06-27T07:46:57Z</time>
      </trkpt>
      <trkpt lat="46.19075" lon="6.7179">
        <ele>1452.21</ele>
        <time>2014-06-27T07:47:01Z</time>
      </trkpt>
      <trkpt lat="46.19052" lon="6.71782">
        <ele>1447.4</ele>
        <time>2014-06-27T07:47:05Z</time>
      </trkpt>
      <trkpt lat="46.19049" lon="6.71779">
        <ele>1445.96</ele>
        <time>2014-06-27T07:47:06Z</time>
      </trkpt>
      <trkpt lat="46.19041" lon="6.71774">
        <ele>1444.04</ele>
        <time>2014-06-27T07:47:15Z</time>
      </trkpt>
      <trkpt lat="46.19041" lon="6.71774">
        <ele>1446.92</ele>
        <time>2014-06-27T07:47:19Z</time>
      </trkpt>
      <trkpt lat="46.19041" lon="6.71774">
        <ele>1446.44</ele>
        <time>2014-06-27T07:47:36Z</time>
      </trkpt>
      <trkpt lat="46.19041" lon="6.71775">
        <ele>1446.44</ele>
        <time>2014-06-27T07:48:00Z</time>
      </trkpt>
      <trkpt lat="46.19041" lon="6.71775">
        <ele>1446.44</ele>
        <time>2014-06-27T07:48:21Z</time>
      </trkpt>
      <trkpt lat="46.1904" lon="6.71775">
        <ele>1446.44</ele>
        <time>2014-06-27T07:48:42Z</time>
      </trkpt>
      <trkpt lat="46.1904" lon="6.71775">
        <ele>1446.44</ele>
        <time>2014-06-27T07:48:58Z</time>
      </trkpt>
      <trkpt lat="46.19039" lon="6.71775">
        <ele>1446.44</ele>
        <time>2014-06-27T07:49:28Z</time>
      </trkpt>
      <trkpt lat="46.19039" lon="6.71775">
        <ele>1446.44</ele>
        <time>2014-06-27T07:49:48Z</time>
      </trkpt>
      <trkpt lat="46.19039" lon="6.71775">
        <ele>1446.44</ele>
        <time>2014-06-27T07:50:05Z</time>
      </trkpt>
      <trkpt lat="46.19039" lon="6.71775">
        <ele>1446.44</ele>
        <time>2014-06-27T07:50:26Z</time>
      </trkpt>
      <trkpt lat="46.19037" lon="6.71775">
        <ele>1446.44</ele>
        <time>2014-06-27T07:50:43Z</time>
      </trkpt>
      <trkpt lat="46.19037" lon="6.71775">
        <ele>1446.44</ele>
        <time>2014-06-27T07:51:05Z</time>
      </trkpt>
      <trkpt lat="46.19034" lon="6.71777">
        <ele>1446.44</ele>
        <time>2014-06-27T07:51:26Z</time>
      </trkpt>
      <trkpt lat="46.19034" lon="6.71777">
        <ele>1446.44</ele>
        <time>2014-06-27T07:51:47Z</time>
      </trkpt>
      <trkpt lat="46.19032" lon="6.71779">
        <ele>1446.44</ele>
        <time>2014-06-27T07:52:09Z</time>
      </trkpt>
      <trkpt lat="46.19032" lon="6.71779">
        <ele>1446.44</ele>
        <time>2014-06-27T07:52:30Z</time>
      </trkpt>
      <trkpt lat="46.19031" lon="6.71783">
        <ele>1446.44</ele>
        <time>2014-06-27T07:52:42Z</time>
      </trkpt>
      <trkpt lat="46.19028" lon="6.71791">
        <ele>1446.44</ele>
        <time>2014-06-27T07:52:57Z</time>
      </trkpt>
      <trkpt lat="46.19028" lon="6.71796">
        <ele>1446.44</ele>
        <time>2014-06-27T07:53:13Z</time>
      </trkpt>
      <trkpt lat="46.19029" lon="6.71798">
        <ele>1446.44</ele>
        <time>2014-06-27T07:53:29Z</time>
      </trkpt>
      <trkpt lat="46.1903" lon="6.71806">
        <ele>1446.44</ele>
        <time>2014-06-27T07:53:41Z</time>
      </trkpt>
      <trkpt lat="46.19031" lon="6.71811">
        <ele>1446.44</ele>
        <time>2014-06-27T07:53:56Z</time>
      </trkpt>
      <trkpt lat="46.19031" lon="6.71811">
        <ele>1446.44</ele>
        <time>2014-06-27T07:53:59Z</time>
      </trkpt>
      <trkpt lat="46.19034" lon="6.71819">
        <ele>1446.44</ele>
        <time>2014-06-27T07:54:03Z</time>
      </trkpt>
      <trkpt lat="46.19051" lon="6.7186">
        <ele>1450.29</ele>
        <time>2014-06-27T07:54:12Z</time>
      </trkpt>
      <trkpt lat="46.19054" lon="6.71868">
        <ele>1454.61</ele>
        <time>2014-06-27T07:54:14Z</time>
      </trkpt>
      <trkpt lat="46.19057" lon="6.71876">
        <ele>1459.9</ele>
        <time>2014-06-27T07:54:16Z</time>
      </trkpt>
      <trkpt lat="46.1906" lon="6.71883">
        <ele>1465.67</ele>
        <time>2014-06-27T07:54:18Z</time>
      </trkpt>
      <trkpt lat="46.19062" lon="6.71887">
        <ele>1469.03</ele>
        <time>2014-06-27T07:54:19Z</time>
      </trkpt>
      <trkpt lat="46.19064" lon="6.7189">
        <ele>1471.92</ele>
        <time>2014-06-27T07:54:20Z</time>
      </trkpt>
      <trkpt lat="46.19067" lon="6.71897">
        <ele>1477.2</ele>
        <time>2014-06-27T07:54:22Z</time>
      </trkpt>
      <trkpt lat="46.1907" lon="6.71904">
        <ele>1481.53</ele>
        <time>2014-06-27T07:54:24Z</time>
      </trkpt>
      <trkpt lat="46.19074" lon="6.71913">
        <ele>1484.41</ele>
        <time>2014-06-27T07:54:26Z</time>
      </trkpt>
      <trkpt lat="46.19079" lon="6.71925">
        <ele>1486.34</ele>
        <time>2014-06-27T07:54:29Z</time>
      </trkpt>
      <trkpt lat="46.19098" lon="6.71971">
        <ele>1486.82</ele>
        <time>2014-06-27T07:54:40Z</time>
      </trkpt>
      <trkpt lat="46.19103" lon="6.71983">
        <ele>1489.7</ele>
        <time>2014-06-27T07:54:43Z</time>
      </trkpt>
      <trkpt lat="46.19108" lon="6.71995">
        <ele>1494.51</ele>
        <time>2014-06-27T07:54:46Z</time>
      </trkpt>
      <trkpt lat="46.19111" lon="6.72003">
        <ele>1497.39</ele>
        <time>2014-06-27T07:54:48Z</time>
      </trkpt>
      <trkpt lat="46.19117" lon="6.72015">
        <ele>1501.24</ele>
        <time>2014-06-27T07:54:51Z</time>
      </trkpt>
      <trkpt lat="46.19124" lon="6.72032">
        <ele>1504.6</ele>
        <time>2014-06-27T07:54:55Z</time>
      </trkpt>
      <trkpt lat="46.1913" lon="6.72048">
        <ele>1507.97</ele>
        <time>2014-06-27T07:54:59Z</time>
      </trkpt>
      <trkpt lat="46.19137" lon="6.72064">
        <ele>1509.89</ele>
        <time>2014-06-27T07:55:03Z</time>
      </trkpt>
      <trkpt lat="46.19146" lon="6.72085">
        <ele>1513.25</ele>
        <time>2014-06-27T07:55:08Z</time>
      </trkpt>
      <trkpt lat="46.19153" lon="6.72101">
        <ele>1516.62</ele>
        <time>2014-06-27T07:55:12Z</time>
      </trkpt>
      <trkpt lat="46.19157" lon="6.72113">
        <ele>1519.98</ele>
        <time>2014-06-27T07:55:15Z</time>
      </trkpt>
      <trkpt lat="46.19162" lon="6.72125">
        <ele>1524.31</ele>
        <time>2014-06-27T07:55:18Z</time>
      </trkpt>
      <trkpt lat="46.19166" lon="6.72133">
        <ele>1527.19</ele>
        <time>2014-06-27T07:55:20Z</time>
      </trkpt>
      <trkpt lat="46.19169" lon="6.7214">
        <ele>1531.04</ele>
        <time>2014-06-27T07:55:22Z</time>
      </trkpt>
      <trkpt lat="46.19173" lon="6.72148">
        <ele>1534.4</ele>
        <time>2014-06-27T07:55:24Z</time>
      </trkpt>
      <trkpt lat="46.19176" lon="6.72156">
        <ele>1537.77</ele>
        <time>2014-06-27T07:55:26Z</time>
      </trkpt>
      <trkpt lat="46.19179" lon="6.72163">
        <ele>1541.13</ele>
        <time>2014-06-27T07:55:28Z</time>
      </trkpt>
      <trkpt lat="46.19182" lon="6.72171">
        <ele>1543.05</ele>
        <time>2014-06-27T07:55:30Z</time>
      </trkpt>
      <trkpt lat="46.19186" lon="6.72182">
        <ele>1547.38</ele>
        <time>2014-06-27T07:55:33Z</time>
      </trkpt>
      <trkpt lat="46.19191" lon="6.72194">
        <ele>1551.22</ele>
        <time>2014-06-27T07:55:36Z</time>
      </trkpt>
      <trkpt lat="46.19194" lon="6.72202">
        <ele>1554.59</ele>
        <time>2014-06-27T07:55:38Z</time>
      </trkpt>
      <trkpt lat="46.19198" lon="6.72209">
        <ele>1557.95</ele>
        <time>2014-06-27T07:55:40Z</time>
      </trkpt>
      <trkpt lat="46.19201" lon="6.72217">
        <ele>1561.8</ele>
        <time>2014-06-27T07:55:42Z</time>
      </trkpt>
      <trkpt lat="46.19205" lon="6.72225">
        <ele>1564.68</ele>
        <time>2014-06-27T07:55:44Z</time>
      </trkpt>
      <trkpt lat="46.1921" lon="6.72237">
        <ele>1568.53</ele>
        <time>2014-06-27T07:55:47Z</time>
      </trkpt>
      <trkpt lat="46.19218" lon="6.72257">
        <ele>1571.89</ele>
        <time>2014-06-27T07:55:52Z</time>
      </trkpt>
      <trkpt lat="46.19223" lon="6.72269">
        <ele>1573.33</ele>
        <time>2014-06-27T07:55:55Z</time>
      </trkpt>
      <trkpt lat="46.1923" lon="6.72285">
        <ele>1577.66</ele>
        <time>2014-06-27T07:55:59Z</time>
      </trkpt>
      <trkpt lat="46.19235" lon="6.72297">
        <ele>1581.51</ele>
        <time>2014-06-27T07:56:02Z</time>
      </trkpt>
      <trkpt lat="46.19239" lon="6.7231">
        <ele>1585.83</ele>
        <time>2014-06-27T07:56:05Z</time>
      </trkpt>
      <trkpt lat="46.19246" lon="6.72323">
        <ele>1590.16</ele>
        <time>2014-06-27T07:56:08Z</time>
      </trkpt>
      <trkpt lat="46.19251" lon="6.72335">
        <ele>1594.48</ele>
        <time>2014-06-27T07:56:11Z</time>
      </trkpt>
      <trkpt lat="46.19255" lon="6.72347">
        <ele>1597.85</ele>
        <time>2014-06-27T07:56:14Z</time>
      </trkpt>
      <trkpt lat="46.19261" lon="6.7236">
        <ele>1601.21</ele>
        <time>2014-06-27T07:56:17Z</time>
      </trkpt>
      <trkpt lat="46.19273" lon="6.72389">
        <ele>1604.1</ele>
        <time>2014-06-27T07:56:24Z</time>
      </trkpt>
      <trkpt lat="46.19286" lon="6.72418">
        <ele>1607.94</ele>
        <time>2014-06-27T07:56:31Z</time>
      </trkpt>
      <trkpt lat="46.19293" lon="6.72435">
        <ele>1611.79</ele>
        <time>2014-06-27T07:56:35Z</time>
      </trkpt>
      <trkpt lat="46.19298" lon="6.72447">
        <ele>1615.15</ele>
        <time>2014-06-27T07:56:38Z</time>
      </trkpt>
      <trkpt lat="46.19304" lon="6.72464">
        <ele>1619</ele>
        <time>2014-06-27T07:56:42Z</time>
      </trkpt>
      <trkpt lat="46.19312" lon="6.7248">
        <ele>1622.36</ele>
        <time>2014-06-27T07:56:46Z</time>
      </trkpt>
      <trkpt lat="46.1932" lon="6.725">
        <ele>1625.73</ele>
        <time>2014-06-27T07:56:51Z</time>
      </trkpt>
      <trkpt lat="46.19327" lon="6.72516">
        <ele>1630.05</ele>
        <time>2014-06-27T07:56:55Z</time>
      </trkpt>
      <trkpt lat="46.19339" lon="6.72546">
        <ele>1632.46</ele>
        <time>2014-06-27T07:57:07Z</time>
      </trkpt>
      <trkpt lat="46.19351" lon="6.72573">
        <ele>1633.42</ele>
        <time>2014-06-27T07:57:21Z</time>
      </trkpt>
      <trkpt lat="46.19363" lon="6.72601">
        <ele>1637.26</ele>
        <time>2014-06-27T07:57:28Z</time>
      </trkpt>
      <trkpt lat="46.19369" lon="6.72613">
        <ele>1641.11</ele>
        <time>2014-06-27T07:57:31Z</time>
      </trkpt>
      <trkpt lat="46.19374" lon="6.72626">
        <ele>1644.47</ele>
        <time>2014-06-27T07:57:34Z</time>
      </trkpt>
      <trkpt lat="46.19381" lon="6.72643">
        <ele>1646.88</ele>
        <time>2014-06-27T07:57:38Z</time>
      </trkpt>
      <trkpt lat="46.19393" lon="6.72671">
        <ele>1650.24</ele>
        <time>2014-06-27T07:57:45Z</time>
      </trkpt>
      <trkpt lat="46.19399" lon="6.72687">
        <ele>1653.12</ele>
        <time>2014-06-27T07:57:49Z</time>
      </trkpt>
      <trkpt lat="46.19405" lon="6.727">
        <ele>1656.49</ele>
        <time>2014-06-27T07:57:52Z</time>
      </trkpt>
      <trkpt lat="46.19412" lon="6.72716">
        <ele>1659.85</ele>
        <time>2014-06-27T07:57:56Z</time>
      </trkpt>
      <trkpt lat="46.19438" lon="6.72778">
        <ele>1663.7</ele>
        <time>2014-06-27T07:58:11Z</time>
      </trkpt>
      <trkpt lat="46.19443" lon="6.72791">
        <ele>1667.06</ele>
        <time>2014-06-27T07:58:14Z</time>
      </trkpt>
      <trkpt lat="46.19448" lon="6.72804">
        <ele>1670.91</ele>
        <time>2014-06-27T07:58:17Z</time>
      </trkpt>
      <trkpt lat="46.19453" lon="6.72817">
        <ele>1674.27</ele>
        <time>2014-06-27T07:58:20Z</time>
      </trkpt>
      <trkpt lat="46.19462" lon="6.72837">
        <ele>1677.64</ele>
        <time>2014-06-27T07:58:25Z</time>
      </trkpt>
      <trkpt lat="46.19472" lon="6.72862">
        <ele>1681</ele>
        <time>2014-06-27T07:58:31Z</time>
      </trkpt>
      <trkpt lat="46.19479" lon="6.72879">
        <ele>1684.37</ele>
        <time>2014-06-27T07:58:35Z</time>
      </trkpt>
      <trkpt lat="46.19484" lon="6.72891">
        <ele>1687.73</ele>
        <time>2014-06-27T07:58:38Z</time>
      </trkpt>
      <trkpt lat="46.19489" lon="6.72903">
        <ele>1690.62</ele>
        <time>2014-06-27T07:58:41Z</time>
      </trkpt>
      <trkpt lat="46.195" lon="6.72927">
        <ele>1693.98</ele>
        <time>2014-06-27T07:58:47Z</time>
      </trkpt>
      <trkpt lat="46.19512" lon="6.72956">
        <ele>1697.34</ele>
        <time>2014-06-27T07:58:54Z</time>
      </trkpt>
      <trkpt lat="46.19519" lon="6.72973">
        <ele>1701.19</ele>
        <time>2014-06-27T07:58:58Z</time>
      </trkpt>
      <trkpt lat="46.19526" lon="6.72989">
        <ele>1704.07</ele>
        <time>2014-06-27T07:59:02Z</time>
      </trkpt>
      <trkpt lat="46.19533" lon="6.73005">
        <ele>1707.92</ele>
        <time>2014-06-27T07:59:06Z</time>
      </trkpt>
      <trkpt lat="46.1954" lon="6.73022">
        <ele>1711.28</ele>
        <time>2014-06-27T07:59:10Z</time>
      </trkpt>
      <trkpt lat="46.19547" lon="6.73038">
        <ele>1714.65</ele>
        <time>2014-06-27T07:59:14Z</time>
      </trkpt>
      <trkpt lat="46.19553" lon="6.73055">
        <ele>1718.49</ele>
        <time>2014-06-27T07:59:18Z</time>
      </trkpt>
      <trkpt lat="46.1956" lon="6.73071">
        <ele>1721.86</ele>
        <time>2014-06-27T07:59:22Z</time>
      </trkpt>
      <trkpt lat="46.19566" lon="6.73084">
        <ele>1723.3</ele>
        <time>2014-06-27T07:59:25Z</time>
      </trkpt>
      <trkpt lat="46.19576" lon="6.73108">
        <ele>1726.67</ele>
        <time>2014-06-27T07:59:31Z</time>
      </trkpt>
      <trkpt lat="46.19583" lon="6.73125">
        <ele>1729.55</ele>
        <time>2014-06-27T07:59:35Z</time>
      </trkpt>
      <trkpt lat="46.1959" lon="6.73141">
        <ele>1733.39</ele>
        <time>2014-06-27T07:59:39Z</time>
      </trkpt>
      <trkpt lat="46.19597" lon="6.73157">
        <ele>1737.24</ele>
        <time>2014-06-27T07:59:43Z</time>
      </trkpt>
      <trkpt lat="46.19604" lon="6.73174">
        <ele>1741.08</ele>
        <time>2014-06-27T07:59:47Z</time>
      </trkpt>
      <trkpt lat="46.1961" lon="6.7319">
        <ele>1744.93</ele>
        <time>2014-06-27T07:59:51Z</time>
      </trkpt>
      <trkpt lat="46.19612" lon="6.73194">
        <ele>1744.93</ele>
        <time>2014-06-27T07:59:52Z</time>
      </trkpt>
      <trkpt lat="46.19617" lon="6.73206">
        <ele>1746.37</ele>
        <time>2014-06-27T07:59:55Z</time>
      </trkpt>
      <trkpt lat="46.19623" lon="6.73221">
        <ele>1746.85</ele>
        <time>2014-06-27T08:00:04Z</time>
      </trkpt>
      <trkpt lat="46.19625" lon="6.73223">
        <ele>1745.89</ele>
        <time>2014-06-27T08:00:12Z</time>
      </trkpt>
      <trkpt lat="46.19627" lon="6.73232">
        <ele>1745.41</ele>
        <time>2014-06-27T08:00:17Z</time>
      </trkpt>
      <trkpt lat="46.19628" lon="6.73243">
        <ele>1744.45</ele>
        <time>2014-06-27T08:00:32Z</time>
      </trkpt>
      <trkpt lat="46.19628" lon="6.73243">
        <ele>1743.97</ele>
        <time>2014-06-27T08:00:35Z</time>
      </trkpt>
      <trkpt lat="46.19623" lon="6.73248">
        <ele>1743.49</ele>
        <time>2014-06-27T08:00:47Z</time>
      </trkpt>
      <trkpt lat="46.19623" lon="6.73248">
        <ele>1743.49</ele>
        <time>2014-06-27T08:01:19Z</time>
      </trkpt>
      <trkpt lat="46.19624" lon="6.73249">
        <ele>1743.49</ele>
        <time>2014-06-27T08:01:43Z</time>
      </trkpt>
      <trkpt lat="46.19624" lon="6.73249">
        <ele>1743.49</ele>
        <time>2014-06-27T08:02:21Z</time>
      </trkpt>
      <trkpt lat="46.19624" lon="6.73249">
        <ele>1743.49</ele>
        <time>2014-06-27T08:02:52Z</time>
      </trkpt>
      <trkpt lat="46.19624" lon="6.73249">
        <ele>1743.49</ele>
        <time>2014-06-27T08:03:12Z</time>
      </trkpt>
      <trkpt lat="46.19624" lon="6.73249">
        <ele>1743.49</ele>
        <time>2014-06-27T08:03:29Z</time>
      </trkpt>
      <trkpt lat="46.19625" lon="6.7325">
        <ele>1743.49</ele>
        <time>2014-06-27T08:03:44Z</time>
      </trkpt>
      <trkpt lat="46.19626" lon="6.73286">
        <ele>1743.49</ele>
        <time>2014-06-27T08:03:55Z</time>
      </trkpt>
      <trkpt lat="46.19622" lon="6.73292">
        <ele>1743.49</ele>
        <time>2014-06-27T08:03:57Z</time>
      </trkpt>
      <trkpt lat="46.19608" lon="6.73349">
        <ele>1741.57</ele>
        <time>2014-06-27T08:04:08Z</time>
      </trkpt>
      <trkpt lat="46.19606" lon="6.73357">
        <ele>1742.05</ele>
        <time>2014-06-27T08:04:09Z</time>
      </trkpt>
      <trkpt lat="46.19604" lon="6.73388">
        <ele>1740.12</ele>
        <time>2014-06-27T08:04:12Z</time>
      </trkpt>
      <trkpt lat="46.19604" lon="6.7342">
        <ele>1736.28</ele>
        <time>2014-06-27T08:04:15Z</time>
      </trkpt>
      <trkpt lat="46.19608" lon="6.73448">
        <ele>1732.43</ele>
        <time>2014-06-27T08:04:18Z</time>
      </trkpt>
      <trkpt lat="46.19621" lon="6.73522">
        <ele>1734.84</ele>
        <time>2014-06-27T08:04:28Z</time>
      </trkpt>
      <trkpt lat="46.19624" lon="6.73536">
        <ele>1736.76</ele>
        <time>2014-06-27T08:04:30Z</time>
      </trkpt>
      <trkpt lat="46.19638" lon="6.73568">
        <ele>1738.2</ele>
        <time>2014-06-27T08:04:35Z</time>
      </trkpt>
      <trkpt lat="46.19644" lon="6.7358">
        <ele>1738.2</ele>
        <time>2014-06-27T08:04:37Z</time>
      </trkpt>
      <trkpt lat="46.19676" lon="6.73629">
        <ele>1738.2</ele>
        <time>2014-06-27T08:04:46Z</time>
      </trkpt>
      <trkpt lat="46.19683" lon="6.73639">
        <ele>1738.2</ele>
        <time>2014-06-27T08:04:48Z</time>
      </trkpt>
      <trkpt lat="46.19709" lon="6.73675">
        <ele>1738.68</ele>
        <time>2014-06-27T08:04:56Z</time>
      </trkpt>
      <trkpt lat="46.19725" lon="6.73695">
        <ele>1739.16</ele>
        <time>2014-06-27T08:05:01Z</time>
      </trkpt>
      <trkpt lat="46.19735" lon="6.73707">
        <ele>1740.12</ele>
        <time>2014-06-27T08:05:04Z</time>
      </trkpt>
      <trkpt lat="46.19768" lon="6.73757">
        <ele>1741.57</ele>
        <time>2014-06-27T08:05:16Z</time>
      </trkpt>
      <trkpt lat="46.19796" lon="6.73803">
        <ele>1743.97</ele>
        <time>2014-06-27T08:05:30Z</time>
      </trkpt>
      <trkpt lat="46.19819" lon="6.73847">
        <ele>1745.41</ele>
        <time>2014-06-27T08:05:42Z</time>
      </trkpt>
      <trkpt lat="46.1984" lon="6.73893">
        <ele>1747.33</ele>
        <time>2014-06-27T08:05:54Z</time>
      </trkpt>
      <trkpt lat="46.19854" lon="6.73934">
        <ele>1749.26</ele>
        <time>2014-06-27T08:06:05Z</time>
      </trkpt>
      <trkpt lat="46.19886" lon="6.73986">
        <ele>1751.66</ele>
        <time>2014-06-27T08:06:20Z</time>
      </trkpt>
      <trkpt lat="46.19917" lon="6.74025">
        <ele>1753.1</ele>
        <time>2014-06-27T08:06:33Z</time>
      </trkpt>
      <trkpt lat="46.19947" lon="6.74072">
        <ele>1755.5</ele>
        <time>2014-06-27T08:06:47Z</time>
      </trkpt>
      <trkpt lat="46.19972" lon="6.74094">
        <ele>1757.91</ele>
        <time>2014-06-27T08:06:58Z</time>
      </trkpt>
      <trkpt lat="46.19984" lon="6.74113">
        <ele>1758.87</ele>
        <time>2014-06-27T08:07:11Z</time>
      </trkpt>
      <trkpt lat="46.19984" lon="6.74114">
        <ele>1758.87</ele>
        <time>2014-06-27T08:07:21Z</time>
      </trkpt>
      <trkpt lat="46.19987" lon="6.74119">
        <ele>1758.87</ele>
        <time>2014-06-27T08:07:23Z</time>
      </trkpt>
      <trkpt lat="46.19992" lon="6.74128">
        <ele>1758.87</ele>
        <time>2014-06-27T08:07:25Z</time>
      </trkpt>
      <trkpt lat="46.20008" lon="6.74164">
        <ele>1758.87</ele>
        <time>2014-06-27T08:07:29Z</time>
      </trkpt>
      <trkpt lat="46.2002" lon="6.74209">
        <ele>1753.1</ele>
        <time>2014-06-27T08:07:33Z</time>
      </trkpt>
      <trkpt lat="46.20036" lon="6.74251">
        <ele>1747.33</ele>
        <time>2014-06-27T08:07:37Z</time>
      </trkpt>
      <trkpt lat="46.2004" lon="6.7426">
        <ele>1746.85</ele>
        <time>2014-06-27T08:07:38Z</time>
      </trkpt>
      <trkpt lat="46.20053" lon="6.74285">
        <ele>1750.22</ele>
        <time>2014-06-27T08:07:42Z</time>
      </trkpt>
      <trkpt lat="46.20058" lon="6.74298">
        <ele>1755.02</ele>
        <time>2014-06-27T08:07:45Z</time>
      </trkpt>
      <trkpt lat="46.20063" lon="6.74307">
        <ele>1757.43</ele>
        <time>2014-06-27T08:07:47Z</time>
      </trkpt>
      <trkpt lat="46.20066" lon="6.74317">
        <ele>1758.87</ele>
        <time>2014-06-27T08:07:49Z</time>
      </trkpt>
      <trkpt lat="46.20069" lon="6.74341">
        <ele>1759.35</ele>
        <time>2014-06-27T08:07:54Z</time>
      </trkpt>
      <trkpt lat="46.20068" lon="6.74367">
        <ele>1755.99</ele>
        <time>2014-06-27T08:08:00Z</time>
      </trkpt>
      <trkpt lat="46.20065" lon="6.74402">
        <ele>1756.47</ele>
        <time>2014-06-27T08:08:11Z</time>
      </trkpt>
      <trkpt lat="46.20064" lon="6.74423">
        <ele>1755.99</ele>
        <time>2014-06-27T08:08:15Z</time>
      </trkpt>
      <trkpt lat="46.20073" lon="6.74481">
        <ele>1752.62</ele>
        <time>2014-06-27T08:08:21Z</time>
      </trkpt>
      <trkpt lat="46.20077" lon="6.74504">
        <ele>1750.22</ele>
        <time>2014-06-27T08:08:23Z</time>
      </trkpt>
      <trkpt lat="46.20085" lon="6.74549">
        <ele>1744.45</ele>
        <time>2014-06-27T08:08:27Z</time>
      </trkpt>
      <trkpt lat="46.20086" lon="6.7456">
        <ele>1743.49</ele>
        <time>2014-06-27T08:08:28Z</time>
      </trkpt>
      <trkpt lat="46.20091" lon="6.74594">
        <ele>1741.08</ele>
        <time>2014-06-27T08:08:31Z</time>
      </trkpt>
      <trkpt lat="46.20106" lon="6.74734">
        <ele>1739.64</ele>
        <time>2014-06-27T08:08:42Z</time>
      </trkpt>
      <trkpt lat="46.20112" lon="6.7482">
        <ele>1739.64</ele>
        <time>2014-06-27T08:08:48Z</time>
      </trkpt>
      <trkpt lat="46.20123" lon="6.74873">
        <ele>1740.6</ele>
        <time>2014-06-27T08:08:56Z</time>
      </trkpt>
      <trkpt lat="46.20131" lon="6.74909">
        <ele>1743.49</ele>
        <time>2014-06-27T08:09:10Z</time>
      </trkpt>
      <trkpt lat="46.20139" lon="6.74943">
        <ele>1746.37</ele>
        <time>2014-06-27T08:09:23Z</time>
      </trkpt>
      <trkpt lat="46.20147" lon="6.74989">
        <ele>1748.29</ele>
        <time>2014-06-27T08:09:39Z</time>
      </trkpt>
      <trkpt lat="46.20153" lon="6.75024">
        <ele>1750.7</ele>
        <time>2014-06-27T08:09:53Z</time>
      </trkpt>
      <trkpt lat="46.20161" lon="6.75054">
        <ele>1754.54</ele>
        <time>2014-06-27T08:10:06Z</time>
      </trkpt>
      <trkpt lat="46.2017" lon="6.75106">
        <ele>1755.5</ele>
        <time>2014-06-27T08:10:20Z</time>
      </trkpt>
      <trkpt lat="46.20171" lon="6.75135">
        <ele>1755.99</ele>
        <time>2014-06-27T08:10:27Z</time>
      </trkpt>
      <trkpt lat="46.20157" lon="6.75188">
        <ele>1755.99</ele>
        <time>2014-06-27T08:10:33Z</time>
      </trkpt>
      <trkpt lat="46.20155" lon="6.75212">
        <ele>1754.54</ele>
        <time>2014-06-27T08:10:35Z</time>
      </trkpt>
      <trkpt lat="46.20149" lon="6.75248">
        <ele>1751.66</ele>
        <time>2014-06-27T08:10:38Z</time>
      </trkpt>
      <trkpt lat="46.20149" lon="6.75298">
        <ele>1746.85</ele>
        <time>2014-06-27T08:10:42Z</time>
      </trkpt>
      <trkpt lat="46.20152" lon="6.75339">
        <ele>1747.33</ele>
        <time>2014-06-27T08:10:46Z</time>
      </trkpt>
      <trkpt lat="46.20155" lon="6.75358">
        <ele>1752.14</ele>
        <time>2014-06-27T08:10:49Z</time>
      </trkpt>
      <trkpt lat="46.20156" lon="6.75364">
        <ele>1755.02</ele>
        <time>2014-06-27T08:10:51Z</time>
      </trkpt>
      <trkpt lat="46.20157" lon="6.7537">
        <ele>1756.47</ele>
        <time>2014-06-27T08:10:53Z</time>
      </trkpt>
      <trkpt lat="46.20164" lon="6.75408">
        <ele>1757.43</ele>
        <time>2014-06-27T08:11:06Z</time>
      </trkpt>
      <trkpt lat="46.20171" lon="6.75437">
        <ele>1758.87</ele>
        <time>2014-06-27T08:11:15Z</time>
      </trkpt>
      <trkpt lat="46.20174" lon="6.75477">
        <ele>1761.75</ele>
        <time>2014-06-27T08:11:29Z</time>
      </trkpt>
      <trkpt lat="46.20169" lon="6.7553">
        <ele>1762.71</ele>
        <time>2014-06-27T08:11:43Z</time>
      </trkpt>
      <trkpt lat="46.20159" lon="6.75569">
        <ele>1763.2</ele>
        <time>2014-06-27T08:11:48Z</time>
      </trkpt>
      <trkpt lat="46.20148" lon="6.75624">
        <ele>1761.27</ele>
        <time>2014-06-27T08:11:55Z</time>
      </trkpt>
      <trkpt lat="46.2012" lon="6.75681">
        <ele>1759.83</ele>
        <time>2014-06-27T08:12:01Z</time>
      </trkpt>
      <trkpt lat="46.2011" lon="6.75703">
        <ele>1757.43</ele>
        <time>2014-06-27T08:12:03Z</time>
      </trkpt>
      <trkpt lat="46.20084" lon="6.75746">
        <ele>1752.14</ele>
        <time>2014-06-27T08:12:07Z</time>
      </trkpt>
      <trkpt lat="46.20073" lon="6.75766">
        <ele>1750.22</ele>
        <time>2014-06-27T08:12:09Z</time>
      </trkpt>
      <trkpt lat="46.20059" lon="6.75781">
        <ele>1749.26</ele>
        <time>2014-06-27T08:12:13Z</time>
      </trkpt>
      <trkpt lat="46.20056" lon="6.75783">
        <ele>1748.78</ele>
        <time>2014-06-27T08:12:15Z</time>
      </trkpt>
      <trkpt lat="46.20054" lon="6.75793">
        <ele>1748.78</ele>
        <time>2014-06-27T08:12:19Z</time>
      </trkpt>
      <trkpt lat="46.2005" lon="6.75806">
        <ele>1748.78</ele>
        <time>2014-06-27T08:12:25Z</time>
      </trkpt>
      <trkpt lat="46.20049" lon="6.7582">
        <ele>1750.22</ele>
        <time>2014-06-27T08:12:31Z</time>
      </trkpt>
      <trkpt lat="46.2005" lon="6.75839">
        <ele>1751.66</ele>
        <time>2014-06-27T08:12:37Z</time>
      </trkpt>
      <trkpt lat="46.20049" lon="6.75866">
        <ele>1755.5</ele>
        <time>2014-06-27T08:12:44Z</time>
      </trkpt>
      <trkpt lat="46.20048" lon="6.75868">
        <ele>1756.47</ele>
        <time>2014-06-27T08:12:45Z</time>
      </trkpt>
      <trkpt lat="46.20027" lon="6.75897">
        <ele>1757.43</ele>
        <time>2014-06-27T08:12:59Z</time>
      </trkpt>
      <trkpt lat="46.20013" lon="6.75922">
        <ele>1756.47</ele>
        <time>2014-06-27T08:13:08Z</time>
      </trkpt>
      <trkpt lat="46.2002" lon="6.75926">
        <ele>1755.5</ele>
        <time>2014-06-27T08:13:17Z</time>
      </trkpt>
      <trkpt lat="46.20022" lon="6.75927">
        <ele>1755.02</ele>
        <time>2014-06-27T08:13:21Z</time>
      </trkpt>
      <trkpt lat="46.20033" lon="6.75923">
        <ele>1754.54</ele>
        <time>2014-06-27T08:13:25Z</time>
      </trkpt>
      <trkpt lat="46.20036" lon="6.7594">
        <ele>1750.22</ele>
        <time>2014-06-27T08:13:29Z</time>
      </trkpt>
      <trkpt lat="46.20034" lon="6.75946">
        <ele>1749.26</ele>
        <time>2014-06-27T08:13:30Z</time>
      </trkpt>
      <trkpt lat="46.20024" lon="6.75968">
        <ele>1744.45</ele>
        <time>2014-06-27T08:13:34Z</time>
      </trkpt>
      <trkpt lat="46.20017" lon="6.75991">
        <ele>1740.12</ele>
        <time>2014-06-27T08:13:38Z</time>
      </trkpt>
      <trkpt lat="46.20018" lon="6.75995">
        <ele>1739.16</ele>
        <time>2014-06-27T08:13:39Z</time>
      </trkpt>
      <trkpt lat="46.20029" lon="6.76">
        <ele>1738.2</ele>
        <time>2014-06-27T08:13:43Z</time>
      </trkpt>
      <trkpt lat="46.20041" lon="6.76011">
        <ele>1732.43</ele>
        <time>2014-06-27T08:13:50Z</time>
      </trkpt>
      <trkpt lat="46.20043" lon="6.76031">
        <ele>1727.15</ele>
        <time>2014-06-27T08:13:55Z</time>
      </trkpt>
      <trkpt lat="46.20047" lon="6.76033">
        <ele>1726.67</ele>
        <time>2014-06-27T08:13:56Z</time>
      </trkpt>
      <trkpt lat="46.2006" lon="6.76048">
        <ele>1723.78</ele>
        <time>2014-06-27T08:13:59Z</time>
      </trkpt>
      <trkpt lat="46.20069" lon="6.76068">
        <ele>1720.42</ele>
        <time>2014-06-27T08:14:02Z</time>
      </trkpt>
      <trkpt lat="46.20066" lon="6.76093">
        <ele>1716.09</ele>
        <time>2014-06-27T08:14:06Z</time>
      </trkpt>
      <trkpt lat="46.2007" lon="6.76124">
        <ele>1713.21</ele>
        <time>2014-06-27T08:14:11Z</time>
      </trkpt>
      <trkpt lat="46.20066" lon="6.76139">
        <ele>1712.73</ele>
        <time>2014-06-27T08:14:14Z</time>
      </trkpt>
      <trkpt lat="46.2006" lon="6.76153">
        <ele>1709.84</ele>
        <time>2014-06-27T08:14:17Z</time>
      </trkpt>
      <trkpt lat="46.20055" lon="6.76174">
        <ele>1706.96</ele>
        <time>2014-06-27T08:14:21Z</time>
      </trkpt>
      <trkpt lat="46.20049" lon="6.76206">
        <ele>1702.63</ele>
        <time>2014-06-27T08:14:26Z</time>
      </trkpt>
      <trkpt lat="46.20051" lon="6.7624">
        <ele>1697.83</ele>
        <time>2014-06-27T08:14:31Z</time>
      </trkpt>
      <trkpt lat="46.20054" lon="6.76253">
        <ele>1696.38</ele>
        <time>2014-06-27T08:14:33Z</time>
      </trkpt>
      <trkpt lat="46.20056" lon="6.76285">
        <ele>1693.5</ele>
        <time>2014-06-27T08:14:37Z</time>
      </trkpt>
      <trkpt lat="46.20055" lon="6.76314">
        <ele>1692.06</ele>
        <time>2014-06-27T08:14:40Z</time>
      </trkpt>
      <trkpt lat="46.20058" lon="6.76367">
        <ele>1692.54</ele>
        <time>2014-06-27T08:14:45Z</time>
      </trkpt>
      <trkpt lat="46.20073" lon="6.76427">
        <ele>1692.54</ele>
        <time>2014-06-27T08:14:53Z</time>
      </trkpt>
      <trkpt lat="46.20078" lon="6.76441">
        <ele>1689.17</ele>
        <time>2014-06-27T08:14:56Z</time>
      </trkpt>
      <trkpt lat="46.20073" lon="6.76461">
        <ele>1684.85</ele>
        <time>2014-06-27T08:14:59Z</time>
      </trkpt>
      <trkpt lat="46.20071" lon="6.76484">
        <ele>1681</ele>
        <time>2014-06-27T08:15:02Z</time>
      </trkpt>
      <trkpt lat="46.20086" lon="6.76506">
        <ele>1678.12</ele>
        <time>2014-06-27T08:15:09Z</time>
      </trkpt>
      <trkpt lat="46.20089" lon="6.76508">
        <ele>1677.16</ele>
        <time>2014-06-27T08:15:11Z</time>
      </trkpt>
      <trkpt lat="46.20102" lon="6.76532">
        <ele>1672.83</ele>
        <time>2014-06-27T08:15:16Z</time>
      </trkpt>
      <trkpt lat="46.20122" lon="6.76564">
        <ele>1668.02</ele>
        <time>2014-06-27T08:15:21Z</time>
      </trkpt>
      <trkpt lat="46.20121" lon="6.76607">
        <ele>1668.02</ele>
        <time>2014-06-27T08:15:27Z</time>
      </trkpt>
      <trkpt lat="46.20114" lon="6.76638">
        <ele>1669.95</ele>
        <time>2014-06-27T08:15:30Z</time>
      </trkpt>
      <trkpt lat="46.20111" lon="6.7666">
        <ele>1669.47</ele>
        <time>2014-06-27T08:15:32Z</time>
      </trkpt>
      <trkpt lat="46.2011" lon="6.76679">
        <ele>1669.47</ele>
        <time>2014-06-27T08:15:34Z</time>
      </trkpt>
      <trkpt lat="46.20104" lon="6.7671">
        <ele>1666.58</ele>
        <time>2014-06-27T08:15:37Z</time>
      </trkpt>
      <trkpt lat="46.201" lon="6.7673">
        <ele>1663.7</ele>
        <time>2014-06-27T08:15:39Z</time>
      </trkpt>
      <trkpt lat="46.201" lon="6.76772">
        <ele>1658.41</ele>
        <time>2014-06-27T08:15:43Z</time>
      </trkpt>
      <trkpt lat="46.20096" lon="6.76833">
        <ele>1657.45</ele>
        <time>2014-06-27T08:15:50Z</time>
      </trkpt>
      <trkpt lat="46.2011" lon="6.76817">
        <ele>1657.93</ele>
        <time>2014-06-27T08:15:54Z</time>
      </trkpt>
      <trkpt lat="46.20112" lon="6.76814">
        <ele>1657.93</ele>
        <time>2014-06-27T08:15:55Z</time>
      </trkpt>
      <trkpt lat="46.20114" lon="6.76811">
        <ele>1654.57</ele>
        <time>2014-06-27T08:15:59Z</time>
      </trkpt>
      <trkpt lat="46.20115" lon="6.76809">
        <ele>1653.6</ele>
        <time>2014-06-27T08:16:00Z</time>
      </trkpt>
      <trkpt lat="46.20128" lon="6.76828">
        <ele>1651.68</ele>
        <time>2014-06-27T08:16:06Z</time>
      </trkpt>
      <trkpt lat="46.2015" lon="6.76863">
        <ele>1647.84</ele>
        <time>2014-06-27T08:16:12Z</time>
      </trkpt>
      <trkpt lat="46.20169" lon="6.76878">
        <ele>1643.99</ele>
        <time>2014-06-27T08:16:16Z</time>
      </trkpt>
      <trkpt lat="46.20176" lon="6.76879">
        <ele>1643.03</ele>
        <time>2014-06-27T08:16:17Z</time>
      </trkpt>
      <trkpt lat="46.20191" lon="6.76881">
        <ele>1642.07</ele>
        <time>2014-06-27T08:16:19Z</time>
      </trkpt>
      <trkpt lat="46.20228" lon="6.76891">
        <ele>1642.07</ele>
        <time>2014-06-27T08:16:25Z</time>
      </trkpt>
      <trkpt lat="46.2024" lon="6.76894">
        <ele>1641.59</ele>
        <time>2014-06-27T08:16:27Z</time>
      </trkpt>
      <trkpt lat="46.20268" lon="6.76891">
        <ele>1641.59</ele>
        <time>2014-06-27T08:16:31Z</time>
      </trkpt>
      <trkpt lat="46.203" lon="6.76888">
        <ele>1641.59</ele>
        <time>2014-06-27T08:16:40Z</time>
      </trkpt>
      <trkpt lat="46.20334" lon="6.76881">
        <ele>1640.63</ele>
        <time>2014-06-27T08:16:49Z</time>
      </trkpt>
      <trkpt lat="46.20367" lon="6.7687">
        <ele>1639.19</ele>
        <time>2014-06-27T08:16:57Z</time>
      </trkpt>
      <trkpt lat="46.20376" lon="6.76868">
        <ele>1639.19</ele>
        <time>2014-06-27T08:16:59Z</time>
      </trkpt>
      <trkpt lat="46.20403" lon="6.76857">
        <ele>1639.19</ele>
        <time>2014-06-27T08:17:04Z</time>
      </trkpt>
      <trkpt lat="46.20429" lon="6.76839">
        <ele>1639.19</ele>
        <time>2014-06-27T08:17:09Z</time>
      </trkpt>
      <trkpt lat="46.20437" lon="6.76836">
        <ele>1637.26</ele>
        <time>2014-06-27T08:17:12Z</time>
      </trkpt>
      <trkpt lat="46.20455" lon="6.76851">
        <ele>1631.98</ele>
        <time>2014-06-27T08:17:16Z</time>
      </trkpt>
      <trkpt lat="46.20463" lon="6.7686">
        <ele>1628.61</ele>
        <time>2014-06-27T08:17:18Z</time>
      </trkpt>
      <trkpt lat="46.20478" lon="6.76862">
        <ele>1625.73</ele>
        <time>2014-06-27T08:17:21Z</time>
      </trkpt>
      <trkpt lat="46.20492" lon="6.76887">
        <ele>1625.73</ele>
        <time>2014-06-27T08:17:26Z</time>
      </trkpt>
      <trkpt lat="46.20494" lon="6.76919">
        <ele>1625.73</ele>
        <time>2014-06-27T08:17:29Z</time>
      </trkpt>
      <trkpt lat="46.20496" lon="6.76954">
        <ele>1625.73</ele>
        <time>2014-06-27T08:17:32Z</time>
      </trkpt>
      <trkpt lat="46.20493" lon="6.77">
        <ele>1625.25</ele>
        <time>2014-06-27T08:17:36Z</time>
      </trkpt>
      <trkpt lat="46.20497" lon="6.7704">
        <ele>1623.8</ele>
        <time>2014-06-27T08:17:40Z</time>
      </trkpt>
      <trkpt lat="46.20502" lon="6.77058">
        <ele>1621.88</ele>
        <time>2014-06-27T08:17:42Z</time>
      </trkpt>
      <trkpt lat="46.20503" lon="6.77086">
        <ele>1616.59</ele>
        <time>2014-06-27T08:17:45Z</time>
      </trkpt>
      <trkpt lat="46.20502" lon="6.77096">
        <ele>1615.15</ele>
        <time>2014-06-27T08:17:46Z</time>
      </trkpt>
      <trkpt lat="46.20494" lon="6.77135">
        <ele>1612.75</ele>
        <time>2014-06-27T08:17:50Z</time>
      </trkpt>
      <trkpt lat="46.20493" lon="6.77159">
        <ele>1612.75</ele>
        <time>2014-06-27T08:17:52Z</time>
      </trkpt>
      <trkpt lat="46.20482" lon="6.77196">
        <ele>1616.11</ele>
        <time>2014-06-27T08:17:57Z</time>
      </trkpt>
      <trkpt lat="46.20481" lon="6.77203">
        <ele>1619.48</ele>
        <time>2014-06-27T08:18:00Z</time>
      </trkpt>
      <trkpt lat="46.2048" lon="6.77212">
        <ele>1621.4</ele>
        <time>2014-06-27T08:18:07Z</time>
      </trkpt>
      <trkpt lat="46.20484" lon="6.77227">
        <ele>1621.4</ele>
        <time>2014-06-27T08:18:12Z</time>
      </trkpt>
      <trkpt lat="46.20489" lon="6.77237">
        <ele>1620.44</ele>
        <time>2014-06-27T08:18:15Z</time>
      </trkpt>
      <trkpt lat="46.20487" lon="6.77258">
        <ele>1619.96</ele>
        <time>2014-06-27T08:18:19Z</time>
      </trkpt>
      <trkpt lat="46.20469" lon="6.77315">
        <ele>1617.56</ele>
        <time>2014-06-27T08:18:25Z</time>
      </trkpt>
      <trkpt lat="46.20449" lon="6.77352">
        <ele>1611.79</ele>
        <time>2014-06-27T08:18:29Z</time>
      </trkpt>
      <trkpt lat="46.20433" lon="6.77377">
        <ele>1607.46</ele>
        <time>2014-06-27T08:18:32Z</time>
      </trkpt>
      <trkpt lat="46.20416" lon="6.77406">
        <ele>1604.1</ele>
        <time>2014-06-27T08:18:36Z</time>
      </trkpt>
      <trkpt lat="46.20385" lon="6.77436">
        <ele>1603.62</ele>
        <time>2014-06-27T08:18:42Z</time>
      </trkpt>
      <trkpt lat="46.20358" lon="6.77507">
        <ele>1603.14</ele>
        <time>2014-06-27T08:18:51Z</time>
      </trkpt>
      <trkpt lat="46.20363" lon="6.77541">
        <ele>1603.14</ele>
        <time>2014-06-27T08:18:54Z</time>
      </trkpt>
      <trkpt lat="46.20364" lon="6.77602">
        <ele>1601.21</ele>
        <time>2014-06-27T08:19:00Z</time>
      </trkpt>
      <trkpt lat="46.20369" lon="6.77631">
        <ele>1597.85</ele>
        <time>2014-06-27T08:19:03Z</time>
      </trkpt>
      <trkpt lat="46.20385" lon="6.77652">
        <ele>1596.41</ele>
        <time>2014-06-27T08:19:08Z</time>
      </trkpt>
      <trkpt lat="46.20387" lon="6.77683">
        <ele>1599.29</ele>
        <time>2014-06-27T08:19:13Z</time>
      </trkpt>
      <trkpt lat="46.20375" lon="6.77712">
        <ele>1600.25</ele>
        <time>2014-06-27T08:19:17Z</time>
      </trkpt>
      <trkpt lat="46.20359" lon="6.77734">
        <ele>1597.85</ele>
        <time>2014-06-27T08:19:21Z</time>
      </trkpt>
      <trkpt lat="46.20335" lon="6.7778">
        <ele>1595.93</ele>
        <time>2014-06-27T08:19:28Z</time>
      </trkpt>
      <trkpt lat="46.20328" lon="6.7781">
        <ele>1595.93</ele>
        <time>2014-06-27T08:19:32Z</time>
      </trkpt>
      <trkpt lat="46.20334" lon="6.77835">
        <ele>1595.93</ele>
        <time>2014-06-27T08:19:36Z</time>
      </trkpt>
      <trkpt lat="46.20339" lon="6.77848">
        <ele>1595.93</ele>
        <time>2014-06-27T08:19:38Z</time>
      </trkpt>
      <trkpt lat="46.20346" lon="6.7788">
        <ele>1595.93</ele>
        <time>2014-06-27T08:19:42Z</time>
      </trkpt>
      <trkpt lat="46.20344" lon="6.77909">
        <ele>1595.93</ele>
        <time>2014-06-27T08:19:46Z</time>
      </trkpt>
      <trkpt lat="46.20342" lon="6.77931">
        <ele>1595.93</ele>
        <time>2014-06-27T08:19:52Z</time>
      </trkpt>
      <trkpt lat="46.20343" lon="6.77933">
        <ele>1595.93</ele>
        <time>2014-06-27T08:19:54Z</time>
      </trkpt>
      <trkpt lat="46.20343" lon="6.7793">
        <ele>1595.93</ele>
        <time>2014-06-27T08:19:58Z</time>
      </trkpt>
      <trkpt lat="46.20341" lon="6.77931">
        <ele>1595.93</ele>
        <time>2014-06-27T08:20:12Z</time>
      </trkpt>
      <trkpt lat="46.20341" lon="6.77931">
        <ele>1595.93</ele>
        <time>2014-06-27T08:20:34Z</time>
      </trkpt>
      <trkpt lat="46.20342" lon="6.7793">
        <ele>1595.93</ele>
        <time>2014-06-27T08:21:04Z</time>
      </trkpt>
      <trkpt lat="46.20342" lon="6.77931">
        <ele>1595.93</ele>
        <time>2014-06-27T08:21:27Z</time>
      </trkpt>
      <trkpt lat="46.20342" lon="6.77931">
        <ele>1595.93</ele>
        <time>2014-06-27T08:21:46Z</time>
      </trkpt>
      <trkpt lat="46.20342" lon="6.77931">
        <ele>1595.93</ele>
        <time>2014-06-27T08:21:56Z</time>
      </trkpt>
      <trkpt lat="46.20335" lon="6.77928">
        <ele>1595.93</ele>
        <time>2014-06-27T08:22:03Z</time>
      </trkpt>
      <trkpt lat="46.20301" lon="6.77959">
        <ele>1597.37</ele>
        <time>2014-06-27T08:22:14Z</time>
      </trkpt>
      <trkpt lat="46.20292" lon="6.78019">
        <ele>1597.37</ele>
        <time>2014-06-27T08:22:26Z</time>
      </trkpt>
      <trkpt lat="46.2028" lon="6.78047">
        <ele>1597.37</ele>
        <time>2014-06-27T08:22:35Z</time>
      </trkpt>
      <trkpt lat="46.20275" lon="6.78049">
        <ele>1597.37</ele>
        <time>2014-06-27T08:22:38Z</time>
      </trkpt>
      <trkpt lat="46.20265" lon="6.78064">
        <ele>1597.37</ele>
        <time>2014-06-27T08:22:43Z</time>
      </trkpt>
      <trkpt lat="46.2025" lon="6.78079">
        <ele>1597.37</ele>
        <time>2014-06-27T08:22:47Z</time>
      </trkpt>
      <trkpt lat="46.20237" lon="6.78101">
        <ele>1597.37</ele>
        <time>2014-06-27T08:22:51Z</time>
      </trkpt>
      <trkpt lat="46.20225" lon="6.78141">
        <ele>1597.37</ele>
        <time>2014-06-27T08:23:00Z</time>
      </trkpt>
      <trkpt lat="46.2022" lon="6.7816">
        <ele>1597.37</ele>
        <time>2014-06-27T08:23:03Z</time>
      </trkpt>
      <trkpt lat="46.20196" lon="6.78201">
        <ele>1597.37</ele>
        <time>2014-06-27T08:23:12Z</time>
      </trkpt>
      <trkpt lat="46.2019" lon="6.7821">
        <ele>1597.37</ele>
        <time>2014-06-27T08:23:14Z</time>
      </trkpt>
      <trkpt lat="46.2018" lon="6.78224">
        <ele>1597.37</ele>
        <time>2014-06-27T08:23:17Z</time>
      </trkpt>
      <trkpt lat="46.20157" lon="6.78262">
        <ele>1597.37</ele>
        <time>2014-06-27T08:23:26Z</time>
      </trkpt>
      <trkpt lat="46.20128" lon="6.78293">
        <ele>1597.37</ele>
        <time>2014-06-27T08:23:34Z</time>
      </trkpt>
      <trkpt lat="46.20116" lon="6.78333">
        <ele>1597.85</ele>
        <time>2014-06-27T08:23:44Z</time>
      </trkpt>
      <trkpt lat="46.20115" lon="6.78335">
        <ele>1597.85</ele>
        <time>2014-06-27T08:23:47Z</time>
      </trkpt>
      <trkpt lat="46.20094" lon="6.78375">
        <ele>1597.85</ele>
        <time>2014-06-27T08:23:58Z</time>
      </trkpt>
      <trkpt lat="46.20092" lon="6.7838">
        <ele>1597.85</ele>
        <time>2014-06-27T08:23:59Z</time>
      </trkpt>
      <trkpt lat="46.20083" lon="6.78411">
        <ele>1597.85</ele>
        <time>2014-06-27T08:24:04Z</time>
      </trkpt>
      <trkpt lat="46.20078" lon="6.78429">
        <ele>1597.85</ele>
        <time>2014-06-27T08:24:07Z</time>
      </trkpt>
      <trkpt lat="46.20068" lon="6.78454">
        <ele>1597.85</ele>
        <time>2014-06-27T08:24:11Z</time>
      </trkpt>
      <trkpt lat="46.20061" lon="6.78471">
        <ele>1597.85</ele>
        <time>2014-06-27T08:24:14Z</time>
      </trkpt>
      <trkpt lat="46.20054" lon="6.78494">
        <ele>1597.85</ele>
        <time>2014-06-27T08:24:18Z</time>
      </trkpt>
      <trkpt lat="46.20043" lon="6.78515">
        <ele>1597.85</ele>
        <time>2014-06-27T08:24:22Z</time>
      </trkpt>
      <trkpt lat="46.20033" lon="6.78547">
        <ele>1597.85</ele>
        <time>2014-06-27T08:24:27Z</time>
      </trkpt>
      <trkpt lat="46.20023" lon="6.78573">
        <ele>1597.85</ele>
        <time>2014-06-27T08:24:31Z</time>
      </trkpt>
      <trkpt lat="46.19998" lon="6.78589">
        <ele>1597.85</ele>
        <time>2014-06-27T08:24:37Z</time>
      </trkpt>
      <trkpt lat="46.1997" lon="6.78582">
        <ele>1596.41</ele>
        <time>2014-06-27T08:24:43Z</time>
      </trkpt>
      <trkpt lat="46.19936" lon="6.78587">
        <ele>1594</ele>
        <time>2014-06-27T08:24:53Z</time>
      </trkpt>
      <trkpt lat="46.19928" lon="6.78588">
        <ele>1594</ele>
        <time>2014-06-27T08:24:55Z</time>
      </trkpt>
      <trkpt lat="46.19919" lon="6.78592">
        <ele>1594</ele>
        <time>2014-06-27T08:24:57Z</time>
      </trkpt>
      <trkpt lat="46.19901" lon="6.78619">
        <ele>1593.04</ele>
        <time>2014-06-27T08:25:03Z</time>
      </trkpt>
      <trkpt lat="46.19895" lon="6.78636">
        <ele>1593.04</ele>
        <time>2014-06-27T08:25:09Z</time>
      </trkpt>
      <trkpt lat="46.19892" lon="6.78651">
        <ele>1592.56</ele>
        <time>2014-06-27T08:25:13Z</time>
      </trkpt>
      <trkpt lat="46.19881" lon="6.78704">
        <ele>1589.2</ele>
        <time>2014-06-27T08:25:19Z</time>
      </trkpt>
      <trkpt lat="46.19879" lon="6.78715">
        <ele>1587.75</ele>
        <time>2014-06-27T08:25:20Z</time>
      </trkpt>
      <trkpt lat="46.19878" lon="6.78737">
        <ele>1584.39</ele>
        <time>2014-06-27T08:25:22Z</time>
      </trkpt>
      <trkpt lat="46.19879" lon="6.78762">
        <ele>1579.58</ele>
        <time>2014-06-27T08:25:26Z</time>
      </trkpt>
      <trkpt lat="46.1988" lon="6.78766">
        <ele>1578.62</ele>
        <time>2014-06-27T08:25:28Z</time>
      </trkpt>
      <trkpt lat="46.1988" lon="6.78766">
        <ele>1579.58</ele>
        <time>2014-06-27T08:25:32Z</time>
      </trkpt>
      <trkpt lat="46.19888" lon="6.78765">
        <ele>1584.39</ele>
        <time>2014-06-27T08:25:37Z</time>
      </trkpt>
      <trkpt lat="46.19901" lon="6.78763">
        <ele>1584.87</ele>
        <time>2014-06-27T08:25:43Z</time>
      </trkpt>
      <trkpt lat="46.19904" lon="6.78763">
        <ele>1584.87</ele>
        <time>2014-06-27T08:25:45Z</time>
      </trkpt>
      <trkpt lat="46.19896" lon="6.7876">
        <ele>1583.43</ele>
        <time>2014-06-27T08:25:53Z</time>
      </trkpt>
      <trkpt lat="46.19906" lon="6.78762">
        <ele>1583.43</ele>
        <time>2014-06-27T08:25:59Z</time>
      </trkpt>
      <trkpt lat="46.19917" lon="6.78762">
        <ele>1583.43</ele>
        <time>2014-06-27T08:26:03Z</time>
      </trkpt>
      <trkpt lat="46.19955" lon="6.78761">
        <ele>1584.39</ele>
        <time>2014-06-27T08:26:15Z</time>
      </trkpt>
      <trkpt lat="46.19991" lon="6.78746">
        <ele>1586.31</ele>
        <time>2014-06-27T08:26:27Z</time>
      </trkpt>
      <trkpt lat="46.2001" lon="6.78727">
        <ele>1589.2</ele>
        <time>2014-06-27T08:26:35Z</time>
      </trkpt>
      <trkpt lat="46.20022" lon="6.78724">
        <ele>1593.04</ele>
        <time>2014-06-27T08:26:39Z</time>
      </trkpt>
      <trkpt lat="46.20063" lon="6.78724">
        <ele>1594.96</ele>
        <time>2014-06-27T08:26:53Z</time>
      </trkpt>
      <trkpt lat="46.2009" lon="6.78729">
        <ele>1595.45</ele>
        <time>2014-06-27T08:27:02Z</time>
      </trkpt>
      <trkpt lat="46.20109" lon="6.78732">
        <ele>1594</ele>
        <time>2014-06-27T08:27:07Z</time>
      </trkpt>
      <trkpt lat="46.20127" lon="6.78742">
        <ele>1594</ele>
        <time>2014-06-27T08:27:11Z</time>
      </trkpt>
      <trkpt lat="46.20161" lon="6.78739">
        <ele>1593.52</ele>
        <time>2014-06-27T08:27:18Z</time>
      </trkpt>
      <trkpt lat="46.20181" lon="6.78739">
        <ele>1592.08</ele>
        <time>2014-06-27T08:27:21Z</time>
      </trkpt>
      <trkpt lat="46.20195" lon="6.78744">
        <ele>1590.64</ele>
        <time>2014-06-27T08:27:23Z</time>
      </trkpt>
      <trkpt lat="46.20224" lon="6.78748">
        <ele>1585.35</ele>
        <time>2014-06-27T08:27:27Z</time>
      </trkpt>
      <trkpt lat="46.20239" lon="6.78747">
        <ele>1581.99</ele>
        <time>2014-06-27T08:27:29Z</time>
      </trkpt>
      <trkpt lat="46.20263" lon="6.78733">
        <ele>1576.22</ele>
        <time>2014-06-27T08:27:32Z</time>
      </trkpt>
      <trkpt lat="46.20287" lon="6.78709">
        <ele>1572.37</ele>
        <time>2014-06-27T08:27:35Z</time>
      </trkpt>
      <trkpt lat="46.20295" lon="6.78701">
        <ele>1571.41</ele>
        <time>2014-06-27T08:27:36Z</time>
      </trkpt>
      <trkpt lat="46.20373" lon="6.78627">
        <ele>1570.45</ele>
        <time>2014-06-27T08:27:47Z</time>
      </trkpt>
      <trkpt lat="46.20398" lon="6.78583">
        <ele>1570.45</ele>
        <time>2014-06-27T08:27:53Z</time>
      </trkpt>
      <trkpt lat="46.20448" lon="6.78542">
        <ele>1570.93</ele>
        <time>2014-06-27T08:28:02Z</time>
      </trkpt>
      <trkpt lat="46.20466" lon="6.78517">
        <ele>1570.93</ele>
        <time>2014-06-27T08:28:06Z</time>
      </trkpt>
      <trkpt lat="46.20474" lon="6.78501">
        <ele>1570.93</ele>
        <time>2014-06-27T08:28:08Z</time>
      </trkpt>
      <trkpt lat="46.20501" lon="6.78472">
        <ele>1570.45</ele>
        <time>2014-06-27T08:28:13Z</time>
      </trkpt>
      <trkpt lat="46.20528" lon="6.78434">
        <ele>1569.01</ele>
        <time>2014-06-27T08:28:19Z</time>
      </trkpt>
      <trkpt lat="46.20536" lon="6.78391">
        <ele>1566.61</ele>
        <time>2014-06-27T08:28:23Z</time>
      </trkpt>
      <trkpt lat="46.20538" lon="6.78342">
        <ele>1560.84</ele>
        <time>2014-06-27T08:28:27Z</time>
      </trkpt>
      <trkpt lat="46.20541" lon="6.7833">
        <ele>1559.4</ele>
        <time>2014-06-27T08:28:28Z</time>
      </trkpt>
      <trkpt lat="46.20554" lon="6.78299">
        <ele>1554.59</ele>
        <time>2014-06-27T08:28:31Z</time>
      </trkpt>
      <trkpt lat="46.20568" lon="6.78275">
        <ele>1550.26</ele>
        <time>2014-06-27T08:28:34Z</time>
      </trkpt>
      <trkpt lat="46.2063" lon="6.78182">
        <ele>1546.42</ele>
        <time>2014-06-27T08:28:44Z</time>
      </trkpt>
      <trkpt lat="46.2065" lon="6.78143">
        <ele>1542.09</ele>
        <time>2014-06-27T08:28:48Z</time>
      </trkpt>
      <trkpt lat="46.20667" lon="6.78111">
        <ele>1537.77</ele>
        <time>2014-06-27T08:28:51Z</time>
      </trkpt>
      <trkpt lat="46.20678" lon="6.78091">
        <ele>1534.4</ele>
        <time>2014-06-27T08:28:53Z</time>
      </trkpt>
      <trkpt lat="46.20688" lon="6.78073">
        <ele>1531.04</ele>
        <time>2014-06-27T08:28:55Z</time>
      </trkpt>
      <trkpt lat="46.20696" lon="6.78059">
        <ele>1527.67</ele>
        <time>2014-06-27T08:28:57Z</time>
      </trkpt>
      <trkpt lat="46.20704" lon="6.78044">
        <ele>1524.31</ele>
        <time>2014-06-27T08:29:00Z</time>
      </trkpt>
      <trkpt lat="46.20709" lon="6.78034">
        <ele>1523.83</ele>
        <time>2014-06-27T08:29:02Z</time>
      </trkpt>
      <trkpt lat="46.20721" lon="6.78005">
        <ele>1524.31</ele>
        <time>2014-06-27T08:29:06Z</time>
      </trkpt>
      <trkpt lat="46.20731" lon="6.77984">
        <ele>1524.31</ele>
        <time>2014-06-27T08:29:09Z</time>
      </trkpt>
      <trkpt lat="46.20745" lon="6.77952">
        <ele>1520.94</ele>
        <time>2014-06-27T08:29:13Z</time>
      </trkpt>
      <trkpt lat="46.20749" lon="6.77936">
        <ele>1518.54</ele>
        <time>2014-06-27T08:29:15Z</time>
      </trkpt>
      <trkpt lat="46.20751" lon="6.77912">
        <ele>1513.25</ele>
        <time>2014-06-27T08:29:19Z</time>
      </trkpt>
      <trkpt lat="46.20735" lon="6.77851">
        <ele>1509.41</ele>
        <time>2014-06-27T08:29:27Z</time>
      </trkpt>
      <trkpt lat="46.20712" lon="6.77801">
        <ele>1506.52</ele>
        <time>2014-06-27T08:29:33Z</time>
      </trkpt>
      <trkpt lat="46.20705" lon="6.77787">
        <ele>1505.08</ele>
        <time>2014-06-27T08:29:35Z</time>
      </trkpt>
      <trkpt lat="46.20707" lon="6.77739">
        <ele>1501.24</ele>
        <time>2014-06-27T08:29:43Z</time>
      </trkpt>
      <trkpt lat="46.20726" lon="6.77709">
        <ele>1501.24</ele>
        <time>2014-06-27T08:29:55Z</time>
      </trkpt>
      <trkpt lat="46.20729" lon="6.77704">
        <ele>1501.24</ele>
        <time>2014-06-27T08:30:06Z</time>
      </trkpt>
      <trkpt lat="46.20729" lon="6.77704">
        <ele>1501.24</ele>
        <time>2014-06-27T08:30:33Z</time>
      </trkpt>
      <trkpt lat="46.20729" lon="6.77704">
        <ele>1501.24</ele>
        <time>2014-06-27T08:31:03Z</time>
      </trkpt>
      <trkpt lat="46.20726" lon="6.77708">
        <ele>1501.24</ele>
        <time>2014-06-27T08:31:07Z</time>
      </trkpt>
      <trkpt lat="46.20715" lon="6.77721">
        <ele>1501.24</ele>
        <time>2014-06-27T08:31:25Z</time>
      </trkpt>
      <trkpt lat="46.20714" lon="6.77723">
        <ele>1502.2</ele>
        <time>2014-06-27T08:31:47Z</time>
      </trkpt>
      <trkpt lat="46.20709" lon="6.77729">
        <ele>1502.2</ele>
        <time>2014-06-27T08:32:11Z</time>
      </trkpt>
      <trkpt lat="46.20709" lon="6.77729">
        <ele>1502.2</ele>
        <time>2014-06-27T08:32:39Z</time>
      </trkpt>
      <trkpt lat="46.20704" lon="6.77733">
        <ele>1502.2</ele>
        <time>2014-06-27T08:32:57Z</time>
      </trkpt>
      <trkpt lat="46.20704" lon="6.77734">
        <ele>1502.2</ele>
        <time>2014-06-27T08:33:21Z</time>
      </trkpt>
      <trkpt lat="46.20704" lon="6.77734">
        <ele>1502.68</ele>
        <time>2014-06-27T08:33:38Z</time>
      </trkpt>
      <trkpt lat="46.20701" lon="6.77737">
        <ele>1502.68</ele>
        <time>2014-06-27T08:33:56Z</time>
      </trkpt>
      <trkpt lat="46.20701" lon="6.77737">
        <ele>1502.68</ele>
        <time>2014-06-27T08:34:21Z</time>
      </trkpt>
      <trkpt lat="46.20701" lon="6.77738">
        <ele>1502.68</ele>
        <time>2014-06-27T08:34:41Z</time>
      </trkpt>
      <trkpt lat="46.20699" lon="6.77742">
        <ele>1502.68</ele>
        <time>2014-06-27T08:35:09Z</time>
      </trkpt>
      <trkpt lat="46.20697" lon="6.77743">
        <ele>1502.68</ele>
        <time>2014-06-27T08:35:30Z</time>
      </trkpt>
      <trkpt lat="46.20697" lon="6.77744">
        <ele>1502.68</ele>
        <time>2014-06-27T08:35:55Z</time>
      </trkpt>
      <trkpt lat="46.20697" lon="6.77744">
        <ele>1502.68</ele>
        <time>2014-06-27T08:36:23Z</time>
      </trkpt>
      <trkpt lat="46.20697" lon="6.77745">
        <ele>1502.68</ele>
        <time>2014-06-27T08:36:58Z</time>
      </trkpt>
      <trkpt lat="46.20697" lon="6.77745">
        <ele>1502.68</ele>
        <time>2014-06-27T08:37:19Z</time>
      </trkpt>
      <trkpt lat="46.20696" lon="6.77748">
        <ele>1502.68</ele>
        <time>2014-06-27T08:37:41Z</time>
      </trkpt>
      <trkpt lat="46.20695" lon="6.77751">
        <ele>1502.68</ele>
        <time>2014-06-27T08:38:07Z</time>
      </trkpt>
      <trkpt lat="46.20694" lon="6.7776">
        <ele>1503.16</ele>
        <time>2014-06-27T08:38:28Z</time>
      </trkpt>
      <trkpt lat="46.20694" lon="6.7776">
        <ele>1503.16</ele>
        <time>2014-06-27T08:38:52Z</time>
      </trkpt>
      <trkpt lat="46.20692" lon="6.77766">
        <ele>1503.16</ele>
        <time>2014-06-27T08:39:08Z</time>
      </trkpt>
      <trkpt lat="46.20692" lon="6.77767">
        <ele>1503.64</ele>
        <time>2014-06-27T08:39:32Z</time>
      </trkpt>
      <trkpt lat="46.20691" lon="6.77772">
        <ele>1503.64</ele>
        <time>2014-06-27T08:39:47Z</time>
      </trkpt>
      <trkpt lat="46.20691" lon="6.77772">
        <ele>1503.64</ele>
        <time>2014-06-27T08:40:16Z</time>
      </trkpt>
      <trkpt lat="46.20691" lon="6.77772">
        <ele>1504.6</ele>
        <time>2014-06-27T08:40:32Z</time>
      </trkpt>
      <trkpt lat="46.20691" lon="6.77772">
        <ele>1504.6</ele>
        <time>2014-06-27T08:40:59Z</time>
      </trkpt>
      <trkpt lat="46.20692" lon="6.77773">
        <ele>1504.6</ele>
        <time>2014-06-27T08:41:19Z</time>
      </trkpt>
      <trkpt lat="46.20692" lon="6.77773">
        <ele>1504.6</ele>
        <time>2014-06-27T08:41:35Z</time>
      </trkpt>
      <trkpt lat="46.20692" lon="6.77775">
        <ele>1505.08</ele>
        <time>2014-06-27T08:42:02Z</time>
      </trkpt>
      <trkpt lat="46.20692" lon="6.77776">
        <ele>1505.08</ele>
        <time>2014-06-27T08:42:27Z</time>
      </trkpt>
      <trkpt lat="46.20692" lon="6.77776">
        <ele>1505.08</ele>
        <time>2014-06-27T08:42:56Z</time>
      </trkpt>
      <trkpt lat="46.20693" lon="6.77778">
        <ele>1505.08</ele>
        <time>2014-06-27T08:43:25Z</time>
      </trkpt>
      <trkpt lat="46.20693" lon="6.7778">
        <ele>1505.08</ele>
        <time>2014-06-27T08:43:44Z</time>
      </trkpt>
      <trkpt lat="46.20693" lon="6.7778">
        <ele>1505.08</ele>
        <time>2014-06-27T08:44:03Z</time>
      </trkpt>
      <trkpt lat="46.20693" lon="6.77782">
        <ele>1505.08</ele>
        <time>2014-06-27T08:44:31Z</time>
      </trkpt>
      <trkpt lat="46.20693" lon="6.77782">
        <ele>1505.08</ele>
        <time>2014-06-27T08:44:55Z</time>
      </trkpt>
      <trkpt lat="46.20694" lon="6.77784">
        <ele>1505.08</ele>
        <time>2014-06-27T08:45:25Z</time>
      </trkpt>
      <trkpt lat="46.20694" lon="6.77787">
        <ele>1505.08</ele>
        <time>2014-06-27T08:45:47Z</time>
      </trkpt>
      <trkpt lat="46.20694" lon="6.77787">
        <ele>1505.08</ele>
        <time>2014-06-27T08:46:07Z</time>
      </trkpt>
      <trkpt lat="46.20695" lon="6.77792">
        <ele>1505.08</ele>
        <time>2014-06-27T08:46:33Z</time>
      </trkpt>
      <trkpt lat="46.20696" lon="6.77797">
        <ele>1505.08</ele>
        <time>2014-06-27T08:46:51Z</time>
      </trkpt>
      <trkpt lat="46.20696" lon="6.77797">
        <ele>1505.56</ele>
        <time>2014-06-27T08:47:15Z</time>
      </trkpt>
      <trkpt lat="46.20696" lon="6.77801">
        <ele>1505.56</ele>
        <time>2014-06-27T08:47:29Z</time>
      </trkpt>
      <trkpt lat="46.20697" lon="6.77807">
        <ele>1505.56</ele>
        <time>2014-06-27T08:47:49Z</time>
      </trkpt>
      <trkpt lat="46.20697" lon="6.77807">
        <ele>1505.56</ele>
        <time>2014-06-27T08:48:08Z</time>
      </trkpt>
      <trkpt lat="46.20697" lon="6.77807">
        <ele>1505.56</ele>
        <time>2014-06-27T08:48:25Z</time>
      </trkpt>
      <trkpt lat="46.20702" lon="6.77821">
        <ele>1506.04</ele>
        <time>2014-06-27T08:48:38Z</time>
      </trkpt>
      <trkpt lat="46.20718" lon="6.77863">
        <ele>1506.52</ele>
        <time>2014-06-27T08:48:48Z</time>
      </trkpt>
      <trkpt lat="46.20725" lon="6.77881">
        <ele>1510.85</ele>
        <time>2014-06-27T08:48:52Z</time>
      </trkpt>
      <trkpt lat="46.20728" lon="6.77889">
        <ele>1515.18</ele>
        <time>2014-06-27T08:48:54Z</time>
      </trkpt>
      <trkpt lat="46.20731" lon="6.77897">
        <ele>1520.46</ele>
        <time>2014-06-27T08:48:56Z</time>
      </trkpt>
      <trkpt lat="46.20734" lon="6.77904">
        <ele>1525.27</ele>
        <time>2014-06-27T08:48:58Z</time>
      </trkpt>
      <trkpt lat="46.20737" lon="6.77913">
        <ele>1529.11</ele>
        <time>2014-06-27T08:49:00Z</time>
      </trkpt>
      <trkpt lat="46.20762" lon="6.77977">
        <ele>1532.96</ele>
        <time>2014-06-27T08:49:15Z</time>
      </trkpt>
      <trkpt lat="46.20766" lon="6.7799">
        <ele>1537.29</ele>
        <time>2014-06-27T08:49:18Z</time>
      </trkpt>
      <trkpt lat="46.2077" lon="6.77998">
        <ele>1540.65</ele>
        <time>2014-06-27T08:49:20Z</time>
      </trkpt>
      <trkpt lat="46.20773" lon="6.78006">
        <ele>1544.01</ele>
        <time>2014-06-27T08:49:22Z</time>
      </trkpt>
      <trkpt lat="46.20778" lon="6.78017">
        <ele>1547.86</ele>
        <time>2014-06-27T08:49:25Z</time>
      </trkpt>
      <trkpt lat="46.20783" lon="6.7803">
        <ele>1551.22</ele>
        <time>2014-06-27T08:49:28Z</time>
      </trkpt>
      <trkpt lat="46.20789" lon="6.78047">
        <ele>1554.59</ele>
        <time>2014-06-27T08:49:32Z</time>
      </trkpt>
      <trkpt lat="46.20795" lon="6.78063">
        <ele>1557.95</ele>
        <time>2014-06-27T08:49:36Z</time>
      </trkpt>
      <trkpt lat="46.208" lon="6.78075">
        <ele>1560.84</ele>
        <time>2014-06-27T08:49:39Z</time>
      </trkpt>
      <trkpt lat="46.20806" lon="6.78092">
        <ele>1564.68</ele>
        <time>2014-06-27T08:49:43Z</time>
      </trkpt>
      <trkpt lat="46.20814" lon="6.78112">
        <ele>1568.53</ele>
        <time>2014-06-27T08:49:48Z</time>
      </trkpt>
      <trkpt lat="46.20821" lon="6.78129">
        <ele>1571.89</ele>
        <time>2014-06-27T08:49:52Z</time>
      </trkpt>
      <trkpt lat="46.20825" lon="6.78141">
        <ele>1575.26</ele>
        <time>2014-06-27T08:49:55Z</time>
      </trkpt>
      <trkpt lat="46.2083" lon="6.78153">
        <ele>1579.1</ele>
        <time>2014-06-27T08:49:58Z</time>
      </trkpt>
      <trkpt lat="46.20832" lon="6.78157">
        <ele>1579.1</ele>
        <time>2014-06-27T08:49:59Z</time>
      </trkpt>
      <trkpt lat="46.20837" lon="6.7817">
        <ele>1582.95</ele>
        <time>2014-06-27T08:50:02Z</time>
      </trkpt>
      <trkpt lat="46.20841" lon="6.78182">
        <ele>1586.31</ele>
        <time>2014-06-27T08:50:05Z</time>
      </trkpt>
      <trkpt lat="46.20847" lon="6.78194">
        <ele>1590.16</ele>
        <time>2014-06-27T08:50:08Z</time>
      </trkpt>
      <trkpt lat="46.20851" lon="6.78205">
        <ele>1594</ele>
        <time>2014-06-27T08:50:11Z</time>
      </trkpt>
      <trkpt lat="46.20856" lon="6.78217">
        <ele>1597.85</ele>
        <time>2014-06-27T08:50:14Z</time>
      </trkpt>
      <trkpt lat="46.2086" lon="6.78229">
        <ele>1602.17</ele>
        <time>2014-06-27T08:50:17Z</time>
      </trkpt>
      <trkpt lat="46.20863" lon="6.78235">
        <ele>1605.06</ele>
        <time>2014-06-27T08:50:19Z</time>
      </trkpt>
      <trkpt lat="46.20866" lon="6.78245">
        <ele>1608.9</ele>
        <time>2014-06-27T08:50:22Z</time>
      </trkpt>
      <trkpt lat="46.2087" lon="6.78255">
        <ele>1611.31</ele>
        <time>2014-06-27T08:50:25Z</time>
      </trkpt>
      <trkpt lat="46.20875" lon="6.78267">
        <ele>1614.67</ele>
        <time>2014-06-27T08:50:28Z</time>
      </trkpt>
      <trkpt lat="46.20879" lon="6.78278">
        <ele>1619</ele>
        <time>2014-06-27T08:50:31Z</time>
      </trkpt>
      <trkpt lat="46.20882" lon="6.78286">
        <ele>1621.88</ele>
        <time>2014-06-27T08:50:33Z</time>
      </trkpt>
      <trkpt lat="46.20885" lon="6.78293">
        <ele>1625.73</ele>
        <time>2014-06-27T08:50:35Z</time>
      </trkpt>
      <trkpt lat="46.20888" lon="6.78301">
        <ele>1629.09</ele>
        <time>2014-06-27T08:50:37Z</time>
      </trkpt>
      <trkpt lat="46.20891" lon="6.78309">
        <ele>1632.94</ele>
        <time>2014-06-27T08:50:39Z</time>
      </trkpt>
      <trkpt lat="46.20894" lon="6.78317">
        <ele>1636.78</ele>
        <time>2014-06-27T08:50:41Z</time>
      </trkpt>
      <trkpt lat="46.20897" lon="6.78324">
        <ele>1640.15</ele>
        <time>2014-06-27T08:50:43Z</time>
      </trkpt>
      <trkpt lat="46.209" lon="6.78331">
        <ele>1643.51</ele>
        <time>2014-06-27T08:50:45Z</time>
      </trkpt>
      <trkpt lat="46.20903" lon="6.78339">
        <ele>1646.88</ele>
        <time>2014-06-27T08:50:47Z</time>
      </trkpt>
      <trkpt lat="46.20906" lon="6.78346">
        <ele>1650.24</ele>
        <time>2014-06-27T08:50:49Z</time>
      </trkpt>
      <trkpt lat="46.2091" lon="6.78358">
        <ele>1653.6</ele>
        <time>2014-06-27T08:50:52Z</time>
      </trkpt>
      <trkpt lat="46.20913" lon="6.78365">
        <ele>1657.45</ele>
        <time>2014-06-27T08:50:54Z</time>
      </trkpt>
      <trkpt lat="46.20916" lon="6.78373">
        <ele>1661.3</ele>
        <time>2014-06-27T08:50:56Z</time>
      </trkpt>
      <trkpt lat="46.20919" lon="6.7838">
        <ele>1665.14</ele>
        <time>2014-06-27T08:50:58Z</time>
      </trkpt>
      <trkpt lat="46.20922" lon="6.78387">
        <ele>1668.99</ele>
        <time>2014-06-27T08:51:00Z</time>
      </trkpt>
      <trkpt lat="46.20924" lon="6.78394">
        <ele>1673.31</ele>
        <time>2014-06-27T08:51:02Z</time>
      </trkpt>
      <trkpt lat="46.20927" lon="6.78402">
        <ele>1677.16</ele>
        <time>2014-06-27T08:51:04Z</time>
      </trkpt>
      <trkpt lat="46.2093" lon="6.78409">
        <ele>1681</ele>
        <time>2014-06-27T08:51:06Z</time>
      </trkpt>
      <trkpt lat="46.20933" lon="6.78416">
        <ele>1685.33</ele>
        <time>2014-06-27T08:51:08Z</time>
      </trkpt>
      <trkpt lat="46.20935" lon="6.78423">
        <ele>1689.17</ele>
        <time>2014-06-27T08:51:10Z</time>
      </trkpt>
      <trkpt lat="46.20938" lon="6.7843">
        <ele>1693.02</ele>
        <time>2014-06-27T08:51:12Z</time>
      </trkpt>
      <trkpt lat="46.20941" lon="6.78437">
        <ele>1697.34</ele>
        <time>2014-06-27T08:51:14Z</time>
      </trkpt>
      <trkpt lat="46.20945" lon="6.78449">
        <ele>1700.71</ele>
        <time>2014-06-27T08:51:17Z</time>
      </trkpt>
      <trkpt lat="46.20948" lon="6.78457">
        <ele>1704.07</ele>
        <time>2014-06-27T08:51:19Z</time>
      </trkpt>
      <trkpt lat="46.20952" lon="6.78468">
        <ele>1708.4</ele>
        <time>2014-06-27T08:51:22Z</time>
      </trkpt>
      <trkpt lat="46.20957" lon="6.7848">
        <ele>1712.73</ele>
        <time>2014-06-27T08:51:25Z</time>
      </trkpt>
      <trkpt lat="46.2096" lon="6.78487">
        <ele>1715.61</ele>
        <time>2014-06-27T08:51:27Z</time>
      </trkpt>
      <trkpt lat="46.20963" lon="6.78495">
        <ele>1718.97</ele>
        <time>2014-06-27T08:51:29Z</time>
      </trkpt>
      <trkpt lat="46.20966" lon="6.78502">
        <ele>1722.82</ele>
        <time>2014-06-27T08:51:31Z</time>
      </trkpt>
      <trkpt lat="46.20969" lon="6.7851">
        <ele>1726.67</ele>
        <time>2014-06-27T08:51:33Z</time>
      </trkpt>
      <trkpt lat="46.20971" lon="6.78517">
        <ele>1730.51</ele>
        <time>2014-06-27T08:51:35Z</time>
      </trkpt>
      <trkpt lat="46.20974" lon="6.78525">
        <ele>1734.36</ele>
        <time>2014-06-27T08:51:37Z</time>
      </trkpt>
      <trkpt lat="46.20977" lon="6.78532">
        <ele>1738.68</ele>
        <time>2014-06-27T08:51:39Z</time>
      </trkpt>
      <trkpt lat="46.2098" lon="6.78539">
        <ele>1742.05</ele>
        <time>2014-06-27T08:51:41Z</time>
      </trkpt>
      <trkpt lat="46.20983" lon="6.78546">
        <ele>1745.89</ele>
        <time>2014-06-27T08:51:43Z</time>
      </trkpt>
      <trkpt lat="46.20984" lon="6.7855">
        <ele>1746.37</ele>
        <time>2014-06-27T08:51:44Z</time>
      </trkpt>
      <trkpt lat="46.20987" lon="6.78557">
        <ele>1749.74</ele>
        <time>2014-06-27T08:51:46Z</time>
      </trkpt>
      <trkpt lat="46.2099" lon="6.78564">
        <ele>1753.58</ele>
        <time>2014-06-27T08:51:48Z</time>
      </trkpt>
      <trkpt lat="46.20993" lon="6.78571">
        <ele>1757.43</ele>
        <time>2014-06-27T08:51:50Z</time>
      </trkpt>
      <trkpt lat="46.20995" lon="6.78579">
        <ele>1761.27</ele>
        <time>2014-06-27T08:51:52Z</time>
      </trkpt>
      <trkpt lat="46.20998" lon="6.78586">
        <ele>1765.6</ele>
        <time>2014-06-27T08:51:54Z</time>
      </trkpt>
      <trkpt lat="46.21001" lon="6.78594">
        <ele>1769.92</ele>
        <time>2014-06-27T08:51:56Z</time>
      </trkpt>
      <trkpt lat="46.21004" lon="6.78601">
        <ele>1773.29</ele>
        <time>2014-06-27T08:51:58Z</time>
      </trkpt>
      <trkpt lat="46.21007" lon="6.78609">
        <ele>1776.17</ele>
        <time>2014-06-27T08:52:00Z</time>
      </trkpt>
      <trkpt lat="46.21012" lon="6.78621">
        <ele>1779.54</ele>
        <time>2014-06-27T08:52:03Z</time>
      </trkpt>
      <trkpt lat="46.21018" lon="6.78637">
        <ele>1783.38</ele>
        <time>2014-06-27T08:52:07Z</time>
      </trkpt>
      <trkpt lat="46.21024" lon="6.78652">
        <ele>1787.71</ele>
        <time>2014-06-27T08:52:11Z</time>
      </trkpt>
      <trkpt lat="46.21027" lon="6.7866">
        <ele>1791.07</ele>
        <time>2014-06-27T08:52:13Z</time>
      </trkpt>
      <trkpt lat="46.2103" lon="6.78668">
        <ele>1794.44</ele>
        <time>2014-06-27T08:52:15Z</time>
      </trkpt>
      <trkpt lat="46.21034" lon="6.78676">
        <ele>1798.28</ele>
        <time>2014-06-27T08:52:17Z</time>
      </trkpt>
      <trkpt lat="46.21036" lon="6.78683">
        <ele>1801.65</ele>
        <time>2014-06-27T08:52:19Z</time>
      </trkpt>
      <trkpt lat="46.21039" lon="6.7869">
        <ele>1805.49</ele>
        <time>2014-06-27T08:52:21Z</time>
      </trkpt>
      <trkpt lat="46.21042" lon="6.78698">
        <ele>1808.38</ele>
        <time>2014-06-27T08:52:23Z</time>
      </trkpt>
      <trkpt lat="46.21045" lon="6.78706">
        <ele>1811.74</ele>
        <time>2014-06-27T08:52:25Z</time>
      </trkpt>
      <trkpt lat="46.2105" lon="6.78718">
        <ele>1815.11</ele>
        <time>2014-06-27T08:52:28Z</time>
      </trkpt>
      <trkpt lat="46.21056" lon="6.78735">
        <ele>1818.95</ele>
        <time>2014-06-27T08:52:32Z</time>
      </trkpt>
      <trkpt lat="46.2106" lon="6.78745">
        <ele>1820.87</ele>
        <time>2014-06-27T08:52:35Z</time>
      </trkpt>
      <trkpt lat="46.21064" lon="6.78757">
        <ele>1824.72</ele>
        <time>2014-06-27T08:52:39Z</time>
      </trkpt>
      <trkpt lat="46.21068" lon="6.78766">
        <ele>1828.08</ele>
        <time>2014-06-27T08:52:42Z</time>
      </trkpt>
      <trkpt lat="46.21072" lon="6.78776">
        <ele>1831.45</ele>
        <time>2014-06-27T08:52:45Z</time>
      </trkpt>
      <trkpt lat="46.21076" lon="6.78787">
        <ele>1834.81</ele>
        <time>2014-06-27T08:52:48Z</time>
      </trkpt>
      <trkpt lat="46.21081" lon="6.78799">
        <ele>1839.14</ele>
        <time>2014-06-27T08:52:51Z</time>
      </trkpt>
      <trkpt lat="46.21084" lon="6.78807">
        <ele>1842.5</ele>
        <time>2014-06-27T08:52:53Z</time>
      </trkpt>
      <trkpt lat="46.21087" lon="6.78815">
        <ele>1845.87</ele>
        <time>2014-06-27T08:52:55Z</time>
      </trkpt>
      <trkpt lat="46.2109" lon="6.78823">
        <ele>1849.23</ele>
        <time>2014-06-27T08:52:57Z</time>
      </trkpt>
      <trkpt lat="46.21093" lon="6.78831">
        <ele>1852.12</ele>
        <time>2014-06-27T08:52:59Z</time>
      </trkpt>
      <trkpt lat="46.21096" lon="6.78839">
        <ele>1854.04</ele>
        <time>2014-06-27T08:53:01Z</time>
      </trkpt>
      <trkpt lat="46.21101" lon="6.78851">
        <ele>1858.37</ele>
        <time>2014-06-27T08:53:04Z</time>
      </trkpt>
      <trkpt lat="46.21106" lon="6.78863">
        <ele>1862.21</ele>
        <time>2014-06-27T08:53:07Z</time>
      </trkpt>
      <trkpt lat="46.21111" lon="6.78874">
        <ele>1865.58</ele>
        <time>2014-06-27T08:53:10Z</time>
      </trkpt>
      <trkpt lat="46.21115" lon="6.78886">
        <ele>1868.94</ele>
        <time>2014-06-27T08:53:13Z</time>
      </trkpt>
      <trkpt lat="46.2112" lon="6.78898">
        <ele>1872.79</ele>
        <time>2014-06-27T08:53:16Z</time>
      </trkpt>
      <trkpt lat="46.21125" lon="6.7891">
        <ele>1877.11</ele>
        <time>2014-06-27T08:53:19Z</time>
      </trkpt>
      <trkpt lat="46.21128" lon="6.78918">
        <ele>1880.48</ele>
        <time>2014-06-27T08:53:21Z</time>
      </trkpt>
      <trkpt lat="46.21131" lon="6.78926">
        <ele>1883.36</ele>
        <time>2014-06-27T08:53:23Z</time>
      </trkpt>
      <trkpt lat="46.21134" lon="6.78934">
        <ele>1886.72</ele>
        <time>2014-06-27T08:53:25Z</time>
      </trkpt>
      <trkpt lat="46.21137" lon="6.78941">
        <ele>1890.09</ele>
        <time>2014-06-27T08:53:27Z</time>
      </trkpt>
      <trkpt lat="46.21138" lon="6.78945">
        <ele>1890.09</ele>
        <time>2014-06-27T08:53:28Z</time>
      </trkpt>
      <trkpt lat="46.21143" lon="6.78957">
        <ele>1894.9</ele>
        <time>2014-06-27T08:53:31Z</time>
      </trkpt>
      <trkpt lat="46.21146" lon="6.78965">
        <ele>1897.78</ele>
        <time>2014-06-27T08:53:33Z</time>
      </trkpt>
      <trkpt lat="46.21149" lon="6.78973">
        <ele>1901.14</ele>
        <time>2014-06-27T08:53:35Z</time>
      </trkpt>
      <trkpt lat="46.21152" lon="6.78981">
        <ele>1904.03</ele>
        <time>2014-06-27T08:53:37Z</time>
      </trkpt>
      <trkpt lat="46.21155" lon="6.78988">
        <ele>1907.39</ele>
        <time>2014-06-27T08:53:39Z</time>
      </trkpt>
      <trkpt lat="46.21159" lon="6.78997">
        <ele>1910.76</ele>
        <time>2014-06-27T08:53:41Z</time>
      </trkpt>
      <trkpt lat="46.21163" lon="6.7901">
        <ele>1914.12</ele>
        <time>2014-06-27T08:53:44Z</time>
      </trkpt>
      <trkpt lat="46.21167" lon="6.79018">
        <ele>1915.08</ele>
        <time>2014-06-27T08:53:46Z</time>
      </trkpt>
      <trkpt lat="46.21172" lon="6.79033">
        <ele>1911.24</ele>
        <time>2014-06-27T08:53:52Z</time>
      </trkpt>
      <trkpt lat="46.21173" lon="6.79034">
        <ele>1909.8</ele>
        <time>2014-06-27T08:53:56Z</time>
      </trkpt>
      <trkpt lat="46.21177" lon="6.79046">
        <ele>1909.32</ele>
        <time>2014-06-27T08:54:05Z</time>
      </trkpt>
      <trkpt lat="46.21186" lon="6.79049">
        <ele>1909.32</ele>
        <time>2014-06-27T08:54:11Z</time>
      </trkpt>
      <trkpt lat="46.21185" lon="6.7905">
        <ele>1909.32</ele>
        <time>2014-06-27T08:54:41Z</time>
      </trkpt>
      <trkpt lat="46.21185" lon="6.7905">
        <ele>1909.32</ele>
        <time>2014-06-27T08:55:03Z</time>
      </trkpt>
      <trkpt lat="46.21185" lon="6.7905">
        <ele>1909.32</ele>
        <time>2014-06-27T08:55:35Z</time>
      </trkpt>
      <trkpt lat="46.21196" lon="6.79036">
        <ele>1909.32</ele>
        <time>2014-06-27T08:55:58Z</time>
      </trkpt>
      <trkpt lat="46.21237" lon="6.79008">
        <ele>1908.35</ele>
        <time>2014-06-27T08:56:08Z</time>
      </trkpt>
      <trkpt lat="46.21244" lon="6.78998">
        <ele>1907.87</ele>
        <time>2014-06-27T08:56:10Z</time>
      </trkpt>
      <trkpt lat="46.21258" lon="6.78976">
        <ele>1907.87</ele>
        <time>2014-06-27T08:56:15Z</time>
      </trkpt>
      <trkpt lat="46.21269" lon="6.78949">
        <ele>1907.87</ele>
        <time>2014-06-27T08:56:20Z</time>
      </trkpt>
      <trkpt lat="46.21285" lon="6.78906">
        <ele>1907.87</ele>
        <time>2014-06-27T08:56:31Z</time>
      </trkpt>
      <trkpt lat="46.2129" lon="6.78894">
        <ele>1907.39</ele>
        <time>2014-06-27T08:56:33Z</time>
      </trkpt>
      <trkpt lat="46.21304" lon="6.78867">
        <ele>1906.91</ele>
        <time>2014-06-27T08:56:37Z</time>
      </trkpt>
      <trkpt lat="46.2132" lon="6.78845">
        <ele>1906.43</ele>
        <time>2014-06-27T08:56:41Z</time>
      </trkpt>
      <trkpt lat="46.21341" lon="6.78814">
        <ele>1905.95</ele>
        <time>2014-06-27T08:56:47Z</time>
      </trkpt>
      <trkpt lat="46.21368" lon="6.78761">
        <ele>1902.59</ele>
        <time>2014-06-27T08:56:53Z</time>
      </trkpt>
      <trkpt lat="46.21386" lon="6.78715">
        <ele>1898.74</ele>
        <time>2014-06-27T08:56:57Z</time>
      </trkpt>
      <trkpt lat="46.21411" lon="6.78679">
        <ele>1894.42</ele>
        <time>2014-06-27T08:57:01Z</time>
      </trkpt>
      <trkpt lat="46.21432" lon="6.7866">
        <ele>1892.01</ele>
        <time>2014-06-27T08:57:04Z</time>
      </trkpt>
      <trkpt lat="46.21462" lon="6.78621">
        <ele>1888.17</ele>
        <time>2014-06-27T08:57:09Z</time>
      </trkpt>
      <trkpt lat="46.21475" lon="6.78604">
        <ele>1885.76</ele>
        <time>2014-06-27T08:57:11Z</time>
      </trkpt>
      <trkpt lat="46.21511" lon="6.78576">
        <ele>1881.44</ele>
        <time>2014-06-27T08:57:16Z</time>
      </trkpt>
      <trkpt lat="46.21522" lon="6.78569">
        <ele>1885.76</ele>
        <time>2014-06-27T08:57:20Z</time>
      </trkpt>
      <trkpt lat="46.21526" lon="6.78565">
        <ele>1889.61</ele>
        <time>2014-06-27T08:57:22Z</time>
      </trkpt>
      <trkpt lat="46.21533" lon="6.78555">
        <ele>1893.45</ele>
        <time>2014-06-27T08:57:26Z</time>
      </trkpt>
      <trkpt lat="46.21551" lon="6.78529">
        <ele>1890.09</ele>
        <time>2014-06-27T08:57:37Z</time>
      </trkpt>
      <trkpt lat="46.21568" lon="6.78488">
        <ele>1892.01</ele>
        <time>2014-06-27T08:57:48Z</time>
      </trkpt>
      <trkpt lat="46.21574" lon="6.78475">
        <ele>1892.01</ele>
        <time>2014-06-27T08:57:50Z</time>
      </trkpt>
      <trkpt lat="46.21607" lon="6.78419">
        <ele>1892.01</ele>
        <time>2014-06-27T08:57:58Z</time>
      </trkpt>
      <trkpt lat="46.2162" lon="6.7837">
        <ele>1892.01</ele>
        <time>2014-06-27T08:58:03Z</time>
      </trkpt>
      <trkpt lat="46.21623" lon="6.7835">
        <ele>1892.01</ele>
        <time>2014-06-27T08:58:05Z</time>
      </trkpt>
      <trkpt lat="46.21626" lon="6.7833">
        <ele>1892.01</ele>
        <time>2014-06-27T08:58:07Z</time>
      </trkpt>
      <trkpt lat="46.21629" lon="6.78274">
        <ele>1892.01</ele>
        <time>2014-06-27T08:58:13Z</time>
      </trkpt>
      <trkpt lat="46.21628" lon="6.78241">
        <ele>1892.01</ele>
        <time>2014-06-27T08:58:17Z</time>
      </trkpt>
      <trkpt lat="46.21629" lon="6.78207">
        <ele>1890.57</ele>
        <time>2014-06-27T08:58:21Z</time>
      </trkpt>
      <trkpt lat="46.21627" lon="6.78163">
        <ele>1886.24</ele>
        <time>2014-06-27T08:58:26Z</time>
      </trkpt>
      <trkpt lat="46.21626" lon="6.78144">
        <ele>1885.28</ele>
        <time>2014-06-27T08:58:34Z</time>
      </trkpt>
      <trkpt lat="46.21629" lon="6.78129">
        <ele>1886.24</ele>
        <time>2014-06-27T08:58:40Z</time>
      </trkpt>
      <trkpt lat="46.21647" lon="6.78094">
        <ele>1886.72</ele>
        <time>2014-06-27T08:58:51Z</time>
      </trkpt>
      <trkpt lat="46.21653" lon="6.78081">
        <ele>1886.72</ele>
        <time>2014-06-27T08:58:53Z</time>
      </trkpt>
      <trkpt lat="46.21658" lon="6.78067">
        <ele>1886.72</ele>
        <time>2014-06-27T08:58:55Z</time>
      </trkpt>
      <trkpt lat="46.21692" lon="6.78007">
        <ele>1883.36</ele>
        <time>2014-06-27T08:59:04Z</time>
      </trkpt>
      <trkpt lat="46.21715" lon="6.77987">
        <ele>1883.36</ele>
        <time>2014-06-27T08:59:09Z</time>
      </trkpt>
      <trkpt lat="46.21733" lon="6.77971">
        <ele>1883.36</ele>
        <time>2014-06-27T08:59:13Z</time>
      </trkpt>
      <trkpt lat="46.21755" lon="6.77947">
        <ele>1880</ele>
        <time>2014-06-27T08:59:17Z</time>
      </trkpt>
      <trkpt lat="46.21766" lon="6.77941">
        <ele>1876.63</ele>
        <time>2014-06-27T08:59:19Z</time>
      </trkpt>
      <trkpt lat="46.21774" lon="6.77929">
        <ele>1873.75</ele>
        <time>2014-06-27T08:59:21Z</time>
      </trkpt>
      <trkpt lat="46.21809" lon="6.779">
        <ele>1869.42</ele>
        <time>2014-06-27T08:59:28Z</time>
      </trkpt>
      <trkpt lat="46.21831" lon="6.77877">
        <ele>1871.34</ele>
        <time>2014-06-27T08:59:33Z</time>
      </trkpt>
      <trkpt lat="46.21868" lon="6.77838">
        <ele>1868.46</ele>
        <time>2014-06-27T08:59:39Z</time>
      </trkpt>
      <trkpt lat="46.21881" lon="6.77829">
        <ele>1866.54</ele>
        <time>2014-06-27T08:59:41Z</time>
      </trkpt>
      <trkpt lat="46.21902" lon="6.77803">
        <ele>1864.61</ele>
        <time>2014-06-27T08:59:45Z</time>
      </trkpt>
      <trkpt lat="46.2191" lon="6.778">
        <ele>1864.61</ele>
        <time>2014-06-27T08:59:49Z</time>
      </trkpt>
      <trkpt lat="46.21922" lon="6.77855">
        <ele>1865.09</ele>
        <time>2014-06-27T08:59:56Z</time>
      </trkpt>
      <trkpt lat="46.21925" lon="6.77875">
        <ele>1861.25</ele>
        <time>2014-06-27T08:59:58Z</time>
      </trkpt>
      <trkpt lat="46.21927" lon="6.77882">
        <ele>1860.29</ele>
        <time>2014-06-27T08:59:59Z</time>
      </trkpt>
      <trkpt lat="46.21938" lon="6.77904">
        <ele>1853.56</ele>
        <time>2014-06-27T09:00:03Z</time>
      </trkpt>
      <trkpt lat="46.21944" lon="6.77896">
        <ele>1850.19</ele>
        <time>2014-06-27T09:00:06Z</time>
      </trkpt>
      <trkpt lat="46.21939" lon="6.77881">
        <ele>1849.71</ele>
        <time>2014-06-27T09:00:09Z</time>
      </trkpt>
      <trkpt lat="46.21948" lon="6.77884">
        <ele>1848.27</ele>
        <time>2014-06-27T09:00:16Z</time>
      </trkpt>
      <trkpt lat="46.21965" lon="6.77908">
        <ele>1848.27</ele>
        <time>2014-06-27T09:00:20Z</time>
      </trkpt>
      <trkpt lat="46.21977" lon="6.77933">
        <ele>1845.39</ele>
        <time>2014-06-27T09:00:23Z</time>
      </trkpt>
      <trkpt lat="46.21986" lon="6.77965">
        <ele>1840.58</ele>
        <time>2014-06-27T09:00:27Z</time>
      </trkpt>
      <trkpt lat="46.21988" lon="6.77973">
        <ele>1839.14</ele>
        <time>2014-06-27T09:00:28Z</time>
      </trkpt>
      <trkpt lat="46.2199" lon="6.77989">
        <ele>1837.22</ele>
        <time>2014-06-27T09:00:30Z</time>
      </trkpt>
      <trkpt lat="46.21998" lon="6.77974">
        <ele>1834.33</ele>
        <time>2014-06-27T09:00:35Z</time>
      </trkpt>
      <trkpt lat="46.21989" lon="6.77913">
        <ele>1830.97</ele>
        <time>2014-06-27T09:00:41Z</time>
      </trkpt>
      <trkpt lat="46.21989" lon="6.77893">
        <ele>1828.08</ele>
        <time>2014-06-27T09:00:45Z</time>
      </trkpt>
      <trkpt lat="46.21992" lon="6.77896">
        <ele>1827.12</ele>
        <time>2014-06-27T09:00:46Z</time>
      </trkpt>
      <trkpt lat="46.22002" lon="6.77885">
        <ele>1821.35</ele>
        <time>2014-06-27T09:00:51Z</time>
      </trkpt>
      <trkpt lat="46.22002" lon="6.77877">
        <ele>1821.35</ele>
        <time>2014-06-27T09:00:52Z</time>
      </trkpt>
      <trkpt lat="46.21998" lon="6.77852">
        <ele>1817.99</ele>
        <time>2014-06-27T09:00:56Z</time>
      </trkpt>
      <trkpt lat="46.22015" lon="6.77866">
        <ele>1816.07</ele>
        <time>2014-06-27T09:01:00Z</time>
      </trkpt>
      <trkpt lat="46.22031" lon="6.77888">
        <ele>1813.66</ele>
        <time>2014-06-27T09:01:03Z</time>
      </trkpt>
      <trkpt lat="46.22043" lon="6.77921">
        <ele>1809.34</ele>
        <time>2014-06-27T09:01:06Z</time>
      </trkpt>
      <trkpt lat="46.2206" lon="6.77944">
        <ele>1803.09</ele>
        <time>2014-06-27T09:01:09Z</time>
      </trkpt>
      <trkpt lat="46.22065" lon="6.77966">
        <ele>1799.24</ele>
        <time>2014-06-27T09:01:11Z</time>
      </trkpt>
      <trkpt lat="46.2206" lon="6.77989">
        <ele>1795.88</ele>
        <time>2014-06-27T09:01:13Z</time>
      </trkpt>
      <trkpt lat="46.22056" lon="6.77998">
        <ele>1794.92</ele>
        <time>2014-06-27T09:01:14Z</time>
      </trkpt>
      <trkpt lat="46.22037" lon="6.78036">
        <ele>1795.4</ele>
        <time>2014-06-27T09:01:19Z</time>
      </trkpt>
      <trkpt lat="46.22032" lon="6.78059">
        <ele>1799.24</ele>
        <time>2014-06-27T09:01:22Z</time>
      </trkpt>
      <trkpt lat="46.22029" lon="6.781">
        <ele>1803.09</ele>
        <time>2014-06-27T09:01:27Z</time>
      </trkpt>
      <trkpt lat="46.22031" lon="6.78127">
        <ele>1803.09</ele>
        <time>2014-06-27T09:01:30Z</time>
      </trkpt>
      <trkpt lat="46.22044" lon="6.78181">
        <ele>1797.8</ele>
        <time>2014-06-27T09:01:36Z</time>
      </trkpt>
      <trkpt lat="46.22043" lon="6.78211">
        <ele>1796.84</ele>
        <time>2014-06-27T09:01:39Z</time>
      </trkpt>
      <trkpt lat="46.22034" lon="6.78264">
        <ele>1796.36</ele>
        <time>2014-06-27T09:01:45Z</time>
      </trkpt>
      <trkpt lat="46.22028" lon="6.78293">
        <ele>1796.36</ele>
        <time>2014-06-27T09:01:48Z</time>
      </trkpt>
      <trkpt lat="46.2201" lon="6.7832">
        <ele>1795.4</ele>
        <time>2014-06-27T09:01:52Z</time>
      </trkpt>
      <trkpt lat="46.21971" lon="6.78354">
        <ele>1793.48</ele>
        <time>2014-06-27T09:02:00Z</time>
      </trkpt>
      <trkpt lat="46.21963" lon="6.78374">
        <ele>1789.63</ele>
        <time>2014-06-27T09:02:03Z</time>
      </trkpt>
      <trkpt lat="46.21955" lon="6.78388">
        <ele>1786.27</ele>
        <time>2014-06-27T09:02:05Z</time>
      </trkpt>
      <trkpt lat="46.21948" lon="6.784">
        <ele>1783.38</ele>
        <time>2014-06-27T09:02:07Z</time>
      </trkpt>
      <trkpt lat="46.21955" lon="6.78404">
        <ele>1781.94</ele>
        <time>2014-06-27T09:02:09Z</time>
      </trkpt>
      <trkpt lat="46.21972" lon="6.78394">
        <ele>1779.54</ele>
        <time>2014-06-27T09:02:12Z</time>
      </trkpt>
      <trkpt lat="46.21993" lon="6.78374">
        <ele>1778.58</ele>
        <time>2014-06-27T09:02:16Z</time>
      </trkpt>
      <trkpt lat="46.22023" lon="6.78362">
        <ele>1778.58</ele>
        <time>2014-06-27T09:02:22Z</time>
      </trkpt>
      <trkpt lat="46.22042" lon="6.78341">
        <ele>1774.73</ele>
        <time>2014-06-27T09:02:27Z</time>
      </trkpt>
      <trkpt lat="46.22047" lon="6.78332">
        <ele>1770.89</ele>
        <time>2014-06-27T09:02:29Z</time>
      </trkpt>
      <trkpt lat="46.22049" lon="6.78338">
        <ele>1767.04</ele>
        <time>2014-06-27T09:02:31Z</time>
      </trkpt>
      <trkpt lat="46.22049" lon="6.7835">
        <ele>1764.16</ele>
        <time>2014-06-27T09:02:33Z</time>
      </trkpt>
      <trkpt lat="46.22056" lon="6.78357">
        <ele>1762.23</ele>
        <time>2014-06-27T09:02:36Z</time>
      </trkpt>
      <trkpt lat="46.22059" lon="6.7835">
        <ele>1761.27</ele>
        <time>2014-06-27T09:02:37Z</time>
      </trkpt>
      <trkpt lat="46.22073" lon="6.78325">
        <ele>1760.31</ele>
        <time>2014-06-27T09:02:43Z</time>
      </trkpt>
      <trkpt lat="46.22067" lon="6.78356">
        <ele>1759.83</ele>
        <time>2014-06-27T09:02:47Z</time>
      </trkpt>
      <trkpt lat="46.22049" lon="6.78398">
        <ele>1754.54</ele>
        <time>2014-06-27T09:02:52Z</time>
      </trkpt>
      <trkpt lat="46.2204" lon="6.78412">
        <ele>1752.14</ele>
        <time>2014-06-27T09:02:54Z</time>
      </trkpt>
      <trkpt lat="46.22033" lon="6.78426">
        <ele>1749.74</ele>
        <time>2014-06-27T09:02:56Z</time>
      </trkpt>
      <trkpt lat="46.2202" lon="6.78461">
        <ele>1744.93</ele>
        <time>2014-06-27T09:03:00Z</time>
      </trkpt>
      <trkpt lat="46.22007" lon="6.7849">
        <ele>1742.05</ele>
        <time>2014-06-27T09:03:04Z</time>
      </trkpt>
      <trkpt lat="46.21972" lon="6.78512">
        <ele>1739.64</ele>
        <time>2014-06-27T09:03:10Z</time>
      </trkpt>
      <trkpt lat="46.21943" lon="6.78533">
        <ele>1739.64</ele>
        <time>2014-06-27T09:03:16Z</time>
      </trkpt>
      <trkpt lat="46.21908" lon="6.78553">
        <ele>1737.72</ele>
        <time>2014-06-27T09:03:21Z</time>
      </trkpt>
      <trkpt lat="46.21891" lon="6.78566">
        <ele>1733.88</ele>
        <time>2014-06-27T09:03:24Z</time>
      </trkpt>
      <trkpt lat="46.2187" lon="6.78593">
        <ele>1728.59</ele>
        <time>2014-06-27T09:03:28Z</time>
      </trkpt>
      <trkpt lat="46.21864" lon="6.786">
        <ele>1728.59</ele>
        <time>2014-06-27T09:03:29Z</time>
      </trkpt>
      <trkpt lat="46.21846" lon="6.78618">
        <ele>1725.7</ele>
        <time>2014-06-27T09:03:33Z</time>
      </trkpt>
      <trkpt lat="46.21838" lon="6.78654">
        <ele>1724.26</ele>
        <time>2014-06-27T09:03:38Z</time>
      </trkpt>
      <trkpt lat="46.21832" lon="6.78665">
        <ele>1724.26</ele>
        <time>2014-06-27T09:03:40Z</time>
      </trkpt>
      <trkpt lat="46.21814" lon="6.78702">
        <ele>1724.26</ele>
        <time>2014-06-27T09:03:45Z</time>
      </trkpt>
      <trkpt lat="46.21793" lon="6.78729">
        <ele>1722.82</ele>
        <time>2014-06-27T09:03:49Z</time>
      </trkpt>
      <trkpt lat="46.21779" lon="6.78767">
        <ele>1718.01</ele>
        <time>2014-06-27T09:03:53Z</time>
      </trkpt>
      <trkpt lat="46.21772" lon="6.78785">
        <ele>1716.57</ele>
        <time>2014-06-27T09:03:55Z</time>
      </trkpt>
      <trkpt lat="46.21754" lon="6.788">
        <ele>1713.21</ele>
        <time>2014-06-27T09:03:58Z</time>
      </trkpt>
      <trkpt lat="46.21741" lon="6.78848">
        <ele>1711.76</ele>
        <time>2014-06-27T09:04:03Z</time>
      </trkpt>
      <trkpt lat="46.21735" lon="6.78872">
        <ele>1711.76</ele>
        <time>2014-06-27T09:04:06Z</time>
      </trkpt>
      <trkpt lat="46.21724" lon="6.78897">
        <ele>1711.76</ele>
        <time>2014-06-27T09:04:09Z</time>
      </trkpt>
      <trkpt lat="46.21735" lon="6.78939">
        <ele>1709.36</ele>
        <time>2014-06-27T09:04:14Z</time>
      </trkpt>
      <trkpt lat="46.21747" lon="6.7895">
        <ele>1706.48</ele>
        <time>2014-06-27T09:04:16Z</time>
      </trkpt>
      <trkpt lat="46.21756" lon="6.78964">
        <ele>1703.59</ele>
        <time>2014-06-27T09:04:18Z</time>
      </trkpt>
      <trkpt lat="46.21772" lon="6.78981">
        <ele>1700.23</ele>
        <time>2014-06-27T09:04:21Z</time>
      </trkpt>
      <trkpt lat="46.21777" lon="6.78998">
        <ele>1696.86</ele>
        <time>2014-06-27T09:04:24Z</time>
      </trkpt>
      <trkpt lat="46.21763" lon="6.7903">
        <ele>1694.46</ele>
        <time>2014-06-27T09:04:30Z</time>
      </trkpt>
      <trkpt lat="46.21756" lon="6.7906">
        <ele>1694.46</ele>
        <time>2014-06-27T09:04:35Z</time>
      </trkpt>
      <trkpt lat="46.21751" lon="6.79073">
        <ele>1694.46</ele>
        <time>2014-06-27T09:04:37Z</time>
      </trkpt>
      <trkpt lat="46.21736" lon="6.79083">
        <ele>1693.98</ele>
        <time>2014-06-27T09:04:41Z</time>
      </trkpt>
      <trkpt lat="46.21725" lon="6.79082">
        <ele>1693.98</ele>
        <time>2014-06-27T09:04:44Z</time>
      </trkpt>
      <trkpt lat="46.21721" lon="6.79091">
        <ele>1692.54</ele>
        <time>2014-06-27T09:04:53Z</time>
      </trkpt>
      <trkpt lat="46.21721" lon="6.79091">
        <ele>1692.06</ele>
        <time>2014-06-27T09:05:08Z</time>
      </trkpt>
      <trkpt lat="46.21716" lon="6.79107">
        <ele>1691.58</ele>
        <time>2014-06-27T09:05:13Z</time>
      </trkpt>
      <trkpt lat="46.21709" lon="6.79129">
        <ele>1690.14</ele>
        <time>2014-06-27T09:05:16Z</time>
      </trkpt>
      <trkpt lat="46.21696" lon="6.79148">
        <ele>1684.85</ele>
        <time>2014-06-27T09:05:20Z</time>
      </trkpt>
      <trkpt lat="46.21685" lon="6.79161">
        <ele>1681.48</ele>
        <time>2014-06-27T09:05:22Z</time>
      </trkpt>
      <trkpt lat="46.2166" lon="6.79184">
        <ele>1677.64</ele>
        <time>2014-06-27T09:05:26Z</time>
      </trkpt>
      <trkpt lat="46.21644" lon="6.79201">
        <ele>1681.96</ele>
        <time>2014-06-27T09:05:30Z</time>
      </trkpt>
      <trkpt lat="46.21639" lon="6.79204">
        <ele>1685.81</ele>
        <time>2014-06-27T09:05:32Z</time>
      </trkpt>
      <trkpt lat="46.21636" lon="6.79206">
        <ele>1689.17</ele>
        <time>2014-06-27T09:05:34Z</time>
      </trkpt>
      <trkpt lat="46.21623" lon="6.7921">
        <ele>1691.1</ele>
        <time>2014-06-27T09:05:41Z</time>
      </trkpt>
      <trkpt lat="46.21621" lon="6.79224">
        <ele>1686.29</ele>
        <time>2014-06-27T09:05:46Z</time>
      </trkpt>
      <trkpt lat="46.21605" lon="6.79259">
        <ele>1684.85</ele>
        <time>2014-06-27T09:05:53Z</time>
      </trkpt>
      <trkpt lat="46.21594" lon="6.79293">
        <ele>1684.37</ele>
        <time>2014-06-27T09:05:57Z</time>
      </trkpt>
      <trkpt lat="46.21598" lon="6.79303">
        <ele>1679.56</ele>
        <time>2014-06-27T09:06:02Z</time>
      </trkpt>
      <trkpt lat="46.21606" lon="6.79299">
        <ele>1675.72</ele>
        <time>2014-06-27T09:06:04Z</time>
      </trkpt>
      <trkpt lat="46.21605" lon="6.79315">
        <ele>1671.39</ele>
        <time>2014-06-27T09:06:07Z</time>
      </trkpt>
      <trkpt lat="46.21604" lon="6.79325">
        <ele>1668.02</ele>
        <time>2014-06-27T09:06:09Z</time>
      </trkpt>
      <trkpt lat="46.21616" lon="6.79319">
        <ele>1664.18</ele>
        <time>2014-06-27T09:06:12Z</time>
      </trkpt>
      <trkpt lat="46.21632" lon="6.79299">
        <ele>1660.81</ele>
        <time>2014-06-27T09:06:16Z</time>
      </trkpt>
      <trkpt lat="46.21643" lon="6.7932">
        <ele>1657.93</ele>
        <time>2014-06-27T09:06:20Z</time>
      </trkpt>
      <trkpt lat="46.21671" lon="6.79329">
        <ele>1653.6</ele>
        <time>2014-06-27T09:06:24Z</time>
      </trkpt>
      <trkpt lat="46.21678" lon="6.79333">
        <ele>1652.64</ele>
        <time>2014-06-27T09:06:25Z</time>
      </trkpt>
      <trkpt lat="46.21712" lon="6.79338">
        <ele>1645.43</ele>
        <time>2014-06-27T09:06:30Z</time>
      </trkpt>
      <trkpt lat="46.21718" lon="6.79332">
        <ele>1645.43</ele>
        <time>2014-06-27T09:06:31Z</time>
      </trkpt>
      <trkpt lat="46.21746" lon="6.79313">
        <ele>1643.51</ele>
        <time>2014-06-27T09:06:36Z</time>
      </trkpt>
      <trkpt lat="46.21771" lon="6.7931">
        <ele>1643.03</ele>
        <time>2014-06-27T09:06:45Z</time>
      </trkpt>
      <trkpt lat="46.21798" lon="6.79284">
        <ele>1644.47</ele>
        <time>2014-06-27T09:06:56Z</time>
      </trkpt>
      <trkpt lat="46.21817" lon="6.79256">
        <ele>1645.91</ele>
        <time>2014-06-27T09:07:09Z</time>
      </trkpt>
      <trkpt lat="46.21836" lon="6.79232">
        <ele>1646.4</ele>
        <time>2014-06-27T09:07:22Z</time>
      </trkpt>
      <trkpt lat="46.21843" lon="6.79223">
        <ele>1646.4</ele>
        <time>2014-06-27T09:07:25Z</time>
      </trkpt>
      <trkpt lat="46.21862" lon="6.79214">
        <ele>1646.88</ele>
        <time>2014-06-27T09:07:31Z</time>
      </trkpt>
      <trkpt lat="46.21882" lon="6.79193">
        <ele>1646.88</ele>
        <time>2014-06-27T09:07:35Z</time>
      </trkpt>
      <trkpt lat="46.21904" lon="6.79158">
        <ele>1643.51</ele>
        <time>2014-06-27T09:07:40Z</time>
      </trkpt>
      <trkpt lat="46.21915" lon="6.79139">
        <ele>1641.59</ele>
        <time>2014-06-27T09:07:43Z</time>
      </trkpt>
      <trkpt lat="46.21922" lon="6.79122">
        <ele>1641.11</ele>
        <time>2014-06-27T09:07:46Z</time>
      </trkpt>
      <trkpt lat="46.21926" lon="6.79083">
        <ele>1641.11</ele>
        <time>2014-06-27T09:07:52Z</time>
      </trkpt>
      <trkpt lat="46.21923" lon="6.7907">
        <ele>1642.55</ele>
        <time>2014-06-27T09:07:54Z</time>
      </trkpt>
      <trkpt lat="46.21926" lon="6.79042">
        <ele>1642.55</ele>
        <time>2014-06-27T09:07:58Z</time>
      </trkpt>
      <trkpt lat="46.21929" lon="6.7903">
        <ele>1642.55</ele>
        <time>2014-06-27T09:08:00Z</time>
      </trkpt>
      <trkpt lat="46.21932" lon="6.79013">
        <ele>1642.55</ele>
        <time>2014-06-27T09:08:03Z</time>
      </trkpt>
      <trkpt lat="46.21937" lon="6.78984">
        <ele>1643.51</ele>
        <time>2014-06-27T09:08:07Z</time>
      </trkpt>
      <trkpt lat="46.21939" lon="6.78965">
        <ele>1643.51</ele>
        <time>2014-06-27T09:08:09Z</time>
      </trkpt>
      <trkpt lat="46.21946" lon="6.78939">
        <ele>1643.51</ele>
        <time>2014-06-27T09:08:12Z</time>
      </trkpt>
      <trkpt lat="46.21953" lon="6.78918">
        <ele>1643.51</ele>
        <time>2014-06-27T09:08:15Z</time>
      </trkpt>
      <trkpt lat="46.21957" lon="6.78905">
        <ele>1642.07</ele>
        <time>2014-06-27T09:08:17Z</time>
      </trkpt>
      <trkpt lat="46.21958" lon="6.78883">
        <ele>1642.07</ele>
        <time>2014-06-27T09:08:20Z</time>
      </trkpt>
      <trkpt lat="46.21966" lon="6.78862">
        <ele>1642.07</ele>
        <time>2014-06-27T09:08:23Z</time>
      </trkpt>
      <trkpt lat="46.21973" lon="6.78849">
        <ele>1641.11</ele>
        <time>2014-06-27T09:08:25Z</time>
      </trkpt>
      <trkpt lat="46.2199" lon="6.78838">
        <ele>1640.63</ele>
        <time>2014-06-27T09:08:28Z</time>
      </trkpt>
      <trkpt lat="46.22029" lon="6.78807">
        <ele>1637.26</ele>
        <time>2014-06-27T09:08:37Z</time>
      </trkpt>
      <trkpt lat="46.22057" lon="6.78782">
        <ele>1637.74</ele>
        <time>2014-06-27T09:08:44Z</time>
      </trkpt>
      <trkpt lat="46.22091" lon="6.78748">
        <ele>1634.38</ele>
        <time>2014-06-27T09:08:49Z</time>
      </trkpt>
      <trkpt lat="46.22098" lon="6.78742">
        <ele>1632.46</ele>
        <time>2014-06-27T09:08:50Z</time>
      </trkpt>
      <trkpt lat="46.22116" lon="6.78732">
        <ele>1626.69</ele>
        <time>2014-06-27T09:08:53Z</time>
      </trkpt>
      <trkpt lat="46.2213" lon="6.78723">
        <ele>1623.32</ele>
        <time>2014-06-27T09:08:55Z</time>
      </trkpt>
      <trkpt lat="46.22147" lon="6.78709">
        <ele>1619.96</ele>
        <time>2014-06-27T09:08:58Z</time>
      </trkpt>
      <trkpt lat="46.22203" lon="6.78637">
        <ele>1617.07</ele>
        <time>2014-06-27T09:09:08Z</time>
      </trkpt>
      <trkpt lat="46.22207" lon="6.78631">
        <ele>1616.59</ele>
        <time>2014-06-27T09:09:09Z</time>
      </trkpt>
      <trkpt lat="46.22232" lon="6.78608">
        <ele>1612.75</ele>
        <time>2014-06-27T09:09:14Z</time>
      </trkpt>
      <trkpt lat="46.22236" lon="6.78603">
        <ele>1612.27</ele>
        <time>2014-06-27T09:09:15Z</time>
      </trkpt>
      <trkpt lat="46.22256" lon="6.78579">
        <ele>1611.79</ele>
        <time>2014-06-27T09:09:19Z</time>
      </trkpt>
      <trkpt lat="46.22276" lon="6.78561">
        <ele>1611.79</ele>
        <time>2014-06-27T09:09:22Z</time>
      </trkpt>
      <trkpt lat="46.22297" lon="6.78541">
        <ele>1615.15</ele>
        <time>2014-06-27T09:09:27Z</time>
      </trkpt>
      <trkpt lat="46.22305" lon="6.78534">
        <ele>1618.52</ele>
        <time>2014-06-27T09:09:30Z</time>
      </trkpt>
      <trkpt lat="46.22315" lon="6.78528">
        <ele>1620.92</ele>
        <time>2014-06-27T09:09:34Z</time>
      </trkpt>
      <trkpt lat="46.22343" lon="6.78507">
        <ele>1617.07</ele>
        <time>2014-06-27T09:09:41Z</time>
      </trkpt>
      <trkpt lat="46.22356" lon="6.78502">
        <ele>1612.75</ele>
        <time>2014-06-27T09:09:44Z</time>
      </trkpt>
      <trkpt lat="46.22365" lon="6.7849">
        <ele>1609.38</ele>
        <time>2014-06-27T09:09:47Z</time>
      </trkpt>
      <trkpt lat="46.22371" lon="6.78506">
        <ele>1606.02</ele>
        <time>2014-06-27T09:09:51Z</time>
      </trkpt>
      <trkpt lat="46.2238" lon="6.78509">
        <ele>1605.06</ele>
        <time>2014-06-27T09:09:53Z</time>
      </trkpt>
      <trkpt lat="46.2239" lon="6.78501">
        <ele>1603.62</ele>
        <time>2014-06-27T09:09:55Z</time>
      </trkpt>
      <trkpt lat="46.22403" lon="6.78493">
        <ele>1599.77</ele>
        <time>2014-06-27T09:10:01Z</time>
      </trkpt>
      <trkpt lat="46.22416" lon="6.78493">
        <ele>1597.37</ele>
        <time>2014-06-27T09:10:05Z</time>
      </trkpt>
      <trkpt lat="46.22421" lon="6.78479">
        <ele>1595.45</ele>
        <time>2014-06-27T09:10:07Z</time>
      </trkpt>
      <trkpt lat="46.22438" lon="6.78489">
        <ele>1590.64</ele>
        <time>2014-06-27T09:10:11Z</time>
      </trkpt>
      <trkpt lat="46.22441" lon="6.78475">
        <ele>1586.79</ele>
        <time>2014-06-27T09:10:14Z</time>
      </trkpt>
      <trkpt lat="46.2245" lon="6.78467">
        <ele>1582.95</ele>
        <time>2014-06-27T09:10:18Z</time>
      </trkpt>
      <trkpt lat="46.22454" lon="6.78469">
        <ele>1582.47</ele>
        <time>2014-06-27T09:10:19Z</time>
      </trkpt>
      <trkpt lat="46.22475" lon="6.78472">
        <ele>1579.58</ele>
        <time>2014-06-27T09:10:25Z</time>
      </trkpt>
      <trkpt lat="46.22474" lon="6.78447">
        <ele>1577.18</ele>
        <time>2014-06-27T09:10:29Z</time>
      </trkpt>
      <trkpt lat="46.22494" lon="6.78416">
        <ele>1574.3</ele>
        <time>2014-06-27T09:10:34Z</time>
      </trkpt>
      <trkpt lat="46.22504" lon="6.78407">
        <ele>1574.3</ele>
        <time>2014-06-27T09:10:36Z</time>
      </trkpt>
      <trkpt lat="46.22526" lon="6.78396">
        <ele>1574.3</ele>
        <time>2014-06-27T09:10:39Z</time>
      </trkpt>
      <trkpt lat="46.22552" lon="6.78364">
        <ele>1570.93</ele>
        <time>2014-06-27T09:10:43Z</time>
      </trkpt>
      <trkpt lat="46.22566" lon="6.78335">
        <ele>1568.05</ele>
        <time>2014-06-27T09:10:46Z</time>
      </trkpt>
      <trkpt lat="46.22571" lon="6.78318">
        <ele>1568.53</ele>
        <time>2014-06-27T09:10:48Z</time>
      </trkpt>
      <trkpt lat="46.22582" lon="6.78288">
        <ele>1570.93</ele>
        <time>2014-06-27T09:10:52Z</time>
      </trkpt>
      <trkpt lat="46.2259" lon="6.78267">
        <ele>1573.33</ele>
        <time>2014-06-27T09:10:55Z</time>
      </trkpt>
      <trkpt lat="46.22604" lon="6.78243">
        <ele>1574.78</ele>
        <time>2014-06-27T09:10:59Z</time>
      </trkpt>
      <trkpt lat="46.22626" lon="6.78227">
        <ele>1571.41</ele>
        <time>2014-06-27T09:11:03Z</time>
      </trkpt>
      <trkpt lat="46.22632" lon="6.78222">
        <ele>1569.97</ele>
        <time>2014-06-27T09:11:04Z</time>
      </trkpt>
      <trkpt lat="46.22649" lon="6.78203">
        <ele>1563.72</ele>
        <time>2014-06-27T09:11:07Z</time>
      </trkpt>
      <trkpt lat="46.22659" lon="6.7819">
        <ele>1559.4</ele>
        <time>2014-06-27T09:11:09Z</time>
      </trkpt>
      <trkpt lat="46.22665" lon="6.78184">
        <ele>1556.99</ele>
        <time>2014-06-27T09:11:10Z</time>
      </trkpt>
      <trkpt lat="46.2268" lon="6.78155">
        <ele>1551.22</ele>
        <time>2014-06-27T09:11:13Z</time>
      </trkpt>
      <trkpt lat="46.22691" lon="6.78137">
        <ele>1547.38</ele>
        <time>2014-06-27T09:11:15Z</time>
      </trkpt>
      <trkpt lat="46.22706" lon="6.78134">
        <ele>1544.5</ele>
        <time>2014-06-27T09:11:21Z</time>
      </trkpt>
      <trkpt lat="46.22717" lon="6.78135">
        <ele>1542.09</ele>
        <time>2014-06-27T09:11:25Z</time>
      </trkpt>
      <trkpt lat="46.22732" lon="6.7814">
        <ele>1538.73</ele>
        <time>2014-06-27T09:11:29Z</time>
      </trkpt>
      <trkpt lat="46.2273" lon="6.78159">
        <ele>1535.84</ele>
        <time>2014-06-27T09:11:31Z</time>
      </trkpt>
      <trkpt lat="46.22721" lon="6.78174">
        <ele>1532</ele>
        <time>2014-06-27T09:11:33Z</time>
      </trkpt>
      <trkpt lat="46.2272" lon="6.78187">
        <ele>1528.15</ele>
        <time>2014-06-27T09:11:35Z</time>
      </trkpt>
      <trkpt lat="46.22726" lon="6.78181">
        <ele>1524.31</ele>
        <time>2014-06-27T09:11:37Z</time>
      </trkpt>
      <trkpt lat="46.22739" lon="6.78174">
        <ele>1521.42</ele>
        <time>2014-06-27T09:11:40Z</time>
      </trkpt>
      <trkpt lat="46.2273" lon="6.78195">
        <ele>1519.02</ele>
        <time>2014-06-27T09:11:44Z</time>
      </trkpt>
      <trkpt lat="46.22735" lon="6.78204">
        <ele>1517.58</ele>
        <time>2014-06-27T09:11:47Z</time>
      </trkpt>
      <trkpt lat="46.22756" lon="6.78193">
        <ele>1511.81</ele>
        <time>2014-06-27T09:11:52Z</time>
      </trkpt>
      <trkpt lat="46.22751" lon="6.78203">
        <ele>1508.45</ele>
        <time>2014-06-27T09:11:54Z</time>
      </trkpt>
      <trkpt lat="46.22751" lon="6.78214">
        <ele>1504.6</ele>
        <time>2014-06-27T09:11:56Z</time>
      </trkpt>
      <trkpt lat="46.22753" lon="6.78212">
        <ele>1502.68</ele>
        <time>2014-06-27T09:11:57Z</time>
      </trkpt>
      <trkpt lat="46.22761" lon="6.78203">
        <ele>1498.83</ele>
        <time>2014-06-27T09:11:59Z</time>
      </trkpt>
      <trkpt lat="46.22765" lon="6.78215">
        <ele>1493.55</ele>
        <time>2014-06-27T09:12:03Z</time>
      </trkpt>
      <trkpt lat="46.2277" lon="6.78236">
        <ele>1490.18</ele>
        <time>2014-06-27T09:12:07Z</time>
      </trkpt>
      <trkpt lat="46.22784" lon="6.78228">
        <ele>1486.82</ele>
        <time>2014-06-27T09:12:11Z</time>
      </trkpt>
      <trkpt lat="46.2278" lon="6.78249">
        <ele>1484.41</ele>
        <time>2014-06-27T09:12:14Z</time>
      </trkpt>
      <trkpt lat="46.22775" lon="6.78266">
        <ele>1482.49</ele>
        <time>2014-06-27T09:12:16Z</time>
      </trkpt>
      <trkpt lat="46.2275" lon="6.78298">
        <ele>1477.68</ele>
        <time>2014-06-27T09:12:21Z</time>
      </trkpt>
      <trkpt lat="46.22741" lon="6.78307">
        <ele>1476.72</ele>
        <time>2014-06-27T09:12:23Z</time>
      </trkpt>
      <trkpt lat="46.2273" lon="6.78329">
        <ele>1474.32</ele>
        <time>2014-06-27T09:12:27Z</time>
      </trkpt>
      <trkpt lat="46.22728" lon="6.78376">
        <ele>1469.03</ele>
        <time>2014-06-27T09:12:31Z</time>
      </trkpt>
      <trkpt lat="46.22736" lon="6.78389">
        <ele>1466.15</ele>
        <time>2014-06-27T09:12:33Z</time>
      </trkpt>
      <trkpt lat="46.22751" lon="6.78405">
        <ele>1462.3</ele>
        <time>2014-06-27T09:12:37Z</time>
      </trkpt>
      <trkpt lat="46.22754" lon="6.784">
        <ele>1460.38</ele>
        <time>2014-06-27T09:12:39Z</time>
      </trkpt>
      <trkpt lat="46.22746" lon="6.78387">
        <ele>1457.5</ele>
        <time>2014-06-27T09:12:42Z</time>
      </trkpt>
      <trkpt lat="46.22752" lon="6.78382">
        <ele>1454.61</ele>
        <time>2014-06-27T09:12:46Z</time>
      </trkpt>
      <trkpt lat="46.22763" lon="6.78394">
        <ele>1453.17</ele>
        <time>2014-06-27T09:12:49Z</time>
      </trkpt>
      <trkpt lat="46.2276" lon="6.78431">
        <ele>1449.32</ele>
        <time>2014-06-27T09:12:54Z</time>
      </trkpt>
      <trkpt lat="46.22762" lon="6.7844">
        <ele>1445</ele>
        <time>2014-06-27T09:12:57Z</time>
      </trkpt>
      <trkpt lat="46.22765" lon="6.78431">
        <ele>1441.63</ele>
        <time>2014-06-27T09:12:59Z</time>
      </trkpt>
      <trkpt lat="46.22774" lon="6.78429">
        <ele>1437.79</ele>
        <time>2014-06-27T09:13:02Z</time>
      </trkpt>
      <trkpt lat="46.22775" lon="6.78434">
        <ele>1437.79</ele>
        <time>2014-06-27T09:13:03Z</time>
      </trkpt>
      <trkpt lat="46.22773" lon="6.78454">
        <ele>1435.39</ele>
        <time>2014-06-27T09:13:06Z</time>
      </trkpt>
      <trkpt lat="46.22775" lon="6.78521">
        <ele>1431.06</ele>
        <time>2014-06-27T09:13:14Z</time>
      </trkpt>
      <trkpt lat="46.22775" lon="6.78554">
        <ele>1428.18</ele>
        <time>2014-06-27T09:13:18Z</time>
      </trkpt>
      <trkpt lat="46.22772" lon="6.78577">
        <ele>1427.21</ele>
        <time>2014-06-27T09:13:22Z</time>
      </trkpt>
      <trkpt lat="46.22777" lon="6.78591">
        <ele>1423.37</ele>
        <time>2014-06-27T09:13:27Z</time>
      </trkpt>
      <trkpt lat="46.22781" lon="6.78592">
        <ele>1422.41</ele>
        <time>2014-06-27T09:13:29Z</time>
      </trkpt>
      <trkpt lat="46.22779" lon="6.78612">
        <ele>1419.04</ele>
        <time>2014-06-27T09:13:33Z</time>
      </trkpt>
      <trkpt lat="46.22777" lon="6.78619">
        <ele>1415.2</ele>
        <time>2014-06-27T09:13:37Z</time>
      </trkpt>
      <trkpt lat="46.22776" lon="6.78621">
        <ele>1414.72</ele>
        <time>2014-06-27T09:13:38Z</time>
      </trkpt>
      <trkpt lat="46.22786" lon="6.78623">
        <ele>1411.83</ele>
        <time>2014-06-27T09:13:45Z</time>
      </trkpt>
      <trkpt lat="46.22784" lon="6.78639">
        <ele>1409.43</ele>
        <time>2014-06-27T09:13:49Z</time>
      </trkpt>
      <trkpt lat="46.22789" lon="6.78646">
        <ele>1405.58</ele>
        <time>2014-06-27T09:13:52Z</time>
      </trkpt>
      <trkpt lat="46.22799" lon="6.7864">
        <ele>1402.22</ele>
        <time>2014-06-27T09:13:54Z</time>
      </trkpt>
      <trkpt lat="46.22813" lon="6.78621">
        <ele>1398.37</ele>
        <time>2014-06-27T09:13:57Z</time>
      </trkpt>
      <trkpt lat="46.22819" lon="6.78611">
        <ele>1395.01</ele>
        <time>2014-06-27T09:13:59Z</time>
      </trkpt>
      <trkpt lat="46.22825" lon="6.78618">
        <ele>1391.65</ele>
        <time>2014-06-27T09:14:01Z</time>
      </trkpt>
      <trkpt lat="46.22827" lon="6.78645">
        <ele>1387.32</ele>
        <time>2014-06-27T09:14:04Z</time>
      </trkpt>
      <trkpt lat="46.22841" lon="6.78645">
        <ele>1383.47</ele>
        <time>2014-06-27T09:14:07Z</time>
      </trkpt>
      <trkpt lat="46.22844" lon="6.78638">
        <ele>1382.03</ele>
        <time>2014-06-27T09:14:08Z</time>
      </trkpt>
      <trkpt lat="46.22852" lon="6.78588">
        <ele>1375.78</ele>
        <time>2014-06-27T09:14:13Z</time>
      </trkpt>
      <trkpt lat="46.22864" lon="6.78578">
        <ele>1371.94</ele>
        <time>2014-06-27T09:14:18Z</time>
      </trkpt>
      <trkpt lat="46.22881" lon="6.78585">
        <ele>1368.09</ele>
        <time>2014-06-27T09:14:23Z</time>
      </trkpt>
      <trkpt lat="46.22883" lon="6.78607">
        <ele>1364.25</ele>
        <time>2014-06-27T09:14:27Z</time>
      </trkpt>
      <trkpt lat="46.22904" lon="6.78628">
        <ele>1360.88</ele>
        <time>2014-06-27T09:14:34Z</time>
      </trkpt>
      <trkpt lat="46.2291" lon="6.78625">
        <ele>1358</ele>
        <time>2014-06-27T09:14:37Z</time>
      </trkpt>
      <trkpt lat="46.22912" lon="6.78637">
        <ele>1356.08</ele>
        <time>2014-06-27T09:14:39Z</time>
      </trkpt>
      <trkpt lat="46.22934" lon="6.78673">
        <ele>1353.19</ele>
        <time>2014-06-27T09:14:45Z</time>
      </trkpt>
      <trkpt lat="46.22939" lon="6.78678">
        <ele>1353.19</ele>
        <time>2014-06-27T09:14:50Z</time>
      </trkpt>
      <trkpt lat="46.22942" lon="6.78674">
        <ele>1353.19</ele>
        <time>2014-06-27T09:14:58Z</time>
      </trkpt>
      <trkpt lat="46.2295" lon="6.78663">
        <ele>1353.19</ele>
        <time>2014-06-27T09:15:01Z</time>
      </trkpt>
      <trkpt lat="46.22964" lon="6.78667">
        <ele>1349.35</ele>
        <time>2014-06-27T09:15:05Z</time>
      </trkpt>
      <trkpt lat="46.22987" lon="6.78693">
        <ele>1344.06</ele>
        <time>2014-06-27T09:15:09Z</time>
      </trkpt>
      <trkpt lat="46.23008" lon="6.78711">
        <ele>1341.18</ele>
        <time>2014-06-27T09:15:12Z</time>
      </trkpt>
      <trkpt lat="46.23036" lon="6.78729">
        <ele>1335.89</ele>
        <time>2014-06-27T09:15:16Z</time>
      </trkpt>
      <trkpt lat="46.2306" lon="6.78747">
        <ele>1332.52</ele>
        <time>2014-06-27T09:15:19Z</time>
      </trkpt>
      <trkpt lat="46.23086" lon="6.78764">
        <ele>1329.64</ele>
        <time>2014-06-27T09:15:22Z</time>
      </trkpt>
      <trkpt lat="46.23101" lon="6.78773">
        <ele>1327.72</ele>
        <time>2014-06-27T09:15:24Z</time>
      </trkpt>
      <trkpt lat="46.23123" lon="6.78788">
        <ele>1323.39</ele>
        <time>2014-06-27T09:15:29Z</time>
      </trkpt>
      <trkpt lat="46.23128" lon="6.78789">
        <ele>1322.91</ele>
        <time>2014-06-27T09:15:30Z</time>
      </trkpt>
      <trkpt lat="46.23175" lon="6.78799">
        <ele>1319.07</ele>
        <time>2014-06-27T09:15:36Z</time>
      </trkpt>
      <trkpt lat="46.23182" lon="6.78801">
        <ele>1318.1</ele>
        <time>2014-06-27T09:15:37Z</time>
      </trkpt>
      <trkpt lat="46.23189" lon="6.78807">
        <ele>1317.14</ele>
        <time>2014-06-27T09:15:39Z</time>
      </trkpt>
      <trkpt lat="46.2319" lon="6.78813">
        <ele>1315.22</ele>
        <time>2014-06-27T09:15:48Z</time>
      </trkpt>
      <trkpt lat="46.2319" lon="6.78813">
        <ele>1316.66</ele>
        <time>2014-06-27T09:16:04Z</time>
      </trkpt>
      <trkpt lat="46.2319" lon="6.78813">
        <ele>1317.14</ele>
        <time>2014-06-27T09:16:27Z</time>
      </trkpt>
      <trkpt lat="46.2319" lon="6.78813">
        <ele>1317.14</ele>
        <time>2014-06-27T09:16:50Z</time>
      </trkpt>
      <trkpt lat="46.2319" lon="6.78812">
        <ele>1317.14</ele>
        <time>2014-06-27T09:17:14Z</time>
      </trkpt>
      <trkpt lat="46.2319" lon="6.78812">
        <ele>1317.14</ele>
        <time>2014-06-27T09:17:40Z</time>
      </trkpt>
      <trkpt lat="46.2319" lon="6.78812">
        <ele>1317.14</ele>
        <time>2014-06-27T09:17:41Z</time>
      </trkpt>
      <trkpt lat="46.23195" lon="6.78833">
        <ele>1317.14</ele>
        <time>2014-06-27T09:17:49Z</time>
      </trkpt>
      <trkpt lat="46.23209" lon="6.78889">
        <ele>1315.7</ele>
        <time>2014-06-27T09:18:01Z</time>
      </trkpt>
      <trkpt lat="46.23209" lon="6.78906">
        <ele>1315.7</ele>
        <time>2014-06-27T09:18:07Z</time>
      </trkpt>
      <trkpt lat="46.23208" lon="6.78909">
        <ele>1314.74</ele>
        <time>2014-06-27T09:18:16Z</time>
      </trkpt>
      <trkpt lat="46.2322" lon="6.78904">
        <ele>1313.78</ele>
        <time>2014-06-27T09:18:25Z</time>
      </trkpt>
      <trkpt lat="46.2322" lon="6.78904">
        <ele>1313.3</ele>
        <time>2014-06-27T09:18:34Z</time>
      </trkpt>
      <trkpt lat="46.23227" lon="6.789">
        <ele>1313.3</ele>
        <time>2014-06-27T09:18:37Z</time>
      </trkpt>
      <trkpt lat="46.23245" lon="6.78903">
        <ele>1311.86</ele>
        <time>2014-06-27T09:18:41Z</time>
      </trkpt>
      <trkpt lat="46.23293" lon="6.78923">
        <ele>1308.01</ele>
        <time>2014-06-27T09:18:49Z</time>
      </trkpt>
      <trkpt lat="46.23299" lon="6.78924">
        <ele>1307.53</ele>
        <time>2014-06-27T09:18:50Z</time>
      </trkpt>
      <trkpt lat="46.23314" lon="6.78922">
        <ele>1304.65</ele>
        <time>2014-06-27T09:18:53Z</time>
      </trkpt>
      <trkpt lat="46.2333" lon="6.78917">
        <ele>1302.72</ele>
        <time>2014-06-27T09:18:56Z</time>
      </trkpt>
      <trkpt lat="46.23357" lon="6.78927">
        <ele>1302.24</ele>
        <time>2014-06-27T09:19:01Z</time>
      </trkpt>
      <trkpt lat="46.23398" lon="6.78945">
        <ele>1302.24</ele>
        <time>2014-06-27T09:19:08Z</time>
      </trkpt>
      <trkpt lat="46.23454" lon="6.78978">
        <ele>1298.88</ele>
        <time>2014-06-27T09:19:16Z</time>
      </trkpt>
      <trkpt lat="46.23482" lon="6.78992">
        <ele>1295.51</ele>
        <time>2014-06-27T09:19:20Z</time>
      </trkpt>
      <trkpt lat="46.23504" lon="6.79">
        <ele>1293.59</ele>
        <time>2014-06-27T09:19:23Z</time>
      </trkpt>
      <trkpt lat="46.23533" lon="6.79045">
        <ele>1292.15</ele>
        <time>2014-06-27T09:19:30Z</time>
      </trkpt>
      <trkpt lat="46.2354" lon="6.79059">
        <ele>1291.19</ele>
        <time>2014-06-27T09:19:38Z</time>
      </trkpt>
      <trkpt lat="46.2354" lon="6.79059">
        <ele>1291.19</ele>
        <time>2014-06-27T09:20:03Z</time>
      </trkpt>
      <trkpt lat="46.23539" lon="6.79059">
        <ele>1291.19</ele>
        <time>2014-06-27T09:20:24Z</time>
      </trkpt>
      <trkpt lat="46.23539" lon="6.79059">
        <ele>1291.19</ele>
        <time>2014-06-27T09:20:43Z</time>
      </trkpt>
      <trkpt lat="46.23539" lon="6.7906">
        <ele>1291.19</ele>
        <time>2014-06-27T09:21:03Z</time>
      </trkpt>
      <trkpt lat="46.23539" lon="6.7906">
        <ele>1291.19</ele>
        <time>2014-06-27T09:21:27Z</time>
      </trkpt>
      <trkpt lat="46.23539" lon="6.79061">
        <ele>1291.19</ele>
        <time>2014-06-27T09:21:45Z</time>
      </trkpt>
      <trkpt lat="46.23539" lon="6.79061">
        <ele>1291.19</ele>
        <time>2014-06-27T09:22:10Z</time>
      </trkpt>
      <trkpt lat="46.23539" lon="6.79063">
        <ele>1291.19</ele>
        <time>2014-06-27T09:22:33Z</time>
      </trkpt>
      <trkpt lat="46.23539" lon="6.79063">
        <ele>1291.19</ele>
        <time>2014-06-27T09:22:54Z</time>
      </trkpt>
      <trkpt lat="46.23539" lon="6.79064">
        <ele>1291.19</ele>
        <time>2014-06-27T09:23:13Z</time>
      </trkpt>
      <trkpt lat="46.23539" lon="6.79064">
        <ele>1291.19</ele>
        <time>2014-06-27T09:23:43Z</time>
      </trkpt>
      <trkpt lat="46.23537" lon="6.79064">
        <ele>1291.19</ele>
        <time>2014-06-27T09:23:59Z</time>
      </trkpt>
      <trkpt lat="46.23537" lon="6.79064">
        <ele>1291.19</ele>
        <time>2014-06-27T09:24:24Z</time>
      </trkpt>
      <trkpt lat="46.23537" lon="6.79064">
        <ele>1291.19</ele>
        <time>2014-06-27T09:24:55Z</time>
      </trkpt>
      <trkpt lat="46.23536" lon="6.79062">
        <ele>1291.19</ele>
        <time>2014-06-27T09:25:11Z</time>
      </trkpt>
      <trkpt lat="46.23533" lon="6.79059">
        <ele>1292.15</ele>
        <time>2014-06-27T09:25:22Z</time>
      </trkpt>
      <trkpt lat="46.2353" lon="6.79059">
        <ele>1292.15</ele>
        <time>2014-06-27T09:25:27Z</time>
      </trkpt>
      <trkpt lat="46.23501" lon="6.79082">
        <ele>1292.63</ele>
        <time>2014-06-27T09:25:37Z</time>
      </trkpt>
      <trkpt lat="46.23494" lon="6.7909">
        <ele>1296.48</ele>
        <time>2014-06-27T09:25:40Z</time>
      </trkpt>
      <trkpt lat="46.23488" lon="6.79097">
        <ele>1300.32</ele>
        <time>2014-06-27T09:25:42Z</time>
      </trkpt>
      <trkpt lat="46.23483" lon="6.79104">
        <ele>1304.65</ele>
        <time>2014-06-27T09:25:44Z</time>
      </trkpt>
      <trkpt lat="46.23477" lon="6.79111">
        <ele>1308.97</ele>
        <time>2014-06-27T09:25:46Z</time>
      </trkpt>
      <trkpt lat="46.23472" lon="6.79118">
        <ele>1312.34</ele>
        <time>2014-06-27T09:25:48Z</time>
      </trkpt>
      <trkpt lat="46.23463" lon="6.79128">
        <ele>1315.22</ele>
        <time>2014-06-27T09:25:51Z</time>
      </trkpt>
      <trkpt lat="46.23445" lon="6.79149">
        <ele>1319.07</ele>
        <time>2014-06-27T09:25:58Z</time>
      </trkpt>
      <trkpt lat="46.23438" lon="6.79158">
        <ele>1322.43</ele>
        <time>2014-06-27T09:26:01Z</time>
      </trkpt>
      <trkpt lat="46.2343" lon="6.79168">
        <ele>1326.28</ele>
        <time>2014-06-27T09:26:04Z</time>
      </trkpt>
      <trkpt lat="46.23425" lon="6.79174">
        <ele>1329.64</ele>
        <time>2014-06-27T09:26:06Z</time>
      </trkpt>
      <trkpt lat="46.2342" lon="6.79181">
        <ele>1333.01</ele>
        <time>2014-06-27T09:26:08Z</time>
      </trkpt>
      <trkpt lat="46.23415" lon="6.79187">
        <ele>1336.37</ele>
        <time>2014-06-27T09:26:10Z</time>
      </trkpt>
      <trkpt lat="46.23407" lon="6.79196">
        <ele>1340.7</ele>
        <time>2014-06-27T09:26:13Z</time>
      </trkpt>
      <trkpt lat="46.23399" lon="6.79205">
        <ele>1344.54</ele>
        <time>2014-06-27T09:26:16Z</time>
      </trkpt>
      <trkpt lat="46.23392" lon="6.79214">
        <ele>1348.87</ele>
        <time>2014-06-27T09:26:19Z</time>
      </trkpt>
      <trkpt lat="46.23388" lon="6.7922">
        <ele>1352.23</ele>
        <time>2014-06-27T09:26:21Z</time>
      </trkpt>
      <trkpt lat="46.23383" lon="6.79226">
        <ele>1356.56</ele>
        <time>2014-06-27T09:26:23Z</time>
      </trkpt>
      <trkpt lat="46.23379" lon="6.79232">
        <ele>1361.84</ele>
        <time>2014-06-27T09:26:25Z</time>
      </trkpt>
      <trkpt lat="46.23375" lon="6.79238">
        <ele>1367.61</ele>
        <time>2014-06-27T09:26:27Z</time>
      </trkpt>
      <trkpt lat="46.2337" lon="6.79244">
        <ele>1370.98</ele>
        <time>2014-06-27T09:26:29Z</time>
      </trkpt>
      <trkpt lat="46.23365" lon="6.7925">
        <ele>1376.26</ele>
        <time>2014-06-27T09:26:31Z</time>
      </trkpt>
      <trkpt lat="46.23361" lon="6.79256">
        <ele>1381.55</ele>
        <time>2014-06-27T09:26:33Z</time>
      </trkpt>
      <trkpt lat="46.23356" lon="6.79261">
        <ele>1385.88</ele>
        <time>2014-06-27T09:26:35Z</time>
      </trkpt>
      <trkpt lat="46.23352" lon="6.79267">
        <ele>1390.2</ele>
        <time>2014-06-27T09:26:37Z</time>
      </trkpt>
      <trkpt lat="46.23348" lon="6.79273">
        <ele>1394.05</ele>
        <time>2014-06-27T09:26:39Z</time>
      </trkpt>
      <trkpt lat="46.23344" lon="6.79279">
        <ele>1397.89</ele>
        <time>2014-06-27T09:26:41Z</time>
      </trkpt>
      <trkpt lat="46.23339" lon="6.79284">
        <ele>1402.22</ele>
        <time>2014-06-27T09:26:43Z</time>
      </trkpt>
      <trkpt lat="46.23335" lon="6.7929">
        <ele>1407.03</ele>
        <time>2014-06-27T09:26:45Z</time>
      </trkpt>
      <trkpt lat="46.23331" lon="6.79295">
        <ele>1411.83</ele>
        <time>2014-06-27T09:26:47Z</time>
      </trkpt>
      <trkpt lat="46.23327" lon="6.79301">
        <ele>1417.12</ele>
        <time>2014-06-27T09:26:49Z</time>
      </trkpt>
      <trkpt lat="46.23323" lon="6.79306">
        <ele>1422.89</ele>
        <time>2014-06-27T09:26:51Z</time>
      </trkpt>
      <trkpt lat="46.23318" lon="6.79312">
        <ele>1428.18</ele>
        <time>2014-06-27T09:26:53Z</time>
      </trkpt>
      <trkpt lat="46.23314" lon="6.79317">
        <ele>1431.06</ele>
        <time>2014-06-27T09:26:55Z</time>
      </trkpt>
      <trkpt lat="46.2331" lon="6.79322">
        <ele>1435.87</ele>
        <time>2014-06-27T09:26:57Z</time>
      </trkpt>
      <trkpt lat="46.23306" lon="6.79327">
        <ele>1440.67</ele>
        <time>2014-06-27T09:26:59Z</time>
      </trkpt>
      <trkpt lat="46.23301" lon="6.79332">
        <ele>1445.48</ele>
        <time>2014-06-27T09:27:01Z</time>
      </trkpt>
      <trkpt lat="46.23297" lon="6.79337">
        <ele>1450.29</ele>
        <time>2014-06-27T09:27:03Z</time>
      </trkpt>
      <trkpt lat="46.23292" lon="6.79343">
        <ele>1455.09</ele>
        <time>2014-06-27T09:27:05Z</time>
      </trkpt>
      <trkpt lat="46.23288" lon="6.79349">
        <ele>1458.94</ele>
        <time>2014-06-27T09:27:07Z</time>
      </trkpt>
      <trkpt lat="46.23283" lon="6.79355">
        <ele>1462.78</ele>
        <time>2014-06-27T09:27:09Z</time>
      </trkpt>
      <trkpt lat="46.23279" lon="6.79361">
        <ele>1466.63</ele>
        <time>2014-06-27T09:27:11Z</time>
      </trkpt>
      <trkpt lat="46.23274" lon="6.79366">
        <ele>1470.95</ele>
        <time>2014-06-27T09:27:13Z</time>
      </trkpt>
      <trkpt lat="46.2327" lon="6.79372">
        <ele>1474.8</ele>
        <time>2014-06-27T09:27:15Z</time>
      </trkpt>
      <trkpt lat="46.23266" lon="6.79377">
        <ele>1479.13</ele>
        <time>2014-06-27T09:27:17Z</time>
      </trkpt>
      <trkpt lat="46.23261" lon="6.79383">
        <ele>1483.93</ele>
        <time>2014-06-27T09:27:19Z</time>
      </trkpt>
      <trkpt lat="46.23254" lon="6.79391">
        <ele>1489.22</ele>
        <time>2014-06-27T09:27:22Z</time>
      </trkpt>
      <trkpt lat="46.2325" lon="6.79397">
        <ele>1493.55</ele>
        <time>2014-06-27T09:27:24Z</time>
      </trkpt>
      <trkpt lat="46.23246" lon="6.79402">
        <ele>1498.83</ele>
        <time>2014-06-27T09:27:26Z</time>
      </trkpt>
      <trkpt lat="46.23241" lon="6.79408">
        <ele>1503.16</ele>
        <time>2014-06-27T09:27:28Z</time>
      </trkpt>
      <trkpt lat="46.23237" lon="6.79414">
        <ele>1507.97</ele>
        <time>2014-06-27T09:27:30Z</time>
      </trkpt>
      <trkpt lat="46.23233" lon="6.79419">
        <ele>1512.29</ele>
        <time>2014-06-27T09:27:32Z</time>
      </trkpt>
      <trkpt lat="46.23228" lon="6.79424">
        <ele>1517.1</ele>
        <time>2014-06-27T09:27:34Z</time>
      </trkpt>
      <trkpt lat="46.23224" lon="6.79429">
        <ele>1521.9</ele>
        <time>2014-06-27T09:27:36Z</time>
      </trkpt>
      <trkpt lat="46.23219" lon="6.79435">
        <ele>1526.23</ele>
        <time>2014-06-27T09:27:38Z</time>
      </trkpt>
      <trkpt lat="46.23214" lon="6.79441">
        <ele>1529.59</ele>
        <time>2014-06-27T09:27:40Z</time>
      </trkpt>
      <trkpt lat="46.23209" lon="6.79447">
        <ele>1532.96</ele>
        <time>2014-06-27T09:27:42Z</time>
      </trkpt>
      <trkpt lat="46.23201" lon="6.79456">
        <ele>1536.8</ele>
        <time>2014-06-27T09:27:45Z</time>
      </trkpt>
      <trkpt lat="46.23199" lon="6.79459">
        <ele>1536.8</ele>
        <time>2014-06-27T09:27:46Z</time>
      </trkpt>
      <trkpt lat="46.23192" lon="6.79469">
        <ele>1540.65</ele>
        <time>2014-06-27T09:27:49Z</time>
      </trkpt>
      <trkpt lat="46.23187" lon="6.79474">
        <ele>1544.01</ele>
        <time>2014-06-27T09:27:51Z</time>
      </trkpt>
      <trkpt lat="46.23182" lon="6.79481">
        <ele>1547.86</ele>
        <time>2014-06-27T09:27:53Z</time>
      </trkpt>
      <trkpt lat="46.23177" lon="6.79487">
        <ele>1551.71</ele>
        <time>2014-06-27T09:27:55Z</time>
      </trkpt>
      <trkpt lat="46.23172" lon="6.79493">
        <ele>1556.03</ele>
        <time>2014-06-27T09:27:57Z</time>
      </trkpt>
      <trkpt lat="46.23167" lon="6.79499">
        <ele>1559.88</ele>
        <time>2014-06-27T09:27:59Z</time>
      </trkpt>
      <trkpt lat="46.23163" lon="6.79505">
        <ele>1564.2</ele>
        <time>2014-06-27T09:28:01Z</time>
      </trkpt>
      <trkpt lat="46.23158" lon="6.79511">
        <ele>1568.05</ele>
        <time>2014-06-27T09:28:03Z</time>
      </trkpt>
      <trkpt lat="46.23153" lon="6.79517">
        <ele>1571.89</ele>
        <time>2014-06-27T09:28:05Z</time>
      </trkpt>
      <trkpt lat="46.23148" lon="6.79523">
        <ele>1575.26</ele>
        <time>2014-06-27T09:28:07Z</time>
      </trkpt>
      <trkpt lat="46.23143" lon="6.79529">
        <ele>1579.1</ele>
        <time>2014-06-27T09:28:09Z</time>
      </trkpt>
      <trkpt lat="46.23138" lon="6.79534">
        <ele>1582.47</ele>
        <time>2014-06-27T09:28:11Z</time>
      </trkpt>
      <trkpt lat="46.23132" lon="6.79542">
        <ele>1586.79</ele>
        <time>2014-06-27T09:28:14Z</time>
      </trkpt>
      <trkpt lat="46.23127" lon="6.79548">
        <ele>1590.64</ele>
        <time>2014-06-27T09:28:16Z</time>
      </trkpt>
      <trkpt lat="46.23121" lon="6.79554">
        <ele>1594.48</ele>
        <time>2014-06-27T09:28:18Z</time>
      </trkpt>
      <trkpt lat="46.23116" lon="6.7956">
        <ele>1597.37</ele>
        <time>2014-06-27T09:28:20Z</time>
      </trkpt>
      <trkpt lat="46.23109" lon="6.7957">
        <ele>1601.21</ele>
        <time>2014-06-27T09:28:23Z</time>
      </trkpt>
      <trkpt lat="46.23098" lon="6.79583">
        <ele>1603.62</ele>
        <time>2014-06-27T09:28:27Z</time>
      </trkpt>
      <trkpt lat="46.23068" lon="6.79619">
        <ele>1606.98</ele>
        <time>2014-06-27T09:28:38Z</time>
      </trkpt>
      <trkpt lat="46.2306" lon="6.79629">
        <ele>1610.83</ele>
        <time>2014-06-27T09:28:41Z</time>
      </trkpt>
      <trkpt lat="46.23055" lon="6.79636">
        <ele>1614.19</ele>
        <time>2014-06-27T09:28:43Z</time>
      </trkpt>
      <trkpt lat="46.23047" lon="6.79645">
        <ele>1618.52</ele>
        <time>2014-06-27T09:28:46Z</time>
      </trkpt>
      <trkpt lat="46.23036" lon="6.79658">
        <ele>1621.88</ele>
        <time>2014-06-27T09:28:50Z</time>
      </trkpt>
      <trkpt lat="46.23023" lon="6.79674">
        <ele>1625.25</ele>
        <time>2014-06-27T09:28:55Z</time>
      </trkpt>
      <trkpt lat="46.23012" lon="6.79687">
        <ele>1629.09</ele>
        <time>2014-06-27T09:28:59Z</time>
      </trkpt>
      <trkpt lat="46.23004" lon="6.79697">
        <ele>1632.46</ele>
        <time>2014-06-27T09:29:02Z</time>
      </trkpt>
      <trkpt lat="46.22993" lon="6.7971">
        <ele>1636.3</ele>
        <time>2014-06-27T09:29:06Z</time>
      </trkpt>
      <trkpt lat="46.22985" lon="6.79719">
        <ele>1639.67</ele>
        <time>2014-06-27T09:29:09Z</time>
      </trkpt>
      <trkpt lat="46.22942" lon="6.79773">
        <ele>1643.03</ele>
        <time>2014-06-27T09:29:25Z</time>
      </trkpt>
      <trkpt lat="46.22926" lon="6.79793">
        <ele>1646.88</ele>
        <time>2014-06-27T09:29:31Z</time>
      </trkpt>
      <trkpt lat="46.22915" lon="6.79806">
        <ele>1650.72</ele>
        <time>2014-06-27T09:29:35Z</time>
      </trkpt>
      <trkpt lat="46.2287" lon="6.79863">
        <ele>1654.09</ele>
        <time>2014-06-27T09:29:52Z</time>
      </trkpt>
      <trkpt lat="46.22853" lon="6.79883">
        <ele>1657.45</ele>
        <time>2014-06-27T09:29:58Z</time>
      </trkpt>
      <trkpt lat="46.22845" lon="6.79893">
        <ele>1660.81</ele>
        <time>2014-06-27T09:30:01Z</time>
      </trkpt>
      <trkpt lat="46.22837" lon="6.79904">
        <ele>1664.18</ele>
        <time>2014-06-27T09:30:04Z</time>
      </trkpt>
      <trkpt lat="46.22824" lon="6.79921">
        <ele>1667.54</ele>
        <time>2014-06-27T09:30:09Z</time>
      </trkpt>
      <trkpt lat="46.22808" lon="6.79941">
        <ele>1670.43</ele>
        <time>2014-06-27T09:30:15Z</time>
      </trkpt>
      <trkpt lat="46.22797" lon="6.79954">
        <ele>1674.27</ele>
        <time>2014-06-27T09:30:19Z</time>
      </trkpt>
      <trkpt lat="46.22789" lon="6.79964">
        <ele>1677.64</ele>
        <time>2014-06-27T09:30:22Z</time>
      </trkpt>
      <trkpt lat="46.22781" lon="6.79973">
        <ele>1680.04</ele>
        <time>2014-06-27T09:30:25Z</time>
      </trkpt>
      <trkpt lat="46.2277" lon="6.79986">
        <ele>1683.89</ele>
        <time>2014-06-27T09:30:29Z</time>
      </trkpt>
      <trkpt lat="46.2276" lon="6.79999">
        <ele>1687.73</ele>
        <time>2014-06-27T09:30:33Z</time>
      </trkpt>
      <trkpt lat="46.22752" lon="6.80009">
        <ele>1691.1</ele>
        <time>2014-06-27T09:30:36Z</time>
      </trkpt>
      <trkpt lat="46.22744" lon="6.80019">
        <ele>1694.46</ele>
        <time>2014-06-27T09:30:39Z</time>
      </trkpt>
      <trkpt lat="46.22736" lon="6.80029">
        <ele>1697.83</ele>
        <time>2014-06-27T09:30:42Z</time>
      </trkpt>
      <trkpt lat="46.22728" lon="6.80039">
        <ele>1701.19</ele>
        <time>2014-06-27T09:30:45Z</time>
      </trkpt>
      <trkpt lat="46.2272" lon="6.80049">
        <ele>1704.55</ele>
        <time>2014-06-27T09:30:48Z</time>
      </trkpt>
      <trkpt lat="46.22712" lon="6.80059">
        <ele>1707.44</ele>
        <time>2014-06-27T09:30:51Z</time>
      </trkpt>
      <trkpt lat="46.22705" lon="6.80069">
        <ele>1711.28</ele>
        <time>2014-06-27T09:30:54Z</time>
      </trkpt>
      <trkpt lat="46.22697" lon="6.80079">
        <ele>1714.65</ele>
        <time>2014-06-27T09:30:57Z</time>
      </trkpt>
      <trkpt lat="46.22689" lon="6.80088">
        <ele>1718.49</ele>
        <time>2014-06-27T09:31:00Z</time>
      </trkpt>
      <trkpt lat="46.22681" lon="6.80097">
        <ele>1722.82</ele>
        <time>2014-06-27T09:31:03Z</time>
      </trkpt>
      <trkpt lat="46.22674" lon="6.80107">
        <ele>1727.15</ele>
        <time>2014-06-27T09:31:06Z</time>
      </trkpt>
      <trkpt lat="46.22666" lon="6.80117">
        <ele>1731.47</ele>
        <time>2014-06-27T09:31:09Z</time>
      </trkpt>
      <trkpt lat="46.22661" lon="6.80123">
        <ele>1734.36</ele>
        <time>2014-06-27T09:31:11Z</time>
      </trkpt>
      <trkpt lat="46.22654" lon="6.80132">
        <ele>1739.16</ele>
        <time>2014-06-27T09:31:14Z</time>
      </trkpt>
      <trkpt lat="46.22646" lon="6.80141">
        <ele>1742.05</ele>
        <time>2014-06-27T09:31:17Z</time>
      </trkpt>
      <trkpt lat="46.22638" lon="6.80151">
        <ele>1746.37</ele>
        <time>2014-06-27T09:31:20Z</time>
      </trkpt>
      <trkpt lat="46.22633" lon="6.80157">
        <ele>1749.74</ele>
        <time>2014-06-27T09:31:22Z</time>
      </trkpt>
      <trkpt lat="46.22626" lon="6.80166">
        <ele>1754.06</ele>
        <time>2014-06-27T09:31:25Z</time>
      </trkpt>
      <trkpt lat="46.22618" lon="6.80176">
        <ele>1758.39</ele>
        <time>2014-06-27T09:31:28Z</time>
      </trkpt>
      <trkpt lat="46.22613" lon="6.80182">
        <ele>1761.27</ele>
        <time>2014-06-27T09:31:30Z</time>
      </trkpt>
      <trkpt lat="46.22606" lon="6.80192">
        <ele>1765.6</ele>
        <time>2014-06-27T09:31:33Z</time>
      </trkpt>
      <trkpt lat="46.22598" lon="6.80202">
        <ele>1769.92</ele>
        <time>2014-06-27T09:31:36Z</time>
      </trkpt>
      <trkpt lat="46.22587" lon="6.80214">
        <ele>1772.81</ele>
        <time>2014-06-27T09:31:40Z</time>
      </trkpt>
      <trkpt lat="46.22584" lon="6.80217">
        <ele>1773.29</ele>
        <time>2014-06-27T09:31:41Z</time>
      </trkpt>
      <trkpt lat="46.22579" lon="6.80222">
        <ele>1769.44</ele>
        <time>2014-06-27T09:31:47Z</time>
      </trkpt>
      <trkpt lat="46.22572" lon="6.80239">
        <ele>1767.52</ele>
        <time>2014-06-27T09:32:00Z</time>
      </trkpt>
      <trkpt lat="46.22572" lon="6.80243">
        <ele>1767.52</ele>
        <time>2014-06-27T09:32:11Z</time>
      </trkpt>
      <trkpt lat="46.22572" lon="6.80243">
        <ele>1767.52</ele>
        <time>2014-06-27T09:32:33Z</time>
      </trkpt>
      <trkpt lat="46.22572" lon="6.80243">
        <ele>1767.04</ele>
        <time>2014-06-27T09:32:39Z</time>
      </trkpt>
      <trkpt lat="46.22576" lon="6.80253">
        <ele>1767.04</ele>
        <time>2014-06-27T09:32:44Z</time>
      </trkpt>
      <trkpt lat="46.22582" lon="6.80265">
        <ele>1767.04</ele>
        <time>2014-06-27T09:32:47Z</time>
      </trkpt>
      <trkpt lat="46.2258" lon="6.80305">
        <ele>1767.04</ele>
        <time>2014-06-27T09:32:54Z</time>
      </trkpt>
      <trkpt lat="46.22576" lon="6.80313">
        <ele>1767.04</ele>
        <time>2014-06-27T09:32:56Z</time>
      </trkpt>
      <trkpt lat="46.22587" lon="6.80332">
        <ele>1766.56</ele>
        <time>2014-06-27T09:33:02Z</time>
      </trkpt>
      <trkpt lat="46.2259" lon="6.80332">
        <ele>1766.56</ele>
        <time>2014-06-27T09:33:03Z</time>
      </trkpt>
      <trkpt lat="46.22606" lon="6.80328">
        <ele>1763.2</ele>
        <time>2014-06-27T09:33:09Z</time>
      </trkpt>
      <trkpt lat="46.2263" lon="6.8033">
        <ele>1758.39</ele>
        <time>2014-06-27T09:33:13Z</time>
      </trkpt>
      <trkpt lat="46.22641" lon="6.80333">
        <ele>1754.54</ele>
        <time>2014-06-27T09:33:15Z</time>
      </trkpt>
      <trkpt lat="46.22648" lon="6.80333">
        <ele>1752.62</ele>
        <time>2014-06-27T09:33:16Z</time>
      </trkpt>
      <trkpt lat="46.22667" lon="6.80329">
        <ele>1747.33</ele>
        <time>2014-06-27T09:33:19Z</time>
      </trkpt>
      <trkpt lat="46.22681" lon="6.80325">
        <ele>1743.49</ele>
        <time>2014-06-27T09:33:21Z</time>
      </trkpt>
      <trkpt lat="46.22697" lon="6.80322">
        <ele>1739.64</ele>
        <time>2014-06-27T09:33:23Z</time>
      </trkpt>
      <trkpt lat="46.22713" lon="6.80318">
        <ele>1736.28</ele>
        <time>2014-06-27T09:33:25Z</time>
      </trkpt>
      <trkpt lat="46.2273" lon="6.80313">
        <ele>1734.84</ele>
        <time>2014-06-27T09:33:27Z</time>
      </trkpt>
      <trkpt lat="46.22749" lon="6.803">
        <ele>1731.47</ele>
        <time>2014-06-27T09:33:30Z</time>
      </trkpt>
      <trkpt lat="46.22758" lon="6.80274">
        <ele>1727.15</ele>
        <time>2014-06-27T09:33:37Z</time>
      </trkpt>
      <trkpt lat="46.22756" lon="6.80271">
        <ele>1727.15</ele>
        <time>2014-06-27T09:33:54Z</time>
      </trkpt>
      <trkpt lat="46.22754" lon="6.80269">
        <ele>1727.15</ele>
        <time>2014-06-27T09:34:06Z</time>
      </trkpt>
      <trkpt lat="46.22754" lon="6.80269">
        <ele>1727.15</ele>
        <time>2014-06-27T09:34:23Z</time>
      </trkpt>
      <trkpt lat="46.22747" lon="6.8027">
        <ele>1727.15</ele>
        <time>2014-06-27T09:34:27Z</time>
      </trkpt>
      <trkpt lat="46.22727" lon="6.80238">
        <ele>1723.3</ele>
        <time>2014-06-27T09:34:33Z</time>
      </trkpt>
      <trkpt lat="46.22727" lon="6.80218">
        <ele>1719.94</ele>
        <time>2014-06-27T09:34:35Z</time>
      </trkpt>
      <trkpt lat="46.22725" lon="6.80183">
        <ele>1714.65</ele>
        <time>2014-06-27T09:34:38Z</time>
      </trkpt>
      <trkpt lat="46.22713" lon="6.80152">
        <ele>1709.36</ele>
        <time>2014-06-27T09:34:42Z</time>
      </trkpt>
      <trkpt lat="46.22696" lon="6.80095">
        <ele>1706</ele>
        <time>2014-06-27T09:34:50Z</time>
      </trkpt>
      <trkpt lat="46.22692" lon="6.80088">
        <ele>1705.52</ele>
        <time>2014-06-27T09:34:51Z</time>
      </trkpt>
      <trkpt lat="46.22682" lon="6.80052">
        <ele>1698.79</ele>
        <time>2014-06-27T09:34:56Z</time>
      </trkpt>
      <trkpt lat="46.22683" lon="6.80022">
        <ele>1692.06</ele>
        <time>2014-06-27T09:35:00Z</time>
      </trkpt>
      <trkpt lat="46.22683" lon="6.80005">
        <ele>1688.69</ele>
        <time>2014-06-27T09:35:02Z</time>
      </trkpt>
      <trkpt lat="46.22683" lon="6.79987">
        <ele>1686.29</ele>
        <time>2014-06-27T09:35:04Z</time>
      </trkpt>
      <trkpt lat="46.22677" lon="6.7996">
        <ele>1683.89</ele>
        <time>2014-06-27T09:35:07Z</time>
      </trkpt>
      <trkpt lat="46.22665" lon="6.79915">
        <ele>1682.44</ele>
        <time>2014-06-27T09:35:12Z</time>
      </trkpt>
      <trkpt lat="46.22656" lon="6.79897">
        <ele>1680.52</ele>
        <time>2014-06-27T09:35:15Z</time>
      </trkpt>
      <trkpt lat="46.22664" lon="6.79865">
        <ele>1676.2</ele>
        <time>2014-06-27T09:35:20Z</time>
      </trkpt>
      <trkpt lat="46.22674" lon="6.79847">
        <ele>1670.91</ele>
        <time>2014-06-27T09:35:26Z</time>
      </trkpt>
      <trkpt lat="46.22674" lon="6.79847">
        <ele>1670.91</ele>
        <time>2014-06-27T09:35:27Z</time>
      </trkpt>
      <trkpt lat="46.22674" lon="6.79847">
        <ele>1671.39</ele>
        <time>2014-06-27T09:35:31Z</time>
      </trkpt>
      <trkpt lat="46.22685" lon="6.79871">
        <ele>1671.39</ele>
        <time>2014-06-27T09:35:38Z</time>
      </trkpt>
      <trkpt lat="46.22691" lon="6.79891">
        <ele>1671.39</ele>
        <time>2014-06-27T09:35:41Z</time>
      </trkpt>
      <trkpt lat="46.22718" lon="6.79918">
        <ele>1667.54</ele>
        <time>2014-06-27T09:35:47Z</time>
      </trkpt>
      <trkpt lat="46.22744" lon="6.79914">
        <ele>1660.81</ele>
        <time>2014-06-27T09:35:51Z</time>
      </trkpt>
      <trkpt lat="46.2276" lon="6.79908">
        <ele>1656.97</ele>
        <time>2014-06-27T09:35:53Z</time>
      </trkpt>
      <trkpt lat="46.22768" lon="6.79904">
        <ele>1655.05</ele>
        <time>2014-06-27T09:35:54Z</time>
      </trkpt>
      <trkpt lat="46.22791" lon="6.79888">
        <ele>1650.24</ele>
        <time>2014-06-27T09:35:57Z</time>
      </trkpt>
      <trkpt lat="46.22806" lon="6.79877">
        <ele>1647.84</ele>
        <time>2014-06-27T09:35:59Z</time>
      </trkpt>
      <trkpt lat="46.22823" lon="6.79869">
        <ele>1646.88</ele>
        <time>2014-06-27T09:36:01Z</time>
      </trkpt>
      <trkpt lat="46.22839" lon="6.79864">
        <ele>1644.95</ele>
        <time>2014-06-27T09:36:03Z</time>
      </trkpt>
      <trkpt lat="46.22858" lon="6.79867">
        <ele>1644.95</ele>
        <time>2014-06-27T09:36:07Z</time>
      </trkpt>
      <trkpt lat="46.22863" lon="6.7987">
        <ele>1645.91</ele>
        <time>2014-06-27T09:36:19Z</time>
      </trkpt>
      <trkpt lat="46.22863" lon="6.7987">
        <ele>1646.88</ele>
        <time>2014-06-27T09:36:32Z</time>
      </trkpt>
      <trkpt lat="46.22864" lon="6.79871">
        <ele>1647.36</ele>
        <time>2014-06-27T09:36:54Z</time>
      </trkpt>
      <trkpt lat="46.22864" lon="6.79871">
        <ele>1647.36</ele>
        <time>2014-06-27T09:37:11Z</time>
      </trkpt>
      <trkpt lat="46.22869" lon="6.79871">
        <ele>1647.36</ele>
        <time>2014-06-27T09:37:24Z</time>
      </trkpt>
      <trkpt lat="46.22917" lon="6.79886">
        <ele>1643.51</ele>
        <time>2014-06-27T09:37:31Z</time>
      </trkpt>
      <trkpt lat="46.22946" lon="6.79884">
        <ele>1640.15</ele>
        <time>2014-06-27T09:37:35Z</time>
      </trkpt>
      <trkpt lat="46.22958" lon="6.79878">
        <ele>1639.19</ele>
        <time>2014-06-27T09:37:37Z</time>
      </trkpt>
      <trkpt lat="46.22989" lon="6.79848">
        <ele>1643.03</ele>
        <time>2014-06-27T09:37:44Z</time>
      </trkpt>
      <trkpt lat="46.23" lon="6.79835">
        <ele>1646.88</ele>
        <time>2014-06-27T09:37:48Z</time>
      </trkpt>
      <trkpt lat="46.23007" lon="6.79827">
        <ele>1648.32</ele>
        <time>2014-06-27T09:37:51Z</time>
      </trkpt>
      <trkpt lat="46.23042" lon="6.79814">
        <ele>1649.28</ele>
        <time>2014-06-27T09:38:02Z</time>
      </trkpt>
      <trkpt lat="46.23092" lon="6.79828">
        <ele>1649.76</ele>
        <time>2014-06-27T09:38:12Z</time>
      </trkpt>
      <trkpt lat="46.23122" lon="6.79852">
        <ele>1650.24</ele>
        <time>2014-06-27T09:38:19Z</time>
      </trkpt>
      <trkpt lat="46.23145" lon="6.79878">
        <ele>1650.24</ele>
        <time>2014-06-27T09:38:25Z</time>
      </trkpt>
      <trkpt lat="46.23162" lon="6.79895">
        <ele>1650.24</ele>
        <time>2014-06-27T09:38:29Z</time>
      </trkpt>
      <trkpt lat="46.23207" lon="6.79925">
        <ele>1650.24</ele>
        <time>2014-06-27T09:38:38Z</time>
      </trkpt>
      <trkpt lat="46.23231" lon="6.7995">
        <ele>1650.24</ele>
        <time>2014-06-27T09:38:43Z</time>
      </trkpt>
      <trkpt lat="46.23242" lon="6.79967">
        <ele>1650.24</ele>
        <time>2014-06-27T09:38:46Z</time>
      </trkpt>
      <trkpt lat="46.23248" lon="6.79979">
        <ele>1650.24</ele>
        <time>2014-06-27T09:38:48Z</time>
      </trkpt>
      <trkpt lat="46.23267" lon="6.8004">
        <ele>1648.8</ele>
        <time>2014-06-27T09:38:56Z</time>
      </trkpt>
      <trkpt lat="46.23284" lon="6.80061">
        <ele>1645.43</ele>
        <time>2014-06-27T09:38:59Z</time>
      </trkpt>
      <trkpt lat="46.23299" lon="6.8007">
        <ele>1642.07</ele>
        <time>2014-06-27T09:39:01Z</time>
      </trkpt>
      <trkpt lat="46.23306" lon="6.80072">
        <ele>1640.63</ele>
        <time>2014-06-27T09:39:02Z</time>
      </trkpt>
      <trkpt lat="46.23327" lon="6.8008">
        <ele>1634.86</ele>
        <time>2014-06-27T09:39:06Z</time>
      </trkpt>
      <trkpt lat="46.23335" lon="6.80082">
        <ele>1634.86</ele>
        <time>2014-06-27T09:39:08Z</time>
      </trkpt>
      <trkpt lat="46.23348" lon="6.80084">
        <ele>1638.22</ele>
        <time>2014-06-27T09:39:13Z</time>
      </trkpt>
      <trkpt lat="46.23355" lon="6.80092">
        <ele>1641.11</ele>
        <time>2014-06-27T09:39:16Z</time>
      </trkpt>
      <trkpt lat="46.23369" lon="6.80099">
        <ele>1642.07</ele>
        <time>2014-06-27T09:39:20Z</time>
      </trkpt>
      <trkpt lat="46.23376" lon="6.801">
        <ele>1642.07</ele>
        <time>2014-06-27T09:39:22Z</time>
      </trkpt>
      <trkpt lat="46.23392" lon="6.8009">
        <ele>1642.07</ele>
        <time>2014-06-27T09:39:26Z</time>
      </trkpt>
      <trkpt lat="46.23399" lon="6.80084">
        <ele>1642.07</ele>
        <time>2014-06-27T09:39:28Z</time>
      </trkpt>
      <trkpt lat="46.2342" lon="6.80066">
        <ele>1640.63</ele>
        <time>2014-06-27T09:39:34Z</time>
      </trkpt>
      <trkpt lat="46.23432" lon="6.80064">
        <ele>1640.63</ele>
        <time>2014-06-27T09:39:38Z</time>
      </trkpt>
      <trkpt lat="46.23447" lon="6.80078">
        <ele>1640.63</ele>
        <time>2014-06-27T09:39:43Z</time>
      </trkpt>
      <trkpt lat="46.23458" lon="6.80098">
        <ele>1640.63</ele>
        <time>2014-06-27T09:39:49Z</time>
      </trkpt>
      <trkpt lat="46.23484" lon="6.80088">
        <ele>1642.07</ele>
        <time>2014-06-27T09:39:59Z</time>
      </trkpt>
      <trkpt lat="46.23506" lon="6.80081">
        <ele>1642.07</ele>
        <time>2014-06-27T09:40:05Z</time>
      </trkpt>
      <trkpt lat="46.23526" lon="6.80066">
        <ele>1642.07</ele>
        <time>2014-06-27T09:40:11Z</time>
      </trkpt>
      <trkpt lat="46.23543" lon="6.80073">
        <ele>1642.07</ele>
        <time>2014-06-27T09:40:16Z</time>
      </trkpt>
      <trkpt lat="46.23566" lon="6.80078">
        <ele>1642.07</ele>
        <time>2014-06-27T09:40:22Z</time>
      </trkpt>
      <trkpt lat="46.23576" lon="6.80088">
        <ele>1641.11</ele>
        <time>2014-06-27T09:40:25Z</time>
      </trkpt>
      <trkpt lat="46.23609" lon="6.80131">
        <ele>1639.67</ele>
        <time>2014-06-27T09:40:34Z</time>
      </trkpt>
      <trkpt lat="46.23623" lon="6.80143">
        <ele>1635.82</ele>
        <time>2014-06-27T09:40:37Z</time>
      </trkpt>
      <trkpt lat="46.23628" lon="6.80153">
        <ele>1632.46</ele>
        <time>2014-06-27T09:40:39Z</time>
      </trkpt>
      <trkpt lat="46.23631" lon="6.80159">
        <ele>1630.53</ele>
        <time>2014-06-27T09:40:40Z</time>
      </trkpt>
      <trkpt lat="46.23638" lon="6.80173">
        <ele>1626.21</ele>
        <time>2014-06-27T09:40:42Z</time>
      </trkpt>
      <trkpt lat="46.23653" lon="6.80191">
        <ele>1621.88</ele>
        <time>2014-06-27T09:40:46Z</time>
      </trkpt>
      <trkpt lat="46.23658" lon="6.80197">
        <ele>1624.28</ele>
        <time>2014-06-27T09:40:53Z</time>
      </trkpt>
      <trkpt lat="46.2366" lon="6.802">
        <ele>1626.69</ele>
        <time>2014-06-27T09:41:01Z</time>
      </trkpt>
      <trkpt lat="46.23681" lon="6.80227">
        <ele>1625.25</ele>
        <time>2014-06-27T09:41:11Z</time>
      </trkpt>
      <trkpt lat="46.23683" lon="6.80233">
        <ele>1625.25</ele>
        <time>2014-06-27T09:41:12Z</time>
      </trkpt>
      <trkpt lat="46.23695" lon="6.80257">
        <ele>1624.28</ele>
        <time>2014-06-27T09:41:16Z</time>
      </trkpt>
      <trkpt lat="46.23703" lon="6.80297">
        <ele>1620.44</ele>
        <time>2014-06-27T09:41:21Z</time>
      </trkpt>
      <trkpt lat="46.23705" lon="6.80305">
        <ele>1619</ele>
        <time>2014-06-27T09:41:22Z</time>
      </trkpt>
      <trkpt lat="46.23709" lon="6.80334">
        <ele>1615.63</ele>
        <time>2014-06-27T09:41:26Z</time>
      </trkpt>
      <trkpt lat="46.23707" lon="6.80363">
        <ele>1612.75</ele>
        <time>2014-06-27T09:41:30Z</time>
      </trkpt>
      <trkpt lat="46.23702" lon="6.80392">
        <ele>1613.23</ele>
        <time>2014-06-27T09:41:36Z</time>
      </trkpt>
      <trkpt lat="46.23696" lon="6.80418">
        <ele>1612.75</ele>
        <time>2014-06-27T09:41:41Z</time>
      </trkpt>
      <trkpt lat="46.23688" lon="6.80467">
        <ele>1612.27</ele>
        <time>2014-06-27T09:41:50Z</time>
      </trkpt>
      <trkpt lat="46.23682" lon="6.80493">
        <ele>1610.83</ele>
        <time>2014-06-27T09:41:53Z</time>
      </trkpt>
      <trkpt lat="46.23687" lon="6.80522">
        <ele>1606.02</ele>
        <time>2014-06-27T09:41:57Z</time>
      </trkpt>
      <trkpt lat="46.23697" lon="6.8053">
        <ele>1602.17</ele>
        <time>2014-06-27T09:42:00Z</time>
      </trkpt>
      <trkpt lat="46.23704" lon="6.80534">
        <ele>1600.73</ele>
        <time>2014-06-27T09:42:02Z</time>
      </trkpt>
      <trkpt lat="46.23704" lon="6.80549">
        <ele>1601.69</ele>
        <time>2014-06-27T09:42:06Z</time>
      </trkpt>
      <trkpt lat="46.23699" lon="6.80558">
        <ele>1601.69</ele>
        <time>2014-06-27T09:42:08Z</time>
      </trkpt>
      <trkpt lat="46.23711" lon="6.80594">
        <ele>1597.85</ele>
        <time>2014-06-27T09:42:16Z</time>
      </trkpt>
      <trkpt lat="46.23716" lon="6.80605">
        <ele>1594</ele>
        <time>2014-06-27T09:42:19Z</time>
      </trkpt>
      <trkpt lat="46.23724" lon="6.80618">
        <ele>1590.16</ele>
        <time>2014-06-27T09:42:22Z</time>
      </trkpt>
      <trkpt lat="46.23732" lon="6.80628">
        <ele>1588.24</ele>
        <time>2014-06-27T09:42:25Z</time>
      </trkpt>
      <trkpt lat="46.2375" lon="6.80659">
        <ele>1587.75</ele>
        <time>2014-06-27T09:42:33Z</time>
      </trkpt>
      <trkpt lat="46.23766" lon="6.80673">
        <ele>1584.39</ele>
        <time>2014-06-27T09:42:37Z</time>
      </trkpt>
      <trkpt lat="46.23772" lon="6.80687">
        <ele>1579.58</ele>
        <time>2014-06-27T09:42:40Z</time>
      </trkpt>
      <trkpt lat="46.23784" lon="6.807">
        <ele>1575.26</ele>
        <time>2014-06-27T09:42:43Z</time>
      </trkpt>
      <trkpt lat="46.23803" lon="6.80717">
        <ele>1572.37</ele>
        <time>2014-06-27T09:42:47Z</time>
      </trkpt>
      <trkpt lat="46.23835" lon="6.80724">
        <ele>1572.37</ele>
        <time>2014-06-27T09:42:52Z</time>
      </trkpt>
      <trkpt lat="46.23852" lon="6.80731">
        <ele>1572.37</ele>
        <time>2014-06-27T09:42:56Z</time>
      </trkpt>
      <trkpt lat="46.23894" lon="6.8075">
        <ele>1569.49</ele>
        <time>2014-06-27T09:43:04Z</time>
      </trkpt>
      <trkpt lat="46.23912" lon="6.80766">
        <ele>1564.2</ele>
        <time>2014-06-27T09:43:08Z</time>
      </trkpt>
      <trkpt lat="46.23934" lon="6.80778">
        <ele>1559.88</ele>
        <time>2014-06-27T09:43:13Z</time>
      </trkpt>
      <trkpt lat="46.23949" lon="6.80797">
        <ele>1559.88</ele>
        <time>2014-06-27T09:43:17Z</time>
      </trkpt>
      <trkpt lat="46.23961" lon="6.80812">
        <ele>1559.88</ele>
        <time>2014-06-27T09:43:20Z</time>
      </trkpt>
      <trkpt lat="46.23986" lon="6.80825">
        <ele>1556.99</ele>
        <time>2014-06-27T09:43:25Z</time>
      </trkpt>
      <trkpt lat="46.24013" lon="6.80822">
        <ele>1552.67</ele>
        <time>2014-06-27T09:43:29Z</time>
      </trkpt>
      <trkpt lat="46.24033" lon="6.8082">
        <ele>1549.3</ele>
        <time>2014-06-27T09:43:32Z</time>
      </trkpt>
      <trkpt lat="46.24044" lon="6.8082">
        <ele>1547.38</ele>
        <time>2014-06-27T09:43:34Z</time>
      </trkpt>
      <trkpt lat="46.24065" lon="6.80824">
        <ele>1546.42</ele>
        <time>2014-06-27T09:43:38Z</time>
      </trkpt>
      <trkpt lat="46.24105" lon="6.80826">
        <ele>1546.42</ele>
        <time>2014-06-27T09:43:45Z</time>
      </trkpt>
      <trkpt lat="46.24113" lon="6.8083">
        <ele>1545.94</ele>
        <time>2014-06-27T09:43:47Z</time>
      </trkpt>
      <trkpt lat="46.24165" lon="6.80863">
        <ele>1544.01</ele>
        <time>2014-06-27T09:43:56Z</time>
      </trkpt>
      <trkpt lat="46.24204" lon="6.80869">
        <ele>1543.05</ele>
        <time>2014-06-27T09:44:02Z</time>
      </trkpt>
      <trkpt lat="46.24231" lon="6.80894">
        <ele>1538.25</ele>
        <time>2014-06-27T09:44:08Z</time>
      </trkpt>
      <trkpt lat="46.24237" lon="6.809">
        <ele>1537.77</ele>
        <time>2014-06-27T09:44:09Z</time>
      </trkpt>
      <trkpt lat="46.24252" lon="6.80921">
        <ele>1534.4</ele>
        <time>2014-06-27T09:44:12Z</time>
      </trkpt>
      <trkpt lat="46.24265" lon="6.80949">
        <ele>1532.96</ele>
        <time>2014-06-27T09:44:15Z</time>
      </trkpt>
      <trkpt lat="46.24277" lon="6.80967">
        <ele>1532</ele>
        <time>2014-06-27T09:44:17Z</time>
      </trkpt>
      <trkpt lat="46.24301" lon="6.81008">
        <ele>1529.11</ele>
        <time>2014-06-27T09:44:21Z</time>
      </trkpt>
      <trkpt lat="46.24328" lon="6.81062">
        <ele>1526.23</ele>
        <time>2014-06-27T09:44:27Z</time>
      </trkpt>
      <trkpt lat="46.24334" lon="6.81067">
        <ele>1524.79</ele>
        <time>2014-06-27T09:44:28Z</time>
      </trkpt>
      <trkpt lat="46.24345" lon="6.81079">
        <ele>1524.79</ele>
        <time>2014-06-27T09:44:30Z</time>
      </trkpt>
      <trkpt lat="46.24355" lon="6.81091">
        <ele>1525.27</ele>
        <time>2014-06-27T09:44:32Z</time>
      </trkpt>
      <trkpt lat="46.24395" lon="6.8113">
        <ele>1526.23</ele>
        <time>2014-06-27T09:44:41Z</time>
      </trkpt>
      <trkpt lat="46.24403" lon="6.81158">
        <ele>1526.23</ele>
        <time>2014-06-27T09:44:45Z</time>
      </trkpt>
      <trkpt lat="46.2441" lon="6.81184">
        <ele>1526.23</ele>
        <time>2014-06-27T09:44:48Z</time>
      </trkpt>
      <trkpt lat="46.24425" lon="6.81216">
        <ele>1526.23</ele>
        <time>2014-06-27T09:44:52Z</time>
      </trkpt>
      <trkpt lat="46.2446" lon="6.81247">
        <ele>1524.79</ele>
        <time>2014-06-27T09:45:00Z</time>
      </trkpt>
      <trkpt lat="46.24479" lon="6.81265">
        <ele>1525.75</ele>
        <time>2014-06-27T09:45:08Z</time>
      </trkpt>
      <trkpt lat="46.24488" lon="6.813">
        <ele>1528.15</ele>
        <time>2014-06-27T09:45:21Z</time>
      </trkpt>
      <trkpt lat="46.24508" lon="6.81329">
        <ele>1528.63</ele>
        <time>2014-06-27T09:45:31Z</time>
      </trkpt>
      <trkpt lat="46.2452" lon="6.81363">
        <ele>1530.08</ele>
        <time>2014-06-27T09:45:41Z</time>
      </trkpt>
      <trkpt lat="46.24532" lon="6.81383">
        <ele>1530.08</ele>
        <time>2014-06-27T09:45:46Z</time>
      </trkpt>
      <trkpt lat="46.24538" lon="6.81434">
        <ele>1529.59</ele>
        <time>2014-06-27T09:45:53Z</time>
      </trkpt>
      <trkpt lat="46.24533" lon="6.81465">
        <ele>1522.39</ele>
        <time>2014-06-27T09:45:57Z</time>
      </trkpt>
      <trkpt lat="46.24521" lon="6.81481">
        <ele>1518.06</ele>
        <time>2014-06-27T09:46:00Z</time>
      </trkpt>
      <trkpt lat="46.24517" lon="6.81488">
        <ele>1516.62</ele>
        <time>2014-06-27T09:46:01Z</time>
      </trkpt>
      <trkpt lat="46.24502" lon="6.81515">
        <ele>1510.85</ele>
        <time>2014-06-27T09:46:05Z</time>
      </trkpt>
      <trkpt lat="46.24495" lon="6.81528">
        <ele>1507.48</ele>
        <time>2014-06-27T09:46:07Z</time>
      </trkpt>
      <trkpt lat="46.2449" lon="6.81535">
        <ele>1506.04</ele>
        <time>2014-06-27T09:46:08Z</time>
      </trkpt>
      <trkpt lat="46.24481" lon="6.81558">
        <ele>1502.2</ele>
        <time>2014-06-27T09:46:11Z</time>
      </trkpt>
      <trkpt lat="46.24461" lon="6.81602">
        <ele>1496.91</ele>
        <time>2014-06-27T09:46:16Z</time>
      </trkpt>
      <trkpt lat="46.24447" lon="6.81635">
        <ele>1493.06</ele>
        <time>2014-06-27T09:46:20Z</time>
      </trkpt>
      <trkpt lat="46.2444" lon="6.81665">
        <ele>1490.18</ele>
        <time>2014-06-27T09:46:23Z</time>
      </trkpt>
      <trkpt lat="46.24441" lon="6.81696">
        <ele>1487.3</ele>
        <time>2014-06-27T09:46:26Z</time>
      </trkpt>
      <trkpt lat="46.24459" lon="6.81729">
        <ele>1482.49</ele>
        <time>2014-06-27T09:46:31Z</time>
      </trkpt>
      <trkpt lat="46.24487" lon="6.8175">
        <ele>1479.13</ele>
        <time>2014-06-27T09:46:35Z</time>
      </trkpt>
      <trkpt lat="46.24495" lon="6.81755">
        <ele>1478.16</ele>
        <time>2014-06-27T09:46:36Z</time>
      </trkpt>
      <trkpt lat="46.24521" lon="6.81766">
        <ele>1475.76</ele>
        <time>2014-06-27T09:46:39Z</time>
      </trkpt>
      <trkpt lat="46.24557" lon="6.81771">
        <ele>1473.36</ele>
        <time>2014-06-27T09:46:43Z</time>
      </trkpt>
      <trkpt lat="46.2458" lon="6.81766">
        <ele>1473.84</ele>
        <time>2014-06-27T09:46:46Z</time>
      </trkpt>
      <trkpt lat="46.24616" lon="6.81774">
        <ele>1472.4</ele>
        <time>2014-06-27T09:46:51Z</time>
      </trkpt>
      <trkpt lat="46.24641" lon="6.81804">
        <ele>1467.59</ele>
        <time>2014-06-27T09:46:55Z</time>
      </trkpt>
      <trkpt lat="46.24646" lon="6.81814">
        <ele>1466.15</ele>
        <time>2014-06-27T09:46:56Z</time>
      </trkpt>
      <trkpt lat="46.24655" lon="6.81841">
        <ele>1460.38</ele>
        <time>2014-06-27T09:46:59Z</time>
      </trkpt>
      <trkpt lat="46.24656" lon="6.81863">
        <ele>1457.02</ele>
        <time>2014-06-27T09:47:01Z</time>
      </trkpt>
      <trkpt lat="46.24663" lon="6.81909">
        <ele>1454.61</ele>
        <time>2014-06-27T09:47:06Z</time>
      </trkpt>
      <trkpt lat="46.24699" lon="6.81957">
        <ele>1449.81</ele>
        <time>2014-06-27T09:47:13Z</time>
      </trkpt>
      <trkpt lat="46.24714" lon="6.81977">
        <ele>1445.48</ele>
        <time>2014-06-27T09:47:16Z</time>
      </trkpt>
      <trkpt lat="46.24725" lon="6.82001">
        <ele>1439.23</ele>
        <time>2014-06-27T09:47:19Z</time>
      </trkpt>
      <trkpt lat="46.24728" lon="6.82011">
        <ele>1437.31</ele>
        <time>2014-06-27T09:47:20Z</time>
      </trkpt>
      <trkpt lat="46.24736" lon="6.82042">
        <ele>1432.02</ele>
        <time>2014-06-27T09:47:23Z</time>
      </trkpt>
      <trkpt lat="46.24743" lon="6.82074">
        <ele>1428.66</ele>
        <time>2014-06-27T09:47:26Z</time>
      </trkpt>
      <trkpt lat="46.24753" lon="6.82146">
        <ele>1425.77</ele>
        <time>2014-06-27T09:47:33Z</time>
      </trkpt>
      <trkpt lat="46.24754" lon="6.82155">
        <ele>1425.77</ele>
        <time>2014-06-27T09:47:34Z</time>
      </trkpt>
      <trkpt lat="46.24753" lon="6.82199">
        <ele>1421.93</ele>
        <time>2014-06-27T09:47:39Z</time>
      </trkpt>
      <trkpt lat="46.24751" lon="6.82218">
        <ele>1420</ele>
        <time>2014-06-27T09:47:41Z</time>
      </trkpt>
      <trkpt lat="46.24748" lon="6.82248">
        <ele>1415.2</ele>
        <time>2014-06-27T09:47:44Z</time>
      </trkpt>
      <trkpt lat="46.24747" lon="6.82257">
        <ele>1413.28</ele>
        <time>2014-06-27T09:47:45Z</time>
      </trkpt>
      <trkpt lat="46.24748" lon="6.82279">
        <ele>1408.47</ele>
        <time>2014-06-27T09:47:48Z</time>
      </trkpt>
      <trkpt lat="46.2474" lon="6.82306">
        <ele>1404.62</ele>
        <time>2014-06-27T09:47:52Z</time>
      </trkpt>
      <trkpt lat="46.24718" lon="6.82341">
        <ele>1403.18</ele>
        <time>2014-06-27T09:47:58Z</time>
      </trkpt>
      <trkpt lat="46.24698" lon="6.82398">
        <ele>1399.34</ele>
        <time>2014-06-27T09:48:04Z</time>
      </trkpt>
      <trkpt lat="46.24682" lon="6.82434">
        <ele>1395.49</ele>
        <time>2014-06-27T09:48:08Z</time>
      </trkpt>
      <trkpt lat="46.24674" lon="6.82471">
        <ele>1390.2</ele>
        <time>2014-06-27T09:48:12Z</time>
      </trkpt>
      <trkpt lat="46.24687" lon="6.82498">
        <ele>1385.88</ele>
        <time>2014-06-27T09:48:15Z</time>
      </trkpt>
      <trkpt lat="46.24694" lon="6.82506">
        <ele>1384.92</ele>
        <time>2014-06-27T09:48:16Z</time>
      </trkpt>
      <trkpt lat="46.24731" lon="6.82539">
        <ele>1380.59</ele>
        <time>2014-06-27T09:48:21Z</time>
      </trkpt>
      <trkpt lat="46.24754" lon="6.82558">
        <ele>1380.11</ele>
        <time>2014-06-27T09:48:28Z</time>
      </trkpt>
      <trkpt lat="46.24785" lon="6.82584">
        <ele>1378.67</ele>
        <time>2014-06-27T09:48:37Z</time>
      </trkpt>
      <trkpt lat="46.24804" lon="6.82594">
        <ele>1378.19</ele>
        <time>2014-06-27T09:48:41Z</time>
      </trkpt>
      <trkpt lat="46.24833" lon="6.82604">
        <ele>1372.9</ele>
        <time>2014-06-27T09:48:46Z</time>
      </trkpt>
      <trkpt lat="46.24846" lon="6.82605">
        <ele>1370.98</ele>
        <time>2014-06-27T09:48:48Z</time>
      </trkpt>
      <trkpt lat="46.2486" lon="6.82604">
        <ele>1369.05</ele>
        <time>2014-06-27T09:48:50Z</time>
      </trkpt>
      <trkpt lat="46.24904" lon="6.82605">
        <ele>1365.21</ele>
        <time>2014-06-27T09:48:56Z</time>
      </trkpt>
      <trkpt lat="46.24936" lon="6.82611">
        <ele>1360.88</ele>
        <time>2014-06-27T09:49:01Z</time>
      </trkpt>
      <trkpt lat="46.24962" lon="6.82613">
        <ele>1356.08</ele>
        <time>2014-06-27T09:49:05Z</time>
      </trkpt>
      <trkpt lat="46.24995" lon="6.82636">
        <ele>1350.79</ele>
        <time>2014-06-27T09:49:10Z</time>
      </trkpt>
      <trkpt lat="46.25008" lon="6.8265">
        <ele>1349.83</ele>
        <time>2014-06-27T09:49:12Z</time>
      </trkpt>
      <trkpt lat="46.25043" lon="6.82695">
        <ele>1345.5</ele>
        <time>2014-06-27T09:49:18Z</time>
      </trkpt>
      <trkpt lat="46.25063" lon="6.82715">
        <ele>1341.18</ele>
        <time>2014-06-27T09:49:21Z</time>
      </trkpt>
      <trkpt lat="46.2508" lon="6.82731">
        <ele>1336.85</ele>
        <time>2014-06-27T09:49:24Z</time>
      </trkpt>
      <trkpt lat="46.25085" lon="6.82737">
        <ele>1336.85</ele>
        <time>2014-06-27T09:49:25Z</time>
      </trkpt>
      <trkpt lat="46.251" lon="6.82755">
        <ele>1333.01</ele>
        <time>2014-06-27T09:49:28Z</time>
      </trkpt>
      <trkpt lat="46.25114" lon="6.82775">
        <ele>1329.16</ele>
        <time>2014-06-27T09:49:31Z</time>
      </trkpt>
      <trkpt lat="46.25128" lon="6.82795">
        <ele>1325.31</ele>
        <time>2014-06-27T09:49:34Z</time>
      </trkpt>
      <trkpt lat="46.25133" lon="6.828">
        <ele>1324.35</ele>
        <time>2014-06-27T09:49:35Z</time>
      </trkpt>
      <trkpt lat="46.25154" lon="6.82818">
        <ele>1319.07</ele>
        <time>2014-06-27T09:49:39Z</time>
      </trkpt>
      <trkpt lat="46.25171" lon="6.82842">
        <ele>1313.78</ele>
        <time>2014-06-27T09:49:43Z</time>
      </trkpt>
      <trkpt lat="46.25174" lon="6.82857">
        <ele>1311.38</ele>
        <time>2014-06-27T09:49:45Z</time>
      </trkpt>
      <trkpt lat="46.25177" lon="6.82911">
        <ele>1307.05</ele>
        <time>2014-06-27T09:49:50Z</time>
      </trkpt>
      <trkpt lat="46.25177" lon="6.82922">
        <ele>1306.57</ele>
        <time>2014-06-27T09:49:51Z</time>
      </trkpt>
      <trkpt lat="46.25178" lon="6.82955">
        <ele>1303.69</ele>
        <time>2014-06-27T09:49:54Z</time>
      </trkpt>
      <trkpt lat="46.25185" lon="6.82996">
        <ele>1299.36</ele>
        <time>2014-06-27T09:49:58Z</time>
      </trkpt>
      <trkpt lat="46.25195" lon="6.83027">
        <ele>1296.48</ele>
        <time>2014-06-27T09:50:01Z</time>
      </trkpt>
      <trkpt lat="46.25207" lon="6.83068">
        <ele>1292.63</ele>
        <time>2014-06-27T09:50:05Z</time>
      </trkpt>
      <trkpt lat="46.2521" lon="6.83078">
        <ele>1291.67</ele>
        <time>2014-06-27T09:50:06Z</time>
      </trkpt>
      <trkpt lat="46.25218" lon="6.83117">
        <ele>1287.82</ele>
        <time>2014-06-27T09:50:10Z</time>
      </trkpt>
      <trkpt lat="46.25221" lon="6.83127">
        <ele>1286.86</ele>
        <time>2014-06-27T09:50:11Z</time>
      </trkpt>
      <trkpt lat="46.25245" lon="6.83173">
        <ele>1282.54</ele>
        <time>2014-06-27T09:50:16Z</time>
      </trkpt>
      <trkpt lat="46.25266" lon="6.83207">
        <ele>1280.13</ele>
        <time>2014-06-27T09:50:20Z</time>
      </trkpt>
      <trkpt lat="46.25284" lon="6.8324">
        <ele>1277.25</ele>
        <time>2014-06-27T09:50:24Z</time>
      </trkpt>
      <trkpt lat="46.25307" lon="6.83272">
        <ele>1273.88</ele>
        <time>2014-06-27T09:50:28Z</time>
      </trkpt>
      <trkpt lat="46.25337" lon="6.83324">
        <ele>1268.6</ele>
        <time>2014-06-27T09:50:33Z</time>
      </trkpt>
      <trkpt lat="46.25375" lon="6.83385">
        <ele>1265.23</ele>
        <time>2014-06-27T09:50:39Z</time>
      </trkpt>
      <trkpt lat="46.25412" lon="6.83449">
        <ele>1265.71</ele>
        <time>2014-06-27T09:50:47Z</time>
      </trkpt>
      <trkpt lat="46.25432" lon="6.83485">
        <ele>1265.71</ele>
        <time>2014-06-27T09:50:53Z</time>
      </trkpt>
      <trkpt lat="46.25462" lon="6.83556">
        <ele>1267.16</ele>
        <time>2014-06-27T09:51:04Z</time>
      </trkpt>
      <trkpt lat="46.25515" lon="6.83684">
        <ele>1268.12</ele>
        <time>2014-06-27T09:51:21Z</time>
      </trkpt>
      <trkpt lat="46.2556" lon="6.8376">
        <ele>1268.6</ele>
        <time>2014-06-27T09:51:33Z</time>
      </trkpt>
      <trkpt lat="46.25613" lon="6.83845">
        <ele>1268.12</ele>
        <time>2014-06-27T09:51:46Z</time>
      </trkpt>
      <trkpt lat="46.25626" lon="6.83878">
        <ele>1267.16</ele>
        <time>2014-06-27T09:51:51Z</time>
      </trkpt>
      <trkpt lat="46.2564" lon="6.83917">
        <ele>1266.67</ele>
        <time>2014-06-27T09:51:57Z</time>
      </trkpt>
      <trkpt lat="46.25654" lon="6.8394">
        <ele>1265.71</ele>
        <time>2014-06-27T09:52:01Z</time>
      </trkpt>
      <trkpt lat="46.25702" lon="6.83989">
        <ele>1262.35</ele>
        <time>2014-06-27T09:52:11Z</time>
      </trkpt>
      <trkpt lat="46.2571" lon="6.84">
        <ele>1259.94</ele>
        <time>2014-06-27T09:52:13Z</time>
      </trkpt>
      <trkpt lat="46.2572" lon="6.8402">
        <ele>1254.18</ele>
        <time>2014-06-27T09:52:17Z</time>
      </trkpt>
      <trkpt lat="46.25721" lon="6.84023">
        <ele>1252.74</ele>
        <time>2014-06-27T09:52:18Z</time>
      </trkpt>
      <trkpt lat="46.25727" lon="6.84034">
        <ele>1249.85</ele>
        <time>2014-06-27T09:52:24Z</time>
      </trkpt>
      <trkpt lat="46.25739" lon="6.84037">
        <ele>1254.18</ele>
        <time>2014-06-27T09:52:31Z</time>
      </trkpt>
      <trkpt lat="46.2574" lon="6.84037">
        <ele>1254.18</ele>
        <time>2014-06-27T09:52:45Z</time>
      </trkpt>
      <trkpt lat="46.2574" lon="6.84037">
        <ele>1252.74</ele>
        <time>2014-06-27T09:53:07Z</time>
      </trkpt>
      <trkpt lat="46.25756" lon="6.8404">
        <ele>1252.74</ele>
        <time>2014-06-27T09:53:23Z</time>
      </trkpt>
      <trkpt lat="46.25818" lon="6.84054">
        <ele>1250.81</ele>
        <time>2014-06-27T09:53:34Z</time>
      </trkpt>
      <trkpt lat="46.25916" lon="6.84082">
        <ele>1246.97</ele>
        <time>2014-06-27T09:53:47Z</time>
      </trkpt>
      <trkpt lat="46.25947" lon="6.8409">
        <ele>1243.6</ele>
        <time>2014-06-27T09:53:51Z</time>
      </trkpt>
      <trkpt lat="46.25987" lon="6.8409">
        <ele>1240.72</ele>
        <time>2014-06-27T09:53:56Z</time>
      </trkpt>
      <trkpt lat="46.26103" lon="6.84069">
        <ele>1239.76</ele>
        <time>2014-06-27T09:54:10Z</time>
      </trkpt>
      <trkpt lat="46.26159" lon="6.8408">
        <ele>1235.91</ele>
        <time>2014-06-27T09:54:16Z</time>
      </trkpt>
      <trkpt lat="46.26186" lon="6.84088">
        <ele>1232.55</ele>
        <time>2014-06-27T09:54:19Z</time>
      </trkpt>
      <trkpt lat="46.26215" lon="6.84098">
        <ele>1229.18</ele>
        <time>2014-06-27T09:54:22Z</time>
      </trkpt>
      <trkpt lat="46.26304" lon="6.84126">
        <ele>1225.34</ele>
        <time>2014-06-27T09:54:31Z</time>
      </trkpt>
      <trkpt lat="46.26366" lon="6.84146">
        <ele>1222.45</ele>
        <time>2014-06-27T09:54:37Z</time>
      </trkpt>
      <trkpt lat="46.26407" lon="6.84159">
        <ele>1219.09</ele>
        <time>2014-06-27T09:54:41Z</time>
      </trkpt>
      <trkpt lat="46.26449" lon="6.84172">
        <ele>1215.72</ele>
        <time>2014-06-27T09:54:45Z</time>
      </trkpt>
      <trkpt lat="46.26506" lon="6.84176">
        <ele>1212.84</ele>
        <time>2014-06-27T09:54:51Z</time>
      </trkpt>
      <trkpt lat="46.26548" lon="6.84172">
        <ele>1209.48</ele>
        <time>2014-06-27T09:54:57Z</time>
      </trkpt>
      <trkpt lat="46.26578" lon="6.84162">
        <ele>1206.59</ele>
        <time>2014-06-27T09:55:05Z</time>
      </trkpt>
      <trkpt lat="46.26606" lon="6.84148">
        <ele>1206.59</ele>
        <time>2014-06-27T09:55:14Z</time>
      </trkpt>
      <trkpt lat="46.26624" lon="6.84145">
        <ele>1206.11</ele>
        <time>2014-06-27T09:55:18Z</time>
      </trkpt>
      <trkpt lat="46.26672" lon="6.84126">
        <ele>1204.19</ele>
        <time>2014-06-27T09:55:29Z</time>
      </trkpt>
      <trkpt lat="46.2671" lon="6.84108">
        <ele>1203.23</ele>
        <time>2014-06-27T09:55:35Z</time>
      </trkpt>
      <trkpt lat="46.26756" lon="6.84103">
        <ele>1198.42</ele>
        <time>2014-06-27T09:55:42Z</time>
      </trkpt>
      <trkpt lat="46.26775" lon="6.84099">
        <ele>1195.54</ele>
        <time>2014-06-27T09:55:46Z</time>
      </trkpt>
      <trkpt lat="46.26798" lon="6.84079">
        <ele>1194.58</ele>
        <time>2014-06-27T09:55:54Z</time>
      </trkpt>
      <trkpt lat="46.268" lon="6.84071">
        <ele>1194.58</ele>
        <time>2014-06-27T09:56:03Z</time>
      </trkpt>
      <trkpt lat="46.268" lon="6.84071">
        <ele>1194.58</ele>
        <time>2014-06-27T09:56:18Z</time>
      </trkpt>
      <trkpt lat="46.26799" lon="6.84059">
        <ele>1194.58</ele>
        <time>2014-06-27T09:56:34Z</time>
      </trkpt>
      <trkpt lat="46.26803" lon="6.84046">
        <ele>1194.58</ele>
        <time>2014-06-27T09:56:40Z</time>
      </trkpt>
      <trkpt lat="46.26808" lon="6.84039">
        <ele>1194.58</ele>
        <time>2014-06-27T09:56:54Z</time>
      </trkpt>
      <trkpt lat="46.26807" lon="6.84039">
        <ele>1194.58</ele>
        <time>2014-06-27T09:57:12Z</time>
      </trkpt>
      <trkpt lat="46.26807" lon="6.84038">
        <ele>1194.58</ele>
        <time>2014-06-27T09:57:15Z</time>
      </trkpt>
      <trkpt lat="46.26811" lon="6.84032">
        <ele>1183.04</ele>
        <time>2014-06-27T10:48:42Z</time>
      </trkpt>
      <trkpt lat="46.26811" lon="6.84033">
        <ele>1183.04</ele>
        <time>2014-06-27T10:48:43Z</time>
      </trkpt>
      <trkpt lat="46.26805" lon="6.84028">
        <ele>1185.92</ele>
        <time>2014-06-27T10:48:57Z</time>
      </trkpt>
      <trkpt lat="46.26805" lon="6.84027">
        <ele>1189.29</ele>
        <time>2014-06-27T10:49:10Z</time>
      </trkpt>
      <trkpt lat="46.26807" lon="6.84025">
        <ele>1192.17</ele>
        <time>2014-06-27T10:49:27Z</time>
      </trkpt>
      <trkpt lat="46.26811" lon="6.84029">
        <ele>1194.58</ele>
        <time>2014-06-27T10:49:55Z</time>
      </trkpt>
      <trkpt lat="46.26809" lon="6.84032">
        <ele>1194.58</ele>
        <time>2014-06-27T10:50:10Z</time>
      </trkpt>
      <trkpt lat="46.26808" lon="6.8404">
        <ele>1194.58</ele>
        <time>2014-06-27T10:50:15Z</time>
      </trkpt>
      <trkpt lat="46.26805" lon="6.84054">
        <ele>1194.58</ele>
        <time>2014-06-27T10:50:26Z</time>
      </trkpt>
      <trkpt lat="46.26799" lon="6.84059">
        <ele>1194.58</ele>
        <time>2014-06-27T10:50:32Z</time>
      </trkpt>
      <trkpt lat="46.26802" lon="6.84065">
        <ele>1194.58</ele>
        <time>2014-06-27T10:50:36Z</time>
      </trkpt>
      <trkpt lat="46.26791" lon="6.8408">
        <ele>1194.58</ele>
        <time>2014-06-27T10:50:48Z</time>
      </trkpt>
      <trkpt lat="46.26777" lon="6.84089">
        <ele>1194.58</ele>
        <time>2014-06-27T10:50:56Z</time>
      </trkpt>
      <trkpt lat="46.26768" lon="6.841">
        <ele>1195.54</ele>
        <time>2014-06-27T10:51:01Z</time>
      </trkpt>
      <trkpt lat="46.26768" lon="6.84116">
        <ele>1196.02</ele>
        <time>2014-06-27T10:51:07Z</time>
      </trkpt>
      <trkpt lat="46.26753" lon="6.84126">
        <ele>1197.94</ele>
        <time>2014-06-27T10:51:17Z</time>
      </trkpt>
      <trkpt lat="46.26728" lon="6.84132">
        <ele>1199.86</ele>
        <time>2014-06-27T10:51:31Z</time>
      </trkpt>
      <trkpt lat="46.26703" lon="6.84141">
        <ele>1202.27</ele>
        <time>2014-06-27T10:51:44Z</time>
      </trkpt>
      <trkpt lat="46.2671" lon="6.84155">
        <ele>1203.23</ele>
        <time>2014-06-27T10:51:53Z</time>
      </trkpt>
      <trkpt lat="46.26721" lon="6.84164">
        <ele>1204.19</ele>
        <time>2014-06-27T10:51:59Z</time>
      </trkpt>
      <trkpt lat="46.26727" lon="6.84171">
        <ele>1204.67</ele>
        <time>2014-06-27T10:52:03Z</time>
      </trkpt>
      <trkpt lat="46.26724" lon="6.84181">
        <ele>1205.63</ele>
        <time>2014-06-27T10:52:08Z</time>
      </trkpt>
      <trkpt lat="46.26708" lon="6.84189">
        <ele>1207.07</ele>
        <time>2014-06-27T10:52:17Z</time>
      </trkpt>
      <trkpt lat="46.26702" lon="6.84195">
        <ele>1208.51</ele>
        <time>2014-06-27T10:52:21Z</time>
      </trkpt>
      <trkpt lat="46.26699" lon="6.84199">
        <ele>1208.51</ele>
        <time>2014-06-27T10:52:23Z</time>
      </trkpt>
      <trkpt lat="46.2668" lon="6.84209">
        <ele>1211.88</ele>
        <time>2014-06-27T10:52:33Z</time>
      </trkpt>
      <trkpt lat="46.26674" lon="6.84213">
        <ele>1215.24</ele>
        <time>2014-06-27T10:52:37Z</time>
      </trkpt>
      <trkpt lat="46.26656" lon="6.84218">
        <ele>1217.65</ele>
        <time>2014-06-27T10:52:49Z</time>
      </trkpt>
      <trkpt lat="46.26656" lon="6.84224">
        <ele>1217.65</ele>
        <time>2014-06-27T10:52:58Z</time>
      </trkpt>
      <trkpt lat="46.26656" lon="6.84234">
        <ele>1218.13</ele>
        <time>2014-06-27T10:53:17Z</time>
      </trkpt>
      <trkpt lat="46.26656" lon="6.84234">
        <ele>1219.09</ele>
        <time>2014-06-27T10:53:41Z</time>
      </trkpt>
      <trkpt lat="46.26656" lon="6.84234">
        <ele>1220.05</ele>
        <time>2014-06-27T10:54:02Z</time>
      </trkpt>
      <trkpt lat="46.26656" lon="6.84235">
        <ele>1220.53</ele>
        <time>2014-06-27T10:54:31Z</time>
      </trkpt>
      <trkpt lat="46.26657" lon="6.84235">
        <ele>1221.49</ele>
        <time>2014-06-27T10:54:49Z</time>
      </trkpt>
      <trkpt lat="46.26657" lon="6.84235">
        <ele>1221.49</ele>
        <time>2014-06-27T10:55:14Z</time>
      </trkpt>
      <trkpt lat="46.26657" lon="6.84235">
        <ele>1221.97</ele>
        <time>2014-06-27T10:55:43Z</time>
      </trkpt>
      <trkpt lat="46.26658" lon="6.84236">
        <ele>1221.49</ele>
        <time>2014-06-27T10:56:06Z</time>
      </trkpt>
      <trkpt lat="46.26658" lon="6.84236">
        <ele>1221.49</ele>
        <time>2014-06-27T10:56:31Z</time>
      </trkpt>
      <trkpt lat="46.26658" lon="6.84237">
        <ele>1221.49</ele>
        <time>2014-06-27T10:56:59Z</time>
      </trkpt>
      <trkpt lat="46.26658" lon="6.84237">
        <ele>1221.49</ele>
        <time>2014-06-27T10:57:23Z</time>
      </trkpt>
      <trkpt lat="46.26652" lon="6.8425">
        <ele>1221.49</ele>
        <time>2014-06-27T10:57:43Z</time>
      </trkpt>
      <trkpt lat="46.26652" lon="6.8425">
        <ele>1221.49</ele>
        <time>2014-06-27T10:57:47Z</time>
      </trkpt>
      <trkpt lat="46.26667" lon="6.84236">
        <ele>1221.49</ele>
        <time>2014-06-27T10:58:06Z</time>
      </trkpt>
      <trkpt lat="46.26665" lon="6.84239">
        <ele>1221.97</ele>
        <time>2014-06-27T10:58:29Z</time>
      </trkpt>
      <trkpt lat="46.26665" lon="6.84238">
        <ele>1221.97</ele>
        <time>2014-06-27T10:58:51Z</time>
      </trkpt>
      <trkpt lat="46.26666" lon="6.84237">
        <ele>1221.97</ele>
        <time>2014-06-27T10:59:13Z</time>
      </trkpt>
      <trkpt lat="46.26666" lon="6.84237">
        <ele>1221.97</ele>
        <time>2014-06-27T10:59:36Z</time>
      </trkpt>
      <trkpt lat="46.26666" lon="6.84237">
        <ele>1221.97</ele>
        <time>2014-06-27T10:59:51Z</time>
      </trkpt>
      <trkpt lat="46.26671" lon="6.84288">
        <ele>1224.86</ele>
        <time>2014-06-27T11:00:01Z</time>
      </trkpt>
      <trkpt lat="46.26673" lon="6.84302">
        <ele>1237.35</ele>
        <time>2014-06-27T11:00:03Z</time>
      </trkpt>
      <trkpt lat="46.26674" lon="6.84309">
        <ele>1241.68</ele>
        <time>2014-06-27T11:00:04Z</time>
      </trkpt>
      <trkpt lat="46.26675" lon="6.84323">
        <ele>1246.01</ele>
        <time>2014-06-27T11:00:06Z</time>
      </trkpt>
      <trkpt lat="46.26676" lon="6.84336">
        <ele>1251.29</ele>
        <time>2014-06-27T11:00:08Z</time>
      </trkpt>
      <trkpt lat="46.26677" lon="6.8435">
        <ele>1256.1</ele>
        <time>2014-06-27T11:00:10Z</time>
      </trkpt>
      <trkpt lat="46.26678" lon="6.84362">
        <ele>1259.94</ele>
        <time>2014-06-27T11:00:12Z</time>
      </trkpt>
      <trkpt lat="46.26678" lon="6.84374">
        <ele>1263.79</ele>
        <time>2014-06-27T11:00:14Z</time>
      </trkpt>
      <trkpt lat="46.26678" lon="6.84385">
        <ele>1267.16</ele>
        <time>2014-06-27T11:00:16Z</time>
      </trkpt>
      <trkpt lat="46.26678" lon="6.84396">
        <ele>1271</ele>
        <time>2014-06-27T11:00:18Z</time>
      </trkpt>
      <trkpt lat="46.26679" lon="6.84407">
        <ele>1275.81</ele>
        <time>2014-06-27T11:00:20Z</time>
      </trkpt>
      <trkpt lat="46.26679" lon="6.84418">
        <ele>1279.17</ele>
        <time>2014-06-27T11:00:22Z</time>
      </trkpt>
      <trkpt lat="46.2668" lon="6.84429">
        <ele>1284.94</ele>
        <time>2014-06-27T11:00:24Z</time>
      </trkpt>
      <trkpt lat="46.2668" lon="6.8444">
        <ele>1290.23</ele>
        <time>2014-06-27T11:00:26Z</time>
      </trkpt>
      <trkpt lat="46.26681" lon="6.84446">
        <ele>1293.59</ele>
        <time>2014-06-27T11:00:27Z</time>
      </trkpt>
      <trkpt lat="46.26682" lon="6.84457">
        <ele>1299.36</ele>
        <time>2014-06-27T11:00:29Z</time>
      </trkpt>
      <trkpt lat="46.26682" lon="6.84468">
        <ele>1305.13</ele>
        <time>2014-06-27T11:00:31Z</time>
      </trkpt>
      <trkpt lat="46.26683" lon="6.84479">
        <ele>1310.9</ele>
        <time>2014-06-27T11:00:33Z</time>
      </trkpt>
      <trkpt lat="46.26684" lon="6.84489">
        <ele>1316.18</ele>
        <time>2014-06-27T11:00:35Z</time>
      </trkpt>
      <trkpt lat="46.26685" lon="6.845">
        <ele>1320.99</ele>
        <time>2014-06-27T11:00:37Z</time>
      </trkpt>
      <trkpt lat="46.26685" lon="6.84511">
        <ele>1326.28</ele>
        <time>2014-06-27T11:00:39Z</time>
      </trkpt>
      <trkpt lat="46.26686" lon="6.84521">
        <ele>1331.08</ele>
        <time>2014-06-27T11:00:41Z</time>
      </trkpt>
      <trkpt lat="46.26687" lon="6.84532">
        <ele>1336.85</ele>
        <time>2014-06-27T11:00:43Z</time>
      </trkpt>
      <trkpt lat="46.26688" lon="6.84542">
        <ele>1342.62</ele>
        <time>2014-06-27T11:00:45Z</time>
      </trkpt>
      <trkpt lat="46.2669" lon="6.84552">
        <ele>1345.98</ele>
        <time>2014-06-27T11:00:47Z</time>
      </trkpt>
      <trkpt lat="46.2669" lon="6.84563">
        <ele>1352.23</ele>
        <time>2014-06-27T11:00:49Z</time>
      </trkpt>
      <trkpt lat="46.26691" lon="6.84568">
        <ele>1355.12</ele>
        <time>2014-06-27T11:00:50Z</time>
      </trkpt>
      <trkpt lat="46.26691" lon="6.84573">
        <ele>1358.48</ele>
        <time>2014-06-27T11:00:51Z</time>
      </trkpt>
      <trkpt lat="46.26692" lon="6.84578">
        <ele>1361.84</ele>
        <time>2014-06-27T11:00:52Z</time>
      </trkpt>
      <trkpt lat="46.26693" lon="6.84584">
        <ele>1364.73</ele>
        <time>2014-06-27T11:00:53Z</time>
      </trkpt>
      <trkpt lat="46.26695" lon="6.84595">
        <ele>1370.5</ele>
        <time>2014-06-27T11:00:55Z</time>
      </trkpt>
      <trkpt lat="46.26696" lon="6.84606">
        <ele>1375.78</ele>
        <time>2014-06-27T11:00:57Z</time>
      </trkpt>
      <trkpt lat="46.26698" lon="6.84618">
        <ele>1380.11</ele>
        <time>2014-06-27T11:00:59Z</time>
      </trkpt>
      <trkpt lat="46.26699" lon="6.8463">
        <ele>1384.44</ele>
        <time>2014-06-27T11:01:01Z</time>
      </trkpt>
      <trkpt lat="46.26699" lon="6.84641">
        <ele>1388.76</ele>
        <time>2014-06-27T11:01:03Z</time>
      </trkpt>
      <trkpt lat="46.26699" lon="6.84651">
        <ele>1393.09</ele>
        <time>2014-06-27T11:01:05Z</time>
      </trkpt>
      <trkpt lat="46.267" lon="6.84661">
        <ele>1398.37</ele>
        <time>2014-06-27T11:01:07Z</time>
      </trkpt>
      <trkpt lat="46.267" lon="6.84671">
        <ele>1403.66</ele>
        <time>2014-06-27T11:01:09Z</time>
      </trkpt>
      <trkpt lat="46.267" lon="6.84676">
        <ele>1407.03</ele>
        <time>2014-06-27T11:01:10Z</time>
      </trkpt>
      <trkpt lat="46.26701" lon="6.84682">
        <ele>1410.39</ele>
        <time>2014-06-27T11:01:11Z</time>
      </trkpt>
      <trkpt lat="46.26701" lon="6.84687">
        <ele>1413.28</ele>
        <time>2014-06-27T11:01:12Z</time>
      </trkpt>
      <trkpt lat="46.26701" lon="6.84697">
        <ele>1417.12</ele>
        <time>2014-06-27T11:01:14Z</time>
      </trkpt>
      <trkpt lat="46.26702" lon="6.84708">
        <ele>1422.89</ele>
        <time>2014-06-27T11:01:16Z</time>
      </trkpt>
      <trkpt lat="46.26702" lon="6.84718">
        <ele>1428.66</ele>
        <time>2014-06-27T11:01:18Z</time>
      </trkpt>
      <trkpt lat="46.26703" lon="6.84727">
        <ele>1433.94</ele>
        <time>2014-06-27T11:01:20Z</time>
      </trkpt>
      <trkpt lat="46.26703" lon="6.84737">
        <ele>1439.71</ele>
        <time>2014-06-27T11:01:22Z</time>
      </trkpt>
      <trkpt lat="46.26704" lon="6.84747">
        <ele>1445</ele>
        <time>2014-06-27T11:01:24Z</time>
      </trkpt>
      <trkpt lat="46.26704" lon="6.84757">
        <ele>1450.77</ele>
        <time>2014-06-27T11:01:26Z</time>
      </trkpt>
      <trkpt lat="46.26704" lon="6.84762">
        <ele>1453.65</ele>
        <time>2014-06-27T11:01:27Z</time>
      </trkpt>
      <trkpt lat="46.26704" lon="6.84771">
        <ele>1459.9</ele>
        <time>2014-06-27T11:01:29Z</time>
      </trkpt>
      <trkpt lat="46.26704" lon="6.84782">
        <ele>1465.67</ele>
        <time>2014-06-27T11:01:31Z</time>
      </trkpt>
      <trkpt lat="46.26705" lon="6.84793">
        <ele>1470.95</ele>
        <time>2014-06-27T11:01:33Z</time>
      </trkpt>
      <trkpt lat="46.26705" lon="6.84803">
        <ele>1476.24</ele>
        <time>2014-06-27T11:01:35Z</time>
      </trkpt>
      <trkpt lat="46.26706" lon="6.84814">
        <ele>1481.53</ele>
        <time>2014-06-27T11:01:37Z</time>
      </trkpt>
      <trkpt lat="46.26706" lon="6.84826">
        <ele>1484.41</ele>
        <time>2014-06-27T11:01:39Z</time>
      </trkpt>
      <trkpt lat="46.26706" lon="6.84837">
        <ele>1488.26</ele>
        <time>2014-06-27T11:01:41Z</time>
      </trkpt>
      <trkpt lat="46.26706" lon="6.84848">
        <ele>1491.62</ele>
        <time>2014-06-27T11:01:43Z</time>
      </trkpt>
      <trkpt lat="46.26707" lon="6.8486">
        <ele>1494.99</ele>
        <time>2014-06-27T11:01:45Z</time>
      </trkpt>
      <trkpt lat="46.26708" lon="6.84877">
        <ele>1498.35</ele>
        <time>2014-06-27T11:01:48Z</time>
      </trkpt>
      <trkpt lat="46.26708" lon="6.84895">
        <ele>1501.72</ele>
        <time>2014-06-27T11:01:51Z</time>
      </trkpt>
      <trkpt lat="46.2671" lon="6.84932">
        <ele>1504.6</ele>
        <time>2014-06-27T11:01:57Z</time>
      </trkpt>
      <trkpt lat="46.26712" lon="6.8497">
        <ele>1507</ele>
        <time>2014-06-27T11:02:03Z</time>
      </trkpt>
      <trkpt lat="46.26713" lon="6.84995">
        <ele>1510.85</ele>
        <time>2014-06-27T11:02:07Z</time>
      </trkpt>
      <trkpt lat="46.26714" lon="6.85014">
        <ele>1514.21</ele>
        <time>2014-06-27T11:02:10Z</time>
      </trkpt>
      <trkpt lat="46.26716" lon="6.85032">
        <ele>1518.06</ele>
        <time>2014-06-27T11:02:13Z</time>
      </trkpt>
      <trkpt lat="46.26717" lon="6.85051">
        <ele>1520.94</ele>
        <time>2014-06-27T11:02:16Z</time>
      </trkpt>
      <trkpt lat="46.26723" lon="6.85145">
        <ele>1524.31</ele>
        <time>2014-06-27T11:02:31Z</time>
      </trkpt>
      <trkpt lat="46.26724" lon="6.85171">
        <ele>1527.67</ele>
        <time>2014-06-27T11:02:35Z</time>
      </trkpt>
      <trkpt lat="46.26728" lon="6.85235">
        <ele>1529.11</ele>
        <time>2014-06-27T11:02:49Z</time>
      </trkpt>
      <trkpt lat="46.26728" lon="6.85235">
        <ele>1529.11</ele>
        <time>2014-06-27T11:03:07Z</time>
      </trkpt>
      <trkpt lat="46.26732" lon="6.85275">
        <ele>1529.59</ele>
        <time>2014-06-27T11:03:21Z</time>
      </trkpt>
      <trkpt lat="46.26736" lon="6.85314">
        <ele>1532.96</ele>
        <time>2014-06-27T11:03:29Z</time>
      </trkpt>
      <trkpt lat="46.26737" lon="6.85329">
        <ele>1536.8</ele>
        <time>2014-06-27T11:03:32Z</time>
      </trkpt>
      <trkpt lat="46.26738" lon="6.85344">
        <ele>1539.69</ele>
        <time>2014-06-27T11:03:35Z</time>
      </trkpt>
      <trkpt lat="46.2674" lon="6.85385">
        <ele>1543.53</ele>
        <time>2014-06-27T11:03:43Z</time>
      </trkpt>
      <trkpt lat="46.2674" lon="6.85395">
        <ele>1544.01</ele>
        <time>2014-06-27T11:03:45Z</time>
      </trkpt>
      <trkpt lat="46.26741" lon="6.85416">
        <ele>1547.38</ele>
        <time>2014-06-27T11:03:49Z</time>
      </trkpt>
      <trkpt lat="46.26741" lon="6.85436">
        <ele>1551.22</ele>
        <time>2014-06-27T11:03:53Z</time>
      </trkpt>
      <trkpt lat="46.26742" lon="6.85441">
        <ele>1551.22</ele>
        <time>2014-06-27T11:03:54Z</time>
      </trkpt>
      <trkpt lat="46.26743" lon="6.85456">
        <ele>1554.59</ele>
        <time>2014-06-27T11:03:57Z</time>
      </trkpt>
      <trkpt lat="46.26745" lon="6.8547">
        <ele>1557.95</ele>
        <time>2014-06-27T11:04:00Z</time>
      </trkpt>
      <trkpt lat="46.26746" lon="6.85485">
        <ele>1562.76</ele>
        <time>2014-06-27T11:04:03Z</time>
      </trkpt>
      <trkpt lat="46.26747" lon="6.85494">
        <ele>1566.12</ele>
        <time>2014-06-27T11:04:05Z</time>
      </trkpt>
      <trkpt lat="46.26748" lon="6.85504">
        <ele>1569.49</ele>
        <time>2014-06-27T11:04:07Z</time>
      </trkpt>
      <trkpt lat="46.26748" lon="6.85514">
        <ele>1572.37</ele>
        <time>2014-06-27T11:04:09Z</time>
      </trkpt>
      <trkpt lat="46.26749" lon="6.85523">
        <ele>1575.74</ele>
        <time>2014-06-27T11:04:11Z</time>
      </trkpt>
      <trkpt lat="46.26749" lon="6.85532">
        <ele>1579.1</ele>
        <time>2014-06-27T11:04:13Z</time>
      </trkpt>
      <trkpt lat="46.2675" lon="6.85546">
        <ele>1583.43</ele>
        <time>2014-06-27T11:04:16Z</time>
      </trkpt>
      <trkpt lat="46.26751" lon="6.85556">
        <ele>1586.79</ele>
        <time>2014-06-27T11:04:18Z</time>
      </trkpt>
      <trkpt lat="46.26751" lon="6.85565">
        <ele>1587.75</ele>
        <time>2014-06-27T11:04:20Z</time>
      </trkpt>
      <trkpt lat="46.26753" lon="6.8558">
        <ele>1591.6</ele>
        <time>2014-06-27T11:04:23Z</time>
      </trkpt>
      <trkpt lat="46.26754" lon="6.85594">
        <ele>1594.96</ele>
        <time>2014-06-27T11:04:26Z</time>
      </trkpt>
      <trkpt lat="46.26754" lon="6.85608">
        <ele>1598.81</ele>
        <time>2014-06-27T11:04:29Z</time>
      </trkpt>
      <trkpt lat="46.26755" lon="6.85617">
        <ele>1602.17</ele>
        <time>2014-06-27T11:04:31Z</time>
      </trkpt>
      <trkpt lat="46.26756" lon="6.85626">
        <ele>1605.06</ele>
        <time>2014-06-27T11:04:33Z</time>
      </trkpt>
      <trkpt lat="46.26756" lon="6.85635">
        <ele>1608.42</ele>
        <time>2014-06-27T11:04:35Z</time>
      </trkpt>
      <trkpt lat="46.26756" lon="6.85644">
        <ele>1611.31</ele>
        <time>2014-06-27T11:04:37Z</time>
      </trkpt>
      <trkpt lat="46.26757" lon="6.85653">
        <ele>1615.15</ele>
        <time>2014-06-27T11:04:39Z</time>
      </trkpt>
      <trkpt lat="46.26757" lon="6.85662">
        <ele>1618.52</ele>
        <time>2014-06-27T11:04:41Z</time>
      </trkpt>
      <trkpt lat="46.26757" lon="6.85671">
        <ele>1621.88</ele>
        <time>2014-06-27T11:04:43Z</time>
      </trkpt>
      <trkpt lat="46.26757" lon="6.85685">
        <ele>1625.25</ele>
        <time>2014-06-27T11:04:46Z</time>
      </trkpt>
      <trkpt lat="46.26759" lon="6.8574">
        <ele>1621.88</ele>
        <time>2014-06-27T11:04:58Z</time>
      </trkpt>
      <trkpt lat="46.26761" lon="6.85749">
        <ele>1622.36</ele>
        <time>2014-06-27T11:05:10Z</time>
      </trkpt>
      <trkpt lat="46.26761" lon="6.85749">
        <ele>1623.32</ele>
        <time>2014-06-27T11:05:23Z</time>
      </trkpt>
      <trkpt lat="46.26749" lon="6.85781">
        <ele>1623.8</ele>
        <time>2014-06-27T11:05:37Z</time>
      </trkpt>
      <trkpt lat="46.26727" lon="6.85785">
        <ele>1622.84</ele>
        <time>2014-06-27T11:05:48Z</time>
      </trkpt>
      <trkpt lat="46.2672" lon="6.85743">
        <ele>1619</ele>
        <time>2014-06-27T11:05:56Z</time>
      </trkpt>
      <trkpt lat="46.26724" lon="6.85736">
        <ele>1617.56</ele>
        <time>2014-06-27T11:05:57Z</time>
      </trkpt>
      <trkpt lat="46.26731" lon="6.85725">
        <ele>1614.67</ele>
        <time>2014-06-27T11:05:59Z</time>
      </trkpt>
      <trkpt lat="46.26758" lon="6.85698">
        <ele>1610.35</ele>
        <time>2014-06-27T11:06:04Z</time>
      </trkpt>
      <trkpt lat="46.26777" lon="6.85671">
        <ele>1609.38</ele>
        <time>2014-06-27T11:06:08Z</time>
      </trkpt>
      <trkpt lat="46.26781" lon="6.85664">
        <ele>1608.9</ele>
        <time>2014-06-27T11:06:19Z</time>
      </trkpt>
      <trkpt lat="46.26782" lon="6.85662">
        <ele>1609.86</ele>
        <time>2014-06-27T11:06:42Z</time>
      </trkpt>
      <trkpt lat="46.26784" lon="6.85663">
        <ele>1609.86</ele>
        <time>2014-06-27T11:06:54Z</time>
      </trkpt>
      <trkpt lat="46.26784" lon="6.85663">
        <ele>1609.86</ele>
        <time>2014-06-27T11:07:12Z</time>
      </trkpt>
      <trkpt lat="46.26784" lon="6.85663">
        <ele>1609.86</ele>
        <time>2014-06-27T11:07:31Z</time>
      </trkpt>
      <trkpt lat="46.26785" lon="6.85664">
        <ele>1609.86</ele>
        <time>2014-06-27T11:08:08Z</time>
      </trkpt>
      <trkpt lat="46.26785" lon="6.85663">
        <ele>1609.86</ele>
        <time>2014-06-27T11:08:51Z</time>
      </trkpt>
      <trkpt lat="46.26784" lon="6.85662">
        <ele>1609.86</ele>
        <time>2014-06-27T11:09:30Z</time>
      </trkpt>
      <trkpt lat="46.26784" lon="6.85661">
        <ele>1609.86</ele>
        <time>2014-06-27T11:10:21Z</time>
      </trkpt>
      <trkpt lat="46.26785" lon="6.85661">
        <ele>1609.86</ele>
        <time>2014-06-27T11:10:51Z</time>
      </trkpt>
      <trkpt lat="46.26788" lon="6.85662">
        <ele>1609.86</ele>
        <time>2014-06-27T11:11:02Z</time>
      </trkpt>
      <trkpt lat="46.26788" lon="6.85662">
        <ele>1609.86</ele>
        <time>2014-06-27T11:11:17Z</time>
      </trkpt>
      <trkpt lat="46.26797" lon="6.85663">
        <ele>1611.31</ele>
        <time>2014-06-27T11:11:31Z</time>
      </trkpt>
      <trkpt lat="46.26805" lon="6.85665">
        <ele>1611.79</ele>
        <time>2014-06-27T11:11:36Z</time>
      </trkpt>
      <trkpt lat="46.26819" lon="6.8567">
        <ele>1613.71</ele>
        <time>2014-06-27T11:11:46Z</time>
      </trkpt>
      <trkpt lat="46.26836" lon="6.85676">
        <ele>1616.59</ele>
        <time>2014-06-27T11:12:00Z</time>
      </trkpt>
      <trkpt lat="46.26851" lon="6.85682">
        <ele>1619.48</ele>
        <time>2014-06-27T11:12:14Z</time>
      </trkpt>
      <trkpt lat="46.2688" lon="6.85691">
        <ele>1622.36</ele>
        <time>2014-06-27T11:12:37Z</time>
      </trkpt>
      <trkpt lat="46.26901" lon="6.85698">
        <ele>1625.25</ele>
        <time>2014-06-27T11:12:56Z</time>
      </trkpt>
      <trkpt lat="46.26923" lon="6.85704">
        <ele>1628.61</ele>
        <time>2014-06-27T11:13:17Z</time>
      </trkpt>
      <trkpt lat="46.26949" lon="6.85713">
        <ele>1631.01</ele>
        <time>2014-06-27T11:13:40Z</time>
      </trkpt>
      <trkpt lat="46.26958" lon="6.85715">
        <ele>1633.9</ele>
        <time>2014-06-27T11:13:49Z</time>
      </trkpt>
      <trkpt lat="46.26962" lon="6.85716">
        <ele>1637.74</ele>
        <time>2014-06-27T11:13:53Z</time>
      </trkpt>
      <trkpt lat="46.26967" lon="6.85717">
        <ele>1641.11</ele>
        <time>2014-06-27T11:13:57Z</time>
      </trkpt>
      <trkpt lat="46.26981" lon="6.85721">
        <ele>1644.47</ele>
        <time>2014-06-27T11:14:11Z</time>
      </trkpt>
      <trkpt lat="46.26988" lon="6.85723">
        <ele>1648.32</ele>
        <time>2014-06-27T11:14:18Z</time>
      </trkpt>
      <trkpt lat="46.26991" lon="6.85724">
        <ele>1651.68</ele>
        <time>2014-06-27T11:14:21Z</time>
      </trkpt>
      <trkpt lat="46.26994" lon="6.85726">
        <ele>1654.57</ele>
        <time>2014-06-27T11:14:25Z</time>
      </trkpt>
      <trkpt lat="46.27011" lon="6.85733">
        <ele>1657.93</ele>
        <time>2014-06-27T11:14:40Z</time>
      </trkpt>
      <trkpt lat="46.27015" lon="6.85735">
        <ele>1660.81</ele>
        <time>2014-06-27T11:14:44Z</time>
      </trkpt>
      <trkpt lat="46.27019" lon="6.85735">
        <ele>1664.66</ele>
        <time>2014-06-27T11:14:47Z</time>
      </trkpt>
      <trkpt lat="46.27024" lon="6.85736">
        <ele>1668.02</ele>
        <time>2014-06-27T11:14:51Z</time>
      </trkpt>
      <trkpt lat="46.27036" lon="6.85739">
        <ele>1671.39</ele>
        <time>2014-06-27T11:15:02Z</time>
      </trkpt>
      <trkpt lat="46.2704" lon="6.85741">
        <ele>1674.75</ele>
        <time>2014-06-27T11:15:07Z</time>
      </trkpt>
      <trkpt lat="46.27045" lon="6.8574">
        <ele>1678.12</ele>
        <time>2014-06-27T11:15:12Z</time>
      </trkpt>
      <trkpt lat="46.27053" lon="6.85744">
        <ele>1681.48</ele>
        <time>2014-06-27T11:15:22Z</time>
      </trkpt>
      <trkpt lat="46.27062" lon="6.85747">
        <ele>1684.85</ele>
        <time>2014-06-27T11:15:29Z</time>
      </trkpt>
      <trkpt lat="46.27064" lon="6.85748">
        <ele>1685.81</ele>
        <time>2014-06-27T11:15:31Z</time>
      </trkpt>
      <trkpt lat="46.27071" lon="6.85749">
        <ele>1688.69</ele>
        <time>2014-06-27T11:15:38Z</time>
      </trkpt>
      <trkpt lat="46.27078" lon="6.85751">
        <ele>1692.54</ele>
        <time>2014-06-27T11:15:46Z</time>
      </trkpt>
      <trkpt lat="46.27084" lon="6.85754">
        <ele>1695.42</ele>
        <time>2014-06-27T11:15:52Z</time>
      </trkpt>
      <trkpt lat="46.2709" lon="6.85755">
        <ele>1697.83</ele>
        <time>2014-06-27T11:15:57Z</time>
      </trkpt>
      <trkpt lat="46.27096" lon="6.85759">
        <ele>1701.19</ele>
        <time>2014-06-27T11:16:04Z</time>
      </trkpt>
      <trkpt lat="46.27103" lon="6.85762">
        <ele>1704.55</ele>
        <time>2014-06-27T11:16:11Z</time>
      </trkpt>
      <trkpt lat="46.2711" lon="6.85763">
        <ele>1707.92</ele>
        <time>2014-06-27T11:16:17Z</time>
      </trkpt>
      <trkpt lat="46.27116" lon="6.85765">
        <ele>1711.28</ele>
        <time>2014-06-27T11:16:23Z</time>
      </trkpt>
      <trkpt lat="46.27117" lon="6.85765">
        <ele>1711.28</ele>
        <time>2014-06-27T11:16:24Z</time>
      </trkpt>
      <trkpt lat="46.27121" lon="6.85767">
        <ele>1714.17</ele>
        <time>2014-06-27T11:16:30Z</time>
      </trkpt>
      <trkpt lat="46.27129" lon="6.8577">
        <ele>1718.01</ele>
        <time>2014-06-27T11:16:38Z</time>
      </trkpt>
      <trkpt lat="46.2714" lon="6.85773">
        <ele>1721.38</ele>
        <time>2014-06-27T11:16:48Z</time>
      </trkpt>
      <trkpt lat="46.27148" lon="6.85775">
        <ele>1724.74</ele>
        <time>2014-06-27T11:16:56Z</time>
      </trkpt>
      <trkpt lat="46.27156" lon="6.85778">
        <ele>1727.63</ele>
        <time>2014-06-27T11:17:04Z</time>
      </trkpt>
      <trkpt lat="46.27163" lon="6.85781">
        <ele>1730.99</ele>
        <time>2014-06-27T11:17:11Z</time>
      </trkpt>
      <trkpt lat="46.27172" lon="6.85784">
        <ele>1734.36</ele>
        <time>2014-06-27T11:17:19Z</time>
      </trkpt>
      <trkpt lat="46.27182" lon="6.85786">
        <ele>1738.2</ele>
        <time>2014-06-27T11:17:27Z</time>
      </trkpt>
      <trkpt lat="46.27189" lon="6.85789">
        <ele>1741.08</ele>
        <time>2014-06-27T11:17:34Z</time>
      </trkpt>
      <trkpt lat="46.27194" lon="6.8579">
        <ele>1744.45</ele>
        <time>2014-06-27T11:17:40Z</time>
      </trkpt>
      <trkpt lat="46.27205" lon="6.85794">
        <ele>1747.33</ele>
        <time>2014-06-27T11:17:52Z</time>
      </trkpt>
      <trkpt lat="46.27217" lon="6.85799">
        <ele>1750.7</ele>
        <time>2014-06-27T11:18:02Z</time>
      </trkpt>
      <trkpt lat="46.27229" lon="6.85803">
        <ele>1754.06</ele>
        <time>2014-06-27T11:18:13Z</time>
      </trkpt>
      <trkpt lat="46.2724" lon="6.85805">
        <ele>1757.91</ele>
        <time>2014-06-27T11:18:23Z</time>
      </trkpt>
      <trkpt lat="46.27248" lon="6.85809">
        <ele>1760.79</ele>
        <time>2014-06-27T11:18:31Z</time>
      </trkpt>
      <trkpt lat="46.27257" lon="6.85811">
        <ele>1763.68</ele>
        <time>2014-06-27T11:18:40Z</time>
      </trkpt>
      <trkpt lat="46.27264" lon="6.85814">
        <ele>1767.04</ele>
        <time>2014-06-27T11:18:48Z</time>
      </trkpt>
      <trkpt lat="46.27272" lon="6.85817">
        <ele>1769.92</ele>
        <time>2014-06-27T11:18:55Z</time>
      </trkpt>
      <trkpt lat="46.27281" lon="6.8582">
        <ele>1773.29</ele>
        <time>2014-06-27T11:19:04Z</time>
      </trkpt>
      <trkpt lat="46.27288" lon="6.85822">
        <ele>1776.65</ele>
        <time>2014-06-27T11:19:12Z</time>
      </trkpt>
      <trkpt lat="46.27293" lon="6.85823">
        <ele>1779.06</ele>
        <time>2014-06-27T11:19:17Z</time>
      </trkpt>
      <trkpt lat="46.27296" lon="6.85824">
        <ele>1781.94</ele>
        <time>2014-06-27T11:19:21Z</time>
      </trkpt>
      <trkpt lat="46.273" lon="6.85826">
        <ele>1785.79</ele>
        <time>2014-06-27T11:19:26Z</time>
      </trkpt>
      <trkpt lat="46.27303" lon="6.85828">
        <ele>1787.23</ele>
        <time>2014-06-27T11:19:29Z</time>
      </trkpt>
      <trkpt lat="46.27308" lon="6.85829">
        <ele>1790.11</ele>
        <time>2014-06-27T11:19:34Z</time>
      </trkpt>
      <trkpt lat="46.27314" lon="6.8583">
        <ele>1793.96</ele>
        <time>2014-06-27T11:19:40Z</time>
      </trkpt>
      <trkpt lat="46.27319" lon="6.85833">
        <ele>1797.32</ele>
        <time>2014-06-27T11:19:45Z</time>
      </trkpt>
      <trkpt lat="46.27324" lon="6.85835">
        <ele>1800.69</ele>
        <time>2014-06-27T11:19:50Z</time>
      </trkpt>
      <trkpt lat="46.27328" lon="6.85837">
        <ele>1803.57</ele>
        <time>2014-06-27T11:19:55Z</time>
      </trkpt>
      <trkpt lat="46.27334" lon="6.85838">
        <ele>1806.94</ele>
        <time>2014-06-27T11:20:00Z</time>
      </trkpt>
      <trkpt lat="46.27338" lon="6.85839">
        <ele>1810.3</ele>
        <time>2014-06-27T11:20:05Z</time>
      </trkpt>
      <trkpt lat="46.27343" lon="6.8584">
        <ele>1813.66</ele>
        <time>2014-06-27T11:20:10Z</time>
      </trkpt>
      <trkpt lat="46.27348" lon="6.85841">
        <ele>1816.55</ele>
        <time>2014-06-27T11:20:15Z</time>
      </trkpt>
      <trkpt lat="46.27354" lon="6.85843">
        <ele>1819.91</ele>
        <time>2014-06-27T11:20:22Z</time>
      </trkpt>
      <trkpt lat="46.2736" lon="6.85846">
        <ele>1823.28</ele>
        <time>2014-06-27T11:20:28Z</time>
      </trkpt>
      <trkpt lat="46.27367" lon="6.85849">
        <ele>1827.12</ele>
        <time>2014-06-27T11:20:34Z</time>
      </trkpt>
      <trkpt lat="46.27373" lon="6.85851">
        <ele>1830.49</ele>
        <time>2014-06-27T11:20:40Z</time>
      </trkpt>
      <trkpt lat="46.27379" lon="6.85852">
        <ele>1833.85</ele>
        <time>2014-06-27T11:20:46Z</time>
      </trkpt>
      <trkpt lat="46.27382" lon="6.85853">
        <ele>1835.29</ele>
        <time>2014-06-27T11:20:49Z</time>
      </trkpt>
      <trkpt lat="46.27388" lon="6.85855">
        <ele>1839.14</ele>
        <time>2014-06-27T11:20:55Z</time>
      </trkpt>
      <trkpt lat="46.27394" lon="6.85857">
        <ele>1842.5</ele>
        <time>2014-06-27T11:21:01Z</time>
      </trkpt>
      <trkpt lat="46.27399" lon="6.85859">
        <ele>1845.87</ele>
        <time>2014-06-27T11:21:06Z</time>
      </trkpt>
      <trkpt lat="46.27403" lon="6.8586">
        <ele>1848.75</ele>
        <time>2014-06-27T11:21:11Z</time>
      </trkpt>
      <trkpt lat="46.27408" lon="6.85862">
        <ele>1851.64</ele>
        <time>2014-06-27T11:21:16Z</time>
      </trkpt>
      <trkpt lat="46.27414" lon="6.85864">
        <ele>1854.52</ele>
        <time>2014-06-27T11:21:21Z</time>
      </trkpt>
      <trkpt lat="46.27418" lon="6.85866">
        <ele>1857.89</ele>
        <time>2014-06-27T11:21:26Z</time>
      </trkpt>
      <trkpt lat="46.27424" lon="6.85867">
        <ele>1860.77</ele>
        <time>2014-06-27T11:21:31Z</time>
      </trkpt>
      <trkpt lat="46.27428" lon="6.85869">
        <ele>1864.13</ele>
        <time>2014-06-27T11:21:36Z</time>
      </trkpt>
      <trkpt lat="46.27432" lon="6.8587">
        <ele>1867.5</ele>
        <time>2014-06-27T11:21:41Z</time>
      </trkpt>
      <trkpt lat="46.27433" lon="6.8587">
        <ele>1867.98</ele>
        <time>2014-06-27T11:21:42Z</time>
      </trkpt>
      <trkpt lat="46.27438" lon="6.85871">
        <ele>1871.34</ele>
        <time>2014-06-27T11:21:47Z</time>
      </trkpt>
      <trkpt lat="46.27442" lon="6.85872">
        <ele>1874.71</ele>
        <time>2014-06-27T11:21:52Z</time>
      </trkpt>
      <trkpt lat="46.27447" lon="6.85874">
        <ele>1878.07</ele>
        <time>2014-06-27T11:21:57Z</time>
      </trkpt>
      <trkpt lat="46.27451" lon="6.85875">
        <ele>1881.44</ele>
        <time>2014-06-27T11:22:03Z</time>
      </trkpt>
      <trkpt lat="46.27456" lon="6.85877">
        <ele>1883.84</ele>
        <time>2014-06-27T11:22:08Z</time>
      </trkpt>
      <trkpt lat="46.27461" lon="6.85879">
        <ele>1887.21</ele>
        <time>2014-06-27T11:22:14Z</time>
      </trkpt>
      <trkpt lat="46.27466" lon="6.8588">
        <ele>1890.09</ele>
        <time>2014-06-27T11:22:19Z</time>
      </trkpt>
      <trkpt lat="46.27471" lon="6.85882">
        <ele>1893.45</ele>
        <time>2014-06-27T11:22:24Z</time>
      </trkpt>
      <trkpt lat="46.27476" lon="6.85884">
        <ele>1896.34</ele>
        <time>2014-06-27T11:22:29Z</time>
      </trkpt>
      <trkpt lat="46.27481" lon="6.85885">
        <ele>1898.74</ele>
        <time>2014-06-27T11:22:34Z</time>
      </trkpt>
      <trkpt lat="46.27485" lon="6.85887">
        <ele>1902.11</ele>
        <time>2014-06-27T11:22:39Z</time>
      </trkpt>
      <trkpt lat="46.2749" lon="6.85888">
        <ele>1904.99</ele>
        <time>2014-06-27T11:22:44Z</time>
      </trkpt>
      <trkpt lat="46.27495" lon="6.8589">
        <ele>1908.35</ele>
        <time>2014-06-27T11:22:49Z</time>
      </trkpt>
      <trkpt lat="46.27501" lon="6.85891">
        <ele>1912.2</ele>
        <time>2014-06-27T11:22:56Z</time>
      </trkpt>
      <trkpt lat="46.27511" lon="6.85895">
        <ele>1915.08</ele>
        <time>2014-06-27T11:23:07Z</time>
      </trkpt>
      <trkpt lat="46.27519" lon="6.85898">
        <ele>1918.93</ele>
        <time>2014-06-27T11:23:15Z</time>
      </trkpt>
      <trkpt lat="46.27527" lon="6.85901">
        <ele>1922.29</ele>
        <time>2014-06-27T11:23:23Z</time>
      </trkpt>
      <trkpt lat="46.27536" lon="6.85904">
        <ele>1925.66</ele>
        <time>2014-06-27T11:23:32Z</time>
      </trkpt>
      <trkpt lat="46.27545" lon="6.85907">
        <ele>1929.5</ele>
        <time>2014-06-27T11:23:40Z</time>
      </trkpt>
      <trkpt lat="46.27552" lon="6.85909">
        <ele>1932.87</ele>
        <time>2014-06-27T11:23:47Z</time>
      </trkpt>
      <trkpt lat="46.2756" lon="6.85912">
        <ele>1936.23</ele>
        <time>2014-06-27T11:23:55Z</time>
      </trkpt>
      <trkpt lat="46.27569" lon="6.85914">
        <ele>1940.08</ele>
        <time>2014-06-27T11:24:03Z</time>
      </trkpt>
      <trkpt lat="46.27575" lon="6.85916">
        <ele>1943.44</ele>
        <time>2014-06-27T11:24:10Z</time>
      </trkpt>
      <trkpt lat="46.27581" lon="6.85917">
        <ele>1946.33</ele>
        <time>2014-06-27T11:24:16Z</time>
      </trkpt>
      <trkpt lat="46.27599" lon="6.85924">
        <ele>1949.69</ele>
        <time>2014-06-27T11:24:34Z</time>
      </trkpt>
      <trkpt lat="46.2763" lon="6.85935">
        <ele>1951.13</ele>
        <time>2014-06-27T11:25:03Z</time>
      </trkpt>
      <trkpt lat="46.27635" lon="6.85935">
        <ele>1952.09</ele>
        <time>2014-06-27T11:25:14Z</time>
      </trkpt>
      <trkpt lat="46.27635" lon="6.85935">
        <ele>1952.09</ele>
        <time>2014-06-27T11:25:26Z</time>
      </trkpt>
      <trkpt lat="46.27642" lon="6.85937">
        <ele>1952.09</ele>
        <time>2014-06-27T11:25:42Z</time>
      </trkpt>
      <trkpt lat="46.27642" lon="6.85937">
        <ele>1952.09</ele>
        <time>2014-06-27T11:25:59Z</time>
      </trkpt>
      <trkpt lat="46.27642" lon="6.85938">
        <ele>1951.13</ele>
        <time>2014-06-27T11:26:19Z</time>
      </trkpt>
      <trkpt lat="46.27642" lon="6.85938">
        <ele>1951.13</ele>
        <time>2014-06-27T11:26:35Z</time>
      </trkpt>
      <trkpt lat="46.27642" lon="6.85938">
        <ele>1951.13</ele>
        <time>2014-06-27T11:26:45Z</time>
      </trkpt>
      <trkpt lat="46.27639" lon="6.85972">
        <ele>1951.13</ele>
        <time>2014-06-27T11:26:57Z</time>
      </trkpt>
      <trkpt lat="46.27639" lon="6.85976">
        <ele>1951.13</ele>
        <time>2014-06-27T11:26:59Z</time>
      </trkpt>
      <trkpt lat="46.27635" lon="6.85989">
        <ele>1950.65</ele>
        <time>2014-06-27T11:27:12Z</time>
      </trkpt>
      <trkpt lat="46.27635" lon="6.85989">
        <ele>1950.17</ele>
        <time>2014-06-27T11:27:16Z</time>
      </trkpt>
      <trkpt lat="46.27628" lon="6.86022">
        <ele>1949.69</ele>
        <time>2014-06-27T11:27:26Z</time>
      </trkpt>
      <trkpt lat="46.27634" lon="6.86047">
        <ele>1948.73</ele>
        <time>2014-06-27T11:27:32Z</time>
      </trkpt>
      <trkpt lat="46.27638" lon="6.86058">
        <ele>1947.77</ele>
        <time>2014-06-27T11:27:34Z</time>
      </trkpt>
      <trkpt lat="46.27646" lon="6.86075">
        <ele>1946.33</ele>
        <time>2014-06-27T11:27:37Z</time>
      </trkpt>
      <trkpt lat="46.27656" lon="6.86092">
        <ele>1943.44</ele>
        <time>2014-06-27T11:27:40Z</time>
      </trkpt>
      <trkpt lat="46.2767" lon="6.8612">
        <ele>1940.08</ele>
        <time>2014-06-27T11:27:44Z</time>
      </trkpt>
      <trkpt lat="46.27696" lon="6.86149">
        <ele>1937.19</ele>
        <time>2014-06-27T11:27:49Z</time>
      </trkpt>
      <trkpt lat="46.27727" lon="6.86171">
        <ele>1932.87</ele>
        <time>2014-06-27T11:27:54Z</time>
      </trkpt>
      <trkpt lat="46.27744" lon="6.86184">
        <ele>1928.06</ele>
        <time>2014-06-27T11:27:57Z</time>
      </trkpt>
      <trkpt lat="46.27757" lon="6.86194">
        <ele>1924.7</ele>
        <time>2014-06-27T11:27:59Z</time>
      </trkpt>
      <trkpt lat="46.2777" lon="6.86205">
        <ele>1920.37</ele>
        <time>2014-06-27T11:28:01Z</time>
      </trkpt>
      <trkpt lat="46.27787" lon="6.86222">
        <ele>1914.12</ele>
        <time>2014-06-27T11:28:04Z</time>
      </trkpt>
      <trkpt lat="46.27798" lon="6.86233">
        <ele>1909.8</ele>
        <time>2014-06-27T11:28:06Z</time>
      </trkpt>
      <trkpt lat="46.27815" lon="6.86252">
        <ele>1904.03</ele>
        <time>2014-06-27T11:28:09Z</time>
      </trkpt>
      <trkpt lat="46.27832" lon="6.86276">
        <ele>1900.18</ele>
        <time>2014-06-27T11:28:12Z</time>
      </trkpt>
      <trkpt lat="46.27847" lon="6.86294">
        <ele>1897.78</ele>
        <time>2014-06-27T11:28:15Z</time>
      </trkpt>
      <trkpt lat="46.27864" lon="6.86315">
        <ele>1900.66</ele>
        <time>2014-06-27T11:28:21Z</time>
      </trkpt>
      <trkpt lat="46.27866" lon="6.86318">
        <ele>1900.66</ele>
        <time>2014-06-27T11:28:25Z</time>
      </trkpt>
      <trkpt lat="46.27863" lon="6.86323">
        <ele>1899.22</ele>
        <time>2014-06-27T11:28:37Z</time>
      </trkpt>
      <trkpt lat="46.27863" lon="6.86323">
        <ele>1898.74</ele>
        <time>2014-06-27T11:28:58Z</time>
      </trkpt>
      <trkpt lat="46.27861" lon="6.86345">
        <ele>1898.74</ele>
        <time>2014-06-27T11:29:05Z</time>
      </trkpt>
      <trkpt lat="46.27867" lon="6.86398">
        <ele>1896.82</ele>
        <time>2014-06-27T11:29:12Z</time>
      </trkpt>
      <trkpt lat="46.27871" lon="6.86415">
        <ele>1894.9</ele>
        <time>2014-06-27T11:29:14Z</time>
      </trkpt>
      <trkpt lat="46.27875" lon="6.86446">
        <ele>1890.57</ele>
        <time>2014-06-27T11:29:17Z</time>
      </trkpt>
      <trkpt lat="46.27877" lon="6.86467">
        <ele>1887.69</ele>
        <time>2014-06-27T11:29:19Z</time>
      </trkpt>
      <trkpt lat="46.2788" lon="6.86488">
        <ele>1884.32</ele>
        <time>2014-06-27T11:29:21Z</time>
      </trkpt>
      <trkpt lat="46.27885" lon="6.86516">
        <ele>1879.51</ele>
        <time>2014-06-27T11:29:24Z</time>
      </trkpt>
      <trkpt lat="46.2789" lon="6.86554">
        <ele>1874.23</ele>
        <time>2014-06-27T11:29:28Z</time>
      </trkpt>
      <trkpt lat="46.27893" lon="6.8658">
        <ele>1870.38</ele>
        <time>2014-06-27T11:29:31Z</time>
      </trkpt>
      <trkpt lat="46.27896" lon="6.86601">
        <ele>1865.58</ele>
        <time>2014-06-27T11:29:34Z</time>
      </trkpt>
      <trkpt lat="46.27897" lon="6.86613">
        <ele>1862.21</ele>
        <time>2014-06-27T11:29:36Z</time>
      </trkpt>
      <trkpt lat="46.27898" lon="6.86626">
        <ele>1858.85</ele>
        <time>2014-06-27T11:29:39Z</time>
      </trkpt>
      <trkpt lat="46.27899" lon="6.86639">
        <ele>1855</ele>
        <time>2014-06-27T11:29:42Z</time>
      </trkpt>
      <trkpt lat="46.279" lon="6.86647">
        <ele>1852.6</ele>
        <time>2014-06-27T11:29:44Z</time>
      </trkpt>
      <trkpt lat="46.27905" lon="6.86663">
        <ele>1848.27</ele>
        <time>2014-06-27T11:29:49Z</time>
      </trkpt>
      <trkpt lat="46.2791" lon="6.86674">
        <ele>1846.35</ele>
        <time>2014-06-27T11:29:52Z</time>
      </trkpt>
      <trkpt lat="46.27923" lon="6.86687">
        <ele>1842.02</ele>
        <time>2014-06-27T11:29:56Z</time>
      </trkpt>
      <trkpt lat="46.27942" lon="6.86692">
        <ele>1837.7</ele>
        <time>2014-06-27T11:30:01Z</time>
      </trkpt>
      <trkpt lat="46.2795" lon="6.86696">
        <ele>1836.26</ele>
        <time>2014-06-27T11:30:04Z</time>
      </trkpt>
      <trkpt lat="46.27968" lon="6.86705">
        <ele>1832.89</ele>
        <time>2014-06-27T11:30:10Z</time>
      </trkpt>
      <trkpt lat="46.27981" lon="6.86713">
        <ele>1830.01</ele>
        <time>2014-06-27T11:30:13Z</time>
      </trkpt>
      <trkpt lat="46.27996" lon="6.8672">
        <ele>1825.68</ele>
        <time>2014-06-27T11:30:16Z</time>
      </trkpt>
      <trkpt lat="46.28013" lon="6.86723">
        <ele>1822.32</ele>
        <time>2014-06-27T11:30:19Z</time>
      </trkpt>
      <trkpt lat="46.28023" lon="6.86725">
        <ele>1821.35</ele>
        <time>2014-06-27T11:30:21Z</time>
      </trkpt>
      <trkpt lat="46.28035" lon="6.8673">
        <ele>1822.32</ele>
        <time>2014-06-27T11:30:23Z</time>
      </trkpt>
      <trkpt lat="46.28054" lon="6.86739">
        <ele>1824.24</ele>
        <time>2014-06-27T11:30:27Z</time>
      </trkpt>
      <trkpt lat="46.2808" lon="6.86753">
        <ele>1823.76</ele>
        <time>2014-06-27T11:30:37Z</time>
      </trkpt>
      <trkpt lat="46.28088" lon="6.86752">
        <ele>1822.32</ele>
        <time>2014-06-27T11:30:40Z</time>
      </trkpt>
      <trkpt lat="46.28098" lon="6.8675">
        <ele>1822.32</ele>
        <time>2014-06-27T11:30:45Z</time>
      </trkpt>
      <trkpt lat="46.28126" lon="6.8674">
        <ele>1821.84</ele>
        <time>2014-06-27T11:30:55Z</time>
      </trkpt>
      <trkpt lat="46.28155" lon="6.8674">
        <ele>1821.84</ele>
        <time>2014-06-27T11:31:06Z</time>
      </trkpt>
      <trkpt lat="46.28173" lon="6.86744">
        <ele>1821.84</ele>
        <time>2014-06-27T11:31:11Z</time>
      </trkpt>
      <trkpt lat="46.28182" lon="6.86746">
        <ele>1821.84</ele>
        <time>2014-06-27T11:31:13Z</time>
      </trkpt>
      <trkpt lat="46.28203" lon="6.8676">
        <ele>1817.99</ele>
        <time>2014-06-27T11:31:19Z</time>
      </trkpt>
      <trkpt lat="46.28207" lon="6.86763">
        <ele>1816.55</ele>
        <time>2014-06-27T11:31:20Z</time>
      </trkpt>
      <trkpt lat="46.28219" lon="6.86768">
        <ele>1813.18</ele>
        <time>2014-06-27T11:31:23Z</time>
      </trkpt>
      <trkpt lat="46.28223" lon="6.8677">
        <ele>1812.22</ele>
        <time>2014-06-27T11:31:24Z</time>
      </trkpt>
      <trkpt lat="46.2823" lon="6.86776">
        <ele>1811.26</ele>
        <time>2014-06-27T11:31:26Z</time>
      </trkpt>
      <trkpt lat="46.28235" lon="6.86781">
        <ele>1811.74</ele>
        <time>2014-06-27T11:31:28Z</time>
      </trkpt>
      <trkpt lat="46.28241" lon="6.86786">
        <ele>1814.63</ele>
        <time>2014-06-27T11:31:31Z</time>
      </trkpt>
      <trkpt lat="46.28247" lon="6.86795">
        <ele>1818.47</ele>
        <time>2014-06-27T11:31:34Z</time>
      </trkpt>
      <trkpt lat="46.28262" lon="6.86819">
        <ele>1816.07</ele>
        <time>2014-06-27T11:31:44Z</time>
      </trkpt>
      <trkpt lat="46.28265" lon="6.86819">
        <ele>1814.63</ele>
        <time>2014-06-27T11:31:47Z</time>
      </trkpt>
      <trkpt lat="46.28264" lon="6.86819">
        <ele>1816.07</ele>
        <time>2014-06-27T11:32:13Z</time>
      </trkpt>
      <trkpt lat="46.28265" lon="6.86819">
        <ele>1816.07</ele>
        <time>2014-06-27T11:32:26Z</time>
      </trkpt>
      <trkpt lat="46.28268" lon="6.86812">
        <ele>1816.55</ele>
        <time>2014-06-27T11:32:31Z</time>
      </trkpt>
      <trkpt lat="46.28269" lon="6.86799">
        <ele>1817.99</ele>
        <time>2014-06-27T11:32:38Z</time>
      </trkpt>
      <trkpt lat="46.28271" lon="6.86791">
        <ele>1819.43</ele>
        <time>2014-06-27T11:32:42Z</time>
      </trkpt>
      <trkpt lat="46.28272" lon="6.86787">
        <ele>1821.35</ele>
        <time>2014-06-27T11:32:44Z</time>
      </trkpt>
      <trkpt lat="46.28273" lon="6.86779">
        <ele>1825.68</ele>
        <time>2014-06-27T11:32:49Z</time>
      </trkpt>
      <trkpt lat="46.28274" lon="6.86776">
        <ele>1826.16</ele>
        <time>2014-06-27T11:32:51Z</time>
      </trkpt>
      <trkpt lat="46.28281" lon="6.86755">
        <ele>1828.56</ele>
        <time>2014-06-27T11:33:06Z</time>
      </trkpt>
      <trkpt lat="46.28281" lon="6.86754">
        <ele>1829.53</ele>
        <time>2014-06-27T11:33:19Z</time>
      </trkpt>
      <trkpt lat="46.28282" lon="6.86752">
        <ele>1830.01</ele>
        <time>2014-06-27T11:33:32Z</time>
      </trkpt>
      <trkpt lat="46.28284" lon="6.8674">
        <ele>1831.93</ele>
        <time>2014-06-27T11:33:47Z</time>
      </trkpt>
      <trkpt lat="46.28284" lon="6.8674">
        <ele>1831.93</ele>
        <time>2014-06-27T11:33:49Z</time>
      </trkpt>
      <trkpt lat="46.28279" lon="6.86716">
        <ele>1836.26</ele>
        <time>2014-06-27T11:34:02Z</time>
      </trkpt>
      <trkpt lat="46.28277" lon="6.86708">
        <ele>1839.62</ele>
        <time>2014-06-27T11:34:06Z</time>
      </trkpt>
      <trkpt lat="46.28276" lon="6.86701">
        <ele>1841.54</ele>
        <time>2014-06-27T11:34:10Z</time>
      </trkpt>
      <trkpt lat="46.28273" lon="6.86687">
        <ele>1842.5</ele>
        <time>2014-06-27T11:34:24Z</time>
      </trkpt>
      <trkpt lat="46.28273" lon="6.86677">
        <ele>1844.43</ele>
        <time>2014-06-27T11:34:35Z</time>
      </trkpt>
      <trkpt lat="46.28272" lon="6.86669">
        <ele>1845.87</ele>
        <time>2014-06-27T11:34:45Z</time>
      </trkpt>
      <trkpt lat="46.28269" lon="6.86661">
        <ele>1848.27</ele>
        <time>2014-06-27T11:34:58Z</time>
      </trkpt>
      <trkpt lat="46.28268" lon="6.8665">
        <ele>1850.68</ele>
        <time>2014-06-27T11:35:14Z</time>
      </trkpt>
      <trkpt lat="46.28273" lon="6.86642">
        <ele>1853.08</ele>
        <time>2014-06-27T11:35:29Z</time>
      </trkpt>
      <trkpt lat="46.28282" lon="6.86639">
        <ele>1855.48</ele>
        <time>2014-06-27T11:35:43Z</time>
      </trkpt>
      <trkpt lat="46.28292" lon="6.86638">
        <ele>1858.37</ele>
        <time>2014-06-27T11:35:59Z</time>
      </trkpt>
      <trkpt lat="46.28302" lon="6.86632">
        <ele>1861.73</ele>
        <time>2014-06-27T11:36:13Z</time>
      </trkpt>
      <trkpt lat="46.28311" lon="6.86621">
        <ele>1864.13</ele>
        <time>2014-06-27T11:36:29Z</time>
      </trkpt>
      <trkpt lat="46.28319" lon="6.86615">
        <ele>1866.54</ele>
        <time>2014-06-27T11:36:43Z</time>
      </trkpt>
      <trkpt lat="46.28328" lon="6.8661">
        <ele>1869.42</ele>
        <time>2014-06-27T11:36:57Z</time>
      </trkpt>
      <trkpt lat="46.28333" lon="6.86605">
        <ele>1871.82</ele>
        <time>2014-06-27T11:37:09Z</time>
      </trkpt>
      <trkpt lat="46.28337" lon="6.8659">
        <ele>1874.23</ele>
        <time>2014-06-27T11:37:24Z</time>
      </trkpt>
      <trkpt lat="46.28341" lon="6.86575">
        <ele>1876.63</ele>
        <time>2014-06-27T11:37:38Z</time>
      </trkpt>
      <trkpt lat="46.28345" lon="6.86558">
        <ele>1879.51</ele>
        <time>2014-06-27T11:37:55Z</time>
      </trkpt>
      <trkpt lat="46.2835" lon="6.86543">
        <ele>1881.92</ele>
        <time>2014-06-27T11:38:11Z</time>
      </trkpt>
      <trkpt lat="46.28353" lon="6.86527">
        <ele>1885.28</ele>
        <time>2014-06-27T11:38:27Z</time>
      </trkpt>
      <trkpt lat="46.28354" lon="6.86511">
        <ele>1888.17</ele>
        <time>2014-06-27T11:38:41Z</time>
      </trkpt>
      <trkpt lat="46.28355" lon="6.86499">
        <ele>1890.57</ele>
        <time>2014-06-27T11:38:55Z</time>
      </trkpt>
      <trkpt lat="46.28356" lon="6.86481">
        <ele>1893.93</ele>
        <time>2014-06-27T11:39:12Z</time>
      </trkpt>
      <trkpt lat="46.28356" lon="6.86463">
        <ele>1897.3</ele>
        <time>2014-06-27T11:39:29Z</time>
      </trkpt>
      <trkpt lat="46.28359" lon="6.86438">
        <ele>1900.18</ele>
        <time>2014-06-27T11:39:47Z</time>
      </trkpt>
      <trkpt lat="46.28362" lon="6.86426">
        <ele>1901.14</ele>
        <time>2014-06-27T11:39:56Z</time>
      </trkpt>
      <trkpt lat="46.28361" lon="6.86421">
        <ele>1901.14</ele>
        <time>2014-06-27T11:40:00Z</time>
      </trkpt>
      <trkpt lat="46.28362" lon="6.86404">
        <ele>1901.63</ele>
        <time>2014-06-27T11:40:14Z</time>
      </trkpt>
      <trkpt lat="46.28361" lon="6.86401">
        <ele>1902.11</ele>
        <time>2014-06-27T11:40:29Z</time>
      </trkpt>
      <trkpt lat="46.28361" lon="6.86401">
        <ele>1902.11</ele>
        <time>2014-06-27T11:40:43Z</time>
      </trkpt>
      <trkpt lat="46.28361" lon="6.86398">
        <ele>1902.59</ele>
        <time>2014-06-27T11:41:06Z</time>
      </trkpt>
      <trkpt lat="46.28361" lon="6.86396">
        <ele>1902.59</ele>
        <time>2014-06-27T11:41:09Z</time>
      </trkpt>
      <trkpt lat="46.28365" lon="6.86381">
        <ele>1902.59</ele>
        <time>2014-06-27T11:41:21Z</time>
      </trkpt>
      <trkpt lat="46.28388" lon="6.86362">
        <ele>1901.14</ele>
        <time>2014-06-27T11:41:30Z</time>
      </trkpt>
      <trkpt lat="46.28403" lon="6.86358">
        <ele>1896.82</ele>
        <time>2014-06-27T11:41:34Z</time>
      </trkpt>
      <trkpt lat="46.28412" lon="6.86353">
        <ele>1893.93</ele>
        <time>2014-06-27T11:41:37Z</time>
      </trkpt>
      <trkpt lat="46.28431" lon="6.86334">
        <ele>1894.42</ele>
        <time>2014-06-27T11:41:48Z</time>
      </trkpt>
      <trkpt lat="46.28437" lon="6.86328">
        <ele>1897.78</ele>
        <time>2014-06-27T11:41:52Z</time>
      </trkpt>
      <trkpt lat="46.28445" lon="6.86318">
        <ele>1898.74</ele>
        <time>2014-06-27T11:42:05Z</time>
      </trkpt>
      <trkpt lat="46.28462" lon="6.86306">
        <ele>1899.7</ele>
        <time>2014-06-27T11:42:21Z</time>
      </trkpt>
      <trkpt lat="46.28477" lon="6.86298">
        <ele>1901.14</ele>
        <time>2014-06-27T11:42:37Z</time>
      </trkpt>
      <trkpt lat="46.28491" lon="6.86294">
        <ele>1902.11</ele>
        <time>2014-06-27T11:42:53Z</time>
      </trkpt>
      <trkpt lat="46.28514" lon="6.86288">
        <ele>1898.26</ele>
        <time>2014-06-27T11:43:00Z</time>
      </trkpt>
      <trkpt lat="46.28522" lon="6.8628">
        <ele>1894.42</ele>
        <time>2014-06-27T11:43:03Z</time>
      </trkpt>
      <trkpt lat="46.28527" lon="6.8627">
        <ele>1890.57</ele>
        <time>2014-06-27T11:43:06Z</time>
      </trkpt>
      <trkpt lat="46.28534" lon="6.8626">
        <ele>1893.93</ele>
        <time>2014-06-27T11:43:14Z</time>
      </trkpt>
      <trkpt lat="46.28534" lon="6.8626">
        <ele>1897.78</ele>
        <time>2014-06-27T11:43:17Z</time>
      </trkpt>
      <trkpt lat="46.28536" lon="6.86258">
        <ele>1898.26</ele>
        <time>2014-06-27T11:43:22Z</time>
      </trkpt>
      <trkpt lat="46.28554" lon="6.86238">
        <ele>1898.26</ele>
        <time>2014-06-27T11:43:40Z</time>
      </trkpt>
      <trkpt lat="46.28565" lon="6.86228">
        <ele>1899.22</ele>
        <time>2014-06-27T11:43:52Z</time>
      </trkpt>
      <trkpt lat="46.2857" lon="6.8622">
        <ele>1900.18</ele>
        <time>2014-06-27T11:44:05Z</time>
      </trkpt>
      <trkpt lat="46.28585" lon="6.86201">
        <ele>1901.14</ele>
        <time>2014-06-27T11:44:16Z</time>
      </trkpt>
      <trkpt lat="46.28589" lon="6.86194">
        <ele>1901.14</ele>
        <time>2014-06-27T11:44:19Z</time>
      </trkpt>
      <trkpt lat="46.28595" lon="6.86187">
        <ele>1901.63</ele>
        <time>2014-06-27T11:44:23Z</time>
      </trkpt>
      <trkpt lat="46.28606" lon="6.8618">
        <ele>1901.63</ele>
        <time>2014-06-27T11:44:27Z</time>
      </trkpt>
      <trkpt lat="46.28616" lon="6.86155">
        <ele>1901.63</ele>
        <time>2014-06-27T11:44:32Z</time>
      </trkpt>
      <trkpt lat="46.28626" lon="6.8611">
        <ele>1900.66</ele>
        <time>2014-06-27T11:44:45Z</time>
      </trkpt>
      <trkpt lat="46.28635" lon="6.86073">
        <ele>1900.66</ele>
        <time>2014-06-27T11:44:56Z</time>
      </trkpt>
      <trkpt lat="46.28638" lon="6.86066">
        <ele>1900.66</ele>
        <time>2014-06-27T11:44:58Z</time>
      </trkpt>
      <trkpt lat="46.28661" lon="6.86046">
        <ele>1899.7</ele>
        <time>2014-06-27T11:45:09Z</time>
      </trkpt>
      <trkpt lat="46.28683" lon="6.8603">
        <ele>1899.22</ele>
        <time>2014-06-27T11:45:19Z</time>
      </trkpt>
      <trkpt lat="46.28693" lon="6.86021">
        <ele>1899.7</ele>
        <time>2014-06-27T11:45:23Z</time>
      </trkpt>
      <trkpt lat="46.28722" lon="6.85973">
        <ele>1898.26</ele>
        <time>2014-06-27T11:45:32Z</time>
      </trkpt>
      <trkpt lat="46.28733" lon="6.85956">
        <ele>1895.86</ele>
        <time>2014-06-27T11:45:35Z</time>
      </trkpt>
      <trkpt lat="46.28748" lon="6.85921">
        <ele>1891.53</ele>
        <time>2014-06-27T11:45:40Z</time>
      </trkpt>
      <trkpt lat="46.28751" lon="6.85912">
        <ele>1890.57</ele>
        <time>2014-06-27T11:45:41Z</time>
      </trkpt>
      <trkpt lat="46.28758" lon="6.85875">
        <ele>1888.17</ele>
        <time>2014-06-27T11:45:45Z</time>
      </trkpt>
      <trkpt lat="46.28764" lon="6.85834">
        <ele>1888.17</ele>
        <time>2014-06-27T11:45:50Z</time>
      </trkpt>
      <trkpt lat="46.28779" lon="6.85802">
        <ele>1887.21</ele>
        <time>2014-06-27T11:45:56Z</time>
      </trkpt>
      <trkpt lat="46.28787" lon="6.85792">
        <ele>1886.24</ele>
        <time>2014-06-27T11:45:58Z</time>
      </trkpt>
      <trkpt lat="46.28799" lon="6.85777">
        <ele>1885.76</ele>
        <time>2014-06-27T11:46:01Z</time>
      </trkpt>
      <trkpt lat="46.28839" lon="6.85724">
        <ele>1884.32</ele>
        <time>2014-06-27T11:46:11Z</time>
      </trkpt>
      <trkpt lat="46.28851" lon="6.857">
        <ele>1883.84</ele>
        <time>2014-06-27T11:46:15Z</time>
      </trkpt>
      <trkpt lat="46.28859" lon="6.8569">
        <ele>1882.88</ele>
        <time>2014-06-27T11:46:17Z</time>
      </trkpt>
      <trkpt lat="46.28877" lon="6.85667">
        <ele>1880</ele>
        <time>2014-06-27T11:46:22Z</time>
      </trkpt>
      <trkpt lat="46.28885" lon="6.85655">
        <ele>1875.19</ele>
        <time>2014-06-27T11:46:26Z</time>
      </trkpt>
      <trkpt lat="46.28891" lon="6.85653">
        <ele>1874.71</ele>
        <time>2014-06-27T11:46:28Z</time>
      </trkpt>
      <trkpt lat="46.28912" lon="6.85623">
        <ele>1872.79</ele>
        <time>2014-06-27T11:46:36Z</time>
      </trkpt>
      <trkpt lat="46.28944" lon="6.85594">
        <ele>1869.42</ele>
        <time>2014-06-27T11:46:47Z</time>
      </trkpt>
      <trkpt lat="46.28947" lon="6.85591">
        <ele>1868.46</ele>
        <time>2014-06-27T11:46:48Z</time>
      </trkpt>
      <trkpt lat="46.28963" lon="6.85553">
        <ele>1865.58</ele>
        <time>2014-06-27T11:46:56Z</time>
      </trkpt>
      <trkpt lat="46.28963" lon="6.85551">
        <ele>1865.58</ele>
        <time>2014-06-27T11:46:57Z</time>
      </trkpt>
      <trkpt lat="46.28962" lon="6.85519">
        <ele>1866.06</ele>
        <time>2014-06-27T11:47:08Z</time>
      </trkpt>
      <trkpt lat="46.28953" lon="6.85454">
        <ele>1866.06</ele>
        <time>2014-06-27T11:47:18Z</time>
      </trkpt>
      <trkpt lat="46.28949" lon="6.85415">
        <ele>1864.13</ele>
        <time>2014-06-27T11:47:21Z</time>
      </trkpt>
      <trkpt lat="46.28939" lon="6.85376">
        <ele>1861.25</ele>
        <time>2014-06-27T11:47:25Z</time>
      </trkpt>
      <trkpt lat="46.28928" lon="6.85357">
        <ele>1865.09</ele>
        <time>2014-06-27T11:47:31Z</time>
      </trkpt>
      <trkpt lat="46.28922" lon="6.85349">
        <ele>1868.94</ele>
        <time>2014-06-27T11:47:34Z</time>
      </trkpt>
      <trkpt lat="46.28906" lon="6.85323">
        <ele>1871.34</ele>
        <time>2014-06-27T11:47:42Z</time>
      </trkpt>
      <trkpt lat="46.28899" lon="6.85315">
        <ele>1868.94</ele>
        <time>2014-06-27T11:47:46Z</time>
      </trkpt>
      <trkpt lat="46.28893" lon="6.85307">
        <ele>1867.98</ele>
        <time>2014-06-27T11:47:50Z</time>
      </trkpt>
      <trkpt lat="46.28888" lon="6.85297">
        <ele>1870.86</ele>
        <time>2014-06-27T11:47:54Z</time>
      </trkpt>
      <trkpt lat="46.28883" lon="6.85239">
        <ele>1872.3</ele>
        <time>2014-06-27T11:48:08Z</time>
      </trkpt>
      <trkpt lat="46.28885" lon="6.85222">
        <ele>1870.38</ele>
        <time>2014-06-27T11:48:10Z</time>
      </trkpt>
      <trkpt lat="46.28886" lon="6.85213">
        <ele>1870.86</ele>
        <time>2014-06-27T11:48:11Z</time>
      </trkpt>
      <trkpt lat="46.28893" lon="6.85173">
        <ele>1864.61</ele>
        <time>2014-06-27T11:48:16Z</time>
      </trkpt>
      <trkpt lat="46.28894" lon="6.85163">
        <ele>1863.17</ele>
        <time>2014-06-27T11:48:17Z</time>
      </trkpt>
      <trkpt lat="46.28898" lon="6.85123">
        <ele>1858.37</ele>
        <time>2014-06-27T11:48:21Z</time>
      </trkpt>
      <trkpt lat="46.28903" lon="6.85076">
        <ele>1855</ele>
        <time>2014-06-27T11:48:25Z</time>
      </trkpt>
      <trkpt lat="46.28912" lon="6.84999">
        <ele>1851.64</ele>
        <time>2014-06-27T11:48:31Z</time>
      </trkpt>
      <trkpt lat="46.28919" lon="6.84945">
        <ele>1848.27</ele>
        <time>2014-06-27T11:48:35Z</time>
      </trkpt>
      <trkpt lat="46.28923" lon="6.84905">
        <ele>1844.91</ele>
        <time>2014-06-27T11:48:38Z</time>
      </trkpt>
      <trkpt lat="46.28924" lon="6.84892">
        <ele>1844.91</ele>
        <time>2014-06-27T11:48:39Z</time>
      </trkpt>
      <trkpt lat="46.28929" lon="6.84839">
        <ele>1841.54</ele>
        <time>2014-06-27T11:48:43Z</time>
      </trkpt>
      <trkpt lat="46.28933" lon="6.84788">
        <ele>1838.66</ele>
        <time>2014-06-27T11:48:47Z</time>
      </trkpt>
      <trkpt lat="46.28937" lon="6.84733">
        <ele>1835.77</ele>
        <time>2014-06-27T11:48:52Z</time>
      </trkpt>
      <trkpt lat="46.28954" lon="6.8468">
        <ele>1832.41</ele>
        <time>2014-06-27T11:48:57Z</time>
      </trkpt>
      <trkpt lat="46.28977" lon="6.8466">
        <ele>1828.08</ele>
        <time>2014-06-27T11:49:01Z</time>
      </trkpt>
      <trkpt lat="46.29006" lon="6.84644">
        <ele>1825.2</ele>
        <time>2014-06-27T11:49:05Z</time>
      </trkpt>
      <trkpt lat="46.29019" lon="6.84633">
        <ele>1823.76</ele>
        <time>2014-06-27T11:49:07Z</time>
      </trkpt>
      <trkpt lat="46.29038" lon="6.84609">
        <ele>1819.43</ele>
        <time>2014-06-27T11:49:11Z</time>
      </trkpt>
      <trkpt lat="46.29042" lon="6.84604">
        <ele>1818.47</ele>
        <time>2014-06-27T11:49:12Z</time>
      </trkpt>
      <trkpt lat="46.29055" lon="6.84592">
        <ele>1813.18</ele>
        <time>2014-06-27T11:49:15Z</time>
      </trkpt>
      <trkpt lat="46.29063" lon="6.84586">
        <ele>1809.34</ele>
        <time>2014-06-27T11:49:17Z</time>
      </trkpt>
      <trkpt lat="46.29072" lon="6.8458">
        <ele>1805.49</ele>
        <time>2014-06-27T11:49:19Z</time>
      </trkpt>
      <trkpt lat="46.29077" lon="6.84576">
        <ele>1803.57</ele>
        <time>2014-06-27T11:49:20Z</time>
      </trkpt>
      <trkpt lat="46.29091" lon="6.84563">
        <ele>1798.28</ele>
        <time>2014-06-27T11:49:24Z</time>
      </trkpt>
      <trkpt lat="46.29092" lon="6.84562">
        <ele>1800.69</ele>
        <time>2014-06-27T11:49:31Z</time>
      </trkpt>
      <trkpt lat="46.29092" lon="6.84562">
        <ele>1804.53</ele>
        <time>2014-06-27T11:49:35Z</time>
      </trkpt>
      <trkpt lat="46.29093" lon="6.84562">
        <ele>1802.61</ele>
        <time>2014-06-27T11:50:04Z</time>
      </trkpt>
      <trkpt lat="46.29093" lon="6.84562">
        <ele>1802.61</ele>
        <time>2014-06-27T11:50:26Z</time>
      </trkpt>
      <trkpt lat="46.29093" lon="6.84562">
        <ele>1802.61</ele>
        <time>2014-06-27T11:50:50Z</time>
      </trkpt>
      <trkpt lat="46.29094" lon="6.84564">
        <ele>1802.61</ele>
        <time>2014-06-27T11:51:19Z</time>
      </trkpt>
      <trkpt lat="46.29094" lon="6.84564">
        <ele>1802.61</ele>
        <time>2014-06-27T11:51:52Z</time>
      </trkpt>
      <trkpt lat="46.29094" lon="6.84564">
        <ele>1802.61</ele>
        <time>2014-06-27T11:52:23Z</time>
      </trkpt>
      <trkpt lat="46.29094" lon="6.84564">
        <ele>1802.61</ele>
        <time>2014-06-27T11:52:49Z</time>
      </trkpt>
      <trkpt lat="46.29094" lon="6.84564">
        <ele>1802.61</ele>
        <time>2014-06-27T11:53:01Z</time>
      </trkpt>
      <trkpt lat="46.29096" lon="6.84558">
        <ele>1802.61</ele>
        <time>2014-06-27T11:53:05Z</time>
      </trkpt>
      <trkpt lat="46.29125" lon="6.84521">
        <ele>1802.61</ele>
        <time>2014-06-27T11:53:21Z</time>
      </trkpt>
      <trkpt lat="46.29144" lon="6.84515">
        <ele>1801.17</ele>
        <time>2014-06-27T11:53:25Z</time>
      </trkpt>
      <trkpt lat="46.29165" lon="6.84496">
        <ele>1797.8</ele>
        <time>2014-06-27T11:53:29Z</time>
      </trkpt>
      <trkpt lat="46.29173" lon="6.84483">
        <ele>1796.36</ele>
        <time>2014-06-27T11:53:31Z</time>
      </trkpt>
      <trkpt lat="46.29178" lon="6.84469">
        <ele>1795.4</ele>
        <time>2014-06-27T11:53:33Z</time>
      </trkpt>
      <trkpt lat="46.29182" lon="6.84454">
        <ele>1794.92</ele>
        <time>2014-06-27T11:53:35Z</time>
      </trkpt>
      <trkpt lat="46.29194" lon="6.84408">
        <ele>1793</ele>
        <time>2014-06-27T11:53:40Z</time>
      </trkpt>
      <trkpt lat="46.29198" lon="6.84375">
        <ele>1791.07</ele>
        <time>2014-06-27T11:53:44Z</time>
      </trkpt>
      <trkpt lat="46.29207" lon="6.84336">
        <ele>1787.23</ele>
        <time>2014-06-27T11:53:48Z</time>
      </trkpt>
      <trkpt lat="46.29215" lon="6.84302">
        <ele>1781.94</ele>
        <time>2014-06-27T11:53:51Z</time>
      </trkpt>
      <trkpt lat="46.29219" lon="6.84283">
        <ele>1778.58</ele>
        <time>2014-06-27T11:53:53Z</time>
      </trkpt>
      <trkpt lat="46.29221" lon="6.84265">
        <ele>1774.25</ele>
        <time>2014-06-27T11:53:55Z</time>
      </trkpt>
      <trkpt lat="46.29227" lon="6.84239">
        <ele>1770.41</ele>
        <time>2014-06-27T11:53:58Z</time>
      </trkpt>
      <trkpt lat="46.29229" lon="6.8423">
        <ele>1770.89</ele>
        <time>2014-06-27T11:53:59Z</time>
      </trkpt>
      <trkpt lat="46.29245" lon="6.84164">
        <ele>1768.96</ele>
        <time>2014-06-27T11:54:06Z</time>
      </trkpt>
      <trkpt lat="46.29246" lon="6.84132">
        <ele>1768.96</ele>
        <time>2014-06-27T11:54:10Z</time>
      </trkpt>
      <trkpt lat="46.29242" lon="6.84107">
        <ele>1765.6</ele>
        <time>2014-06-27T11:54:14Z</time>
      </trkpt>
      <trkpt lat="46.29236" lon="6.84083">
        <ele>1759.83</ele>
        <time>2014-06-27T11:54:18Z</time>
      </trkpt>
      <trkpt lat="46.29232" lon="6.84068">
        <ele>1756.47</ele>
        <time>2014-06-27T11:54:20Z</time>
      </trkpt>
      <trkpt lat="46.29225" lon="6.84045">
        <ele>1752.62</ele>
        <time>2014-06-27T11:54:23Z</time>
      </trkpt>
      <trkpt lat="46.29223" lon="6.84037">
        <ele>1751.66</ele>
        <time>2014-06-27T11:54:24Z</time>
      </trkpt>
      <trkpt lat="46.29217" lon="6.84023">
        <ele>1750.22</ele>
        <time>2014-06-27T11:54:26Z</time>
      </trkpt>
      <trkpt lat="46.29215" lon="6.84017">
        <ele>1749.26</ele>
        <time>2014-06-27T11:54:27Z</time>
      </trkpt>
      <trkpt lat="46.29207" lon="6.83986">
        <ele>1744.93</ele>
        <time>2014-06-27T11:54:32Z</time>
      </trkpt>
      <trkpt lat="46.29199" lon="6.83956">
        <ele>1741.57</ele>
        <time>2014-06-27T11:54:38Z</time>
      </trkpt>
      <trkpt lat="46.29198" lon="6.83935">
        <ele>1740.12</ele>
        <time>2014-06-27T11:54:43Z</time>
      </trkpt>
      <trkpt lat="46.29196" lon="6.83876">
        <ele>1737.24</ele>
        <time>2014-06-27T11:54:53Z</time>
      </trkpt>
      <trkpt lat="46.29195" lon="6.83857">
        <ele>1732.91</ele>
        <time>2014-06-27T11:54:57Z</time>
      </trkpt>
      <trkpt lat="46.29195" lon="6.8385">
        <ele>1729.55</ele>
        <time>2014-06-27T11:55:00Z</time>
      </trkpt>
      <trkpt lat="46.29195" lon="6.83844">
        <ele>1727.63</ele>
        <time>2014-06-27T11:55:02Z</time>
      </trkpt>
      <trkpt lat="46.29202" lon="6.83815">
        <ele>1727.15</ele>
        <time>2014-06-27T11:55:08Z</time>
      </trkpt>
      <trkpt lat="46.292" lon="6.83807">
        <ele>1726.67</ele>
        <time>2014-06-27T11:55:16Z</time>
      </trkpt>
      <trkpt lat="46.29191" lon="6.83813">
        <ele>1726.18</ele>
        <time>2014-06-27T11:55:24Z</time>
      </trkpt>
      <trkpt lat="46.29159" lon="6.83856">
        <ele>1721.38</ele>
        <time>2014-06-27T11:55:31Z</time>
      </trkpt>
      <trkpt lat="46.29148" lon="6.83882">
        <ele>1716.09</ele>
        <time>2014-06-27T11:55:34Z</time>
      </trkpt>
      <trkpt lat="46.29136" lon="6.8391">
        <ele>1709.84</ele>
        <time>2014-06-27T11:55:37Z</time>
      </trkpt>
      <trkpt lat="46.29127" lon="6.83927">
        <ele>1706</ele>
        <time>2014-06-27T11:55:39Z</time>
      </trkpt>
      <trkpt lat="46.29117" lon="6.83945">
        <ele>1702.63</ele>
        <time>2014-06-27T11:55:41Z</time>
      </trkpt>
      <trkpt lat="46.29101" lon="6.83968">
        <ele>1699.75</ele>
        <time>2014-06-27T11:55:44Z</time>
      </trkpt>
      <trkpt lat="46.29093" lon="6.83984">
        <ele>1699.27</ele>
        <time>2014-06-27T11:55:46Z</time>
      </trkpt>
      <trkpt lat="46.2909" lon="6.84023">
        <ele>1696.38</ele>
        <time>2014-06-27T11:55:50Z</time>
      </trkpt>
      <trkpt lat="46.29092" lon="6.84055">
        <ele>1692.54</ele>
        <time>2014-06-27T11:55:53Z</time>
      </trkpt>
      <trkpt lat="46.29086" lon="6.84083">
        <ele>1687.73</ele>
        <time>2014-06-27T11:55:56Z</time>
      </trkpt>
      <trkpt lat="46.29076" lon="6.8411">
        <ele>1683.41</ele>
        <time>2014-06-27T11:55:59Z</time>
      </trkpt>
      <trkpt lat="46.29064" lon="6.84137">
        <ele>1680.52</ele>
        <time>2014-06-27T11:56:02Z</time>
      </trkpt>
      <trkpt lat="46.29049" lon="6.84166">
        <ele>1676.2</ele>
        <time>2014-06-27T11:56:06Z</time>
      </trkpt>
      <trkpt lat="46.29045" lon="6.84172">
        <ele>1675.23</ele>
        <time>2014-06-27T11:56:07Z</time>
      </trkpt>
      <trkpt lat="46.29032" lon="6.84191">
        <ele>1671.87</ele>
        <time>2014-06-27T11:56:10Z</time>
      </trkpt>
      <trkpt lat="46.29011" lon="6.84205">
        <ele>1667.06</ele>
        <time>2014-06-27T11:56:14Z</time>
      </trkpt>
      <trkpt lat="46.28994" lon="6.84211">
        <ele>1662.74</ele>
        <time>2014-06-27T11:56:17Z</time>
      </trkpt>
      <trkpt lat="46.28977" lon="6.84218">
        <ele>1657.93</ele>
        <time>2014-06-27T11:56:20Z</time>
      </trkpt>
      <trkpt lat="46.28966" lon="6.84222">
        <ele>1655.05</ele>
        <time>2014-06-27T11:56:22Z</time>
      </trkpt>
      <trkpt lat="46.28955" lon="6.84224">
        <ele>1652.64</ele>
        <time>2014-06-27T11:56:24Z</time>
      </trkpt>
      <trkpt lat="46.28924" lon="6.84218">
        <ele>1647.84</ele>
        <time>2014-06-27T11:56:29Z</time>
      </trkpt>
      <trkpt lat="46.28916" lon="6.84216">
        <ele>1646.88</ele>
        <time>2014-06-27T11:56:30Z</time>
      </trkpt>
      <trkpt lat="46.28886" lon="6.84215">
        <ele>1641.11</ele>
        <time>2014-06-27T11:56:34Z</time>
      </trkpt>
      <trkpt lat="46.28871" lon="6.84214">
        <ele>1637.26</ele>
        <time>2014-06-27T11:56:36Z</time>
      </trkpt>
      <trkpt lat="46.28857" lon="6.84211">
        <ele>1632.94</ele>
        <time>2014-06-27T11:56:38Z</time>
      </trkpt>
      <trkpt lat="46.28843" lon="6.84206">
        <ele>1631.01</ele>
        <time>2014-06-27T11:56:40Z</time>
      </trkpt>
      <trkpt lat="46.28822" lon="6.84203">
        <ele>1626.21</ele>
        <time>2014-06-27T11:56:43Z</time>
      </trkpt>
      <trkpt lat="46.28805" lon="6.84204">
        <ele>1622.36</ele>
        <time>2014-06-27T11:56:46Z</time>
      </trkpt>
      <trkpt lat="46.28792" lon="6.84204">
        <ele>1619</ele>
        <time>2014-06-27T11:56:50Z</time>
      </trkpt>
      <trkpt lat="46.28767" lon="6.84208">
        <ele>1617.07</ele>
        <time>2014-06-27T11:57:01Z</time>
      </trkpt>
      <trkpt lat="46.28728" lon="6.84202">
        <ele>1613.23</ele>
        <time>2014-06-27T11:57:08Z</time>
      </trkpt>
      <trkpt lat="46.28711" lon="6.84196">
        <ele>1607.94</ele>
        <time>2014-06-27T11:57:11Z</time>
      </trkpt>
      <trkpt lat="46.28695" lon="6.84193">
        <ele>1602.17</ele>
        <time>2014-06-27T11:57:14Z</time>
      </trkpt>
      <trkpt lat="46.28674" lon="6.8419">
        <ele>1597.37</ele>
        <time>2014-06-27T11:57:18Z</time>
      </trkpt>
      <trkpt lat="46.28657" lon="6.84189">
        <ele>1595.45</ele>
        <time>2014-06-27T11:57:21Z</time>
      </trkpt>
      <trkpt lat="46.28629" lon="6.84199">
        <ele>1593.04</ele>
        <time>2014-06-27T11:57:26Z</time>
      </trkpt>
      <trkpt lat="46.28616" lon="6.8419">
        <ele>1590.64</ele>
        <time>2014-06-27T11:57:31Z</time>
      </trkpt>
      <trkpt lat="46.28623" lon="6.8418">
        <ele>1589.2</ele>
        <time>2014-06-27T11:57:33Z</time>
      </trkpt>
      <trkpt lat="46.28644" lon="6.84161">
        <ele>1586.79</ele>
        <time>2014-06-27T11:57:37Z</time>
      </trkpt>
      <trkpt lat="46.28688" lon="6.84132">
        <ele>1582.47</ele>
        <time>2014-06-27T11:57:44Z</time>
      </trkpt>
      <trkpt lat="46.28713" lon="6.84117">
        <ele>1578.14</ele>
        <time>2014-06-27T11:57:48Z</time>
      </trkpt>
      <trkpt lat="46.28703" lon="6.84103">
        <ele>1574.78</ele>
        <time>2014-06-27T11:57:52Z</time>
      </trkpt>
      <trkpt lat="46.28666" lon="6.84103">
        <ele>1570.45</ele>
        <time>2014-06-27T11:57:58Z</time>
      </trkpt>
      <trkpt lat="46.28648" lon="6.841">
        <ele>1566.12</ele>
        <time>2014-06-27T11:58:01Z</time>
      </trkpt>
      <trkpt lat="46.28642" lon="6.84098">
        <ele>1564.2</ele>
        <time>2014-06-27T11:58:02Z</time>
      </trkpt>
      <trkpt lat="46.28627" lon="6.84092">
        <ele>1558.92</ele>
        <time>2014-06-27T11:58:05Z</time>
      </trkpt>
      <trkpt lat="46.28618" lon="6.84088">
        <ele>1555.07</ele>
        <time>2014-06-27T11:58:07Z</time>
      </trkpt>
      <trkpt lat="46.28611" lon="6.84086">
        <ele>1552.19</ele>
        <time>2014-06-27T11:58:09Z</time>
      </trkpt>
      <trkpt lat="46.28601" lon="6.84083">
        <ele>1548.82</ele>
        <time>2014-06-27T11:58:12Z</time>
      </trkpt>
      <trkpt lat="46.28586" lon="6.84078">
        <ele>1548.34</ele>
        <time>2014-06-27T11:58:16Z</time>
      </trkpt>
      <trkpt lat="46.28562" lon="6.84076">
        <ele>1544.5</ele>
        <time>2014-06-27T11:58:21Z</time>
      </trkpt>
      <trkpt lat="46.28534" lon="6.84086">
        <ele>1540.17</ele>
        <time>2014-06-27T11:58:25Z</time>
      </trkpt>
      <trkpt lat="46.28513" lon="6.84091">
        <ele>1536.32</ele>
        <time>2014-06-27T11:58:28Z</time>
      </trkpt>
      <trkpt lat="46.28493" lon="6.84094">
        <ele>1532.48</ele>
        <time>2014-06-27T11:58:31Z</time>
      </trkpt>
      <trkpt lat="46.28471" lon="6.84097">
        <ele>1528.15</ele>
        <time>2014-06-27T11:58:34Z</time>
      </trkpt>
      <trkpt lat="46.28443" lon="6.84103">
        <ele>1524.79</ele>
        <time>2014-06-27T11:58:37Z</time>
      </trkpt>
      <trkpt lat="46.28413" lon="6.84105">
        <ele>1521.42</ele>
        <time>2014-06-27T11:58:40Z</time>
      </trkpt>
      <trkpt lat="46.28386" lon="6.84113">
        <ele>1519.5</ele>
        <time>2014-06-27T11:58:43Z</time>
      </trkpt>
      <trkpt lat="46.28357" lon="6.84143">
        <ele>1516.14</ele>
        <time>2014-06-27T11:58:48Z</time>
      </trkpt>
      <trkpt lat="46.28342" lon="6.84176">
        <ele>1512.29</ele>
        <time>2014-06-27T11:58:52Z</time>
      </trkpt>
      <trkpt lat="46.2833" lon="6.84205">
        <ele>1508.45</ele>
        <time>2014-06-27T11:58:55Z</time>
      </trkpt>
      <trkpt lat="46.28322" lon="6.84224">
        <ele>1505.08</ele>
        <time>2014-06-27T11:58:57Z</time>
      </trkpt>
      <trkpt lat="46.28312" lon="6.84254">
        <ele>1500.76</ele>
        <time>2014-06-27T11:59:00Z</time>
      </trkpt>
      <trkpt lat="46.28302" lon="6.84285">
        <ele>1496.91</ele>
        <time>2014-06-27T11:59:03Z</time>
      </trkpt>
      <trkpt lat="46.28291" lon="6.84316">
        <ele>1494.03</ele>
        <time>2014-06-27T11:59:06Z</time>
      </trkpt>
      <trkpt lat="46.28264" lon="6.84346">
        <ele>1492.58</ele>
        <time>2014-06-27T11:59:11Z</time>
      </trkpt>
      <trkpt lat="46.28229" lon="6.84373">
        <ele>1487.3</ele>
        <time>2014-06-27T11:59:18Z</time>
      </trkpt>
      <trkpt lat="46.28221" lon="6.84379">
        <ele>1484.89</ele>
        <time>2014-06-27T11:59:20Z</time>
      </trkpt>
      <trkpt lat="46.28216" lon="6.84368">
        <ele>1480.09</ele>
        <time>2014-06-27T11:59:24Z</time>
      </trkpt>
      <trkpt lat="46.28217" lon="6.84363">
        <ele>1479.61</ele>
        <time>2014-06-27T11:59:25Z</time>
      </trkpt>
      <trkpt lat="46.2822" lon="6.84335">
        <ele>1479.61</ele>
        <time>2014-06-27T11:59:29Z</time>
      </trkpt>
      <trkpt lat="46.28222" lon="6.84316">
        <ele>1479.61</ele>
        <time>2014-06-27T11:59:31Z</time>
      </trkpt>
      <trkpt lat="46.28219" lon="6.84271">
        <ele>1478.65</ele>
        <time>2014-06-27T11:59:35Z</time>
      </trkpt>
      <trkpt lat="46.2821" lon="6.84245">
        <ele>1475.76</ele>
        <time>2014-06-27T11:59:38Z</time>
      </trkpt>
      <trkpt lat="46.28201" lon="6.8423">
        <ele>1471.92</ele>
        <time>2014-06-27T11:59:40Z</time>
      </trkpt>
      <trkpt lat="46.28195" lon="6.842">
        <ele>1468.07</ele>
        <time>2014-06-27T11:59:43Z</time>
      </trkpt>
      <trkpt lat="46.28195" lon="6.84169">
        <ele>1464.23</ele>
        <time>2014-06-27T11:59:46Z</time>
      </trkpt>
      <trkpt lat="46.28194" lon="6.84159">
        <ele>1463.26</ele>
        <time>2014-06-27T11:59:47Z</time>
      </trkpt>
      <trkpt lat="46.28188" lon="6.84129">
        <ele>1460.86</ele>
        <time>2014-06-27T11:59:50Z</time>
      </trkpt>
      <trkpt lat="46.28185" lon="6.84075">
        <ele>1456.53</ele>
        <time>2014-06-27T11:59:56Z</time>
      </trkpt>
      <trkpt lat="46.28187" lon="6.84045">
        <ele>1452.69</ele>
        <time>2014-06-27T12:00:00Z</time>
      </trkpt>
      <trkpt lat="46.28179" lon="6.83998">
        <ele>1448.84</ele>
        <time>2014-06-27T12:00:06Z</time>
      </trkpt>
      <trkpt lat="46.28175" lon="6.83991">
        <ele>1448.36</ele>
        <time>2014-06-27T12:00:07Z</time>
      </trkpt>
      <trkpt lat="46.28167" lon="6.83977">
        <ele>1447.4</ele>
        <time>2014-06-27T12:00:09Z</time>
      </trkpt>
      <trkpt lat="46.28156" lon="6.8395">
        <ele>1445.48</ele>
        <time>2014-06-27T12:00:12Z</time>
      </trkpt>
      <trkpt lat="46.28149" lon="6.83934">
        <ele>1444.04</ele>
        <time>2014-06-27T12:00:14Z</time>
      </trkpt>
      <trkpt lat="46.28128" lon="6.83911">
        <ele>1439.23</ele>
        <time>2014-06-27T12:00:19Z</time>
      </trkpt>
      <trkpt lat="46.28132" lon="6.83889">
        <ele>1435.87</ele>
        <time>2014-06-27T12:00:23Z</time>
      </trkpt>
      <trkpt lat="46.28146" lon="6.83883">
        <ele>1433.94</ele>
        <time>2014-06-27T12:00:26Z</time>
      </trkpt>
      <trkpt lat="46.28163" lon="6.83862">
        <ele>1430.58</ele>
        <time>2014-06-27T12:00:32Z</time>
      </trkpt>
      <trkpt lat="46.2815" lon="6.83843">
        <ele>1428.66</ele>
        <time>2014-06-27T12:00:36Z</time>
      </trkpt>
      <trkpt lat="46.2814" lon="6.8384">
        <ele>1427.21</ele>
        <time>2014-06-27T12:00:38Z</time>
      </trkpt>
      <trkpt lat="46.28119" lon="6.83843">
        <ele>1424.33</ele>
        <time>2014-06-27T12:00:42Z</time>
      </trkpt>
      <trkpt lat="46.281" lon="6.83852">
        <ele>1421.45</ele>
        <time>2014-06-27T12:00:45Z</time>
      </trkpt>
      <trkpt lat="46.28077" lon="6.83874">
        <ele>1417.12</ele>
        <time>2014-06-27T12:00:49Z</time>
      </trkpt>
      <trkpt lat="46.28062" lon="6.83888">
        <ele>1414.24</ele>
        <time>2014-06-27T12:00:52Z</time>
      </trkpt>
      <trkpt lat="46.28051" lon="6.83896">
        <ele>1412.31</ele>
        <time>2014-06-27T12:00:54Z</time>
      </trkpt>
      <trkpt lat="46.28021" lon="6.83925">
        <ele>1407.51</ele>
        <time>2014-06-27T12:00:59Z</time>
      </trkpt>
      <trkpt lat="46.27997" lon="6.83945">
        <ele>1404.14</ele>
        <time>2014-06-27T12:01:03Z</time>
      </trkpt>
      <trkpt lat="46.2798" lon="6.83959">
        <ele>1400.78</ele>
        <time>2014-06-27T12:01:06Z</time>
      </trkpt>
      <trkpt lat="46.27974" lon="6.83963">
        <ele>1399.82</ele>
        <time>2014-06-27T12:01:07Z</time>
      </trkpt>
      <trkpt lat="46.27942" lon="6.83998">
        <ele>1395.01</ele>
        <time>2014-06-27T12:01:12Z</time>
      </trkpt>
      <trkpt lat="46.27929" lon="6.84011">
        <ele>1393.09</ele>
        <time>2014-06-27T12:01:14Z</time>
      </trkpt>
      <trkpt lat="46.27905" lon="6.84041">
        <ele>1388.76</ele>
        <time>2014-06-27T12:01:18Z</time>
      </trkpt>
      <trkpt lat="46.27881" lon="6.84064">
        <ele>1385.88</ele>
        <time>2014-06-27T12:01:22Z</time>
      </trkpt>
      <trkpt lat="46.27858" lon="6.84086">
        <ele>1383.96</ele>
        <time>2014-06-27T12:01:26Z</time>
      </trkpt>
      <trkpt lat="46.27852" lon="6.84091">
        <ele>1382.99</ele>
        <time>2014-06-27T12:01:27Z</time>
      </trkpt>
      <trkpt lat="46.27825" lon="6.84113">
        <ele>1379.15</ele>
        <time>2014-06-27T12:01:31Z</time>
      </trkpt>
      <trkpt lat="46.27789" lon="6.84151">
        <ele>1372.9</ele>
        <time>2014-06-27T12:01:36Z</time>
      </trkpt>
      <trkpt lat="46.27769" lon="6.84176">
        <ele>1370.02</ele>
        <time>2014-06-27T12:01:39Z</time>
      </trkpt>
      <trkpt lat="46.2772" lon="6.84226">
        <ele>1367.13</ele>
        <time>2014-06-27T12:01:46Z</time>
      </trkpt>
      <trkpt lat="46.27689" lon="6.8425">
        <ele>1362.81</ele>
        <time>2014-06-27T12:01:50Z</time>
      </trkpt>
      <trkpt lat="46.27667" lon="6.84266">
        <ele>1359.44</ele>
        <time>2014-06-27T12:01:53Z</time>
      </trkpt>
      <trkpt lat="46.27641" lon="6.84286">
        <ele>1353.67</ele>
        <time>2014-06-27T12:01:57Z</time>
      </trkpt>
      <trkpt lat="46.27615" lon="6.84306">
        <ele>1350.79</ele>
        <time>2014-06-27T12:02:01Z</time>
      </trkpt>
      <trkpt lat="46.27594" lon="6.84319">
        <ele>1350.79</ele>
        <time>2014-06-27T12:02:04Z</time>
      </trkpt>
      <trkpt lat="46.27552" lon="6.84349">
        <ele>1349.35</ele>
        <time>2014-06-27T12:02:14Z</time>
      </trkpt>
      <trkpt lat="46.27552" lon="6.8435">
        <ele>1347.91</ele>
        <time>2014-06-27T12:02:31Z</time>
      </trkpt>
      <trkpt lat="46.27552" lon="6.8435">
        <ele>1347.43</ele>
        <time>2014-06-27T12:02:54Z</time>
      </trkpt>
      <trkpt lat="46.27552" lon="6.8435">
        <ele>1347.43</ele>
        <time>2014-06-27T12:03:26Z</time>
      </trkpt>
      <trkpt lat="46.27539" lon="6.84355">
        <ele>1347.43</ele>
        <time>2014-06-27T12:03:31Z</time>
      </trkpt>
      <trkpt lat="46.27489" lon="6.84383">
        <ele>1344.06</ele>
        <time>2014-06-27T12:03:38Z</time>
      </trkpt>
      <trkpt lat="46.27473" lon="6.84392">
        <ele>1341.18</ele>
        <time>2014-06-27T12:03:40Z</time>
      </trkpt>
      <trkpt lat="46.27448" lon="6.84401">
        <ele>1336.37</ele>
        <time>2014-06-27T12:03:43Z</time>
      </trkpt>
      <trkpt lat="46.2744" lon="6.84401">
        <ele>1334.93</ele>
        <time>2014-06-27T12:03:44Z</time>
      </trkpt>
      <trkpt lat="46.27391" lon="6.84402">
        <ele>1329.64</ele>
        <time>2014-06-27T12:03:49Z</time>
      </trkpt>
      <trkpt lat="46.2737" lon="6.84404">
        <ele>1328.68</ele>
        <time>2014-06-27T12:03:51Z</time>
      </trkpt>
      <trkpt lat="46.27338" lon="6.844">
        <ele>1324.83</ele>
        <time>2014-06-27T12:03:57Z</time>
      </trkpt>
      <trkpt lat="46.27348" lon="6.84391">
        <ele>1323.87</ele>
        <time>2014-06-27T12:03:59Z</time>
      </trkpt>
      <trkpt lat="46.2742" lon="6.84337">
        <ele>1320.03</ele>
        <time>2014-06-27T12:04:08Z</time>
      </trkpt>
      <trkpt lat="46.27459" lon="6.843">
        <ele>1315.7</ele>
        <time>2014-06-27T12:04:12Z</time>
      </trkpt>
      <trkpt lat="46.27477" lon="6.84276">
        <ele>1312.82</ele>
        <time>2014-06-27T12:04:14Z</time>
      </trkpt>
      <trkpt lat="46.27496" lon="6.84251">
        <ele>1309.45</ele>
        <time>2014-06-27T12:04:16Z</time>
      </trkpt>
      <trkpt lat="46.27515" lon="6.84224">
        <ele>1305.61</ele>
        <time>2014-06-27T12:04:18Z</time>
      </trkpt>
      <trkpt lat="46.2753" lon="6.84203">
        <ele>1301.76</ele>
        <time>2014-06-27T12:04:20Z</time>
      </trkpt>
      <trkpt lat="46.27539" lon="6.84189">
        <ele>1298.4</ele>
        <time>2014-06-27T12:04:22Z</time>
      </trkpt>
      <trkpt lat="46.27551" lon="6.84168">
        <ele>1295.03</ele>
        <time>2014-06-27T12:04:25Z</time>
      </trkpt>
      <trkpt lat="46.27617" lon="6.84052">
        <ele>1295.51</ele>
        <time>2014-06-27T12:04:38Z</time>
      </trkpt>
      <trkpt lat="46.27641" lon="6.84006">
        <ele>1292.63</ele>
        <time>2014-06-27T12:04:42Z</time>
      </trkpt>
      <trkpt lat="46.27659" lon="6.8397">
        <ele>1288.78</ele>
        <time>2014-06-27T12:04:45Z</time>
      </trkpt>
      <trkpt lat="46.27679" lon="6.83936">
        <ele>1284.46</ele>
        <time>2014-06-27T12:04:48Z</time>
      </trkpt>
      <trkpt lat="46.27771" lon="6.83749">
        <ele>1281.57</ele>
        <time>2014-06-27T12:05:05Z</time>
      </trkpt>
      <trkpt lat="46.27808" lon="6.83667">
        <ele>1278.69</ele>
        <time>2014-06-27T12:05:13Z</time>
      </trkpt>
      <trkpt lat="46.27823" lon="6.83635">
        <ele>1274.36</ele>
        <time>2014-06-27T12:05:16Z</time>
      </trkpt>
      <trkpt lat="46.27834" lon="6.83613">
        <ele>1271.48</ele>
        <time>2014-06-27T12:05:18Z</time>
      </trkpt>
      <trkpt lat="46.27844" lon="6.83592">
        <ele>1270.04</ele>
        <time>2014-06-27T12:05:20Z</time>
      </trkpt>
      <trkpt lat="46.27863" lon="6.83547">
        <ele>1266.67</ele>
        <time>2014-06-27T12:05:24Z</time>
      </trkpt>
      <trkpt lat="46.27871" lon="6.83526">
        <ele>1265.71</ele>
        <time>2014-06-27T12:05:26Z</time>
      </trkpt>
      <trkpt lat="46.27865" lon="6.83487">
        <ele>1265.71</ele>
        <time>2014-06-27T12:05:33Z</time>
      </trkpt>
      <trkpt lat="46.2786" lon="6.83487">
        <ele>1265.71</ele>
        <time>2014-06-27T12:05:34Z</time>
      </trkpt>
      <trkpt lat="46.2785" lon="6.83489">
        <ele>1265.71</ele>
        <time>2014-06-27T12:05:36Z</time>
      </trkpt>
      <trkpt lat="46.27783" lon="6.83521">
        <ele>1263.79</ele>
        <time>2014-06-27T12:05:48Z</time>
      </trkpt>
      <trkpt lat="46.27744" lon="6.8358">
        <ele>1259.94</ele>
        <time>2014-06-27T12:05:57Z</time>
      </trkpt>
      <trkpt lat="46.27733" lon="6.83602">
        <ele>1256.58</ele>
        <time>2014-06-27T12:06:00Z</time>
      </trkpt>
      <trkpt lat="46.27718" lon="6.83634">
        <ele>1253.22</ele>
        <time>2014-06-27T12:06:04Z</time>
      </trkpt>
      <trkpt lat="46.27699" lon="6.83677">
        <ele>1253.22</ele>
        <time>2014-06-27T12:06:10Z</time>
      </trkpt>
      <trkpt lat="46.27621" lon="6.83788">
        <ele>1248.89</ele>
        <time>2014-06-27T12:06:24Z</time>
      </trkpt>
      <trkpt lat="46.27601" lon="6.83816">
        <ele>1245.53</ele>
        <time>2014-06-27T12:06:27Z</time>
      </trkpt>
      <trkpt lat="46.27579" lon="6.83845">
        <ele>1242.64</ele>
        <time>2014-06-27T12:06:30Z</time>
      </trkpt>
      <trkpt lat="46.27514" lon="6.8392">
        <ele>1239.28</ele>
        <time>2014-06-27T12:06:39Z</time>
      </trkpt>
      <trkpt lat="46.2747" lon="6.83955">
        <ele>1235.43</ele>
        <time>2014-06-27T12:06:45Z</time>
      </trkpt>
      <trkpt lat="46.27433" lon="6.83976">
        <ele>1232.07</ele>
        <time>2014-06-27T12:06:50Z</time>
      </trkpt>
      <trkpt lat="46.27384" lon="6.83996">
        <ele>1228.7</ele>
        <time>2014-06-27T12:06:56Z</time>
      </trkpt>
      <trkpt lat="46.27301" lon="6.84031">
        <ele>1225.34</ele>
        <time>2014-06-27T12:07:06Z</time>
      </trkpt>
      <trkpt lat="46.27242" lon="6.8406">
        <ele>1221.49</ele>
        <time>2014-06-27T12:07:13Z</time>
      </trkpt>
      <trkpt lat="46.2721" lon="6.84085">
        <ele>1219.57</ele>
        <time>2014-06-27T12:07:17Z</time>
      </trkpt>
      <trkpt lat="46.27166" lon="6.84092">
        <ele>1216.21</ele>
        <time>2014-06-27T12:07:22Z</time>
      </trkpt>
      <trkpt lat="46.27147" lon="6.84087">
        <ele>1215.24</ele>
        <time>2014-06-27T12:07:24Z</time>
      </trkpt>
      <trkpt lat="46.27103" lon="6.84093">
        <ele>1215.24</ele>
        <time>2014-06-27T12:07:29Z</time>
      </trkpt>
      <trkpt lat="46.27085" lon="6.84092">
        <ele>1213.8</ele>
        <time>2014-06-27T12:07:31Z</time>
      </trkpt>
      <trkpt lat="46.27068" lon="6.84086">
        <ele>1212.84</ele>
        <time>2014-06-27T12:07:33Z</time>
      </trkpt>
      <trkpt lat="46.27003" lon="6.84092">
        <ele>1209</ele>
        <time>2014-06-27T12:07:40Z</time>
      </trkpt>
      <trkpt lat="46.2688" lon="6.84116">
        <ele>1206.59</ele>
        <time>2014-06-27T12:07:55Z</time>
      </trkpt>
      <trkpt lat="46.26823" lon="6.84122">
        <ele>1206.59</ele>
        <time>2014-06-27T12:08:04Z</time>
      </trkpt>
      <trkpt lat="46.26808" lon="6.84118">
        <ele>1205.63</ele>
        <time>2014-06-27T12:08:12Z</time>
      </trkpt>
      <trkpt lat="46.26797" lon="6.84116">
        <ele>1205.63</ele>
        <time>2014-06-27T12:08:22Z</time>
      </trkpt>
      <trkpt lat="46.26788" lon="6.84114">
        <ele>1205.63</ele>
        <time>2014-06-27T12:08:33Z</time>
      </trkpt>
      <trkpt lat="46.26785" lon="6.84114">
        <ele>1205.63</ele>
        <time>2014-06-27T12:08:45Z</time>
      </trkpt>
      <trkpt lat="46.26782" lon="6.84113">
        <ele>1205.63</ele>
        <time>2014-06-27T12:08:51Z</time>
      </trkpt>
      <trkpt lat="46.26775" lon="6.84097">
        <ele>1204.19</ele>
        <time>2014-06-27T12:09:05Z</time>
      </trkpt>
      <trkpt lat="46.26775" lon="6.84097">
        <ele>1204.67</ele>
        <time>2014-06-27T12:09:07Z</time>
      </trkpt>
      <trkpt lat="46.26782" lon="6.84085">
        <ele>1203.23</ele>
        <time>2014-06-27T12:09:22Z</time>
      </trkpt>
      <trkpt lat="46.26782" lon="6.84085">
        <ele>1202.75</ele>
        <time>2014-06-27T12:09:49Z</time>
      </trkpt>
      <trkpt lat="46.26782" lon="6.84085">
        <ele>1202.75</ele>
        <time>2014-06-27T12:10:09Z</time>
      </trkpt>
      <trkpt lat="46.26782" lon="6.84085">
        <ele>1202.27</ele>
        <time>2014-06-27T12:10:31Z</time>
      </trkpt>
      <trkpt lat="46.26782" lon="6.84085">
        <ele>1202.27</ele>
        <time>2014-06-27T12:10:51Z</time>
      </trkpt>
      <trkpt lat="46.26782" lon="6.84085">
        <ele>1202.27</ele>
        <time>2014-06-27T12:11:03Z</time>
      </trkpt>
      <trkpt lat="46.26782" lon="6.84081">
        <ele>1202.27</ele>
        <time>2014-06-27T12:11:13Z</time>
      </trkpt>
      <trkpt lat="46.2678" lon="6.84079">
        <ele>1202.27</ele>
        <time>2014-06-27T12:11:25Z</time>
      </trkpt>
      <trkpt lat="46.2678" lon="6.84079">
        <ele>1202.27</ele>
        <time>2014-06-27T12:11:56Z</time>
      </trkpt>
      <trkpt lat="46.2678" lon="6.84079">
        <ele>1202.27</ele>
        <time>2014-06-27T12:12:09Z</time>
      </trkpt>
      <trkpt lat="46.2678" lon="6.84079">
        <ele>1202.27</ele>
        <time>2014-06-27T12:12:29Z</time>
      </trkpt>
      <trkpt lat="46.26781" lon="6.84079">
        <ele>1202.27</ele>
        <time>2014-06-27T12:13:07Z</time>
      </trkpt>
      <trkpt lat="46.2678" lon="6.8408">
        <ele>1202.27</ele>
        <time>2014-06-27T12:13:35Z</time>
      </trkpt>
      <trkpt lat="46.2678" lon="6.8408">
        <ele>1202.27</ele>
        <time>2014-06-27T12:14:09Z</time>
      </trkpt>
      <trkpt lat="46.2678" lon="6.84079">
        <ele>1202.27</ele>
        <time>2014-06-27T12:14:28Z</time>
      </trkpt>
      <trkpt lat="46.2678" lon="6.84079">
        <ele>1202.27</ele>
        <time>2014-06-27T12:14:56Z</time>
      </trkpt>
      <trkpt lat="46.2678" lon="6.84081">
        <ele>1202.27</ele>
        <time>2014-06-27T12:15:22Z</time>
      </trkpt>
      <trkpt lat="46.26779" lon="6.84082">
        <ele>1202.27</ele>
        <time>2014-06-27T12:15:55Z</time>
      </trkpt>
      <trkpt lat="46.26779" lon="6.84082">
        <ele>1202.27</ele>
        <time>2014-06-27T12:16:30Z</time>
      </trkpt>
      <trkpt lat="46.26778" lon="6.84083">
        <ele>1202.27</ele>
        <time>2014-06-27T12:17:11Z</time>
      </trkpt>
      <trkpt lat="46.26778" lon="6.84083">
        <ele>1202.27</ele>
        <time>2014-06-27T12:17:42Z</time>
      </trkpt>
      <trkpt lat="46.26778" lon="6.84083">
        <ele>1202.27</ele>
        <time>2014-06-27T12:18:15Z</time>
      </trkpt>
      <trkpt lat="46.26778" lon="6.84082">
        <ele>1202.27</ele>
        <time>2014-06-27T12:18:41Z</time>
      </trkpt>
      <trkpt lat="46.26778" lon="6.84083">
        <ele>1202.27</ele>
        <time>2014-06-27T12:19:11Z</time>
      </trkpt>
      <trkpt lat="46.26778" lon="6.84083">
        <ele>1202.27</ele>
        <time>2014-06-27T12:19:44Z</time>
      </trkpt>
      <trkpt lat="46.26778" lon="6.84084">
        <ele>1202.27</ele>
        <time>2014-06-27T12:20:16Z</time>
      </trkpt>
      <trkpt lat="46.26779" lon="6.84082">
        <ele>1202.27</ele>
        <time>2014-06-27T12:20:40Z</time>
      </trkpt>
      <trkpt lat="46.26779" lon="6.84082">
        <ele>1202.27</ele>
        <time>2014-06-27T12:21:05Z</time>
      </trkpt>
      <trkpt lat="46.26778" lon="6.84082">
        <ele>1202.27</ele>
        <time>2014-06-27T12:21:26Z</time>
      </trkpt>
      <trkpt lat="46.26778" lon="6.84082">
        <ele>1202.27</ele>
        <time>2014-06-27T12:21:47Z</time>
      </trkpt>
      <trkpt lat="46.26779" lon="6.84082">
        <ele>1202.27</ele>
        <time>2014-06-27T12:22:19Z</time>
      </trkpt>
      <trkpt lat="46.26778" lon="6.84082">
        <ele>1202.27</ele>
        <time>2014-06-27T12:22:52Z</time>
      </trkpt>
      <trkpt lat="46.26779" lon="6.84081">
        <ele>1202.27</ele>
        <time>2014-06-27T12:23:32Z</time>
      </trkpt>
      <trkpt lat="46.26779" lon="6.84082">
        <ele>1202.27</ele>
        <time>2014-06-27T12:23:55Z</time>
      </trkpt>
      <trkpt lat="46.2678" lon="6.84082">
        <ele>1202.27</ele>
        <time>2014-06-27T12:24:01Z</time>
      </trkpt>
      <trkpt lat="46.26779" lon="6.84084">
        <ele>1202.27</ele>
        <time>2014-06-27T12:24:08Z</time>
      </trkpt>
      <trkpt lat="46.26771" lon="6.84091">
        <ele>1202.27</ele>
        <time>2014-06-27T12:24:16Z</time>
      </trkpt>
      <trkpt lat="46.26763" lon="6.84125">
        <ele>1203.71</ele>
        <time>2014-06-27T12:24:27Z</time>
      </trkpt>
      <trkpt lat="46.26727" lon="6.84133">
        <ele>1206.11</ele>
        <time>2014-06-27T12:24:40Z</time>
      </trkpt>
      <trkpt lat="46.26703" lon="6.84141">
        <ele>1208.03</ele>
        <time>2014-06-27T12:24:50Z</time>
      </trkpt>
      <trkpt lat="46.26708" lon="6.84152">
        <ele>1209</ele>
        <time>2014-06-27T12:24:57Z</time>
      </trkpt>
      <trkpt lat="46.26729" lon="6.84165">
        <ele>1210.44</ele>
        <time>2014-06-27T12:25:06Z</time>
      </trkpt>
      <trkpt lat="46.26725" lon="6.84178">
        <ele>1211.4</ele>
        <time>2014-06-27T12:25:11Z</time>
      </trkpt>
      <trkpt lat="46.26697" lon="6.84193">
        <ele>1214.76</ele>
        <time>2014-06-27T12:25:25Z</time>
      </trkpt>
      <trkpt lat="46.26682" lon="6.84206">
        <ele>1218.61</ele>
        <time>2014-06-27T12:25:34Z</time>
      </trkpt>
      <trkpt lat="46.26676" lon="6.84214">
        <ele>1221.49</ele>
        <time>2014-06-27T12:25:38Z</time>
      </trkpt>
      <trkpt lat="46.26655" lon="6.84222">
        <ele>1222.93</ele>
        <time>2014-06-27T12:25:48Z</time>
      </trkpt>
      <trkpt lat="46.26653" lon="6.84227">
        <ele>1222.93</ele>
        <time>2014-06-27T12:25:55Z</time>
      </trkpt>
      <trkpt lat="46.26651" lon="6.84247">
        <ele>1224.38</ele>
        <time>2014-06-27T12:26:10Z</time>
      </trkpt>
      <trkpt lat="46.26651" lon="6.84254">
        <ele>1225.82</ele>
        <time>2014-06-27T12:26:23Z</time>
      </trkpt>
      <trkpt lat="46.26651" lon="6.84253">
        <ele>1227.26</ele>
        <time>2014-06-27T12:26:48Z</time>
      </trkpt>
      <trkpt lat="46.26656" lon="6.84248">
        <ele>1226.78</ele>
        <time>2014-06-27T12:27:12Z</time>
      </trkpt>
      <trkpt lat="46.26668" lon="6.84235">
        <ele>1226.78</ele>
        <time>2014-06-27T12:27:38Z</time>
      </trkpt>
      <trkpt lat="46.26663" lon="6.84222">
        <ele>1227.26</ele>
        <time>2014-06-27T12:28:02Z</time>
      </trkpt>
      <trkpt lat="46.26662" lon="6.84231">
        <ele>1226.78</ele>
        <time>2014-06-27T12:28:26Z</time>
      </trkpt>
      <trkpt lat="46.26664" lon="6.84231">
        <ele>1226.78</ele>
        <time>2014-06-27T12:28:50Z</time>
      </trkpt>
      <trkpt lat="46.2667" lon="6.84232">
        <ele>1226.78</ele>
        <time>2014-06-27T12:29:11Z</time>
      </trkpt>
      <trkpt lat="46.2667" lon="6.84232">
        <ele>1226.78</ele>
        <time>2014-06-27T12:29:29Z</time>
      </trkpt>
      <trkpt lat="46.26676" lon="6.84266">
        <ele>1226.78</ele>
        <time>2014-06-27T12:29:36Z</time>
      </trkpt>
      <trkpt lat="46.26675" lon="6.84299">
        <ele>1230.62</ele>
        <time>2014-06-27T12:29:41Z</time>
      </trkpt>
      <trkpt lat="46.26675" lon="6.84304">
        <ele>1237.83</ele>
        <time>2014-06-27T12:29:42Z</time>
      </trkpt>
      <trkpt lat="46.26675" lon="6.84308">
        <ele>1242.64</ele>
        <time>2014-06-27T12:29:43Z</time>
      </trkpt>
      <trkpt lat="46.26675" lon="6.84316">
        <ele>1246.01</ele>
        <time>2014-06-27T12:29:45Z</time>
      </trkpt>
      <trkpt lat="46.26675" lon="6.84325">
        <ele>1250.33</ele>
        <time>2014-06-27T12:29:47Z</time>
      </trkpt>
      <trkpt lat="46.26675" lon="6.84333">
        <ele>1254.18</ele>
        <time>2014-06-27T12:29:49Z</time>
      </trkpt>
      <trkpt lat="46.26675" lon="6.84343">
        <ele>1257.54</ele>
        <time>2014-06-27T12:29:51Z</time>
      </trkpt>
      <trkpt lat="46.26676" lon="6.84351">
        <ele>1260.91</ele>
        <time>2014-06-27T12:29:53Z</time>
      </trkpt>
      <trkpt lat="46.26676" lon="6.8436">
        <ele>1264.27</ele>
        <time>2014-06-27T12:29:55Z</time>
      </trkpt>
      <trkpt lat="46.26676" lon="6.84369">
        <ele>1267.64</ele>
        <time>2014-06-27T12:29:57Z</time>
      </trkpt>
      <trkpt lat="46.26677" lon="6.84377">
        <ele>1271</ele>
        <time>2014-06-27T12:29:59Z</time>
      </trkpt>
      <trkpt lat="46.26677" lon="6.84386">
        <ele>1274.85</ele>
        <time>2014-06-27T12:30:01Z</time>
      </trkpt>
      <trkpt lat="46.26677" lon="6.84395">
        <ele>1278.69</ele>
        <time>2014-06-27T12:30:03Z</time>
      </trkpt>
      <trkpt lat="46.26678" lon="6.84408">
        <ele>1283.5</ele>
        <time>2014-06-27T12:30:06Z</time>
      </trkpt>
      <trkpt lat="46.26679" lon="6.84417">
        <ele>1287.82</ele>
        <time>2014-06-27T12:30:08Z</time>
      </trkpt>
      <trkpt lat="46.26679" lon="6.84426">
        <ele>1292.63</ele>
        <time>2014-06-27T12:30:10Z</time>
      </trkpt>
      <trkpt lat="46.26679" lon="6.84435">
        <ele>1296.96</ele>
        <time>2014-06-27T12:30:12Z</time>
      </trkpt>
      <trkpt lat="46.2668" lon="6.84443">
        <ele>1300.8</ele>
        <time>2014-06-27T12:30:14Z</time>
      </trkpt>
      <trkpt lat="46.26681" lon="6.84452">
        <ele>1304.65</ele>
        <time>2014-06-27T12:30:16Z</time>
      </trkpt>
      <trkpt lat="46.26682" lon="6.8446">
        <ele>1308.97</ele>
        <time>2014-06-27T12:30:18Z</time>
      </trkpt>
      <trkpt lat="46.26682" lon="6.84469">
        <ele>1312.82</ele>
        <time>2014-06-27T12:30:20Z</time>
      </trkpt>
      <trkpt lat="46.26683" lon="6.84477">
        <ele>1317.14</ele>
        <time>2014-06-27T12:30:22Z</time>
      </trkpt>
      <trkpt lat="46.26683" lon="6.84485">
        <ele>1321.95</ele>
        <time>2014-06-27T12:30:24Z</time>
      </trkpt>
      <trkpt lat="46.26683" lon="6.84494">
        <ele>1326.76</ele>
        <time>2014-06-27T12:30:26Z</time>
      </trkpt>
      <trkpt lat="46.26684" lon="6.84502">
        <ele>1331.08</ele>
        <time>2014-06-27T12:30:28Z</time>
      </trkpt>
      <trkpt lat="46.26684" lon="6.84511">
        <ele>1335.89</ele>
        <time>2014-06-27T12:30:30Z</time>
      </trkpt>
      <trkpt lat="46.26685" lon="6.84523">
        <ele>1340.7</ele>
        <time>2014-06-27T12:30:33Z</time>
      </trkpt>
      <trkpt lat="46.26686" lon="6.84531">
        <ele>1345.02</ele>
        <time>2014-06-27T12:30:35Z</time>
      </trkpt>
      <trkpt lat="46.26687" lon="6.84539">
        <ele>1349.83</ele>
        <time>2014-06-27T12:30:37Z</time>
      </trkpt>
      <trkpt lat="46.26687" lon="6.84547">
        <ele>1354.15</ele>
        <time>2014-06-27T12:30:39Z</time>
      </trkpt>
      <trkpt lat="46.26688" lon="6.84556">
        <ele>1358.96</ele>
        <time>2014-06-27T12:30:41Z</time>
      </trkpt>
      <trkpt lat="46.26688" lon="6.84563">
        <ele>1363.77</ele>
        <time>2014-06-27T12:30:43Z</time>
      </trkpt>
      <trkpt lat="46.26688" lon="6.84571">
        <ele>1369.05</ele>
        <time>2014-06-27T12:30:45Z</time>
      </trkpt>
      <trkpt lat="46.26688" lon="6.84581">
        <ele>1373.38</ele>
        <time>2014-06-27T12:30:47Z</time>
      </trkpt>
      <trkpt lat="46.26688" lon="6.84589">
        <ele>1377.23</ele>
        <time>2014-06-27T12:30:49Z</time>
      </trkpt>
      <trkpt lat="46.26689" lon="6.84598">
        <ele>1381.07</ele>
        <time>2014-06-27T12:30:51Z</time>
      </trkpt>
      <trkpt lat="46.2669" lon="6.84607">
        <ele>1384.44</ele>
        <time>2014-06-27T12:30:53Z</time>
      </trkpt>
      <trkpt lat="46.2669" lon="6.84616">
        <ele>1388.28</ele>
        <time>2014-06-27T12:30:55Z</time>
      </trkpt>
      <trkpt lat="46.26691" lon="6.84624">
        <ele>1391.65</ele>
        <time>2014-06-27T12:30:57Z</time>
      </trkpt>
      <trkpt lat="46.26691" lon="6.84638">
        <ele>1395.97</ele>
        <time>2014-06-27T12:31:00Z</time>
      </trkpt>
      <trkpt lat="46.26692" lon="6.84646">
        <ele>1400.3</ele>
        <time>2014-06-27T12:31:02Z</time>
      </trkpt>
      <trkpt lat="46.26693" lon="6.84655">
        <ele>1405.1</ele>
        <time>2014-06-27T12:31:04Z</time>
      </trkpt>
      <trkpt lat="46.26693" lon="6.84663">
        <ele>1409.91</ele>
        <time>2014-06-27T12:31:06Z</time>
      </trkpt>
      <trkpt lat="46.26694" lon="6.84672">
        <ele>1414.72</ele>
        <time>2014-06-27T12:31:08Z</time>
      </trkpt>
      <trkpt lat="46.26695" lon="6.8468">
        <ele>1419.04</ele>
        <time>2014-06-27T12:31:10Z</time>
      </trkpt>
      <trkpt lat="46.26695" lon="6.84688">
        <ele>1423.85</ele>
        <time>2014-06-27T12:31:12Z</time>
      </trkpt>
      <trkpt lat="46.26695" lon="6.84696">
        <ele>1428.18</ele>
        <time>2014-06-27T12:31:14Z</time>
      </trkpt>
      <trkpt lat="46.26696" lon="6.84705">
        <ele>1432.02</ele>
        <time>2014-06-27T12:31:16Z</time>
      </trkpt>
      <trkpt lat="46.26696" lon="6.84713">
        <ele>1435.87</ele>
        <time>2014-06-27T12:31:18Z</time>
      </trkpt>
      <trkpt lat="46.26697" lon="6.84722">
        <ele>1440.19</ele>
        <time>2014-06-27T12:31:20Z</time>
      </trkpt>
      <trkpt lat="46.26698" lon="6.8473">
        <ele>1445</ele>
        <time>2014-06-27T12:31:22Z</time>
      </trkpt>
      <trkpt lat="46.26698" lon="6.84743">
        <ele>1450.29</ele>
        <time>2014-06-27T12:31:25Z</time>
      </trkpt>
      <trkpt lat="46.26699" lon="6.84751">
        <ele>1455.57</ele>
        <time>2014-06-27T12:31:27Z</time>
      </trkpt>
      <trkpt lat="46.26699" lon="6.84759">
        <ele>1460.38</ele>
        <time>2014-06-27T12:31:29Z</time>
      </trkpt>
      <trkpt lat="46.267" lon="6.84767">
        <ele>1465.19</ele>
        <time>2014-06-27T12:31:31Z</time>
      </trkpt>
      <trkpt lat="46.26701" lon="6.84775">
        <ele>1469.99</ele>
        <time>2014-06-27T12:31:33Z</time>
      </trkpt>
      <trkpt lat="46.26701" lon="6.84784">
        <ele>1473.84</ele>
        <time>2014-06-27T12:31:35Z</time>
      </trkpt>
      <trkpt lat="46.26701" lon="6.84792">
        <ele>1477.68</ele>
        <time>2014-06-27T12:31:37Z</time>
      </trkpt>
      <trkpt lat="46.26702" lon="6.848">
        <ele>1481.05</ele>
        <time>2014-06-27T12:31:39Z</time>
      </trkpt>
      <trkpt lat="46.26703" lon="6.84809">
        <ele>1484.89</ele>
        <time>2014-06-27T12:31:41Z</time>
      </trkpt>
      <trkpt lat="46.26703" lon="6.84818">
        <ele>1488.74</ele>
        <time>2014-06-27T12:31:43Z</time>
      </trkpt>
      <trkpt lat="46.26704" lon="6.84828">
        <ele>1492.1</ele>
        <time>2014-06-27T12:31:45Z</time>
      </trkpt>
      <trkpt lat="46.26705" lon="6.84842">
        <ele>1496.43</ele>
        <time>2014-06-27T12:31:48Z</time>
      </trkpt>
      <trkpt lat="46.26706" lon="6.84853">
        <ele>1497.87</ele>
        <time>2014-06-27T12:31:50Z</time>
      </trkpt>
      <trkpt lat="46.26706" lon="6.84867">
        <ele>1501.24</ele>
        <time>2014-06-27T12:31:53Z</time>
      </trkpt>
      <trkpt lat="46.26708" lon="6.84886">
        <ele>1504.6</ele>
        <time>2014-06-27T12:31:57Z</time>
      </trkpt>
      <trkpt lat="46.26711" lon="6.84917">
        <ele>1507.48</ele>
        <time>2014-06-27T12:32:03Z</time>
      </trkpt>
      <trkpt lat="46.26713" lon="6.84957">
        <ele>1510.37</ele>
        <time>2014-06-27T12:32:11Z</time>
      </trkpt>
      <trkpt lat="46.26714" lon="6.84977">
        <ele>1514.21</ele>
        <time>2014-06-27T12:32:15Z</time>
      </trkpt>
      <trkpt lat="46.26714" lon="6.84981">
        <ele>1514.21</ele>
        <time>2014-06-27T12:32:16Z</time>
      </trkpt>
      <trkpt lat="46.26716" lon="6.85001">
        <ele>1518.06</ele>
        <time>2014-06-27T12:32:20Z</time>
      </trkpt>
      <trkpt lat="46.26717" lon="6.85019">
        <ele>1521.42</ele>
        <time>2014-06-27T12:32:24Z</time>
      </trkpt>
      <trkpt lat="46.2672" lon="6.8505">
        <ele>1524.79</ele>
        <time>2014-06-27T12:32:30Z</time>
      </trkpt>
      <trkpt lat="46.26724" lon="6.85126">
        <ele>1528.15</ele>
        <time>2014-06-27T12:32:45Z</time>
      </trkpt>
      <trkpt lat="46.26725" lon="6.85141">
        <ele>1531.52</ele>
        <time>2014-06-27T12:32:48Z</time>
      </trkpt>
      <trkpt lat="46.26731" lon="6.85252">
        <ele>1533.92</ele>
        <time>2014-06-27T12:33:10Z</time>
      </trkpt>
      <trkpt lat="46.26733" lon="6.85297">
        <ele>1537.77</ele>
        <time>2014-06-27T12:33:19Z</time>
      </trkpt>
      <trkpt lat="46.26734" lon="6.85312">
        <ele>1541.13</ele>
        <time>2014-06-27T12:33:22Z</time>
      </trkpt>
      <trkpt lat="46.26735" lon="6.85327">
        <ele>1544.01</ele>
        <time>2014-06-27T12:33:25Z</time>
      </trkpt>
      <trkpt lat="46.26738" lon="6.85372">
        <ele>1547.38</ele>
        <time>2014-06-27T12:33:34Z</time>
      </trkpt>
      <trkpt lat="46.2674" lon="6.85402">
        <ele>1550.74</ele>
        <time>2014-06-27T12:33:40Z</time>
      </trkpt>
      <trkpt lat="46.26741" lon="6.85416">
        <ele>1554.11</ele>
        <time>2014-06-27T12:33:43Z</time>
      </trkpt>
      <trkpt lat="46.26742" lon="6.85432">
        <ele>1557.47</ele>
        <time>2014-06-27T12:33:46Z</time>
      </trkpt>
      <trkpt lat="46.26742" lon="6.8545">
        <ele>1560.84</ele>
        <time>2014-06-27T12:33:50Z</time>
      </trkpt>
      <trkpt lat="46.26743" lon="6.85464">
        <ele>1564.2</ele>
        <time>2014-06-27T12:33:53Z</time>
      </trkpt>
      <trkpt lat="46.26743" lon="6.85478">
        <ele>1568.53</ele>
        <time>2014-06-27T12:33:56Z</time>
      </trkpt>
      <trkpt lat="46.26744" lon="6.85488">
        <ele>1571.89</ele>
        <time>2014-06-27T12:33:58Z</time>
      </trkpt>
      <trkpt lat="46.26745" lon="6.85502">
        <ele>1575.26</ele>
        <time>2014-06-27T12:34:01Z</time>
      </trkpt>
      <trkpt lat="46.26745" lon="6.85512">
        <ele>1578.62</ele>
        <time>2014-06-27T12:34:03Z</time>
      </trkpt>
      <trkpt lat="46.26745" lon="6.85521">
        <ele>1581.99</ele>
        <time>2014-06-27T12:34:05Z</time>
      </trkpt>
      <trkpt lat="46.26745" lon="6.8553">
        <ele>1584.87</ele>
        <time>2014-06-27T12:34:07Z</time>
      </trkpt>
      <trkpt lat="46.26746" lon="6.8554">
        <ele>1588.24</ele>
        <time>2014-06-27T12:34:09Z</time>
      </trkpt>
      <trkpt lat="46.26746" lon="6.85549">
        <ele>1591.12</ele>
        <time>2014-06-27T12:34:11Z</time>
      </trkpt>
      <trkpt lat="46.26747" lon="6.85564">
        <ele>1595.45</ele>
        <time>2014-06-27T12:34:14Z</time>
      </trkpt>
      <trkpt lat="46.26748" lon="6.85578">
        <ele>1598.81</ele>
        <time>2014-06-27T12:34:17Z</time>
      </trkpt>
      <trkpt lat="46.26748" lon="6.85592">
        <ele>1602.17</ele>
        <time>2014-06-27T12:34:20Z</time>
      </trkpt>
      <trkpt lat="46.26749" lon="6.85606">
        <ele>1606.02</ele>
        <time>2014-06-27T12:34:23Z</time>
      </trkpt>
      <trkpt lat="46.2675" lon="6.8562">
        <ele>1609.38</ele>
        <time>2014-06-27T12:34:26Z</time>
      </trkpt>
      <trkpt lat="46.2675" lon="6.85629">
        <ele>1612.75</ele>
        <time>2014-06-27T12:34:28Z</time>
      </trkpt>
      <trkpt lat="46.26751" lon="6.85638">
        <ele>1616.11</ele>
        <time>2014-06-27T12:34:30Z</time>
      </trkpt>
      <trkpt lat="46.26751" lon="6.85648">
        <ele>1619.48</ele>
        <time>2014-06-27T12:34:32Z</time>
      </trkpt>
      <trkpt lat="46.26752" lon="6.85657">
        <ele>1622.36</ele>
        <time>2014-06-27T12:34:34Z</time>
      </trkpt>
      <trkpt lat="46.26753" lon="6.85666">
        <ele>1625.73</ele>
        <time>2014-06-27T12:34:36Z</time>
      </trkpt>
      <trkpt lat="46.26754" lon="6.85675">
        <ele>1629.09</ele>
        <time>2014-06-27T12:34:38Z</time>
      </trkpt>
      <trkpt lat="46.26754" lon="6.85691">
        <ele>1632.94</ele>
        <time>2014-06-27T12:34:41Z</time>
      </trkpt>
      <trkpt lat="46.26755" lon="6.85701">
        <ele>1633.42</ele>
        <time>2014-06-27T12:34:43Z</time>
      </trkpt>
      <trkpt lat="46.26757" lon="6.85726">
        <ele>1630.05</ele>
        <time>2014-06-27T12:34:48Z</time>
      </trkpt>
      <trkpt lat="46.26759" lon="6.85734">
        <ele>1629.09</ele>
        <time>2014-06-27T12:34:50Z</time>
      </trkpt>
      <trkpt lat="46.26759" lon="6.85738">
        <ele>1627.65</ele>
        <time>2014-06-27T12:34:59Z</time>
      </trkpt>
      <trkpt lat="46.26759" lon="6.85742">
        <ele>1629.57</ele>
        <time>2014-06-27T12:35:17Z</time>
      </trkpt>
      <trkpt lat="46.2676" lon="6.85747">
        <ele>1629.57</ele>
        <time>2014-06-27T12:35:19Z</time>
      </trkpt>
      <trkpt lat="46.2676" lon="6.85769">
        <ele>1629.57</ele>
        <time>2014-06-27T12:35:32Z</time>
      </trkpt>
      <trkpt lat="46.2676" lon="6.85769">
        <ele>1629.57</ele>
        <time>2014-06-27T12:35:53Z</time>
      </trkpt>
      <trkpt lat="46.26761" lon="6.85772">
        <ele>1629.57</ele>
        <time>2014-06-27T12:36:07Z</time>
      </trkpt>
      <trkpt lat="46.26761" lon="6.85772">
        <ele>1629.57</ele>
        <time>2014-06-27T12:36:30Z</time>
      </trkpt>
      <trkpt lat="46.26754" lon="6.8578">
        <ele>1629.57</ele>
        <time>2014-06-27T12:36:34Z</time>
      </trkpt>
      <trkpt lat="46.26727" lon="6.85786">
        <ele>1628.61</ele>
        <time>2014-06-27T12:36:48Z</time>
      </trkpt>
      <trkpt lat="46.26695" lon="6.85796">
        <ele>1628.61</ele>
        <time>2014-06-27T12:36:57Z</time>
      </trkpt>
      <trkpt lat="46.26677" lon="6.85797">
        <ele>1627.65</ele>
        <time>2014-06-27T12:37:00Z</time>
      </trkpt>
      <trkpt lat="46.26656" lon="6.85782">
        <ele>1623.8</ele>
        <time>2014-06-27T12:37:04Z</time>
      </trkpt>
      <trkpt lat="46.26648" lon="6.85768">
        <ele>1620.92</ele>
        <time>2014-06-27T12:37:06Z</time>
      </trkpt>
      <trkpt lat="46.2663" lon="6.85752">
        <ele>1616.11</ele>
        <time>2014-06-27T12:37:10Z</time>
      </trkpt>
      <trkpt lat="46.26625" lon="6.85753">
        <ele>1615.15</ele>
        <time>2014-06-27T12:37:11Z</time>
      </trkpt>
      <trkpt lat="46.26593" lon="6.85771">
        <ele>1611.79</ele>
        <time>2014-06-27T12:37:16Z</time>
      </trkpt>
      <trkpt lat="46.26575" lon="6.85777">
        <ele>1609.86</ele>
        <time>2014-06-27T12:37:19Z</time>
      </trkpt>
      <trkpt lat="46.26558" lon="6.85772">
        <ele>1605.06</ele>
        <time>2014-06-27T12:37:23Z</time>
      </trkpt>
      <trkpt lat="46.26547" lon="6.85766">
        <ele>1603.14</ele>
        <time>2014-06-27T12:37:26Z</time>
      </trkpt>
      <trkpt lat="46.26521" lon="6.85763">
        <ele>1606.98</ele>
        <time>2014-06-27T12:37:32Z</time>
      </trkpt>
      <trkpt lat="46.26508" lon="6.85757">
        <ele>1608.42</ele>
        <time>2014-06-27T12:37:35Z</time>
      </trkpt>
      <trkpt lat="46.26479" lon="6.85733">
        <ele>1605.06</ele>
        <time>2014-06-27T12:37:40Z</time>
      </trkpt>
      <trkpt lat="46.26464" lon="6.85717">
        <ele>1602.66</ele>
        <time>2014-06-27T12:37:44Z</time>
      </trkpt>
      <trkpt lat="46.26458" lon="6.85706">
        <ele>1603.62</ele>
        <time>2014-06-27T12:37:47Z</time>
      </trkpt>
      <trkpt lat="46.26455" lon="6.85693">
        <ele>1604.1</ele>
        <time>2014-06-27T12:37:49Z</time>
      </trkpt>
      <trkpt lat="46.26451" lon="6.85677">
        <ele>1605.54</ele>
        <time>2014-06-27T12:37:51Z</time>
      </trkpt>
      <trkpt lat="46.26441" lon="6.85624">
        <ele>1601.69</ele>
        <time>2014-06-27T12:37:57Z</time>
      </trkpt>
      <trkpt lat="46.26437" lon="6.85589">
        <ele>1596.89</ele>
        <time>2014-06-27T12:38:00Z</time>
      </trkpt>
      <trkpt lat="46.26437" lon="6.85566">
        <ele>1592.56</ele>
        <time>2014-06-27T12:38:02Z</time>
      </trkpt>
      <trkpt lat="46.26437" lon="6.85555">
        <ele>1590.16</ele>
        <time>2014-06-27T12:38:03Z</time>
      </trkpt>
      <trkpt lat="46.26433" lon="6.85528">
        <ele>1584.87</ele>
        <time>2014-06-27T12:38:06Z</time>
      </trkpt>
      <trkpt lat="46.26431" lon="6.85518">
        <ele>1583.43</ele>
        <time>2014-06-27T12:38:07Z</time>
      </trkpt>
      <trkpt lat="46.26431" lon="6.85483">
        <ele>1578.62</ele>
        <time>2014-06-27T12:38:11Z</time>
      </trkpt>
      <trkpt lat="46.26433" lon="6.85476">
        <ele>1577.66</ele>
        <time>2014-06-27T12:38:12Z</time>
      </trkpt>
      <trkpt lat="46.26449" lon="6.85464">
        <ele>1571.89</ele>
        <time>2014-06-27T12:38:17Z</time>
      </trkpt>
      <trkpt lat="46.26453" lon="6.85469">
        <ele>1571.89</ele>
        <time>2014-06-27T12:38:18Z</time>
      </trkpt>
      <trkpt lat="46.26465" lon="6.85478">
        <ele>1568.53</ele>
        <time>2014-06-27T12:38:22Z</time>
      </trkpt>
      <trkpt lat="46.26469" lon="6.85432">
        <ele>1566.12</ele>
        <time>2014-06-27T12:38:29Z</time>
      </trkpt>
      <trkpt lat="46.26479" lon="6.85426">
        <ele>1564.68</ele>
        <time>2014-06-27T12:38:32Z</time>
      </trkpt>
      <trkpt lat="46.26492" lon="6.85438">
        <ele>1563.24</ele>
        <time>2014-06-27T12:38:35Z</time>
      </trkpt>
      <trkpt lat="46.26499" lon="6.85446">
        <ele>1561.8</ele>
        <time>2014-06-27T12:38:37Z</time>
      </trkpt>
      <trkpt lat="46.26514" lon="6.85458">
        <ele>1559.4</ele>
        <time>2014-06-27T12:38:41Z</time>
      </trkpt>
      <trkpt lat="46.26522" lon="6.85461">
        <ele>1558.92</ele>
        <time>2014-06-27T12:38:43Z</time>
      </trkpt>
      <trkpt lat="46.26531" lon="6.85463">
        <ele>1559.4</ele>
        <time>2014-06-27T12:38:45Z</time>
      </trkpt>
      <trkpt lat="46.26554" lon="6.85462">
        <ele>1559.4</ele>
        <time>2014-06-27T12:38:50Z</time>
      </trkpt>
      <trkpt lat="46.26587" lon="6.85432">
        <ele>1558.92</ele>
        <time>2014-06-27T12:38:56Z</time>
      </trkpt>
      <trkpt lat="46.26613" lon="6.85388">
        <ele>1555.55</ele>
        <time>2014-06-27T12:39:01Z</time>
      </trkpt>
      <trkpt lat="46.26624" lon="6.85367">
        <ele>1551.71</ele>
        <time>2014-06-27T12:39:03Z</time>
      </trkpt>
      <trkpt lat="46.26638" lon="6.85345">
        <ele>1546.9</ele>
        <time>2014-06-27T12:39:05Z</time>
      </trkpt>
      <trkpt lat="46.26654" lon="6.85325">
        <ele>1540.65</ele>
        <time>2014-06-27T12:39:07Z</time>
      </trkpt>
      <trkpt lat="46.26661" lon="6.85316">
        <ele>1537.77</ele>
        <time>2014-06-27T12:39:08Z</time>
      </trkpt>
      <trkpt lat="46.26668" lon="6.85307">
        <ele>1534.88</ele>
        <time>2014-06-27T12:39:09Z</time>
      </trkpt>
      <trkpt lat="46.26682" lon="6.85278">
        <ele>1530.56</ele>
        <time>2014-06-27T12:39:12Z</time>
      </trkpt>
      <trkpt lat="46.26682" lon="6.85254">
        <ele>1528.15</ele>
        <time>2014-06-27T12:39:14Z</time>
      </trkpt>
      <trkpt lat="46.26679" lon="6.85229">
        <ele>1527.67</ele>
        <time>2014-06-27T12:39:16Z</time>
      </trkpt>
      <trkpt lat="46.26676" lon="6.85112">
        <ele>1529.59</ele>
        <time>2014-06-27T12:39:25Z</time>
      </trkpt>
      <trkpt lat="46.26682" lon="6.85078">
        <ele>1526.23</ele>
        <time>2014-06-27T12:39:28Z</time>
      </trkpt>
      <trkpt lat="46.26695" lon="6.85063">
        <ele>1522.87</ele>
        <time>2014-06-27T12:39:30Z</time>
      </trkpt>
      <trkpt lat="46.26708" lon="6.8505">
        <ele>1519.5</ele>
        <time>2014-06-27T12:39:32Z</time>
      </trkpt>
      <trkpt lat="46.26716" lon="6.85024">
        <ele>1513.73</ele>
        <time>2014-06-27T12:39:35Z</time>
      </trkpt>
      <trkpt lat="46.26714" lon="6.85014">
        <ele>1512.29</ele>
        <time>2014-06-27T12:39:36Z</time>
      </trkpt>
      <trkpt lat="46.26707" lon="6.84964">
        <ele>1509.41</ele>
        <time>2014-06-27T12:39:40Z</time>
      </trkpt>
      <trkpt lat="46.26702" lon="6.84941">
        <ele>1507.97</ele>
        <time>2014-06-27T12:39:42Z</time>
      </trkpt>
      <trkpt lat="46.26701" lon="6.84906">
        <ele>1506.52</ele>
        <time>2014-06-27T12:39:45Z</time>
      </trkpt>
      <trkpt lat="46.26686" lon="6.84868">
        <ele>1501.72</ele>
        <time>2014-06-27T12:39:50Z</time>
      </trkpt>
      <trkpt lat="46.26657" lon="6.84858">
        <ele>1496.91</ele>
        <time>2014-06-27T12:39:54Z</time>
      </trkpt>
      <trkpt lat="46.26662" lon="6.84839">
        <ele>1492.1</ele>
        <time>2014-06-27T12:39:59Z</time>
      </trkpt>
      <trkpt lat="46.26693" lon="6.84834">
        <ele>1489.7</ele>
        <time>2014-06-27T12:40:03Z</time>
      </trkpt>
      <trkpt lat="46.26717" lon="6.84819">
        <ele>1486.82</ele>
        <time>2014-06-27T12:40:06Z</time>
      </trkpt>
      <trkpt lat="46.26736" lon="6.8482">
        <ele>1481.53</ele>
        <time>2014-06-27T12:40:09Z</time>
      </trkpt>
      <trkpt lat="46.26743" lon="6.84837">
        <ele>1477.68</ele>
        <time>2014-06-27T12:40:11Z</time>
      </trkpt>
      <trkpt lat="46.26744" lon="6.84847">
        <ele>1476.24</ele>
        <time>2014-06-27T12:40:12Z</time>
      </trkpt>
      <trkpt lat="46.26749" lon="6.84881">
        <ele>1471.92</ele>
        <time>2014-06-27T12:40:15Z</time>
      </trkpt>
      <trkpt lat="46.26768" lon="6.84924">
        <ele>1467.59</ele>
        <time>2014-06-27T12:40:19Z</time>
      </trkpt>
      <trkpt lat="46.26788" lon="6.84955">
        <ele>1464.71</ele>
        <time>2014-06-27T12:40:22Z</time>
      </trkpt>
      <trkpt lat="46.26808" lon="6.84983">
        <ele>1459.9</ele>
        <time>2014-06-27T12:40:26Z</time>
      </trkpt>
      <trkpt lat="46.26815" lon="6.84967">
        <ele>1455.57</ele>
        <time>2014-06-27T12:40:29Z</time>
      </trkpt>
      <trkpt lat="46.26814" lon="6.84959">
        <ele>1454.61</ele>
        <time>2014-06-27T12:40:30Z</time>
      </trkpt>
      <trkpt lat="46.26824" lon="6.84891">
        <ele>1453.17</ele>
        <time>2014-06-27T12:40:37Z</time>
      </trkpt>
      <trkpt lat="46.26811" lon="6.8487">
        <ele>1451.73</ele>
        <time>2014-06-27T12:40:40Z</time>
      </trkpt>
      <trkpt lat="46.268" lon="6.84835">
        <ele>1445</ele>
        <time>2014-06-27T12:40:45Z</time>
      </trkpt>
      <trkpt lat="46.26811" lon="6.84834">
        <ele>1441.63</ele>
        <time>2014-06-27T12:40:47Z</time>
      </trkpt>
      <trkpt lat="46.26824" lon="6.84845">
        <ele>1438.75</ele>
        <time>2014-06-27T12:40:49Z</time>
      </trkpt>
      <trkpt lat="46.26852" lon="6.84856">
        <ele>1435.39</ele>
        <time>2014-06-27T12:40:52Z</time>
      </trkpt>
      <trkpt lat="46.2687" lon="6.84859">
        <ele>1433.94</ele>
        <time>2014-06-27T12:40:54Z</time>
      </trkpt>
      <trkpt lat="46.26884" lon="6.84864">
        <ele>1433.46</ele>
        <time>2014-06-27T12:40:57Z</time>
      </trkpt>
      <trkpt lat="46.26887" lon="6.84862">
        <ele>1433.46</ele>
        <time>2014-06-27T12:41:10Z</time>
      </trkpt>
      <trkpt lat="46.26887" lon="6.84862">
        <ele>1434.91</ele>
        <time>2014-06-27T12:41:29Z</time>
      </trkpt>
      <trkpt lat="46.26887" lon="6.84862">
        <ele>1434.91</ele>
        <time>2014-06-27T12:41:46Z</time>
      </trkpt>
      <trkpt lat="46.26881" lon="6.84833">
        <ele>1434.91</ele>
        <time>2014-06-27T12:41:51Z</time>
      </trkpt>
      <trkpt lat="46.26872" lon="6.84809">
        <ele>1429.14</ele>
        <time>2014-06-27T12:41:55Z</time>
      </trkpt>
      <trkpt lat="46.2687" lon="6.84802">
        <ele>1424.81</ele>
        <time>2014-06-27T12:41:57Z</time>
      </trkpt>
      <trkpt lat="46.26869" lon="6.84797">
        <ele>1420.49</ele>
        <time>2014-06-27T12:41:59Z</time>
      </trkpt>
      <trkpt lat="46.26868" lon="6.84796">
        <ele>1417.12</ele>
        <time>2014-06-27T12:42:02Z</time>
      </trkpt>
      <trkpt lat="46.26868" lon="6.84796">
        <ele>1417.12</ele>
        <time>2014-06-27T12:42:04Z</time>
      </trkpt>
      <trkpt lat="46.26868" lon="6.8479">
        <ele>1420</ele>
        <time>2014-06-27T12:42:08Z</time>
      </trkpt>
      <trkpt lat="46.26868" lon="6.84788">
        <ele>1420.97</ele>
        <time>2014-06-27T12:42:09Z</time>
      </trkpt>
      <trkpt lat="46.26871" lon="6.84765">
        <ele>1418.56</ele>
        <time>2014-06-27T12:42:18Z</time>
      </trkpt>
      <trkpt lat="46.26874" lon="6.84759">
        <ele>1415.2</ele>
        <time>2014-06-27T12:42:21Z</time>
      </trkpt>
      <trkpt lat="46.26875" lon="6.84757">
        <ele>1413.76</ele>
        <time>2014-06-27T12:42:22Z</time>
      </trkpt>
      <trkpt lat="46.2688" lon="6.84749">
        <ele>1412.31</ele>
        <time>2014-06-27T12:42:31Z</time>
      </trkpt>
      <trkpt lat="46.2689" lon="6.84734">
        <ele>1411.83</ele>
        <time>2014-06-27T12:42:43Z</time>
      </trkpt>
      <trkpt lat="46.26896" lon="6.84718">
        <ele>1408.47</ele>
        <time>2014-06-27T12:42:52Z</time>
      </trkpt>
      <trkpt lat="46.26897" lon="6.8471">
        <ele>1405.1</ele>
        <time>2014-06-27T12:42:56Z</time>
      </trkpt>
      <trkpt lat="46.26888" lon="6.84686">
        <ele>1403.18</ele>
        <time>2014-06-27T12:43:10Z</time>
      </trkpt>
      <trkpt lat="46.26886" lon="6.84684">
        <ele>1402.7</ele>
        <time>2014-06-27T12:43:16Z</time>
      </trkpt>
      <trkpt lat="46.26881" lon="6.84682">
        <ele>1402.22</ele>
        <time>2014-06-27T12:43:20Z</time>
      </trkpt>
      <trkpt lat="46.26864" lon="6.84671">
        <ele>1398.86</ele>
        <time>2014-06-27T12:43:34Z</time>
      </trkpt>
      <trkpt lat="46.26863" lon="6.8467">
        <ele>1398.37</ele>
        <time>2014-06-27T12:43:37Z</time>
      </trkpt>
      <trkpt lat="46.26856" lon="6.84666">
        <ele>1397.41</ele>
        <time>2014-06-27T12:43:44Z</time>
      </trkpt>
      <trkpt lat="46.26841" lon="6.84658">
        <ele>1393.57</ele>
        <time>2014-06-27T12:43:53Z</time>
      </trkpt>
      <trkpt lat="46.26835" lon="6.84656">
        <ele>1389.72</ele>
        <time>2014-06-27T12:43:57Z</time>
      </trkpt>
      <trkpt lat="46.26829" lon="6.84654">
        <ele>1387.32</ele>
        <time>2014-06-27T12:44:00Z</time>
      </trkpt>
      <trkpt lat="46.26812" lon="6.84651">
        <ele>1386.84</ele>
        <time>2014-06-27T12:44:12Z</time>
      </trkpt>
      <trkpt lat="46.26799" lon="6.84652">
        <ele>1386.36</ele>
        <time>2014-06-27T12:44:19Z</time>
      </trkpt>
      <trkpt lat="46.26776" lon="6.84643">
        <ele>1385.88</ele>
        <time>2014-06-27T12:44:34Z</time>
      </trkpt>
      <trkpt lat="46.26755" lon="6.84646">
        <ele>1385.4</ele>
        <time>2014-06-27T12:44:45Z</time>
      </trkpt>
      <trkpt lat="46.26725" lon="6.84642">
        <ele>1383.96</ele>
        <time>2014-06-27T12:45:00Z</time>
      </trkpt>
      <trkpt lat="46.26723" lon="6.84641">
        <ele>1383.96</ele>
        <time>2014-06-27T12:45:02Z</time>
      </trkpt>
      <trkpt lat="46.26712" lon="6.84639">
        <ele>1383.96</ele>
        <time>2014-06-27T12:45:10Z</time>
      </trkpt>
      <trkpt lat="46.26701" lon="6.8464">
        <ele>1383.47</ele>
        <time>2014-06-27T12:45:16Z</time>
      </trkpt>
      <trkpt lat="46.26672" lon="6.84641">
        <ele>1383.47</ele>
        <time>2014-06-27T12:45:33Z</time>
      </trkpt>
      <trkpt lat="46.26666" lon="6.84642">
        <ele>1383.47</ele>
        <time>2014-06-27T12:45:46Z</time>
      </trkpt>
      <trkpt lat="46.26666" lon="6.84642">
        <ele>1383.47</ele>
        <time>2014-06-27T12:45:59Z</time>
      </trkpt>
      <trkpt lat="46.26666" lon="6.84642">
        <ele>1383.47</ele>
        <time>2014-06-27T12:46:17Z</time>
      </trkpt>
      <trkpt lat="46.26664" lon="6.84642">
        <ele>1383.47</ele>
        <time>2014-06-27T12:46:32Z</time>
      </trkpt>
      <trkpt lat="46.26664" lon="6.84642">
        <ele>1383.47</ele>
        <time>2014-06-27T12:46:45Z</time>
      </trkpt>
      <trkpt lat="46.26664" lon="6.84642">
        <ele>1383.47</ele>
        <time>2014-06-27T12:47:14Z</time>
      </trkpt>
      <trkpt lat="46.26664" lon="6.84642">
        <ele>1383.47</ele>
        <time>2014-06-27T12:47:44Z</time>
      </trkpt>
      <trkpt lat="46.26665" lon="6.84641">
        <ele>1383.47</ele>
        <time>2014-06-27T12:48:11Z</time>
      </trkpt>
      <trkpt lat="46.26665" lon="6.84641">
        <ele>1383.47</ele>
        <time>2014-06-27T12:48:38Z</time>
      </trkpt>
      <trkpt lat="46.26665" lon="6.84641">
        <ele>1383.47</ele>
        <time>2014-06-27T12:49:06Z</time>
      </trkpt>
      <trkpt lat="46.26666" lon="6.84641">
        <ele>1383.47</ele>
        <time>2014-06-27T12:49:39Z</time>
      </trkpt>
      <trkpt lat="46.26665" lon="6.84641">
        <ele>1383.47</ele>
        <time>2014-06-27T12:50:14Z</time>
      </trkpt>
      <trkpt lat="46.26666" lon="6.84641">
        <ele>1383.47</ele>
        <time>2014-06-27T12:50:40Z</time>
      </trkpt>
      <trkpt lat="46.26665" lon="6.8464">
        <ele>1383.47</ele>
        <time>2014-06-27T12:51:09Z</time>
      </trkpt>
      <trkpt lat="46.26665" lon="6.8464">
        <ele>1383.47</ele>
        <time>2014-06-27T12:51:38Z</time>
      </trkpt>
      <trkpt lat="46.26665" lon="6.8464">
        <ele>1383.47</ele>
        <time>2014-06-27T12:52:11Z</time>
      </trkpt>
      <trkpt lat="46.26665" lon="6.84639">
        <ele>1383.47</ele>
        <time>2014-06-27T12:52:36Z</time>
      </trkpt>
      <trkpt lat="46.26665" lon="6.84638">
        <ele>1383.47</ele>
        <time>2014-06-27T12:53:11Z</time>
      </trkpt>
      <trkpt lat="46.26665" lon="6.84638">
        <ele>1383.47</ele>
        <time>2014-06-27T12:53:48Z</time>
      </trkpt>
      <trkpt lat="46.26665" lon="6.84638">
        <ele>1383.47</ele>
        <time>2014-06-27T12:54:06Z</time>
      </trkpt>
      <trkpt lat="46.26665" lon="6.84637">
        <ele>1383.47</ele>
        <time>2014-06-27T12:54:29Z</time>
      </trkpt>
      <trkpt lat="46.26665" lon="6.84637">
        <ele>1383.47</ele>
        <time>2014-06-27T12:54:52Z</time>
      </trkpt>
      <trkpt lat="46.26663" lon="6.84637">
        <ele>1383.47</ele>
        <time>2014-06-27T12:55:06Z</time>
      </trkpt>
      <trkpt lat="46.26637" lon="6.84641">
        <ele>1383.47</ele>
        <time>2014-06-27T12:55:16Z</time>
      </trkpt>
      <trkpt lat="46.26568" lon="6.84638">
        <ele>1382.99</ele>
        <time>2014-06-27T12:55:28Z</time>
      </trkpt>
      <trkpt lat="46.26543" lon="6.84634">
        <ele>1382.51</ele>
        <time>2014-06-27T12:55:33Z</time>
      </trkpt>
      <trkpt lat="46.26516" lon="6.84627">
        <ele>1382.51</ele>
        <time>2014-06-27T12:55:38Z</time>
      </trkpt>
      <trkpt lat="46.26452" lon="6.84615">
        <ele>1382.03</ele>
        <time>2014-06-27T12:55:51Z</time>
      </trkpt>
      <trkpt lat="46.26388" lon="6.84606">
        <ele>1382.03</ele>
        <time>2014-06-27T12:56:01Z</time>
      </trkpt>
      <trkpt lat="46.26375" lon="6.84604">
        <ele>1382.03</ele>
        <time>2014-06-27T12:56:03Z</time>
      </trkpt>
      <trkpt lat="46.26345" lon="6.84601">
        <ele>1382.03</ele>
        <time>2014-06-27T12:56:09Z</time>
      </trkpt>
      <trkpt lat="46.26299" lon="6.84595">
        <ele>1384.44</ele>
        <time>2014-06-27T12:56:22Z</time>
      </trkpt>
      <trkpt lat="46.26254" lon="6.84582">
        <ele>1386.84</ele>
        <time>2014-06-27T12:56:35Z</time>
      </trkpt>
      <trkpt lat="46.26221" lon="6.84561">
        <ele>1386.84</ele>
        <time>2014-06-27T12:56:43Z</time>
      </trkpt>
      <trkpt lat="46.26206" lon="6.84554">
        <ele>1386.84</ele>
        <time>2014-06-27T12:56:46Z</time>
      </trkpt>
      <trkpt lat="46.26178" lon="6.84545">
        <ele>1386.84</ele>
        <time>2014-06-27T12:56:52Z</time>
      </trkpt>
      <trkpt lat="46.26163" lon="6.84537">
        <ele>1386.84</ele>
        <time>2014-06-27T12:56:55Z</time>
      </trkpt>
      <trkpt lat="46.26136" lon="6.8452">
        <ele>1386.84</ele>
        <time>2014-06-27T12:57:00Z</time>
      </trkpt>
      <trkpt lat="46.26099" lon="6.84502">
        <ele>1383.47</ele>
        <time>2014-06-27T12:57:05Z</time>
      </trkpt>
      <trkpt lat="46.26075" lon="6.84487">
        <ele>1378.19</ele>
        <time>2014-06-27T12:57:08Z</time>
      </trkpt>
      <trkpt lat="46.26062" lon="6.84476">
        <ele>1373.86</ele>
        <time>2014-06-27T12:57:10Z</time>
      </trkpt>
      <trkpt lat="46.26042" lon="6.84459">
        <ele>1369.54</ele>
        <time>2014-06-27T12:57:13Z</time>
      </trkpt>
      <trkpt lat="46.2603" lon="6.84449">
        <ele>1366.17</ele>
        <time>2014-06-27T12:57:15Z</time>
      </trkpt>
      <trkpt lat="46.26012" lon="6.84435">
        <ele>1362.33</ele>
        <time>2014-06-27T12:57:18Z</time>
      </trkpt>
      <trkpt lat="46.26006" lon="6.84431">
        <ele>1361.36</ele>
        <time>2014-06-27T12:57:19Z</time>
      </trkpt>
      <trkpt lat="46.25976" lon="6.84421">
        <ele>1356.56</ele>
        <time>2014-06-27T12:57:25Z</time>
      </trkpt>
      <trkpt lat="46.25956" lon="6.84412">
        <ele>1353.19</ele>
        <time>2014-06-27T12:57:29Z</time>
      </trkpt>
      <trkpt lat="46.25941" lon="6.84407">
        <ele>1349.83</ele>
        <time>2014-06-27T12:57:32Z</time>
      </trkpt>
      <trkpt lat="46.25922" lon="6.84409">
        <ele>1344.06</ele>
        <time>2014-06-27T12:57:36Z</time>
      </trkpt>
      <trkpt lat="46.259" lon="6.84412">
        <ele>1340.22</ele>
        <time>2014-06-27T12:57:40Z</time>
      </trkpt>
      <trkpt lat="46.25893" lon="6.84412">
        <ele>1339.25</ele>
        <time>2014-06-27T12:57:41Z</time>
      </trkpt>
      <trkpt lat="46.25826" lon="6.8442">
        <ele>1334.93</ele>
        <time>2014-06-27T12:57:49Z</time>
      </trkpt>
      <trkpt lat="46.25741" lon="6.84442">
        <ele>1330.6</ele>
        <time>2014-06-27T12:57:59Z</time>
      </trkpt>
      <trkpt lat="46.25726" lon="6.84449">
        <ele>1327.72</ele>
        <time>2014-06-27T12:58:01Z</time>
      </trkpt>
      <trkpt lat="46.25719" lon="6.84453">
        <ele>1325.8</ele>
        <time>2014-06-27T12:58:02Z</time>
      </trkpt>
      <trkpt lat="46.25709" lon="6.84461">
        <ele>1323.87</ele>
        <time>2014-06-27T12:58:04Z</time>
      </trkpt>
      <trkpt lat="46.25697" lon="6.8447">
        <ele>1319.55</ele>
        <time>2014-06-27T12:58:08Z</time>
      </trkpt>
      <trkpt lat="46.25695" lon="6.84473">
        <ele>1322.43</ele>
        <time>2014-06-27T12:58:17Z</time>
      </trkpt>
      <trkpt lat="46.25695" lon="6.84474">
        <ele>1322.43</ele>
        <time>2014-06-27T12:58:37Z</time>
      </trkpt>
      <trkpt lat="46.25695" lon="6.84474">
        <ele>1322.43</ele>
        <time>2014-06-27T12:58:54Z</time>
      </trkpt>
      <trkpt lat="46.25695" lon="6.84474">
        <ele>1322.43</ele>
        <time>2014-06-27T12:59:15Z</time>
      </trkpt>
      <trkpt lat="46.25695" lon="6.84474">
        <ele>1322.43</ele>
        <time>2014-06-27T12:59:42Z</time>
      </trkpt>
      <trkpt lat="46.25695" lon="6.84474">
        <ele>1322.43</ele>
        <time>2014-06-27T13:00:05Z</time>
      </trkpt>
      <trkpt lat="46.25687" lon="6.84488">
        <ele>1322.43</ele>
        <time>2014-06-27T13:00:11Z</time>
      </trkpt>
      <trkpt lat="46.25644" lon="6.84503">
        <ele>1323.87</ele>
        <time>2014-06-27T13:00:25Z</time>
      </trkpt>
      <trkpt lat="46.25602" lon="6.84516">
        <ele>1326.76</ele>
        <time>2014-06-27T13:00:38Z</time>
      </trkpt>
      <trkpt lat="46.25584" lon="6.84524">
        <ele>1330.6</ele>
        <time>2014-06-27T13:00:45Z</time>
      </trkpt>
      <trkpt lat="46.25568" lon="6.84529">
        <ele>1333.49</ele>
        <time>2014-06-27T13:00:51Z</time>
      </trkpt>
      <trkpt lat="46.25536" lon="6.84534">
        <ele>1333.49</ele>
        <time>2014-06-27T13:01:04Z</time>
      </trkpt>
      <trkpt lat="46.25509" lon="6.84539">
        <ele>1335.41</ele>
        <time>2014-06-27T13:01:15Z</time>
      </trkpt>
      <trkpt lat="46.25482" lon="6.84557">
        <ele>1337.81</ele>
        <time>2014-06-27T13:01:27Z</time>
      </trkpt>
      <trkpt lat="46.25443" lon="6.84564">
        <ele>1340.7</ele>
        <time>2014-06-27T13:01:43Z</time>
      </trkpt>
      <trkpt lat="46.25416" lon="6.84562">
        <ele>1343.58</ele>
        <time>2014-06-27T13:01:55Z</time>
      </trkpt>
      <trkpt lat="46.25382" lon="6.84575">
        <ele>1345.98</ele>
        <time>2014-06-27T13:02:09Z</time>
      </trkpt>
      <trkpt lat="46.25338" lon="6.84598">
        <ele>1349.35</ele>
        <time>2014-06-27T13:02:26Z</time>
      </trkpt>
      <trkpt lat="46.25299" lon="6.84613">
        <ele>1350.31</ele>
        <time>2014-06-27T13:02:40Z</time>
      </trkpt>
      <trkpt lat="46.25248" lon="6.84603">
        <ele>1353.19</ele>
        <time>2014-06-27T13:02:58Z</time>
      </trkpt>
      <trkpt lat="46.25209" lon="6.84594">
        <ele>1357.04</ele>
        <time>2014-06-27T13:03:14Z</time>
      </trkpt>
      <trkpt lat="46.25171" lon="6.84589">
        <ele>1359.92</ele>
        <time>2014-06-27T13:03:30Z</time>
      </trkpt>
      <trkpt lat="46.25143" lon="6.84574">
        <ele>1362.81</ele>
        <time>2014-06-27T13:03:42Z</time>
      </trkpt>
      <trkpt lat="46.25102" lon="6.84567">
        <ele>1366.17</ele>
        <time>2014-06-27T13:03:59Z</time>
      </trkpt>
      <trkpt lat="46.25066" lon="6.84559">
        <ele>1369.05</ele>
        <time>2014-06-27T13:04:14Z</time>
      </trkpt>
      <trkpt lat="46.25025" lon="6.8456">
        <ele>1372.42</ele>
        <time>2014-06-27T13:04:31Z</time>
      </trkpt>
      <trkpt lat="46.2499" lon="6.84569">
        <ele>1375.3</ele>
        <time>2014-06-27T13:04:46Z</time>
      </trkpt>
      <trkpt lat="46.24957" lon="6.84589">
        <ele>1378.19</ele>
        <time>2014-06-27T13:05:02Z</time>
      </trkpt>
      <trkpt lat="46.24952" lon="6.84592">
        <ele>1378.67</ele>
        <time>2014-06-27T13:05:14Z</time>
      </trkpt>
      <trkpt lat="46.24952" lon="6.84592">
        <ele>1379.15</ele>
        <time>2014-06-27T13:05:43Z</time>
      </trkpt>
      <trkpt lat="46.24935" lon="6.84599">
        <ele>1379.15</ele>
        <time>2014-06-27T13:05:59Z</time>
      </trkpt>
      <trkpt lat="46.24914" lon="6.84606">
        <ele>1379.15</ele>
        <time>2014-06-27T13:06:04Z</time>
      </trkpt>
      <trkpt lat="46.24896" lon="6.84611">
        <ele>1379.15</ele>
        <time>2014-06-27T13:06:08Z</time>
      </trkpt>
      <trkpt lat="46.24868" lon="6.84619">
        <ele>1379.15</ele>
        <time>2014-06-27T13:06:14Z</time>
      </trkpt>
      <trkpt lat="46.24843" lon="6.84627">
        <ele>1379.63</ele>
        <time>2014-06-27T13:06:20Z</time>
      </trkpt>
      <trkpt lat="46.24785" lon="6.84644">
        <ele>1381.07</ele>
        <time>2014-06-27T13:06:35Z</time>
      </trkpt>
      <trkpt lat="46.24723" lon="6.84652">
        <ele>1382.03</ele>
        <time>2014-06-27T13:06:50Z</time>
      </trkpt>
      <trkpt lat="46.24684" lon="6.84665">
        <ele>1382.99</ele>
        <time>2014-06-27T13:07:02Z</time>
      </trkpt>
      <trkpt lat="46.24642" lon="6.84674">
        <ele>1384.44</ele>
        <time>2014-06-27T13:07:15Z</time>
      </trkpt>
      <trkpt lat="46.24624" lon="6.84682">
        <ele>1384.44</ele>
        <time>2014-06-27T13:07:20Z</time>
      </trkpt>
      <trkpt lat="46.24574" lon="6.84718">
        <ele>1385.88</ele>
        <time>2014-06-27T13:07:33Z</time>
      </trkpt>
      <trkpt lat="46.24506" lon="6.84735">
        <ele>1387.32</ele>
        <time>2014-06-27T13:07:50Z</time>
      </trkpt>
      <trkpt lat="46.24503" lon="6.84735">
        <ele>1387.8</ele>
        <time>2014-06-27T13:07:58Z</time>
      </trkpt>
      <trkpt lat="46.24492" lon="6.84743">
        <ele>1388.28</ele>
        <time>2014-06-27T13:08:11Z</time>
      </trkpt>
      <trkpt lat="46.24492" lon="6.84743">
        <ele>1388.28</ele>
        <time>2014-06-27T13:08:27Z</time>
      </trkpt>
      <trkpt lat="46.24492" lon="6.84743">
        <ele>1388.28</ele>
        <time>2014-06-27T13:08:52Z</time>
      </trkpt>
      <trkpt lat="46.24492" lon="6.84743">
        <ele>1388.28</ele>
        <time>2014-06-27T13:09:26Z</time>
      </trkpt>
      <trkpt lat="46.24492" lon="6.84743">
        <ele>1388.28</ele>
        <time>2014-06-27T13:09:59Z</time>
      </trkpt>
      <trkpt lat="46.24492" lon="6.84743">
        <ele>1388.28</ele>
        <time>2014-06-27T13:10:34Z</time>
      </trkpt>
      <trkpt lat="46.24492" lon="6.84743">
        <ele>1388.28</ele>
        <time>2014-06-27T13:11:04Z</time>
      </trkpt>
      <trkpt lat="46.24491" lon="6.84743">
        <ele>1388.28</ele>
        <time>2014-06-27T13:11:35Z</time>
      </trkpt>
      <trkpt lat="46.24491" lon="6.84743">
        <ele>1388.28</ele>
        <time>2014-06-27T13:12:14Z</time>
      </trkpt>
      <trkpt lat="46.24491" lon="6.84743">
        <ele>1388.28</ele>
        <time>2014-06-27T13:12:57Z</time>
      </trkpt>
      <trkpt lat="46.24491" lon="6.84743">
        <ele>1388.28</ele>
        <time>2014-06-27T13:13:32Z</time>
      </trkpt>
      <trkpt lat="46.24491" lon="6.84743">
        <ele>1388.28</ele>
        <time>2014-06-27T13:14:04Z</time>
      </trkpt>
      <trkpt lat="46.24491" lon="6.84743">
        <ele>1388.28</ele>
        <time>2014-06-27T13:14:36Z</time>
      </trkpt>
      <trkpt lat="46.24491" lon="6.84743">
        <ele>1388.28</ele>
        <time>2014-06-27T13:15:10Z</time>
      </trkpt>
      <trkpt lat="46.24491" lon="6.84743">
        <ele>1388.28</ele>
        <time>2014-06-27T13:15:41Z</time>
      </trkpt>
      <trkpt lat="46.24491" lon="6.84744">
        <ele>1388.28</ele>
        <time>2014-06-27T13:16:18Z</time>
      </trkpt>
      <trkpt lat="46.24491" lon="6.84744">
        <ele>1388.28</ele>
        <time>2014-06-27T13:16:54Z</time>
      </trkpt>
      <trkpt lat="46.24491" lon="6.84743">
        <ele>1388.28</ele>
        <time>2014-06-27T13:17:31Z</time>
      </trkpt>
      <trkpt lat="46.24491" lon="6.84743">
        <ele>1388.28</ele>
        <time>2014-06-27T13:18:04Z</time>
      </trkpt>
      <trkpt lat="46.24491" lon="6.84743">
        <ele>1388.28</ele>
        <time>2014-06-27T13:18:38Z</time>
      </trkpt>
      <trkpt lat="46.24491" lon="6.84743">
        <ele>1388.28</ele>
        <time>2014-06-27T13:19:06Z</time>
      </trkpt>
      <trkpt lat="46.24491" lon="6.84743">
        <ele>1388.28</ele>
        <time>2014-06-27T13:19:33Z</time>
      </trkpt>
      <trkpt lat="46.24491" lon="6.84743">
        <ele>1388.76</ele>
        <time>2014-06-27T13:20:04Z</time>
      </trkpt>
      <trkpt lat="46.24491" lon="6.84746">
        <ele>1388.76</ele>
        <time>2014-06-27T13:20:27Z</time>
      </trkpt>
      <trkpt lat="46.24491" lon="6.84746">
        <ele>1388.76</ele>
        <time>2014-06-27T13:20:49Z</time>
      </trkpt>
      <trkpt lat="46.24492" lon="6.84746">
        <ele>1388.76</ele>
        <time>2014-06-27T13:21:00Z</time>
      </trkpt>
      <trkpt lat="46.24487" lon="6.84745">
        <ele>1388.76</ele>
        <time>2014-06-27T13:21:03Z</time>
      </trkpt>
      <trkpt lat="46.24455" lon="6.84772">
        <ele>1388.76</ele>
        <time>2014-06-27T13:21:15Z</time>
      </trkpt>
      <trkpt lat="46.24435" lon="6.84798">
        <ele>1389.24</ele>
        <time>2014-06-27T13:21:21Z</time>
      </trkpt>
      <trkpt lat="46.24424" lon="6.84857">
        <ele>1389.24</ele>
        <time>2014-06-27T13:21:30Z</time>
      </trkpt>
      <trkpt lat="46.24424" lon="6.84894">
        <ele>1389.72</ele>
        <time>2014-06-27T13:21:35Z</time>
      </trkpt>
      <trkpt lat="46.2441" lon="6.84923">
        <ele>1389.72</ele>
        <time>2014-06-27T13:21:40Z</time>
      </trkpt>
      <trkpt lat="46.24363" lon="6.84975">
        <ele>1389.72</ele>
        <time>2014-06-27T13:21:50Z</time>
      </trkpt>
      <trkpt lat="46.24336" lon="6.8502">
        <ele>1389.72</ele>
        <time>2014-06-27T13:21:57Z</time>
      </trkpt>
      <trkpt lat="46.24315" lon="6.85038">
        <ele>1389.72</ele>
        <time>2014-06-27T13:22:01Z</time>
      </trkpt>
      <trkpt lat="46.2426" lon="6.85068">
        <ele>1388.28</ele>
        <time>2014-06-27T13:22:09Z</time>
      </trkpt>
      <trkpt lat="46.24237" lon="6.85077">
        <ele>1384.44</ele>
        <time>2014-06-27T13:22:12Z</time>
      </trkpt>
      <trkpt lat="46.24221" lon="6.85082">
        <ele>1382.03</ele>
        <time>2014-06-27T13:22:14Z</time>
      </trkpt>
      <trkpt lat="46.24194" lon="6.85082">
        <ele>1376.26</ele>
        <time>2014-06-27T13:22:18Z</time>
      </trkpt>
      <trkpt lat="46.24111" lon="6.85083">
        <ele>1379.63</ele>
        <time>2014-06-27T13:22:30Z</time>
      </trkpt>
      <trkpt lat="46.24072" lon="6.85093">
        <ele>1375.78</ele>
        <time>2014-06-27T13:22:35Z</time>
      </trkpt>
      <trkpt lat="46.24048" lon="6.85103">
        <ele>1372.9</ele>
        <time>2014-06-27T13:22:38Z</time>
      </trkpt>
      <trkpt lat="46.2403" lon="6.8511">
        <ele>1371.94</ele>
        <time>2014-06-27T13:22:40Z</time>
      </trkpt>
      <trkpt lat="46.24021" lon="6.85112">
        <ele>1371.46</ele>
        <time>2014-06-27T13:22:41Z</time>
      </trkpt>
      <trkpt lat="46.23946" lon="6.85093">
        <ele>1368.57</ele>
        <time>2014-06-27T13:22:49Z</time>
      </trkpt>
      <trkpt lat="46.23893" lon="6.85092">
        <ele>1365.21</ele>
        <time>2014-06-27T13:22:54Z</time>
      </trkpt>
      <trkpt lat="46.23873" lon="6.85103">
        <ele>1363.29</ele>
        <time>2014-06-27T13:22:56Z</time>
      </trkpt>
      <trkpt lat="46.23834" lon="6.85132">
        <ele>1358.96</ele>
        <time>2014-06-27T13:23:00Z</time>
      </trkpt>
      <trkpt lat="46.23784" lon="6.85157">
        <ele>1355.6</ele>
        <time>2014-06-27T13:23:05Z</time>
      </trkpt>
      <trkpt lat="46.23765" lon="6.85166">
        <ele>1355.6</ele>
        <time>2014-06-27T13:23:07Z</time>
      </trkpt>
      <trkpt lat="46.23726" lon="6.85213">
        <ele>1355.6</ele>
        <time>2014-06-27T13:23:12Z</time>
      </trkpt>
      <trkpt lat="46.23714" lon="6.85239">
        <ele>1355.12</ele>
        <time>2014-06-27T13:23:14Z</time>
      </trkpt>
      <trkpt lat="46.23682" lon="6.85275">
        <ele>1353.19</ele>
        <time>2014-06-27T13:23:18Z</time>
      </trkpt>
      <trkpt lat="46.23654" lon="6.85293">
        <ele>1349.83</ele>
        <time>2014-06-27T13:23:21Z</time>
      </trkpt>
      <trkpt lat="46.23633" lon="6.85319">
        <ele>1345.02</ele>
        <time>2014-06-27T13:23:24Z</time>
      </trkpt>
      <trkpt lat="46.23632" lon="6.85353">
        <ele>1341.66</ele>
        <time>2014-06-27T13:23:27Z</time>
      </trkpt>
      <trkpt lat="46.23644" lon="6.85374">
        <ele>1339.73</ele>
        <time>2014-06-27T13:23:30Z</time>
      </trkpt>
      <trkpt lat="46.23653" lon="6.85387">
        <ele>1339.73</ele>
        <time>2014-06-27T13:23:37Z</time>
      </trkpt>
      <trkpt lat="46.23654" lon="6.85388">
        <ele>1339.73</ele>
        <time>2014-06-27T13:23:52Z</time>
      </trkpt>
      <trkpt lat="46.23663" lon="6.85406">
        <ele>1339.73</ele>
        <time>2014-06-27T13:24:07Z</time>
      </trkpt>
      <trkpt lat="46.23674" lon="6.85411">
        <ele>1339.73</ele>
        <time>2014-06-27T13:24:19Z</time>
      </trkpt>
      <trkpt lat="46.2368" lon="6.85412">
        <ele>1338.77</ele>
        <time>2014-06-27T13:24:32Z</time>
      </trkpt>
      <trkpt lat="46.2368" lon="6.85411">
        <ele>1338.77</ele>
        <time>2014-06-27T13:24:33Z</time>
      </trkpt>
      <trkpt lat="46.23681" lon="6.8538">
        <ele>1338.77</ele>
        <time>2014-06-27T13:24:49Z</time>
      </trkpt>
      <trkpt lat="46.23678" lon="6.85365">
        <ele>1338.77</ele>
        <time>2014-06-27T13:24:57Z</time>
      </trkpt>
      <trkpt lat="46.23677" lon="6.85356">
        <ele>1338.77</ele>
        <time>2014-06-27T13:25:01Z</time>
      </trkpt>
      <trkpt lat="46.23674" lon="6.85347">
        <ele>1340.22</ele>
        <time>2014-06-27T13:25:06Z</time>
      </trkpt>
      <trkpt lat="46.23672" lon="6.85347">
        <ele>1339.73</ele>
        <time>2014-06-27T13:25:09Z</time>
      </trkpt>
      <trkpt lat="46.23671" lon="6.85342">
        <ele>1341.18</ele>
        <time>2014-06-27T13:25:25Z</time>
      </trkpt>
      <trkpt lat="46.23672" lon="6.85343">
        <ele>1341.66</ele>
        <time>2014-06-27T13:25:53Z</time>
      </trkpt>
      <trkpt lat="46.23672" lon="6.85343">
        <ele>1341.66</ele>
        <time>2014-06-27T13:26:23Z</time>
      </trkpt>
      <trkpt lat="46.23673" lon="6.85343">
        <ele>1341.66</ele>
        <time>2014-06-27T13:26:56Z</time>
      </trkpt>
      <trkpt lat="46.23674" lon="6.85343">
        <ele>1341.66</ele>
        <time>2014-06-27T13:27:25Z</time>
      </trkpt>
      <trkpt lat="46.23674" lon="6.85343">
        <ele>1341.66</ele>
        <time>2014-06-27T13:27:41Z</time>
      </trkpt>
      <trkpt lat="46.23674" lon="6.85342">
        <ele>1341.66</ele>
        <time>2014-06-27T13:27:59Z</time>
      </trkpt>
      <trkpt lat="46.23674" lon="6.85342">
        <ele>1341.66</ele>
        <time>2014-06-27T13:28:29Z</time>
      </trkpt>
      <trkpt lat="46.23675" lon="6.85342">
        <ele>1341.66</ele>
        <time>2014-06-27T13:28:53Z</time>
      </trkpt>
      <trkpt lat="46.23676" lon="6.85342">
        <ele>1341.66</ele>
        <time>2014-06-27T13:29:27Z</time>
      </trkpt>
      <trkpt lat="46.23677" lon="6.85343">
        <ele>1341.66</ele>
        <time>2014-06-27T13:30:08Z</time>
      </trkpt>
      <trkpt lat="46.23677" lon="6.85343">
        <ele>1341.66</ele>
        <time>2014-06-27T13:30:40Z</time>
      </trkpt>
      <trkpt lat="46.23677" lon="6.85343">
        <ele>1341.66</ele>
        <time>2014-06-27T13:31:11Z</time>
      </trkpt>
      <trkpt lat="46.23678" lon="6.85343">
        <ele>1341.66</ele>
        <time>2014-06-27T13:31:47Z</time>
      </trkpt>
      <trkpt lat="46.23678" lon="6.85343">
        <ele>1341.66</ele>
        <time>2014-06-27T13:32:19Z</time>
      </trkpt>
      <trkpt lat="46.23678" lon="6.85343">
        <ele>1341.66</ele>
        <time>2014-06-27T13:32:43Z</time>
      </trkpt>
      <trkpt lat="46.23678" lon="6.85343">
        <ele>1341.66</ele>
        <time>2014-06-27T13:33:10Z</time>
      </trkpt>
      <trkpt lat="46.23678" lon="6.85343">
        <ele>1341.66</ele>
        <time>2014-06-27T13:33:39Z</time>
      </trkpt>
      <trkpt lat="46.23679" lon="6.85343">
        <ele>1340.7</ele>
        <time>2014-06-27T13:34:09Z</time>
      </trkpt>
      <trkpt lat="46.23679" lon="6.85344">
        <ele>1340.7</ele>
        <time>2014-06-27T13:34:34Z</time>
      </trkpt>
      <trkpt lat="46.23679" lon="6.85344">
        <ele>1340.7</ele>
        <time>2014-06-27T13:35:03Z</time>
      </trkpt>
      <trkpt lat="46.23678" lon="6.85344">
        <ele>1340.7</ele>
        <time>2014-06-27T13:35:36Z</time>
      </trkpt>
      <trkpt lat="46.23678" lon="6.85344">
        <ele>1340.7</ele>
        <time>2014-06-27T13:36:00Z</time>
      </trkpt>
      <trkpt lat="46.23678" lon="6.85344">
        <ele>1340.7</ele>
        <time>2014-06-27T13:36:30Z</time>
      </trkpt>
      <trkpt lat="46.23678" lon="6.85345">
        <ele>1340.7</ele>
        <time>2014-06-27T13:36:58Z</time>
      </trkpt>
      <trkpt lat="46.23677" lon="6.85344">
        <ele>1340.7</ele>
        <time>2014-06-27T13:37:23Z</time>
      </trkpt>
      <trkpt lat="46.23676" lon="6.85344">
        <ele>1340.7</ele>
        <time>2014-06-27T13:37:57Z</time>
      </trkpt>
      <trkpt lat="46.23676" lon="6.85344">
        <ele>1340.7</ele>
        <time>2014-06-27T13:38:23Z</time>
      </trkpt>
      <trkpt lat="46.23676" lon="6.85345">
        <ele>1340.7</ele>
        <time>2014-06-27T13:38:48Z</time>
      </trkpt>
      <trkpt lat="46.23675" lon="6.85345">
        <ele>1340.7</ele>
        <time>2014-06-27T13:39:28Z</time>
      </trkpt>
      <trkpt lat="46.23675" lon="6.85345">
        <ele>1340.7</ele>
        <time>2014-06-27T13:39:52Z</time>
      </trkpt>
      <trkpt lat="46.23675" lon="6.85345">
        <ele>1340.7</ele>
        <time>2014-06-27T13:40:24Z</time>
      </trkpt>
      <trkpt lat="46.23675" lon="6.85346">
        <ele>1340.7</ele>
        <time>2014-06-27T13:40:56Z</time>
      </trkpt>
      <trkpt lat="46.23676" lon="6.85346">
        <ele>1340.7</ele>
        <time>2014-06-27T13:41:31Z</time>
      </trkpt>
      <trkpt lat="46.23676" lon="6.85346">
        <ele>1340.7</ele>
        <time>2014-06-27T13:42:05Z</time>
      </trkpt>
      <trkpt lat="46.23675" lon="6.85347">
        <ele>1340.7</ele>
        <time>2014-06-27T13:42:38Z</time>
      </trkpt>
      <trkpt lat="46.23675" lon="6.85347">
        <ele>1340.7</ele>
        <time>2014-06-27T13:43:03Z</time>
      </trkpt>
      <trkpt lat="46.23675" lon="6.85347">
        <ele>1340.7</ele>
        <time>2014-06-27T13:43:29Z</time>
      </trkpt>
      <trkpt lat="46.23675" lon="6.85347">
        <ele>1340.7</ele>
        <time>2014-06-27T13:43:48Z</time>
      </trkpt>
      <trkpt lat="46.23675" lon="6.85348">
        <ele>1340.7</ele>
        <time>2014-06-27T13:44:25Z</time>
      </trkpt>
      <trkpt lat="46.23675" lon="6.85348">
        <ele>1340.7</ele>
        <time>2014-06-27T13:44:49Z</time>
      </trkpt>
      <trkpt lat="46.23675" lon="6.85348">
        <ele>1340.7</ele>
        <time>2014-06-27T13:45:09Z</time>
      </trkpt>
      <trkpt lat="46.23675" lon="6.85347">
        <ele>1340.7</ele>
        <time>2014-06-27T13:45:37Z</time>
      </trkpt>
      <trkpt lat="46.23675" lon="6.85347">
        <ele>1340.7</ele>
        <time>2014-06-27T13:45:52Z</time>
      </trkpt>
      <trkpt lat="46.23673" lon="6.85347">
        <ele>1340.7</ele>
        <time>2014-06-27T13:46:15Z</time>
      </trkpt>
      <trkpt lat="46.23673" lon="6.85349">
        <ele>1340.7</ele>
        <time>2014-06-27T13:46:49Z</time>
      </trkpt>
      <trkpt lat="46.23673" lon="6.85349">
        <ele>1340.7</ele>
        <time>2014-06-27T13:46:53Z</time>
      </trkpt>
      <trkpt lat="46.23679" lon="6.85359">
        <ele>1340.7</ele>
        <time>2014-06-27T13:46:58Z</time>
      </trkpt>
      <trkpt lat="46.23685" lon="6.85399">
        <ele>1340.7</ele>
        <time>2014-06-27T13:47:04Z</time>
      </trkpt>
      <trkpt lat="46.23692" lon="6.85429">
        <ele>1339.73</ele>
        <time>2014-06-27T13:47:09Z</time>
      </trkpt>
      <trkpt lat="46.23697" lon="6.85464">
        <ele>1338.29</ele>
        <time>2014-06-27T13:47:13Z</time>
      </trkpt>
      <trkpt lat="46.23697" lon="6.85486">
        <ele>1336.37</ele>
        <time>2014-06-27T13:47:15Z</time>
      </trkpt>
      <trkpt lat="46.23695" lon="6.85534">
        <ele>1332.04</ele>
        <time>2014-06-27T13:47:19Z</time>
      </trkpt>
      <trkpt lat="46.23695" lon="6.85547">
        <ele>1331.08</ele>
        <time>2014-06-27T13:47:20Z</time>
      </trkpt>
      <trkpt lat="46.23707" lon="6.85615">
        <ele>1327.24</ele>
        <time>2014-06-27T13:47:25Z</time>
      </trkpt>
      <trkpt lat="46.23711" lon="6.85674">
        <ele>1325.31</ele>
        <time>2014-06-27T13:47:29Z</time>
      </trkpt>
      <trkpt lat="46.23708" lon="6.85704">
        <ele>1324.35</ele>
        <time>2014-06-27T13:47:31Z</time>
      </trkpt>
      <trkpt lat="46.23703" lon="6.85757">
        <ele>1322.91</ele>
        <time>2014-06-27T13:47:35Z</time>
      </trkpt>
      <trkpt lat="46.23678" lon="6.85793">
        <ele>1321.47</ele>
        <time>2014-06-27T13:47:43Z</time>
      </trkpt>
      <trkpt lat="46.23668" lon="6.85805">
        <ele>1321.47</ele>
        <time>2014-06-27T13:47:51Z</time>
      </trkpt>
      <trkpt lat="46.23665" lon="6.85806">
        <ele>1321.47</ele>
        <time>2014-06-27T13:47:56Z</time>
      </trkpt>
      <trkpt lat="46.23667" lon="6.85807">
        <ele>1321.47</ele>
        <time>2014-06-27T13:48:04Z</time>
      </trkpt>
      <trkpt lat="46.23668" lon="6.85806">
        <ele>1321.47</ele>
        <time>2014-06-27T13:48:19Z</time>
      </trkpt>
      <trkpt lat="46.23667" lon="6.85807">
        <ele>1322.43</ele>
        <time>2014-06-27T13:48:33Z</time>
      </trkpt>
      <trkpt lat="46.23645" lon="6.85822">
        <ele>1324.83</ele>
        <time>2014-06-27T13:48:43Z</time>
      </trkpt>
      <trkpt lat="46.23639" lon="6.85825">
        <ele>1328.2</ele>
        <time>2014-06-27T13:48:45Z</time>
      </trkpt>
      <trkpt lat="46.23634" lon="6.85827">
        <ele>1332.52</ele>
        <time>2014-06-27T13:48:47Z</time>
      </trkpt>
      <trkpt lat="46.23625" lon="6.8583">
        <ele>1337.81</ele>
        <time>2014-06-27T13:48:50Z</time>
      </trkpt>
      <trkpt lat="46.2362" lon="6.85831">
        <ele>1340.7</ele>
        <time>2014-06-27T13:48:52Z</time>
      </trkpt>
      <trkpt lat="46.23612" lon="6.85833">
        <ele>1344.06</ele>
        <time>2014-06-27T13:48:55Z</time>
      </trkpt>
      <trkpt lat="46.23595" lon="6.85837">
        <ele>1346.94</ele>
        <time>2014-06-27T13:49:02Z</time>
      </trkpt>
      <trkpt lat="46.23586" lon="6.8584">
        <ele>1351.27</ele>
        <time>2014-06-27T13:49:06Z</time>
      </trkpt>
      <trkpt lat="46.23578" lon="6.85842">
        <ele>1354.15</ele>
        <time>2014-06-27T13:49:09Z</time>
      </trkpt>
      <trkpt lat="46.23568" lon="6.85844">
        <ele>1357.52</ele>
        <time>2014-06-27T13:49:13Z</time>
      </trkpt>
      <trkpt lat="46.23547" lon="6.85849">
        <ele>1360.88</ele>
        <time>2014-06-27T13:49:22Z</time>
      </trkpt>
      <trkpt lat="46.23537" lon="6.85851">
        <ele>1364.25</ele>
        <time>2014-06-27T13:49:26Z</time>
      </trkpt>
      <trkpt lat="46.23529" lon="6.85853">
        <ele>1367.61</ele>
        <time>2014-06-27T13:49:29Z</time>
      </trkpt>
      <trkpt lat="46.23523" lon="6.85855">
        <ele>1371.46</ele>
        <time>2014-06-27T13:49:32Z</time>
      </trkpt>
      <trkpt lat="46.23519" lon="6.85856">
        <ele>1374.82</ele>
        <time>2014-06-27T13:49:34Z</time>
      </trkpt>
      <trkpt lat="46.23512" lon="6.85858">
        <ele>1379.15</ele>
        <time>2014-06-27T13:49:37Z</time>
      </trkpt>
      <trkpt lat="46.23508" lon="6.85859">
        <ele>1382.51</ele>
        <time>2014-06-27T13:49:39Z</time>
      </trkpt>
      <trkpt lat="46.23501" lon="6.8586">
        <ele>1385.4</ele>
        <time>2014-06-27T13:49:42Z</time>
      </trkpt>
      <trkpt lat="46.23494" lon="6.85862">
        <ele>1389.24</ele>
        <time>2014-06-27T13:49:45Z</time>
      </trkpt>
      <trkpt lat="46.23488" lon="6.85864">
        <ele>1393.09</ele>
        <time>2014-06-27T13:49:48Z</time>
      </trkpt>
      <trkpt lat="46.23481" lon="6.85866">
        <ele>1396.93</ele>
        <time>2014-06-27T13:49:51Z</time>
      </trkpt>
      <trkpt lat="46.23475" lon="6.85868">
        <ele>1401.74</ele>
        <time>2014-06-27T13:49:54Z</time>
      </trkpt>
      <trkpt lat="46.23471" lon="6.85869">
        <ele>1404.62</ele>
        <time>2014-06-27T13:49:56Z</time>
      </trkpt>
      <trkpt lat="46.23467" lon="6.8587">
        <ele>1407.99</ele>
        <time>2014-06-27T13:49:58Z</time>
      </trkpt>
      <trkpt lat="46.23463" lon="6.85872">
        <ele>1411.35</ele>
        <time>2014-06-27T13:50:00Z</time>
      </trkpt>
      <trkpt lat="46.23459" lon="6.85873">
        <ele>1414.72</ele>
        <time>2014-06-27T13:50:02Z</time>
      </trkpt>
      <trkpt lat="46.23454" lon="6.85874">
        <ele>1418.08</ele>
        <time>2014-06-27T13:50:04Z</time>
      </trkpt>
      <trkpt lat="46.23451" lon="6.85875">
        <ele>1421.45</ele>
        <time>2014-06-27T13:50:06Z</time>
      </trkpt>
      <trkpt lat="46.23446" lon="6.85876">
        <ele>1423.37</ele>
        <time>2014-06-27T13:50:08Z</time>
      </trkpt>
      <trkpt lat="46.23443" lon="6.85877">
        <ele>1426.73</ele>
        <time>2014-06-27T13:50:10Z</time>
      </trkpt>
      <trkpt lat="46.23438" lon="6.85878">
        <ele>1429.62</ele>
        <time>2014-06-27T13:50:12Z</time>
      </trkpt>
      <trkpt lat="46.23433" lon="6.85879">
        <ele>1432.98</ele>
        <time>2014-06-27T13:50:14Z</time>
      </trkpt>
      <trkpt lat="46.23427" lon="6.85881">
        <ele>1436.83</ele>
        <time>2014-06-27T13:50:17Z</time>
      </trkpt>
      <trkpt lat="46.23421" lon="6.85882">
        <ele>1440.67</ele>
        <time>2014-06-27T13:50:20Z</time>
      </trkpt>
      <trkpt lat="46.23415" lon="6.85884">
        <ele>1444.52</ele>
        <time>2014-06-27T13:50:23Z</time>
      </trkpt>
      <trkpt lat="46.23408" lon="6.85886">
        <ele>1448.36</ele>
        <time>2014-06-27T13:50:26Z</time>
      </trkpt>
      <trkpt lat="46.23402" lon="6.85888">
        <ele>1453.17</ele>
        <time>2014-06-27T13:50:29Z</time>
      </trkpt>
      <trkpt lat="46.23398" lon="6.85889">
        <ele>1456.53</ele>
        <time>2014-06-27T13:50:31Z</time>
      </trkpt>
      <trkpt lat="46.23393" lon="6.8589">
        <ele>1459.9</ele>
        <time>2014-06-27T13:50:33Z</time>
      </trkpt>
      <trkpt lat="46.23388" lon="6.85891">
        <ele>1463.26</ele>
        <time>2014-06-27T13:50:36Z</time>
      </trkpt>
      <trkpt lat="46.23384" lon="6.85892">
        <ele>1466.63</ele>
        <time>2014-06-27T13:50:38Z</time>
      </trkpt>
      <trkpt lat="46.2338" lon="6.85894">
        <ele>1469.51</ele>
        <time>2014-06-27T13:50:40Z</time>
      </trkpt>
      <trkpt lat="46.23375" lon="6.85894">
        <ele>1472.88</ele>
        <time>2014-06-27T13:50:42Z</time>
      </trkpt>
      <trkpt lat="46.23372" lon="6.85895">
        <ele>1476.24</ele>
        <time>2014-06-27T13:50:44Z</time>
      </trkpt>
      <trkpt lat="46.23367" lon="6.85897">
        <ele>1479.61</ele>
        <time>2014-06-27T13:50:46Z</time>
      </trkpt>
      <trkpt lat="46.23364" lon="6.85898">
        <ele>1482.97</ele>
        <time>2014-06-27T13:50:48Z</time>
      </trkpt>
      <trkpt lat="46.2336" lon="6.85899">
        <ele>1485.85</ele>
        <time>2014-06-27T13:50:50Z</time>
      </trkpt>
      <trkpt lat="46.23355" lon="6.85901">
        <ele>1489.22</ele>
        <time>2014-06-27T13:50:52Z</time>
      </trkpt>
      <trkpt lat="46.23348" lon="6.85902">
        <ele>1493.06</ele>
        <time>2014-06-27T13:50:55Z</time>
      </trkpt>
      <trkpt lat="46.23342" lon="6.85904">
        <ele>1496.43</ele>
        <time>2014-06-27T13:50:58Z</time>
      </trkpt>
      <trkpt lat="46.23335" lon="6.85906">
        <ele>1498.35</ele>
        <time>2014-06-27T13:51:01Z</time>
      </trkpt>
      <trkpt lat="46.23328" lon="6.85908">
        <ele>1501.72</ele>
        <time>2014-06-27T13:51:04Z</time>
      </trkpt>
      <trkpt lat="46.23322" lon="6.85909">
        <ele>1505.56</ele>
        <time>2014-06-27T13:51:07Z</time>
      </trkpt>
      <trkpt lat="46.23315" lon="6.8591">
        <ele>1510.37</ele>
        <time>2014-06-27T13:51:10Z</time>
      </trkpt>
      <trkpt lat="46.23311" lon="6.85912">
        <ele>1513.25</ele>
        <time>2014-06-27T13:51:12Z</time>
      </trkpt>
      <trkpt lat="46.23307" lon="6.85913">
        <ele>1516.62</ele>
        <time>2014-06-27T13:51:14Z</time>
      </trkpt>
      <trkpt lat="46.23303" lon="6.85914">
        <ele>1519.5</ele>
        <time>2014-06-27T13:51:16Z</time>
      </trkpt>
      <trkpt lat="46.23297" lon="6.85916">
        <ele>1523.83</ele>
        <time>2014-06-27T13:51:19Z</time>
      </trkpt>
      <trkpt lat="46.2329" lon="6.85917">
        <ele>1528.15</ele>
        <time>2014-06-27T13:51:22Z</time>
      </trkpt>
      <trkpt lat="46.23284" lon="6.85919">
        <ele>1532.48</ele>
        <time>2014-06-27T13:51:25Z</time>
      </trkpt>
      <trkpt lat="46.23278" lon="6.85921">
        <ele>1535.84</ele>
        <time>2014-06-27T13:51:28Z</time>
      </trkpt>
      <trkpt lat="46.23274" lon="6.85922">
        <ele>1539.21</ele>
        <time>2014-06-27T13:51:30Z</time>
      </trkpt>
      <trkpt lat="46.23269" lon="6.85923">
        <ele>1542.09</ele>
        <time>2014-06-27T13:51:32Z</time>
      </trkpt>
      <trkpt lat="46.23266" lon="6.85925">
        <ele>1545.46</ele>
        <time>2014-06-27T13:51:34Z</time>
      </trkpt>
      <trkpt lat="46.23261" lon="6.85926">
        <ele>1548.82</ele>
        <time>2014-06-27T13:51:36Z</time>
      </trkpt>
      <trkpt lat="46.23254" lon="6.85928">
        <ele>1552.67</ele>
        <time>2014-06-27T13:51:39Z</time>
      </trkpt>
      <trkpt lat="46.23245" lon="6.8593">
        <ele>1556.03</ele>
        <time>2014-06-27T13:51:43Z</time>
      </trkpt>
      <trkpt lat="46.23237" lon="6.85932">
        <ele>1558.92</ele>
        <time>2014-06-27T13:51:47Z</time>
      </trkpt>
      <trkpt lat="46.23227" lon="6.85934">
        <ele>1563.24</ele>
        <time>2014-06-27T13:51:51Z</time>
      </trkpt>
      <trkpt lat="46.2322" lon="6.85936">
        <ele>1566.12</ele>
        <time>2014-06-27T13:51:54Z</time>
      </trkpt>
      <trkpt lat="46.23214" lon="6.85939">
        <ele>1570.45</ele>
        <time>2014-06-27T13:51:57Z</time>
      </trkpt>
      <trkpt lat="46.23208" lon="6.85941">
        <ele>1574.3</ele>
        <time>2014-06-27T13:52:00Z</time>
      </trkpt>
      <trkpt lat="46.23198" lon="6.85943">
        <ele>1578.14</ele>
        <time>2014-06-27T13:52:04Z</time>
      </trkpt>
      <trkpt lat="46.23181" lon="6.85947">
        <ele>1581.03</ele>
        <time>2014-06-27T13:52:11Z</time>
      </trkpt>
      <trkpt lat="46.23172" lon="6.85949">
        <ele>1584.39</ele>
        <time>2014-06-27T13:52:15Z</time>
      </trkpt>
      <trkpt lat="46.23165" lon="6.85952">
        <ele>1587.75</ele>
        <time>2014-06-27T13:52:18Z</time>
      </trkpt>
      <trkpt lat="46.23155" lon="6.85955">
        <ele>1591.6</ele>
        <time>2014-06-27T13:52:22Z</time>
      </trkpt>
      <trkpt lat="46.23142" lon="6.85958">
        <ele>1594.96</ele>
        <time>2014-06-27T13:52:27Z</time>
      </trkpt>
      <trkpt lat="46.23123" lon="6.85963">
        <ele>1598.33</ele>
        <time>2014-06-27T13:52:35Z</time>
      </trkpt>
      <trkpt lat="46.23114" lon="6.85966">
        <ele>1602.17</ele>
        <time>2014-06-27T13:52:39Z</time>
      </trkpt>
      <trkpt lat="46.23107" lon="6.85968">
        <ele>1605.06</ele>
        <time>2014-06-27T13:52:42Z</time>
      </trkpt>
      <trkpt lat="46.23097" lon="6.8597">
        <ele>1607.94</ele>
        <time>2014-06-27T13:52:46Z</time>
      </trkpt>
      <trkpt lat="46.23088" lon="6.85973">
        <ele>1611.79</ele>
        <time>2014-06-27T13:52:50Z</time>
      </trkpt>
      <trkpt lat="46.23079" lon="6.85976">
        <ele>1614.67</ele>
        <time>2014-06-27T13:52:54Z</time>
      </trkpt>
      <trkpt lat="46.23067" lon="6.85979">
        <ele>1618.52</ele>
        <time>2014-06-27T13:52:59Z</time>
      </trkpt>
      <trkpt lat="46.23052" lon="6.85982">
        <ele>1621.4</ele>
        <time>2014-06-27T13:53:05Z</time>
      </trkpt>
      <trkpt lat="46.2304" lon="6.85986">
        <ele>1624.77</ele>
        <time>2014-06-27T13:53:10Z</time>
      </trkpt>
      <trkpt lat="46.23027" lon="6.85989">
        <ele>1628.13</ele>
        <time>2014-06-27T13:53:15Z</time>
      </trkpt>
      <trkpt lat="46.23018" lon="6.85992">
        <ele>1631.98</ele>
        <time>2014-06-27T13:53:19Z</time>
      </trkpt>
      <trkpt lat="46.23008" lon="6.85994">
        <ele>1635.82</ele>
        <time>2014-06-27T13:53:23Z</time>
      </trkpt>
      <trkpt lat="46.22999" lon="6.85997">
        <ele>1638.7</ele>
        <time>2014-06-27T13:53:27Z</time>
      </trkpt>
      <trkpt lat="46.2299" lon="6.85999">
        <ele>1642.55</ele>
        <time>2014-06-27T13:53:31Z</time>
      </trkpt>
      <trkpt lat="46.22981" lon="6.86002">
        <ele>1645.91</ele>
        <time>2014-06-27T13:53:35Z</time>
      </trkpt>
      <trkpt lat="46.22978" lon="6.86002">
        <ele>1646.4</ele>
        <time>2014-06-27T13:53:36Z</time>
      </trkpt>
      <trkpt lat="46.22964" lon="6.86006">
        <ele>1649.76</ele>
        <time>2014-06-27T13:53:42Z</time>
      </trkpt>
      <trkpt lat="46.22947" lon="6.8601">
        <ele>1653.12</ele>
        <time>2014-06-27T13:53:49Z</time>
      </trkpt>
      <trkpt lat="46.22935" lon="6.86014">
        <ele>1656.97</ele>
        <time>2014-06-27T13:53:54Z</time>
      </trkpt>
      <trkpt lat="46.22926" lon="6.86016">
        <ele>1660.33</ele>
        <time>2014-06-27T13:53:58Z</time>
      </trkpt>
      <trkpt lat="46.22916" lon="6.86019">
        <ele>1663.7</ele>
        <time>2014-06-27T13:54:02Z</time>
      </trkpt>
      <trkpt lat="46.22914" lon="6.86019">
        <ele>1663.7</ele>
        <time>2014-06-27T13:54:03Z</time>
      </trkpt>
      <trkpt lat="46.22904" lon="6.86022">
        <ele>1666.58</ele>
        <time>2014-06-27T13:54:07Z</time>
      </trkpt>
      <trkpt lat="46.22893" lon="6.86026">
        <ele>1670.43</ele>
        <time>2014-06-27T13:54:12Z</time>
      </trkpt>
      <trkpt lat="46.22877" lon="6.8603">
        <ele>1673.79</ele>
        <time>2014-06-27T13:54:19Z</time>
      </trkpt>
      <trkpt lat="46.22865" lon="6.86033">
        <ele>1676.68</ele>
        <time>2014-06-27T13:54:24Z</time>
      </trkpt>
      <trkpt lat="46.22855" lon="6.86036">
        <ele>1680.04</ele>
        <time>2014-06-27T13:54:28Z</time>
      </trkpt>
      <trkpt lat="46.2285" lon="6.86037">
        <ele>1681</ele>
        <time>2014-06-27T13:54:30Z</time>
      </trkpt>
      <trkpt lat="46.22838" lon="6.8604">
        <ele>1684.85</ele>
        <time>2014-06-27T13:54:35Z</time>
      </trkpt>
      <trkpt lat="46.22829" lon="6.86043">
        <ele>1687.73</ele>
        <time>2014-06-27T13:54:39Z</time>
      </trkpt>
      <trkpt lat="46.2282" lon="6.86046">
        <ele>1691.1</ele>
        <time>2014-06-27T13:54:43Z</time>
      </trkpt>
      <trkpt lat="46.22805" lon="6.8605">
        <ele>1694.46</ele>
        <time>2014-06-27T13:54:49Z</time>
      </trkpt>
      <trkpt lat="46.22781" lon="6.86056">
        <ele>1697.83</ele>
        <time>2014-06-27T13:54:59Z</time>
      </trkpt>
      <trkpt lat="46.22768" lon="6.8606">
        <ele>1700.71</ele>
        <time>2014-06-27T13:55:04Z</time>
      </trkpt>
      <trkpt lat="46.22756" lon="6.86062">
        <ele>1704.07</ele>
        <time>2014-06-27T13:55:09Z</time>
      </trkpt>
      <trkpt lat="46.22744" lon="6.86066">
        <ele>1707.92</ele>
        <time>2014-06-27T13:55:14Z</time>
      </trkpt>
      <trkpt lat="46.22735" lon="6.86068">
        <ele>1711.76</ele>
        <time>2014-06-27T13:55:18Z</time>
      </trkpt>
      <trkpt lat="46.22728" lon="6.8607">
        <ele>1716.09</ele>
        <time>2014-06-27T13:55:21Z</time>
      </trkpt>
      <trkpt lat="46.22721" lon="6.86072">
        <ele>1719.94</ele>
        <time>2014-06-27T13:55:24Z</time>
      </trkpt>
      <trkpt lat="46.22717" lon="6.86073">
        <ele>1722.82</ele>
        <time>2014-06-27T13:55:26Z</time>
      </trkpt>
      <trkpt lat="46.2271" lon="6.86075">
        <ele>1727.15</ele>
        <time>2014-06-27T13:55:29Z</time>
      </trkpt>
      <trkpt lat="46.22703" lon="6.86077">
        <ele>1730.51</ele>
        <time>2014-06-27T13:55:32Z</time>
      </trkpt>
      <trkpt lat="46.22694" lon="6.86079">
        <ele>1734.36</ele>
        <time>2014-06-27T13:55:36Z</time>
      </trkpt>
      <trkpt lat="46.22685" lon="6.86082">
        <ele>1738.2</ele>
        <time>2014-06-27T13:55:40Z</time>
      </trkpt>
      <trkpt lat="46.22678" lon="6.86084">
        <ele>1742.05</ele>
        <time>2014-06-27T13:55:43Z</time>
      </trkpt>
      <trkpt lat="46.22672" lon="6.86086">
        <ele>1746.37</ele>
        <time>2014-06-27T13:55:46Z</time>
      </trkpt>
      <trkpt lat="46.22665" lon="6.86087">
        <ele>1749.74</ele>
        <time>2014-06-27T13:55:49Z</time>
      </trkpt>
      <trkpt lat="46.22659" lon="6.86089">
        <ele>1753.58</ele>
        <time>2014-06-27T13:55:52Z</time>
      </trkpt>
      <trkpt lat="46.22652" lon="6.86091">
        <ele>1757.91</ele>
        <time>2014-06-27T13:55:55Z</time>
      </trkpt>
      <trkpt lat="46.22646" lon="6.86092">
        <ele>1761.75</ele>
        <time>2014-06-27T13:55:58Z</time>
      </trkpt>
      <trkpt lat="46.22639" lon="6.86094">
        <ele>1765.6</ele>
        <time>2014-06-27T13:56:01Z</time>
      </trkpt>
      <trkpt lat="46.22633" lon="6.86096">
        <ele>1769.44</ele>
        <time>2014-06-27T13:56:04Z</time>
      </trkpt>
      <trkpt lat="46.22626" lon="6.86098">
        <ele>1773.29</ele>
        <time>2014-06-27T13:56:07Z</time>
      </trkpt>
      <trkpt lat="46.22619" lon="6.861">
        <ele>1776.65</ele>
        <time>2014-06-27T13:56:10Z</time>
      </trkpt>
      <trkpt lat="46.2261" lon="6.86103">
        <ele>1780.5</ele>
        <time>2014-06-27T13:56:14Z</time>
      </trkpt>
      <trkpt lat="46.22608" lon="6.86103">
        <ele>1780.98</ele>
        <time>2014-06-27T13:56:15Z</time>
      </trkpt>
      <trkpt lat="46.22601" lon="6.86105">
        <ele>1783.86</ele>
        <time>2014-06-27T13:56:18Z</time>
      </trkpt>
      <trkpt lat="46.22595" lon="6.86107">
        <ele>1787.23</ele>
        <time>2014-06-27T13:56:21Z</time>
      </trkpt>
      <trkpt lat="46.22588" lon="6.86109">
        <ele>1791.07</ele>
        <time>2014-06-27T13:56:24Z</time>
      </trkpt>
      <trkpt lat="46.2258" lon="6.86111">
        <ele>1794.44</ele>
        <time>2014-06-27T13:56:27Z</time>
      </trkpt>
      <trkpt lat="46.22571" lon="6.86113">
        <ele>1797.32</ele>
        <time>2014-06-27T13:56:31Z</time>
      </trkpt>
      <trkpt lat="46.22559" lon="6.86116">
        <ele>1800.69</ele>
        <time>2014-06-27T13:56:36Z</time>
      </trkpt>
      <trkpt lat="46.22549" lon="6.86119">
        <ele>1804.53</ele>
        <time>2014-06-27T13:56:40Z</time>
      </trkpt>
      <trkpt lat="46.2254" lon="6.86121">
        <ele>1807.9</ele>
        <time>2014-06-27T13:56:44Z</time>
      </trkpt>
      <trkpt lat="46.22531" lon="6.86123">
        <ele>1810.3</ele>
        <time>2014-06-27T13:56:48Z</time>
      </trkpt>
      <trkpt lat="46.22513" lon="6.86129">
        <ele>1809.82</ele>
        <time>2014-06-27T13:57:00Z</time>
      </trkpt>
      <trkpt lat="46.22513" lon="6.86129">
        <ele>1808.86</ele>
        <time>2014-06-27T13:57:13Z</time>
      </trkpt>
      <trkpt lat="46.22504" lon="6.86134">
        <ele>1806.94</ele>
        <time>2014-06-27T13:57:23Z</time>
      </trkpt>
      <trkpt lat="46.22504" lon="6.86134">
        <ele>1806.45</ele>
        <time>2014-06-27T13:57:40Z</time>
      </trkpt>
      <trkpt lat="46.2249" lon="6.86137">
        <ele>1805.97</ele>
        <time>2014-06-27T13:57:46Z</time>
      </trkpt>
      <trkpt lat="46.22484" lon="6.8614">
        <ele>1805.97</ele>
        <time>2014-06-27T13:57:48Z</time>
      </trkpt>
      <trkpt lat="46.22468" lon="6.86151">
        <ele>1804.53</ele>
        <time>2014-06-27T13:57:51Z</time>
      </trkpt>
      <trkpt lat="46.22445" lon="6.86163">
        <ele>1799.24</ele>
        <time>2014-06-27T13:57:55Z</time>
      </trkpt>
      <trkpt lat="46.22436" lon="6.86171">
        <ele>1795.4</ele>
        <time>2014-06-27T13:57:58Z</time>
      </trkpt>
      <trkpt lat="46.2243" lon="6.86176">
        <ele>1794.44</ele>
        <time>2014-06-27T13:58:00Z</time>
      </trkpt>
      <trkpt lat="46.22415" lon="6.86183">
        <ele>1795.4</ele>
        <time>2014-06-27T13:58:04Z</time>
      </trkpt>
      <trkpt lat="46.22392" lon="6.86183">
        <ele>1794.92</ele>
        <time>2014-06-27T13:58:08Z</time>
      </trkpt>
      <trkpt lat="46.22368" lon="6.8618">
        <ele>1790.11</ele>
        <time>2014-06-27T13:58:12Z</time>
      </trkpt>
      <trkpt lat="46.22357" lon="6.86177">
        <ele>1786.75</ele>
        <time>2014-06-27T13:58:14Z</time>
      </trkpt>
      <trkpt lat="46.22345" lon="6.86172">
        <ele>1782.42</ele>
        <time>2014-06-27T13:58:16Z</time>
      </trkpt>
      <trkpt lat="46.22333" lon="6.86167">
        <ele>1778.1</ele>
        <time>2014-06-27T13:58:18Z</time>
      </trkpt>
      <trkpt lat="46.22318" lon="6.86169">
        <ele>1773.29</ele>
        <time>2014-06-27T13:58:21Z</time>
      </trkpt>
      <trkpt lat="46.22314" lon="6.86169">
        <ele>1771.85</ele>
        <time>2014-06-27T13:58:22Z</time>
      </trkpt>
      <trkpt lat="46.22307" lon="6.8617">
        <ele>1769.92</ele>
        <time>2014-06-27T13:58:25Z</time>
      </trkpt>
      <trkpt lat="46.22299" lon="6.86172">
        <ele>1770.41</ele>
        <time>2014-06-27T13:58:27Z</time>
      </trkpt>
      <trkpt lat="46.22275" lon="6.8619">
        <ele>1769.44</ele>
        <time>2014-06-27T13:58:33Z</time>
      </trkpt>
      <trkpt lat="46.22257" lon="6.86196">
        <ele>1763.68</ele>
        <time>2014-06-27T13:58:37Z</time>
      </trkpt>
      <trkpt lat="46.22249" lon="6.86195">
        <ele>1759.83</ele>
        <time>2014-06-27T13:58:39Z</time>
      </trkpt>
      <trkpt lat="46.22239" lon="6.86194">
        <ele>1755.99</ele>
        <time>2014-06-27T13:58:41Z</time>
      </trkpt>
      <trkpt lat="46.22221" lon="6.86188">
        <ele>1750.22</ele>
        <time>2014-06-27T13:58:45Z</time>
      </trkpt>
      <trkpt lat="46.22214" lon="6.86186">
        <ele>1748.78</ele>
        <time>2014-06-27T13:58:47Z</time>
      </trkpt>
      <trkpt lat="46.22183" lon="6.862">
        <ele>1745.89</ele>
        <time>2014-06-27T13:58:54Z</time>
      </trkpt>
      <trkpt lat="46.22167" lon="6.86213">
        <ele>1741.08</ele>
        <time>2014-06-27T13:58:58Z</time>
      </trkpt>
      <trkpt lat="46.22151" lon="6.86228">
        <ele>1734.36</ele>
        <time>2014-06-27T13:59:02Z</time>
      </trkpt>
      <trkpt lat="46.22137" lon="6.86227">
        <ele>1729.07</ele>
        <time>2014-06-27T13:59:06Z</time>
      </trkpt>
      <trkpt lat="46.22134" lon="6.8622">
        <ele>1728.59</ele>
        <time>2014-06-27T13:59:08Z</time>
      </trkpt>
      <trkpt lat="46.22129" lon="6.86203">
        <ele>1729.07</ele>
        <time>2014-06-27T13:59:11Z</time>
      </trkpt>
      <trkpt lat="46.22122" lon="6.86189">
        <ele>1729.07</ele>
        <time>2014-06-27T13:59:13Z</time>
      </trkpt>
      <trkpt lat="46.22104" lon="6.86179">
        <ele>1728.11</ele>
        <time>2014-06-27T13:59:17Z</time>
      </trkpt>
      <trkpt lat="46.22086" lon="6.86172">
        <ele>1722.34</ele>
        <time>2014-06-27T13:59:22Z</time>
      </trkpt>
      <trkpt lat="46.22076" lon="6.86157">
        <ele>1718.01</ele>
        <time>2014-06-27T13:59:26Z</time>
      </trkpt>
      <trkpt lat="46.22075" lon="6.86146">
        <ele>1718.01</ele>
        <time>2014-06-27T13:59:28Z</time>
      </trkpt>
      <trkpt lat="46.22073" lon="6.86118">
        <ele>1721.86</ele>
        <time>2014-06-27T13:59:33Z</time>
      </trkpt>
      <trkpt lat="46.22071" lon="6.8609">
        <ele>1725.22</ele>
        <time>2014-06-27T13:59:38Z</time>
      </trkpt>
      <trkpt lat="46.2206" lon="6.8606">
        <ele>1725.22</ele>
        <time>2014-06-27T13:59:44Z</time>
      </trkpt>
      <trkpt lat="46.22033" lon="6.86024">
        <ele>1725.22</ele>
        <time>2014-06-27T13:59:53Z</time>
      </trkpt>
      <trkpt lat="46.22017" lon="6.85979">
        <ele>1726.67</ele>
        <time>2014-06-27T14:00:02Z</time>
      </trkpt>
      <trkpt lat="46.22003" lon="6.85957">
        <ele>1727.63</ele>
        <time>2014-06-27T14:00:07Z</time>
      </trkpt>
      <trkpt lat="46.21955" lon="6.85928">
        <ele>1728.59</ele>
        <time>2014-06-27T14:00:17Z</time>
      </trkpt>
      <trkpt lat="46.21935" lon="6.85929">
        <ele>1728.59</ele>
        <time>2014-06-27T14:00:21Z</time>
      </trkpt>
      <trkpt lat="46.21879" lon="6.85943">
        <ele>1730.99</ele>
        <time>2014-06-27T14:00:36Z</time>
      </trkpt>
      <trkpt lat="46.21804" lon="6.85965">
        <ele>1731.95</ele>
        <time>2014-06-27T14:00:50Z</time>
      </trkpt>
      <trkpt lat="46.2178" lon="6.86004">
        <ele>1731.95</ele>
        <time>2014-06-27T14:00:56Z</time>
      </trkpt>
      <trkpt lat="46.21777" lon="6.86021">
        <ele>1732.43</ele>
        <time>2014-06-27T14:00:58Z</time>
      </trkpt>
      <trkpt lat="46.2176" lon="6.8605">
        <ele>1732.43</ele>
        <time>2014-06-27T14:01:03Z</time>
      </trkpt>
      <trkpt lat="46.21747" lon="6.86065">
        <ele>1732.91</ele>
        <time>2014-06-27T14:01:06Z</time>
      </trkpt>
      <trkpt lat="46.21714" lon="6.86117">
        <ele>1732.91</ele>
        <time>2014-06-27T14:01:15Z</time>
      </trkpt>
      <trkpt lat="46.21688" lon="6.86106">
        <ele>1732.91</ele>
        <time>2014-06-27T14:01:21Z</time>
      </trkpt>
      <trkpt lat="46.21666" lon="6.86083">
        <ele>1732.91</ele>
        <time>2014-06-27T14:01:27Z</time>
      </trkpt>
      <trkpt lat="46.21642" lon="6.8606">
        <ele>1733.88</ele>
        <time>2014-06-27T14:01:34Z</time>
      </trkpt>
      <trkpt lat="46.216" lon="6.85994">
        <ele>1736.28</ele>
        <time>2014-06-27T14:01:50Z</time>
      </trkpt>
      <trkpt lat="46.21573" lon="6.85951">
        <ele>1737.72</ele>
        <time>2014-06-27T14:01:59Z</time>
      </trkpt>
      <trkpt lat="46.21557" lon="6.85929">
        <ele>1738.2</ele>
        <time>2014-06-27T14:02:04Z</time>
      </trkpt>
      <trkpt lat="46.2155" lon="6.85913">
        <ele>1738.68</ele>
        <time>2014-06-27T14:02:07Z</time>
      </trkpt>
      <trkpt lat="46.21542" lon="6.85882">
        <ele>1739.16</ele>
        <time>2014-06-27T14:02:12Z</time>
      </trkpt>
      <trkpt lat="46.21533" lon="6.85855">
        <ele>1740.12</ele>
        <time>2014-06-27T14:02:17Z</time>
      </trkpt>
      <trkpt lat="46.21528" lon="6.85844">
        <ele>1740.12</ele>
        <time>2014-06-27T14:02:19Z</time>
      </trkpt>
      <trkpt lat="46.21486" lon="6.85782">
        <ele>1743.01</ele>
        <time>2014-06-27T14:02:34Z</time>
      </trkpt>
      <trkpt lat="46.21452" lon="6.85729">
        <ele>1745.41</ele>
        <time>2014-06-27T14:02:47Z</time>
      </trkpt>
      <trkpt lat="46.21425" lon="6.85693">
        <ele>1745.89</ele>
        <time>2014-06-27T14:02:55Z</time>
      </trkpt>
      <trkpt lat="46.21361" lon="6.85634">
        <ele>1746.37</ele>
        <time>2014-06-27T14:03:09Z</time>
      </trkpt>
      <trkpt lat="46.21334" lon="6.85592">
        <ele>1745.41</ele>
        <time>2014-06-27T14:03:15Z</time>
      </trkpt>
      <trkpt lat="46.21281" lon="6.85542">
        <ele>1745.41</ele>
        <time>2014-06-27T14:03:26Z</time>
      </trkpt>
      <trkpt lat="46.21259" lon="6.85502">
        <ele>1745.41</ele>
        <time>2014-06-27T14:03:32Z</time>
      </trkpt>
      <trkpt lat="46.21236" lon="6.85469">
        <ele>1745.41</ele>
        <time>2014-06-27T14:03:38Z</time>
      </trkpt>
      <trkpt lat="46.21228" lon="6.8546">
        <ele>1746.85</ele>
        <time>2014-06-27T14:03:40Z</time>
      </trkpt>
      <trkpt lat="46.21214" lon="6.85448">
        <ele>1746.85</ele>
        <time>2014-06-27T14:03:43Z</time>
      </trkpt>
      <trkpt lat="46.21175" lon="6.85416">
        <ele>1743.49</ele>
        <time>2014-06-27T14:03:51Z</time>
      </trkpt>
      <trkpt lat="46.21158" lon="6.85396">
        <ele>1739.16</ele>
        <time>2014-06-27T14:03:54Z</time>
      </trkpt>
      <trkpt lat="46.21129" lon="6.85359">
        <ele>1731.95</ele>
        <time>2014-06-27T14:03:59Z</time>
      </trkpt>
      <trkpt lat="46.21111" lon="6.85338">
        <ele>1729.07</ele>
        <time>2014-06-27T14:04:05Z</time>
      </trkpt>
      <trkpt lat="46.21116" lon="6.85355">
        <ele>1729.55</ele>
        <time>2014-06-27T14:04:08Z</time>
      </trkpt>
      <trkpt lat="46.21128" lon="6.85405">
        <ele>1728.11</ele>
        <time>2014-06-27T14:04:13Z</time>
      </trkpt>
      <trkpt lat="46.21138" lon="6.85438">
        <ele>1724.74</ele>
        <time>2014-06-27T14:04:17Z</time>
      </trkpt>
      <trkpt lat="46.21129" lon="6.85469">
        <ele>1718.97</ele>
        <time>2014-06-27T14:04:22Z</time>
      </trkpt>
      <trkpt lat="46.21119" lon="6.85476">
        <ele>1716.57</ele>
        <time>2014-06-27T14:04:24Z</time>
      </trkpt>
      <trkpt lat="46.21069" lon="6.85524">
        <ele>1715.13</ele>
        <time>2014-06-27T14:04:36Z</time>
      </trkpt>
      <trkpt lat="46.21033" lon="6.85552">
        <ele>1709.84</ele>
        <time>2014-06-27T14:04:41Z</time>
      </trkpt>
      <trkpt lat="46.21017" lon="6.85566">
        <ele>1706</ele>
        <time>2014-06-27T14:04:43Z</time>
      </trkpt>
      <trkpt lat="46.21009" lon="6.85572">
        <ele>1703.59</ele>
        <time>2014-06-27T14:04:44Z</time>
      </trkpt>
      <trkpt lat="46.2099" lon="6.85595">
        <ele>1697.83</ele>
        <time>2014-06-27T14:04:47Z</time>
      </trkpt>
      <trkpt lat="46.20972" lon="6.85621">
        <ele>1695.42</ele>
        <time>2014-06-27T14:04:50Z</time>
      </trkpt>
      <trkpt lat="46.20967" lon="6.8563">
        <ele>1696.38</ele>
        <time>2014-06-27T14:04:51Z</time>
      </trkpt>
      <trkpt lat="46.2092" lon="6.85674">
        <ele>1698.79</ele>
        <time>2014-06-27T14:04:58Z</time>
      </trkpt>
      <trkpt lat="46.20883" lon="6.85665">
        <ele>1694.94</ele>
        <time>2014-06-27T14:05:04Z</time>
      </trkpt>
      <trkpt lat="46.20871" lon="6.85645">
        <ele>1692.54</ele>
        <time>2014-06-27T14:05:07Z</time>
      </trkpt>
      <trkpt lat="46.20835" lon="6.85645">
        <ele>1692.06</ele>
        <time>2014-06-27T14:05:13Z</time>
      </trkpt>
      <trkpt lat="46.20824" lon="6.8566">
        <ele>1692.06</ele>
        <time>2014-06-27T14:05:15Z</time>
      </trkpt>
      <trkpt lat="46.20799" lon="6.85697">
        <ele>1693.5</ele>
        <time>2014-06-27T14:05:22Z</time>
      </trkpt>
      <trkpt lat="46.20783" lon="6.85719">
        <ele>1693.98</ele>
        <time>2014-06-27T14:05:26Z</time>
      </trkpt>
      <trkpt lat="46.20766" lon="6.8574">
        <ele>1695.42</ele>
        <time>2014-06-27T14:05:30Z</time>
      </trkpt>
      <trkpt lat="46.20743" lon="6.85756">
        <ele>1698.79</ele>
        <time>2014-06-27T14:05:37Z</time>
      </trkpt>
      <trkpt lat="46.20734" lon="6.85758">
        <ele>1701.67</ele>
        <time>2014-06-27T14:05:40Z</time>
      </trkpt>
      <trkpt lat="46.20718" lon="6.85763">
        <ele>1705.04</ele>
        <time>2014-06-27T14:05:46Z</time>
      </trkpt>
      <trkpt lat="46.20684" lon="6.85786">
        <ele>1704.55</ele>
        <time>2014-06-27T14:06:01Z</time>
      </trkpt>
      <trkpt lat="46.20672" lon="6.85806">
        <ele>1704.55</ele>
        <time>2014-06-27T14:06:07Z</time>
      </trkpt>
      <trkpt lat="46.20665" lon="6.85824">
        <ele>1704.55</ele>
        <time>2014-06-27T14:06:10Z</time>
      </trkpt>
      <trkpt lat="46.20643" lon="6.85844">
        <ele>1704.55</ele>
        <time>2014-06-27T14:06:15Z</time>
      </trkpt>
      <trkpt lat="46.20626" lon="6.85845">
        <ele>1703.11</ele>
        <time>2014-06-27T14:06:18Z</time>
      </trkpt>
      <trkpt lat="46.20583" lon="6.85835">
        <ele>1703.11</ele>
        <time>2014-06-27T14:06:27Z</time>
      </trkpt>
      <trkpt lat="46.20574" lon="6.85831">
        <ele>1703.11</ele>
        <time>2014-06-27T14:06:29Z</time>
      </trkpt>
      <trkpt lat="46.20565" lon="6.85828">
        <ele>1703.11</ele>
        <time>2014-06-27T14:06:31Z</time>
      </trkpt>
      <trkpt lat="46.20533" lon="6.85833">
        <ele>1703.11</ele>
        <time>2014-06-27T14:06:37Z</time>
      </trkpt>
      <trkpt lat="46.20511" lon="6.85827">
        <ele>1703.11</ele>
        <time>2014-06-27T14:06:42Z</time>
      </trkpt>
      <trkpt lat="46.20507" lon="6.85843">
        <ele>1700.23</ele>
        <time>2014-06-27T14:06:46Z</time>
      </trkpt>
      <trkpt lat="46.2052" lon="6.85862">
        <ele>1696.86</ele>
        <time>2014-06-27T14:06:49Z</time>
      </trkpt>
      <trkpt lat="46.20538" lon="6.85866">
        <ele>1693.98</ele>
        <time>2014-06-27T14:06:52Z</time>
      </trkpt>
      <trkpt lat="46.20566" lon="6.8587">
        <ele>1689.65</ele>
        <time>2014-06-27T14:06:56Z</time>
      </trkpt>
      <trkpt lat="46.20589" lon="6.8589">
        <ele>1685.33</ele>
        <time>2014-06-27T14:07:00Z</time>
      </trkpt>
      <trkpt lat="46.20619" lon="6.85907">
        <ele>1681</ele>
        <time>2014-06-27T14:07:05Z</time>
      </trkpt>
      <trkpt lat="46.20643" lon="6.85915">
        <ele>1679.08</ele>
        <time>2014-06-27T14:07:08Z</time>
      </trkpt>
      <trkpt lat="46.2066" lon="6.8592">
        <ele>1678.12</ele>
        <time>2014-06-27T14:07:10Z</time>
      </trkpt>
      <trkpt lat="46.2067" lon="6.85921">
        <ele>1677.64</ele>
        <time>2014-06-27T14:07:11Z</time>
      </trkpt>
      <trkpt lat="46.20718" lon="6.85941">
        <ele>1672.83</ele>
        <time>2014-06-27T14:07:16Z</time>
      </trkpt>
      <trkpt lat="46.20739" lon="6.85954">
        <ele>1669.47</ele>
        <time>2014-06-27T14:07:19Z</time>
      </trkpt>
      <trkpt lat="46.20743" lon="6.85958">
        <ele>1668.02</ele>
        <time>2014-06-27T14:07:20Z</time>
      </trkpt>
      <trkpt lat="46.20744" lon="6.85988">
        <ele>1663.7</ele>
        <time>2014-06-27T14:07:25Z</time>
      </trkpt>
      <trkpt lat="46.20736" lon="6.85999">
        <ele>1663.7</ele>
        <time>2014-06-27T14:07:27Z</time>
      </trkpt>
      <trkpt lat="46.20726" lon="6.86006">
        <ele>1663.22</ele>
        <time>2014-06-27T14:07:29Z</time>
      </trkpt>
      <trkpt lat="46.20689" lon="6.86002">
        <ele>1663.22</ele>
        <time>2014-06-27T14:07:37Z</time>
      </trkpt>
      <trkpt lat="46.20687" lon="6.85999">
        <ele>1663.22</ele>
        <time>2014-06-27T14:07:45Z</time>
      </trkpt>
      <trkpt lat="46.20687" lon="6.85999">
        <ele>1663.22</ele>
        <time>2014-06-27T14:08:06Z</time>
      </trkpt>
      <trkpt lat="46.20686" lon="6.85997">
        <ele>1664.18</ele>
        <time>2014-06-27T14:08:12Z</time>
      </trkpt>
      <trkpt lat="46.20687" lon="6.85994">
        <ele>1664.66</ele>
        <time>2014-06-27T14:08:30Z</time>
      </trkpt>
      <trkpt lat="46.20687" lon="6.85994">
        <ele>1664.66</ele>
        <time>2014-06-27T14:09:11Z</time>
      </trkpt>
      <trkpt lat="46.20687" lon="6.85994">
        <ele>1664.66</ele>
        <time>2014-06-27T14:09:44Z</time>
      </trkpt>
      <trkpt lat="46.20688" lon="6.85995">
        <ele>1664.66</ele>
        <time>2014-06-27T14:10:35Z</time>
      </trkpt>
      <trkpt lat="46.20688" lon="6.85994">
        <ele>1664.66</ele>
        <time>2014-06-27T14:11:12Z</time>
      </trkpt>
      <trkpt lat="46.20688" lon="6.85994">
        <ele>1664.66</ele>
        <time>2014-06-27T14:11:48Z</time>
      </trkpt>
      <trkpt lat="46.20688" lon="6.85994">
        <ele>1664.66</ele>
        <time>2014-06-27T14:12:32Z</time>
      </trkpt>
      <trkpt lat="46.20688" lon="6.85994">
        <ele>1664.66</ele>
        <time>2014-06-27T14:13:10Z</time>
      </trkpt>
      <trkpt lat="46.20686" lon="6.85996">
        <ele>1664.66</ele>
        <time>2014-06-27T14:13:20Z</time>
      </trkpt>
      <trkpt lat="46.20682" lon="6.86006">
        <ele>1664.66</ele>
        <time>2014-06-27T14:13:26Z</time>
      </trkpt>
      <trkpt lat="46.2068" lon="6.86006">
        <ele>1664.66</ele>
        <time>2014-06-27T14:13:28Z</time>
      </trkpt>
      <trkpt lat="46.20674" lon="6.86007">
        <ele>1664.66</ele>
        <time>2014-06-27T14:13:32Z</time>
      </trkpt>
      <trkpt lat="46.20668" lon="6.86006">
        <ele>1665.14</ele>
        <time>2014-06-27T14:13:44Z</time>
      </trkpt>
      <trkpt lat="46.20668" lon="6.86004">
        <ele>1665.62</ele>
        <time>2014-06-27T14:13:56Z</time>
      </trkpt>
      <trkpt lat="46.20668" lon="6.86003">
        <ele>1665.62</ele>
        <time>2014-06-27T14:14:16Z</time>
      </trkpt>
      <trkpt lat="46.20666" lon="6.85994">
        <ele>1665.62</ele>
        <time>2014-06-27T14:14:22Z</time>
      </trkpt>
      <trkpt lat="46.20661" lon="6.85968">
        <ele>1668.99</ele>
        <time>2014-06-27T14:14:37Z</time>
      </trkpt>
      <trkpt lat="46.2066" lon="6.8596">
        <ele>1672.83</ele>
        <time>2014-06-27T14:14:41Z</time>
      </trkpt>
      <trkpt lat="46.20659" lon="6.85954">
        <ele>1676.2</ele>
        <time>2014-06-27T14:14:45Z</time>
      </trkpt>
      <trkpt lat="46.20655" lon="6.85928">
        <ele>1679.56</ele>
        <time>2014-06-27T14:15:01Z</time>
      </trkpt>
      <trkpt lat="46.20653" lon="6.85921">
        <ele>1683.89</ele>
        <time>2014-06-27T14:15:06Z</time>
      </trkpt>
      <trkpt lat="46.20652" lon="6.85916">
        <ele>1686.77</ele>
        <time>2014-06-27T14:15:09Z</time>
      </trkpt>
      <trkpt lat="46.20652" lon="6.85909">
        <ele>1689.65</ele>
        <time>2014-06-27T14:15:13Z</time>
      </trkpt>
      <trkpt lat="46.20647" lon="6.85886">
        <ele>1693.5</ele>
        <time>2014-06-27T14:15:28Z</time>
      </trkpt>
      <trkpt lat="46.20646" lon="6.85881">
        <ele>1697.34</ele>
        <time>2014-06-27T14:15:32Z</time>
      </trkpt>
      <trkpt lat="46.20646" lon="6.85876">
        <ele>1700.23</ele>
        <time>2014-06-27T14:15:35Z</time>
      </trkpt>
      <trkpt lat="46.20644" lon="6.85867">
        <ele>1704.07</ele>
        <time>2014-06-27T14:15:41Z</time>
      </trkpt>
      <trkpt lat="46.20642" lon="6.85852">
        <ele>1707.44</ele>
        <time>2014-06-27T14:15:51Z</time>
      </trkpt>
      <trkpt lat="46.20641" lon="6.8585">
        <ele>1707.44</ele>
        <time>2014-06-27T14:15:52Z</time>
      </trkpt>
      <trkpt lat="46.20639" lon="6.8584">
        <ele>1710.8</ele>
        <time>2014-06-27T14:15:59Z</time>
      </trkpt>
      <trkpt lat="46.20636" lon="6.8582">
        <ele>1713.69</ele>
        <time>2014-06-27T14:16:11Z</time>
      </trkpt>
      <trkpt lat="46.20628" lon="6.85777">
        <ele>1717.05</ele>
        <time>2014-06-27T14:16:37Z</time>
      </trkpt>
      <trkpt lat="46.20624" lon="6.8575">
        <ele>1720.42</ele>
        <time>2014-06-27T14:16:53Z</time>
      </trkpt>
      <trkpt lat="46.2062" lon="6.8573">
        <ele>1723.78</ele>
        <time>2014-06-27T14:17:06Z</time>
      </trkpt>
      <trkpt lat="46.20619" lon="6.85723">
        <ele>1727.15</ele>
        <time>2014-06-27T14:17:10Z</time>
      </trkpt>
      <trkpt lat="46.20618" lon="6.85717">
        <ele>1730.51</ele>
        <time>2014-06-27T14:17:14Z</time>
      </trkpt>
      <trkpt lat="46.20613" lon="6.85684">
        <ele>1734.36</ele>
        <time>2014-06-27T14:17:35Z</time>
      </trkpt>
      <trkpt lat="46.20612" lon="6.8568">
        <ele>1738.2</ele>
        <time>2014-06-27T14:17:38Z</time>
      </trkpt>
      <trkpt lat="46.20612" lon="6.85675">
        <ele>1741.57</ele>
        <time>2014-06-27T14:17:41Z</time>
      </trkpt>
      <trkpt lat="46.20611" lon="6.85672">
        <ele>1742.53</ele>
        <time>2014-06-27T14:17:43Z</time>
      </trkpt>
      <trkpt lat="46.20609" lon="6.85662">
        <ele>1745.89</ele>
        <time>2014-06-27T14:17:50Z</time>
      </trkpt>
      <trkpt lat="46.20607" lon="6.85652">
        <ele>1747.81</ele>
        <time>2014-06-27T14:17:56Z</time>
      </trkpt>
      <trkpt lat="46.20607" lon="6.85646">
        <ele>1751.66</ele>
        <time>2014-06-27T14:18:00Z</time>
      </trkpt>
      <trkpt lat="46.20606" lon="6.8564">
        <ele>1755.02</ele>
        <time>2014-06-27T14:18:04Z</time>
      </trkpt>
      <trkpt lat="46.20604" lon="6.85631">
        <ele>1758.39</ele>
        <time>2014-06-27T14:18:10Z</time>
      </trkpt>
      <trkpt lat="46.20603" lon="6.85623">
        <ele>1761.75</ele>
        <time>2014-06-27T14:18:16Z</time>
      </trkpt>
      <trkpt lat="46.20602" lon="6.85616">
        <ele>1764.64</ele>
        <time>2014-06-27T14:18:21Z</time>
      </trkpt>
      <trkpt lat="46.206" lon="6.85607">
        <ele>1768</ele>
        <time>2014-06-27T14:18:27Z</time>
      </trkpt>
      <trkpt lat="46.20598" lon="6.85598">
        <ele>1771.37</ele>
        <time>2014-06-27T14:18:33Z</time>
      </trkpt>
      <trkpt lat="46.20598" lon="6.85596">
        <ele>1771.37</ele>
        <time>2014-06-27T14:18:34Z</time>
      </trkpt>
      <trkpt lat="46.20596" lon="6.85587">
        <ele>1774.73</ele>
        <time>2014-06-27T14:18:40Z</time>
      </trkpt>
      <trkpt lat="46.20595" lon="6.8558">
        <ele>1778.1</ele>
        <time>2014-06-27T14:18:45Z</time>
      </trkpt>
      <trkpt lat="46.20594" lon="6.85572">
        <ele>1780.98</ele>
        <time>2014-06-27T14:18:50Z</time>
      </trkpt>
      <trkpt lat="46.20593" lon="6.85564">
        <ele>1784.82</ele>
        <time>2014-06-27T14:18:56Z</time>
      </trkpt>
      <trkpt lat="46.20591" lon="6.85556">
        <ele>1787.23</ele>
        <time>2014-06-27T14:19:01Z</time>
      </trkpt>
      <trkpt lat="46.2059" lon="6.85548">
        <ele>1790.11</ele>
        <time>2014-06-27T14:19:06Z</time>
      </trkpt>
      <trkpt lat="46.20589" lon="6.85541">
        <ele>1793.48</ele>
        <time>2014-06-27T14:19:11Z</time>
      </trkpt>
      <trkpt lat="46.20588" lon="6.85534">
        <ele>1796.84</ele>
        <time>2014-06-27T14:19:16Z</time>
      </trkpt>
      <trkpt lat="46.20586" lon="6.85527">
        <ele>1800.21</ele>
        <time>2014-06-27T14:19:21Z</time>
      </trkpt>
      <trkpt lat="46.20585" lon="6.85519">
        <ele>1803.09</ele>
        <time>2014-06-27T14:19:26Z</time>
      </trkpt>
      <trkpt lat="46.20585" lon="6.85516">
        <ele>1804.05</ele>
        <time>2014-06-27T14:19:28Z</time>
      </trkpt>
      <trkpt lat="46.20584" lon="6.8551">
        <ele>1807.42</ele>
        <time>2014-06-27T14:19:33Z</time>
      </trkpt>
      <trkpt lat="46.20583" lon="6.85502">
        <ele>1810.78</ele>
        <time>2014-06-27T14:19:38Z</time>
      </trkpt>
      <trkpt lat="46.20581" lon="6.85495">
        <ele>1814.15</ele>
        <time>2014-06-27T14:19:43Z</time>
      </trkpt>
      <trkpt lat="46.2058" lon="6.85488">
        <ele>1817.51</ele>
        <time>2014-06-27T14:19:48Z</time>
      </trkpt>
      <trkpt lat="46.20579" lon="6.8548">
        <ele>1819.91</ele>
        <time>2014-06-27T14:19:53Z</time>
      </trkpt>
      <trkpt lat="46.20577" lon="6.85468">
        <ele>1823.28</ele>
        <time>2014-06-27T14:20:01Z</time>
      </trkpt>
      <trkpt lat="46.2057" lon="6.85434">
        <ele>1826.16</ele>
        <time>2014-06-27T14:20:22Z</time>
      </trkpt>
      <trkpt lat="46.20567" lon="6.85414">
        <ele>1829.53</ele>
        <time>2014-06-27T14:20:35Z</time>
      </trkpt>
      <trkpt lat="46.20565" lon="6.85404">
        <ele>1832.89</ele>
        <time>2014-06-27T14:20:41Z</time>
      </trkpt>
      <trkpt lat="46.20564" lon="6.85397">
        <ele>1836.26</ele>
        <time>2014-06-27T14:20:45Z</time>
      </trkpt>
      <trkpt lat="46.20558" lon="6.85359">
        <ele>1839.62</ele>
        <time>2014-06-27T14:21:08Z</time>
      </trkpt>
      <trkpt lat="46.20557" lon="6.85352">
        <ele>1842.98</ele>
        <time>2014-06-27T14:21:13Z</time>
      </trkpt>
      <trkpt lat="46.20556" lon="6.85346">
        <ele>1846.83</ele>
        <time>2014-06-27T14:21:17Z</time>
      </trkpt>
      <trkpt lat="46.20555" lon="6.8534">
        <ele>1850.19</ele>
        <time>2014-06-27T14:21:21Z</time>
      </trkpt>
      <trkpt lat="46.20552" lon="6.85327">
        <ele>1854.04</ele>
        <time>2014-06-27T14:21:30Z</time>
      </trkpt>
      <trkpt lat="46.20551" lon="6.85321">
        <ele>1855.48</ele>
        <time>2014-06-27T14:21:34Z</time>
      </trkpt>
      <trkpt lat="46.2055" lon="6.85316">
        <ele>1858.37</ele>
        <time>2014-06-27T14:21:38Z</time>
      </trkpt>
      <trkpt lat="46.20549" lon="6.85308">
        <ele>1861.73</ele>
        <time>2014-06-27T14:21:43Z</time>
      </trkpt>
      <trkpt lat="46.20548" lon="6.85296">
        <ele>1865.58</ele>
        <time>2014-06-27T14:21:50Z</time>
      </trkpt>
      <trkpt lat="46.20546" lon="6.85287">
        <ele>1868.46</ele>
        <time>2014-06-27T14:21:56Z</time>
      </trkpt>
      <trkpt lat="46.20544" lon="6.85279">
        <ele>1871.34</ele>
        <time>2014-06-27T14:22:01Z</time>
      </trkpt>
      <trkpt lat="46.20543" lon="6.85273">
        <ele>1873.75</ele>
        <time>2014-06-27T14:22:05Z</time>
      </trkpt>
      <trkpt lat="46.20542" lon="6.85265">
        <ele>1877.11</ele>
        <time>2014-06-27T14:22:11Z</time>
      </trkpt>
      <trkpt lat="46.2054" lon="6.85255">
        <ele>1880.48</ele>
        <time>2014-06-27T14:22:17Z</time>
      </trkpt>
      <trkpt lat="46.2054" lon="6.85248">
        <ele>1883.84</ele>
        <time>2014-06-27T14:22:22Z</time>
      </trkpt>
      <trkpt lat="46.20538" lon="6.85241">
        <ele>1886.72</ele>
        <time>2014-06-27T14:22:27Z</time>
      </trkpt>
      <trkpt lat="46.20537" lon="6.85233">
        <ele>1889.61</ele>
        <time>2014-06-27T14:22:32Z</time>
      </trkpt>
      <trkpt lat="46.20536" lon="6.85226">
        <ele>1892.49</ele>
        <time>2014-06-27T14:22:37Z</time>
      </trkpt>
      <trkpt lat="46.20535" lon="6.85218">
        <ele>1895.86</ele>
        <time>2014-06-27T14:22:42Z</time>
      </trkpt>
      <trkpt lat="46.20534" lon="6.85211">
        <ele>1898.74</ele>
        <time>2014-06-27T14:22:47Z</time>
      </trkpt>
      <trkpt lat="46.20533" lon="6.85204">
        <ele>1902.11</ele>
        <time>2014-06-27T14:22:52Z</time>
      </trkpt>
      <trkpt lat="46.20531" lon="6.85197">
        <ele>1905.47</ele>
        <time>2014-06-27T14:22:57Z</time>
      </trkpt>
      <trkpt lat="46.20531" lon="6.85196">
        <ele>1905.47</ele>
        <time>2014-06-27T14:22:58Z</time>
      </trkpt>
      <trkpt lat="46.2053" lon="6.85188">
        <ele>1908.83</ele>
        <time>2014-06-27T14:23:03Z</time>
      </trkpt>
      <trkpt lat="46.20528" lon="6.85181">
        <ele>1912.2</ele>
        <time>2014-06-27T14:23:08Z</time>
      </trkpt>
      <trkpt lat="46.20527" lon="6.85174">
        <ele>1915.56</ele>
        <time>2014-06-27T14:23:13Z</time>
      </trkpt>
      <trkpt lat="46.20526" lon="6.85166">
        <ele>1918.93</ele>
        <time>2014-06-27T14:23:18Z</time>
      </trkpt>
      <trkpt lat="46.20525" lon="6.85159">
        <ele>1922.29</ele>
        <time>2014-06-27T14:23:23Z</time>
      </trkpt>
      <trkpt lat="46.20524" lon="6.85155">
        <ele>1923.74</ele>
        <time>2014-06-27T14:23:26Z</time>
      </trkpt>
      <trkpt lat="46.20523" lon="6.85148">
        <ele>1927.1</ele>
        <time>2014-06-27T14:23:31Z</time>
      </trkpt>
      <trkpt lat="46.20522" lon="6.85141">
        <ele>1930.46</ele>
        <time>2014-06-27T14:23:36Z</time>
      </trkpt>
      <trkpt lat="46.20521" lon="6.85133">
        <ele>1933.83</ele>
        <time>2014-06-27T14:23:41Z</time>
      </trkpt>
      <trkpt lat="46.20521" lon="6.85126">
        <ele>1937.67</ele>
        <time>2014-06-27T14:23:46Z</time>
      </trkpt>
      <trkpt lat="46.20519" lon="6.85119">
        <ele>1941.04</ele>
        <time>2014-06-27T14:23:51Z</time>
      </trkpt>
      <trkpt lat="46.20519" lon="6.85117">
        <ele>1941.04</ele>
        <time>2014-06-27T14:23:52Z</time>
      </trkpt>
      <trkpt lat="46.20518" lon="6.85111">
        <ele>1944.4</ele>
        <time>2014-06-27T14:23:57Z</time>
      </trkpt>
      <trkpt lat="46.20517" lon="6.85105">
        <ele>1947.77</ele>
        <time>2014-06-27T14:24:01Z</time>
      </trkpt>
      <trkpt lat="46.20516" lon="6.851">
        <ele>1950.65</ele>
        <time>2014-06-27T14:24:05Z</time>
      </trkpt>
      <trkpt lat="46.20515" lon="6.85093">
        <ele>1954.5</ele>
        <time>2014-06-27T14:24:10Z</time>
      </trkpt>
      <trkpt lat="46.20513" lon="6.85086">
        <ele>1957.38</ele>
        <time>2014-06-27T14:24:15Z</time>
      </trkpt>
      <trkpt lat="46.20512" lon="6.85079">
        <ele>1959.78</ele>
        <time>2014-06-27T14:24:20Z</time>
      </trkpt>
      <trkpt lat="46.20511" lon="6.85069">
        <ele>1963.63</ele>
        <time>2014-06-27T14:24:27Z</time>
      </trkpt>
      <trkpt lat="46.20508" lon="6.85054">
        <ele>1966.51</ele>
        <time>2014-06-27T14:24:36Z</time>
      </trkpt>
      <trkpt lat="46.20506" lon="6.85042">
        <ele>1970.36</ele>
        <time>2014-06-27T14:24:44Z</time>
      </trkpt>
      <trkpt lat="46.20504" lon="6.85029">
        <ele>1973.24</ele>
        <time>2014-06-27T14:24:52Z</time>
      </trkpt>
      <trkpt lat="46.20502" lon="6.85016">
        <ele>1976.13</ele>
        <time>2014-06-27T14:25:00Z</time>
      </trkpt>
      <trkpt lat="46.205" lon="6.85005">
        <ele>1979.49</ele>
        <time>2014-06-27T14:25:07Z</time>
      </trkpt>
      <trkpt lat="46.20498" lon="6.84993">
        <ele>1982.86</ele>
        <time>2014-06-27T14:25:15Z</time>
      </trkpt>
      <trkpt lat="46.20495" lon="6.8498">
        <ele>1986.22</ele>
        <time>2014-06-27T14:25:23Z</time>
      </trkpt>
      <trkpt lat="46.20493" lon="6.84969">
        <ele>1989.59</ele>
        <time>2014-06-27T14:25:30Z</time>
      </trkpt>
      <trkpt lat="46.20491" lon="6.84956">
        <ele>1993.43</ele>
        <time>2014-06-27T14:25:38Z</time>
      </trkpt>
      <trkpt lat="46.20489" lon="6.84944">
        <ele>1996.8</ele>
        <time>2014-06-27T14:25:46Z</time>
      </trkpt>
      <trkpt lat="46.20487" lon="6.84934">
        <ele>1999.68</ele>
        <time>2014-06-27T14:25:52Z</time>
      </trkpt>
      <trkpt lat="46.20486" lon="6.84926">
        <ele>2002.56</ele>
        <time>2014-06-27T14:25:58Z</time>
      </trkpt>
      <trkpt lat="46.20484" lon="6.84915">
        <ele>2005.93</ele>
        <time>2014-06-27T14:26:05Z</time>
      </trkpt>
      <trkpt lat="46.20477" lon="6.84876">
        <ele>2008.81</ele>
        <time>2014-06-27T14:26:29Z</time>
      </trkpt>
      <trkpt lat="46.20473" lon="6.84848">
        <ele>2012.66</ele>
        <time>2014-06-27T14:26:46Z</time>
      </trkpt>
      <trkpt lat="46.2047" lon="6.84828">
        <ele>2015.54</ele>
        <time>2014-06-27T14:26:58Z</time>
      </trkpt>
      <trkpt lat="46.20468" lon="6.84818">
        <ele>2018.43</ele>
        <time>2014-06-27T14:27:15Z</time>
      </trkpt>
      <trkpt lat="46.20467" lon="6.84814">
        <ele>2018.91</ele>
        <time>2014-06-27T14:27:58Z</time>
      </trkpt>
      <trkpt lat="46.20466" lon="6.8481">
        <ele>2018.91</ele>
        <time>2014-06-27T14:28:01Z</time>
      </trkpt>
      <trkpt lat="46.20465" lon="6.84806">
        <ele>2018.91</ele>
        <time>2014-06-27T14:28:10Z</time>
      </trkpt>
      <trkpt lat="46.20465" lon="6.84806">
        <ele>2018.91</ele>
        <time>2014-06-27T14:28:26Z</time>
      </trkpt>
      <trkpt lat="46.20465" lon="6.84795">
        <ele>2018.91</ele>
        <time>2014-06-27T14:28:30Z</time>
      </trkpt>
      <trkpt lat="46.20465" lon="6.84792">
        <ele>2017.94</ele>
        <time>2014-06-27T14:28:47Z</time>
      </trkpt>
      <trkpt lat="46.20465" lon="6.84792">
        <ele>2017.46</ele>
        <time>2014-06-27T14:29:11Z</time>
      </trkpt>
      <trkpt lat="46.20465" lon="6.84791">
        <ele>2017.46</ele>
        <time>2014-06-27T14:29:20Z</time>
      </trkpt>
      <trkpt lat="46.20463" lon="6.84783">
        <ele>2017.46</ele>
        <time>2014-06-27T14:29:25Z</time>
      </trkpt>
      <trkpt lat="46.20457" lon="6.84773">
        <ele>2017.94</ele>
        <time>2014-06-27T14:29:39Z</time>
      </trkpt>
      <trkpt lat="46.20456" lon="6.84771">
        <ele>2017.94</ele>
        <time>2014-06-27T14:29:40Z</time>
      </trkpt>
      <trkpt lat="46.2045" lon="6.84749">
        <ele>2017.94</ele>
        <time>2014-06-27T14:29:50Z</time>
      </trkpt>
      <trkpt lat="46.20435" lon="6.84711">
        <ele>2020.83</ele>
        <time>2014-06-27T14:30:05Z</time>
      </trkpt>
      <trkpt lat="46.2043" lon="6.84707">
        <ele>2021.31</ele>
        <time>2014-06-27T14:30:08Z</time>
      </trkpt>
      <trkpt lat="46.20425" lon="6.84698">
        <ele>2022.27</ele>
        <time>2014-06-27T14:30:13Z</time>
      </trkpt>
      <trkpt lat="46.2042" lon="6.84693">
        <ele>2025.15</ele>
        <time>2014-06-27T14:30:17Z</time>
      </trkpt>
      <trkpt lat="46.20413" lon="6.8468">
        <ele>2029.48</ele>
        <time>2014-06-27T14:30:24Z</time>
      </trkpt>
      <trkpt lat="46.20406" lon="6.84667">
        <ele>2029</ele>
        <time>2014-06-27T14:30:33Z</time>
      </trkpt>
      <trkpt lat="46.20401" lon="6.84659">
        <ele>2029.48</ele>
        <time>2014-06-27T14:30:39Z</time>
      </trkpt>
      <trkpt lat="46.20396" lon="6.84653">
        <ele>2029.48</ele>
        <time>2014-06-27T14:30:43Z</time>
      </trkpt>
      <trkpt lat="46.2038" lon="6.84632">
        <ele>2030.92</ele>
        <time>2014-06-27T14:30:59Z</time>
      </trkpt>
      <trkpt lat="46.2036" lon="6.84612">
        <ele>2031.4</ele>
        <time>2014-06-27T14:31:13Z</time>
      </trkpt>
      <trkpt lat="46.20327" lon="6.84577">
        <ele>2028.04</ele>
        <time>2014-06-27T14:31:22Z</time>
      </trkpt>
      <trkpt lat="46.20312" lon="6.84566">
        <ele>2023.71</ele>
        <time>2014-06-27T14:31:25Z</time>
      </trkpt>
      <trkpt lat="46.20296" lon="6.84555">
        <ele>2019.39</ele>
        <time>2014-06-27T14:31:28Z</time>
      </trkpt>
      <trkpt lat="46.20241" lon="6.84515">
        <ele>2019.87</ele>
        <time>2014-06-27T14:31:39Z</time>
      </trkpt>
      <trkpt lat="46.20232" lon="6.84507">
        <ele>2020.35</ele>
        <time>2014-06-27T14:31:41Z</time>
      </trkpt>
      <trkpt lat="46.20214" lon="6.84488">
        <ele>2020.35</ele>
        <time>2014-06-27T14:31:46Z</time>
      </trkpt>
      <trkpt lat="46.20194" lon="6.84461">
        <ele>2020.35</ele>
        <time>2014-06-27T14:31:56Z</time>
      </trkpt>
      <trkpt lat="46.20181" lon="6.84453">
        <ele>2024.19</ele>
        <time>2014-06-27T14:32:04Z</time>
      </trkpt>
      <trkpt lat="46.20176" lon="6.84448">
        <ele>2027.08</ele>
        <time>2014-06-27T14:32:07Z</time>
      </trkpt>
      <trkpt lat="46.2017" lon="6.84442">
        <ele>2030.92</ele>
        <time>2014-06-27T14:32:11Z</time>
      </trkpt>
      <trkpt lat="46.20157" lon="6.84432">
        <ele>2031.4</ele>
        <time>2014-06-27T14:32:22Z</time>
      </trkpt>
      <trkpt lat="46.20135" lon="6.84425">
        <ele>2031.88</ele>
        <time>2014-06-27T14:32:30Z</time>
      </trkpt>
      <trkpt lat="46.20127" lon="6.84421">
        <ele>2031.88</ele>
        <time>2014-06-27T14:32:33Z</time>
      </trkpt>
      <trkpt lat="46.20122" lon="6.84418">
        <ele>2032.36</ele>
        <time>2014-06-27T14:32:36Z</time>
      </trkpt>
      <trkpt lat="46.20096" lon="6.84407">
        <ele>2033.33</ele>
        <time>2014-06-27T14:32:50Z</time>
      </trkpt>
      <trkpt lat="46.20094" lon="6.84406">
        <ele>2033.33</ele>
        <time>2014-06-27T14:32:51Z</time>
      </trkpt>
      <trkpt lat="46.20088" lon="6.84403">
        <ele>2033.81</ele>
        <time>2014-06-27T14:32:55Z</time>
      </trkpt>
      <trkpt lat="46.20076" lon="6.84396">
        <ele>2035.25</ele>
        <time>2014-06-27T14:33:03Z</time>
      </trkpt>
      <trkpt lat="46.20068" lon="6.84391">
        <ele>2036.69</ele>
        <time>2014-06-27T14:33:09Z</time>
      </trkpt>
      <trkpt lat="46.2006" lon="6.84383">
        <ele>2037.65</ele>
        <time>2014-06-27T14:33:15Z</time>
      </trkpt>
      <trkpt lat="46.20039" lon="6.84396">
        <ele>2038.13</ele>
        <time>2014-06-27T14:33:24Z</time>
      </trkpt>
      <trkpt lat="46.20029" lon="6.84397">
        <ele>2038.61</ele>
        <time>2014-06-27T14:33:28Z</time>
      </trkpt>
      <trkpt lat="46.20004" lon="6.84398">
        <ele>2039.09</ele>
        <time>2014-06-27T14:33:39Z</time>
      </trkpt>
      <trkpt lat="46.19994" lon="6.84394">
        <ele>2039.09</ele>
        <time>2014-06-27T14:33:43Z</time>
      </trkpt>
      <trkpt lat="46.19977" lon="6.84371">
        <ele>2039.09</ele>
        <time>2014-06-27T14:33:51Z</time>
      </trkpt>
      <trkpt lat="46.19951" lon="6.84351">
        <ele>2039.09</ele>
        <time>2014-06-27T14:34:02Z</time>
      </trkpt>
      <trkpt lat="46.1993" lon="6.84335">
        <ele>2040.54</ele>
        <time>2014-06-27T14:34:12Z</time>
      </trkpt>
      <trkpt lat="46.19918" lon="6.84318">
        <ele>2041.02</ele>
        <time>2014-06-27T14:34:20Z</time>
      </trkpt>
      <trkpt lat="46.19912" lon="6.84307">
        <ele>2041.5</ele>
        <time>2014-06-27T14:34:25Z</time>
      </trkpt>
      <trkpt lat="46.19905" lon="6.8429">
        <ele>2041.98</ele>
        <time>2014-06-27T14:34:32Z</time>
      </trkpt>
      <trkpt lat="46.19878" lon="6.84273">
        <ele>2043.42</ele>
        <time>2014-06-27T14:34:44Z</time>
      </trkpt>
      <trkpt lat="46.19863" lon="6.84262">
        <ele>2043.42</ele>
        <time>2014-06-27T14:34:49Z</time>
      </trkpt>
      <trkpt lat="46.1985" lon="6.84253">
        <ele>2043.42</ele>
        <time>2014-06-27T14:34:52Z</time>
      </trkpt>
      <trkpt lat="46.19814" lon="6.84243">
        <ele>2041.02</ele>
        <time>2014-06-27T14:35:00Z</time>
      </trkpt>
      <trkpt lat="46.19797" lon="6.84232">
        <ele>2037.65</ele>
        <time>2014-06-27T14:35:04Z</time>
      </trkpt>
      <trkpt lat="46.1977" lon="6.84236">
        <ele>2034.29</ele>
        <time>2014-06-27T14:35:11Z</time>
      </trkpt>
      <trkpt lat="46.19764" lon="6.84237">
        <ele>2033.81</ele>
        <time>2014-06-27T14:35:12Z</time>
      </trkpt>
      <trkpt lat="46.19741" lon="6.84241">
        <ele>2030.92</ele>
        <time>2014-06-27T14:35:16Z</time>
      </trkpt>
      <trkpt lat="46.19713" lon="6.84235">
        <ele>2026.6</ele>
        <time>2014-06-27T14:35:23Z</time>
      </trkpt>
      <trkpt lat="46.19712" lon="6.84212">
        <ele>2023.23</ele>
        <time>2014-06-27T14:35:28Z</time>
      </trkpt>
      <trkpt lat="46.19711" lon="6.84207">
        <ele>2023.23</ele>
        <time>2014-06-27T14:35:29Z</time>
      </trkpt>
      <trkpt lat="46.1969" lon="6.84202">
        <ele>2018.91</ele>
        <time>2014-06-27T14:35:34Z</time>
      </trkpt>
      <trkpt lat="46.19674" lon="6.84215">
        <ele>2015.54</ele>
        <time>2014-06-27T14:35:39Z</time>
      </trkpt>
      <trkpt lat="46.19672" lon="6.84219">
        <ele>2011.22</ele>
        <time>2014-06-27T14:35:46Z</time>
      </trkpt>
      <trkpt lat="46.19672" lon="6.84219">
        <ele>2013.14</ele>
        <time>2014-06-27T14:36:07Z</time>
      </trkpt>
      <trkpt lat="46.19671" lon="6.84219">
        <ele>2013.14</ele>
        <time>2014-06-27T14:36:38Z</time>
      </trkpt>
      <trkpt lat="46.19672" lon="6.84219">
        <ele>2013.14</ele>
        <time>2014-06-27T14:37:13Z</time>
      </trkpt>
      <trkpt lat="46.19661" lon="6.84228">
        <ele>2013.14</ele>
        <time>2014-06-27T14:37:20Z</time>
      </trkpt>
      <trkpt lat="46.19644" lon="6.84242">
        <ele>2009.77</ele>
        <time>2014-06-27T14:37:24Z</time>
      </trkpt>
      <trkpt lat="46.19632" lon="6.84249">
        <ele>2005.93</ele>
        <time>2014-06-27T14:37:26Z</time>
      </trkpt>
      <trkpt lat="46.19625" lon="6.8425">
        <ele>2003.52</ele>
        <time>2014-06-27T14:37:27Z</time>
      </trkpt>
      <trkpt lat="46.19596" lon="6.84238">
        <ele>1993.91</ele>
        <time>2014-06-27T14:37:31Z</time>
      </trkpt>
      <trkpt lat="46.19589" lon="6.8422">
        <ele>1990.55</ele>
        <time>2014-06-27T14:37:33Z</time>
      </trkpt>
      <trkpt lat="46.19584" lon="6.84199">
        <ele>1989.1</ele>
        <time>2014-06-27T14:37:35Z</time>
      </trkpt>
      <trkpt lat="46.19577" lon="6.84168">
        <ele>1990.07</ele>
        <time>2014-06-27T14:37:38Z</time>
      </trkpt>
      <trkpt lat="46.19567" lon="6.84124">
        <ele>1991.51</ele>
        <time>2014-06-27T14:37:42Z</time>
      </trkpt>
      <trkpt lat="46.19563" lon="6.84101">
        <ele>1991.51</ele>
        <time>2014-06-27T14:37:44Z</time>
      </trkpt>
      <trkpt lat="46.19553" lon="6.84061">
        <ele>1986.22</ele>
        <time>2014-06-27T14:37:48Z</time>
      </trkpt>
      <trkpt lat="46.19548" lon="6.84042">
        <ele>1980.93</ele>
        <time>2014-06-27T14:37:51Z</time>
      </trkpt>
      <trkpt lat="46.19544" lon="6.84016">
        <ele>1975.17</ele>
        <time>2014-06-27T14:37:55Z</time>
      </trkpt>
      <trkpt lat="46.1954" lon="6.83964">
        <ele>1973.72</ele>
        <time>2014-06-27T14:38:01Z</time>
      </trkpt>
      <trkpt lat="46.19539" lon="6.83952">
        <ele>1972.76</ele>
        <time>2014-06-27T14:38:03Z</time>
      </trkpt>
      <trkpt lat="46.19537" lon="6.83923">
        <ele>1970.36</ele>
        <time>2014-06-27T14:38:07Z</time>
      </trkpt>
      <trkpt lat="46.19534" lon="6.83889">
        <ele>1966.99</ele>
        <time>2014-06-27T14:38:11Z</time>
      </trkpt>
      <trkpt lat="46.1953" lon="6.83852">
        <ele>1965.07</ele>
        <time>2014-06-27T14:38:17Z</time>
      </trkpt>
      <trkpt lat="46.19519" lon="6.83854">
        <ele>1960.27</ele>
        <time>2014-06-27T14:38:22Z</time>
      </trkpt>
      <trkpt lat="46.19511" lon="6.83877">
        <ele>1956.42</ele>
        <time>2014-06-27T14:38:26Z</time>
      </trkpt>
      <trkpt lat="46.19496" lon="6.83897">
        <ele>1953.06</ele>
        <time>2014-06-27T14:38:31Z</time>
      </trkpt>
      <trkpt lat="46.1949" lon="6.83897">
        <ele>1953.06</ele>
        <time>2014-06-27T14:38:32Z</time>
      </trkpt>
      <trkpt lat="46.1947" lon="6.83895">
        <ele>1950.17</ele>
        <time>2014-06-27T14:38:35Z</time>
      </trkpt>
      <trkpt lat="46.19449" lon="6.83881">
        <ele>1944.4</ele>
        <time>2014-06-27T14:38:39Z</time>
      </trkpt>
      <trkpt lat="46.19438" lon="6.83863">
        <ele>1940.08</ele>
        <time>2014-06-27T14:38:43Z</time>
      </trkpt>
      <trkpt lat="46.19435" lon="6.83859">
        <ele>1939.12</ele>
        <time>2014-06-27T14:38:44Z</time>
      </trkpt>
      <trkpt lat="46.19421" lon="6.83837">
        <ele>1935.27</ele>
        <time>2014-06-27T14:38:50Z</time>
      </trkpt>
      <trkpt lat="46.19416" lon="6.83833">
        <ele>1933.35</ele>
        <time>2014-06-27T14:38:52Z</time>
      </trkpt>
      <trkpt lat="46.19401" lon="6.83825">
        <ele>1929.5</ele>
        <time>2014-06-27T14:38:57Z</time>
      </trkpt>
      <trkpt lat="46.19382" lon="6.83816">
        <ele>1924.7</ele>
        <time>2014-06-27T14:39:01Z</time>
      </trkpt>
      <trkpt lat="46.19368" lon="6.8381">
        <ele>1917.97</ele>
        <time>2014-06-27T14:39:04Z</time>
      </trkpt>
      <trkpt lat="46.19365" lon="6.83807">
        <ele>1915.56</ele>
        <time>2014-06-27T14:39:05Z</time>
      </trkpt>
      <trkpt lat="46.19357" lon="6.83791">
        <ele>1909.8</ele>
        <time>2014-06-27T14:39:08Z</time>
      </trkpt>
      <trkpt lat="46.19355" lon="6.83769">
        <ele>1906.43</ele>
        <time>2014-06-27T14:39:11Z</time>
      </trkpt>
      <trkpt lat="46.19374" lon="6.83725">
        <ele>1909.32</ele>
        <time>2014-06-27T14:39:18Z</time>
      </trkpt>
      <trkpt lat="46.1938" lon="6.83715">
        <ele>1910.28</ele>
        <time>2014-06-27T14:39:20Z</time>
      </trkpt>
      <trkpt lat="46.19386" lon="6.83687">
        <ele>1906.43</ele>
        <time>2014-06-27T14:39:25Z</time>
      </trkpt>
      <trkpt lat="46.19378" lon="6.83686">
        <ele>1902.59</ele>
        <time>2014-06-27T14:39:28Z</time>
      </trkpt>
      <trkpt lat="46.19368" lon="6.83687">
        <ele>1898.74</ele>
        <time>2014-06-27T14:39:31Z</time>
      </trkpt>
      <trkpt lat="46.19357" lon="6.83697">
        <ele>1896.34</ele>
        <time>2014-06-27T14:39:34Z</time>
      </trkpt>
      <trkpt lat="46.19326" lon="6.83724">
        <ele>1895.38</ele>
        <time>2014-06-27T14:39:39Z</time>
      </trkpt>
      <trkpt lat="46.19304" lon="6.83735">
        <ele>1892.97</ele>
        <time>2014-06-27T14:39:42Z</time>
      </trkpt>
      <trkpt lat="46.19291" lon="6.83764">
        <ele>1888.65</ele>
        <time>2014-06-27T14:39:46Z</time>
      </trkpt>
      <trkpt lat="46.1929" lon="6.83795">
        <ele>1885.28</ele>
        <time>2014-06-27T14:39:49Z</time>
      </trkpt>
      <trkpt lat="46.1928" lon="6.83811">
        <ele>1883.84</ele>
        <time>2014-06-27T14:39:51Z</time>
      </trkpt>
      <trkpt lat="46.19263" lon="6.83835">
        <ele>1880</ele>
        <time>2014-06-27T14:39:55Z</time>
      </trkpt>
      <trkpt lat="46.19248" lon="6.83825">
        <ele>1877.59</ele>
        <time>2014-06-27T14:39:58Z</time>
      </trkpt>
      <trkpt lat="46.19232" lon="6.83802">
        <ele>1874.23</ele>
        <time>2014-06-27T14:40:01Z</time>
      </trkpt>
      <trkpt lat="46.19226" lon="6.8377">
        <ele>1868.94</ele>
        <time>2014-06-27T14:40:05Z</time>
      </trkpt>
      <trkpt lat="46.19228" lon="6.8376">
        <ele>1867.98</ele>
        <time>2014-06-27T14:40:06Z</time>
      </trkpt>
      <trkpt lat="46.19229" lon="6.83693">
        <ele>1862.69</ele>
        <time>2014-06-27T14:40:12Z</time>
      </trkpt>
      <trkpt lat="46.1923" lon="6.83669">
        <ele>1861.25</ele>
        <time>2014-06-27T14:40:14Z</time>
      </trkpt>
      <trkpt lat="46.19229" lon="6.83645">
        <ele>1860.29</ele>
        <time>2014-06-27T14:40:16Z</time>
      </trkpt>
      <trkpt lat="46.19229" lon="6.83633">
        <ele>1859.81</ele>
        <time>2014-06-27T14:40:17Z</time>
      </trkpt>
      <trkpt lat="46.19235" lon="6.83588">
        <ele>1855.48</ele>
        <time>2014-06-27T14:40:21Z</time>
      </trkpt>
      <trkpt lat="46.19238" lon="6.83578">
        <ele>1854.52</ele>
        <time>2014-06-27T14:40:22Z</time>
      </trkpt>
      <trkpt lat="46.19236" lon="6.83558">
        <ele>1849.71</ele>
        <time>2014-06-27T14:40:25Z</time>
      </trkpt>
      <trkpt lat="46.19222" lon="6.83561">
        <ele>1846.35</ele>
        <time>2014-06-27T14:40:28Z</time>
      </trkpt>
      <trkpt lat="46.19215" lon="6.83563">
        <ele>1845.87</ele>
        <time>2014-06-27T14:40:29Z</time>
      </trkpt>
      <trkpt lat="46.19181" lon="6.83569">
        <ele>1845.87</ele>
        <time>2014-06-27T14:40:33Z</time>
      </trkpt>
      <trkpt lat="46.19138" lon="6.83562">
        <ele>1842.5</ele>
        <time>2014-06-27T14:40:38Z</time>
      </trkpt>
      <trkpt lat="46.19119" lon="6.83566">
        <ele>1836.74</ele>
        <time>2014-06-27T14:40:41Z</time>
      </trkpt>
      <trkpt lat="46.19111" lon="6.83579">
        <ele>1833.85</ele>
        <time>2014-06-27T14:40:43Z</time>
      </trkpt>
      <trkpt lat="46.19097" lon="6.83601">
        <ele>1827.12</ele>
        <time>2014-06-27T14:40:46Z</time>
      </trkpt>
      <trkpt lat="46.19084" lon="6.83624">
        <ele>1820.87</ele>
        <time>2014-06-27T14:40:49Z</time>
      </trkpt>
      <trkpt lat="46.19081" lon="6.83631">
        <ele>1819.43</ele>
        <time>2014-06-27T14:40:50Z</time>
      </trkpt>
      <trkpt lat="46.19041" lon="6.83643">
        <ele>1814.15</ele>
        <time>2014-06-27T14:40:58Z</time>
      </trkpt>
      <trkpt lat="46.19024" lon="6.83618">
        <ele>1817.03</ele>
        <time>2014-06-27T14:41:02Z</time>
      </trkpt>
      <trkpt lat="46.19018" lon="6.83615">
        <ele>1817.99</ele>
        <time>2014-06-27T14:41:03Z</time>
      </trkpt>
      <trkpt lat="46.18983" lon="6.83574">
        <ele>1818.47</ele>
        <time>2014-06-27T14:41:10Z</time>
      </trkpt>
      <trkpt lat="46.18969" lon="6.83515">
        <ele>1813.66</ele>
        <time>2014-06-27T14:41:15Z</time>
      </trkpt>
      <trkpt lat="46.18943" lon="6.83461">
        <ele>1811.26</ele>
        <time>2014-06-27T14:41:20Z</time>
      </trkpt>
      <trkpt lat="46.1892" lon="6.83438">
        <ele>1810.78</ele>
        <time>2014-06-27T14:41:23Z</time>
      </trkpt>
      <trkpt lat="46.18906" lon="6.83422">
        <ele>1810.3</ele>
        <time>2014-06-27T14:41:25Z</time>
      </trkpt>
      <trkpt lat="46.18869" lon="6.83392">
        <ele>1810.3</ele>
        <time>2014-06-27T14:41:30Z</time>
      </trkpt>
      <trkpt lat="46.18843" lon="6.83312">
        <ele>1810.3</ele>
        <time>2014-06-27T14:41:38Z</time>
      </trkpt>
      <trkpt lat="46.18839" lon="6.83301">
        <ele>1810.3</ele>
        <time>2014-06-27T14:41:39Z</time>
      </trkpt>
      <trkpt lat="46.18805" lon="6.8323">
        <ele>1806.94</ele>
        <time>2014-06-27T14:41:46Z</time>
      </trkpt>
      <trkpt lat="46.18781" lon="6.83206">
        <ele>1805.49</ele>
        <time>2014-06-27T14:41:50Z</time>
      </trkpt>
      <trkpt lat="46.18774" lon="6.83189">
        <ele>1805.01</ele>
        <time>2014-06-27T14:41:52Z</time>
      </trkpt>
      <trkpt lat="46.18748" lon="6.83139">
        <ele>1806.45</ele>
        <time>2014-06-27T14:41:59Z</time>
      </trkpt>
      <trkpt lat="46.18736" lon="6.83097">
        <ele>1806.94</ele>
        <time>2014-06-27T14:42:05Z</time>
      </trkpt>
      <trkpt lat="46.18737" lon="6.83032">
        <ele>1808.86</ele>
        <time>2014-06-27T14:42:14Z</time>
      </trkpt>
      <trkpt lat="46.18731" lon="6.83005">
        <ele>1809.34</ele>
        <time>2014-06-27T14:42:19Z</time>
      </trkpt>
      <trkpt lat="46.1872" lon="6.82979">
        <ele>1813.66</ele>
        <time>2014-06-27T14:42:26Z</time>
      </trkpt>
      <trkpt lat="46.18716" lon="6.8296">
        <ele>1817.03</ele>
        <time>2014-06-27T14:42:31Z</time>
      </trkpt>
      <trkpt lat="46.18717" lon="6.82912">
        <ele>1817.51</ele>
        <time>2014-06-27T14:42:44Z</time>
      </trkpt>
      <trkpt lat="46.1872" lon="6.8287">
        <ele>1819.91</ele>
        <time>2014-06-27T14:42:58Z</time>
      </trkpt>
      <trkpt lat="46.18716" lon="6.82821">
        <ele>1822.8</ele>
        <time>2014-06-27T14:43:14Z</time>
      </trkpt>
      <trkpt lat="46.18712" lon="6.82771">
        <ele>1825.2</ele>
        <time>2014-06-27T14:43:29Z</time>
      </trkpt>
      <trkpt lat="46.18715" lon="6.82722">
        <ele>1827.12</ele>
        <time>2014-06-27T14:43:40Z</time>
      </trkpt>
      <trkpt lat="46.18716" lon="6.82672">
        <ele>1828.56</ele>
        <time>2014-06-27T14:43:49Z</time>
      </trkpt>
      <trkpt lat="46.1871" lon="6.82648">
        <ele>1828.56</ele>
        <time>2014-06-27T14:43:53Z</time>
      </trkpt>
      <trkpt lat="46.18708" lon="6.82633">
        <ele>1828.56</ele>
        <time>2014-06-27T14:43:55Z</time>
      </trkpt>
      <trkpt lat="46.18694" lon="6.82606">
        <ele>1828.56</ele>
        <time>2014-06-27T14:43:59Z</time>
      </trkpt>
      <trkpt lat="46.1868" lon="6.82594">
        <ele>1828.56</ele>
        <time>2014-06-27T14:44:02Z</time>
      </trkpt>
      <trkpt lat="46.18665" lon="6.82573">
        <ele>1828.56</ele>
        <time>2014-06-27T14:44:07Z</time>
      </trkpt>
      <trkpt lat="46.18656" lon="6.8257">
        <ele>1829.05</ele>
        <time>2014-06-27T14:44:11Z</time>
      </trkpt>
      <trkpt lat="46.18655" lon="6.8257">
        <ele>1829.53</ele>
        <time>2014-06-27T14:44:23Z</time>
      </trkpt>
      <trkpt lat="46.18654" lon="6.82571">
        <ele>1829.53</ele>
        <time>2014-06-27T14:44:46Z</time>
      </trkpt>
      <trkpt lat="46.18654" lon="6.82571">
        <ele>1829.53</ele>
        <time>2014-06-27T14:45:17Z</time>
      </trkpt>
      <trkpt lat="46.18654" lon="6.82571">
        <ele>1829.53</ele>
        <time>2014-06-27T14:45:33Z</time>
      </trkpt>
      <trkpt lat="46.18654" lon="6.82571">
        <ele>1830.01</ele>
        <time>2014-06-27T14:45:52Z</time>
      </trkpt>
      <trkpt lat="46.18654" lon="6.82571">
        <ele>1830.01</ele>
        <time>2014-06-27T14:46:08Z</time>
      </trkpt>
      <trkpt lat="46.18654" lon="6.82571">
        <ele>1830.01</ele>
        <time>2014-06-27T14:46:31Z</time>
      </trkpt>
      <trkpt lat="46.18654" lon="6.82572">
        <ele>1830.01</ele>
        <time>2014-06-27T14:46:43Z</time>
      </trkpt>
      <trkpt lat="46.18656" lon="6.82574">
        <ele>1830.01</ele>
        <time>2014-06-27T14:46:52Z</time>
      </trkpt>
      <trkpt lat="46.18634" lon="6.82598">
        <ele>1828.08</ele>
        <time>2014-06-27T14:46:59Z</time>
      </trkpt>
      <trkpt lat="46.18617" lon="6.82611">
        <ele>1822.8</ele>
        <time>2014-06-27T14:47:03Z</time>
      </trkpt>
      <trkpt lat="46.18609" lon="6.8261">
        <ele>1819.43</ele>
        <time>2014-06-27T14:47:05Z</time>
      </trkpt>
      <trkpt lat="46.18599" lon="6.82628">
        <ele>1815.11</ele>
        <time>2014-06-27T14:47:08Z</time>
      </trkpt>
      <trkpt lat="46.18595" lon="6.82634">
        <ele>1814.15</ele>
        <time>2014-06-27T14:47:09Z</time>
      </trkpt>
      <trkpt lat="46.18584" lon="6.82653">
        <ele>1812.7</ele>
        <time>2014-06-27T14:47:12Z</time>
      </trkpt>
      <trkpt lat="46.1856" lon="6.82667">
        <ele>1810.78</ele>
        <time>2014-06-27T14:47:18Z</time>
      </trkpt>
      <trkpt lat="46.18539" lon="6.82664">
        <ele>1805.49</ele>
        <time>2014-06-27T14:47:23Z</time>
      </trkpt>
      <trkpt lat="46.18531" lon="6.82672">
        <ele>1803.09</ele>
        <time>2014-06-27T14:47:25Z</time>
      </trkpt>
      <trkpt lat="46.18514" lon="6.82694">
        <ele>1795.88</ele>
        <time>2014-06-27T14:47:30Z</time>
      </trkpt>
      <trkpt lat="46.18513" lon="6.82701">
        <ele>1794.92</ele>
        <time>2014-06-27T14:47:31Z</time>
      </trkpt>
      <trkpt lat="46.18512" lon="6.82717">
        <ele>1792.52</ele>
        <time>2014-06-27T14:47:33Z</time>
      </trkpt>
      <trkpt lat="46.18501" lon="6.82748">
        <ele>1788.67</ele>
        <time>2014-06-27T14:47:39Z</time>
      </trkpt>
      <trkpt lat="46.18505" lon="6.82766">
        <ele>1785.31</ele>
        <time>2014-06-27T14:47:44Z</time>
      </trkpt>
      <trkpt lat="46.18506" lon="6.82765">
        <ele>1784.34</ele>
        <time>2014-06-27T14:47:45Z</time>
      </trkpt>
      <trkpt lat="46.18509" lon="6.8278">
        <ele>1780.5</ele>
        <time>2014-06-27T14:47:51Z</time>
      </trkpt>
      <trkpt lat="46.18506" lon="6.8279">
        <ele>1778.58</ele>
        <time>2014-06-27T14:47:54Z</time>
      </trkpt>
      <trkpt lat="46.18502" lon="6.8281">
        <ele>1775.21</ele>
        <time>2014-06-27T14:47:59Z</time>
      </trkpt>
      <trkpt lat="46.18504" lon="6.8283">
        <ele>1771.85</ele>
        <time>2014-06-27T14:48:02Z</time>
      </trkpt>
      <trkpt lat="46.18499" lon="6.82849">
        <ele>1766.56</ele>
        <time>2014-06-27T14:48:05Z</time>
      </trkpt>
      <trkpt lat="46.18489" lon="6.82855">
        <ele>1762.71</ele>
        <time>2014-06-27T14:48:07Z</time>
      </trkpt>
      <trkpt lat="46.18489" lon="6.82873">
        <ele>1758.39</ele>
        <time>2014-06-27T14:48:10Z</time>
      </trkpt>
      <trkpt lat="46.18496" lon="6.82884">
        <ele>1755.5</ele>
        <time>2014-06-27T14:48:12Z</time>
      </trkpt>
      <trkpt lat="46.18501" lon="6.82897">
        <ele>1752.14</ele>
        <time>2014-06-27T14:48:15Z</time>
      </trkpt>
      <trkpt lat="46.18504" lon="6.82918">
        <ele>1748.78</ele>
        <time>2014-06-27T14:48:19Z</time>
      </trkpt>
      <trkpt lat="46.1849" lon="6.82927">
        <ele>1744.93</ele>
        <time>2014-06-27T14:48:23Z</time>
      </trkpt>
      <trkpt lat="46.18492" lon="6.82941">
        <ele>1743.01</ele>
        <time>2014-06-27T14:48:25Z</time>
      </trkpt>
      <trkpt lat="46.18499" lon="6.82969">
        <ele>1737.72</ele>
        <time>2014-06-27T14:48:29Z</time>
      </trkpt>
      <trkpt lat="46.18499" lon="6.82993">
        <ele>1735.32</ele>
        <time>2014-06-27T14:48:33Z</time>
      </trkpt>
      <trkpt lat="46.18489" lon="6.82997">
        <ele>1735.32</ele>
        <time>2014-06-27T14:48:37Z</time>
      </trkpt>
      <trkpt lat="46.18464" lon="6.83">
        <ele>1730.03</ele>
        <time>2014-06-27T14:48:42Z</time>
      </trkpt>
      <trkpt lat="46.18457" lon="6.83007">
        <ele>1725.7</ele>
        <time>2014-06-27T14:48:44Z</time>
      </trkpt>
      <trkpt lat="46.18454" lon="6.83017">
        <ele>1721.86</ele>
        <time>2014-06-27T14:48:46Z</time>
      </trkpt>
      <trkpt lat="46.18453" lon="6.83033">
        <ele>1718.49</ele>
        <time>2014-06-27T14:48:48Z</time>
      </trkpt>
      <trkpt lat="46.18451" lon="6.83042">
        <ele>1717.05</ele>
        <time>2014-06-27T14:48:49Z</time>
      </trkpt>
      <trkpt lat="46.18453" lon="6.83088">
        <ele>1713.21</ele>
        <time>2014-06-27T14:48:55Z</time>
      </trkpt>
      <trkpt lat="46.18461" lon="6.83104">
        <ele>1710.32</ele>
        <time>2014-06-27T14:48:59Z</time>
      </trkpt>
      <trkpt lat="46.18463" lon="6.83107">
        <ele>1709.36</ele>
        <time>2014-06-27T14:49:00Z</time>
      </trkpt>
      <trkpt lat="46.18465" lon="6.83123">
        <ele>1706.96</ele>
        <time>2014-06-27T14:49:03Z</time>
      </trkpt>
      <trkpt lat="46.18464" lon="6.83127">
        <ele>1706.48</ele>
        <time>2014-06-27T14:49:04Z</time>
      </trkpt>
      <trkpt lat="46.18461" lon="6.83136">
        <ele>1705.04</ele>
        <time>2014-06-27T14:49:06Z</time>
      </trkpt>
      <trkpt lat="46.18451" lon="6.83163">
        <ele>1704.07</ele>
        <time>2014-06-27T14:49:10Z</time>
      </trkpt>
      <trkpt lat="46.18429" lon="6.83189">
        <ele>1701.67</ele>
        <time>2014-06-27T14:49:14Z</time>
      </trkpt>
      <trkpt lat="46.18408" lon="6.83214">
        <ele>1695.9</ele>
        <time>2014-06-27T14:49:18Z</time>
      </trkpt>
      <trkpt lat="46.18391" lon="6.8323">
        <ele>1691.1</ele>
        <time>2014-06-27T14:49:21Z</time>
      </trkpt>
      <trkpt lat="46.18377" lon="6.83234">
        <ele>1688.69</ele>
        <time>2014-06-27T14:49:23Z</time>
      </trkpt>
      <trkpt lat="46.18356" lon="6.83237">
        <ele>1687.25</ele>
        <time>2014-06-27T14:49:26Z</time>
      </trkpt>
      <trkpt lat="46.18345" lon="6.83238">
        <ele>1688.21</ele>
        <time>2014-06-27T14:49:28Z</time>
      </trkpt>
      <trkpt lat="46.18343" lon="6.83252">
        <ele>1690.14</ele>
        <time>2014-06-27T14:49:33Z</time>
      </trkpt>
      <trkpt lat="46.18352" lon="6.83316">
        <ele>1690.62</ele>
        <time>2014-06-27T14:49:43Z</time>
      </trkpt>
      <trkpt lat="46.18347" lon="6.83351">
        <ele>1689.17</ele>
        <time>2014-06-27T14:49:48Z</time>
      </trkpt>
      <trkpt lat="46.18344" lon="6.83391">
        <ele>1688.69</ele>
        <time>2014-06-27T14:49:53Z</time>
      </trkpt>
      <trkpt lat="46.1836" lon="6.8343">
        <ele>1686.77</ele>
        <time>2014-06-27T14:50:04Z</time>
      </trkpt>
      <trkpt lat="46.1836" lon="6.8343">
        <ele>1686.29</ele>
        <time>2014-06-27T14:50:26Z</time>
      </trkpt>
      <trkpt lat="46.18361" lon="6.8343">
        <ele>1685.81</ele>
        <time>2014-06-27T14:50:41Z</time>
      </trkpt>
      <trkpt lat="46.18364" lon="6.83433">
        <ele>1685.81</ele>
        <time>2014-06-27T14:50:46Z</time>
      </trkpt>
      <trkpt lat="46.18375" lon="6.8343">
        <ele>1685.81</ele>
        <time>2014-06-27T14:51:04Z</time>
      </trkpt>
      <trkpt lat="46.18375" lon="6.8343">
        <ele>1685.81</ele>
        <time>2014-06-27T14:51:14Z</time>
      </trkpt>
      <trkpt lat="46.18379" lon="6.83422">
        <ele>1685.81</ele>
        <time>2014-06-27T14:51:29Z</time>
      </trkpt>
      <trkpt lat="46.1838" lon="6.8342">
        <ele>1685.81</ele>
        <time>2014-06-27T14:51:44Z</time>
      </trkpt>
      <trkpt lat="46.18382" lon="6.83418">
        <ele>1685.81</ele>
        <time>2014-06-27T14:51:54Z</time>
      </trkpt>
      <trkpt lat="46.18384" lon="6.83416">
        <ele>1685.81</ele>
        <time>2014-06-27T14:52:10Z</time>
      </trkpt>
      <trkpt lat="46.18383" lon="6.83417">
        <ele>1686.29</ele>
        <time>2014-06-27T14:52:26Z</time>
      </trkpt>
      <trkpt lat="46.18393" lon="6.83397">
        <ele>1685.81</ele>
        <time>2014-06-27T14:52:39Z</time>
      </trkpt>
      <trkpt lat="46.18407" lon="6.83366">
        <ele>1689.17</ele>
        <time>2014-06-27T14:52:48Z</time>
      </trkpt>
      <trkpt lat="46.18412" lon="6.83356">
        <ele>1693.5</ele>
        <time>2014-06-27T14:52:51Z</time>
      </trkpt>
      <trkpt lat="46.18417" lon="6.83346">
        <ele>1697.34</ele>
        <time>2014-06-27T14:52:54Z</time>
      </trkpt>
      <trkpt lat="46.18419" lon="6.83343">
        <ele>1697.34</ele>
        <time>2014-06-27T14:52:55Z</time>
      </trkpt>
      <trkpt lat="46.18425" lon="6.8333">
        <ele>1701.19</ele>
        <time>2014-06-27T14:52:59Z</time>
      </trkpt>
      <trkpt lat="46.18436" lon="6.83308">
        <ele>1704.55</ele>
        <time>2014-06-27T14:53:06Z</time>
      </trkpt>
      <trkpt lat="46.18437" lon="6.83304">
        <ele>1705.52</ele>
        <time>2014-06-27T14:53:07Z</time>
      </trkpt>
      <trkpt lat="46.18444" lon="6.83289">
        <ele>1709.36</ele>
        <time>2014-06-27T14:53:12Z</time>
      </trkpt>
      <trkpt lat="46.18461" lon="6.83254">
        <ele>1713.21</ele>
        <time>2014-06-27T14:53:22Z</time>
      </trkpt>
      <trkpt lat="46.1847" lon="6.83234">
        <ele>1716.09</ele>
        <time>2014-06-27T14:53:28Z</time>
      </trkpt>
      <trkpt lat="46.18477" lon="6.83217">
        <ele>1719.94</ele>
        <time>2014-06-27T14:53:33Z</time>
      </trkpt>
      <trkpt lat="46.18483" lon="6.83203">
        <ele>1722.82</ele>
        <time>2014-06-27T14:53:37Z</time>
      </trkpt>
      <trkpt lat="46.1849" lon="6.83187">
        <ele>1726.18</ele>
        <time>2014-06-27T14:53:42Z</time>
      </trkpt>
      <trkpt lat="46.18494" lon="6.83177">
        <ele>1729.55</ele>
        <time>2014-06-27T14:53:47Z</time>
      </trkpt>
      <trkpt lat="46.18502" lon="6.83155">
        <ele>1729.55</ele>
        <time>2014-06-27T14:54:07Z</time>
      </trkpt>
      <trkpt lat="46.18502" lon="6.83155">
        <ele>1730.03</ele>
        <time>2014-06-27T14:54:23Z</time>
      </trkpt>
      <trkpt lat="46.18502" lon="6.83155">
        <ele>1730.03</ele>
        <time>2014-06-27T14:54:42Z</time>
      </trkpt>
      <trkpt lat="46.18502" lon="6.83154">
        <ele>1730.03</ele>
        <time>2014-06-27T14:54:52Z</time>
      </trkpt>
      <trkpt lat="46.18507" lon="6.83145">
        <ele>1730.51</ele>
        <time>2014-06-27T14:55:12Z</time>
      </trkpt>
      <trkpt lat="46.18521" lon="6.83116">
        <ele>1732.91</ele>
        <time>2014-06-27T14:55:29Z</time>
      </trkpt>
      <trkpt lat="46.1853" lon="6.83096">
        <ele>1736.76</ele>
        <time>2014-06-27T14:55:36Z</time>
      </trkpt>
      <trkpt lat="46.18534" lon="6.83086">
        <ele>1740.12</ele>
        <time>2014-06-27T14:55:39Z</time>
      </trkpt>
      <trkpt lat="46.18538" lon="6.83078">
        <ele>1743.49</ele>
        <time>2014-06-27T14:55:42Z</time>
      </trkpt>
      <trkpt lat="46.18562" lon="6.83024">
        <ele>1746.37</ele>
        <time>2014-06-27T14:55:58Z</time>
      </trkpt>
      <trkpt lat="46.18571" lon="6.83004">
        <ele>1749.74</ele>
        <time>2014-06-27T14:56:04Z</time>
      </trkpt>
      <trkpt lat="46.18575" lon="6.82994">
        <ele>1753.1</ele>
        <time>2014-06-27T14:56:07Z</time>
      </trkpt>
      <trkpt lat="46.18581" lon="6.82981">
        <ele>1756.95</ele>
        <time>2014-06-27T14:56:11Z</time>
      </trkpt>
      <trkpt lat="46.18592" lon="6.82955">
        <ele>1760.79</ele>
        <time>2014-06-27T14:56:19Z</time>
      </trkpt>
      <trkpt lat="46.18598" lon="6.82942">
        <ele>1763.68</ele>
        <time>2014-06-27T14:56:23Z</time>
      </trkpt>
      <trkpt lat="46.18604" lon="6.82929">
        <ele>1767.52</ele>
        <time>2014-06-27T14:56:27Z</time>
      </trkpt>
      <trkpt lat="46.18608" lon="6.82919">
        <ele>1771.37</ele>
        <time>2014-06-27T14:56:30Z</time>
      </trkpt>
      <trkpt lat="46.18612" lon="6.8291">
        <ele>1775.21</ele>
        <time>2014-06-27T14:56:33Z</time>
      </trkpt>
      <trkpt lat="46.18617" lon="6.829">
        <ele>1778.1</ele>
        <time>2014-06-27T14:56:36Z</time>
      </trkpt>
      <trkpt lat="46.18623" lon="6.82887">
        <ele>1781.94</ele>
        <time>2014-06-27T14:56:40Z</time>
      </trkpt>
      <trkpt lat="46.18628" lon="6.82874">
        <ele>1785.79</ele>
        <time>2014-06-27T14:56:44Z</time>
      </trkpt>
      <trkpt lat="46.18632" lon="6.82865">
        <ele>1789.63</ele>
        <time>2014-06-27T14:56:47Z</time>
      </trkpt>
      <trkpt lat="46.18635" lon="6.82858">
        <ele>1791.07</ele>
        <time>2014-06-27T14:56:49Z</time>
      </trkpt>
      <trkpt lat="46.18639" lon="6.82849">
        <ele>1794.44</ele>
        <time>2014-06-27T14:56:52Z</time>
      </trkpt>
      <trkpt lat="46.18643" lon="6.82841">
        <ele>1797.8</ele>
        <time>2014-06-27T14:56:55Z</time>
      </trkpt>
      <trkpt lat="46.18647" lon="6.82831">
        <ele>1801.17</ele>
        <time>2014-06-27T14:56:58Z</time>
      </trkpt>
      <trkpt lat="46.18655" lon="6.82815">
        <ele>1804.53</ele>
        <time>2014-06-27T14:57:03Z</time>
      </trkpt>
      <trkpt lat="46.18662" lon="6.82798">
        <ele>1808.38</ele>
        <time>2014-06-27T14:57:08Z</time>
      </trkpt>
      <trkpt lat="46.18667" lon="6.82788">
        <ele>1811.26</ele>
        <time>2014-06-27T14:57:11Z</time>
      </trkpt>
      <trkpt lat="46.18673" lon="6.82775">
        <ele>1815.11</ele>
        <time>2014-06-27T14:57:15Z</time>
      </trkpt>
      <trkpt lat="46.18677" lon="6.82765">
        <ele>1818.47</ele>
        <time>2014-06-27T14:57:18Z</time>
      </trkpt>
      <trkpt lat="46.18681" lon="6.82755">
        <ele>1821.84</ele>
        <time>2014-06-27T14:57:21Z</time>
      </trkpt>
      <trkpt lat="46.18686" lon="6.82745">
        <ele>1825.2</ele>
        <time>2014-06-27T14:57:24Z</time>
      </trkpt>
      <trkpt lat="46.18691" lon="6.82733">
        <ele>1829.05</ele>
        <time>2014-06-27T14:57:28Z</time>
      </trkpt>
      <trkpt lat="46.18695" lon="6.82724">
        <ele>1832.41</ele>
        <time>2014-06-27T14:57:31Z</time>
      </trkpt>
      <trkpt lat="46.18699" lon="6.82714">
        <ele>1835.77</ele>
        <time>2014-06-27T14:57:34Z</time>
      </trkpt>
      <trkpt lat="46.18705" lon="6.82701">
        <ele>1839.14</ele>
        <time>2014-06-27T14:57:38Z</time>
      </trkpt>
      <trkpt lat="46.18709" lon="6.82691">
        <ele>1840.58</ele>
        <time>2014-06-27T14:57:41Z</time>
      </trkpt>
      <trkpt lat="46.18716" lon="6.82675">
        <ele>1844.43</ele>
        <time>2014-06-27T14:57:46Z</time>
      </trkpt>
      <trkpt lat="46.18721" lon="6.82661">
        <ele>1848.27</ele>
        <time>2014-06-27T14:57:50Z</time>
      </trkpt>
      <trkpt lat="46.18726" lon="6.82651">
        <ele>1851.64</ele>
        <time>2014-06-27T14:57:53Z</time>
      </trkpt>
      <trkpt lat="46.18729" lon="6.82642">
        <ele>1855</ele>
        <time>2014-06-27T14:57:56Z</time>
      </trkpt>
      <trkpt lat="46.18734" lon="6.82632">
        <ele>1858.37</ele>
        <time>2014-06-27T14:57:59Z</time>
      </trkpt>
      <trkpt lat="46.18738" lon="6.82623">
        <ele>1861.25</ele>
        <time>2014-06-27T14:58:02Z</time>
      </trkpt>
      <trkpt lat="46.18742" lon="6.82614">
        <ele>1864.61</ele>
        <time>2014-06-27T14:58:05Z</time>
      </trkpt>
      <trkpt lat="46.18748" lon="6.82602">
        <ele>1867.98</ele>
        <time>2014-06-27T14:58:09Z</time>
      </trkpt>
      <trkpt lat="46.18752" lon="6.82593">
        <ele>1871.82</ele>
        <time>2014-06-27T14:58:12Z</time>
      </trkpt>
      <trkpt lat="46.18757" lon="6.82584">
        <ele>1876.15</ele>
        <time>2014-06-27T14:58:15Z</time>
      </trkpt>
      <trkpt lat="46.18761" lon="6.82575">
        <ele>1880.48</ele>
        <time>2014-06-27T14:58:18Z</time>
      </trkpt>
      <trkpt lat="46.18765" lon="6.82566">
        <ele>1884.8</ele>
        <time>2014-06-27T14:58:21Z</time>
      </trkpt>
      <trkpt lat="46.18769" lon="6.82557">
        <ele>1889.13</ele>
        <time>2014-06-27T14:58:24Z</time>
      </trkpt>
      <trkpt lat="46.18773" lon="6.82548">
        <ele>1892.97</ele>
        <time>2014-06-27T14:58:27Z</time>
      </trkpt>
      <trkpt lat="46.18778" lon="6.82539">
        <ele>1896.82</ele>
        <time>2014-06-27T14:58:30Z</time>
      </trkpt>
      <trkpt lat="46.18781" lon="6.8253">
        <ele>1900.18</ele>
        <time>2014-06-27T14:58:33Z</time>
      </trkpt>
      <trkpt lat="46.18785" lon="6.82521">
        <ele>1904.51</ele>
        <time>2014-06-27T14:58:36Z</time>
      </trkpt>
      <trkpt lat="46.1879" lon="6.82512">
        <ele>1908.83</ele>
        <time>2014-06-27T14:58:39Z</time>
      </trkpt>
      <trkpt lat="46.18794" lon="6.82503">
        <ele>1913.16</ele>
        <time>2014-06-27T14:58:42Z</time>
      </trkpt>
      <trkpt lat="46.18798" lon="6.82493">
        <ele>1916.53</ele>
        <time>2014-06-27T14:58:45Z</time>
      </trkpt>
      <trkpt lat="46.18802" lon="6.82484">
        <ele>1919.41</ele>
        <time>2014-06-27T14:58:48Z</time>
      </trkpt>
      <trkpt lat="46.18806" lon="6.82474">
        <ele>1923.25</ele>
        <time>2014-06-27T14:58:51Z</time>
      </trkpt>
      <trkpt lat="46.1881" lon="6.82464">
        <ele>1927.1</ele>
        <time>2014-06-27T14:58:54Z</time>
      </trkpt>
      <trkpt lat="46.18813" lon="6.82454">
        <ele>1931.43</ele>
        <time>2014-06-27T14:58:57Z</time>
      </trkpt>
      <trkpt lat="46.18818" lon="6.82445">
        <ele>1934.79</ele>
        <time>2014-06-27T14:59:00Z</time>
      </trkpt>
      <trkpt lat="46.18821" lon="6.82436">
        <ele>1939.12</ele>
        <time>2014-06-27T14:59:03Z</time>
      </trkpt>
      <trkpt lat="46.18825" lon="6.82427">
        <ele>1943.44</ele>
        <time>2014-06-27T14:59:06Z</time>
      </trkpt>
      <trkpt lat="46.18829" lon="6.82417">
        <ele>1947.29</ele>
        <time>2014-06-27T14:59:09Z</time>
      </trkpt>
      <trkpt lat="46.18832" lon="6.82411">
        <ele>1950.17</ele>
        <time>2014-06-27T14:59:11Z</time>
      </trkpt>
      <trkpt lat="46.18836" lon="6.82402">
        <ele>1954.5</ele>
        <time>2014-06-27T14:59:14Z</time>
      </trkpt>
      <trkpt lat="46.1884" lon="6.82393">
        <ele>1958.82</ele>
        <time>2014-06-27T14:59:17Z</time>
      </trkpt>
      <trkpt lat="46.18842" lon="6.82387">
        <ele>1962.19</ele>
        <time>2014-06-27T14:59:19Z</time>
      </trkpt>
      <trkpt lat="46.18844" lon="6.82383">
        <ele>1965.07</ele>
        <time>2014-06-27T14:59:21Z</time>
      </trkpt>
      <trkpt lat="46.18848" lon="6.82375">
        <ele>1968.44</ele>
        <time>2014-06-27T14:59:24Z</time>
      </trkpt>
      <trkpt lat="46.18849" lon="6.82371">
        <ele>1967.96</ele>
        <time>2014-06-27T14:59:25Z</time>
      </trkpt>
      <trkpt lat="46.18867" lon="6.8233">
        <ele>1971.8</ele>
        <time>2014-06-27T14:59:37Z</time>
      </trkpt>
      <trkpt lat="46.18872" lon="6.82319">
        <ele>1975.17</ele>
        <time>2014-06-27T14:59:40Z</time>
      </trkpt>
      <trkpt lat="46.18876" lon="6.8231">
        <ele>1979.49</ele>
        <time>2014-06-27T14:59:43Z</time>
      </trkpt>
      <trkpt lat="46.1888" lon="6.82301">
        <ele>1983.82</ele>
        <time>2014-06-27T14:59:46Z</time>
      </trkpt>
      <trkpt lat="46.18908" lon="6.82235">
        <ele>1987.18</ele>
        <time>2014-06-27T15:00:05Z</time>
      </trkpt>
      <trkpt lat="46.18913" lon="6.82225">
        <ele>1990.07</ele>
        <time>2014-06-27T15:00:08Z</time>
      </trkpt>
      <trkpt lat="46.18917" lon="6.82214">
        <ele>1993.91</ele>
        <time>2014-06-27T15:00:11Z</time>
      </trkpt>
      <trkpt lat="46.18923" lon="6.822">
        <ele>1997.76</ele>
        <time>2014-06-27T15:00:15Z</time>
      </trkpt>
      <trkpt lat="46.18937" lon="6.8217">
        <ele>2000.64</ele>
        <time>2014-06-27T15:00:24Z</time>
      </trkpt>
      <trkpt lat="46.18945" lon="6.82153">
        <ele>2004.49</ele>
        <time>2014-06-27T15:00:29Z</time>
      </trkpt>
      <trkpt lat="46.1895" lon="6.8214">
        <ele>2008.33</ele>
        <time>2014-06-27T15:00:33Z</time>
      </trkpt>
      <trkpt lat="46.18956" lon="6.82126">
        <ele>2011.7</ele>
        <time>2014-06-27T15:00:37Z</time>
      </trkpt>
      <trkpt lat="46.18961" lon="6.82113">
        <ele>2015.06</ele>
        <time>2014-06-27T15:00:41Z</time>
      </trkpt>
      <trkpt lat="46.18964" lon="6.82107">
        <ele>2016.02</ele>
        <time>2014-06-27T15:00:43Z</time>
      </trkpt>
      <trkpt lat="46.18965" lon="6.82103">
        <ele>2016.5</ele>
        <time>2014-06-27T15:00:44Z</time>
      </trkpt>
      <trkpt lat="46.18972" lon="6.82085">
        <ele>2021.31</ele>
        <time>2014-06-27T15:00:50Z</time>
      </trkpt>
      <trkpt lat="46.18977" lon="6.82076">
        <ele>2025.15</ele>
        <time>2014-06-27T15:00:53Z</time>
      </trkpt>
      <trkpt lat="46.1898" lon="6.82071">
        <ele>2028.52</ele>
        <time>2014-06-27T15:00:55Z</time>
      </trkpt>
      <trkpt lat="46.18982" lon="6.82064">
        <ele>2032.84</ele>
        <time>2014-06-27T15:00:57Z</time>
      </trkpt>
      <trkpt lat="46.18985" lon="6.82058">
        <ele>2037.17</ele>
        <time>2014-06-27T15:00:59Z</time>
      </trkpt>
      <trkpt lat="46.18987" lon="6.82053">
        <ele>2041.98</ele>
        <time>2014-06-27T15:01:01Z</time>
      </trkpt>
      <trkpt lat="46.1899" lon="6.82047">
        <ele>2045.82</ele>
        <time>2014-06-27T15:01:03Z</time>
      </trkpt>
      <trkpt lat="46.18993" lon="6.82041">
        <ele>2049.19</ele>
        <time>2014-06-27T15:01:05Z</time>
      </trkpt>
      <trkpt lat="46.18997" lon="6.82032">
        <ele>2053.03</ele>
        <time>2014-06-27T15:01:08Z</time>
      </trkpt>
      <trkpt lat="46.18999" lon="6.82028">
        <ele>2053.03</ele>
        <time>2014-06-27T15:01:09Z</time>
      </trkpt>
      <trkpt lat="46.19003" lon="6.82019">
        <ele>2056.4</ele>
        <time>2014-06-27T15:01:12Z</time>
      </trkpt>
      <trkpt lat="46.19007" lon="6.8201">
        <ele>2059.76</ele>
        <time>2014-06-27T15:01:15Z</time>
      </trkpt>
      <trkpt lat="46.19011" lon="6.82001">
        <ele>2064.57</ele>
        <time>2014-06-27T15:01:18Z</time>
      </trkpt>
      <trkpt lat="46.19014" lon="6.81995">
        <ele>2067.93</ele>
        <time>2014-06-27T15:01:20Z</time>
      </trkpt>
      <trkpt lat="46.19017" lon="6.81989">
        <ele>2071.78</ele>
        <time>2014-06-27T15:01:22Z</time>
      </trkpt>
      <trkpt lat="46.1902" lon="6.81983">
        <ele>2075.62</ele>
        <time>2014-06-27T15:01:24Z</time>
      </trkpt>
      <trkpt lat="46.19022" lon="6.81977">
        <ele>2079.47</ele>
        <time>2014-06-27T15:01:26Z</time>
      </trkpt>
      <trkpt lat="46.19025" lon="6.81971">
        <ele>2082.35</ele>
        <time>2014-06-27T15:01:28Z</time>
      </trkpt>
      <trkpt lat="46.19027" lon="6.81965">
        <ele>2085.72</ele>
        <time>2014-06-27T15:01:30Z</time>
      </trkpt>
      <trkpt lat="46.1903" lon="6.81959">
        <ele>2088.6</ele>
        <time>2014-06-27T15:01:32Z</time>
      </trkpt>
      <trkpt lat="46.19034" lon="6.8195">
        <ele>2091.97</ele>
        <time>2014-06-27T15:01:35Z</time>
      </trkpt>
      <trkpt lat="46.19038" lon="6.81942">
        <ele>2096.77</ele>
        <time>2014-06-27T15:01:38Z</time>
      </trkpt>
      <trkpt lat="46.19041" lon="6.81937">
        <ele>2100.14</ele>
        <time>2014-06-27T15:01:40Z</time>
      </trkpt>
      <trkpt lat="46.19043" lon="6.81931">
        <ele>2103.5</ele>
        <time>2014-06-27T15:01:42Z</time>
      </trkpt>
      <trkpt lat="46.19046" lon="6.81925">
        <ele>2107.35</ele>
        <time>2014-06-27T15:01:44Z</time>
      </trkpt>
      <trkpt lat="46.19048" lon="6.8192">
        <ele>2111.19</ele>
        <time>2014-06-27T15:01:46Z</time>
      </trkpt>
      <trkpt lat="46.19051" lon="6.81914">
        <ele>2115.04</ele>
        <time>2014-06-27T15:01:48Z</time>
      </trkpt>
      <trkpt lat="46.19053" lon="6.81908">
        <ele>2118.4</ele>
        <time>2014-06-27T15:01:50Z</time>
      </trkpt>
      <trkpt lat="46.19056" lon="6.81903">
        <ele>2121.77</ele>
        <time>2014-06-27T15:01:52Z</time>
      </trkpt>
      <trkpt lat="46.19058" lon="6.81897">
        <ele>2125.13</ele>
        <time>2014-06-27T15:01:54Z</time>
      </trkpt>
      <trkpt lat="46.1906" lon="6.81891">
        <ele>2128.98</ele>
        <time>2014-06-27T15:01:56Z</time>
      </trkpt>
      <trkpt lat="46.19063" lon="6.81886">
        <ele>2132.34</ele>
        <time>2014-06-27T15:01:58Z</time>
      </trkpt>
      <trkpt lat="46.19067" lon="6.81878">
        <ele>2136.19</ele>
        <time>2014-06-27T15:02:01Z</time>
      </trkpt>
      <trkpt lat="46.19069" lon="6.81873">
        <ele>2139.55</ele>
        <time>2014-06-27T15:02:03Z</time>
      </trkpt>
      <trkpt lat="46.19071" lon="6.81867">
        <ele>2142.92</ele>
        <time>2014-06-27T15:02:05Z</time>
      </trkpt>
      <trkpt lat="46.19074" lon="6.81861">
        <ele>2146.28</ele>
        <time>2014-06-27T15:02:07Z</time>
      </trkpt>
      <trkpt lat="46.19076" lon="6.81855">
        <ele>2149.65</ele>
        <time>2014-06-27T15:02:09Z</time>
      </trkpt>
      <trkpt lat="46.19079" lon="6.81849">
        <ele>2153.01</ele>
        <time>2014-06-27T15:02:11Z</time>
      </trkpt>
      <trkpt lat="46.19083" lon="6.81841">
        <ele>2157.34</ele>
        <time>2014-06-27T15:02:14Z</time>
      </trkpt>
      <trkpt lat="46.19087" lon="6.81832">
        <ele>2161.18</ele>
        <time>2014-06-27T15:02:17Z</time>
      </trkpt>
      <trkpt lat="46.1909" lon="6.81823">
        <ele>2165.99</ele>
        <time>2014-06-27T15:02:20Z</time>
      </trkpt>
      <trkpt lat="46.19093" lon="6.81817">
        <ele>2169.35</ele>
        <time>2014-06-27T15:02:22Z</time>
      </trkpt>
      <trkpt lat="46.19097" lon="6.81808">
        <ele>2173.2</ele>
        <time>2014-06-27T15:02:25Z</time>
      </trkpt>
      <trkpt lat="46.19099" lon="6.81802">
        <ele>2176.56</ele>
        <time>2014-06-27T15:02:27Z</time>
      </trkpt>
      <trkpt lat="46.19101" lon="6.81797">
        <ele>2179.45</ele>
        <time>2014-06-27T15:02:29Z</time>
      </trkpt>
      <trkpt lat="46.19104" lon="6.81791">
        <ele>2182.81</ele>
        <time>2014-06-27T15:02:31Z</time>
      </trkpt>
      <trkpt lat="46.19108" lon="6.81782">
        <ele>2187.14</ele>
        <time>2014-06-27T15:02:34Z</time>
      </trkpt>
      <trkpt lat="46.19112" lon="6.81772">
        <ele>2190.5</ele>
        <time>2014-06-27T15:02:37Z</time>
      </trkpt>
      <trkpt lat="46.19119" lon="6.81756">
        <ele>2193.39</ele>
        <time>2014-06-27T15:02:42Z</time>
      </trkpt>
      <trkpt lat="46.19124" lon="6.81742">
        <ele>2196.75</ele>
        <time>2014-06-27T15:02:46Z</time>
      </trkpt>
      <trkpt lat="46.19128" lon="6.81732">
        <ele>2200.59</ele>
        <time>2014-06-27T15:02:49Z</time>
      </trkpt>
      <trkpt lat="46.19132" lon="6.81722">
        <ele>2204.44</ele>
        <time>2014-06-27T15:02:52Z</time>
      </trkpt>
      <trkpt lat="46.19136" lon="6.81712">
        <ele>2207.32</ele>
        <time>2014-06-27T15:02:55Z</time>
      </trkpt>
      <trkpt lat="46.1914" lon="6.81702">
        <ele>2210.69</ele>
        <time>2014-06-27T15:02:58Z</time>
      </trkpt>
      <trkpt lat="46.19144" lon="6.81693">
        <ele>2214.05</ele>
        <time>2014-06-27T15:03:01Z</time>
      </trkpt>
      <trkpt lat="46.19148" lon="6.81683">
        <ele>2216.94</ele>
        <time>2014-06-27T15:03:04Z</time>
      </trkpt>
      <trkpt lat="46.19153" lon="6.81673">
        <ele>2220.3</ele>
        <time>2014-06-27T15:03:07Z</time>
      </trkpt>
      <trkpt lat="46.19157" lon="6.81664">
        <ele>2223.67</ele>
        <time>2014-06-27T15:03:10Z</time>
      </trkpt>
      <trkpt lat="46.19161" lon="6.81654">
        <ele>2227.03</ele>
        <time>2014-06-27T15:03:13Z</time>
      </trkpt>
      <trkpt lat="46.19165" lon="6.81644">
        <ele>2230.4</ele>
        <time>2014-06-27T15:03:16Z</time>
      </trkpt>
      <trkpt lat="46.19169" lon="6.81635">
        <ele>2233.76</ele>
        <time>2014-06-27T15:03:19Z</time>
      </trkpt>
      <trkpt lat="46.19173" lon="6.81626">
        <ele>2236.16</ele>
        <time>2014-06-27T15:03:22Z</time>
      </trkpt>
      <trkpt lat="46.19179" lon="6.81613">
        <ele>2240.01</ele>
        <time>2014-06-27T15:03:26Z</time>
      </trkpt>
      <trkpt lat="46.1919" lon="6.81588">
        <ele>2236.64</ele>
        <time>2014-06-27T15:03:35Z</time>
      </trkpt>
      <trkpt lat="46.1919" lon="6.81586">
        <ele>2236.16</ele>
        <time>2014-06-27T15:03:44Z</time>
      </trkpt>
      <trkpt lat="46.19191" lon="6.81584">
        <ele>2236.16</ele>
        <time>2014-06-27T15:03:46Z</time>
      </trkpt>
      <trkpt lat="46.19191" lon="6.81581">
        <ele>2236.16</ele>
        <time>2014-06-27T15:03:48Z</time>
      </trkpt>
      <trkpt lat="46.19196" lon="6.81573">
        <ele>2236.16</ele>
        <time>2014-06-27T15:04:03Z</time>
      </trkpt>
      <trkpt lat="46.19196" lon="6.81573">
        <ele>2236.16</ele>
        <time>2014-06-27T15:04:22Z</time>
      </trkpt>
      <trkpt lat="46.19196" lon="6.81572">
        <ele>2236.16</ele>
        <time>2014-06-27T15:04:39Z</time>
      </trkpt>
      <trkpt lat="46.19194" lon="6.81553">
        <ele>2236.16</ele>
        <time>2014-06-27T15:04:48Z</time>
      </trkpt>
      <trkpt lat="46.19176" lon="6.81495">
        <ele>2234.24</ele>
        <time>2014-06-27T15:05:01Z</time>
      </trkpt>
      <trkpt lat="46.19166" lon="6.81484">
        <ele>2232.32</ele>
        <time>2014-06-27T15:05:04Z</time>
      </trkpt>
      <trkpt lat="46.19144" lon="6.81473">
        <ele>2227.51</ele>
        <time>2014-06-27T15:05:08Z</time>
      </trkpt>
      <trkpt lat="46.19124" lon="6.81471">
        <ele>2224.15</ele>
        <time>2014-06-27T15:05:11Z</time>
      </trkpt>
      <trkpt lat="46.19111" lon="6.81472">
        <ele>2221.74</ele>
        <time>2014-06-27T15:05:13Z</time>
      </trkpt>
      <trkpt lat="46.19087" lon="6.8148">
        <ele>2217.9</ele>
        <time>2014-06-27T15:05:17Z</time>
      </trkpt>
      <trkpt lat="46.1906" lon="6.81506">
        <ele>2212.61</ele>
        <time>2014-06-27T15:05:24Z</time>
      </trkpt>
      <trkpt lat="46.19041" lon="6.81537">
        <ele>2212.13</ele>
        <time>2014-06-27T15:05:33Z</time>
      </trkpt>
      <trkpt lat="46.19038" lon="6.81541">
        <ele>2211.17</ele>
        <time>2014-06-27T15:05:40Z</time>
      </trkpt>
      <trkpt lat="46.19035" lon="6.81554">
        <ele>2211.17</ele>
        <time>2014-06-27T15:05:44Z</time>
      </trkpt>
      <trkpt lat="46.19022" lon="6.81586">
        <ele>2209.73</ele>
        <time>2014-06-27T15:05:49Z</time>
      </trkpt>
      <trkpt lat="46.19008" lon="6.81606">
        <ele>2207.32</ele>
        <time>2014-06-27T15:05:52Z</time>
      </trkpt>
      <trkpt lat="46.18988" lon="6.81631">
        <ele>2202.04</ele>
        <time>2014-06-27T15:05:56Z</time>
      </trkpt>
      <trkpt lat="46.18973" lon="6.81648">
        <ele>2197.71</ele>
        <time>2014-06-27T15:05:59Z</time>
      </trkpt>
      <trkpt lat="46.18963" lon="6.8166">
        <ele>2196.27</ele>
        <time>2014-06-27T15:06:01Z</time>
      </trkpt>
      <trkpt lat="46.18954" lon="6.8167">
        <ele>2193.87</ele>
        <time>2014-06-27T15:06:03Z</time>
      </trkpt>
      <trkpt lat="46.18933" lon="6.81685">
        <ele>2189.06</ele>
        <time>2014-06-27T15:06:07Z</time>
      </trkpt>
      <trkpt lat="46.18916" lon="6.81693">
        <ele>2185.21</ele>
        <time>2014-06-27T15:06:10Z</time>
      </trkpt>
      <trkpt lat="46.18906" lon="6.81695">
        <ele>2182.33</ele>
        <time>2014-06-27T15:06:12Z</time>
      </trkpt>
      <trkpt lat="46.18886" lon="6.81695">
        <ele>2176.56</ele>
        <time>2014-06-27T15:06:16Z</time>
      </trkpt>
      <trkpt lat="46.18867" lon="6.81697">
        <ele>2173.2</ele>
        <time>2014-06-27T15:06:19Z</time>
      </trkpt>
      <trkpt lat="46.18853" lon="6.81714">
        <ele>2168.87</ele>
        <time>2014-06-27T15:06:24Z</time>
      </trkpt>
      <trkpt lat="46.18873" lon="6.81717">
        <ele>2168.39</ele>
        <time>2014-06-27T15:06:31Z</time>
      </trkpt>
      <trkpt lat="46.18882" lon="6.81714">
        <ele>2168.39</ele>
        <time>2014-06-27T15:06:33Z</time>
      </trkpt>
      <trkpt lat="46.18911" lon="6.81727">
        <ele>2168.39</ele>
        <time>2014-06-27T15:06:42Z</time>
      </trkpt>
      <trkpt lat="46.18943" lon="6.81739">
        <ele>2166.95</ele>
        <time>2014-06-27T15:06:50Z</time>
      </trkpt>
      <trkpt lat="46.18949" lon="6.81752">
        <ele>2165.03</ele>
        <time>2014-06-27T15:06:52Z</time>
      </trkpt>
      <trkpt lat="46.18969" lon="6.81765">
        <ele>2159.74</ele>
        <time>2014-06-27T15:06:57Z</time>
      </trkpt>
      <trkpt lat="46.18989" lon="6.81764">
        <ele>2157.82</ele>
        <time>2014-06-27T15:07:01Z</time>
      </trkpt>
      <trkpt lat="46.19" lon="6.81768">
        <ele>2157.34</ele>
        <time>2014-06-27T15:07:04Z</time>
      </trkpt>
      <trkpt lat="46.19023" lon="6.81814">
        <ele>2157.34</ele>
        <time>2014-06-27T15:07:11Z</time>
      </trkpt>
      <trkpt lat="46.19046" lon="6.81808">
        <ele>2153.49</ele>
        <time>2014-06-27T15:07:15Z</time>
      </trkpt>
      <trkpt lat="46.19058" lon="6.81813">
        <ele>2150.13</ele>
        <time>2014-06-27T15:07:17Z</time>
      </trkpt>
      <trkpt lat="46.19073" lon="6.8183">
        <ele>2146.28</ele>
        <time>2014-06-27T15:07:20Z</time>
      </trkpt>
      <trkpt lat="46.19078" lon="6.81849">
        <ele>2143.4</ele>
        <time>2014-06-27T15:07:22Z</time>
      </trkpt>
      <trkpt lat="46.19083" lon="6.81866">
        <ele>2140.51</ele>
        <time>2014-06-27T15:07:24Z</time>
      </trkpt>
      <trkpt lat="46.19092" lon="6.81882">
        <ele>2138.11</ele>
        <time>2014-06-27T15:07:26Z</time>
      </trkpt>
      <trkpt lat="46.19109" lon="6.81912">
        <ele>2133.78</ele>
        <time>2014-06-27T15:07:30Z</time>
      </trkpt>
      <trkpt lat="46.19114" lon="6.81918">
        <ele>2132.34</ele>
        <time>2014-06-27T15:07:31Z</time>
      </trkpt>
      <trkpt lat="46.19131" lon="6.8194">
        <ele>2126.09</ele>
        <time>2014-06-27T15:07:35Z</time>
      </trkpt>
      <trkpt lat="46.19135" lon="6.81954">
        <ele>2122.73</ele>
        <time>2014-06-27T15:07:37Z</time>
      </trkpt>
      <trkpt lat="46.19135" lon="6.81971">
        <ele>2119.36</ele>
        <time>2014-06-27T15:07:39Z</time>
      </trkpt>
      <trkpt lat="46.19135" lon="6.81999">
        <ele>2114.08</ele>
        <time>2014-06-27T15:07:42Z</time>
      </trkpt>
      <trkpt lat="46.19144" lon="6.82031">
        <ele>2108.79</ele>
        <time>2014-06-27T15:07:46Z</time>
      </trkpt>
      <trkpt lat="46.19156" lon="6.82053">
        <ele>2103.98</ele>
        <time>2014-06-27T15:07:49Z</time>
      </trkpt>
      <trkpt lat="46.19163" lon="6.82068">
        <ele>2101.1</ele>
        <time>2014-06-27T15:07:51Z</time>
      </trkpt>
      <trkpt lat="46.19173" lon="6.82094">
        <ele>2096.77</ele>
        <time>2014-06-27T15:07:54Z</time>
      </trkpt>
      <trkpt lat="46.19179" lon="6.8211">
        <ele>2093.41</ele>
        <time>2014-06-27T15:07:56Z</time>
      </trkpt>
      <trkpt lat="46.19184" lon="6.82121">
        <ele>2090.52</ele>
        <time>2014-06-27T15:07:58Z</time>
      </trkpt>
      <trkpt lat="46.19187" lon="6.82125">
        <ele>2087.64</ele>
        <time>2014-06-27T15:08:00Z</time>
      </trkpt>
      <trkpt lat="46.19212" lon="6.82123">
        <ele>2087.64</ele>
        <time>2014-06-27T15:08:08Z</time>
      </trkpt>
      <trkpt lat="46.19218" lon="6.82126">
        <ele>2088.6</ele>
        <time>2014-06-27T15:08:09Z</time>
      </trkpt>
      <trkpt lat="46.1923" lon="6.82125">
        <ele>2085.24</ele>
        <time>2014-06-27T15:08:13Z</time>
      </trkpt>
      <trkpt lat="46.1923" lon="6.82115">
        <ele>2082.35</ele>
        <time>2014-06-27T15:08:15Z</time>
      </trkpt>
      <trkpt lat="46.19226" lon="6.82084">
        <ele>2075.62</ele>
        <time>2014-06-27T15:08:19Z</time>
      </trkpt>
      <trkpt lat="46.19225" lon="6.82078">
        <ele>2074.66</ele>
        <time>2014-06-27T15:08:20Z</time>
      </trkpt>
      <trkpt lat="46.19233" lon="6.82065">
        <ele>2069.86</ele>
        <time>2014-06-27T15:08:24Z</time>
      </trkpt>
      <trkpt lat="46.19237" lon="6.82071">
        <ele>2068.89</ele>
        <time>2014-06-27T15:08:26Z</time>
      </trkpt>
      <trkpt lat="46.19264" lon="6.82103">
        <ele>2065.05</ele>
        <time>2014-06-27T15:08:34Z</time>
      </trkpt>
      <trkpt lat="46.19292" lon="6.82108">
        <ele>2060.24</ele>
        <time>2014-06-27T15:08:39Z</time>
      </trkpt>
      <trkpt lat="46.19298" lon="6.82106">
        <ele>2058.8</ele>
        <time>2014-06-27T15:08:40Z</time>
      </trkpt>
      <trkpt lat="46.19309" lon="6.82101">
        <ele>2056.4</ele>
        <time>2014-06-27T15:08:42Z</time>
      </trkpt>
      <trkpt lat="46.19332" lon="6.82099">
        <ele>2051.11</ele>
        <time>2014-06-27T15:08:46Z</time>
      </trkpt>
      <trkpt lat="46.19339" lon="6.82099">
        <ele>2049.67</ele>
        <time>2014-06-27T15:08:47Z</time>
      </trkpt>
      <trkpt lat="46.19364" lon="6.82092">
        <ele>2043.9</ele>
        <time>2014-06-27T15:08:51Z</time>
      </trkpt>
      <trkpt lat="46.19377" lon="6.82086">
        <ele>2040.54</ele>
        <time>2014-06-27T15:08:53Z</time>
      </trkpt>
      <trkpt lat="46.19389" lon="6.82081">
        <ele>2036.69</ele>
        <time>2014-06-27T15:08:55Z</time>
      </trkpt>
      <trkpt lat="46.19408" lon="6.82073">
        <ele>2032.36</ele>
        <time>2014-06-27T15:08:58Z</time>
      </trkpt>
      <trkpt lat="46.19429" lon="6.82068">
        <ele>2028.04</ele>
        <time>2014-06-27T15:09:01Z</time>
      </trkpt>
      <trkpt lat="46.1945" lon="6.82061">
        <ele>2024.67</ele>
        <time>2014-06-27T15:09:04Z</time>
      </trkpt>
      <trkpt lat="46.19478" lon="6.82052">
        <ele>2020.35</ele>
        <time>2014-06-27T15:09:08Z</time>
      </trkpt>
      <trkpt lat="46.19497" lon="6.82044">
        <ele>2016.02</ele>
        <time>2014-06-27T15:09:11Z</time>
      </trkpt>
      <trkpt lat="46.19516" lon="6.82032">
        <ele>2011.22</ele>
        <time>2014-06-27T15:09:14Z</time>
      </trkpt>
      <trkpt lat="46.19529" lon="6.82022">
        <ele>2008.33</ele>
        <time>2014-06-27T15:09:16Z</time>
      </trkpt>
      <trkpt lat="46.19544" lon="6.82011">
        <ele>2005.45</ele>
        <time>2014-06-27T15:09:18Z</time>
      </trkpt>
      <trkpt lat="46.19558" lon="6.81999">
        <ele>2002.08</ele>
        <time>2014-06-27T15:09:20Z</time>
      </trkpt>
      <trkpt lat="46.19574" lon="6.81988">
        <ele>1998.72</ele>
        <time>2014-06-27T15:09:22Z</time>
      </trkpt>
      <trkpt lat="46.19599" lon="6.81973">
        <ele>1994.87</ele>
        <time>2014-06-27T15:09:25Z</time>
      </trkpt>
      <trkpt lat="46.19606" lon="6.81968">
        <ele>1993.91</ele>
        <time>2014-06-27T15:09:26Z</time>
      </trkpt>
      <trkpt lat="46.19637" lon="6.81931">
        <ele>1992.95</ele>
        <time>2014-06-27T15:09:31Z</time>
      </trkpt>
      <trkpt lat="46.19679" lon="6.81823">
        <ele>1992.47</ele>
        <time>2014-06-27T15:09:41Z</time>
      </trkpt>
      <trkpt lat="46.19683" lon="6.81812">
        <ele>1991.51</ele>
        <time>2014-06-27T15:09:42Z</time>
      </trkpt>
      <trkpt lat="46.19696" lon="6.81764">
        <ele>1987.18</ele>
        <time>2014-06-27T15:09:46Z</time>
      </trkpt>
      <trkpt lat="46.19702" lon="6.81739">
        <ele>1984.3</ele>
        <time>2014-06-27T15:09:48Z</time>
      </trkpt>
      <trkpt lat="46.19705" lon="6.81728">
        <ele>1982.86</ele>
        <time>2014-06-27T15:09:49Z</time>
      </trkpt>
      <trkpt lat="46.19708" lon="6.81671">
        <ele>1984.78</ele>
        <time>2014-06-27T15:09:56Z</time>
      </trkpt>
      <trkpt lat="46.19706" lon="6.81646">
        <ele>1989.59</ele>
        <time>2014-06-27T15:10:00Z</time>
      </trkpt>
      <trkpt lat="46.19706" lon="6.81622">
        <ele>1991.51</ele>
        <time>2014-06-27T15:10:03Z</time>
      </trkpt>
      <trkpt lat="46.19711" lon="6.81581">
        <ele>1986.7</ele>
        <time>2014-06-27T15:10:08Z</time>
      </trkpt>
      <trkpt lat="46.19712" lon="6.81574">
        <ele>1984.78</ele>
        <time>2014-06-27T15:10:09Z</time>
      </trkpt>
      <trkpt lat="46.19711" lon="6.81552">
        <ele>1977.09</ele>
        <time>2014-06-27T15:10:12Z</time>
      </trkpt>
      <trkpt lat="46.19707" lon="6.81546">
        <ele>1975.17</ele>
        <time>2014-06-27T15:10:13Z</time>
      </trkpt>
      <trkpt lat="46.19695" lon="6.81514">
        <ele>1971.32</ele>
        <time>2014-06-27T15:10:17Z</time>
      </trkpt>
      <trkpt lat="46.19692" lon="6.81496">
        <ele>1972.76</ele>
        <time>2014-06-27T15:10:19Z</time>
      </trkpt>
      <trkpt lat="46.19684" lon="6.81471">
        <ele>1974.69</ele>
        <time>2014-06-27T15:10:22Z</time>
      </trkpt>
      <trkpt lat="46.19683" lon="6.81445">
        <ele>1976.13</ele>
        <time>2014-06-27T15:10:25Z</time>
      </trkpt>
      <trkpt lat="46.19683" lon="6.81409">
        <ele>1976.61</ele>
        <time>2014-06-27T15:10:29Z</time>
      </trkpt>
      <trkpt lat="46.19661" lon="6.81351">
        <ele>1976.61</ele>
        <time>2014-06-27T15:10:39Z</time>
      </trkpt>
      <trkpt lat="46.19656" lon="6.81314">
        <ele>1978.05</ele>
        <time>2014-06-27T15:10:49Z</time>
      </trkpt>
      <trkpt lat="46.19664" lon="6.81306">
        <ele>1981.41</ele>
        <time>2014-06-27T15:10:54Z</time>
      </trkpt>
      <trkpt lat="46.19672" lon="6.81295">
        <ele>1983.82</ele>
        <time>2014-06-27T15:11:00Z</time>
      </trkpt>
      <trkpt lat="46.19699" lon="6.81292">
        <ele>1980.45</ele>
        <time>2014-06-27T15:11:07Z</time>
      </trkpt>
      <trkpt lat="46.1972" lon="6.81294">
        <ele>1976.13</ele>
        <time>2014-06-27T15:11:12Z</time>
      </trkpt>
      <trkpt lat="46.19742" lon="6.8129">
        <ele>1975.17</ele>
        <time>2014-06-27T15:11:17Z</time>
      </trkpt>
      <trkpt lat="46.1975" lon="6.81283">
        <ele>1973.72</ele>
        <time>2014-06-27T15:11:19Z</time>
      </trkpt>
      <trkpt lat="46.19769" lon="6.81263">
        <ele>1969.4</ele>
        <time>2014-06-27T15:11:24Z</time>
      </trkpt>
      <trkpt lat="46.1978" lon="6.81247">
        <ele>1966.51</ele>
        <time>2014-06-27T15:11:27Z</time>
      </trkpt>
      <trkpt lat="46.19813" lon="6.8119">
        <ele>1966.99</ele>
        <time>2014-06-27T15:11:35Z</time>
      </trkpt>
      <trkpt lat="46.19808" lon="6.81146">
        <ele>1966.51</ele>
        <time>2014-06-27T15:11:41Z</time>
      </trkpt>
      <trkpt lat="46.19805" lon="6.8114">
        <ele>1966.51</ele>
        <time>2014-06-27T15:11:42Z</time>
      </trkpt>
      <trkpt lat="46.19795" lon="6.81128">
        <ele>1966.51</ele>
        <time>2014-06-27T15:11:44Z</time>
      </trkpt>
      <trkpt lat="46.19776" lon="6.81084">
        <ele>1966.51</ele>
        <time>2014-06-27T15:11:51Z</time>
      </trkpt>
      <trkpt lat="46.19774" lon="6.81061">
        <ele>1966.51</ele>
        <time>2014-06-27T15:11:56Z</time>
      </trkpt>
      <trkpt lat="46.19777" lon="6.81043">
        <ele>1967.48</ele>
        <time>2014-06-27T15:12:00Z</time>
      </trkpt>
      <trkpt lat="46.19803" lon="6.81008">
        <ele>1967.96</ele>
        <time>2014-06-27T15:12:07Z</time>
      </trkpt>
      <trkpt lat="46.19805" lon="6.80988">
        <ele>1967.96</ele>
        <time>2014-06-27T15:12:11Z</time>
      </trkpt>
      <trkpt lat="46.19799" lon="6.80961">
        <ele>1966.99</ele>
        <time>2014-06-27T15:12:17Z</time>
      </trkpt>
      <trkpt lat="46.19798" lon="6.80953">
        <ele>1966.99</ele>
        <time>2014-06-27T15:12:29Z</time>
      </trkpt>
      <trkpt lat="46.19797" lon="6.80947">
        <ele>1966.99</ele>
        <time>2014-06-27T15:12:42Z</time>
      </trkpt>
      <trkpt lat="46.19796" lon="6.80948">
        <ele>1966.99</ele>
        <time>2014-06-27T15:12:48Z</time>
      </trkpt>
      <trkpt lat="46.19786" lon="6.80926">
        <ele>1966.99</ele>
        <time>2014-06-27T15:13:01Z</time>
      </trkpt>
      <trkpt lat="46.19776" lon="6.80909">
        <ele>1966.99</ele>
        <time>2014-06-27T15:13:12Z</time>
      </trkpt>
      <trkpt lat="46.19776" lon="6.80905">
        <ele>1968.44</ele>
        <time>2014-06-27T15:13:15Z</time>
      </trkpt>
      <trkpt lat="46.19776" lon="6.80905">
        <ele>1968.44</ele>
        <time>2014-06-27T15:13:20Z</time>
      </trkpt>
      <trkpt lat="46.1978" lon="6.80894">
        <ele>1968.44</ele>
        <time>2014-06-27T15:13:24Z</time>
      </trkpt>
      <trkpt lat="46.19785" lon="6.80879">
        <ele>1969.4</ele>
        <time>2014-06-27T15:13:34Z</time>
      </trkpt>
      <trkpt lat="46.19785" lon="6.80878">
        <ele>1969.4</ele>
        <time>2014-06-27T15:13:35Z</time>
      </trkpt>
      <trkpt lat="46.19785" lon="6.80869">
        <ele>1969.4</ele>
        <time>2014-06-27T15:13:39Z</time>
      </trkpt>
      <trkpt lat="46.19785" lon="6.80862">
        <ele>1969.4</ele>
        <time>2014-06-27T15:13:41Z</time>
      </trkpt>
      <trkpt lat="46.19781" lon="6.80847">
        <ele>1970.84</ele>
        <time>2014-06-27T15:13:48Z</time>
      </trkpt>
      <trkpt lat="46.19772" lon="6.8084">
        <ele>1971.32</ele>
        <time>2014-06-27T15:13:53Z</time>
      </trkpt>
      <trkpt lat="46.1976" lon="6.80828">
        <ele>1972.76</ele>
        <time>2014-06-27T15:14:02Z</time>
      </trkpt>
      <trkpt lat="46.1976" lon="6.80821">
        <ele>1972.76</ele>
        <time>2014-06-27T15:14:05Z</time>
      </trkpt>
      <trkpt lat="46.19761" lon="6.80814">
        <ele>1974.69</ele>
        <time>2014-06-27T15:14:13Z</time>
      </trkpt>
      <trkpt lat="46.19757" lon="6.80789">
        <ele>1976.13</ele>
        <time>2014-06-27T15:14:27Z</time>
      </trkpt>
      <trkpt lat="46.19748" lon="6.80776">
        <ele>1978.05</ele>
        <time>2014-06-27T15:14:39Z</time>
      </trkpt>
      <trkpt lat="46.19743" lon="6.80759">
        <ele>1979.97</ele>
        <time>2014-06-27T15:14:51Z</time>
      </trkpt>
      <trkpt lat="46.19743" lon="6.80757">
        <ele>1979.97</ele>
        <time>2014-06-27T15:14:52Z</time>
      </trkpt>
      <trkpt lat="46.19732" lon="6.80729">
        <ele>1982.86</ele>
        <time>2014-06-27T15:15:10Z</time>
      </trkpt>
      <trkpt lat="46.19726" lon="6.80714">
        <ele>1982.86</ele>
        <time>2014-06-27T15:15:19Z</time>
      </trkpt>
      <trkpt lat="46.19713" lon="6.80706">
        <ele>1983.82</ele>
        <time>2014-06-27T15:15:26Z</time>
      </trkpt>
      <trkpt lat="46.19703" lon="6.80697">
        <ele>1984.3</ele>
        <time>2014-06-27T15:15:31Z</time>
      </trkpt>
      <trkpt lat="46.19703" lon="6.8068">
        <ele>1984.3</ele>
        <time>2014-06-27T15:15:38Z</time>
      </trkpt>
      <trkpt lat="46.19704" lon="6.80643">
        <ele>1986.22</ele>
        <time>2014-06-27T15:15:50Z</time>
      </trkpt>
      <trkpt lat="46.197" lon="6.80629">
        <ele>1990.07</ele>
        <time>2014-06-27T15:15:55Z</time>
      </trkpt>
      <trkpt lat="46.19698" lon="6.80622">
        <ele>1993.43</ele>
        <time>2014-06-27T15:15:58Z</time>
      </trkpt>
      <trkpt lat="46.19696" lon="6.8061">
        <ele>1995.83</ele>
        <time>2014-06-27T15:16:02Z</time>
      </trkpt>
      <trkpt lat="46.1969" lon="6.80564">
        <ele>1995.83</ele>
        <time>2014-06-27T15:16:15Z</time>
      </trkpt>
      <trkpt lat="46.19699" lon="6.8052">
        <ele>1994.39</ele>
        <time>2014-06-27T15:16:26Z</time>
      </trkpt>
      <trkpt lat="46.19706" lon="6.80479">
        <ele>1994.87</ele>
        <time>2014-06-27T15:16:35Z</time>
      </trkpt>
      <trkpt lat="46.19714" lon="6.80469">
        <ele>1994.87</ele>
        <time>2014-06-27T15:16:38Z</time>
      </trkpt>
      <trkpt lat="46.19729" lon="6.80449">
        <ele>1994.39</ele>
        <time>2014-06-27T15:16:42Z</time>
      </trkpt>
      <trkpt lat="46.19749" lon="6.80421">
        <ele>1990.55</ele>
        <time>2014-06-27T15:16:46Z</time>
      </trkpt>
      <trkpt lat="46.19761" lon="6.80395">
        <ele>1987.18</ele>
        <time>2014-06-27T15:16:49Z</time>
      </trkpt>
      <trkpt lat="46.19783" lon="6.80351">
        <ele>1985.74</ele>
        <time>2014-06-27T15:16:55Z</time>
      </trkpt>
      <trkpt lat="46.19804" lon="6.80304">
        <ele>1984.78</ele>
        <time>2014-06-27T15:17:01Z</time>
      </trkpt>
      <trkpt lat="46.1981" lon="6.80274">
        <ele>1980.93</ele>
        <time>2014-06-27T15:17:05Z</time>
      </trkpt>
      <trkpt lat="46.1982" lon="6.80254">
        <ele>1977.09</ele>
        <time>2014-06-27T15:17:08Z</time>
      </trkpt>
      <trkpt lat="46.19824" lon="6.8023">
        <ele>1974.2</ele>
        <time>2014-06-27T15:17:11Z</time>
      </trkpt>
      <trkpt lat="46.19832" lon="6.80185">
        <ele>1973.24</ele>
        <time>2014-06-27T15:17:16Z</time>
      </trkpt>
      <trkpt lat="46.19835" lon="6.80155">
        <ele>1973.24</ele>
        <time>2014-06-27T15:17:19Z</time>
      </trkpt>
      <trkpt lat="46.19842" lon="6.80127">
        <ele>1973.24</ele>
        <time>2014-06-27T15:17:22Z</time>
      </trkpt>
      <trkpt lat="46.19852" lon="6.80089">
        <ele>1972.76</ele>
        <time>2014-06-27T15:17:26Z</time>
      </trkpt>
      <trkpt lat="46.19872" lon="6.80053">
        <ele>1967.96</ele>
        <time>2014-06-27T15:17:30Z</time>
      </trkpt>
      <trkpt lat="46.19881" lon="6.80037">
        <ele>1965.07</ele>
        <time>2014-06-27T15:17:32Z</time>
      </trkpt>
      <trkpt lat="46.19888" lon="6.80022">
        <ele>1961.71</ele>
        <time>2014-06-27T15:17:34Z</time>
      </trkpt>
      <trkpt lat="46.19898" lon="6.80008">
        <ele>1958.82</ele>
        <time>2014-06-27T15:17:36Z</time>
      </trkpt>
      <trkpt lat="46.19909" lon="6.79981">
        <ele>1953.54</ele>
        <time>2014-06-27T15:17:40Z</time>
      </trkpt>
      <trkpt lat="46.19915" lon="6.79966">
        <ele>1952.09</ele>
        <time>2014-06-27T15:17:42Z</time>
      </trkpt>
      <trkpt lat="46.19939" lon="6.79932">
        <ele>1949.21</ele>
        <time>2014-06-27T15:17:47Z</time>
      </trkpt>
      <trkpt lat="46.1995" lon="6.79922">
        <ele>1947.77</ele>
        <time>2014-06-27T15:17:49Z</time>
      </trkpt>
      <trkpt lat="46.19976" lon="6.79907">
        <ele>1944.4</ele>
        <time>2014-06-27T15:17:53Z</time>
      </trkpt>
      <trkpt lat="46.20006" lon="6.7988">
        <ele>1938.16</ele>
        <time>2014-06-27T15:17:58Z</time>
      </trkpt>
      <trkpt lat="46.20018" lon="6.79866">
        <ele>1936.23</ele>
        <time>2014-06-27T15:18:00Z</time>
      </trkpt>
      <trkpt lat="46.20037" lon="6.79829">
        <ele>1935.27</ele>
        <time>2014-06-27T15:18:05Z</time>
      </trkpt>
      <trkpt lat="46.20054" lon="6.79784">
        <ele>1934.79</ele>
        <time>2014-06-27T15:18:10Z</time>
      </trkpt>
      <trkpt lat="46.20084" lon="6.7977">
        <ele>1930.95</ele>
        <time>2014-06-27T15:18:15Z</time>
      </trkpt>
      <trkpt lat="46.20101" lon="6.79748">
        <ele>1925.66</ele>
        <time>2014-06-27T15:18:20Z</time>
      </trkpt>
      <trkpt lat="46.20098" lon="6.79734">
        <ele>1923.74</ele>
        <time>2014-06-27T15:18:23Z</time>
      </trkpt>
      <trkpt lat="46.20107" lon="6.79719">
        <ele>1920.85</ele>
        <time>2014-06-27T15:18:29Z</time>
      </trkpt>
      <trkpt lat="46.20097" lon="6.79708">
        <ele>1918.93</ele>
        <time>2014-06-27T15:18:33Z</time>
      </trkpt>
      <trkpt lat="46.20083" lon="6.79684">
        <ele>1914.6</ele>
        <time>2014-06-27T15:18:39Z</time>
      </trkpt>
      <trkpt lat="46.201" lon="6.79683">
        <ele>1911.72</ele>
        <time>2014-06-27T15:18:43Z</time>
      </trkpt>
      <trkpt lat="46.20111" lon="6.79643">
        <ele>1908.35</ele>
        <time>2014-06-27T15:18:49Z</time>
      </trkpt>
      <trkpt lat="46.20121" lon="6.79632">
        <ele>1905.95</ele>
        <time>2014-06-27T15:18:52Z</time>
      </trkpt>
      <trkpt lat="46.2013" lon="6.7962">
        <ele>1902.59</ele>
        <time>2014-06-27T15:18:55Z</time>
      </trkpt>
      <trkpt lat="46.20138" lon="6.79605">
        <ele>1897.78</ele>
        <time>2014-06-27T15:18:58Z</time>
      </trkpt>
      <trkpt lat="46.20139" lon="6.79599">
        <ele>1895.86</ele>
        <time>2014-06-27T15:18:59Z</time>
      </trkpt>
      <trkpt lat="46.20145" lon="6.79575">
        <ele>1891.05</ele>
        <time>2014-06-27T15:19:03Z</time>
      </trkpt>
      <trkpt lat="46.20151" lon="6.79567">
        <ele>1890.09</ele>
        <time>2014-06-27T15:19:05Z</time>
      </trkpt>
      <trkpt lat="46.20161" lon="6.79544">
        <ele>1890.57</ele>
        <time>2014-06-27T15:19:10Z</time>
      </trkpt>
      <trkpt lat="46.20202" lon="6.79479">
        <ele>1888.65</ele>
        <time>2014-06-27T15:19:22Z</time>
      </trkpt>
      <trkpt lat="46.20208" lon="6.79469">
        <ele>1886.24</ele>
        <time>2014-06-27T15:19:24Z</time>
      </trkpt>
      <trkpt lat="46.20221" lon="6.79456">
        <ele>1881.44</ele>
        <time>2014-06-27T15:19:27Z</time>
      </trkpt>
      <trkpt lat="46.20243" lon="6.7943">
        <ele>1877.11</ele>
        <time>2014-06-27T15:19:32Z</time>
      </trkpt>
      <trkpt lat="46.20249" lon="6.79419">
        <ele>1877.59</ele>
        <time>2014-06-27T15:19:34Z</time>
      </trkpt>
      <trkpt lat="46.20267" lon="6.79396">
        <ele>1877.59</ele>
        <time>2014-06-27T15:19:39Z</time>
      </trkpt>
      <trkpt lat="46.20284" lon="6.79368">
        <ele>1877.11</ele>
        <time>2014-06-27T15:19:44Z</time>
      </trkpt>
      <trkpt lat="46.20303" lon="6.79336">
        <ele>1871.34</ele>
        <time>2014-06-27T15:19:50Z</time>
      </trkpt>
      <trkpt lat="46.2032" lon="6.79313">
        <ele>1868.46</ele>
        <time>2014-06-27T15:19:54Z</time>
      </trkpt>
      <trkpt lat="46.20335" lon="6.7928">
        <ele>1866.54</ele>
        <time>2014-06-27T15:19:58Z</time>
      </trkpt>
      <trkpt lat="46.20362" lon="6.7926">
        <ele>1864.61</ele>
        <time>2014-06-27T15:20:04Z</time>
      </trkpt>
      <trkpt lat="46.20379" lon="6.79256">
        <ele>1864.61</ele>
        <time>2014-06-27T15:20:08Z</time>
      </trkpt>
      <trkpt lat="46.20408" lon="6.7925">
        <ele>1864.61</ele>
        <time>2014-06-27T15:20:17Z</time>
      </trkpt>
      <trkpt lat="46.20416" lon="6.79245">
        <ele>1864.61</ele>
        <time>2014-06-27T15:20:19Z</time>
      </trkpt>
      <trkpt lat="46.20425" lon="6.79238">
        <ele>1864.13</ele>
        <time>2014-06-27T15:20:21Z</time>
      </trkpt>
      <trkpt lat="46.20449" lon="6.79228">
        <ele>1859.33</ele>
        <time>2014-06-27T15:20:25Z</time>
      </trkpt>
      <trkpt lat="46.20467" lon="6.79218">
        <ele>1854.04</ele>
        <time>2014-06-27T15:20:28Z</time>
      </trkpt>
      <trkpt lat="46.20482" lon="6.79206">
        <ele>1850.19</ele>
        <time>2014-06-27T15:20:31Z</time>
      </trkpt>
      <trkpt lat="46.20509" lon="6.79194">
        <ele>1845.87</ele>
        <time>2014-06-27T15:20:35Z</time>
      </trkpt>
      <trkpt lat="46.20551" lon="6.79145">
        <ele>1845.39</ele>
        <time>2014-06-27T15:20:43Z</time>
      </trkpt>
      <trkpt lat="46.20581" lon="6.79119">
        <ele>1844.43</ele>
        <time>2014-06-27T15:20:49Z</time>
      </trkpt>
      <trkpt lat="46.20594" lon="6.79104">
        <ele>1841.06</ele>
        <time>2014-06-27T15:20:52Z</time>
      </trkpt>
      <trkpt lat="46.20598" lon="6.79098">
        <ele>1840.58</ele>
        <time>2014-06-27T15:20:53Z</time>
      </trkpt>
      <trkpt lat="46.20627" lon="6.79047">
        <ele>1839.62</ele>
        <time>2014-06-27T15:21:01Z</time>
      </trkpt>
      <trkpt lat="46.20655" lon="6.79024">
        <ele>1834.33</ele>
        <time>2014-06-27T15:21:06Z</time>
      </trkpt>
      <trkpt lat="46.20667" lon="6.79009">
        <ele>1827.6</ele>
        <time>2014-06-27T15:21:09Z</time>
      </trkpt>
      <trkpt lat="46.20671" lon="6.78997">
        <ele>1823.28</ele>
        <time>2014-06-27T15:21:11Z</time>
      </trkpt>
      <trkpt lat="46.20679" lon="6.78988">
        <ele>1819.91</ele>
        <time>2014-06-27T15:21:13Z</time>
      </trkpt>
      <trkpt lat="46.20686" lon="6.78981">
        <ele>1817.03</ele>
        <time>2014-06-27T15:21:15Z</time>
      </trkpt>
      <trkpt lat="46.20697" lon="6.78973">
        <ele>1815.59</ele>
        <time>2014-06-27T15:21:18Z</time>
      </trkpt>
      <trkpt lat="46.20698" lon="6.78958">
        <ele>1818.95</ele>
        <time>2014-06-27T15:21:24Z</time>
      </trkpt>
      <trkpt lat="46.20698" lon="6.78959">
        <ele>1819.91</ele>
        <time>2014-06-27T15:21:31Z</time>
      </trkpt>
      <trkpt lat="46.20702" lon="6.78942">
        <ele>1818.47</ele>
        <time>2014-06-27T15:21:40Z</time>
      </trkpt>
      <trkpt lat="46.20706" lon="6.78923">
        <ele>1817.99</ele>
        <time>2014-06-27T15:21:45Z</time>
      </trkpt>
      <trkpt lat="46.20711" lon="6.78907">
        <ele>1817.51</ele>
        <time>2014-06-27T15:21:48Z</time>
      </trkpt>
      <trkpt lat="46.20729" lon="6.78866">
        <ele>1815.11</ele>
        <time>2014-06-27T15:21:59Z</time>
      </trkpt>
      <trkpt lat="46.20736" lon="6.78853">
        <ele>1814.63</ele>
        <time>2014-06-27T15:22:04Z</time>
      </trkpt>
      <trkpt lat="46.20744" lon="6.78831">
        <ele>1813.18</ele>
        <time>2014-06-27T15:22:13Z</time>
      </trkpt>
      <trkpt lat="46.20749" lon="6.78797">
        <ele>1811.74</ele>
        <time>2014-06-27T15:22:24Z</time>
      </trkpt>
      <trkpt lat="46.20749" lon="6.78797">
        <ele>1810.3</ele>
        <time>2014-06-27T15:22:37Z</time>
      </trkpt>
      <trkpt lat="46.20749" lon="6.78796">
        <ele>1809.34</ele>
        <time>2014-06-27T15:23:09Z</time>
      </trkpt>
      <trkpt lat="46.20749" lon="6.78797">
        <ele>1809.34</ele>
        <time>2014-06-27T15:23:44Z</time>
      </trkpt>
      <trkpt lat="46.20749" lon="6.78797">
        <ele>1808.86</ele>
        <time>2014-06-27T15:24:18Z</time>
      </trkpt>
      <trkpt lat="46.20749" lon="6.78797">
        <ele>1808.86</ele>
        <time>2014-06-27T15:24:56Z</time>
      </trkpt>
      <trkpt lat="46.20749" lon="6.78797">
        <ele>1808.86</ele>
        <time>2014-06-27T15:25:31Z</time>
      </trkpt>
      <trkpt lat="46.20748" lon="6.78797">
        <ele>1808.86</ele>
        <time>2014-06-27T15:26:04Z</time>
      </trkpt>
      <trkpt lat="46.20748" lon="6.78796">
        <ele>1808.86</ele>
        <time>2014-06-27T15:26:47Z</time>
      </trkpt>
      <trkpt lat="46.20748" lon="6.78797">
        <ele>1808.86</ele>
        <time>2014-06-27T15:27:22Z</time>
      </trkpt>
      <trkpt lat="46.20748" lon="6.78797">
        <ele>1808.86</ele>
        <time>2014-06-27T15:28:01Z</time>
      </trkpt>
      <trkpt lat="46.20747" lon="6.78796">
        <ele>1808.86</ele>
        <time>2014-06-27T15:28:38Z</time>
      </trkpt>
      <trkpt lat="46.20747" lon="6.78796">
        <ele>1808.86</ele>
        <time>2014-06-27T15:29:20Z</time>
      </trkpt>
      <trkpt lat="46.20747" lon="6.78797">
        <ele>1808.86</ele>
        <time>2014-06-27T15:30:08Z</time>
      </trkpt>
      <trkpt lat="46.20747" lon="6.78797">
        <ele>1808.86</ele>
        <time>2014-06-27T15:30:15Z</time>
      </trkpt>
      <trkpt lat="46.20748" lon="6.78796">
        <ele>1808.86</ele>
        <time>2014-06-27T15:30:27Z</time>
      </trkpt>
      <trkpt lat="46.20748" lon="6.78796">
        <ele>1808.86</ele>
        <time>2014-06-27T15:31:03Z</time>
      </trkpt>
      <trkpt lat="46.20748" lon="6.78796">
        <ele>1808.86</ele>
        <time>2014-06-27T15:31:06Z</time>
      </trkpt>
      <trkpt lat="46.20747" lon="6.78793">
        <ele>1808.86</ele>
        <time>2014-06-27T15:31:17Z</time>
      </trkpt>
      <trkpt lat="46.20747" lon="6.78792">
        <ele>1808.86</ele>
        <time>2014-06-27T15:31:29Z</time>
      </trkpt>
      <trkpt lat="46.20732" lon="6.78782">
        <ele>1808.86</ele>
        <time>2014-06-27T15:31:38Z</time>
      </trkpt>
      <trkpt lat="46.20732" lon="6.78782">
        <ele>1808.86</ele>
        <time>2014-06-27T15:31:47Z</time>
      </trkpt>
      <trkpt lat="46.20711" lon="6.78786">
        <ele>1808.86</ele>
        <time>2014-06-27T15:31:55Z</time>
      </trkpt>
      <trkpt lat="46.20699" lon="6.78781">
        <ele>1807.9</ele>
        <time>2014-06-27T15:31:59Z</time>
      </trkpt>
      <trkpt lat="46.20693" lon="6.78766">
        <ele>1807.42</ele>
        <time>2014-06-27T15:32:04Z</time>
      </trkpt>
      <trkpt lat="46.20677" lon="6.78786">
        <ele>1804.05</ele>
        <time>2014-06-27T15:32:09Z</time>
      </trkpt>
      <trkpt lat="46.20663" lon="6.78777">
        <ele>1800.21</ele>
        <time>2014-06-27T15:32:12Z</time>
      </trkpt>
      <trkpt lat="46.20655" lon="6.78772">
        <ele>1798.76</ele>
        <time>2014-06-27T15:32:14Z</time>
      </trkpt>
      <trkpt lat="46.20645" lon="6.78765">
        <ele>1797.32</ele>
        <time>2014-06-27T15:32:16Z</time>
      </trkpt>
      <trkpt lat="46.20655" lon="6.7874">
        <ele>1797.8</ele>
        <time>2014-06-27T15:32:21Z</time>
      </trkpt>
      <trkpt lat="46.20683" lon="6.7873">
        <ele>1797.32</ele>
        <time>2014-06-27T15:32:26Z</time>
      </trkpt>
      <trkpt lat="46.20692" lon="6.78726">
        <ele>1796.84</ele>
        <time>2014-06-27T15:32:28Z</time>
      </trkpt>
      <trkpt lat="46.20686" lon="6.78722">
        <ele>1794.44</ele>
        <time>2014-06-27T15:32:33Z</time>
      </trkpt>
      <trkpt lat="46.20676" lon="6.78723">
        <ele>1790.59</ele>
        <time>2014-06-27T15:32:37Z</time>
      </trkpt>
      <trkpt lat="46.20684" lon="6.7871">
        <ele>1789.63</ele>
        <time>2014-06-27T15:32:43Z</time>
      </trkpt>
      <trkpt lat="46.20694" lon="6.78705">
        <ele>1789.15</ele>
        <time>2014-06-27T15:32:45Z</time>
      </trkpt>
      <trkpt lat="46.20705" lon="6.78705">
        <ele>1789.15</ele>
        <time>2014-06-27T15:32:47Z</time>
      </trkpt>
      <trkpt lat="46.20744" lon="6.78708">
        <ele>1784.82</ele>
        <time>2014-06-27T15:32:55Z</time>
      </trkpt>
      <trkpt lat="46.2077" lon="6.78716">
        <ele>1783.38</ele>
        <time>2014-06-27T15:33:01Z</time>
      </trkpt>
      <trkpt lat="46.2079" lon="6.7872">
        <ele>1783.38</ele>
        <time>2014-06-27T15:33:07Z</time>
      </trkpt>
      <trkpt lat="46.20798" lon="6.78719">
        <ele>1784.82</ele>
        <time>2014-06-27T15:33:09Z</time>
      </trkpt>
      <trkpt lat="46.2083" lon="6.78712">
        <ele>1784.82</ele>
        <time>2014-06-27T15:33:16Z</time>
      </trkpt>
      <trkpt lat="46.20834" lon="6.78711">
        <ele>1784.82</ele>
        <time>2014-06-27T15:33:17Z</time>
      </trkpt>
      <trkpt lat="46.20843" lon="6.78708">
        <ele>1784.82</ele>
        <time>2014-06-27T15:33:19Z</time>
      </trkpt>
      <trkpt lat="46.20854" lon="6.78706">
        <ele>1784.82</ele>
        <time>2014-06-27T15:33:21Z</time>
      </trkpt>
      <trkpt lat="46.20868" lon="6.78698">
        <ele>1783.38</ele>
        <time>2014-06-27T15:33:24Z</time>
      </trkpt>
      <trkpt lat="46.20886" lon="6.78692">
        <ele>1780.02</ele>
        <time>2014-06-27T15:33:28Z</time>
      </trkpt>
      <trkpt lat="46.20901" lon="6.7869">
        <ele>1775.69</ele>
        <time>2014-06-27T15:33:32Z</time>
      </trkpt>
      <trkpt lat="46.20908" lon="6.78688">
        <ele>1774.73</ele>
        <time>2014-06-27T15:33:34Z</time>
      </trkpt>
      <trkpt lat="46.20912" lon="6.78685">
        <ele>1775.69</ele>
        <time>2014-06-27T15:33:35Z</time>
      </trkpt>
      <trkpt lat="46.20941" lon="6.78681">
        <ele>1775.21</ele>
        <time>2014-06-27T15:33:42Z</time>
      </trkpt>
      <trkpt lat="46.20941" lon="6.78677">
        <ele>1774.25</ele>
        <time>2014-06-27T15:33:43Z</time>
      </trkpt>
      <trkpt lat="46.20939" lon="6.78667">
        <ele>1772.81</ele>
        <time>2014-06-27T15:33:45Z</time>
      </trkpt>
      <trkpt lat="46.20943" lon="6.78629">
        <ele>1768.96</ele>
        <time>2014-06-27T15:33:50Z</time>
      </trkpt>
      <trkpt lat="46.2096" lon="6.78597">
        <ele>1766.08</ele>
        <time>2014-06-27T15:33:54Z</time>
      </trkpt>
      <trkpt lat="46.20987" lon="6.78583">
        <ele>1762.23</ele>
        <time>2014-06-27T15:33:58Z</time>
      </trkpt>
      <trkpt lat="46.21008" lon="6.78579">
        <ele>1758.39</ele>
        <time>2014-06-27T15:34:01Z</time>
      </trkpt>
      <trkpt lat="46.2102" lon="6.78568">
        <ele>1752.62</ele>
        <time>2014-06-27T15:34:05Z</time>
      </trkpt>
      <trkpt lat="46.21022" lon="6.78564">
        <ele>1752.62</ele>
        <time>2014-06-27T15:34:06Z</time>
      </trkpt>
      <trkpt lat="46.21027" lon="6.78555">
        <ele>1751.66</ele>
        <time>2014-06-27T15:34:08Z</time>
      </trkpt>
      <trkpt lat="46.21034" lon="6.78545">
        <ele>1750.7</ele>
        <time>2014-06-27T15:34:10Z</time>
      </trkpt>
      <trkpt lat="46.21066" lon="6.78463">
        <ele>1749.74</ele>
        <time>2014-06-27T15:34:20Z</time>
      </trkpt>
      <trkpt lat="46.21072" lon="6.78426">
        <ele>1744.45</ele>
        <time>2014-06-27T15:34:24Z</time>
      </trkpt>
      <trkpt lat="46.21077" lon="6.784">
        <ele>1739.16</ele>
        <time>2014-06-27T15:34:27Z</time>
      </trkpt>
      <trkpt lat="46.21081" lon="6.78382">
        <ele>1735.8</ele>
        <time>2014-06-27T15:34:29Z</time>
      </trkpt>
      <trkpt lat="46.21087" lon="6.7835">
        <ele>1731.95</ele>
        <time>2014-06-27T15:34:32Z</time>
      </trkpt>
      <trkpt lat="46.21087" lon="6.7832">
        <ele>1730.99</ele>
        <time>2014-06-27T15:34:35Z</time>
      </trkpt>
      <trkpt lat="46.21099" lon="6.78279">
        <ele>1730.03</ele>
        <time>2014-06-27T15:34:40Z</time>
      </trkpt>
      <trkpt lat="46.21112" lon="6.78252">
        <ele>1724.26</ele>
        <time>2014-06-27T15:34:44Z</time>
      </trkpt>
      <trkpt lat="46.21118" lon="6.78231">
        <ele>1718.97</ele>
        <time>2014-06-27T15:34:47Z</time>
      </trkpt>
      <trkpt lat="46.21119" lon="6.78224">
        <ele>1717.05</ele>
        <time>2014-06-27T15:34:48Z</time>
      </trkpt>
      <trkpt lat="46.21121" lon="6.78196">
        <ele>1711.28</ele>
        <time>2014-06-27T15:34:52Z</time>
      </trkpt>
      <trkpt lat="46.21122" lon="6.7817">
        <ele>1708.88</ele>
        <time>2014-06-27T15:34:55Z</time>
      </trkpt>
      <trkpt lat="46.21124" lon="6.78151">
        <ele>1707.92</ele>
        <time>2014-06-27T15:34:57Z</time>
      </trkpt>
      <trkpt lat="46.21132" lon="6.78126">
        <ele>1706</ele>
        <time>2014-06-27T15:35:00Z</time>
      </trkpt>
      <trkpt lat="46.21135" lon="6.78095">
        <ele>1701.19</ele>
        <time>2014-06-27T15:35:04Z</time>
      </trkpt>
      <trkpt lat="46.21137" lon="6.78068">
        <ele>1696.38</ele>
        <time>2014-06-27T15:35:07Z</time>
      </trkpt>
      <trkpt lat="46.2114" lon="6.7806">
        <ele>1694.94</ele>
        <time>2014-06-27T15:35:08Z</time>
      </trkpt>
      <trkpt lat="46.2115" lon="6.78026">
        <ele>1688.69</ele>
        <time>2014-06-27T15:35:12Z</time>
      </trkpt>
      <trkpt lat="46.21158" lon="6.78">
        <ele>1684.85</ele>
        <time>2014-06-27T15:35:15Z</time>
      </trkpt>
      <trkpt lat="46.21164" lon="6.7797">
        <ele>1681</ele>
        <time>2014-06-27T15:35:18Z</time>
      </trkpt>
      <trkpt lat="46.21169" lon="6.77942">
        <ele>1677.16</ele>
        <time>2014-06-27T15:35:21Z</time>
      </trkpt>
      <trkpt lat="46.21178" lon="6.77916">
        <ele>1672.35</ele>
        <time>2014-06-27T15:35:24Z</time>
      </trkpt>
      <trkpt lat="46.21191" lon="6.77893">
        <ele>1668.51</ele>
        <time>2014-06-27T15:35:27Z</time>
      </trkpt>
      <trkpt lat="46.212" lon="6.77879">
        <ele>1665.14</ele>
        <time>2014-06-27T15:35:29Z</time>
      </trkpt>
      <trkpt lat="46.21211" lon="6.77864">
        <ele>1661.78</ele>
        <time>2014-06-27T15:35:31Z</time>
      </trkpt>
      <trkpt lat="46.2122" lon="6.7785">
        <ele>1658.41</ele>
        <time>2014-06-27T15:35:33Z</time>
      </trkpt>
      <trkpt lat="46.21228" lon="6.77837">
        <ele>1655.05</ele>
        <time>2014-06-27T15:35:35Z</time>
      </trkpt>
      <trkpt lat="46.21242" lon="6.77818">
        <ele>1650.72</ele>
        <time>2014-06-27T15:35:38Z</time>
      </trkpt>
      <trkpt lat="46.21256" lon="6.778">
        <ele>1647.36</ele>
        <time>2014-06-27T15:35:41Z</time>
      </trkpt>
      <trkpt lat="46.2126" lon="6.77794">
        <ele>1646.4</ele>
        <time>2014-06-27T15:35:42Z</time>
      </trkpt>
      <trkpt lat="46.21266" lon="6.77759">
        <ele>1642.07</ele>
        <time>2014-06-27T15:35:47Z</time>
      </trkpt>
      <trkpt lat="46.21254" lon="6.77748">
        <ele>1638.7</ele>
        <time>2014-06-27T15:35:50Z</time>
      </trkpt>
      <trkpt lat="46.21249" lon="6.77747">
        <ele>1638.7</ele>
        <time>2014-06-27T15:35:51Z</time>
      </trkpt>
      <trkpt lat="46.21232" lon="6.77753">
        <ele>1636.3</ele>
        <time>2014-06-27T15:35:54Z</time>
      </trkpt>
      <trkpt lat="46.2119" lon="6.77774">
        <ele>1632.46</ele>
        <time>2014-06-27T15:36:00Z</time>
      </trkpt>
      <trkpt lat="46.21167" lon="6.77784">
        <ele>1629.57</ele>
        <time>2014-06-27T15:36:03Z</time>
      </trkpt>
      <trkpt lat="46.21146" lon="6.77799">
        <ele>1625.25</ele>
        <time>2014-06-27T15:36:06Z</time>
      </trkpt>
      <trkpt lat="46.21124" lon="6.77815">
        <ele>1620.92</ele>
        <time>2014-06-27T15:36:09Z</time>
      </trkpt>
      <trkpt lat="46.21109" lon="6.77827">
        <ele>1617.56</ele>
        <time>2014-06-27T15:36:11Z</time>
      </trkpt>
      <trkpt lat="46.21098" lon="6.77838">
        <ele>1614.19</ele>
        <time>2014-06-27T15:36:13Z</time>
      </trkpt>
      <trkpt lat="46.21079" lon="6.7785">
        <ele>1608.9</ele>
        <time>2014-06-27T15:36:16Z</time>
      </trkpt>
      <trkpt lat="46.21072" lon="6.77853">
        <ele>1608.9</ele>
        <time>2014-06-27T15:36:17Z</time>
      </trkpt>
      <trkpt lat="46.2105" lon="6.77864">
        <ele>1605.54</ele>
        <time>2014-06-27T15:36:20Z</time>
      </trkpt>
      <trkpt lat="46.21017" lon="6.77893">
        <ele>1600.73</ele>
        <time>2014-06-27T15:36:25Z</time>
      </trkpt>
      <trkpt lat="46.20999" lon="6.77914">
        <ele>1597.37</ele>
        <time>2014-06-27T15:36:28Z</time>
      </trkpt>
      <trkpt lat="46.20984" lon="6.77936">
        <ele>1594</ele>
        <time>2014-06-27T15:36:31Z</time>
      </trkpt>
      <trkpt lat="46.20969" lon="6.7796">
        <ele>1590.16</ele>
        <time>2014-06-27T15:36:34Z</time>
      </trkpt>
      <trkpt lat="46.20963" lon="6.77968">
        <ele>1588.72</ele>
        <time>2014-06-27T15:36:35Z</time>
      </trkpt>
      <trkpt lat="46.2094" lon="6.77988">
        <ele>1582.95</ele>
        <time>2014-06-27T15:36:39Z</time>
      </trkpt>
      <trkpt lat="46.20921" lon="6.78003">
        <ele>1579.58</ele>
        <time>2014-06-27T15:36:42Z</time>
      </trkpt>
      <trkpt lat="46.20899" lon="6.78017">
        <ele>1575.74</ele>
        <time>2014-06-27T15:36:45Z</time>
      </trkpt>
      <trkpt lat="46.20878" lon="6.78029">
        <ele>1570.93</ele>
        <time>2014-06-27T15:36:48Z</time>
      </trkpt>
      <trkpt lat="46.20865" lon="6.78036">
        <ele>1568.05</ele>
        <time>2014-06-27T15:36:50Z</time>
      </trkpt>
      <trkpt lat="46.2085" lon="6.7804">
        <ele>1565.16</ele>
        <time>2014-06-27T15:36:52Z</time>
      </trkpt>
      <trkpt lat="46.20836" lon="6.78044">
        <ele>1561.8</ele>
        <time>2014-06-27T15:36:54Z</time>
      </trkpt>
      <trkpt lat="46.20829" lon="6.78046">
        <ele>1560.36</ele>
        <time>2014-06-27T15:36:55Z</time>
      </trkpt>
      <trkpt lat="46.20801" lon="6.78046">
        <ele>1555.07</ele>
        <time>2014-06-27T15:36:59Z</time>
      </trkpt>
      <trkpt lat="46.2078" lon="6.78046">
        <ele>1551.22</ele>
        <time>2014-06-27T15:37:02Z</time>
      </trkpt>
      <trkpt lat="46.20766" lon="6.78047">
        <ele>1548.34</ele>
        <time>2014-06-27T15:37:04Z</time>
      </trkpt>
      <trkpt lat="46.20754" lon="6.78053">
        <ele>1545.46</ele>
        <time>2014-06-27T15:37:06Z</time>
      </trkpt>
      <trkpt lat="46.20733" lon="6.78066">
        <ele>1542.57</ele>
        <time>2014-06-27T15:37:09Z</time>
      </trkpt>
      <trkpt lat="46.20727" lon="6.7807">
        <ele>1541.13</ele>
        <time>2014-06-27T15:37:10Z</time>
      </trkpt>
      <trkpt lat="46.20702" lon="6.78051">
        <ele>1537.29</ele>
        <time>2014-06-27T15:37:17Z</time>
      </trkpt>
      <trkpt lat="46.20706" lon="6.7803">
        <ele>1537.29</ele>
        <time>2014-06-27T15:37:20Z</time>
      </trkpt>
      <trkpt lat="46.20717" lon="6.78001">
        <ele>1536.32</ele>
        <time>2014-06-27T15:37:24Z</time>
      </trkpt>
      <trkpt lat="46.20734" lon="6.77972">
        <ele>1532.96</ele>
        <time>2014-06-27T15:37:28Z</time>
      </trkpt>
      <trkpt lat="46.20744" lon="6.77947">
        <ele>1528.15</ele>
        <time>2014-06-27T15:37:31Z</time>
      </trkpt>
      <trkpt lat="46.20748" lon="6.77931">
        <ele>1526.23</ele>
        <time>2014-06-27T15:37:33Z</time>
      </trkpt>
      <trkpt lat="46.20746" lon="6.77895">
        <ele>1521.42</ele>
        <time>2014-06-27T15:37:38Z</time>
      </trkpt>
      <trkpt lat="46.20733" lon="6.77844">
        <ele>1520.46</ele>
        <time>2014-06-27T15:37:43Z</time>
      </trkpt>
      <trkpt lat="46.20712" lon="6.77796">
        <ele>1516.14</ele>
        <time>2014-06-27T15:37:48Z</time>
      </trkpt>
      <trkpt lat="46.20707" lon="6.77788">
        <ele>1515.18</ele>
        <time>2014-06-27T15:37:49Z</time>
      </trkpt>
      <trkpt lat="46.20702" lon="6.77751">
        <ele>1510.85</ele>
        <time>2014-06-27T15:37:54Z</time>
      </trkpt>
      <trkpt lat="46.20707" lon="6.77739">
        <ele>1509.89</ele>
        <time>2014-06-27T15:37:56Z</time>
      </trkpt>
      <trkpt lat="46.20738" lon="6.77696">
        <ele>1510.85</ele>
        <time>2014-06-27T15:38:09Z</time>
      </trkpt>
      <trkpt lat="46.20738" lon="6.77695">
        <ele>1510.85</ele>
        <time>2014-06-27T15:38:24Z</time>
      </trkpt>
      <trkpt lat="46.20738" lon="6.77694">
        <ele>1510.85</ele>
        <time>2014-06-27T15:38:40Z</time>
      </trkpt>
      <trkpt lat="46.20739" lon="6.77693">
        <ele>1510.85</ele>
        <time>2014-06-27T15:38:52Z</time>
      </trkpt>
      <trkpt lat="46.20739" lon="6.77691">
        <ele>1510.85</ele>
        <time>2014-06-27T15:39:06Z</time>
      </trkpt>
      <trkpt lat="46.20739" lon="6.77684">
        <ele>1510.85</ele>
        <time>2014-06-27T15:39:22Z</time>
      </trkpt>
      <trkpt lat="46.20735" lon="6.77679">
        <ele>1510.37</ele>
        <time>2014-06-27T15:39:35Z</time>
      </trkpt>
      <trkpt lat="46.20732" lon="6.77678">
        <ele>1510.37</ele>
        <time>2014-06-27T15:39:49Z</time>
      </trkpt>
      <trkpt lat="46.20732" lon="6.77678">
        <ele>1510.37</ele>
        <time>2014-06-27T15:39:50Z</time>
      </trkpt>
      <trkpt lat="46.20721" lon="6.77675">
        <ele>1510.37</ele>
        <time>2014-06-27T15:39:54Z</time>
      </trkpt>
      <trkpt lat="46.20688" lon="6.7766">
        <ele>1512.29</ele>
        <time>2014-06-27T15:40:03Z</time>
      </trkpt>
      <trkpt lat="46.20676" lon="6.77656">
        <ele>1517.1</ele>
        <time>2014-06-27T15:40:06Z</time>
      </trkpt>
      <trkpt lat="46.2067" lon="6.77654">
        <ele>1520.46</ele>
        <time>2014-06-27T15:40:08Z</time>
      </trkpt>
      <trkpt lat="46.2066" lon="6.7765">
        <ele>1524.31</ele>
        <time>2014-06-27T15:40:11Z</time>
      </trkpt>
      <trkpt lat="46.20651" lon="6.77647">
        <ele>1528.63</ele>
        <time>2014-06-27T15:40:14Z</time>
      </trkpt>
      <trkpt lat="46.20641" lon="6.77645">
        <ele>1531.52</ele>
        <time>2014-06-27T15:40:17Z</time>
      </trkpt>
      <trkpt lat="46.2063" lon="6.77641">
        <ele>1534.88</ele>
        <time>2014-06-27T15:40:21Z</time>
      </trkpt>
      <trkpt lat="46.20617" lon="6.77636">
        <ele>1538.73</ele>
        <time>2014-06-27T15:40:25Z</time>
      </trkpt>
      <trkpt lat="46.20608" lon="6.77632">
        <ele>1542.57</ele>
        <time>2014-06-27T15:40:28Z</time>
      </trkpt>
      <trkpt lat="46.20595" lon="6.77628">
        <ele>1545.94</ele>
        <time>2014-06-27T15:40:32Z</time>
      </trkpt>
      <trkpt lat="46.2056" lon="6.77617">
        <ele>1549.78</ele>
        <time>2014-06-27T15:40:43Z</time>
      </trkpt>
      <trkpt lat="46.20548" lon="6.77612">
        <ele>1553.63</ele>
        <time>2014-06-27T15:40:47Z</time>
      </trkpt>
      <trkpt lat="46.20538" lon="6.77609">
        <ele>1556.99</ele>
        <time>2014-06-27T15:40:50Z</time>
      </trkpt>
      <trkpt lat="46.20529" lon="6.77607">
        <ele>1560.84</ele>
        <time>2014-06-27T15:40:53Z</time>
      </trkpt>
      <trkpt lat="46.20517" lon="6.77604">
        <ele>1564.68</ele>
        <time>2014-06-27T15:40:57Z</time>
      </trkpt>
      <trkpt lat="46.20504" lon="6.77601">
        <ele>1568.05</ele>
        <time>2014-06-27T15:41:01Z</time>
      </trkpt>
      <trkpt lat="46.20495" lon="6.77598">
        <ele>1569.97</ele>
        <time>2014-06-27T15:41:04Z</time>
      </trkpt>
      <trkpt lat="46.20478" lon="6.77593">
        <ele>1572.85</ele>
        <time>2014-06-27T15:41:09Z</time>
      </trkpt>
      <trkpt lat="46.20463" lon="6.77588">
        <ele>1576.22</ele>
        <time>2014-06-27T15:41:14Z</time>
      </trkpt>
      <trkpt lat="46.2045" lon="6.77584">
        <ele>1580.06</ele>
        <time>2014-06-27T15:41:18Z</time>
      </trkpt>
      <trkpt lat="46.20441" lon="6.77581">
        <ele>1583.43</ele>
        <time>2014-06-27T15:41:21Z</time>
      </trkpt>
      <trkpt lat="46.20432" lon="6.77579">
        <ele>1586.79</ele>
        <time>2014-06-27T15:41:24Z</time>
      </trkpt>
      <trkpt lat="46.20423" lon="6.77576">
        <ele>1591.6</ele>
        <time>2014-06-27T15:41:27Z</time>
      </trkpt>
      <trkpt lat="46.20417" lon="6.77574">
        <ele>1594.96</ele>
        <time>2014-06-27T15:41:29Z</time>
      </trkpt>
      <trkpt lat="46.20408" lon="6.77571">
        <ele>1599.29</ele>
        <time>2014-06-27T15:41:32Z</time>
      </trkpt>
      <trkpt lat="46.20401" lon="6.77569">
        <ele>1602.66</ele>
        <time>2014-06-27T15:41:34Z</time>
      </trkpt>
      <trkpt lat="46.20392" lon="6.77566">
        <ele>1606.98</ele>
        <time>2014-06-27T15:41:37Z</time>
      </trkpt>
      <trkpt lat="46.20384" lon="6.77562">
        <ele>1610.35</ele>
        <time>2014-06-27T15:41:40Z</time>
      </trkpt>
      <trkpt lat="46.20375" lon="6.77559">
        <ele>1614.19</ele>
        <time>2014-06-27T15:41:43Z</time>
      </trkpt>
      <trkpt lat="46.20367" lon="6.77555">
        <ele>1618.04</ele>
        <time>2014-06-27T15:41:46Z</time>
      </trkpt>
      <trkpt lat="46.20362" lon="6.77553">
        <ele>1620.92</ele>
        <time>2014-06-27T15:41:48Z</time>
      </trkpt>
      <trkpt lat="46.20356" lon="6.7755">
        <ele>1624.28</ele>
        <time>2014-06-27T15:41:50Z</time>
      </trkpt>
      <trkpt lat="46.2035" lon="6.77547">
        <ele>1627.17</ele>
        <time>2014-06-27T15:41:52Z</time>
      </trkpt>
      <trkpt lat="46.20341" lon="6.77544">
        <ele>1631.49</ele>
        <time>2014-06-27T15:41:55Z</time>
      </trkpt>
      <trkpt lat="46.20335" lon="6.77542">
        <ele>1632.94</ele>
        <time>2014-06-27T15:41:57Z</time>
      </trkpt>
      <trkpt lat="46.20326" lon="6.7754">
        <ele>1636.78</ele>
        <time>2014-06-27T15:42:00Z</time>
      </trkpt>
      <trkpt lat="46.20316" lon="6.77537">
        <ele>1640.63</ele>
        <time>2014-06-27T15:42:03Z</time>
      </trkpt>
      <trkpt lat="46.20307" lon="6.77534">
        <ele>1644.95</ele>
        <time>2014-06-27T15:42:06Z</time>
      </trkpt>
      <trkpt lat="46.20301" lon="6.77532">
        <ele>1648.32</ele>
        <time>2014-06-27T15:42:08Z</time>
      </trkpt>
      <trkpt lat="46.20295" lon="6.7753">
        <ele>1651.68</ele>
        <time>2014-06-27T15:42:10Z</time>
      </trkpt>
      <trkpt lat="46.20289" lon="6.77528">
        <ele>1655.05</ele>
        <time>2014-06-27T15:42:12Z</time>
      </trkpt>
      <trkpt lat="46.20283" lon="6.77526">
        <ele>1658.41</ele>
        <time>2014-06-27T15:42:14Z</time>
      </trkpt>
      <trkpt lat="46.20277" lon="6.77524">
        <ele>1661.78</ele>
        <time>2014-06-27T15:42:16Z</time>
      </trkpt>
      <trkpt lat="46.20271" lon="6.77522">
        <ele>1665.62</ele>
        <time>2014-06-27T15:42:18Z</time>
      </trkpt>
      <trkpt lat="46.20264" lon="6.77519">
        <ele>1669.95</ele>
        <time>2014-06-27T15:42:21Z</time>
      </trkpt>
      <trkpt lat="46.2026" lon="6.77518">
        <ele>1670.43</ele>
        <time>2014-06-27T15:42:22Z</time>
      </trkpt>
      <trkpt lat="46.20251" lon="6.77515">
        <ele>1674.27</ele>
        <time>2014-06-27T15:42:25Z</time>
      </trkpt>
      <trkpt lat="46.20238" lon="6.77511">
        <ele>1677.64</ele>
        <time>2014-06-27T15:42:29Z</time>
      </trkpt>
      <trkpt lat="46.2021" lon="6.77501">
        <ele>1681</ele>
        <time>2014-06-27T15:42:38Z</time>
      </trkpt>
      <trkpt lat="46.20197" lon="6.77497">
        <ele>1684.85</ele>
        <time>2014-06-27T15:42:42Z</time>
      </trkpt>
      <trkpt lat="46.20187" lon="6.77493">
        <ele>1688.69</ele>
        <time>2014-06-27T15:42:45Z</time>
      </trkpt>
      <trkpt lat="46.20178" lon="6.7749">
        <ele>1691.58</ele>
        <time>2014-06-27T15:42:48Z</time>
      </trkpt>
      <trkpt lat="46.20168" lon="6.77487">
        <ele>1694.94</ele>
        <time>2014-06-27T15:42:51Z</time>
      </trkpt>
      <trkpt lat="46.20156" lon="6.77483">
        <ele>1698.31</ele>
        <time>2014-06-27T15:42:55Z</time>
      </trkpt>
      <trkpt lat="46.2014" lon="6.77477">
        <ele>1701.67</ele>
        <time>2014-06-27T15:43:00Z</time>
      </trkpt>
      <trkpt lat="46.20124" lon="6.77472">
        <ele>1705.04</ele>
        <time>2014-06-27T15:43:05Z</time>
      </trkpt>
      <trkpt lat="46.20111" lon="6.77468">
        <ele>1708.4</ele>
        <time>2014-06-27T15:43:09Z</time>
      </trkpt>
      <trkpt lat="46.20102" lon="6.77464">
        <ele>1711.76</ele>
        <time>2014-06-27T15:43:12Z</time>
      </trkpt>
      <trkpt lat="46.20089" lon="6.7746">
        <ele>1715.61</ele>
        <time>2014-06-27T15:43:16Z</time>
      </trkpt>
      <trkpt lat="46.20081" lon="6.77456">
        <ele>1718.97</ele>
        <time>2014-06-27T15:43:19Z</time>
      </trkpt>
      <trkpt lat="46.20072" lon="6.77452">
        <ele>1721.86</ele>
        <time>2014-06-27T15:43:22Z</time>
      </trkpt>
      <trkpt lat="46.20063" lon="6.7745">
        <ele>1725.22</ele>
        <time>2014-06-27T15:43:25Z</time>
      </trkpt>
      <trkpt lat="46.2005" lon="6.77446">
        <ele>1729.07</ele>
        <time>2014-06-27T15:43:29Z</time>
      </trkpt>
      <trkpt lat="46.20037" lon="6.77442">
        <ele>1731.95</ele>
        <time>2014-06-27T15:43:33Z</time>
      </trkpt>
      <trkpt lat="46.20024" lon="6.77437">
        <ele>1735.32</ele>
        <time>2014-06-27T15:43:37Z</time>
      </trkpt>
      <trkpt lat="46.20015" lon="6.77433">
        <ele>1737.24</ele>
        <time>2014-06-27T15:43:40Z</time>
      </trkpt>
      <trkpt lat="46.20003" lon="6.77428">
        <ele>1740.6</ele>
        <time>2014-06-27T15:43:44Z</time>
      </trkpt>
      <trkpt lat="46.19995" lon="6.77425">
        <ele>1743.97</ele>
        <time>2014-06-27T15:43:47Z</time>
      </trkpt>
      <trkpt lat="46.19985" lon="6.77421">
        <ele>1747.33</ele>
        <time>2014-06-27T15:43:50Z</time>
      </trkpt>
      <trkpt lat="46.19973" lon="6.77417">
        <ele>1750.7</ele>
        <time>2014-06-27T15:43:54Z</time>
      </trkpt>
      <trkpt lat="46.19956" lon="6.77412">
        <ele>1753.58</ele>
        <time>2014-06-27T15:43:59Z</time>
      </trkpt>
      <trkpt lat="46.19941" lon="6.77407">
        <ele>1757.91</ele>
        <time>2014-06-27T15:44:04Z</time>
      </trkpt>
      <trkpt lat="46.19931" lon="6.77403">
        <ele>1760.79</ele>
        <time>2014-06-27T15:44:07Z</time>
      </trkpt>
      <trkpt lat="46.19919" lon="6.77399">
        <ele>1764.16</ele>
        <time>2014-06-27T15:44:11Z</time>
      </trkpt>
      <trkpt lat="46.1991" lon="6.77395">
        <ele>1767.52</ele>
        <time>2014-06-27T15:44:14Z</time>
      </trkpt>
      <trkpt lat="46.19901" lon="6.77391">
        <ele>1770.89</ele>
        <time>2014-06-27T15:44:17Z</time>
      </trkpt>
      <trkpt lat="46.19893" lon="6.77388">
        <ele>1774.25</ele>
        <time>2014-06-27T15:44:20Z</time>
      </trkpt>
      <trkpt lat="46.19884" lon="6.77384">
        <ele>1777.61</ele>
        <time>2014-06-27T15:44:23Z</time>
      </trkpt>
      <trkpt lat="46.19875" lon="6.77381">
        <ele>1780.98</ele>
        <time>2014-06-27T15:44:26Z</time>
      </trkpt>
      <trkpt lat="46.19865" lon="6.77377">
        <ele>1784.82</ele>
        <time>2014-06-27T15:44:29Z</time>
      </trkpt>
      <trkpt lat="46.19857" lon="6.77374">
        <ele>1788.67</ele>
        <time>2014-06-27T15:44:32Z</time>
      </trkpt>
      <trkpt lat="46.19851" lon="6.77372">
        <ele>1790.11</ele>
        <time>2014-06-27T15:44:34Z</time>
      </trkpt>
      <trkpt lat="46.19841" lon="6.77369">
        <ele>1793.96</ele>
        <time>2014-06-27T15:44:37Z</time>
      </trkpt>
      <trkpt lat="46.19832" lon="6.77366">
        <ele>1796.84</ele>
        <time>2014-06-27T15:44:40Z</time>
      </trkpt>
      <trkpt lat="46.19824" lon="6.77363">
        <ele>1800.69</ele>
        <time>2014-06-27T15:44:43Z</time>
      </trkpt>
      <trkpt lat="46.19815" lon="6.77359">
        <ele>1805.01</ele>
        <time>2014-06-27T15:44:46Z</time>
      </trkpt>
      <trkpt lat="46.19809" lon="6.77357">
        <ele>1808.38</ele>
        <time>2014-06-27T15:44:48Z</time>
      </trkpt>
      <trkpt lat="46.19804" lon="6.77355">
        <ele>1812.22</ele>
        <time>2014-06-27T15:44:50Z</time>
      </trkpt>
      <trkpt lat="46.19798" lon="6.77353">
        <ele>1815.59</ele>
        <time>2014-06-27T15:44:52Z</time>
      </trkpt>
      <trkpt lat="46.19792" lon="6.77351">
        <ele>1819.43</ele>
        <time>2014-06-27T15:44:54Z</time>
      </trkpt>
      <trkpt lat="46.19787" lon="6.77349">
        <ele>1823.28</ele>
        <time>2014-06-27T15:44:56Z</time>
      </trkpt>
      <trkpt lat="46.19781" lon="6.77347">
        <ele>1826.64</ele>
        <time>2014-06-27T15:44:58Z</time>
      </trkpt>
      <trkpt lat="46.19776" lon="6.77345">
        <ele>1830.49</ele>
        <time>2014-06-27T15:45:00Z</time>
      </trkpt>
      <trkpt lat="46.19768" lon="6.77342">
        <ele>1834.81</ele>
        <time>2014-06-27T15:45:03Z</time>
      </trkpt>
      <trkpt lat="46.19763" lon="6.7734">
        <ele>1839.14</ele>
        <time>2014-06-27T15:45:05Z</time>
      </trkpt>
      <trkpt lat="46.19758" lon="6.77338">
        <ele>1843.95</ele>
        <time>2014-06-27T15:45:07Z</time>
      </trkpt>
      <trkpt lat="46.19752" lon="6.77336">
        <ele>1848.27</ele>
        <time>2014-06-27T15:45:09Z</time>
      </trkpt>
      <trkpt lat="46.19747" lon="6.77334">
        <ele>1852.6</ele>
        <time>2014-06-27T15:45:11Z</time>
      </trkpt>
      <trkpt lat="46.19742" lon="6.77332">
        <ele>1856.92</ele>
        <time>2014-06-27T15:45:13Z</time>
      </trkpt>
      <trkpt lat="46.19737" lon="6.7733">
        <ele>1861.73</ele>
        <time>2014-06-27T15:45:15Z</time>
      </trkpt>
      <trkpt lat="46.19732" lon="6.77328">
        <ele>1865.58</ele>
        <time>2014-06-27T15:45:17Z</time>
      </trkpt>
      <trkpt lat="46.19727" lon="6.77327">
        <ele>1869.9</ele>
        <time>2014-06-27T15:45:19Z</time>
      </trkpt>
      <trkpt lat="46.19721" lon="6.77325">
        <ele>1873.75</ele>
        <time>2014-06-27T15:45:21Z</time>
      </trkpt>
      <trkpt lat="46.19715" lon="6.77323">
        <ele>1877.11</ele>
        <time>2014-06-27T15:45:23Z</time>
      </trkpt>
      <trkpt lat="46.19698" lon="6.77316">
        <ele>1876.15</ele>
        <time>2014-06-27T15:45:32Z</time>
      </trkpt>
      <trkpt lat="46.19698" lon="6.77317">
        <ele>1873.27</ele>
        <time>2014-06-27T15:45:35Z</time>
      </trkpt>
      <trkpt lat="46.19686" lon="6.7731">
        <ele>1872.3</ele>
        <time>2014-06-27T15:45:47Z</time>
      </trkpt>
      <trkpt lat="46.19685" lon="6.77305">
        <ele>1872.3</ele>
        <time>2014-06-27T15:46:01Z</time>
      </trkpt>
      <trkpt lat="46.19685" lon="6.77304">
        <ele>1872.3</ele>
        <time>2014-06-27T15:46:27Z</time>
      </trkpt>
      <trkpt lat="46.19685" lon="6.77303">
        <ele>1872.3</ele>
        <time>2014-06-27T15:46:46Z</time>
      </trkpt>
      <trkpt lat="46.19685" lon="6.77304">
        <ele>1872.3</ele>
        <time>2014-06-27T15:47:28Z</time>
      </trkpt>
      <trkpt lat="46.19685" lon="6.77303">
        <ele>1872.3</ele>
        <time>2014-06-27T15:48:09Z</time>
      </trkpt>
      <trkpt lat="46.19685" lon="6.77303">
        <ele>1872.3</ele>
        <time>2014-06-27T15:48:41Z</time>
      </trkpt>
      <trkpt lat="46.19685" lon="6.77303">
        <ele>1872.3</ele>
        <time>2014-06-27T15:49:18Z</time>
      </trkpt>
      <trkpt lat="46.19685" lon="6.77303">
        <ele>1872.3</ele>
        <time>2014-06-27T15:50:00Z</time>
      </trkpt>
      <trkpt lat="46.19685" lon="6.77302">
        <ele>1872.3</ele>
        <time>2014-06-27T15:50:37Z</time>
      </trkpt>
      <trkpt lat="46.19685" lon="6.77302">
        <ele>1872.3</ele>
        <time>2014-06-27T15:51:18Z</time>
      </trkpt>
      <trkpt lat="46.19685" lon="6.77302">
        <ele>1872.3</ele>
        <time>2014-06-27T15:51:50Z</time>
      </trkpt>
      <trkpt lat="46.19685" lon="6.77302">
        <ele>1872.3</ele>
        <time>2014-06-27T15:52:27Z</time>
      </trkpt>
      <trkpt lat="46.19685" lon="6.77303">
        <ele>1872.3</ele>
        <time>2014-06-27T15:53:08Z</time>
      </trkpt>
      <trkpt lat="46.19685" lon="6.77302">
        <ele>1873.27</ele>
        <time>2014-06-27T15:53:54Z</time>
      </trkpt>
      <trkpt lat="46.19685" lon="6.77303">
        <ele>1873.27</ele>
        <time>2014-06-27T15:54:44Z</time>
      </trkpt>
      <trkpt lat="46.19685" lon="6.77303">
        <ele>1873.27</ele>
        <time>2014-06-27T15:55:27Z</time>
      </trkpt>
      <trkpt lat="46.19685" lon="6.77305">
        <ele>1873.75</ele>
        <time>2014-06-27T15:56:06Z</time>
      </trkpt>
      <trkpt lat="46.19686" lon="6.77305">
        <ele>1873.75</ele>
        <time>2014-06-27T15:56:08Z</time>
      </trkpt>
      <trkpt lat="46.19674" lon="6.77301">
        <ele>1873.75</ele>
        <time>2014-06-27T15:56:13Z</time>
      </trkpt>
      <trkpt lat="46.19659" lon="6.77288">
        <ele>1873.75</ele>
        <time>2014-06-27T15:56:16Z</time>
      </trkpt>
      <trkpt lat="46.1962" lon="6.77287">
        <ele>1869.42</ele>
        <time>2014-06-27T15:56:22Z</time>
      </trkpt>
      <trkpt lat="46.19606" lon="6.77289">
        <ele>1867.02</ele>
        <time>2014-06-27T15:56:24Z</time>
      </trkpt>
      <trkpt lat="46.19575" lon="6.7729">
        <ele>1861.25</ele>
        <time>2014-06-27T15:56:28Z</time>
      </trkpt>
      <trkpt lat="46.19568" lon="6.77289">
        <ele>1860.29</ele>
        <time>2014-06-27T15:56:29Z</time>
      </trkpt>
      <trkpt lat="46.19554" lon="6.7729">
        <ele>1857.89</ele>
        <time>2014-06-27T15:56:31Z</time>
      </trkpt>
      <trkpt lat="46.19535" lon="6.77286">
        <ele>1855.48</ele>
        <time>2014-06-27T15:56:34Z</time>
      </trkpt>
      <trkpt lat="46.19516" lon="6.77285">
        <ele>1851.16</ele>
        <time>2014-06-27T15:56:38Z</time>
      </trkpt>
      <trkpt lat="46.19497" lon="6.77287">
        <ele>1847.31</ele>
        <time>2014-06-27T15:56:41Z</time>
      </trkpt>
      <trkpt lat="46.19482" lon="6.77287">
        <ele>1843.95</ele>
        <time>2014-06-27T15:56:43Z</time>
      </trkpt>
      <trkpt lat="46.19468" lon="6.77288">
        <ele>1840.58</ele>
        <time>2014-06-27T15:56:45Z</time>
      </trkpt>
      <trkpt lat="46.19453" lon="6.77286">
        <ele>1839.14</ele>
        <time>2014-06-27T15:56:47Z</time>
      </trkpt>
      <trkpt lat="46.19426" lon="6.7728">
        <ele>1835.29</ele>
        <time>2014-06-27T15:56:51Z</time>
      </trkpt>
      <trkpt lat="46.19403" lon="6.77281">
        <ele>1832.41</ele>
        <time>2014-06-27T15:56:57Z</time>
      </trkpt>
      <trkpt lat="46.19403" lon="6.77281">
        <ele>1831.93</ele>
        <time>2014-06-27T15:57:02Z</time>
      </trkpt>
      <trkpt lat="46.19395" lon="6.77286">
        <ele>1831.93</ele>
        <time>2014-06-27T15:57:07Z</time>
      </trkpt>
      <trkpt lat="46.19391" lon="6.77293">
        <ele>1831.93</ele>
        <time>2014-06-27T15:57:10Z</time>
      </trkpt>
      <trkpt lat="46.19391" lon="6.77303">
        <ele>1831.93</ele>
        <time>2014-06-27T15:57:19Z</time>
      </trkpt>
      <trkpt lat="46.19392" lon="6.773">
        <ele>1832.89</ele>
        <time>2014-06-27T15:57:29Z</time>
      </trkpt>
      <trkpt lat="46.19392" lon="6.773">
        <ele>1832.89</ele>
        <time>2014-06-27T15:58:01Z</time>
      </trkpt>
      <trkpt lat="46.19392" lon="6.77296">
        <ele>1832.89</ele>
        <time>2014-06-27T15:58:19Z</time>
      </trkpt>
      <trkpt lat="46.194" lon="6.77279">
        <ele>1832.89</ele>
        <time>2014-06-27T15:58:24Z</time>
      </trkpt>
      <trkpt lat="46.19418" lon="6.7725">
        <ele>1832.89</ele>
        <time>2014-06-27T15:58:29Z</time>
      </trkpt>
      <trkpt lat="46.1947" lon="6.77166">
        <ele>1832.89</ele>
        <time>2014-06-27T15:58:40Z</time>
      </trkpt>
      <trkpt lat="46.19525" lon="6.77015">
        <ele>1830.01</ele>
        <time>2014-06-27T15:58:55Z</time>
      </trkpt>
      <trkpt lat="46.19545" lon="6.76902">
        <ele>1826.64</ele>
        <time>2014-06-27T15:59:05Z</time>
      </trkpt>
      <trkpt lat="46.1955" lon="6.76869">
        <ele>1823.76</ele>
        <time>2014-06-27T15:59:08Z</time>
      </trkpt>
      <trkpt lat="46.19581" lon="6.7682">
        <ele>1820.87</ele>
        <time>2014-06-27T15:59:14Z</time>
      </trkpt>
      <trkpt lat="46.19614" lon="6.768">
        <ele>1819.91</ele>
        <time>2014-06-27T15:59:19Z</time>
      </trkpt>
      <trkpt lat="46.19627" lon="6.76795">
        <ele>1818.95</ele>
        <time>2014-06-27T15:59:22Z</time>
      </trkpt>
      <trkpt lat="46.19631" lon="6.76777">
        <ele>1815.59</ele>
        <time>2014-06-27T15:59:27Z</time>
      </trkpt>
      <trkpt lat="46.19628" lon="6.76767">
        <ele>1815.59</ele>
        <time>2014-06-27T15:59:29Z</time>
      </trkpt>
      <trkpt lat="46.19626" lon="6.76755">
        <ele>1815.11</ele>
        <time>2014-06-27T15:59:31Z</time>
      </trkpt>
      <trkpt lat="46.19648" lon="6.76696">
        <ele>1815.11</ele>
        <time>2014-06-27T15:59:41Z</time>
      </trkpt>
      <trkpt lat="46.19659" lon="6.76691">
        <ele>1814.15</ele>
        <time>2014-06-27T15:59:43Z</time>
      </trkpt>
      <trkpt lat="46.1968" lon="6.76687">
        <ele>1810.3</ele>
        <time>2014-06-27T15:59:48Z</time>
      </trkpt>
      <trkpt lat="46.19682" lon="6.76686">
        <ele>1807.9</ele>
        <time>2014-06-27T15:59:51Z</time>
      </trkpt>
      <trkpt lat="46.19683" lon="6.76684">
        <ele>1806.94</ele>
        <time>2014-06-27T15:59:53Z</time>
      </trkpt>
      <trkpt lat="46.19683" lon="6.76676">
        <ele>1806.94</ele>
        <time>2014-06-27T16:00:00Z</time>
      </trkpt>
      <trkpt lat="46.19703" lon="6.76669">
        <ele>1806.94</ele>
        <time>2014-06-27T16:00:05Z</time>
      </trkpt>
      <trkpt lat="46.19727" lon="6.7666">
        <ele>1805.49</ele>
        <time>2014-06-27T16:00:09Z</time>
      </trkpt>
      <trkpt lat="46.19747" lon="6.76644">
        <ele>1800.69</ele>
        <time>2014-06-27T16:00:12Z</time>
      </trkpt>
      <trkpt lat="46.19761" lon="6.76633">
        <ele>1796.84</ele>
        <time>2014-06-27T16:00:14Z</time>
      </trkpt>
      <trkpt lat="46.19776" lon="6.76621">
        <ele>1793</ele>
        <time>2014-06-27T16:00:16Z</time>
      </trkpt>
      <trkpt lat="46.19791" lon="6.7661">
        <ele>1790.11</ele>
        <time>2014-06-27T16:00:18Z</time>
      </trkpt>
      <trkpt lat="46.19798" lon="6.76605">
        <ele>1790.11</ele>
        <time>2014-06-27T16:00:19Z</time>
      </trkpt>
      <trkpt lat="46.19827" lon="6.76585">
        <ele>1787.23</ele>
        <time>2014-06-27T16:00:23Z</time>
      </trkpt>
      <trkpt lat="46.19833" lon="6.76579">
        <ele>1787.23</ele>
        <time>2014-06-27T16:00:24Z</time>
      </trkpt>
      <trkpt lat="46.19863" lon="6.76522">
        <ele>1785.31</ele>
        <time>2014-06-27T16:00:30Z</time>
      </trkpt>
      <trkpt lat="46.19878" lon="6.76434">
        <ele>1780.98</ele>
        <time>2014-06-27T16:00:37Z</time>
      </trkpt>
      <trkpt lat="46.19888" lon="6.76298">
        <ele>1778.1</ele>
        <time>2014-06-27T16:00:48Z</time>
      </trkpt>
      <trkpt lat="46.19889" lon="6.7623">
        <ele>1774.25</ele>
        <time>2014-06-27T16:00:53Z</time>
      </trkpt>
      <trkpt lat="46.1989" lon="6.76217">
        <ele>1773.29</ele>
        <time>2014-06-27T16:00:54Z</time>
      </trkpt>
      <trkpt lat="46.19898" lon="6.76162">
        <ele>1768.96</ele>
        <time>2014-06-27T16:00:58Z</time>
      </trkpt>
      <trkpt lat="46.19903" lon="6.76149">
        <ele>1768</ele>
        <time>2014-06-27T16:00:59Z</time>
      </trkpt>
      <trkpt lat="46.19936" lon="6.76038">
        <ele>1764.64</ele>
        <time>2014-06-27T16:01:08Z</time>
      </trkpt>
      <trkpt lat="46.19949" lon="6.75996">
        <ele>1764.64</ele>
        <time>2014-06-27T16:01:12Z</time>
      </trkpt>
      <trkpt lat="46.1997" lon="6.75918">
        <ele>1761.75</ele>
        <time>2014-06-27T16:01:19Z</time>
      </trkpt>
      <trkpt lat="46.19977" lon="6.75898">
        <ele>1759.83</ele>
        <time>2014-06-27T16:01:21Z</time>
      </trkpt>
      <trkpt lat="46.19988" lon="6.75873">
        <ele>1757.43</ele>
        <time>2014-06-27T16:01:24Z</time>
      </trkpt>
      <trkpt lat="46.20002" lon="6.75851">
        <ele>1756.95</ele>
        <time>2014-06-27T16:01:28Z</time>
      </trkpt>
      <trkpt lat="46.2002" lon="6.75823">
        <ele>1760.79</ele>
        <time>2014-06-27T16:01:35Z</time>
      </trkpt>
      <trkpt lat="46.20047" lon="6.75793">
        <ele>1762.71</ele>
        <time>2014-06-27T16:01:45Z</time>
      </trkpt>
      <trkpt lat="46.20074" lon="6.75743">
        <ele>1762.23</ele>
        <time>2014-06-27T16:01:56Z</time>
      </trkpt>
      <trkpt lat="46.20092" lon="6.75697">
        <ele>1762.23</ele>
        <time>2014-06-27T16:02:02Z</time>
      </trkpt>
      <trkpt lat="46.20101" lon="6.75642">
        <ele>1761.27</ele>
        <time>2014-06-27T16:02:08Z</time>
      </trkpt>
      <trkpt lat="46.20104" lon="6.75513">
        <ele>1759.83</ele>
        <time>2014-06-27T16:02:21Z</time>
      </trkpt>
      <trkpt lat="46.20105" lon="6.75491">
        <ele>1759.35</ele>
        <time>2014-06-27T16:02:23Z</time>
      </trkpt>
      <trkpt lat="46.20113" lon="6.75422">
        <ele>1755.99</ele>
        <time>2014-06-27T16:02:29Z</time>
      </trkpt>
      <trkpt lat="46.20117" lon="6.75385">
        <ele>1753.1</ele>
        <time>2014-06-27T16:02:32Z</time>
      </trkpt>
      <trkpt lat="46.20119" lon="6.75374">
        <ele>1753.1</ele>
        <time>2014-06-27T16:02:33Z</time>
      </trkpt>
      <trkpt lat="46.20128" lon="6.75291">
        <ele>1752.14</ele>
        <time>2014-06-27T16:02:41Z</time>
      </trkpt>
      <trkpt lat="46.20131" lon="6.75213">
        <ele>1752.14</ele>
        <time>2014-06-27T16:02:51Z</time>
      </trkpt>
      <trkpt lat="46.20131" lon="6.75156">
        <ele>1752.14</ele>
        <time>2014-06-27T16:02:57Z</time>
      </trkpt>
      <trkpt lat="46.20115" lon="6.75034">
        <ele>1753.1</ele>
        <time>2014-06-27T16:03:10Z</time>
      </trkpt>
      <trkpt lat="46.20104" lon="6.74986">
        <ele>1753.1</ele>
        <time>2014-06-27T16:03:15Z</time>
      </trkpt>
      <trkpt lat="46.20098" lon="6.7494">
        <ele>1749.74</ele>
        <time>2014-06-27T16:03:19Z</time>
      </trkpt>
      <trkpt lat="46.20095" lon="6.74907">
        <ele>1746.37</ele>
        <time>2014-06-27T16:03:22Z</time>
      </trkpt>
      <trkpt lat="46.20087" lon="6.74785">
        <ele>1743.49</ele>
        <time>2014-06-27T16:03:33Z</time>
      </trkpt>
      <trkpt lat="46.2008" lon="6.74741">
        <ele>1743.49</ele>
        <time>2014-06-27T16:03:37Z</time>
      </trkpt>
      <trkpt lat="46.20076" lon="6.74692">
        <ele>1743.49</ele>
        <time>2014-06-27T16:03:44Z</time>
      </trkpt>
      <trkpt lat="46.20079" lon="6.74721">
        <ele>1743.01</ele>
        <time>2014-06-27T16:03:54Z</time>
      </trkpt>
      <trkpt lat="46.20072" lon="6.74722">
        <ele>1743.01</ele>
        <time>2014-06-27T16:03:59Z</time>
      </trkpt>
      <trkpt lat="46.20058" lon="6.74693">
        <ele>1742.05</ele>
        <time>2014-06-27T16:04:04Z</time>
      </trkpt>
      <trkpt lat="46.20051" lon="6.74678">
        <ele>1738.68</ele>
        <time>2014-06-27T16:04:07Z</time>
      </trkpt>
      <trkpt lat="46.2004" lon="6.74652">
        <ele>1733.88</ele>
        <time>2014-06-27T16:04:11Z</time>
      </trkpt>
      <trkpt lat="46.20038" lon="6.74644">
        <ele>1732.91</ele>
        <time>2014-06-27T16:04:12Z</time>
      </trkpt>
      <trkpt lat="46.2003" lon="6.74621">
        <ele>1731.47</ele>
        <time>2014-06-27T16:04:15Z</time>
      </trkpt>
      <trkpt lat="46.20007" lon="6.74575">
        <ele>1731.95</ele>
        <time>2014-06-27T16:04:23Z</time>
      </trkpt>
      <trkpt lat="46.19984" lon="6.74539">
        <ele>1731.47</ele>
        <time>2014-06-27T16:04:29Z</time>
      </trkpt>
      <trkpt lat="46.19968" lon="6.74507">
        <ele>1727.15</ele>
        <time>2014-06-27T16:04:34Z</time>
      </trkpt>
      <trkpt lat="46.19966" lon="6.74502">
        <ele>1726.18</ele>
        <time>2014-06-27T16:04:35Z</time>
      </trkpt>
      <trkpt lat="46.19958" lon="6.74478">
        <ele>1723.3</ele>
        <time>2014-06-27T16:04:42Z</time>
      </trkpt>
      <trkpt lat="46.19949" lon="6.74464">
        <ele>1725.22</ele>
        <time>2014-06-27T16:04:46Z</time>
      </trkpt>
      <trkpt lat="46.19939" lon="6.74443">
        <ele>1726.18</ele>
        <time>2014-06-27T16:04:51Z</time>
      </trkpt>
      <trkpt lat="46.19908" lon="6.74366">
        <ele>1724.74</ele>
        <time>2014-06-27T16:05:02Z</time>
      </trkpt>
      <trkpt lat="46.19899" lon="6.7434">
        <ele>1720.42</ele>
        <time>2014-06-27T16:05:07Z</time>
      </trkpt>
      <trkpt lat="46.19896" lon="6.74327">
        <ele>1717.53</ele>
        <time>2014-06-27T16:05:10Z</time>
      </trkpt>
      <trkpt lat="46.19873" lon="6.74318">
        <ele>1714.17</ele>
        <time>2014-06-27T16:05:15Z</time>
      </trkpt>
      <trkpt lat="46.1986" lon="6.74313">
        <ele>1713.69</ele>
        <time>2014-06-27T16:05:24Z</time>
      </trkpt>
      <trkpt lat="46.19842" lon="6.74299">
        <ele>1713.69</ele>
        <time>2014-06-27T16:05:31Z</time>
      </trkpt>
      <trkpt lat="46.19801" lon="6.74238">
        <ele>1711.28</ele>
        <time>2014-06-27T16:05:40Z</time>
      </trkpt>
      <trkpt lat="46.19783" lon="6.74217">
        <ele>1706</ele>
        <time>2014-06-27T16:05:44Z</time>
      </trkpt>
      <trkpt lat="46.19759" lon="6.74181">
        <ele>1704.55</ele>
        <time>2014-06-27T16:05:52Z</time>
      </trkpt>
      <trkpt lat="46.19732" lon="6.74124">
        <ele>1702.15</ele>
        <time>2014-06-27T16:05:59Z</time>
      </trkpt>
      <trkpt lat="46.19728" lon="6.74118">
        <ele>1701.19</ele>
        <time>2014-06-27T16:06:00Z</time>
      </trkpt>
      <trkpt lat="46.19708" lon="6.74087">
        <ele>1699.27</ele>
        <time>2014-06-27T16:06:05Z</time>
      </trkpt>
      <trkpt lat="46.19692" lon="6.74065">
        <ele>1699.27</ele>
        <time>2014-06-27T16:06:14Z</time>
      </trkpt>
      <trkpt lat="46.19678" lon="6.74045">
        <ele>1698.79</ele>
        <time>2014-06-27T16:06:24Z</time>
      </trkpt>
      <trkpt lat="46.1967" lon="6.74026">
        <ele>1698.79</ele>
        <time>2014-06-27T16:06:28Z</time>
      </trkpt>
      <trkpt lat="46.19664" lon="6.74013">
        <ele>1698.31</ele>
        <time>2014-06-27T16:06:30Z</time>
      </trkpt>
      <trkpt lat="46.19658" lon="6.73996">
        <ele>1698.31</ele>
        <time>2014-06-27T16:06:32Z</time>
      </trkpt>
      <trkpt lat="46.19637" lon="6.7394">
        <ele>1694.46</ele>
        <time>2014-06-27T16:06:38Z</time>
      </trkpt>
      <trkpt lat="46.19616" lon="6.73906">
        <ele>1690.14</ele>
        <time>2014-06-27T16:06:42Z</time>
      </trkpt>
      <trkpt lat="46.1958" lon="6.73876">
        <ele>1686.29</ele>
        <time>2014-06-27T16:06:47Z</time>
      </trkpt>
      <trkpt lat="46.19534" lon="6.73845">
        <ele>1686.29</ele>
        <time>2014-06-27T16:06:54Z</time>
      </trkpt>
      <trkpt lat="46.19525" lon="6.73832">
        <ele>1685.33</ele>
        <time>2014-06-27T16:06:56Z</time>
      </trkpt>
      <trkpt lat="46.19507" lon="6.73793">
        <ele>1684.37</ele>
        <time>2014-06-27T16:07:01Z</time>
      </trkpt>
      <trkpt lat="46.19488" lon="6.73755">
        <ele>1680.04</ele>
        <time>2014-06-27T16:07:06Z</time>
      </trkpt>
      <trkpt lat="46.19481" lon="6.73735">
        <ele>1676.2</ele>
        <time>2014-06-27T16:07:09Z</time>
      </trkpt>
      <trkpt lat="46.19477" lon="6.73731">
        <ele>1674.75</ele>
        <time>2014-06-27T16:07:10Z</time>
      </trkpt>
      <trkpt lat="46.19465" lon="6.73724">
        <ele>1673.31</ele>
        <time>2014-06-27T16:07:12Z</time>
      </trkpt>
      <trkpt lat="46.19417" lon="6.73671">
        <ele>1671.39</ele>
        <time>2014-06-27T16:07:21Z</time>
      </trkpt>
      <trkpt lat="46.19404" lon="6.73645">
        <ele>1670.91</ele>
        <time>2014-06-27T16:07:24Z</time>
      </trkpt>
      <trkpt lat="46.19395" lon="6.73629">
        <ele>1670.43</ele>
        <time>2014-06-27T16:07:26Z</time>
      </trkpt>
      <trkpt lat="46.19379" lon="6.73595">
        <ele>1667.06</ele>
        <time>2014-06-27T16:07:31Z</time>
      </trkpt>
      <trkpt lat="46.1937" lon="6.73568">
        <ele>1662.26</ele>
        <time>2014-06-27T16:07:35Z</time>
      </trkpt>
      <trkpt lat="46.19355" lon="6.73523">
        <ele>1659.85</ele>
        <time>2014-06-27T16:07:40Z</time>
      </trkpt>
      <trkpt lat="46.19331" lon="6.73476">
        <ele>1659.85</ele>
        <time>2014-06-27T16:07:47Z</time>
      </trkpt>
      <trkpt lat="46.19326" lon="6.73469">
        <ele>1659.37</ele>
        <time>2014-06-27T16:07:48Z</time>
      </trkpt>
      <trkpt lat="46.19314" lon="6.73456">
        <ele>1658.41</ele>
        <time>2014-06-27T16:07:50Z</time>
      </trkpt>
      <trkpt lat="46.19292" lon="6.73428">
        <ele>1652.64</ele>
        <time>2014-06-27T16:07:54Z</time>
      </trkpt>
      <trkpt lat="46.19288" lon="6.73422">
        <ele>1651.2</ele>
        <time>2014-06-27T16:07:55Z</time>
      </trkpt>
      <trkpt lat="46.19264" lon="6.73367">
        <ele>1653.12</ele>
        <time>2014-06-27T16:08:08Z</time>
      </trkpt>
      <trkpt lat="46.1926" lon="6.73353">
        <ele>1649.76</ele>
        <time>2014-06-27T16:08:18Z</time>
      </trkpt>
      <trkpt lat="46.19241" lon="6.73287">
        <ele>1648.8</ele>
        <time>2014-06-27T16:08:30Z</time>
      </trkpt>
      <trkpt lat="46.19228" lon="6.73209">
        <ele>1646.4</ele>
        <time>2014-06-27T16:08:39Z</time>
      </trkpt>
      <trkpt lat="46.19225" lon="6.73185">
        <ele>1646.4</ele>
        <time>2014-06-27T16:08:42Z</time>
      </trkpt>
      <trkpt lat="46.19226" lon="6.73157">
        <ele>1644.95</ele>
        <time>2014-06-27T16:08:47Z</time>
      </trkpt>
      <trkpt lat="46.19225" lon="6.7313">
        <ele>1644.95</ele>
        <time>2014-06-27T16:08:51Z</time>
      </trkpt>
      <trkpt lat="46.19226" lon="6.73073">
        <ele>1644.47</ele>
        <time>2014-06-27T16:08:57Z</time>
      </trkpt>
      <trkpt lat="46.19233" lon="6.72948">
        <ele>1641.59</ele>
        <time>2014-06-27T16:09:08Z</time>
      </trkpt>
      <trkpt lat="46.19233" lon="6.72905">
        <ele>1638.7</ele>
        <time>2014-06-27T16:09:11Z</time>
      </trkpt>
      <trkpt lat="46.19235" lon="6.7286">
        <ele>1634.38</ele>
        <time>2014-06-27T16:09:14Z</time>
      </trkpt>
      <trkpt lat="46.19235" lon="6.72836">
        <ele>1631.01</ele>
        <time>2014-06-27T16:09:16Z</time>
      </trkpt>
      <trkpt lat="46.19235" lon="6.72825">
        <ele>1629.57</ele>
        <time>2014-06-27T16:09:17Z</time>
      </trkpt>
      <trkpt lat="46.19246" lon="6.72699">
        <ele>1628.61</ele>
        <time>2014-06-27T16:09:28Z</time>
      </trkpt>
      <trkpt lat="46.19247" lon="6.72672">
        <ele>1628.13</ele>
        <time>2014-06-27T16:09:30Z</time>
      </trkpt>
      <trkpt lat="46.19243" lon="6.72609">
        <ele>1623.8</ele>
        <time>2014-06-27T16:09:35Z</time>
      </trkpt>
      <trkpt lat="46.1924" lon="6.72585">
        <ele>1621.88</ele>
        <time>2014-06-27T16:09:37Z</time>
      </trkpt>
      <trkpt lat="46.19244" lon="6.72526">
        <ele>1617.56</ele>
        <time>2014-06-27T16:09:42Z</time>
      </trkpt>
      <trkpt lat="46.19255" lon="6.72482">
        <ele>1617.07</ele>
        <time>2014-06-27T16:09:46Z</time>
      </trkpt>
      <trkpt lat="46.19269" lon="6.72441">
        <ele>1617.07</ele>
        <time>2014-06-27T16:09:50Z</time>
      </trkpt>
      <trkpt lat="46.19321" lon="6.7236">
        <ele>1616.11</ele>
        <time>2014-06-27T16:10:01Z</time>
      </trkpt>
      <trkpt lat="46.19328" lon="6.72349">
        <ele>1615.63</ele>
        <time>2014-06-27T16:10:03Z</time>
      </trkpt>
      <trkpt lat="46.19336" lon="6.72341">
        <ele>1615.15</ele>
        <time>2014-06-27T16:10:05Z</time>
      </trkpt>
      <trkpt lat="46.19365" lon="6.7232">
        <ele>1614.67</ele>
        <time>2014-06-27T16:10:14Z</time>
      </trkpt>
      <trkpt lat="46.19394" lon="6.72323">
        <ele>1614.67</ele>
        <time>2014-06-27T16:10:24Z</time>
      </trkpt>
      <trkpt lat="46.19398" lon="6.72325">
        <ele>1614.19</ele>
        <time>2014-06-27T16:10:27Z</time>
      </trkpt>
      <trkpt lat="46.194" lon="6.72318">
        <ele>1614.19</ele>
        <time>2014-06-27T16:10:31Z</time>
      </trkpt>
      <trkpt lat="46.19397" lon="6.72275">
        <ele>1613.71</ele>
        <time>2014-06-27T16:10:39Z</time>
      </trkpt>
      <trkpt lat="46.19384" lon="6.72261">
        <ele>1610.35</ele>
        <time>2014-06-27T16:10:44Z</time>
      </trkpt>
      <trkpt lat="46.19376" lon="6.72252">
        <ele>1606.98</ele>
        <time>2014-06-27T16:10:46Z</time>
      </trkpt>
      <trkpt lat="46.19369" lon="6.72242">
        <ele>1603.14</ele>
        <time>2014-06-27T16:10:48Z</time>
      </trkpt>
      <trkpt lat="46.19363" lon="6.72238">
        <ele>1599.29</ele>
        <time>2014-06-27T16:10:50Z</time>
      </trkpt>
      <trkpt lat="46.19357" lon="6.72239">
        <ele>1595.93</ele>
        <time>2014-06-27T16:10:52Z</time>
      </trkpt>
      <trkpt lat="46.19347" lon="6.72232">
        <ele>1594.48</ele>
        <time>2014-06-27T16:10:55Z</time>
      </trkpt>
      <trkpt lat="46.19328" lon="6.72242">
        <ele>1595.45</ele>
        <time>2014-06-27T16:11:00Z</time>
      </trkpt>
      <trkpt lat="46.19301" lon="6.72259">
        <ele>1594.48</ele>
        <time>2014-06-27T16:11:07Z</time>
      </trkpt>
      <trkpt lat="46.19285" lon="6.72258">
        <ele>1591.12</ele>
        <time>2014-06-27T16:11:10Z</time>
      </trkpt>
      <trkpt lat="46.19264" lon="6.72255">
        <ele>1585.83</ele>
        <time>2014-06-27T16:11:13Z</time>
      </trkpt>
      <trkpt lat="46.19249" lon="6.72251">
        <ele>1581.99</ele>
        <time>2014-06-27T16:11:15Z</time>
      </trkpt>
      <trkpt lat="46.19235" lon="6.72249">
        <ele>1578.62</ele>
        <time>2014-06-27T16:11:17Z</time>
      </trkpt>
      <trkpt lat="46.19211" lon="6.72254">
        <ele>1574.3</ele>
        <time>2014-06-27T16:11:21Z</time>
      </trkpt>
      <trkpt lat="46.19206" lon="6.72257">
        <ele>1573.82</ele>
        <time>2014-06-27T16:11:22Z</time>
      </trkpt>
      <trkpt lat="46.1916" lon="6.72269">
        <ele>1570.93</ele>
        <time>2014-06-27T16:11:30Z</time>
      </trkpt>
      <trkpt lat="46.19137" lon="6.72282">
        <ele>1567.57</ele>
        <time>2014-06-27T16:11:34Z</time>
      </trkpt>
      <trkpt lat="46.19107" lon="6.7231">
        <ele>1563.24</ele>
        <time>2014-06-27T16:11:39Z</time>
      </trkpt>
      <trkpt lat="46.19097" lon="6.72324">
        <ele>1562.28</ele>
        <time>2014-06-27T16:11:42Z</time>
      </trkpt>
      <trkpt lat="46.19095" lon="6.72317">
        <ele>1562.76</ele>
        <time>2014-06-27T16:11:46Z</time>
      </trkpt>
      <trkpt lat="46.191" lon="6.7231">
        <ele>1562.76</ele>
        <time>2014-06-27T16:11:48Z</time>
      </trkpt>
      <trkpt lat="46.19135" lon="6.7225">
        <ele>1562.76</ele>
        <time>2014-06-27T16:11:58Z</time>
      </trkpt>
      <trkpt lat="46.19152" lon="6.72231">
        <ele>1561.32</ele>
        <time>2014-06-27T16:12:05Z</time>
      </trkpt>
      <trkpt lat="46.1917" lon="6.72218">
        <ele>1560.84</ele>
        <time>2014-06-27T16:12:09Z</time>
      </trkpt>
      <trkpt lat="46.19193" lon="6.72186">
        <ele>1556.99</ele>
        <time>2014-06-27T16:12:15Z</time>
      </trkpt>
      <trkpt lat="46.19207" lon="6.72154">
        <ele>1552.19</ele>
        <time>2014-06-27T16:12:19Z</time>
      </trkpt>
      <trkpt lat="46.19215" lon="6.72139">
        <ele>1549.3</ele>
        <time>2014-06-27T16:12:21Z</time>
      </trkpt>
      <trkpt lat="46.19224" lon="6.72122">
        <ele>1546.42</ele>
        <time>2014-06-27T16:12:23Z</time>
      </trkpt>
      <trkpt lat="46.19244" lon="6.72092">
        <ele>1541.13</ele>
        <time>2014-06-27T16:12:27Z</time>
      </trkpt>
      <trkpt lat="46.19251" lon="6.72085">
        <ele>1539.69</ele>
        <time>2014-06-27T16:12:28Z</time>
      </trkpt>
      <trkpt lat="46.19269" lon="6.72052">
        <ele>1536.8</ele>
        <time>2014-06-27T16:12:32Z</time>
      </trkpt>
      <trkpt lat="46.1928" lon="6.72021">
        <ele>1534.88</ele>
        <time>2014-06-27T16:12:36Z</time>
      </trkpt>
      <trkpt lat="46.19291" lon="6.72004">
        <ele>1532.48</ele>
        <time>2014-06-27T16:12:39Z</time>
      </trkpt>
      <trkpt lat="46.19298" lon="6.71993">
        <ele>1530.08</ele>
        <time>2014-06-27T16:12:41Z</time>
      </trkpt>
      <trkpt lat="46.1931" lon="6.71975">
        <ele>1527.67</ele>
        <time>2014-06-27T16:12:44Z</time>
      </trkpt>
      <trkpt lat="46.19325" lon="6.71952">
        <ele>1524.79</ele>
        <time>2014-06-27T16:12:48Z</time>
      </trkpt>
      <trkpt lat="46.19331" lon="6.71949">
        <ele>1524.31</ele>
        <time>2014-06-27T16:12:50Z</time>
      </trkpt>
      <trkpt lat="46.1936" lon="6.71935">
        <ele>1524.31</ele>
        <time>2014-06-27T16:12:55Z</time>
      </trkpt>
      <trkpt lat="46.19383" lon="6.71929">
        <ele>1523.35</ele>
        <time>2014-06-27T16:12:59Z</time>
      </trkpt>
      <trkpt lat="46.19402" lon="6.71935">
        <ele>1519.5</ele>
        <time>2014-06-27T16:13:02Z</time>
      </trkpt>
      <trkpt lat="46.19421" lon="6.71931">
        <ele>1514.21</ele>
        <time>2014-06-27T16:13:05Z</time>
      </trkpt>
      <trkpt lat="46.19433" lon="6.71921">
        <ele>1510.85</ele>
        <time>2014-06-27T16:13:07Z</time>
      </trkpt>
      <trkpt lat="46.19445" lon="6.71912">
        <ele>1509.41</ele>
        <time>2014-06-27T16:13:09Z</time>
      </trkpt>
      <trkpt lat="46.19498" lon="6.71888">
        <ele>1506.52</ele>
        <time>2014-06-27T16:13:16Z</time>
      </trkpt>
      <trkpt lat="46.19527" lon="6.71874">
        <ele>1505.08</ele>
        <time>2014-06-27T16:13:20Z</time>
      </trkpt>
      <trkpt lat="46.19544" lon="6.71858">
        <ele>1501.72</ele>
        <time>2014-06-27T16:13:23Z</time>
      </trkpt>
      <trkpt lat="46.1956" lon="6.71849">
        <ele>1496.43</ele>
        <time>2014-06-27T16:13:26Z</time>
      </trkpt>
      <trkpt lat="46.19577" lon="6.71841">
        <ele>1492.58</ele>
        <time>2014-06-27T16:13:29Z</time>
      </trkpt>
      <trkpt lat="46.19593" lon="6.71823">
        <ele>1490.66</ele>
        <time>2014-06-27T16:13:33Z</time>
      </trkpt>
      <trkpt lat="46.19602" lon="6.71812">
        <ele>1491.14</ele>
        <time>2014-06-27T16:13:35Z</time>
      </trkpt>
      <trkpt lat="46.19614" lon="6.71795">
        <ele>1490.66</ele>
        <time>2014-06-27T16:13:38Z</time>
      </trkpt>
      <trkpt lat="46.19635" lon="6.71774">
        <ele>1490.18</ele>
        <time>2014-06-27T16:13:42Z</time>
      </trkpt>
      <trkpt lat="46.19661" lon="6.71767">
        <ele>1485.85</ele>
        <time>2014-06-27T16:13:46Z</time>
      </trkpt>
      <trkpt lat="46.1967" lon="6.71749">
        <ele>1481.05</ele>
        <time>2014-06-27T16:13:50Z</time>
      </trkpt>
      <trkpt lat="46.19701" lon="6.71698">
        <ele>1476.24</ele>
        <time>2014-06-27T16:13:58Z</time>
      </trkpt>
      <trkpt lat="46.19741" lon="6.71668">
        <ele>1473.84</ele>
        <time>2014-06-27T16:14:04Z</time>
      </trkpt>
      <trkpt lat="46.19766" lon="6.71658">
        <ele>1469.99</ele>
        <time>2014-06-27T16:14:08Z</time>
      </trkpt>
      <trkpt lat="46.19772" lon="6.71645">
        <ele>1466.15</ele>
        <time>2014-06-27T16:14:11Z</time>
      </trkpt>
      <trkpt lat="46.19771" lon="6.71638">
        <ele>1465.67</ele>
        <time>2014-06-27T16:14:12Z</time>
      </trkpt>
      <trkpt lat="46.19767" lon="6.71624">
        <ele>1464.23</ele>
        <time>2014-06-27T16:14:14Z</time>
      </trkpt>
      <trkpt lat="46.19761" lon="6.71587">
        <ele>1463.74</ele>
        <time>2014-06-27T16:14:18Z</time>
      </trkpt>
      <trkpt lat="46.19776" lon="6.7153">
        <ele>1460.86</ele>
        <time>2014-06-27T16:14:25Z</time>
      </trkpt>
      <trkpt lat="46.19793" lon="6.71515">
        <ele>1457.5</ele>
        <time>2014-06-27T16:14:28Z</time>
      </trkpt>
      <trkpt lat="46.19797" lon="6.71507">
        <ele>1456.53</ele>
        <time>2014-06-27T16:14:29Z</time>
      </trkpt>
      <trkpt lat="46.19807" lon="6.7148">
        <ele>1453.17</ele>
        <time>2014-06-27T16:14:34Z</time>
      </trkpt>
      <trkpt lat="46.19815" lon="6.71457">
        <ele>1452.69</ele>
        <time>2014-06-27T16:14:38Z</time>
      </trkpt>
      <trkpt lat="46.19822" lon="6.7141">
        <ele>1453.65</ele>
        <time>2014-06-27T16:14:45Z</time>
      </trkpt>
      <trkpt lat="46.19828" lon="6.71389">
        <ele>1453.65</ele>
        <time>2014-06-27T16:14:48Z</time>
      </trkpt>
      <trkpt lat="46.19836" lon="6.71357">
        <ele>1453.65</ele>
        <time>2014-06-27T16:14:52Z</time>
      </trkpt>
      <trkpt lat="46.19844" lon="6.71333">
        <ele>1453.65</ele>
        <time>2014-06-27T16:14:55Z</time>
      </trkpt>
      <trkpt lat="46.19853" lon="6.71289">
        <ele>1449.81</ele>
        <time>2014-06-27T16:15:00Z</time>
      </trkpt>
      <trkpt lat="46.19855" lon="6.71281">
        <ele>1448.36</ele>
        <time>2014-06-27T16:15:01Z</time>
      </trkpt>
      <trkpt lat="46.19857" lon="6.71253">
        <ele>1443.08</ele>
        <time>2014-06-27T16:15:04Z</time>
      </trkpt>
      <trkpt lat="46.19858" lon="6.71228">
        <ele>1439.71</ele>
        <time>2014-06-27T16:15:07Z</time>
      </trkpt>
      <trkpt lat="46.19859" lon="6.71222">
        <ele>1438.75</ele>
        <time>2014-06-27T16:15:08Z</time>
      </trkpt>
      <trkpt lat="46.19857" lon="6.71217">
        <ele>1437.79</ele>
        <time>2014-06-27T16:15:10Z</time>
      </trkpt>
      <trkpt lat="46.19843" lon="6.71245">
        <ele>1437.31</ele>
        <time>2014-06-27T16:15:17Z</time>
      </trkpt>
      <trkpt lat="46.19829" lon="6.71285">
        <ele>1435.39</ele>
        <time>2014-06-27T16:15:23Z</time>
      </trkpt>
      <trkpt lat="46.19821" lon="6.71304">
        <ele>1431.06</ele>
        <time>2014-06-27T16:15:26Z</time>
      </trkpt>
      <trkpt lat="46.19812" lon="6.71314">
        <ele>1427.21</ele>
        <time>2014-06-27T16:15:28Z</time>
      </trkpt>
      <trkpt lat="46.19801" lon="6.71318">
        <ele>1422.89</ele>
        <time>2014-06-27T16:15:30Z</time>
      </trkpt>
      <trkpt lat="46.19787" lon="6.71318">
        <ele>1418.56</ele>
        <time>2014-06-27T16:15:32Z</time>
      </trkpt>
      <trkpt lat="46.19779" lon="6.71304">
        <ele>1414.72</ele>
        <time>2014-06-27T16:15:34Z</time>
      </trkpt>
      <trkpt lat="46.19776" lon="6.71295">
        <ele>1412.79</ele>
        <time>2014-06-27T16:15:35Z</time>
      </trkpt>
      <trkpt lat="46.19771" lon="6.71277">
        <ele>1410.87</ele>
        <time>2014-06-27T16:15:37Z</time>
      </trkpt>
      <trkpt lat="46.1977" lon="6.71211">
        <ele>1406.55</ele>
        <time>2014-06-27T16:15:45Z</time>
      </trkpt>
      <trkpt lat="46.19774" lon="6.71179">
        <ele>1403.18</ele>
        <time>2014-06-27T16:15:49Z</time>
      </trkpt>
      <trkpt lat="46.19774" lon="6.71156">
        <ele>1398.37</ele>
        <time>2014-06-27T16:15:52Z</time>
      </trkpt>
      <trkpt lat="46.1977" lon="6.71126">
        <ele>1392.61</ele>
        <time>2014-06-27T16:15:56Z</time>
      </trkpt>
      <trkpt lat="46.19767" lon="6.71109">
        <ele>1389.72</ele>
        <time>2014-06-27T16:15:58Z</time>
      </trkpt>
      <trkpt lat="46.19759" lon="6.71071">
        <ele>1384.92</ele>
        <time>2014-06-27T16:16:02Z</time>
      </trkpt>
      <trkpt lat="46.19754" lon="6.71044">
        <ele>1381.07</ele>
        <time>2014-06-27T16:16:05Z</time>
      </trkpt>
      <trkpt lat="46.19753" lon="6.71036">
        <ele>1380.11</ele>
        <time>2014-06-27T16:16:06Z</time>
      </trkpt>
      <trkpt lat="46.1975" lon="6.71025">
        <ele>1375.3</ele>
        <time>2014-06-27T16:16:10Z</time>
      </trkpt>
      <trkpt lat="46.19748" lon="6.71028">
        <ele>1374.82</ele>
        <time>2014-06-27T16:16:12Z</time>
      </trkpt>
      <trkpt lat="46.19727" lon="6.7105">
        <ele>1371.46</ele>
        <time>2014-06-27T16:16:16Z</time>
      </trkpt>
      <trkpt lat="46.19706" lon="6.71059">
        <ele>1368.09</ele>
        <time>2014-06-27T16:16:19Z</time>
      </trkpt>
      <trkpt lat="46.1969" lon="6.71049">
        <ele>1363.29</ele>
        <time>2014-06-27T16:16:23Z</time>
      </trkpt>
      <trkpt lat="46.19689" lon="6.71041">
        <ele>1361.84</ele>
        <time>2014-06-27T16:16:24Z</time>
      </trkpt>
      <trkpt lat="46.19687" lon="6.71003">
        <ele>1355.6</ele>
        <time>2014-06-27T16:16:29Z</time>
      </trkpt>
      <trkpt lat="46.19686" lon="6.70996">
        <ele>1354.15</ele>
        <time>2014-06-27T16:16:30Z</time>
      </trkpt>
      <trkpt lat="46.19687" lon="6.70963">
        <ele>1348.87</ele>
        <time>2014-06-27T16:16:34Z</time>
      </trkpt>
      <trkpt lat="46.19688" lon="6.70933">
        <ele>1345.5</ele>
        <time>2014-06-27T16:16:37Z</time>
      </trkpt>
      <trkpt lat="46.19688" lon="6.70924">
        <ele>1345.5</ele>
        <time>2014-06-27T16:16:38Z</time>
      </trkpt>
      <trkpt lat="46.19684" lon="6.70892">
        <ele>1340.22</ele>
        <time>2014-06-27T16:16:42Z</time>
      </trkpt>
      <trkpt lat="46.19679" lon="6.7087">
        <ele>1335.89</ele>
        <time>2014-06-27T16:16:45Z</time>
      </trkpt>
      <trkpt lat="46.19674" lon="6.70844">
        <ele>1331.56</ele>
        <time>2014-06-27T16:16:48Z</time>
      </trkpt>
      <trkpt lat="46.19672" lon="6.70825">
        <ele>1329.16</ele>
        <time>2014-06-27T16:16:50Z</time>
      </trkpt>
      <trkpt lat="46.19672" lon="6.70794">
        <ele>1325.31</ele>
        <time>2014-06-27T16:16:53Z</time>
      </trkpt>
      <trkpt lat="46.19668" lon="6.70752">
        <ele>1320.03</ele>
        <time>2014-06-27T16:16:57Z</time>
      </trkpt>
      <trkpt lat="46.19661" lon="6.70716">
        <ele>1314.74</ele>
        <time>2014-06-27T16:17:01Z</time>
      </trkpt>
      <trkpt lat="46.19659" lon="6.70711">
        <ele>1313.78</ele>
        <time>2014-06-27T16:17:02Z</time>
      </trkpt>
      <trkpt lat="46.19644" lon="6.70667">
        <ele>1309.93</ele>
        <time>2014-06-27T16:17:10Z</time>
      </trkpt>
      <trkpt lat="46.19643" lon="6.70658">
        <ele>1308.97</ele>
        <time>2014-06-27T16:17:11Z</time>
      </trkpt>
      <trkpt lat="46.19642" lon="6.70615">
        <ele>1304.17</ele>
        <time>2014-06-27T16:17:16Z</time>
      </trkpt>
      <trkpt lat="46.19642" lon="6.70607">
        <ele>1302.72</ele>
        <time>2014-06-27T16:17:17Z</time>
      </trkpt>
      <trkpt lat="46.19644" lon="6.7059">
        <ele>1297.44</ele>
        <time>2014-06-27T16:17:20Z</time>
      </trkpt>
      <trkpt lat="46.19639" lon="6.70584">
        <ele>1293.59</ele>
        <time>2014-06-27T16:17:23Z</time>
      </trkpt>
      <trkpt lat="46.19637" lon="6.70587">
        <ele>1293.11</ele>
        <time>2014-06-27T16:17:24Z</time>
      </trkpt>
      <trkpt lat="46.19624" lon="6.7061">
        <ele>1292.15</ele>
        <time>2014-06-27T16:17:28Z</time>
      </trkpt>
      <trkpt lat="46.19612" lon="6.70602">
        <ele>1288.78</ele>
        <time>2014-06-27T16:17:32Z</time>
      </trkpt>
      <trkpt lat="46.19609" lon="6.70554">
        <ele>1284.46</ele>
        <time>2014-06-27T16:17:37Z</time>
      </trkpt>
      <trkpt lat="46.19608" lon="6.70535">
        <ele>1281.09</ele>
        <time>2014-06-27T16:17:39Z</time>
      </trkpt>
      <trkpt lat="46.19609" lon="6.70511">
        <ele>1276.77</ele>
        <time>2014-06-27T16:17:42Z</time>
      </trkpt>
      <trkpt lat="46.19603" lon="6.70506">
        <ele>1272.44</ele>
        <time>2014-06-27T16:17:45Z</time>
      </trkpt>
      <trkpt lat="46.19595" lon="6.70516">
        <ele>1271</ele>
        <time>2014-06-27T16:17:47Z</time>
      </trkpt>
      <trkpt lat="46.19564" lon="6.7055">
        <ele>1267.64</ele>
        <time>2014-06-27T16:17:53Z</time>
      </trkpt>
      <trkpt lat="46.19548" lon="6.70567">
        <ele>1262.35</ele>
        <time>2014-06-27T16:17:57Z</time>
      </trkpt>
      <trkpt lat="46.19545" lon="6.70564">
        <ele>1261.87</ele>
        <time>2014-06-27T16:17:58Z</time>
      </trkpt>
      <trkpt lat="46.1954" lon="6.70532">
        <ele>1254.66</ele>
        <time>2014-06-27T16:18:03Z</time>
      </trkpt>
      <trkpt lat="46.19537" lon="6.70489">
        <ele>1249.85</ele>
        <time>2014-06-27T16:18:08Z</time>
      </trkpt>
      <trkpt lat="46.19534" lon="6.70463">
        <ele>1246.97</ele>
        <time>2014-06-27T16:18:11Z</time>
      </trkpt>
      <trkpt lat="46.19533" lon="6.70444">
        <ele>1244.56</ele>
        <time>2014-06-27T16:18:13Z</time>
      </trkpt>
      <trkpt lat="46.19535" lon="6.70419">
        <ele>1240.72</ele>
        <time>2014-06-27T16:18:16Z</time>
      </trkpt>
      <trkpt lat="46.19527" lon="6.7041">
        <ele>1235.43</ele>
        <time>2014-06-27T16:18:20Z</time>
      </trkpt>
      <trkpt lat="46.19516" lon="6.70419">
        <ele>1233.03</ele>
        <time>2014-06-27T16:18:23Z</time>
      </trkpt>
      <trkpt lat="46.19508" lon="6.70426">
        <ele>1232.07</ele>
        <time>2014-06-27T16:18:25Z</time>
      </trkpt>
      <trkpt lat="46.19499" lon="6.70436">
        <ele>1230.14</ele>
        <time>2014-06-27T16:18:27Z</time>
      </trkpt>
      <trkpt lat="46.19483" lon="6.70465">
        <ele>1225.82</ele>
        <time>2014-06-27T16:18:31Z</time>
      </trkpt>
      <trkpt lat="46.19476" lon="6.70484">
        <ele>1221.01</ele>
        <time>2014-06-27T16:18:34Z</time>
      </trkpt>
      <trkpt lat="46.19471" lon="6.70498">
        <ele>1218.13</ele>
        <time>2014-06-27T16:18:36Z</time>
      </trkpt>
      <trkpt lat="46.19468" lon="6.70505">
        <ele>1216.69</ele>
        <time>2014-06-27T16:18:37Z</time>
      </trkpt>
      <trkpt lat="46.19457" lon="6.70529">
        <ele>1211.88</ele>
        <time>2014-06-27T16:18:40Z</time>
      </trkpt>
      <trkpt lat="46.19452" lon="6.70545">
        <ele>1209.48</ele>
        <time>2014-06-27T16:18:42Z</time>
      </trkpt>
      <trkpt lat="46.19442" lon="6.70545">
        <ele>1205.15</ele>
        <time>2014-06-27T16:18:46Z</time>
      </trkpt>
      <trkpt lat="46.19433" lon="6.70498">
        <ele>1201.79</ele>
        <time>2014-06-27T16:18:54Z</time>
      </trkpt>
      <trkpt lat="46.19432" lon="6.70469">
        <ele>1196.5</ele>
        <time>2014-06-27T16:18:58Z</time>
      </trkpt>
      <trkpt lat="46.1943" lon="6.70454">
        <ele>1192.17</ele>
        <time>2014-06-27T16:19:01Z</time>
      </trkpt>
      <trkpt lat="46.19429" lon="6.70443">
        <ele>1189.29</ele>
        <time>2014-06-27T16:19:03Z</time>
      </trkpt>
      <trkpt lat="46.19424" lon="6.70412">
        <ele>1185.44</ele>
        <time>2014-06-27T16:19:07Z</time>
      </trkpt>
      <trkpt lat="46.19421" lon="6.70369">
        <ele>1180.16</ele>
        <time>2014-06-27T16:19:12Z</time>
      </trkpt>
      <trkpt lat="46.19422" lon="6.70351">
        <ele>1177.27</ele>
        <time>2014-06-27T16:19:14Z</time>
      </trkpt>
      <trkpt lat="46.19426" lon="6.70329">
        <ele>1173.43</ele>
        <time>2014-06-27T16:19:17Z</time>
      </trkpt>
      <trkpt lat="46.19418" lon="6.70321">
        <ele>1168.62</ele>
        <time>2014-06-27T16:19:21Z</time>
      </trkpt>
      <trkpt lat="46.1941" lon="6.70328">
        <ele>1167.18</ele>
        <time>2014-06-27T16:19:23Z</time>
      </trkpt>
      <trkpt lat="46.19402" lon="6.70338">
        <ele>1165.26</ele>
        <time>2014-06-27T16:19:25Z</time>
      </trkpt>
      <trkpt lat="46.19385" lon="6.70357">
        <ele>1161.41</ele>
        <time>2014-06-27T16:19:29Z</time>
      </trkpt>
      <trkpt lat="46.19372" lon="6.70375">
        <ele>1158.05</ele>
        <time>2014-06-27T16:19:32Z</time>
      </trkpt>
      <trkpt lat="46.1936" lon="6.70394">
        <ele>1153.24</ele>
        <time>2014-06-27T16:19:35Z</time>
      </trkpt>
      <trkpt lat="46.19352" lon="6.7042">
        <ele>1148.91</ele>
        <time>2014-06-27T16:19:38Z</time>
      </trkpt>
      <trkpt lat="46.19348" lon="6.70437">
        <ele>1145.55</ele>
        <time>2014-06-27T16:19:40Z</time>
      </trkpt>
      <trkpt lat="46.19345" lon="6.70453">
        <ele>1142.66</ele>
        <time>2014-06-27T16:19:42Z</time>
      </trkpt>
      <trkpt lat="46.19335" lon="6.70469">
        <ele>1139.3</ele>
        <time>2014-06-27T16:19:46Z</time>
      </trkpt>
      <trkpt lat="46.19332" lon="6.70456">
        <ele>1135.94</ele>
        <time>2014-06-27T16:19:50Z</time>
      </trkpt>
      <trkpt lat="46.19323" lon="6.7043">
        <ele>1133.05</ele>
        <time>2014-06-27T16:19:55Z</time>
      </trkpt>
      <trkpt lat="46.19314" lon="6.70401">
        <ele>1128.73</ele>
        <time>2014-06-27T16:19:59Z</time>
      </trkpt>
      <trkpt lat="46.1931" lon="6.70388">
        <ele>1124.88</ele>
        <time>2014-06-27T16:20:01Z</time>
      </trkpt>
      <trkpt lat="46.19307" lon="6.7038">
        <ele>1122.96</ele>
        <time>2014-06-27T16:20:02Z</time>
      </trkpt>
      <trkpt lat="46.19302" lon="6.70357">
        <ele>1116.71</ele>
        <time>2014-06-27T16:20:05Z</time>
      </trkpt>
      <trkpt lat="46.19301" lon="6.70343">
        <ele>1113.82</ele>
        <time>2014-06-27T16:20:07Z</time>
      </trkpt>
      <trkpt lat="46.19301" lon="6.70336">
        <ele>1112.38</ele>
        <time>2014-06-27T16:20:08Z</time>
      </trkpt>
      <trkpt lat="46.19301" lon="6.70319">
        <ele>1111.9</ele>
        <time>2014-06-27T16:20:10Z</time>
      </trkpt>
      <trkpt lat="46.19305" lon="6.70279">
        <ele>1107.58</ele>
        <time>2014-06-27T16:20:15Z</time>
      </trkpt>
      <trkpt lat="46.19306" lon="6.70273">
        <ele>1106.61</ele>
        <time>2014-06-27T16:20:16Z</time>
      </trkpt>
      <trkpt lat="46.1931" lon="6.70258">
        <ele>1102.77</ele>
        <time>2014-06-27T16:20:20Z</time>
      </trkpt>
      <trkpt lat="46.19311" lon="6.70255">
        <ele>1101.81</ele>
        <time>2014-06-27T16:20:34Z</time>
      </trkpt>
      <trkpt lat="46.19323" lon="6.70232">
        <ele>1101.81</ele>
        <time>2014-06-27T16:20:40Z</time>
      </trkpt>
      <trkpt lat="46.19335" lon="6.70205">
        <ele>1099.4</ele>
        <time>2014-06-27T16:20:43Z</time>
      </trkpt>
      <trkpt lat="46.19344" lon="6.70177">
        <ele>1094.6</ele>
        <time>2014-06-27T16:20:46Z</time>
      </trkpt>
      <trkpt lat="46.19349" lon="6.70156">
        <ele>1087.87</ele>
        <time>2014-06-27T16:20:49Z</time>
      </trkpt>
      <trkpt lat="46.19345" lon="6.70155">
        <ele>1084.02</ele>
        <time>2014-06-27T16:20:51Z</time>
      </trkpt>
      <trkpt lat="46.1934" lon="6.70163">
        <ele>1081.14</ele>
        <time>2014-06-27T16:20:54Z</time>
      </trkpt>
      <trkpt lat="46.19334" lon="6.70168">
        <ele>1081.62</ele>
        <time>2014-06-27T16:20:56Z</time>
      </trkpt>
      <trkpt lat="46.19287" lon="6.70193">
        <ele>1077.78</ele>
        <time>2014-06-27T16:21:06Z</time>
      </trkpt>
      <trkpt lat="46.19277" lon="6.70199">
        <ele>1074.41</ele>
        <time>2014-06-27T16:21:08Z</time>
      </trkpt>
      <trkpt lat="46.19262" lon="6.70208">
        <ele>1068.64</ele>
        <time>2014-06-27T16:21:11Z</time>
      </trkpt>
      <trkpt lat="46.19251" lon="6.70216">
        <ele>1064.8</ele>
        <time>2014-06-27T16:21:13Z</time>
      </trkpt>
      <trkpt lat="46.1924" lon="6.70223">
        <ele>1061.43</ele>
        <time>2014-06-27T16:21:15Z</time>
      </trkpt>
      <trkpt lat="46.19222" lon="6.7024">
        <ele>1056.63</ele>
        <time>2014-06-27T16:21:19Z</time>
      </trkpt>
      <trkpt lat="46.19214" lon="6.70236">
        <ele>1054.22</ele>
        <time>2014-06-27T16:21:23Z</time>
      </trkpt>
      <trkpt lat="46.1923" lon="6.70187">
        <ele>1050.38</ele>
        <time>2014-06-27T16:21:31Z</time>
      </trkpt>
      <trkpt lat="46.19238" lon="6.70164">
        <ele>1047.01</ele>
        <time>2014-06-27T16:21:34Z</time>
      </trkpt>
      <trkpt lat="46.19246" lon="6.70145">
        <ele>1044.13</ele>
        <time>2014-06-27T16:21:36Z</time>
      </trkpt>
      <trkpt lat="46.19253" lon="6.70127">
        <ele>1040.28</ele>
        <time>2014-06-27T16:21:38Z</time>
      </trkpt>
      <trkpt lat="46.19261" lon="6.70111">
        <ele>1036.92</ele>
        <time>2014-06-27T16:21:40Z</time>
      </trkpt>
      <trkpt lat="46.19267" lon="6.70099">
        <ele>1033.07</ele>
        <time>2014-06-27T16:21:42Z</time>
      </trkpt>
      <trkpt lat="46.19253" lon="6.70098">
        <ele>1029.23</ele>
        <time>2014-06-27T16:21:47Z</time>
      </trkpt>
      <trkpt lat="46.19188" lon="6.7014">
        <ele>1028.75</ele>
        <time>2014-06-27T16:21:58Z</time>
      </trkpt>
      <trkpt lat="46.19178" lon="6.70149">
        <ele>1027.31</ele>
        <time>2014-06-27T16:22:00Z</time>
      </trkpt>
      <trkpt lat="46.19167" lon="6.70163">
        <ele>1023.94</ele>
        <time>2014-06-27T16:22:03Z</time>
      </trkpt>
      <trkpt lat="46.19165" lon="6.70154">
        <ele>1019.62</ele>
        <time>2014-06-27T16:22:08Z</time>
      </trkpt>
      <trkpt lat="46.19175" lon="6.70143">
        <ele>1019.62</ele>
        <time>2014-06-27T16:22:11Z</time>
      </trkpt>
      <trkpt lat="46.19229" lon="6.70055">
        <ele>1018.65</ele>
        <time>2014-06-27T16:22:23Z</time>
      </trkpt>
      <trkpt lat="46.19235" lon="6.70048">
        <ele>1018.65</ele>
        <time>2014-06-27T16:22:24Z</time>
      </trkpt>
      <trkpt lat="46.19262" lon="6.69994">
        <ele>1015.77</ele>
        <time>2014-06-27T16:22:30Z</time>
      </trkpt>
      <trkpt lat="46.19294" lon="6.69962">
        <ele>1011.44</ele>
        <time>2014-06-27T16:22:35Z</time>
      </trkpt>
      <trkpt lat="46.19309" lon="6.69944">
        <ele>1009.52</ele>
        <time>2014-06-27T16:22:37Z</time>
      </trkpt>
      <trkpt lat="46.19382" lon="6.69837">
        <ele>1007.12</ele>
        <time>2014-06-27T16:22:49Z</time>
      </trkpt>
      <trkpt lat="46.19372" lon="6.69812">
        <ele>1006.64</ele>
        <time>2014-06-27T16:22:55Z</time>
      </trkpt>
      <trkpt lat="46.19367" lon="6.69816">
        <ele>1005.2</ele>
        <time>2014-06-27T16:22:56Z</time>
      </trkpt>
      <trkpt lat="46.1934" lon="6.69845">
        <ele>1000.39</ele>
        <time>2014-06-27T16:23:00Z</time>
      </trkpt>
      <trkpt lat="46.19326" lon="6.69864">
        <ele>997.51</ele>
        <time>2014-06-27T16:23:02Z</time>
      </trkpt>
      <trkpt lat="46.19308" lon="6.69876">
        <ele>992.22</ele>
        <time>2014-06-27T16:23:05Z</time>
      </trkpt>
      <trkpt lat="46.193" lon="6.69867">
        <ele>988.85</ele>
        <time>2014-06-27T16:23:07Z</time>
      </trkpt>
      <trkpt lat="46.19296" lon="6.69861">
        <ele>987.41</ele>
        <time>2014-06-27T16:23:08Z</time>
      </trkpt>
      <trkpt lat="46.19291" lon="6.69847">
        <ele>986.45</ele>
        <time>2014-06-27T16:23:12Z</time>
      </trkpt>
      <trkpt lat="46.19298" lon="6.69835">
        <ele>988.37</ele>
        <time>2014-06-27T16:23:17Z</time>
      </trkpt>
      <trkpt lat="46.19308" lon="6.69821">
        <ele>990.3</ele>
        <time>2014-06-27T16:23:20Z</time>
      </trkpt>
      <trkpt lat="46.19327" lon="6.69793">
        <ele>990.78</ele>
        <time>2014-06-27T16:23:25Z</time>
      </trkpt>
      <trkpt lat="46.19333" lon="6.69764">
        <ele>987.41</ele>
        <time>2014-06-27T16:23:31Z</time>
      </trkpt>
      <trkpt lat="46.19321" lon="6.69771">
        <ele>984.53</ele>
        <time>2014-06-27T16:23:35Z</time>
      </trkpt>
      <trkpt lat="46.1931" lon="6.69783">
        <ele>984.05</ele>
        <time>2014-06-27T16:23:38Z</time>
      </trkpt>
      <trkpt lat="46.19283" lon="6.6981">
        <ele>987.41</ele>
        <time>2014-06-27T16:23:44Z</time>
      </trkpt>
      <trkpt lat="46.19271" lon="6.69823">
        <ele>989.33</ele>
        <time>2014-06-27T16:23:47Z</time>
      </trkpt>
      <trkpt lat="46.19249" lon="6.69843">
        <ele>989.81</ele>
        <time>2014-06-27T16:23:52Z</time>
      </trkpt>
      <trkpt lat="46.19242" lon="6.6985">
        <ele>989.81</ele>
        <time>2014-06-27T16:23:54Z</time>
      </trkpt>
      <trkpt lat="46.1921" lon="6.69885">
        <ele>989.33</ele>
        <time>2014-06-27T16:24:03Z</time>
      </trkpt>
      <trkpt lat="46.19166" lon="6.69933">
        <ele>989.81</ele>
        <time>2014-06-27T16:24:15Z</time>
      </trkpt>
      <trkpt lat="46.19123" lon="6.69975">
        <ele>990.78</ele>
        <time>2014-06-27T16:24:28Z</time>
      </trkpt>
      <trkpt lat="46.19116" lon="6.6998">
        <ele>990.78</ele>
        <time>2014-06-27T16:24:30Z</time>
      </trkpt>
      <trkpt lat="46.19095" lon="6.69973">
        <ele>987.41</ele>
        <time>2014-06-27T16:24:35Z</time>
      </trkpt>
      <trkpt lat="46.1909" lon="6.69942">
        <ele>980.2</ele>
        <time>2014-06-27T16:24:39Z</time>
      </trkpt>
      <trkpt lat="46.19087" lon="6.69927">
        <ele>976.36</ele>
        <time>2014-06-27T16:24:41Z</time>
      </trkpt>
      <trkpt lat="46.19084" lon="6.69912">
        <ele>972.99</ele>
        <time>2014-06-27T16:24:43Z</time>
      </trkpt>
      <trkpt lat="46.19082" lon="6.69897">
        <ele>971.07</ele>
        <time>2014-06-27T16:24:45Z</time>
      </trkpt>
      <trkpt lat="46.19074" lon="6.69882">
        <ele>969.15</ele>
        <time>2014-06-27T16:24:48Z</time>
      </trkpt>
      <trkpt lat="46.19059" lon="6.69872">
        <ele>969.15</ele>
        <time>2014-06-27T16:24:51Z</time>
      </trkpt>
      <trkpt lat="46.19035" lon="6.69848">
        <ele>966.74</ele>
        <time>2014-06-27T16:24:56Z</time>
      </trkpt>
      <trkpt lat="46.19004" lon="6.69833">
        <ele>962.9</ele>
        <time>2014-06-27T16:25:01Z</time>
      </trkpt>
      <trkpt lat="46.18984" lon="6.69811">
        <ele>958.57</ele>
        <time>2014-06-27T16:25:05Z</time>
      </trkpt>
      <trkpt lat="46.18975" lon="6.69767">
        <ele>953.77</ele>
        <time>2014-06-27T16:25:10Z</time>
      </trkpt>
      <trkpt lat="46.18987" lon="6.69733">
        <ele>950.4</ele>
        <time>2014-06-27T16:25:15Z</time>
      </trkpt>
      <trkpt lat="46.18992" lon="6.69717">
        <ele>949.44</ele>
        <time>2014-06-27T16:25:17Z</time>
      </trkpt>
      <trkpt lat="46.18991" lon="6.69692">
        <ele>948.96</ele>
        <time>2014-06-27T16:25:21Z</time>
      </trkpt>
      <trkpt lat="46.18988" lon="6.6968">
        <ele>948.96</ele>
        <time>2014-06-27T16:25:23Z</time>
      </trkpt>
      <trkpt lat="46.18979" lon="6.69655">
        <ele>949.92</ele>
        <time>2014-06-27T16:25:27Z</time>
      </trkpt>
      <trkpt lat="46.1897" lon="6.69625">
        <ele>953.77</ele>
        <time>2014-06-27T16:25:35Z</time>
      </trkpt>
      <trkpt lat="46.1897" lon="6.69617">
        <ele>958.09</ele>
        <time>2014-06-27T16:25:39Z</time>
      </trkpt>
      <trkpt lat="46.18971" lon="6.69615">
        <ele>958.57</ele>
        <time>2014-06-27T16:25:40Z</time>
      </trkpt>
      <trkpt lat="46.18977" lon="6.69607">
        <ele>959.53</ele>
        <time>2014-06-27T16:25:46Z</time>
      </trkpt>
      <trkpt lat="46.19001" lon="6.69579">
        <ele>959.05</ele>
        <time>2014-06-27T16:26:02Z</time>
      </trkpt>
      <trkpt lat="46.19027" lon="6.69542">
        <ele>959.53</ele>
        <time>2014-06-27T16:26:16Z</time>
      </trkpt>
      <trkpt lat="46.1903" lon="6.69537">
        <ele>960.01</ele>
        <time>2014-06-27T16:26:18Z</time>
      </trkpt>
      <trkpt lat="46.19045" lon="6.6956">
        <ele>960.01</ele>
        <time>2014-06-27T16:26:27Z</time>
      </trkpt>
      <trkpt lat="46.19049" lon="6.69565">
        <ele>960.01</ele>
        <time>2014-06-27T16:26:29Z</time>
      </trkpt>
      <trkpt lat="46.19064" lon="6.69561">
        <ele>960.01</ele>
        <time>2014-06-27T16:26:35Z</time>
      </trkpt>
      <trkpt lat="46.19108" lon="6.69536">
        <ele>960.01</ele>
        <time>2014-06-27T16:26:49Z</time>
      </trkpt>
      <trkpt lat="46.19122" lon="6.69495">
        <ele>960.01</ele>
        <time>2014-06-27T16:26:58Z</time>
      </trkpt>
      <trkpt lat="46.19113" lon="6.69451">
        <ele>959.53</ele>
        <time>2014-06-27T16:27:09Z</time>
      </trkpt>
      <trkpt lat="46.19113" lon="6.6945">
        <ele>959.53</ele>
        <time>2014-06-27T16:27:19Z</time>
      </trkpt>
      <trkpt lat="46.19112" lon="6.6945">
        <ele>959.53</ele>
        <time>2014-06-27T16:27:47Z</time>
      </trkpt>
      <trkpt lat="46.1911" lon="6.6945">
        <ele>959.53</ele>
        <time>2014-06-27T16:28:06Z</time>
      </trkpt>
      <trkpt lat="46.1911" lon="6.6945">
        <ele>959.53</ele>
        <time>2014-06-27T16:28:43Z</time>
      </trkpt>
      <trkpt lat="46.19111" lon="6.6945">
        <ele>959.53</ele>
        <time>2014-06-27T16:29:17Z</time>
      </trkpt>
      <trkpt lat="46.19111" lon="6.6945">
        <ele>959.53</ele>
        <time>2014-06-27T16:29:34Z</time>
      </trkpt>
      <trkpt lat="46.19111" lon="6.6945">
        <ele>959.53</ele>
        <time>2014-06-27T16:29:46Z</time>
      </trkpt>
      <trkpt lat="46.19112" lon="6.69457">
        <ele>959.53</ele>
        <time>2014-06-27T16:29:50Z</time>
      </trkpt>
      <trkpt lat="46.19123" lon="6.69496">
        <ele>959.53</ele>
        <time>2014-06-27T16:29:59Z</time>
      </trkpt>
      <trkpt lat="46.19098" lon="6.69499">
        <ele>959.53</ele>
        <time>2014-06-27T16:30:08Z</time>
      </trkpt>
      <trkpt lat="46.19092" lon="6.69488">
        <ele>959.53</ele>
        <time>2014-06-27T16:30:11Z</time>
      </trkpt>
      <trkpt lat="46.1908" lon="6.69496">
        <ele>959.53</ele>
        <time>2014-06-27T16:30:17Z</time>
      </trkpt>
      <trkpt lat="46.19068" lon="6.69507">
        <ele>959.53</ele>
        <time>2014-06-27T16:30:21Z</time>
      </trkpt>
      <trkpt lat="46.19051" lon="6.6952">
        <ele>959.05</ele>
        <time>2014-06-27T16:30:25Z</time>
      </trkpt>
      <trkpt lat="46.1904" lon="6.69531">
        <ele>959.05</ele>
        <time>2014-06-27T16:30:28Z</time>
      </trkpt>
      <trkpt lat="46.19026" lon="6.69547">
        <ele>959.05</ele>
        <time>2014-06-27T16:30:32Z</time>
      </trkpt>
      <trkpt lat="46.19019" lon="6.69557">
        <ele>959.05</ele>
        <time>2014-06-27T16:30:34Z</time>
      </trkpt>
      <trkpt lat="46.18975" lon="6.69602">
        <ele>957.61</ele>
        <time>2014-06-27T16:30:45Z</time>
      </trkpt>
      <trkpt lat="46.1897" lon="6.69613">
        <ele>954.73</ele>
        <time>2014-06-27T16:30:48Z</time>
      </trkpt>
      <trkpt lat="46.18975" lon="6.69631">
        <ele>951.36</ele>
        <time>2014-06-27T16:30:51Z</time>
      </trkpt>
      <trkpt lat="46.1898" lon="6.6966">
        <ele>946.07</ele>
        <time>2014-06-27T16:30:55Z</time>
      </trkpt>
      <trkpt lat="46.18954" lon="6.69693">
        <ele>944.63</ele>
        <time>2014-06-27T16:31:01Z</time>
      </trkpt>
      <trkpt lat="46.18943" lon="6.69697">
        <ele>945.59</ele>
        <time>2014-06-27T16:31:03Z</time>
      </trkpt>
      <trkpt lat="46.18913" lon="6.69706">
        <ele>949.92</ele>
        <time>2014-06-27T16:31:09Z</time>
      </trkpt>
      <trkpt lat="46.18904" lon="6.69712">
        <ele>950.4</ele>
        <time>2014-06-27T16:31:11Z</time>
      </trkpt>
      <trkpt lat="46.18853" lon="6.69739">
        <ele>950.4</ele>
        <time>2014-06-27T16:31:23Z</time>
      </trkpt>
      <trkpt lat="46.18818" lon="6.69769">
        <ele>950.4</ele>
        <time>2014-06-27T16:31:32Z</time>
      </trkpt>
      <trkpt lat="46.18803" lon="6.69772">
        <ele>950.4</ele>
        <time>2014-06-27T16:31:35Z</time>
      </trkpt>
      <trkpt lat="46.18757" lon="6.69805">
        <ele>951.36</ele>
        <time>2014-06-27T16:31:47Z</time>
      </trkpt>
      <trkpt lat="46.18734" lon="6.69852">
        <ele>952.32</ele>
        <time>2014-06-27T16:31:57Z</time>
      </trkpt>
      <trkpt lat="46.18726" lon="6.69914">
        <ele>952.8</ele>
        <time>2014-06-27T16:32:07Z</time>
      </trkpt>
      <trkpt lat="46.18699" lon="6.69973">
        <ele>954.25</ele>
        <time>2014-06-27T16:32:19Z</time>
      </trkpt>
      <trkpt lat="46.18663" lon="6.70019">
        <ele>954.73</ele>
        <time>2014-06-27T16:32:31Z</time>
      </trkpt>
      <trkpt lat="46.18624" lon="6.7003">
        <ele>956.17</ele>
        <time>2014-06-27T16:32:42Z</time>
      </trkpt>
      <trkpt lat="46.1859" lon="6.70064">
        <ele>957.13</ele>
        <time>2014-06-27T16:32:54Z</time>
      </trkpt>
      <trkpt lat="46.18564" lon="6.70113">
        <ele>958.09</ele>
        <time>2014-06-27T16:33:06Z</time>
      </trkpt>
      <trkpt lat="46.18551" lon="6.7017">
        <ele>959.05</ele>
        <time>2014-06-27T16:33:18Z</time>
      </trkpt>
      <trkpt lat="46.18527" lon="6.70229">
        <ele>960.01</ele>
        <time>2014-06-27T16:33:31Z</time>
      </trkpt>
      <trkpt lat="46.18502" lon="6.70262">
        <ele>960.49</ele>
        <time>2014-06-27T16:33:39Z</time>
      </trkpt>
      <trkpt lat="46.18456" lon="6.70295">
        <ele>962.42</ele>
        <time>2014-06-27T16:33:51Z</time>
      </trkpt>
      <trkpt lat="46.18423" lon="6.70354">
        <ele>963.38</ele>
        <time>2014-06-27T16:34:04Z</time>
      </trkpt>
      <trkpt lat="46.18403" lon="6.70397">
        <ele>963.86</ele>
        <time>2014-06-27T16:34:15Z</time>
      </trkpt>
      <trkpt lat="46.1837" lon="6.70416">
        <ele>964.82</ele>
        <time>2014-06-27T16:34:27Z</time>
      </trkpt>
      <trkpt lat="46.18361" lon="6.70406">
        <ele>966.26</ele>
        <time>2014-06-27T16:34:38Z</time>
      </trkpt>
      <trkpt lat="46.18361" lon="6.70406">
        <ele>966.74</ele>
        <time>2014-06-27T16:34:58Z</time>
      </trkpt>
      <trkpt lat="46.18343" lon="6.70409">
        <ele>966.74</ele>
        <time>2014-06-27T16:35:09Z</time>
      </trkpt>
      <trkpt lat="46.18341" lon="6.70408">
        <ele>966.74</ele>
        <time>2014-06-27T16:35:10Z</time>
      </trkpt>
      <trkpt lat="46.18299" lon="6.7042">
        <ele>967.7</ele>
        <time>2014-06-27T16:35:26Z</time>
      </trkpt>
      <trkpt lat="46.18269" lon="6.70453">
        <ele>968.18</ele>
        <time>2014-06-27T16:35:38Z</time>
      </trkpt>
      <trkpt lat="46.18257" lon="6.7047">
        <ele>968.67</ele>
        <time>2014-06-27T16:35:44Z</time>
      </trkpt>
      <trkpt lat="46.18248" lon="6.7046">
        <ele>969.15</ele>
        <time>2014-06-27T16:35:50Z</time>
      </trkpt>
      <trkpt lat="46.18248" lon="6.70449">
        <ele>970.11</ele>
        <time>2014-06-27T16:35:55Z</time>
      </trkpt>
      <trkpt lat="46.18255" lon="6.70425">
        <ele>972.51</ele>
        <time>2014-06-27T16:36:08Z</time>
      </trkpt>
      <trkpt lat="46.18262" lon="6.70406">
        <ele>975.39</ele>
        <time>2014-06-27T16:36:21Z</time>
      </trkpt>
      <trkpt lat="46.18269" lon="6.70389">
        <ele>979.24</ele>
        <time>2014-06-27T16:36:30Z</time>
      </trkpt>
      <trkpt lat="46.1827" lon="6.70387">
        <ele>980.2</ele>
        <time>2014-06-27T16:36:31Z</time>
      </trkpt>
      <trkpt lat="46.18275" lon="6.7038">
        <ele>984.53</ele>
        <time>2014-06-27T16:36:36Z</time>
      </trkpt>
      <trkpt lat="46.18283" lon="6.70372">
        <ele>985.01</ele>
        <time>2014-06-27T16:36:48Z</time>
      </trkpt>
      <trkpt lat="46.18284" lon="6.70373">
        <ele>985.01</ele>
        <time>2014-06-27T16:37:02Z</time>
      </trkpt>
      <trkpt lat="46.18292" lon="6.70364">
        <ele>986.93</ele>
        <time>2014-06-27T16:37:16Z</time>
      </trkpt>
      <trkpt lat="46.18298" lon="6.70355">
        <ele>988.37</ele>
        <time>2014-06-27T16:37:28Z</time>
      </trkpt>
      <trkpt lat="46.18305" lon="6.70341">
        <ele>991.74</ele>
        <time>2014-06-27T16:37:41Z</time>
      </trkpt>
      <trkpt lat="46.18309" lon="6.70337">
        <ele>992.7</ele>
        <time>2014-06-27T16:37:49Z</time>
      </trkpt>
      <trkpt lat="46.18324" lon="6.70314">
        <ele>993.18</ele>
        <time>2014-06-27T16:38:01Z</time>
      </trkpt>
      <trkpt lat="46.18326" lon="6.70308">
        <ele>993.66</ele>
        <time>2014-06-27T16:38:04Z</time>
      </trkpt>
      <trkpt lat="46.18322" lon="6.70294">
        <ele>993.66</ele>
        <time>2014-06-27T16:38:09Z</time>
      </trkpt>
      <trkpt lat="46.18301" lon="6.70253">
        <ele>993.66</ele>
        <time>2014-06-27T16:38:23Z</time>
      </trkpt>
      <trkpt lat="46.18295" lon="6.7024">
        <ele>993.18</ele>
        <time>2014-06-27T16:38:28Z</time>
      </trkpt>
      <trkpt lat="46.18288" lon="6.70237">
        <ele>993.18</ele>
        <time>2014-06-27T16:38:32Z</time>
      </trkpt>
      <trkpt lat="46.18266" lon="6.70246">
        <ele>993.18</ele>
        <time>2014-06-27T16:38:43Z</time>
      </trkpt>
      <trkpt lat="46.18229" lon="6.70299">
        <ele>994.14</ele>
        <time>2014-06-27T16:38:56Z</time>
      </trkpt>
      <trkpt lat="46.1822" lon="6.70307">
        <ele>994.14</ele>
        <time>2014-06-27T16:38:59Z</time>
      </trkpt>
      <trkpt lat="46.182" lon="6.70288">
        <ele>994.62</ele>
        <time>2014-06-27T16:39:07Z</time>
      </trkpt>
      <trkpt lat="46.18187" lon="6.70269">
        <ele>994.62</ele>
        <time>2014-06-27T16:39:14Z</time>
      </trkpt>
      <trkpt lat="46.18189" lon="6.70279">
        <ele>994.62</ele>
        <time>2014-06-27T16:39:20Z</time>
      </trkpt>
      <trkpt lat="46.18189" lon="6.70292">
        <ele>995.1</ele>
        <time>2014-06-27T16:39:25Z</time>
      </trkpt>
      <trkpt lat="46.18164" lon="6.70336">
        <ele>995.58</ele>
        <time>2014-06-27T16:39:38Z</time>
      </trkpt>
      <trkpt lat="46.18147" lon="6.70355">
        <ele>995.58</ele>
        <time>2014-06-27T16:39:52Z</time>
      </trkpt>
      <trkpt lat="46.18147" lon="6.70355">
        <ele>995.58</ele>
        <time>2014-06-27T16:40:12Z</time>
      </trkpt>
      <trkpt lat="46.18145" lon="6.70355">
        <ele>995.58</ele>
        <time>2014-06-27T16:40:30Z</time>
      </trkpt>
      <trkpt lat="46.18145" lon="6.70354">
        <ele>995.58</ele>
        <time>2014-06-27T16:40:53Z</time>
      </trkpt>
      <trkpt lat="46.18145" lon="6.70354">
        <ele>995.58</ele>
        <time>2014-06-27T16:41:15Z</time>
      </trkpt>
      <trkpt lat="46.18145" lon="6.70354">
        <ele>995.58</ele>
        <time>2014-06-27T16:41:44Z</time>
      </trkpt>
      <trkpt lat="46.18144" lon="6.70354">
        <ele>995.58</ele>
        <time>2014-06-27T16:42:04Z</time>
      </trkpt>
      <trkpt lat="46.18136" lon="6.70353">
        <ele>995.58</ele>
        <time>2014-06-27T16:42:09Z</time>
      </trkpt>
      <trkpt lat="46.18107" lon="6.70311">
        <ele>996.06</ele>
        <time>2014-06-27T16:42:22Z</time>
      </trkpt>
      <trkpt lat="46.18097" lon="6.70298">
        <ele>996.54</ele>
        <time>2014-06-27T16:42:26Z</time>
      </trkpt>
      <trkpt lat="46.18092" lon="6.70287">
        <ele>996.54</ele>
        <time>2014-06-27T16:42:30Z</time>
      </trkpt>
      <trkpt lat="46.18083" lon="6.70275">
        <ele>997.02</ele>
        <time>2014-06-27T16:42:33Z</time>
      </trkpt>
      <trkpt lat="46.1805" lon="6.70231">
        <ele>999.43</ele>
        <time>2014-06-27T16:42:45Z</time>
      </trkpt>
      <trkpt lat="46.18026" lon="6.70201">
        <ele>1001.35</ele>
        <time>2014-06-27T16:42:56Z</time>
      </trkpt>
      <trkpt lat="46.18002" lon="6.70175">
        <ele>1004.23</ele>
        <time>2014-06-27T16:43:05Z</time>
      </trkpt>
      <trkpt lat="46.17995" lon="6.70166">
        <ele>1007.12</ele>
        <time>2014-06-27T16:43:08Z</time>
      </trkpt>
      <trkpt lat="46.17988" lon="6.70171">
        <ele>1010</ele>
        <time>2014-06-27T16:43:18Z</time>
      </trkpt>
      <trkpt lat="46.17989" lon="6.70175">
        <ele>1008.56</ele>
        <time>2014-06-27T16:43:37Z</time>
      </trkpt>
      <trkpt lat="46.17989" lon="6.70175">
        <ele>1008.08</ele>
        <time>2014-06-27T16:44:06Z</time>
      </trkpt>
      <trkpt lat="46.17989" lon="6.70175">
        <ele>1008.08</ele>
        <time>2014-06-27T16:44:36Z</time>
      </trkpt>
      <trkpt lat="46.17988" lon="6.70174">
        <ele>1008.08</ele>
        <time>2014-06-27T16:44:41Z</time>
      </trkpt>
      <trkpt lat="46.17987" lon="6.70169">
        <ele>1007.6</ele>
        <time>2014-06-27T16:44:44Z</time>
      </trkpt>
      <trkpt lat="46.17989" lon="6.70166">
        <ele>1007.12</ele>
        <time>2014-06-27T16:44:49Z</time>
      </trkpt>
      <trkpt lat="46.17989" lon="6.70164">
        <ele>1007.12</ele>
        <time>2014-06-27T16:44:58Z</time>
      </trkpt>
      <trkpt lat="46.17989" lon="6.70164">
        <ele>1007.12</ele>
        <time>2014-06-27T16:45:07Z</time>
      </trkpt>
      <trkpt lat="46.1799" lon="6.70165">
        <ele>1007.12</ele>
        <time>2014-06-27T16:45:09Z</time>
      </trkpt>
      <trkpt lat="46.18023" lon="6.702">
        <ele>1005.2</ele>
        <time>2014-06-27T16:45:20Z</time>
      </trkpt>
      <trkpt lat="46.1804" lon="6.70219">
        <ele>1001.83</ele>
        <time>2014-06-27T16:45:26Z</time>
      </trkpt>
      <trkpt lat="46.18041" lon="6.70221">
        <ele>998.47</ele>
        <time>2014-06-27T16:45:31Z</time>
      </trkpt>
      <trkpt lat="46.18051" lon="6.70228">
        <ele>998.47</ele>
        <time>2014-06-27T16:45:39Z</time>
      </trkpt>
      <trkpt lat="46.18082" lon="6.70279">
        <ele>998.47</ele>
        <time>2014-06-27T16:45:50Z</time>
      </trkpt>
      <trkpt lat="46.18086" lon="6.70285">
        <ele>998.47</ele>
        <time>2014-06-27T16:45:51Z</time>
      </trkpt>
      <trkpt lat="46.18107" lon="6.7032">
        <ele>997.51</ele>
        <time>2014-06-27T16:45:57Z</time>
      </trkpt>
      <trkpt lat="46.18127" lon="6.7035">
        <ele>996.54</ele>
        <time>2014-06-27T16:46:05Z</time>
      </trkpt>
      <trkpt lat="46.18141" lon="6.70357">
        <ele>995.58</ele>
        <time>2014-06-27T16:46:15Z</time>
      </trkpt>
      <trkpt lat="46.18141" lon="6.70356">
        <ele>995.1</ele>
        <time>2014-06-27T16:46:30Z</time>
      </trkpt>
      <trkpt lat="46.18141" lon="6.70356">
        <ele>995.1</ele>
        <time>2014-06-27T16:46:49Z</time>
      </trkpt>
      <trkpt lat="46.18141" lon="6.70356">
        <ele>995.1</ele>
        <time>2014-06-27T16:47:07Z</time>
      </trkpt>
      <trkpt lat="46.18141" lon="6.70356">
        <ele>995.1</ele>
        <time>2014-06-27T16:47:25Z</time>
      </trkpt>
      <trkpt lat="46.18141" lon="6.70356">
        <ele>995.1</ele>
        <time>2014-06-27T16:47:51Z</time>
      </trkpt>
      <trkpt lat="46.18141" lon="6.70356">
        <ele>995.1</ele>
        <time>2014-06-27T16:48:16Z</time>
      </trkpt>
      <trkpt lat="46.18141" lon="6.70356">
        <ele>995.1</ele>
        <time>2014-06-27T16:48:41Z</time>
      </trkpt>
      <trkpt lat="46.18141" lon="6.70356">
        <ele>995.1</ele>
        <time>2014-06-27T16:48:48Z</time>
      </trkpt>
      <trkpt lat="46.18142" lon="6.70337">
        <ele>994.62</ele>
        <time>2014-06-27T16:48:57Z</time>
      </trkpt>
      <trkpt lat="46.18139" lon="6.70328">
        <ele>994.14</ele>
        <time>2014-06-27T16:49:00Z</time>
      </trkpt>
      <trkpt lat="46.1814" lon="6.70308">
        <ele>994.14</ele>
        <time>2014-06-27T16:49:06Z</time>
      </trkpt>
      <trkpt lat="46.18142" lon="6.7025">
        <ele>994.14</ele>
        <time>2014-06-27T16:49:21Z</time>
      </trkpt>
      <trkpt lat="46.18144" lon="6.702">
        <ele>994.14</ele>
        <time>2014-06-27T16:49:34Z</time>
      </trkpt>
      <trkpt lat="46.18141" lon="6.70131">
        <ele>994.62</ele>
        <time>2014-06-27T16:49:50Z</time>
      </trkpt>
      <trkpt lat="46.18147" lon="6.70062">
        <ele>995.58</ele>
        <time>2014-06-27T16:50:06Z</time>
      </trkpt>
      <trkpt lat="46.18169" lon="6.70004">
        <ele>997.02</ele>
        <time>2014-06-27T16:50:21Z</time>
      </trkpt>
      <trkpt lat="46.18192" lon="6.69959">
        <ele>997.51</ele>
        <time>2014-06-27T16:50:34Z</time>
      </trkpt>
      <trkpt lat="46.18224" lon="6.69895">
        <ele>998.95</ele>
        <time>2014-06-27T16:50:53Z</time>
      </trkpt>
      <trkpt lat="46.18251" lon="6.69842">
        <ele>1000.39</ele>
        <time>2014-06-27T16:51:09Z</time>
      </trkpt>
      <trkpt lat="46.18274" lon="6.69775">
        <ele>1002.31</ele>
        <time>2014-06-27T16:51:27Z</time>
      </trkpt>
      <trkpt lat="46.18292" lon="6.69696">
        <ele>1004.23</ele>
        <time>2014-06-27T16:51:47Z</time>
      </trkpt>
      <trkpt lat="46.18322" lon="6.69632">
        <ele>1006.16</ele>
        <time>2014-06-27T16:52:07Z</time>
      </trkpt>
      <trkpt lat="46.18358" lon="6.69592">
        <ele>1007.6</ele>
        <time>2014-06-27T16:52:23Z</time>
      </trkpt>
      <trkpt lat="46.18409" lon="6.69541">
        <ele>1009.52</ele>
        <time>2014-06-27T16:52:40Z</time>
      </trkpt>
      <trkpt lat="46.18456" lon="6.69474">
        <ele>1011.44</ele>
        <time>2014-06-27T16:52:57Z</time>
      </trkpt>
      <trkpt lat="46.18507" lon="6.6944">
        <ele>1013.37</ele>
        <time>2014-06-27T16:53:12Z</time>
      </trkpt>
      <trkpt lat="46.18552" lon="6.69405">
        <ele>1014.81</ele>
        <time>2014-06-27T16:53:25Z</time>
      </trkpt>
      <trkpt lat="46.18585" lon="6.69372">
        <ele>1015.77</ele>
        <time>2014-06-27T16:53:36Z</time>
      </trkpt>
      <trkpt lat="46.18632" lon="6.69341">
        <ele>1017.69</ele>
        <time>2014-06-27T16:53:50Z</time>
      </trkpt>
      <trkpt lat="46.18671" lon="6.69292">
        <ele>1019.13</ele>
        <time>2014-06-27T16:54:03Z</time>
      </trkpt>
      <trkpt lat="46.18722" lon="6.69243">
        <ele>1021.06</ele>
        <time>2014-06-27T16:54:19Z</time>
      </trkpt>
      <trkpt lat="46.1877" lon="6.69188">
        <ele>1023.46</ele>
        <time>2014-06-27T16:54:35Z</time>
      </trkpt>
      <trkpt lat="46.18816" lon="6.69141">
        <ele>1024.9</ele>
        <time>2014-06-27T16:54:50Z</time>
      </trkpt>
      <trkpt lat="46.18832" lon="6.69106">
        <ele>1026.34</ele>
        <time>2014-06-27T16:54:59Z</time>
      </trkpt>
      <trkpt lat="46.18853" lon="6.69062">
        <ele>1027.31</ele>
        <time>2014-06-27T16:55:10Z</time>
      </trkpt>
      <trkpt lat="46.18897" lon="6.6903">
        <ele>1029.23</ele>
        <time>2014-06-27T16:55:25Z</time>
      </trkpt>
      <trkpt lat="46.18929" lon="6.6899">
        <ele>1031.15</ele>
        <time>2014-06-27T16:55:38Z</time>
      </trkpt>
      <trkpt lat="46.18958" lon="6.68946">
        <ele>1033.07</ele>
        <time>2014-06-27T16:55:51Z</time>
      </trkpt>
      <trkpt lat="46.18991" lon="6.68899">
        <ele>1034.52</ele>
        <time>2014-06-27T16:56:05Z</time>
      </trkpt>
      <trkpt lat="46.19028" lon="6.68848">
        <ele>1037.4</ele>
        <time>2014-06-27T16:56:20Z</time>
      </trkpt>
      <trkpt lat="46.19057" lon="6.68797">
        <ele>1039.32</ele>
        <time>2014-06-27T16:56:34Z</time>
      </trkpt>
      <trkpt lat="46.19087" lon="6.68738">
        <ele>1041.73</ele>
        <time>2014-06-27T16:56:50Z</time>
      </trkpt>
      <trkpt lat="46.19091" lon="6.68727">
        <ele>1042.21</ele>
        <time>2014-06-27T16:56:53Z</time>
      </trkpt>
      <trkpt lat="46.1909" lon="6.68712">
        <ele>1042.69</ele>
        <time>2014-06-27T16:56:57Z</time>
      </trkpt>
      <trkpt lat="46.19084" lon="6.68664">
        <ele>1044.61</ele>
        <time>2014-06-27T16:57:09Z</time>
      </trkpt>
      <trkpt lat="46.19072" lon="6.68607">
        <ele>1046.53</ele>
        <time>2014-06-27T16:57:21Z</time>
      </trkpt>
      <trkpt lat="46.19046" lon="6.68557">
        <ele>1048.45</ele>
        <time>2014-06-27T16:57:35Z</time>
      </trkpt>
      <trkpt lat="46.19027" lon="6.68537">
        <ele>1049.42</ele>
        <time>2014-06-27T16:57:45Z</time>
      </trkpt>
      <trkpt lat="46.18997" lon="6.6851">
        <ele>1050.86</ele>
        <time>2014-06-27T16:57:56Z</time>
      </trkpt>
      <trkpt lat="46.18965" lon="6.68485">
        <ele>1052.3</ele>
        <time>2014-06-27T16:58:07Z</time>
      </trkpt>
      <trkpt lat="46.18919" lon="6.68451">
        <ele>1054.7</ele>
        <time>2014-06-27T16:58:20Z</time>
      </trkpt>
      <trkpt lat="46.18882" lon="6.6842">
        <ele>1056.15</ele>
        <time>2014-06-27T16:58:33Z</time>
      </trkpt>
      <trkpt lat="46.18831" lon="6.68379">
        <ele>1059.03</ele>
        <time>2014-06-27T16:58:50Z</time>
      </trkpt>
      <trkpt lat="46.18786" lon="6.68348">
        <ele>1060.95</ele>
        <time>2014-06-27T16:59:04Z</time>
      </trkpt>
      <trkpt lat="46.18737" lon="6.68313">
        <ele>1063.84</ele>
        <time>2014-06-27T16:59:20Z</time>
      </trkpt>
      <trkpt lat="46.18696" lon="6.68287">
        <ele>1066.24</ele>
        <time>2014-06-27T16:59:35Z</time>
      </trkpt>
      <trkpt lat="46.18651" lon="6.68257">
        <ele>1069.12</ele>
        <time>2014-06-27T16:59:50Z</time>
      </trkpt>
      <trkpt lat="46.18611" lon="6.68245">
        <ele>1071.53</ele>
        <time>2014-06-27T17:00:03Z</time>
      </trkpt>
      <trkpt lat="46.18551" lon="6.68239">
        <ele>1073.93</ele>
        <time>2014-06-27T17:00:22Z</time>
      </trkpt>
      <trkpt lat="46.18498" lon="6.68216">
        <ele>1077.29</ele>
        <time>2014-06-27T17:00:39Z</time>
      </trkpt>
      <trkpt lat="46.18443" lon="6.6818">
        <ele>1080.18</ele>
        <time>2014-06-27T17:00:57Z</time>
      </trkpt>
      <trkpt lat="46.18396" lon="6.68153">
        <ele>1082.58</ele>
        <time>2014-06-27T17:01:14Z</time>
      </trkpt>
      <trkpt lat="46.18364" lon="6.6814">
        <ele>1084.99</ele>
        <time>2014-06-27T17:01:28Z</time>
      </trkpt>
      <trkpt lat="46.1833" lon="6.68141">
        <ele>1086.43</ele>
        <time>2014-06-27T17:01:41Z</time>
      </trkpt>
      <trkpt lat="46.18292" lon="6.68157">
        <ele>1088.83</ele>
        <time>2014-06-27T17:01:54Z</time>
      </trkpt>
      <trkpt lat="46.18236" lon="6.6819">
        <ele>1090.75</ele>
        <time>2014-06-27T17:02:11Z</time>
      </trkpt>
      <trkpt lat="46.18197" lon="6.68233">
        <ele>1093.64</ele>
        <time>2014-06-27T17:02:27Z</time>
      </trkpt>
      <trkpt lat="46.18164" lon="6.68247">
        <ele>1096.04</ele>
        <time>2014-06-27T17:02:40Z</time>
      </trkpt>
      <trkpt lat="46.18128" lon="6.68273">
        <ele>1097.96</ele>
        <time>2014-06-27T17:02:54Z</time>
      </trkpt>
      <trkpt lat="46.18089" lon="6.68289">
        <ele>1099.89</ele>
        <time>2014-06-27T17:03:08Z</time>
      </trkpt>
      <trkpt lat="46.18043" lon="6.68299">
        <ele>1102.29</ele>
        <time>2014-06-27T17:03:24Z</time>
      </trkpt>
      <trkpt lat="46.18004" lon="6.68324">
        <ele>1105.17</ele>
        <time>2014-06-27T17:03:39Z</time>
      </trkpt>
      <trkpt lat="46.17972" lon="6.68333">
        <ele>1106.61</ele>
        <time>2014-06-27T17:03:50Z</time>
      </trkpt>
      <trkpt lat="46.17926" lon="6.68328">
        <ele>1108.54</ele>
        <time>2014-06-27T17:04:05Z</time>
      </trkpt>
      <trkpt lat="46.17878" lon="6.68316">
        <ele>1111.9</ele>
        <time>2014-06-27T17:04:22Z</time>
      </trkpt>
      <trkpt lat="46.17835" lon="6.68318">
        <ele>1113.34</ele>
        <time>2014-06-27T17:04:36Z</time>
      </trkpt>
      <trkpt lat="46.17785" lon="6.68301">
        <ele>1115.27</ele>
        <time>2014-06-27T17:04:50Z</time>
      </trkpt>
      <trkpt lat="46.17736" lon="6.6826">
        <ele>1118.63</ele>
        <time>2014-06-27T17:05:08Z</time>
      </trkpt>
      <trkpt lat="46.17702" lon="6.68219">
        <ele>1121.03</ele>
        <time>2014-06-27T17:05:24Z</time>
      </trkpt>
      <trkpt lat="46.17673" lon="6.68167">
        <ele>1123.44</ele>
        <time>2014-06-27T17:05:41Z</time>
      </trkpt>
      <trkpt lat="46.17638" lon="6.68127">
        <ele>1125.84</ele>
        <time>2014-06-27T17:05:56Z</time>
      </trkpt>
      <trkpt lat="46.17599" lon="6.68126">
        <ele>1126.32</ele>
        <time>2014-06-27T17:06:06Z</time>
      </trkpt>
      <trkpt lat="46.17567" lon="6.68148">
        <ele>1126.8</ele>
        <time>2014-06-27T17:06:14Z</time>
      </trkpt>
      <trkpt lat="46.1755" lon="6.68151">
        <ele>1127.28</ele>
        <time>2014-06-27T17:06:18Z</time>
      </trkpt>
      <trkpt lat="46.17531" lon="6.68145">
        <ele>1127.28</ele>
        <time>2014-06-27T17:06:22Z</time>
      </trkpt>
      <trkpt lat="46.17463" lon="6.68124">
        <ele>1127.76</ele>
        <time>2014-06-27T17:06:36Z</time>
      </trkpt>
      <trkpt lat="46.17432" lon="6.6811">
        <ele>1128.24</ele>
        <time>2014-06-27T17:06:43Z</time>
      </trkpt>
      <trkpt lat="46.17414" lon="6.68098">
        <ele>1128.73</ele>
        <time>2014-06-27T17:06:47Z</time>
      </trkpt>
      <trkpt lat="46.17379" lon="6.68072">
        <ele>1129.69</ele>
        <time>2014-06-27T17:06:56Z</time>
      </trkpt>
      <trkpt lat="46.17359" lon="6.68067">
        <ele>1129.69</ele>
        <time>2014-06-27T17:07:01Z</time>
      </trkpt>
      <trkpt lat="46.17286" lon="6.68059">
        <ele>1130.65</ele>
        <time>2014-06-27T17:07:16Z</time>
      </trkpt>
      <trkpt lat="46.17251" lon="6.68047">
        <ele>1131.13</ele>
        <time>2014-06-27T17:07:24Z</time>
      </trkpt>
      <trkpt lat="46.17227" lon="6.68031">
        <ele>1131.61</ele>
        <time>2014-06-27T17:07:30Z</time>
      </trkpt>
      <trkpt lat="46.1722" lon="6.68024">
        <ele>1131.61</ele>
        <time>2014-06-27T17:07:32Z</time>
      </trkpt>
      <trkpt lat="46.17207" lon="6.68011">
        <ele>1132.09</ele>
        <time>2014-06-27T17:07:36Z</time>
      </trkpt>
      <trkpt lat="46.17194" lon="6.67996">
        <ele>1132.09</ele>
        <time>2014-06-27T17:07:40Z</time>
      </trkpt>
      <trkpt lat="46.17139" lon="6.67931">
        <ele>1133.05</ele>
        <time>2014-06-27T17:07:57Z</time>
      </trkpt>
      <trkpt lat="46.17121" lon="6.67911">
        <ele>1133.53</ele>
        <time>2014-06-27T17:08:02Z</time>
      </trkpt>
      <trkpt lat="46.17053" lon="6.67857">
        <ele>1134.49</ele>
        <time>2014-06-27T17:08:19Z</time>
      </trkpt>
      <trkpt lat="46.17035" lon="6.67848">
        <ele>1134.49</ele>
        <time>2014-06-27T17:08:23Z</time>
      </trkpt>
      <trkpt lat="46.17018" lon="6.67842">
        <ele>1134.97</ele>
        <time>2014-06-27T17:08:27Z</time>
      </trkpt>
      <trkpt lat="46.16986" lon="6.67836">
        <ele>1134.97</ele>
        <time>2014-06-27T17:08:34Z</time>
      </trkpt>
      <trkpt lat="46.16925" lon="6.67813">
        <ele>1135.45</ele>
        <time>2014-06-27T17:08:48Z</time>
      </trkpt>
      <trkpt lat="46.16849" lon="6.67763">
        <ele>1135.94</ele>
        <time>2014-06-27T17:09:06Z</time>
      </trkpt>
      <trkpt lat="46.16786" lon="6.67726">
        <ele>1136.9</ele>
        <time>2014-06-27T17:09:21Z</time>
      </trkpt>
      <trkpt lat="46.16719" lon="6.67684">
        <ele>1137.86</ele>
        <time>2014-06-27T17:09:37Z</time>
      </trkpt>
      <trkpt lat="46.16669" lon="6.67647">
        <ele>1139.78</ele>
        <time>2014-06-27T17:09:52Z</time>
      </trkpt>
      <trkpt lat="46.16618" lon="6.67623">
        <ele>1142.18</ele>
        <time>2014-06-27T17:10:09Z</time>
      </trkpt>
      <trkpt lat="46.1658" lon="6.67581">
        <ele>1144.59</ele>
        <time>2014-06-27T17:10:25Z</time>
      </trkpt>
      <trkpt lat="46.16535" lon="6.67541">
        <ele>1147.47</ele>
        <time>2014-06-27T17:10:43Z</time>
      </trkpt>
      <trkpt lat="46.16488" lon="6.67514">
        <ele>1149.39</ele>
        <time>2014-06-27T17:11:00Z</time>
      </trkpt>
      <trkpt lat="46.16443" lon="6.67487">
        <ele>1151.32</ele>
        <time>2014-06-27T17:11:16Z</time>
      </trkpt>
      <trkpt lat="46.16394" lon="6.67451">
        <ele>1153.24</ele>
        <time>2014-06-27T17:11:33Z</time>
      </trkpt>
      <trkpt lat="46.16355" lon="6.67421">
        <ele>1155.64</ele>
        <time>2014-06-27T17:11:48Z</time>
      </trkpt>
      <trkpt lat="46.16317" lon="6.67384">
        <ele>1157.56</ele>
        <time>2014-06-27T17:12:04Z</time>
      </trkpt>
      <trkpt lat="46.16272" lon="6.67341">
        <ele>1158.53</ele>
        <time>2014-06-27T17:12:22Z</time>
      </trkpt>
      <trkpt lat="46.16222" lon="6.67329">
        <ele>1159.97</ele>
        <time>2014-06-27T17:12:37Z</time>
      </trkpt>
      <trkpt lat="46.1617" lon="6.67304">
        <ele>1160.45</ele>
        <time>2014-06-27T17:12:53Z</time>
      </trkpt>
      <trkpt lat="46.16145" lon="6.67278">
        <ele>1160.93</ele>
        <time>2014-06-27T17:13:01Z</time>
      </trkpt>
      <trkpt lat="46.16119" lon="6.67258">
        <ele>1161.89</ele>
        <time>2014-06-27T17:13:10Z</time>
      </trkpt>
      <trkpt lat="46.16089" lon="6.67221">
        <ele>1163.81</ele>
        <time>2014-06-27T17:13:28Z</time>
      </trkpt>
      <trkpt lat="46.1606" lon="6.6721">
        <ele>1165.74</ele>
        <time>2014-06-27T17:13:42Z</time>
      </trkpt>
      <trkpt lat="46.16028" lon="6.67211">
        <ele>1167.66</ele>
        <time>2014-06-27T17:13:55Z</time>
      </trkpt>
      <trkpt lat="46.16026" lon="6.67212">
        <ele>1167.66</ele>
        <time>2014-06-27T17:13:57Z</time>
      </trkpt>
      <trkpt lat="46.16019" lon="6.67202">
        <ele>1167.66</ele>
        <time>2014-06-27T17:14:04Z</time>
      </trkpt>
      <trkpt lat="46.15997" lon="6.67158">
        <ele>1167.18</ele>
        <time>2014-06-27T17:14:16Z</time>
      </trkpt>
      <trkpt lat="46.15989" lon="6.67109">
        <ele>1167.18</ele>
        <time>2014-06-27T17:14:27Z</time>
      </trkpt>
      <trkpt lat="46.15971" lon="6.67052">
        <ele>1167.18</ele>
        <time>2014-06-27T17:14:40Z</time>
      </trkpt>
      <trkpt lat="46.15939" lon="6.67011">
        <ele>1167.66</ele>
        <time>2014-06-27T17:14:54Z</time>
      </trkpt>
      <trkpt lat="46.15921" lon="6.66996">
        <ele>1167.66</ele>
        <time>2014-06-27T17:14:59Z</time>
      </trkpt>
      <trkpt lat="46.15909" lon="6.66988">
        <ele>1167.66</ele>
        <time>2014-06-27T17:15:02Z</time>
      </trkpt>
      <trkpt lat="46.15895" lon="6.66978">
        <ele>1167.66</ele>
        <time>2014-06-27T17:15:06Z</time>
      </trkpt>
      <trkpt lat="46.15884" lon="6.66968">
        <ele>1167.66</ele>
        <time>2014-06-27T17:15:09Z</time>
      </trkpt>
      <trkpt lat="46.15866" lon="6.6696">
        <ele>1167.66</ele>
        <time>2014-06-27T17:15:13Z</time>
      </trkpt>
      <trkpt lat="46.15857" lon="6.66956">
        <ele>1167.66</ele>
        <time>2014-06-27T17:15:15Z</time>
      </trkpt>
      <trkpt lat="46.1584" lon="6.66946">
        <ele>1167.66</ele>
        <time>2014-06-27T17:15:19Z</time>
      </trkpt>
      <trkpt lat="46.15817" lon="6.66929">
        <ele>1167.66</ele>
        <time>2014-06-27T17:15:25Z</time>
      </trkpt>
      <trkpt lat="46.1581" lon="6.66922">
        <ele>1167.66</ele>
        <time>2014-06-27T17:15:27Z</time>
      </trkpt>
      <trkpt lat="46.15801" lon="6.66916">
        <ele>1167.66</ele>
        <time>2014-06-27T17:15:29Z</time>
      </trkpt>
      <trkpt lat="46.15738" lon="6.66858">
        <ele>1167.66</ele>
        <time>2014-06-27T17:15:45Z</time>
      </trkpt>
      <trkpt lat="46.15702" lon="6.66818">
        <ele>1167.66</ele>
        <time>2014-06-27T17:15:58Z</time>
      </trkpt>
      <trkpt lat="46.15667" lon="6.66769">
        <ele>1168.14</ele>
        <time>2014-06-27T17:16:13Z</time>
      </trkpt>
      <trkpt lat="46.15636" lon="6.66726">
        <ele>1169.1</ele>
        <time>2014-06-27T17:16:27Z</time>
      </trkpt>
      <trkpt lat="46.15621" lon="6.66694">
        <ele>1170.06</ele>
        <time>2014-06-27T17:16:36Z</time>
      </trkpt>
      <trkpt lat="46.15635" lon="6.66663">
        <ele>1170.06</ele>
        <time>2014-06-27T17:16:47Z</time>
      </trkpt>
      <trkpt lat="46.15636" lon="6.66655">
        <ele>1169.1</ele>
        <time>2014-06-27T17:16:57Z</time>
      </trkpt>
    </trkseg>
  </trk>
</gpx>